<?xml version="1.0" encoding="UTF-8" standalone="no" ?>
<gpx xmlns="http://www.topografix.com/GPX/1/1" xmlns:xsi="http://www.w3.org/2001/XMLSchema-instance" xsi:schemaLocation="http://www.topografix.com/GPX/1/1 http://www.topografix.com/GPX/1/1/gpx.xsd" version="1.1" creator="VisuGPX - https://www.visugpx.com">
  <metadata>
    <name>AVF - IRANCY - 23-02-2022</name>
    <desc><![CDATA[AVF - IRANCY - 23-02-2022]]></desc>
  </metadata>
  <trk>
    <name><![CDATA[Randonnée matinale]]></name>
    <extensions>
      <line xmlns="http://www.topografix.com/GPX/gpx_style/0/2">
        <color>0000FF</color>
        <width>4</width>
      </line>
    </extensions>
    <trkseg>
      <trkpt lat="47.71501" lon="3.66338">
        <ele>160.3</ele>
        <time>2022-02-23T08:18:28Z</time>
      </trkpt>
      <trkpt lat="47.715" lon="3.66337">
        <ele>160.3</ele>
        <time>2022-02-23T08:18:29Z</time>
      </trkpt>
      <trkpt lat="47.715" lon="3.66337">
        <ele>160.3</ele>
        <time>2022-02-23T08:18:30Z</time>
      </trkpt>
      <trkpt lat="47.715" lon="3.66338">
        <ele>160.3</ele>
        <time>2022-02-23T08:18:31Z</time>
      </trkpt>
      <trkpt lat="47.715" lon="3.66338">
        <ele>160.3</ele>
        <time>2022-02-23T08:18:32Z</time>
      </trkpt>
      <trkpt lat="47.715" lon="3.66337">
        <ele>160.3</ele>
        <time>2022-02-23T08:18:33Z</time>
      </trkpt>
      <trkpt lat="47.715" lon="3.66338">
        <ele>160.3</ele>
        <time>2022-02-23T08:18:34Z</time>
      </trkpt>
      <trkpt lat="47.715" lon="3.66338">
        <ele>160.3</ele>
        <time>2022-02-23T08:18:35Z</time>
      </trkpt>
      <trkpt lat="47.715" lon="3.66338">
        <ele>160.3</ele>
        <time>2022-02-23T08:18:36Z</time>
      </trkpt>
      <trkpt lat="47.71499" lon="3.66338">
        <ele>160.3</ele>
        <time>2022-02-23T08:18:37Z</time>
      </trkpt>
      <trkpt lat="47.71499" lon="3.66338">
        <ele>160.3</ele>
        <time>2022-02-23T08:18:38Z</time>
      </trkpt>
      <trkpt lat="47.71499" lon="3.66339">
        <ele>160.3</ele>
        <time>2022-02-23T08:18:39Z</time>
      </trkpt>
      <trkpt lat="47.71499" lon="3.66339">
        <ele>160.3</ele>
        <time>2022-02-23T08:18:40Z</time>
      </trkpt>
      <trkpt lat="47.71499" lon="3.66339">
        <ele>160.3</ele>
        <time>2022-02-23T08:18:41Z</time>
      </trkpt>
      <trkpt lat="47.71499" lon="3.66339">
        <ele>160.3</ele>
        <time>2022-02-23T08:18:42Z</time>
      </trkpt>
      <trkpt lat="47.71499" lon="3.66339">
        <ele>160.3</ele>
        <time>2022-02-23T08:18:43Z</time>
      </trkpt>
      <trkpt lat="47.71499" lon="3.66339">
        <ele>160.3</ele>
        <time>2022-02-23T08:18:44Z</time>
      </trkpt>
      <trkpt lat="47.71498" lon="3.66339">
        <ele>160.3</ele>
        <time>2022-02-23T08:18:45Z</time>
      </trkpt>
      <trkpt lat="47.71498" lon="3.66339">
        <ele>160.3</ele>
        <time>2022-02-23T08:18:46Z</time>
      </trkpt>
      <trkpt lat="47.71499" lon="3.6634">
        <ele>160.3</ele>
        <time>2022-02-23T08:18:47Z</time>
      </trkpt>
      <trkpt lat="47.71499" lon="3.6634">
        <ele>160.3</ele>
        <time>2022-02-23T08:18:48Z</time>
      </trkpt>
      <trkpt lat="47.71499" lon="3.66341">
        <ele>160.3</ele>
        <time>2022-02-23T08:18:49Z</time>
      </trkpt>
      <trkpt lat="47.71499" lon="3.66342">
        <ele>160.3</ele>
        <time>2022-02-23T08:18:51Z</time>
      </trkpt>
      <trkpt lat="47.71499" lon="3.66342">
        <ele>160.3</ele>
        <time>2022-02-23T08:18:52Z</time>
      </trkpt>
      <trkpt lat="47.71498" lon="3.66342">
        <ele>160.3</ele>
        <time>2022-02-23T08:18:53Z</time>
      </trkpt>
      <trkpt lat="47.71498" lon="3.66342">
        <ele>160.3</ele>
        <time>2022-02-23T08:18:55Z</time>
      </trkpt>
      <trkpt lat="47.71498" lon="3.66342">
        <ele>160.3</ele>
        <time>2022-02-23T08:18:56Z</time>
      </trkpt>
      <trkpt lat="47.71498" lon="3.66342">
        <ele>160.2</ele>
        <time>2022-02-23T08:18:57Z</time>
      </trkpt>
      <trkpt lat="47.71498" lon="3.66342">
        <ele>160.2</ele>
        <time>2022-02-23T08:18:58Z</time>
      </trkpt>
      <trkpt lat="47.71498" lon="3.66342">
        <ele>160.2</ele>
        <time>2022-02-23T08:18:59Z</time>
      </trkpt>
      <trkpt lat="47.71498" lon="3.66341">
        <ele>160.2</ele>
        <time>2022-02-23T08:19:00Z</time>
      </trkpt>
      <trkpt lat="47.71498" lon="3.66341">
        <ele>160.2</ele>
        <time>2022-02-23T08:19:01Z</time>
      </trkpt>
      <trkpt lat="47.71498" lon="3.66341">
        <ele>160.2</ele>
        <time>2022-02-23T08:19:02Z</time>
      </trkpt>
      <trkpt lat="47.71498" lon="3.66341">
        <ele>160.2</ele>
        <time>2022-02-23T08:19:03Z</time>
      </trkpt>
      <trkpt lat="47.71498" lon="3.66341">
        <ele>160.2</ele>
        <time>2022-02-23T08:19:04Z</time>
      </trkpt>
      <trkpt lat="47.71498" lon="3.66341">
        <ele>160.2</ele>
        <time>2022-02-23T08:19:05Z</time>
      </trkpt>
      <trkpt lat="47.71498" lon="3.66341">
        <ele>160.2</ele>
        <time>2022-02-23T08:19:06Z</time>
      </trkpt>
      <trkpt lat="47.71498" lon="3.6634">
        <ele>160.2</ele>
        <time>2022-02-23T08:19:07Z</time>
      </trkpt>
      <trkpt lat="47.71497" lon="3.6634">
        <ele>160.2</ele>
        <time>2022-02-23T08:19:08Z</time>
      </trkpt>
      <trkpt lat="47.71497" lon="3.6634">
        <ele>160.2</ele>
        <time>2022-02-23T08:19:09Z</time>
      </trkpt>
      <trkpt lat="47.71497" lon="3.6634">
        <ele>160.2</ele>
        <time>2022-02-23T08:19:10Z</time>
      </trkpt>
      <trkpt lat="47.71497" lon="3.6634">
        <ele>160.2</ele>
        <time>2022-02-23T08:19:11Z</time>
      </trkpt>
      <trkpt lat="47.71497" lon="3.6634">
        <ele>160.2</ele>
        <time>2022-02-23T08:19:12Z</time>
      </trkpt>
      <trkpt lat="47.71497" lon="3.66341">
        <ele>160.2</ele>
        <time>2022-02-23T08:19:13Z</time>
      </trkpt>
      <trkpt lat="47.71497" lon="3.66341">
        <ele>160.2</ele>
        <time>2022-02-23T08:19:14Z</time>
      </trkpt>
      <trkpt lat="47.71497" lon="3.66341">
        <ele>160.2</ele>
        <time>2022-02-23T08:19:15Z</time>
      </trkpt>
      <trkpt lat="47.71497" lon="3.66342">
        <ele>160.2</ele>
        <time>2022-02-23T08:19:16Z</time>
      </trkpt>
      <trkpt lat="47.71497" lon="3.66343">
        <ele>160.2</ele>
        <time>2022-02-23T08:19:17Z</time>
      </trkpt>
      <trkpt lat="47.71497" lon="3.66343">
        <ele>160.2</ele>
        <time>2022-02-23T08:19:18Z</time>
      </trkpt>
      <trkpt lat="47.71497" lon="3.66343">
        <ele>160.2</ele>
        <time>2022-02-23T08:19:19Z</time>
      </trkpt>
      <trkpt lat="47.71497" lon="3.66343">
        <ele>160.2</ele>
        <time>2022-02-23T08:19:20Z</time>
      </trkpt>
      <trkpt lat="47.71497" lon="3.66343">
        <ele>160.2</ele>
        <time>2022-02-23T08:19:21Z</time>
      </trkpt>
      <trkpt lat="47.71497" lon="3.66343">
        <ele>160.2</ele>
        <time>2022-02-23T08:19:23Z</time>
      </trkpt>
      <trkpt lat="47.71497" lon="3.66343">
        <ele>160.2</ele>
        <time>2022-02-23T08:19:25Z</time>
      </trkpt>
      <trkpt lat="47.71496" lon="3.66343">
        <ele>160.2</ele>
        <time>2022-02-23T08:19:26Z</time>
      </trkpt>
      <trkpt lat="47.71496" lon="3.66343">
        <ele>160.2</ele>
        <time>2022-02-23T08:19:27Z</time>
      </trkpt>
      <trkpt lat="47.71496" lon="3.66343">
        <ele>160.2</ele>
        <time>2022-02-23T08:19:28Z</time>
      </trkpt>
      <trkpt lat="47.71496" lon="3.66343">
        <ele>160.2</ele>
        <time>2022-02-23T08:19:29Z</time>
      </trkpt>
      <trkpt lat="47.71496" lon="3.66343">
        <ele>160.2</ele>
        <time>2022-02-23T08:19:30Z</time>
      </trkpt>
      <trkpt lat="47.71495" lon="3.66343">
        <ele>160.2</ele>
        <time>2022-02-23T08:19:31Z</time>
      </trkpt>
      <trkpt lat="47.71495" lon="3.66343">
        <ele>160.2</ele>
        <time>2022-02-23T08:19:32Z</time>
      </trkpt>
      <trkpt lat="47.71495" lon="3.66343">
        <ele>160.2</ele>
        <time>2022-02-23T08:19:33Z</time>
      </trkpt>
      <trkpt lat="47.71495" lon="3.66342">
        <ele>160.2</ele>
        <time>2022-02-23T08:19:34Z</time>
      </trkpt>
      <trkpt lat="47.71495" lon="3.66342">
        <ele>160.2</ele>
        <time>2022-02-23T08:19:35Z</time>
      </trkpt>
      <trkpt lat="47.71495" lon="3.66342">
        <ele>160.2</ele>
        <time>2022-02-23T08:19:36Z</time>
      </trkpt>
      <trkpt lat="47.71495" lon="3.66342">
        <ele>160.2</ele>
        <time>2022-02-23T08:19:37Z</time>
      </trkpt>
      <trkpt lat="47.71495" lon="3.66342">
        <ele>160.2</ele>
        <time>2022-02-23T08:19:38Z</time>
      </trkpt>
      <trkpt lat="47.71494" lon="3.66342">
        <ele>160.2</ele>
        <time>2022-02-23T08:19:39Z</time>
      </trkpt>
      <trkpt lat="47.71494" lon="3.66342">
        <ele>160.2</ele>
        <time>2022-02-23T08:19:40Z</time>
      </trkpt>
      <trkpt lat="47.71494" lon="3.66342">
        <ele>160.2</ele>
        <time>2022-02-23T08:19:41Z</time>
      </trkpt>
      <trkpt lat="47.71494" lon="3.66342">
        <ele>160.2</ele>
        <time>2022-02-23T08:19:42Z</time>
      </trkpt>
      <trkpt lat="47.71494" lon="3.66342">
        <ele>160.2</ele>
        <time>2022-02-23T08:19:43Z</time>
      </trkpt>
      <trkpt lat="47.71493" lon="3.66342">
        <ele>160.2</ele>
        <time>2022-02-23T08:19:44Z</time>
      </trkpt>
      <trkpt lat="47.71493" lon="3.66342">
        <ele>160.2</ele>
        <time>2022-02-23T08:19:45Z</time>
      </trkpt>
      <trkpt lat="47.71493" lon="3.66342">
        <ele>160.2</ele>
        <time>2022-02-23T08:19:46Z</time>
      </trkpt>
      <trkpt lat="47.71493" lon="3.66343">
        <ele>160.2</ele>
        <time>2022-02-23T08:19:47Z</time>
      </trkpt>
      <trkpt lat="47.71493" lon="3.66343">
        <ele>160.2</ele>
        <time>2022-02-23T08:19:48Z</time>
      </trkpt>
      <trkpt lat="47.71493" lon="3.66343">
        <ele>160.2</ele>
        <time>2022-02-23T08:19:49Z</time>
      </trkpt>
      <trkpt lat="47.71493" lon="3.66343">
        <ele>160.2</ele>
        <time>2022-02-23T08:19:50Z</time>
      </trkpt>
      <trkpt lat="47.71493" lon="3.66343">
        <ele>160.2</ele>
        <time>2022-02-23T08:19:51Z</time>
      </trkpt>
      <trkpt lat="47.71494" lon="3.66343">
        <ele>160.2</ele>
        <time>2022-02-23T08:19:52Z</time>
      </trkpt>
      <trkpt lat="47.71494" lon="3.66343">
        <ele>160.2</ele>
        <time>2022-02-23T08:19:53Z</time>
      </trkpt>
      <trkpt lat="47.71494" lon="3.66343">
        <ele>160.2</ele>
        <time>2022-02-23T08:19:54Z</time>
      </trkpt>
      <trkpt lat="47.71495" lon="3.66342">
        <ele>160.2</ele>
        <time>2022-02-23T08:19:55Z</time>
      </trkpt>
      <trkpt lat="47.71495" lon="3.66342">
        <ele>160.2</ele>
        <time>2022-02-23T08:19:56Z</time>
      </trkpt>
      <trkpt lat="47.71495" lon="3.66342">
        <ele>160.2</ele>
        <time>2022-02-23T08:19:57Z</time>
      </trkpt>
      <trkpt lat="47.71495" lon="3.66342">
        <ele>160.2</ele>
        <time>2022-02-23T08:19:58Z</time>
      </trkpt>
      <trkpt lat="47.71495" lon="3.66341">
        <ele>160.2</ele>
        <time>2022-02-23T08:19:59Z</time>
      </trkpt>
      <trkpt lat="47.71495" lon="3.66341">
        <ele>160.2</ele>
        <time>2022-02-23T08:20:00Z</time>
      </trkpt>
      <trkpt lat="47.71495" lon="3.66341">
        <ele>160.2</ele>
        <time>2022-02-23T08:20:01Z</time>
      </trkpt>
      <trkpt lat="47.71495" lon="3.66341">
        <ele>160.2</ele>
        <time>2022-02-23T08:20:02Z</time>
      </trkpt>
      <trkpt lat="47.71495" lon="3.66341">
        <ele>160.2</ele>
        <time>2022-02-23T08:20:03Z</time>
      </trkpt>
      <trkpt lat="47.71496" lon="3.66341">
        <ele>160.1</ele>
        <time>2022-02-23T08:20:04Z</time>
      </trkpt>
      <trkpt lat="47.71496" lon="3.6634">
        <ele>160.1</ele>
        <time>2022-02-23T08:20:05Z</time>
      </trkpt>
      <trkpt lat="47.71496" lon="3.6634">
        <ele>160.1</ele>
        <time>2022-02-23T08:20:06Z</time>
      </trkpt>
      <trkpt lat="47.71496" lon="3.6634">
        <ele>160.1</ele>
        <time>2022-02-23T08:20:07Z</time>
      </trkpt>
      <trkpt lat="47.71496" lon="3.6634">
        <ele>160.1</ele>
        <time>2022-02-23T08:20:08Z</time>
      </trkpt>
      <trkpt lat="47.71496" lon="3.6634">
        <ele>160.1</ele>
        <time>2022-02-23T08:20:09Z</time>
      </trkpt>
      <trkpt lat="47.71496" lon="3.6634">
        <ele>160.1</ele>
        <time>2022-02-23T08:20:10Z</time>
      </trkpt>
      <trkpt lat="47.71495" lon="3.66341">
        <ele>160.1</ele>
        <time>2022-02-23T08:20:11Z</time>
      </trkpt>
      <trkpt lat="47.71495" lon="3.66341">
        <ele>160.1</ele>
        <time>2022-02-23T08:20:12Z</time>
      </trkpt>
      <trkpt lat="47.71495" lon="3.66341">
        <ele>160.1</ele>
        <time>2022-02-23T08:20:13Z</time>
      </trkpt>
      <trkpt lat="47.71495" lon="3.66341">
        <ele>160.1</ele>
        <time>2022-02-23T08:20:15Z</time>
      </trkpt>
      <trkpt lat="47.71495" lon="3.66341">
        <ele>160.1</ele>
        <time>2022-02-23T08:20:16Z</time>
      </trkpt>
      <trkpt lat="47.71495" lon="3.66341">
        <ele>160.1</ele>
        <time>2022-02-23T08:20:17Z</time>
      </trkpt>
      <trkpt lat="47.71495" lon="3.66341">
        <ele>160.1</ele>
        <time>2022-02-23T08:20:18Z</time>
      </trkpt>
      <trkpt lat="47.71495" lon="3.66341">
        <ele>160.1</ele>
        <time>2022-02-23T08:20:19Z</time>
      </trkpt>
      <trkpt lat="47.71494" lon="3.66341">
        <ele>160.1</ele>
        <time>2022-02-23T08:20:20Z</time>
      </trkpt>
      <trkpt lat="47.71494" lon="3.66341">
        <ele>160.1</ele>
        <time>2022-02-23T08:20:21Z</time>
      </trkpt>
      <trkpt lat="47.71494" lon="3.66341">
        <ele>160.1</ele>
        <time>2022-02-23T08:20:22Z</time>
      </trkpt>
      <trkpt lat="47.71494" lon="3.66341">
        <ele>160.1</ele>
        <time>2022-02-23T08:20:24Z</time>
      </trkpt>
      <trkpt lat="47.71494" lon="3.66342">
        <ele>160.1</ele>
        <time>2022-02-23T08:20:25Z</time>
      </trkpt>
      <trkpt lat="47.71494" lon="3.66342">
        <ele>160.1</ele>
        <time>2022-02-23T08:20:26Z</time>
      </trkpt>
      <trkpt lat="47.71494" lon="3.66342">
        <ele>160.1</ele>
        <time>2022-02-23T08:20:27Z</time>
      </trkpt>
      <trkpt lat="47.71494" lon="3.66342">
        <ele>160.1</ele>
        <time>2022-02-23T08:20:28Z</time>
      </trkpt>
      <trkpt lat="47.71494" lon="3.66342">
        <ele>160.1</ele>
        <time>2022-02-23T08:20:29Z</time>
      </trkpt>
      <trkpt lat="47.71494" lon="3.66342">
        <ele>160.1</ele>
        <time>2022-02-23T08:20:30Z</time>
      </trkpt>
      <trkpt lat="47.71494" lon="3.66342">
        <ele>160.1</ele>
        <time>2022-02-23T08:20:32Z</time>
      </trkpt>
      <trkpt lat="47.71494" lon="3.66343">
        <ele>160.1</ele>
        <time>2022-02-23T08:20:33Z</time>
      </trkpt>
      <trkpt lat="47.71494" lon="3.66343">
        <ele>160.1</ele>
        <time>2022-02-23T08:20:35Z</time>
      </trkpt>
      <trkpt lat="47.71494" lon="3.66343">
        <ele>160.1</ele>
        <time>2022-02-23T08:20:36Z</time>
      </trkpt>
      <trkpt lat="47.71493" lon="3.66343">
        <ele>160.1</ele>
        <time>2022-02-23T08:20:37Z</time>
      </trkpt>
      <trkpt lat="47.71494" lon="3.66343">
        <ele>160.1</ele>
        <time>2022-02-23T08:20:38Z</time>
      </trkpt>
      <trkpt lat="47.71494" lon="3.66342">
        <ele>160.1</ele>
        <time>2022-02-23T08:20:39Z</time>
      </trkpt>
      <trkpt lat="47.71494" lon="3.66342">
        <ele>160.1</ele>
        <time>2022-02-23T08:20:40Z</time>
      </trkpt>
      <trkpt lat="47.71493" lon="3.66342">
        <ele>160.1</ele>
        <time>2022-02-23T08:20:41Z</time>
      </trkpt>
      <trkpt lat="47.71493" lon="3.66342">
        <ele>160.1</ele>
        <time>2022-02-23T08:20:42Z</time>
      </trkpt>
      <trkpt lat="47.71493" lon="3.66341">
        <ele>160.1</ele>
        <time>2022-02-23T08:20:43Z</time>
      </trkpt>
      <trkpt lat="47.71493" lon="3.66341">
        <ele>160.1</ele>
        <time>2022-02-23T08:20:44Z</time>
      </trkpt>
      <trkpt lat="47.71493" lon="3.66341">
        <ele>160.1</ele>
        <time>2022-02-23T08:20:45Z</time>
      </trkpt>
      <trkpt lat="47.71493" lon="3.66341">
        <ele>160.1</ele>
        <time>2022-02-23T08:20:46Z</time>
      </trkpt>
      <trkpt lat="47.71493" lon="3.66341">
        <ele>160.1</ele>
        <time>2022-02-23T08:20:47Z</time>
      </trkpt>
      <trkpt lat="47.71493" lon="3.6634">
        <ele>160.1</ele>
        <time>2022-02-23T08:20:48Z</time>
      </trkpt>
      <trkpt lat="47.71493" lon="3.6634">
        <ele>160.1</ele>
        <time>2022-02-23T08:20:49Z</time>
      </trkpt>
      <trkpt lat="47.71493" lon="3.66339">
        <ele>160.1</ele>
        <time>2022-02-23T08:20:50Z</time>
      </trkpt>
      <trkpt lat="47.71493" lon="3.66339">
        <ele>160.1</ele>
        <time>2022-02-23T08:20:52Z</time>
      </trkpt>
      <trkpt lat="47.71493" lon="3.66338">
        <ele>160.1</ele>
        <time>2022-02-23T08:20:53Z</time>
      </trkpt>
      <trkpt lat="47.71493" lon="3.66338">
        <ele>160.1</ele>
        <time>2022-02-23T08:20:54Z</time>
      </trkpt>
      <trkpt lat="47.71493" lon="3.66338">
        <ele>160.1</ele>
        <time>2022-02-23T08:20:55Z</time>
      </trkpt>
      <trkpt lat="47.71493" lon="3.66338">
        <ele>160.1</ele>
        <time>2022-02-23T08:20:58Z</time>
      </trkpt>
      <trkpt lat="47.71493" lon="3.66338">
        <ele>160.1</ele>
        <time>2022-02-23T08:21:01Z</time>
      </trkpt>
      <trkpt lat="47.71493" lon="3.66339">
        <ele>160.1</ele>
        <time>2022-02-23T08:21:02Z</time>
      </trkpt>
      <trkpt lat="47.71492" lon="3.66339">
        <ele>160.1</ele>
        <time>2022-02-23T08:21:04Z</time>
      </trkpt>
      <trkpt lat="47.71492" lon="3.66339">
        <ele>160.1</ele>
        <time>2022-02-23T08:21:05Z</time>
      </trkpt>
      <trkpt lat="47.71492" lon="3.66339">
        <ele>160.1</ele>
        <time>2022-02-23T08:21:07Z</time>
      </trkpt>
      <trkpt lat="47.71492" lon="3.66339">
        <ele>160.1</ele>
        <time>2022-02-23T08:21:08Z</time>
      </trkpt>
      <trkpt lat="47.71492" lon="3.66339">
        <ele>160.1</ele>
        <time>2022-02-23T08:21:09Z</time>
      </trkpt>
      <trkpt lat="47.71492" lon="3.66339">
        <ele>160.1</ele>
        <time>2022-02-23T08:21:10Z</time>
      </trkpt>
      <trkpt lat="47.71492" lon="3.6634">
        <ele>160.1</ele>
        <time>2022-02-23T08:21:11Z</time>
      </trkpt>
      <trkpt lat="47.71492" lon="3.6634">
        <ele>160.1</ele>
        <time>2022-02-23T08:21:12Z</time>
      </trkpt>
      <trkpt lat="47.71492" lon="3.66341">
        <ele>160.1</ele>
        <time>2022-02-23T08:21:13Z</time>
      </trkpt>
      <trkpt lat="47.71492" lon="3.66341">
        <ele>160.1</ele>
        <time>2022-02-23T08:21:14Z</time>
      </trkpt>
      <trkpt lat="47.71492" lon="3.66341">
        <ele>160.1</ele>
        <time>2022-02-23T08:21:15Z</time>
      </trkpt>
      <trkpt lat="47.71492" lon="3.66342">
        <ele>160.1</ele>
        <time>2022-02-23T08:21:17Z</time>
      </trkpt>
      <trkpt lat="47.71492" lon="3.66342">
        <ele>160.1</ele>
        <time>2022-02-23T08:21:18Z</time>
      </trkpt>
      <trkpt lat="47.71492" lon="3.66342">
        <ele>160.1</ele>
        <time>2022-02-23T08:21:19Z</time>
      </trkpt>
      <trkpt lat="47.71492" lon="3.66342">
        <ele>160.1</ele>
        <time>2022-02-23T08:21:20Z</time>
      </trkpt>
      <trkpt lat="47.71492" lon="3.66342">
        <ele>160.1</ele>
        <time>2022-02-23T08:21:22Z</time>
      </trkpt>
      <trkpt lat="47.71492" lon="3.66342">
        <ele>160.1</ele>
        <time>2022-02-23T08:21:23Z</time>
      </trkpt>
      <trkpt lat="47.71493" lon="3.66341">
        <ele>160.1</ele>
        <time>2022-02-23T08:21:24Z</time>
      </trkpt>
      <trkpt lat="47.71493" lon="3.66341">
        <ele>160.1</ele>
        <time>2022-02-23T08:21:26Z</time>
      </trkpt>
      <trkpt lat="47.71493" lon="3.6634">
        <ele>160</ele>
        <time>2022-02-23T08:21:27Z</time>
      </trkpt>
      <trkpt lat="47.71494" lon="3.6634">
        <ele>160</ele>
        <time>2022-02-23T08:21:28Z</time>
      </trkpt>
      <trkpt lat="47.71494" lon="3.6634">
        <ele>160</ele>
        <time>2022-02-23T08:21:29Z</time>
      </trkpt>
      <trkpt lat="47.71495" lon="3.66339">
        <ele>160</ele>
        <time>2022-02-23T08:21:31Z</time>
      </trkpt>
      <trkpt lat="47.71495" lon="3.66339">
        <ele>160</ele>
        <time>2022-02-23T08:21:32Z</time>
      </trkpt>
      <trkpt lat="47.71495" lon="3.66339">
        <ele>160</ele>
        <time>2022-02-23T08:21:33Z</time>
      </trkpt>
      <trkpt lat="47.71496" lon="3.66339">
        <ele>160</ele>
        <time>2022-02-23T08:21:34Z</time>
      </trkpt>
      <trkpt lat="47.71496" lon="3.66339">
        <ele>160</ele>
        <time>2022-02-23T08:21:36Z</time>
      </trkpt>
      <trkpt lat="47.71496" lon="3.66338">
        <ele>160</ele>
        <time>2022-02-23T08:21:37Z</time>
      </trkpt>
      <trkpt lat="47.71496" lon="3.66338">
        <ele>160</ele>
        <time>2022-02-23T08:21:38Z</time>
      </trkpt>
      <trkpt lat="47.71496" lon="3.66338">
        <ele>160</ele>
        <time>2022-02-23T08:21:40Z</time>
      </trkpt>
      <trkpt lat="47.71496" lon="3.66338">
        <ele>160</ele>
        <time>2022-02-23T08:21:43Z</time>
      </trkpt>
      <trkpt lat="47.71496" lon="3.66338">
        <ele>160</ele>
        <time>2022-02-23T08:21:44Z</time>
      </trkpt>
      <trkpt lat="47.71496" lon="3.66338">
        <ele>160</ele>
        <time>2022-02-23T08:21:45Z</time>
      </trkpt>
      <trkpt lat="47.71496" lon="3.66338">
        <ele>160</ele>
        <time>2022-02-23T08:21:48Z</time>
      </trkpt>
      <trkpt lat="47.71496" lon="3.66338">
        <ele>160</ele>
        <time>2022-02-23T08:21:49Z</time>
      </trkpt>
      <trkpt lat="47.71497" lon="3.66338">
        <ele>160</ele>
        <time>2022-02-23T08:21:50Z</time>
      </trkpt>
      <trkpt lat="47.71496" lon="3.66339">
        <ele>160</ele>
        <time>2022-02-23T08:21:51Z</time>
      </trkpt>
      <trkpt lat="47.71496" lon="3.66339">
        <ele>160</ele>
        <time>2022-02-23T08:21:52Z</time>
      </trkpt>
      <trkpt lat="47.71496" lon="3.66339">
        <ele>160</ele>
        <time>2022-02-23T08:21:53Z</time>
      </trkpt>
      <trkpt lat="47.71496" lon="3.66339">
        <ele>160</ele>
        <time>2022-02-23T08:21:54Z</time>
      </trkpt>
      <trkpt lat="47.71496" lon="3.66339">
        <ele>160</ele>
        <time>2022-02-23T08:21:55Z</time>
      </trkpt>
      <trkpt lat="47.71496" lon="3.66339">
        <ele>160</ele>
        <time>2022-02-23T08:21:56Z</time>
      </trkpt>
      <trkpt lat="47.71496" lon="3.66339">
        <ele>160</ele>
        <time>2022-02-23T08:21:58Z</time>
      </trkpt>
      <trkpt lat="47.71496" lon="3.66339">
        <ele>160</ele>
        <time>2022-02-23T08:21:59Z</time>
      </trkpt>
      <trkpt lat="47.71496" lon="3.66339">
        <ele>160</ele>
        <time>2022-02-23T08:22:00Z</time>
      </trkpt>
      <trkpt lat="47.71496" lon="3.66339">
        <ele>160</ele>
        <time>2022-02-23T08:22:01Z</time>
      </trkpt>
      <trkpt lat="47.71495" lon="3.66339">
        <ele>160</ele>
        <time>2022-02-23T08:22:02Z</time>
      </trkpt>
      <trkpt lat="47.71495" lon="3.6634">
        <ele>160</ele>
        <time>2022-02-23T08:22:03Z</time>
      </trkpt>
      <trkpt lat="47.71495" lon="3.6634">
        <ele>160</ele>
        <time>2022-02-23T08:22:04Z</time>
      </trkpt>
      <trkpt lat="47.71495" lon="3.6634">
        <ele>160</ele>
        <time>2022-02-23T08:22:05Z</time>
      </trkpt>
      <trkpt lat="47.71495" lon="3.66341">
        <ele>160</ele>
        <time>2022-02-23T08:22:06Z</time>
      </trkpt>
      <trkpt lat="47.71494" lon="3.66341">
        <ele>160</ele>
        <time>2022-02-23T08:22:07Z</time>
      </trkpt>
      <trkpt lat="47.71494" lon="3.66341">
        <ele>160</ele>
        <time>2022-02-23T08:22:08Z</time>
      </trkpt>
      <trkpt lat="47.71494" lon="3.66341">
        <ele>160</ele>
        <time>2022-02-23T08:22:09Z</time>
      </trkpt>
      <trkpt lat="47.71494" lon="3.66341">
        <ele>160</ele>
        <time>2022-02-23T08:22:10Z</time>
      </trkpt>
      <trkpt lat="47.71494" lon="3.66342">
        <ele>160</ele>
        <time>2022-02-23T08:22:11Z</time>
      </trkpt>
      <trkpt lat="47.71494" lon="3.66342">
        <ele>160</ele>
        <time>2022-02-23T08:22:13Z</time>
      </trkpt>
      <trkpt lat="47.71494" lon="3.66342">
        <ele>160</ele>
        <time>2022-02-23T08:22:14Z</time>
      </trkpt>
      <trkpt lat="47.71494" lon="3.66341">
        <ele>160</ele>
        <time>2022-02-23T08:22:15Z</time>
      </trkpt>
      <trkpt lat="47.71494" lon="3.66341">
        <ele>160</ele>
        <time>2022-02-23T08:22:16Z</time>
      </trkpt>
      <trkpt lat="47.71494" lon="3.6634">
        <ele>160</ele>
        <time>2022-02-23T08:22:18Z</time>
      </trkpt>
      <trkpt lat="47.71494" lon="3.66339">
        <ele>160</ele>
        <time>2022-02-23T08:22:19Z</time>
      </trkpt>
      <trkpt lat="47.71494" lon="3.66339">
        <ele>160</ele>
        <time>2022-02-23T08:22:21Z</time>
      </trkpt>
      <trkpt lat="47.71494" lon="3.66339">
        <ele>160</ele>
        <time>2022-02-23T08:22:22Z</time>
      </trkpt>
      <trkpt lat="47.71494" lon="3.66339">
        <ele>160</ele>
        <time>2022-02-23T08:22:23Z</time>
      </trkpt>
      <trkpt lat="47.71494" lon="3.66339">
        <ele>160</ele>
        <time>2022-02-23T08:22:24Z</time>
      </trkpt>
      <trkpt lat="47.71494" lon="3.66339">
        <ele>160</ele>
        <time>2022-02-23T08:22:25Z</time>
      </trkpt>
      <trkpt lat="47.71494" lon="3.66339">
        <ele>160</ele>
        <time>2022-02-23T08:22:26Z</time>
      </trkpt>
      <trkpt lat="47.71494" lon="3.66339">
        <ele>160</ele>
        <time>2022-02-23T08:22:28Z</time>
      </trkpt>
      <trkpt lat="47.71494" lon="3.66339">
        <ele>160</ele>
        <time>2022-02-23T08:22:29Z</time>
      </trkpt>
      <trkpt lat="47.71494" lon="3.66339">
        <ele>160</ele>
        <time>2022-02-23T08:22:31Z</time>
      </trkpt>
      <trkpt lat="47.71494" lon="3.66339">
        <ele>160</ele>
        <time>2022-02-23T08:22:32Z</time>
      </trkpt>
      <trkpt lat="47.71494" lon="3.66339">
        <ele>160</ele>
        <time>2022-02-23T08:22:34Z</time>
      </trkpt>
      <trkpt lat="47.71494" lon="3.66339">
        <ele>160</ele>
        <time>2022-02-23T08:22:35Z</time>
      </trkpt>
      <trkpt lat="47.71494" lon="3.66339">
        <ele>160</ele>
        <time>2022-02-23T08:22:36Z</time>
      </trkpt>
      <trkpt lat="47.71495" lon="3.66339">
        <ele>160</ele>
        <time>2022-02-23T08:22:37Z</time>
      </trkpt>
      <trkpt lat="47.71495" lon="3.66338">
        <ele>160</ele>
        <time>2022-02-23T08:22:38Z</time>
      </trkpt>
      <trkpt lat="47.71495" lon="3.66338">
        <ele>160</ele>
        <time>2022-02-23T08:22:39Z</time>
      </trkpt>
      <trkpt lat="47.71496" lon="3.66338">
        <ele>159.9</ele>
        <time>2022-02-23T08:22:41Z</time>
      </trkpt>
      <trkpt lat="47.71497" lon="3.66338">
        <ele>159.9</ele>
        <time>2022-02-23T08:22:42Z</time>
      </trkpt>
      <trkpt lat="47.71498" lon="3.66339">
        <ele>159.9</ele>
        <time>2022-02-23T08:22:43Z</time>
      </trkpt>
      <trkpt lat="47.71499" lon="3.66339">
        <ele>159.9</ele>
        <time>2022-02-23T08:22:44Z</time>
      </trkpt>
      <trkpt lat="47.715" lon="3.6634">
        <ele>159.9</ele>
        <time>2022-02-23T08:22:46Z</time>
      </trkpt>
      <trkpt lat="47.71502" lon="3.6634">
        <ele>159.9</ele>
        <time>2022-02-23T08:22:47Z</time>
      </trkpt>
      <trkpt lat="47.71502" lon="3.66339">
        <ele>159.9</ele>
        <time>2022-02-23T08:22:48Z</time>
      </trkpt>
      <trkpt lat="47.71501" lon="3.66339">
        <ele>159.9</ele>
        <time>2022-02-23T08:22:49Z</time>
      </trkpt>
      <trkpt lat="47.71501" lon="3.6634">
        <ele>159.9</ele>
        <time>2022-02-23T08:22:50Z</time>
      </trkpt>
      <trkpt lat="47.715" lon="3.6634">
        <ele>159.9</ele>
        <time>2022-02-23T08:22:51Z</time>
      </trkpt>
      <trkpt lat="47.715" lon="3.6634">
        <ele>159.9</ele>
        <time>2022-02-23T08:22:52Z</time>
      </trkpt>
      <trkpt lat="47.71499" lon="3.66341">
        <ele>159.9</ele>
        <time>2022-02-23T08:22:54Z</time>
      </trkpt>
      <trkpt lat="47.71499" lon="3.66341">
        <ele>159.9</ele>
        <time>2022-02-23T08:22:55Z</time>
      </trkpt>
      <trkpt lat="47.71498" lon="3.66341">
        <ele>159.9</ele>
        <time>2022-02-23T08:22:56Z</time>
      </trkpt>
      <trkpt lat="47.71495" lon="3.66342">
        <ele>159.8</ele>
        <time>2022-02-23T08:22:58Z</time>
      </trkpt>
      <trkpt lat="47.71494" lon="3.66342">
        <ele>159.8</ele>
        <time>2022-02-23T08:22:59Z</time>
      </trkpt>
      <trkpt lat="47.71493" lon="3.66341">
        <ele>159.8</ele>
        <time>2022-02-23T08:23:00Z</time>
      </trkpt>
      <trkpt lat="47.71492" lon="3.66341">
        <ele>159.8</ele>
        <time>2022-02-23T08:23:02Z</time>
      </trkpt>
      <trkpt lat="47.71492" lon="3.66341">
        <ele>159.8</ele>
        <time>2022-02-23T08:23:03Z</time>
      </trkpt>
      <trkpt lat="47.71491" lon="3.66341">
        <ele>159.8</ele>
        <time>2022-02-23T08:23:04Z</time>
      </trkpt>
      <trkpt lat="47.71491" lon="3.6634">
        <ele>159.8</ele>
        <time>2022-02-23T08:23:05Z</time>
      </trkpt>
      <trkpt lat="47.71491" lon="3.6634">
        <ele>159.8</ele>
        <time>2022-02-23T08:23:07Z</time>
      </trkpt>
      <trkpt lat="47.71492" lon="3.66339">
        <ele>159.8</ele>
        <time>2022-02-23T08:23:08Z</time>
      </trkpt>
      <trkpt lat="47.71492" lon="3.66339">
        <ele>159.8</ele>
        <time>2022-02-23T08:23:09Z</time>
      </trkpt>
      <trkpt lat="47.71493" lon="3.66339">
        <ele>159.8</ele>
        <time>2022-02-23T08:23:11Z</time>
      </trkpt>
      <trkpt lat="47.71493" lon="3.66339">
        <ele>159.8</ele>
        <time>2022-02-23T08:23:12Z</time>
      </trkpt>
      <trkpt lat="47.71493" lon="3.66339">
        <ele>159.8</ele>
        <time>2022-02-23T08:23:13Z</time>
      </trkpt>
      <trkpt lat="47.71493" lon="3.66339">
        <ele>159.8</ele>
        <time>2022-02-23T08:23:14Z</time>
      </trkpt>
      <trkpt lat="47.71493" lon="3.66339">
        <ele>159.8</ele>
        <time>2022-02-23T08:23:15Z</time>
      </trkpt>
      <trkpt lat="47.71494" lon="3.66339">
        <ele>159.8</ele>
        <time>2022-02-23T08:23:16Z</time>
      </trkpt>
      <trkpt lat="47.71494" lon="3.66339">
        <ele>159.8</ele>
        <time>2022-02-23T08:23:18Z</time>
      </trkpt>
      <trkpt lat="47.71494" lon="3.66339">
        <ele>159.8</ele>
        <time>2022-02-23T08:23:19Z</time>
      </trkpt>
      <trkpt lat="47.71494" lon="3.66339">
        <ele>159.8</ele>
        <time>2022-02-23T08:23:20Z</time>
      </trkpt>
      <trkpt lat="47.71494" lon="3.66339">
        <ele>159.8</ele>
        <time>2022-02-23T08:23:21Z</time>
      </trkpt>
      <trkpt lat="47.71494" lon="3.66339">
        <ele>159.8</ele>
        <time>2022-02-23T08:23:22Z</time>
      </trkpt>
      <trkpt lat="47.71494" lon="3.66338">
        <ele>159.8</ele>
        <time>2022-02-23T08:23:24Z</time>
      </trkpt>
      <trkpt lat="47.71494" lon="3.66338">
        <ele>159.8</ele>
        <time>2022-02-23T08:23:25Z</time>
      </trkpt>
      <trkpt lat="47.71494" lon="3.66339">
        <ele>159.8</ele>
        <time>2022-02-23T08:23:26Z</time>
      </trkpt>
      <trkpt lat="47.71493" lon="3.66339">
        <ele>159.8</ele>
        <time>2022-02-23T08:23:27Z</time>
      </trkpt>
      <trkpt lat="47.71493" lon="3.6634">
        <ele>159.8</ele>
        <time>2022-02-23T08:23:29Z</time>
      </trkpt>
      <trkpt lat="47.71493" lon="3.6634">
        <ele>159.8</ele>
        <time>2022-02-23T08:23:30Z</time>
      </trkpt>
      <trkpt lat="47.71493" lon="3.6634">
        <ele>159.8</ele>
        <time>2022-02-23T08:23:31Z</time>
      </trkpt>
      <trkpt lat="47.71493" lon="3.6634">
        <ele>159.8</ele>
        <time>2022-02-23T08:23:33Z</time>
      </trkpt>
      <trkpt lat="47.71494" lon="3.6634">
        <ele>159.8</ele>
        <time>2022-02-23T08:23:34Z</time>
      </trkpt>
      <trkpt lat="47.71494" lon="3.6634">
        <ele>159.8</ele>
        <time>2022-02-23T08:23:35Z</time>
      </trkpt>
      <trkpt lat="47.71494" lon="3.6634">
        <ele>159.8</ele>
        <time>2022-02-23T08:23:36Z</time>
      </trkpt>
      <trkpt lat="47.71494" lon="3.6634">
        <ele>159.8</ele>
        <time>2022-02-23T08:23:37Z</time>
      </trkpt>
      <trkpt lat="47.71494" lon="3.6634">
        <ele>159.8</ele>
        <time>2022-02-23T08:23:38Z</time>
      </trkpt>
      <trkpt lat="47.71494" lon="3.6634">
        <ele>159.8</ele>
        <time>2022-02-23T08:23:40Z</time>
      </trkpt>
      <trkpt lat="47.71494" lon="3.6634">
        <ele>159.8</ele>
        <time>2022-02-23T08:23:41Z</time>
      </trkpt>
      <trkpt lat="47.71494" lon="3.66339">
        <ele>159.8</ele>
        <time>2022-02-23T08:23:42Z</time>
      </trkpt>
      <trkpt lat="47.71494" lon="3.66339">
        <ele>159.8</ele>
        <time>2022-02-23T08:23:43Z</time>
      </trkpt>
      <trkpt lat="47.71494" lon="3.66339">
        <ele>159.8</ele>
        <time>2022-02-23T08:23:44Z</time>
      </trkpt>
      <trkpt lat="47.71494" lon="3.66339">
        <ele>159.8</ele>
        <time>2022-02-23T08:23:46Z</time>
      </trkpt>
      <trkpt lat="47.71494" lon="3.66339">
        <ele>159.8</ele>
        <time>2022-02-23T08:23:47Z</time>
      </trkpt>
      <trkpt lat="47.71494" lon="3.66339">
        <ele>159.8</ele>
        <time>2022-02-23T08:23:49Z</time>
      </trkpt>
      <trkpt lat="47.71494" lon="3.66339">
        <ele>159.8</ele>
        <time>2022-02-23T08:23:50Z</time>
      </trkpt>
      <trkpt lat="47.71494" lon="3.66339">
        <ele>159.8</ele>
        <time>2022-02-23T08:23:51Z</time>
      </trkpt>
      <trkpt lat="47.71494" lon="3.66338">
        <ele>159.8</ele>
        <time>2022-02-23T08:23:52Z</time>
      </trkpt>
      <trkpt lat="47.71495" lon="3.66338">
        <ele>159.8</ele>
        <time>2022-02-23T08:23:53Z</time>
      </trkpt>
      <trkpt lat="47.71495" lon="3.66338">
        <ele>159.8</ele>
        <time>2022-02-23T08:23:55Z</time>
      </trkpt>
      <trkpt lat="47.71495" lon="3.66338">
        <ele>159.8</ele>
        <time>2022-02-23T08:23:56Z</time>
      </trkpt>
      <trkpt lat="47.71495" lon="3.66338">
        <ele>159.8</ele>
        <time>2022-02-23T08:23:57Z</time>
      </trkpt>
      <trkpt lat="47.71495" lon="3.66338">
        <ele>159.8</ele>
        <time>2022-02-23T08:23:58Z</time>
      </trkpt>
      <trkpt lat="47.71495" lon="3.66338">
        <ele>159.8</ele>
        <time>2022-02-23T08:23:59Z</time>
      </trkpt>
      <trkpt lat="47.71495" lon="3.66338">
        <ele>159.8</ele>
        <time>2022-02-23T08:24:00Z</time>
      </trkpt>
      <trkpt lat="47.71495" lon="3.66339">
        <ele>159.8</ele>
        <time>2022-02-23T08:24:01Z</time>
      </trkpt>
      <trkpt lat="47.71495" lon="3.66339">
        <ele>159.8</ele>
        <time>2022-02-23T08:24:02Z</time>
      </trkpt>
      <trkpt lat="47.71495" lon="3.66339">
        <ele>159.7</ele>
        <time>2022-02-23T08:24:03Z</time>
      </trkpt>
      <trkpt lat="47.71495" lon="3.6634">
        <ele>159.7</ele>
        <time>2022-02-23T08:24:05Z</time>
      </trkpt>
      <trkpt lat="47.71495" lon="3.6634">
        <ele>159.7</ele>
        <time>2022-02-23T08:24:07Z</time>
      </trkpt>
      <trkpt lat="47.71495" lon="3.6634">
        <ele>159.7</ele>
        <time>2022-02-23T08:24:08Z</time>
      </trkpt>
      <trkpt lat="47.71495" lon="3.6634">
        <ele>159.7</ele>
        <time>2022-02-23T08:24:10Z</time>
      </trkpt>
      <trkpt lat="47.71495" lon="3.6634">
        <ele>159.7</ele>
        <time>2022-02-23T08:24:11Z</time>
      </trkpt>
      <trkpt lat="47.71495" lon="3.6634">
        <ele>159.7</ele>
        <time>2022-02-23T08:24:12Z</time>
      </trkpt>
      <trkpt lat="47.71495" lon="3.6634">
        <ele>159.7</ele>
        <time>2022-02-23T08:24:14Z</time>
      </trkpt>
      <trkpt lat="47.71495" lon="3.6634">
        <ele>159.7</ele>
        <time>2022-02-23T08:24:15Z</time>
      </trkpt>
      <trkpt lat="47.71495" lon="3.6634">
        <ele>159.7</ele>
        <time>2022-02-23T08:24:16Z</time>
      </trkpt>
      <trkpt lat="47.71495" lon="3.6634">
        <ele>159.7</ele>
        <time>2022-02-23T08:24:17Z</time>
      </trkpt>
      <trkpt lat="47.71495" lon="3.6634">
        <ele>159.7</ele>
        <time>2022-02-23T08:24:18Z</time>
      </trkpt>
      <trkpt lat="47.71495" lon="3.66339">
        <ele>159.7</ele>
        <time>2022-02-23T08:24:19Z</time>
      </trkpt>
      <trkpt lat="47.71496" lon="3.66339">
        <ele>159.7</ele>
        <time>2022-02-23T08:24:20Z</time>
      </trkpt>
      <trkpt lat="47.71496" lon="3.66339">
        <ele>159.7</ele>
        <time>2022-02-23T08:24:22Z</time>
      </trkpt>
      <trkpt lat="47.71495" lon="3.66339">
        <ele>159.7</ele>
        <time>2022-02-23T08:24:23Z</time>
      </trkpt>
      <trkpt lat="47.71495" lon="3.66339">
        <ele>159.7</ele>
        <time>2022-02-23T08:24:24Z</time>
      </trkpt>
      <trkpt lat="47.71495" lon="3.66339">
        <ele>159.7</ele>
        <time>2022-02-23T08:24:25Z</time>
      </trkpt>
      <trkpt lat="47.71495" lon="3.66339">
        <ele>159.7</ele>
        <time>2022-02-23T08:24:26Z</time>
      </trkpt>
      <trkpt lat="47.71495" lon="3.66339">
        <ele>159.7</ele>
        <time>2022-02-23T08:24:27Z</time>
      </trkpt>
      <trkpt lat="47.71495" lon="3.66339">
        <ele>159.7</ele>
        <time>2022-02-23T08:24:28Z</time>
      </trkpt>
      <trkpt lat="47.71494" lon="3.6634">
        <ele>159.7</ele>
        <time>2022-02-23T08:24:29Z</time>
      </trkpt>
      <trkpt lat="47.71494" lon="3.6634">
        <ele>159.7</ele>
        <time>2022-02-23T08:24:30Z</time>
      </trkpt>
      <trkpt lat="47.71494" lon="3.6634">
        <ele>159.7</ele>
        <time>2022-02-23T08:24:32Z</time>
      </trkpt>
      <trkpt lat="47.71493" lon="3.6634">
        <ele>159.7</ele>
        <time>2022-02-23T08:24:33Z</time>
      </trkpt>
      <trkpt lat="47.71493" lon="3.6634">
        <ele>159.7</ele>
        <time>2022-02-23T08:24:35Z</time>
      </trkpt>
      <trkpt lat="47.71493" lon="3.6634">
        <ele>159.7</ele>
        <time>2022-02-23T08:24:36Z</time>
      </trkpt>
      <trkpt lat="47.71493" lon="3.6634">
        <ele>159.7</ele>
        <time>2022-02-23T08:24:37Z</time>
      </trkpt>
      <trkpt lat="47.71493" lon="3.66341">
        <ele>159.7</ele>
        <time>2022-02-23T08:24:38Z</time>
      </trkpt>
      <trkpt lat="47.71493" lon="3.66341">
        <ele>159.7</ele>
        <time>2022-02-23T08:24:40Z</time>
      </trkpt>
      <trkpt lat="47.71493" lon="3.66341">
        <ele>159.7</ele>
        <time>2022-02-23T08:24:41Z</time>
      </trkpt>
      <trkpt lat="47.71493" lon="3.66341">
        <ele>159.7</ele>
        <time>2022-02-23T08:24:43Z</time>
      </trkpt>
      <trkpt lat="47.71493" lon="3.66341">
        <ele>159.7</ele>
        <time>2022-02-23T08:24:44Z</time>
      </trkpt>
      <trkpt lat="47.71493" lon="3.66341">
        <ele>159.7</ele>
        <time>2022-02-23T08:24:45Z</time>
      </trkpt>
      <trkpt lat="47.71493" lon="3.66341">
        <ele>159.7</ele>
        <time>2022-02-23T08:24:46Z</time>
      </trkpt>
      <trkpt lat="47.71494" lon="3.66341">
        <ele>159.7</ele>
        <time>2022-02-23T08:24:47Z</time>
      </trkpt>
      <trkpt lat="47.71494" lon="3.66341">
        <ele>159.7</ele>
        <time>2022-02-23T08:24:48Z</time>
      </trkpt>
      <trkpt lat="47.71494" lon="3.66341">
        <ele>159.7</ele>
        <time>2022-02-23T08:24:49Z</time>
      </trkpt>
      <trkpt lat="47.71495" lon="3.66341">
        <ele>159.7</ele>
        <time>2022-02-23T08:24:50Z</time>
      </trkpt>
      <trkpt lat="47.71495" lon="3.66341">
        <ele>159.7</ele>
        <time>2022-02-23T08:24:51Z</time>
      </trkpt>
      <trkpt lat="47.71495" lon="3.66341">
        <ele>159.7</ele>
        <time>2022-02-23T08:24:52Z</time>
      </trkpt>
      <trkpt lat="47.71495" lon="3.66341">
        <ele>159.7</ele>
        <time>2022-02-23T08:24:53Z</time>
      </trkpt>
      <trkpt lat="47.71495" lon="3.66341">
        <ele>159.7</ele>
        <time>2022-02-23T08:24:54Z</time>
      </trkpt>
      <trkpt lat="47.71495" lon="3.66341">
        <ele>159.7</ele>
        <time>2022-02-23T08:24:56Z</time>
      </trkpt>
      <trkpt lat="47.71495" lon="3.66341">
        <ele>159.7</ele>
        <time>2022-02-23T08:24:58Z</time>
      </trkpt>
      <trkpt lat="47.71495" lon="3.66341">
        <ele>159.7</ele>
        <time>2022-02-23T08:25:00Z</time>
      </trkpt>
      <trkpt lat="47.71495" lon="3.66341">
        <ele>159.7</ele>
        <time>2022-02-23T08:25:01Z</time>
      </trkpt>
      <trkpt lat="47.71495" lon="3.66341">
        <ele>159.7</ele>
        <time>2022-02-23T08:25:03Z</time>
      </trkpt>
      <trkpt lat="47.71495" lon="3.66341">
        <ele>159.7</ele>
        <time>2022-02-23T08:25:05Z</time>
      </trkpt>
      <trkpt lat="47.71495" lon="3.66341">
        <ele>159.7</ele>
        <time>2022-02-23T08:25:06Z</time>
      </trkpt>
      <trkpt lat="47.71494" lon="3.66341">
        <ele>159.7</ele>
        <time>2022-02-23T08:25:07Z</time>
      </trkpt>
      <trkpt lat="47.71494" lon="3.66341">
        <ele>159.7</ele>
        <time>2022-02-23T08:25:08Z</time>
      </trkpt>
      <trkpt lat="47.71494" lon="3.66341">
        <ele>159.7</ele>
        <time>2022-02-23T08:25:09Z</time>
      </trkpt>
      <trkpt lat="47.71494" lon="3.66341">
        <ele>159.7</ele>
        <time>2022-02-23T08:25:10Z</time>
      </trkpt>
      <trkpt lat="47.71494" lon="3.66341">
        <ele>159.7</ele>
        <time>2022-02-23T08:25:11Z</time>
      </trkpt>
      <trkpt lat="47.71494" lon="3.66341">
        <ele>159.7</ele>
        <time>2022-02-23T08:25:14Z</time>
      </trkpt>
      <trkpt lat="47.71494" lon="3.66341">
        <ele>159.7</ele>
        <time>2022-02-23T08:25:15Z</time>
      </trkpt>
      <trkpt lat="47.71493" lon="3.66341">
        <ele>159.7</ele>
        <time>2022-02-23T08:25:16Z</time>
      </trkpt>
      <trkpt lat="47.71493" lon="3.66341">
        <ele>159.7</ele>
        <time>2022-02-23T08:25:17Z</time>
      </trkpt>
      <trkpt lat="47.71493" lon="3.66341">
        <ele>159.7</ele>
        <time>2022-02-23T08:25:18Z</time>
      </trkpt>
      <trkpt lat="47.71493" lon="3.66341">
        <ele>159.7</ele>
        <time>2022-02-23T08:25:19Z</time>
      </trkpt>
      <trkpt lat="47.71493" lon="3.6634">
        <ele>159.7</ele>
        <time>2022-02-23T08:25:20Z</time>
      </trkpt>
      <trkpt lat="47.71493" lon="3.6634">
        <ele>159.7</ele>
        <time>2022-02-23T08:25:21Z</time>
      </trkpt>
      <trkpt lat="47.71493" lon="3.6634">
        <ele>159.7</ele>
        <time>2022-02-23T08:25:22Z</time>
      </trkpt>
      <trkpt lat="47.71493" lon="3.6634">
        <ele>159.7</ele>
        <time>2022-02-23T08:25:23Z</time>
      </trkpt>
      <trkpt lat="47.71493" lon="3.6634">
        <ele>159.7</ele>
        <time>2022-02-23T08:25:24Z</time>
      </trkpt>
      <trkpt lat="47.71493" lon="3.66339">
        <ele>159.7</ele>
        <time>2022-02-23T08:25:25Z</time>
      </trkpt>
      <trkpt lat="47.71493" lon="3.66339">
        <ele>159.7</ele>
        <time>2022-02-23T08:25:27Z</time>
      </trkpt>
      <trkpt lat="47.71493" lon="3.6634">
        <ele>159.7</ele>
        <time>2022-02-23T08:25:28Z</time>
      </trkpt>
      <trkpt lat="47.71493" lon="3.6634">
        <ele>159.7</ele>
        <time>2022-02-23T08:25:29Z</time>
      </trkpt>
      <trkpt lat="47.71493" lon="3.66339">
        <ele>159.7</ele>
        <time>2022-02-23T08:25:31Z</time>
      </trkpt>
      <trkpt lat="47.71493" lon="3.6634">
        <ele>159.7</ele>
        <time>2022-02-23T08:25:32Z</time>
      </trkpt>
      <trkpt lat="47.71493" lon="3.6634">
        <ele>159.7</ele>
        <time>2022-02-23T08:25:34Z</time>
      </trkpt>
      <trkpt lat="47.71493" lon="3.6634">
        <ele>159.6</ele>
        <time>2022-02-23T08:25:35Z</time>
      </trkpt>
      <trkpt lat="47.71493" lon="3.66339">
        <ele>159.6</ele>
        <time>2022-02-23T08:25:37Z</time>
      </trkpt>
      <trkpt lat="47.71493" lon="3.6634">
        <ele>159.6</ele>
        <time>2022-02-23T08:25:40Z</time>
      </trkpt>
      <trkpt lat="47.71493" lon="3.6634">
        <ele>159.6</ele>
        <time>2022-02-23T08:25:41Z</time>
      </trkpt>
      <trkpt lat="47.71494" lon="3.6634">
        <ele>159.6</ele>
        <time>2022-02-23T08:25:42Z</time>
      </trkpt>
      <trkpt lat="47.71494" lon="3.6634">
        <ele>159.6</ele>
        <time>2022-02-23T08:25:43Z</time>
      </trkpt>
      <trkpt lat="47.71494" lon="3.6634">
        <ele>159.6</ele>
        <time>2022-02-23T08:25:44Z</time>
      </trkpt>
      <trkpt lat="47.71494" lon="3.6634">
        <ele>159.6</ele>
        <time>2022-02-23T08:25:45Z</time>
      </trkpt>
      <trkpt lat="47.71494" lon="3.6634">
        <ele>159.6</ele>
        <time>2022-02-23T08:25:46Z</time>
      </trkpt>
      <trkpt lat="47.71495" lon="3.6634">
        <ele>159.6</ele>
        <time>2022-02-23T08:25:47Z</time>
      </trkpt>
      <trkpt lat="47.71495" lon="3.6634">
        <ele>159.6</ele>
        <time>2022-02-23T08:25:48Z</time>
      </trkpt>
      <trkpt lat="47.71495" lon="3.6634">
        <ele>159.6</ele>
        <time>2022-02-23T08:25:49Z</time>
      </trkpt>
      <trkpt lat="47.71495" lon="3.66341">
        <ele>159.6</ele>
        <time>2022-02-23T08:25:50Z</time>
      </trkpt>
      <trkpt lat="47.71495" lon="3.66341">
        <ele>159.6</ele>
        <time>2022-02-23T08:25:51Z</time>
      </trkpt>
      <trkpt lat="47.71495" lon="3.66341">
        <ele>159.6</ele>
        <time>2022-02-23T08:25:52Z</time>
      </trkpt>
      <trkpt lat="47.71496" lon="3.66341">
        <ele>159.6</ele>
        <time>2022-02-23T08:25:53Z</time>
      </trkpt>
      <trkpt lat="47.71495" lon="3.66342">
        <ele>159.6</ele>
        <time>2022-02-23T08:25:54Z</time>
      </trkpt>
      <trkpt lat="47.71495" lon="3.66342">
        <ele>159.6</ele>
        <time>2022-02-23T08:25:55Z</time>
      </trkpt>
      <trkpt lat="47.71495" lon="3.66342">
        <ele>159.6</ele>
        <time>2022-02-23T08:25:56Z</time>
      </trkpt>
      <trkpt lat="47.71495" lon="3.66342">
        <ele>159.6</ele>
        <time>2022-02-23T08:25:57Z</time>
      </trkpt>
      <trkpt lat="47.71496" lon="3.66342">
        <ele>159.6</ele>
        <time>2022-02-23T08:25:58Z</time>
      </trkpt>
      <trkpt lat="47.71496" lon="3.66342">
        <ele>159.6</ele>
        <time>2022-02-23T08:25:59Z</time>
      </trkpt>
      <trkpt lat="47.71496" lon="3.66342">
        <ele>159.6</ele>
        <time>2022-02-23T08:26:00Z</time>
      </trkpt>
      <trkpt lat="47.71496" lon="3.66342">
        <ele>159.6</ele>
        <time>2022-02-23T08:26:01Z</time>
      </trkpt>
      <trkpt lat="47.71496" lon="3.66342">
        <ele>159.6</ele>
        <time>2022-02-23T08:26:03Z</time>
      </trkpt>
      <trkpt lat="47.71496" lon="3.66341">
        <ele>159.6</ele>
        <time>2022-02-23T08:26:04Z</time>
      </trkpt>
      <trkpt lat="47.71496" lon="3.66341">
        <ele>159.6</ele>
        <time>2022-02-23T08:26:05Z</time>
      </trkpt>
      <trkpt lat="47.71496" lon="3.66341">
        <ele>159.6</ele>
        <time>2022-02-23T08:26:06Z</time>
      </trkpt>
      <trkpt lat="47.71496" lon="3.6634">
        <ele>159.6</ele>
        <time>2022-02-23T08:26:07Z</time>
      </trkpt>
      <trkpt lat="47.71496" lon="3.6634">
        <ele>159.6</ele>
        <time>2022-02-23T08:26:08Z</time>
      </trkpt>
      <trkpt lat="47.71496" lon="3.66339">
        <ele>159.6</ele>
        <time>2022-02-23T08:26:09Z</time>
      </trkpt>
      <trkpt lat="47.71496" lon="3.66339">
        <ele>159.6</ele>
        <time>2022-02-23T08:26:10Z</time>
      </trkpt>
      <trkpt lat="47.71496" lon="3.66338">
        <ele>159.6</ele>
        <time>2022-02-23T08:26:11Z</time>
      </trkpt>
      <trkpt lat="47.71496" lon="3.66338">
        <ele>159.6</ele>
        <time>2022-02-23T08:26:12Z</time>
      </trkpt>
      <trkpt lat="47.71496" lon="3.66338">
        <ele>159.6</ele>
        <time>2022-02-23T08:26:13Z</time>
      </trkpt>
      <trkpt lat="47.71496" lon="3.66339">
        <ele>159.6</ele>
        <time>2022-02-23T08:26:14Z</time>
      </trkpt>
      <trkpt lat="47.71496" lon="3.66339">
        <ele>159.6</ele>
        <time>2022-02-23T08:26:15Z</time>
      </trkpt>
      <trkpt lat="47.71496" lon="3.66339">
        <ele>159.6</ele>
        <time>2022-02-23T08:26:16Z</time>
      </trkpt>
      <trkpt lat="47.71496" lon="3.6634">
        <ele>159.6</ele>
        <time>2022-02-23T08:26:17Z</time>
      </trkpt>
      <trkpt lat="47.71496" lon="3.6634">
        <ele>159.6</ele>
        <time>2022-02-23T08:26:18Z</time>
      </trkpt>
      <trkpt lat="47.71497" lon="3.6634">
        <ele>159.6</ele>
        <time>2022-02-23T08:26:19Z</time>
      </trkpt>
      <trkpt lat="47.71497" lon="3.66341">
        <ele>159.6</ele>
        <time>2022-02-23T08:26:20Z</time>
      </trkpt>
      <trkpt lat="47.71497" lon="3.66341">
        <ele>159.6</ele>
        <time>2022-02-23T08:26:21Z</time>
      </trkpt>
      <trkpt lat="47.71497" lon="3.66341">
        <ele>159.6</ele>
        <time>2022-02-23T08:26:22Z</time>
      </trkpt>
      <trkpt lat="47.71497" lon="3.66341">
        <ele>159.6</ele>
        <time>2022-02-23T08:26:23Z</time>
      </trkpt>
      <trkpt lat="47.71497" lon="3.66341">
        <ele>159.6</ele>
        <time>2022-02-23T08:26:26Z</time>
      </trkpt>
      <trkpt lat="47.71497" lon="3.66341">
        <ele>159.6</ele>
        <time>2022-02-23T08:26:27Z</time>
      </trkpt>
      <trkpt lat="47.71497" lon="3.66341">
        <ele>159.6</ele>
        <time>2022-02-23T08:26:28Z</time>
      </trkpt>
      <trkpt lat="47.71497" lon="3.66341">
        <ele>159.6</ele>
        <time>2022-02-23T08:26:29Z</time>
      </trkpt>
      <trkpt lat="47.71497" lon="3.66341">
        <ele>159.6</ele>
        <time>2022-02-23T08:26:32Z</time>
      </trkpt>
      <trkpt lat="47.71497" lon="3.66341">
        <ele>159.6</ele>
        <time>2022-02-23T08:26:33Z</time>
      </trkpt>
      <trkpt lat="47.71497" lon="3.66341">
        <ele>159.6</ele>
        <time>2022-02-23T08:26:34Z</time>
      </trkpt>
      <trkpt lat="47.71496" lon="3.6634">
        <ele>159.6</ele>
        <time>2022-02-23T08:26:35Z</time>
      </trkpt>
      <trkpt lat="47.71496" lon="3.6634">
        <ele>159.6</ele>
        <time>2022-02-23T08:26:36Z</time>
      </trkpt>
      <trkpt lat="47.71496" lon="3.6634">
        <ele>159.6</ele>
        <time>2022-02-23T08:26:37Z</time>
      </trkpt>
      <trkpt lat="47.71496" lon="3.6634">
        <ele>159.6</ele>
        <time>2022-02-23T08:26:38Z</time>
      </trkpt>
      <trkpt lat="47.71496" lon="3.6634">
        <ele>159.6</ele>
        <time>2022-02-23T08:26:39Z</time>
      </trkpt>
      <trkpt lat="47.71496" lon="3.6634">
        <ele>159.6</ele>
        <time>2022-02-23T08:26:40Z</time>
      </trkpt>
      <trkpt lat="47.71496" lon="3.66339">
        <ele>159.6</ele>
        <time>2022-02-23T08:26:41Z</time>
      </trkpt>
      <trkpt lat="47.71496" lon="3.66339">
        <ele>159.6</ele>
        <time>2022-02-23T08:26:42Z</time>
      </trkpt>
      <trkpt lat="47.71496" lon="3.66339">
        <ele>159.6</ele>
        <time>2022-02-23T08:26:43Z</time>
      </trkpt>
      <trkpt lat="47.71496" lon="3.66339">
        <ele>159.6</ele>
        <time>2022-02-23T08:26:44Z</time>
      </trkpt>
      <trkpt lat="47.71496" lon="3.66339">
        <ele>159.6</ele>
        <time>2022-02-23T08:26:45Z</time>
      </trkpt>
      <trkpt lat="47.71495" lon="3.66339">
        <ele>159.6</ele>
        <time>2022-02-23T08:26:46Z</time>
      </trkpt>
      <trkpt lat="47.71495" lon="3.66339">
        <ele>159.6</ele>
        <time>2022-02-23T08:26:47Z</time>
      </trkpt>
      <trkpt lat="47.71495" lon="3.66339">
        <ele>159.6</ele>
        <time>2022-02-23T08:26:48Z</time>
      </trkpt>
      <trkpt lat="47.71495" lon="3.66339">
        <ele>159.6</ele>
        <time>2022-02-23T08:26:49Z</time>
      </trkpt>
      <trkpt lat="47.71495" lon="3.66339">
        <ele>159.6</ele>
        <time>2022-02-23T08:26:50Z</time>
      </trkpt>
      <trkpt lat="47.71494" lon="3.66339">
        <ele>159.5</ele>
        <time>2022-02-23T08:26:51Z</time>
      </trkpt>
      <trkpt lat="47.71494" lon="3.66339">
        <ele>159.5</ele>
        <time>2022-02-23T08:26:52Z</time>
      </trkpt>
      <trkpt lat="47.71494" lon="3.66339">
        <ele>159.5</ele>
        <time>2022-02-23T08:26:53Z</time>
      </trkpt>
      <trkpt lat="47.71494" lon="3.66339">
        <ele>159.5</ele>
        <time>2022-02-23T08:26:54Z</time>
      </trkpt>
      <trkpt lat="47.71494" lon="3.66338">
        <ele>159.5</ele>
        <time>2022-02-23T08:26:55Z</time>
      </trkpt>
      <trkpt lat="47.71494" lon="3.66338">
        <ele>159.5</ele>
        <time>2022-02-23T08:26:56Z</time>
      </trkpt>
      <trkpt lat="47.71494" lon="3.66338">
        <ele>159.5</ele>
        <time>2022-02-23T08:26:57Z</time>
      </trkpt>
      <trkpt lat="47.71493" lon="3.66338">
        <ele>159.5</ele>
        <time>2022-02-23T08:26:58Z</time>
      </trkpt>
      <trkpt lat="47.71493" lon="3.66339">
        <ele>159.5</ele>
        <time>2022-02-23T08:26:59Z</time>
      </trkpt>
      <trkpt lat="47.71493" lon="3.66339">
        <ele>159.5</ele>
        <time>2022-02-23T08:27:00Z</time>
      </trkpt>
      <trkpt lat="47.71493" lon="3.66339">
        <ele>159.5</ele>
        <time>2022-02-23T08:27:01Z</time>
      </trkpt>
      <trkpt lat="47.71493" lon="3.66339">
        <ele>159.5</ele>
        <time>2022-02-23T08:27:02Z</time>
      </trkpt>
      <trkpt lat="47.71493" lon="3.66339">
        <ele>159.5</ele>
        <time>2022-02-23T08:27:03Z</time>
      </trkpt>
      <trkpt lat="47.71493" lon="3.66339">
        <ele>159.5</ele>
        <time>2022-02-23T08:27:04Z</time>
      </trkpt>
      <trkpt lat="47.71493" lon="3.66339">
        <ele>159.5</ele>
        <time>2022-02-23T08:27:05Z</time>
      </trkpt>
      <trkpt lat="47.71492" lon="3.66339">
        <ele>159.5</ele>
        <time>2022-02-23T08:27:06Z</time>
      </trkpt>
      <trkpt lat="47.71493" lon="3.66339">
        <ele>159.5</ele>
        <time>2022-02-23T08:27:07Z</time>
      </trkpt>
      <trkpt lat="47.71493" lon="3.66339">
        <ele>159.5</ele>
        <time>2022-02-23T08:27:08Z</time>
      </trkpt>
      <trkpt lat="47.71493" lon="3.6634">
        <ele>159.5</ele>
        <time>2022-02-23T08:27:09Z</time>
      </trkpt>
      <trkpt lat="47.71493" lon="3.6634">
        <ele>159.5</ele>
        <time>2022-02-23T08:27:10Z</time>
      </trkpt>
      <trkpt lat="47.71493" lon="3.6634">
        <ele>159.5</ele>
        <time>2022-02-23T08:27:11Z</time>
      </trkpt>
      <trkpt lat="47.71494" lon="3.6634">
        <ele>159.5</ele>
        <time>2022-02-23T08:27:12Z</time>
      </trkpt>
      <trkpt lat="47.71494" lon="3.6634">
        <ele>159.5</ele>
        <time>2022-02-23T08:27:13Z</time>
      </trkpt>
      <trkpt lat="47.71494" lon="3.6634">
        <ele>159.5</ele>
        <time>2022-02-23T08:27:14Z</time>
      </trkpt>
      <trkpt lat="47.71494" lon="3.6634">
        <ele>159.5</ele>
        <time>2022-02-23T08:27:18Z</time>
      </trkpt>
      <trkpt lat="47.71494" lon="3.6634">
        <ele>159.5</ele>
        <time>2022-02-23T08:27:19Z</time>
      </trkpt>
      <trkpt lat="47.71494" lon="3.6634">
        <ele>159.5</ele>
        <time>2022-02-23T08:27:20Z</time>
      </trkpt>
      <trkpt lat="47.71494" lon="3.6634">
        <ele>159.5</ele>
        <time>2022-02-23T08:27:21Z</time>
      </trkpt>
      <trkpt lat="47.71494" lon="3.6634">
        <ele>159.5</ele>
        <time>2022-02-23T08:27:22Z</time>
      </trkpt>
      <trkpt lat="47.71495" lon="3.6634">
        <ele>159.5</ele>
        <time>2022-02-23T08:27:23Z</time>
      </trkpt>
      <trkpt lat="47.71495" lon="3.6634">
        <ele>159.5</ele>
        <time>2022-02-23T08:27:24Z</time>
      </trkpt>
      <trkpt lat="47.71495" lon="3.6634">
        <ele>159.5</ele>
        <time>2022-02-23T08:27:25Z</time>
      </trkpt>
      <trkpt lat="47.71495" lon="3.6634">
        <ele>159.5</ele>
        <time>2022-02-23T08:27:26Z</time>
      </trkpt>
      <trkpt lat="47.71495" lon="3.6634">
        <ele>159.5</ele>
        <time>2022-02-23T08:27:27Z</time>
      </trkpt>
      <trkpt lat="47.71495" lon="3.6634">
        <ele>159.5</ele>
        <time>2022-02-23T08:27:28Z</time>
      </trkpt>
      <trkpt lat="47.71495" lon="3.6634">
        <ele>159.5</ele>
        <time>2022-02-23T08:27:29Z</time>
      </trkpt>
      <trkpt lat="47.71495" lon="3.6634">
        <ele>159.5</ele>
        <time>2022-02-23T08:27:30Z</time>
      </trkpt>
      <trkpt lat="47.71495" lon="3.6634">
        <ele>159.5</ele>
        <time>2022-02-23T08:27:31Z</time>
      </trkpt>
      <trkpt lat="47.71495" lon="3.6634">
        <ele>159.5</ele>
        <time>2022-02-23T08:27:32Z</time>
      </trkpt>
      <trkpt lat="47.71495" lon="3.6634">
        <ele>159.5</ele>
        <time>2022-02-23T08:27:36Z</time>
      </trkpt>
      <trkpt lat="47.71495" lon="3.6634">
        <ele>159.5</ele>
        <time>2022-02-23T08:27:37Z</time>
      </trkpt>
      <trkpt lat="47.71495" lon="3.66339">
        <ele>159.5</ele>
        <time>2022-02-23T08:27:38Z</time>
      </trkpt>
      <trkpt lat="47.71495" lon="3.66339">
        <ele>159.5</ele>
        <time>2022-02-23T08:27:39Z</time>
      </trkpt>
      <trkpt lat="47.71495" lon="3.66339">
        <ele>159.5</ele>
        <time>2022-02-23T08:27:40Z</time>
      </trkpt>
      <trkpt lat="47.71495" lon="3.66339">
        <ele>159.5</ele>
        <time>2022-02-23T08:27:41Z</time>
      </trkpt>
      <trkpt lat="47.71494" lon="3.66339">
        <ele>159.5</ele>
        <time>2022-02-23T08:27:42Z</time>
      </trkpt>
      <trkpt lat="47.71494" lon="3.66339">
        <ele>159.5</ele>
        <time>2022-02-23T08:27:43Z</time>
      </trkpt>
      <trkpt lat="47.71493" lon="3.6634">
        <ele>159.5</ele>
        <time>2022-02-23T08:27:44Z</time>
      </trkpt>
      <trkpt lat="47.71493" lon="3.6634">
        <ele>159.5</ele>
        <time>2022-02-23T08:27:45Z</time>
      </trkpt>
      <trkpt lat="47.71493" lon="3.6634">
        <ele>159.5</ele>
        <time>2022-02-23T08:27:46Z</time>
      </trkpt>
      <trkpt lat="47.71493" lon="3.66341">
        <ele>159.5</ele>
        <time>2022-02-23T08:27:47Z</time>
      </trkpt>
      <trkpt lat="47.71493" lon="3.66341">
        <ele>159.5</ele>
        <time>2022-02-23T08:27:48Z</time>
      </trkpt>
      <trkpt lat="47.71494" lon="3.66341">
        <ele>159.5</ele>
        <time>2022-02-23T08:27:49Z</time>
      </trkpt>
      <trkpt lat="47.71494" lon="3.66341">
        <ele>159.5</ele>
        <time>2022-02-23T08:27:50Z</time>
      </trkpt>
      <trkpt lat="47.71494" lon="3.66341">
        <ele>159.5</ele>
        <time>2022-02-23T08:27:51Z</time>
      </trkpt>
      <trkpt lat="47.71494" lon="3.6634">
        <ele>159.5</ele>
        <time>2022-02-23T08:27:52Z</time>
      </trkpt>
      <trkpt lat="47.71494" lon="3.6634">
        <ele>159.5</ele>
        <time>2022-02-23T08:27:53Z</time>
      </trkpt>
      <trkpt lat="47.71495" lon="3.6634">
        <ele>159.5</ele>
        <time>2022-02-23T08:27:54Z</time>
      </trkpt>
      <trkpt lat="47.71495" lon="3.6634">
        <ele>159.5</ele>
        <time>2022-02-23T08:27:55Z</time>
      </trkpt>
      <trkpt lat="47.71495" lon="3.66339">
        <ele>159.5</ele>
        <time>2022-02-23T08:27:56Z</time>
      </trkpt>
      <trkpt lat="47.71495" lon="3.66339">
        <ele>159.5</ele>
        <time>2022-02-23T08:27:57Z</time>
      </trkpt>
      <trkpt lat="47.71495" lon="3.66339">
        <ele>159.5</ele>
        <time>2022-02-23T08:27:58Z</time>
      </trkpt>
      <trkpt lat="47.71496" lon="3.66339">
        <ele>159.5</ele>
        <time>2022-02-23T08:27:59Z</time>
      </trkpt>
      <trkpt lat="47.71496" lon="3.66339">
        <ele>159.5</ele>
        <time>2022-02-23T08:28:00Z</time>
      </trkpt>
      <trkpt lat="47.71496" lon="3.66338">
        <ele>159.5</ele>
        <time>2022-02-23T08:28:01Z</time>
      </trkpt>
      <trkpt lat="47.71496" lon="3.66338">
        <ele>159.5</ele>
        <time>2022-02-23T08:28:02Z</time>
      </trkpt>
      <trkpt lat="47.71496" lon="3.66338">
        <ele>159.4</ele>
        <time>2022-02-23T08:28:03Z</time>
      </trkpt>
      <trkpt lat="47.71496" lon="3.66337">
        <ele>159.4</ele>
        <time>2022-02-23T08:28:04Z</time>
      </trkpt>
      <trkpt lat="47.71496" lon="3.66337">
        <ele>159.4</ele>
        <time>2022-02-23T08:28:05Z</time>
      </trkpt>
      <trkpt lat="47.71496" lon="3.66336">
        <ele>159.4</ele>
        <time>2022-02-23T08:28:06Z</time>
      </trkpt>
      <trkpt lat="47.71496" lon="3.66336">
        <ele>159.4</ele>
        <time>2022-02-23T08:28:07Z</time>
      </trkpt>
      <trkpt lat="47.71496" lon="3.66335">
        <ele>159.4</ele>
        <time>2022-02-23T08:28:08Z</time>
      </trkpt>
      <trkpt lat="47.71496" lon="3.66335">
        <ele>159.4</ele>
        <time>2022-02-23T08:28:09Z</time>
      </trkpt>
      <trkpt lat="47.71497" lon="3.66334">
        <ele>159.4</ele>
        <time>2022-02-23T08:28:10Z</time>
      </trkpt>
      <trkpt lat="47.71497" lon="3.66334">
        <ele>159.4</ele>
        <time>2022-02-23T08:28:11Z</time>
      </trkpt>
      <trkpt lat="47.71497" lon="3.66334">
        <ele>159.4</ele>
        <time>2022-02-23T08:28:12Z</time>
      </trkpt>
      <trkpt lat="47.71497" lon="3.66333">
        <ele>159.4</ele>
        <time>2022-02-23T08:28:13Z</time>
      </trkpt>
      <trkpt lat="47.71497" lon="3.66333">
        <ele>159.4</ele>
        <time>2022-02-23T08:28:14Z</time>
      </trkpt>
      <trkpt lat="47.71497" lon="3.66333">
        <ele>159.4</ele>
        <time>2022-02-23T08:28:15Z</time>
      </trkpt>
      <trkpt lat="47.71497" lon="3.66333">
        <ele>159.4</ele>
        <time>2022-02-23T08:28:16Z</time>
      </trkpt>
      <trkpt lat="47.71497" lon="3.66333">
        <ele>159.4</ele>
        <time>2022-02-23T08:28:17Z</time>
      </trkpt>
      <trkpt lat="47.71497" lon="3.66333">
        <ele>159.4</ele>
        <time>2022-02-23T08:28:19Z</time>
      </trkpt>
      <trkpt lat="47.71497" lon="3.66333">
        <ele>159.4</ele>
        <time>2022-02-23T08:28:20Z</time>
      </trkpt>
      <trkpt lat="47.71497" lon="3.66333">
        <ele>159.4</ele>
        <time>2022-02-23T08:28:22Z</time>
      </trkpt>
      <trkpt lat="47.71497" lon="3.66333">
        <ele>159.4</ele>
        <time>2022-02-23T08:28:23Z</time>
      </trkpt>
      <trkpt lat="47.71497" lon="3.66334">
        <ele>159.4</ele>
        <time>2022-02-23T08:28:24Z</time>
      </trkpt>
      <trkpt lat="47.71496" lon="3.66334">
        <ele>159.4</ele>
        <time>2022-02-23T08:28:25Z</time>
      </trkpt>
      <trkpt lat="47.71496" lon="3.66335">
        <ele>159.4</ele>
        <time>2022-02-23T08:28:26Z</time>
      </trkpt>
      <trkpt lat="47.71496" lon="3.66335">
        <ele>159.4</ele>
        <time>2022-02-23T08:28:27Z</time>
      </trkpt>
      <trkpt lat="47.71496" lon="3.66336">
        <ele>159.4</ele>
        <time>2022-02-23T08:28:28Z</time>
      </trkpt>
      <trkpt lat="47.71496" lon="3.66336">
        <ele>159.4</ele>
        <time>2022-02-23T08:28:29Z</time>
      </trkpt>
      <trkpt lat="47.71496" lon="3.66337">
        <ele>159.4</ele>
        <time>2022-02-23T08:28:30Z</time>
      </trkpt>
      <trkpt lat="47.71496" lon="3.66337">
        <ele>159.4</ele>
        <time>2022-02-23T08:28:31Z</time>
      </trkpt>
      <trkpt lat="47.71496" lon="3.66338">
        <ele>159.4</ele>
        <time>2022-02-23T08:28:32Z</time>
      </trkpt>
      <trkpt lat="47.71496" lon="3.66338">
        <ele>159.4</ele>
        <time>2022-02-23T08:28:33Z</time>
      </trkpt>
      <trkpt lat="47.71496" lon="3.66338">
        <ele>159.4</ele>
        <time>2022-02-23T08:28:34Z</time>
      </trkpt>
      <trkpt lat="47.71496" lon="3.66339">
        <ele>159.4</ele>
        <time>2022-02-23T08:28:35Z</time>
      </trkpt>
      <trkpt lat="47.71496" lon="3.66339">
        <ele>159.4</ele>
        <time>2022-02-23T08:28:36Z</time>
      </trkpt>
      <trkpt lat="47.71496" lon="3.6634">
        <ele>159.4</ele>
        <time>2022-02-23T08:28:37Z</time>
      </trkpt>
      <trkpt lat="47.71495" lon="3.6634">
        <ele>159.4</ele>
        <time>2022-02-23T08:28:38Z</time>
      </trkpt>
      <trkpt lat="47.71495" lon="3.66341">
        <ele>159.4</ele>
        <time>2022-02-23T08:28:39Z</time>
      </trkpt>
      <trkpt lat="47.71495" lon="3.66341">
        <ele>159.4</ele>
        <time>2022-02-23T08:28:40Z</time>
      </trkpt>
      <trkpt lat="47.71495" lon="3.6634">
        <ele>159.4</ele>
        <time>2022-02-23T08:28:41Z</time>
      </trkpt>
      <trkpt lat="47.71495" lon="3.66339">
        <ele>159.4</ele>
        <time>2022-02-23T08:28:42Z</time>
      </trkpt>
      <trkpt lat="47.71495" lon="3.66338">
        <ele>159.4</ele>
        <time>2022-02-23T08:28:43Z</time>
      </trkpt>
      <trkpt lat="47.71495" lon="3.66338">
        <ele>159.4</ele>
        <time>2022-02-23T08:28:44Z</time>
      </trkpt>
      <trkpt lat="47.71496" lon="3.66338">
        <ele>159.4</ele>
        <time>2022-02-23T08:28:45Z</time>
      </trkpt>
      <trkpt lat="47.71496" lon="3.66338">
        <ele>159.4</ele>
        <time>2022-02-23T08:28:46Z</time>
      </trkpt>
      <trkpt lat="47.71496" lon="3.66338">
        <ele>159.4</ele>
        <time>2022-02-23T08:28:47Z</time>
      </trkpt>
      <trkpt lat="47.71496" lon="3.66339">
        <ele>159.4</ele>
        <time>2022-02-23T08:28:48Z</time>
      </trkpt>
      <trkpt lat="47.71496" lon="3.66339">
        <ele>159.4</ele>
        <time>2022-02-23T08:28:49Z</time>
      </trkpt>
      <trkpt lat="47.71496" lon="3.66339">
        <ele>159.4</ele>
        <time>2022-02-23T08:28:51Z</time>
      </trkpt>
      <trkpt lat="47.71495" lon="3.66339">
        <ele>159.4</ele>
        <time>2022-02-23T08:28:53Z</time>
      </trkpt>
      <trkpt lat="47.71495" lon="3.66339">
        <ele>159.4</ele>
        <time>2022-02-23T08:28:54Z</time>
      </trkpt>
      <trkpt lat="47.71496" lon="3.66339">
        <ele>159.4</ele>
        <time>2022-02-23T08:28:55Z</time>
      </trkpt>
      <trkpt lat="47.71496" lon="3.66338">
        <ele>159.4</ele>
        <time>2022-02-23T08:28:57Z</time>
      </trkpt>
      <trkpt lat="47.71496" lon="3.66338">
        <ele>159.3</ele>
        <time>2022-02-23T08:28:58Z</time>
      </trkpt>
      <trkpt lat="47.71496" lon="3.66338">
        <ele>159.3</ele>
        <time>2022-02-23T08:28:59Z</time>
      </trkpt>
      <trkpt lat="47.71496" lon="3.66337">
        <ele>159.3</ele>
        <time>2022-02-23T08:29:00Z</time>
      </trkpt>
      <trkpt lat="47.71496" lon="3.66337">
        <ele>159.3</ele>
        <time>2022-02-23T08:29:01Z</time>
      </trkpt>
      <trkpt lat="47.71496" lon="3.66337">
        <ele>159.3</ele>
        <time>2022-02-23T08:29:02Z</time>
      </trkpt>
      <trkpt lat="47.71496" lon="3.66337">
        <ele>159.3</ele>
        <time>2022-02-23T08:29:03Z</time>
      </trkpt>
      <trkpt lat="47.71496" lon="3.66336">
        <ele>159.3</ele>
        <time>2022-02-23T08:29:04Z</time>
      </trkpt>
      <trkpt lat="47.71496" lon="3.66336">
        <ele>159.3</ele>
        <time>2022-02-23T08:29:05Z</time>
      </trkpt>
      <trkpt lat="47.71497" lon="3.66336">
        <ele>159.3</ele>
        <time>2022-02-23T08:29:06Z</time>
      </trkpt>
      <trkpt lat="47.71496" lon="3.66336">
        <ele>159.3</ele>
        <time>2022-02-23T08:29:08Z</time>
      </trkpt>
      <trkpt lat="47.71496" lon="3.66335">
        <ele>159.3</ele>
        <time>2022-02-23T08:29:09Z</time>
      </trkpt>
      <trkpt lat="47.71496" lon="3.66335">
        <ele>159.3</ele>
        <time>2022-02-23T08:29:10Z</time>
      </trkpt>
      <trkpt lat="47.71496" lon="3.66335">
        <ele>159.3</ele>
        <time>2022-02-23T08:29:12Z</time>
      </trkpt>
      <trkpt lat="47.71495" lon="3.66335">
        <ele>159.3</ele>
        <time>2022-02-23T08:29:13Z</time>
      </trkpt>
      <trkpt lat="47.71495" lon="3.66334">
        <ele>159.3</ele>
        <time>2022-02-23T08:29:14Z</time>
      </trkpt>
      <trkpt lat="47.71495" lon="3.66334">
        <ele>159.3</ele>
        <time>2022-02-23T08:29:15Z</time>
      </trkpt>
      <trkpt lat="47.71495" lon="3.66334">
        <ele>159.3</ele>
        <time>2022-02-23T08:29:16Z</time>
      </trkpt>
      <trkpt lat="47.71494" lon="3.66334">
        <ele>159.3</ele>
        <time>2022-02-23T08:29:17Z</time>
      </trkpt>
      <trkpt lat="47.71494" lon="3.66334">
        <ele>159.3</ele>
        <time>2022-02-23T08:29:18Z</time>
      </trkpt>
      <trkpt lat="47.71494" lon="3.66333">
        <ele>159.3</ele>
        <time>2022-02-23T08:29:19Z</time>
      </trkpt>
      <trkpt lat="47.71494" lon="3.66333">
        <ele>159.3</ele>
        <time>2022-02-23T08:29:20Z</time>
      </trkpt>
      <trkpt lat="47.71493" lon="3.66333">
        <ele>159.3</ele>
        <time>2022-02-23T08:29:21Z</time>
      </trkpt>
      <trkpt lat="47.71493" lon="3.66333">
        <ele>159.3</ele>
        <time>2022-02-23T08:29:23Z</time>
      </trkpt>
      <trkpt lat="47.71493" lon="3.66332">
        <ele>159.3</ele>
        <time>2022-02-23T08:29:24Z</time>
      </trkpt>
      <trkpt lat="47.71493" lon="3.66332">
        <ele>159.3</ele>
        <time>2022-02-23T08:29:25Z</time>
      </trkpt>
      <trkpt lat="47.71492" lon="3.66332">
        <ele>159.3</ele>
        <time>2022-02-23T08:29:26Z</time>
      </trkpt>
      <trkpt lat="47.71492" lon="3.66332">
        <ele>159.3</ele>
        <time>2022-02-23T08:29:27Z</time>
      </trkpt>
      <trkpt lat="47.71492" lon="3.66331">
        <ele>159.3</ele>
        <time>2022-02-23T08:29:28Z</time>
      </trkpt>
      <trkpt lat="47.71492" lon="3.66331">
        <ele>159.3</ele>
        <time>2022-02-23T08:29:29Z</time>
      </trkpt>
      <trkpt lat="47.71491" lon="3.66331">
        <ele>159.3</ele>
        <time>2022-02-23T08:29:30Z</time>
      </trkpt>
      <trkpt lat="47.71491" lon="3.66331">
        <ele>159.3</ele>
        <time>2022-02-23T08:29:32Z</time>
      </trkpt>
      <trkpt lat="47.71491" lon="3.6633">
        <ele>159.3</ele>
        <time>2022-02-23T08:29:33Z</time>
      </trkpt>
      <trkpt lat="47.71491" lon="3.6633">
        <ele>159.3</ele>
        <time>2022-02-23T08:29:34Z</time>
      </trkpt>
      <trkpt lat="47.71489" lon="3.66327">
        <ele>159.3</ele>
        <time>2022-02-23T08:29:35Z</time>
      </trkpt>
      <trkpt lat="47.71488" lon="3.66326">
        <ele>159.2</ele>
        <time>2022-02-23T08:29:36Z</time>
      </trkpt>
      <trkpt lat="47.71486" lon="3.66325">
        <ele>159.2</ele>
        <time>2022-02-23T08:29:37Z</time>
      </trkpt>
      <trkpt lat="47.71485" lon="3.66324">
        <ele>159.2</ele>
        <time>2022-02-23T08:29:38Z</time>
      </trkpt>
      <trkpt lat="47.71484" lon="3.66322">
        <ele>159.2</ele>
        <time>2022-02-23T08:29:39Z</time>
      </trkpt>
      <trkpt lat="47.71482" lon="3.66321">
        <ele>159.2</ele>
        <time>2022-02-23T08:29:41Z</time>
      </trkpt>
      <trkpt lat="47.7148" lon="3.66321">
        <ele>159.2</ele>
        <time>2022-02-23T08:29:42Z</time>
      </trkpt>
      <trkpt lat="47.71479" lon="3.66321">
        <ele>159.2</ele>
        <time>2022-02-23T08:29:43Z</time>
      </trkpt>
      <trkpt lat="47.71477" lon="3.66321">
        <ele>159.2</ele>
        <time>2022-02-23T08:29:45Z</time>
      </trkpt>
      <trkpt lat="47.71475" lon="3.66321">
        <ele>159.2</ele>
        <time>2022-02-23T08:29:46Z</time>
      </trkpt>
      <trkpt lat="47.71473" lon="3.66322">
        <ele>159.2</ele>
        <time>2022-02-23T08:29:47Z</time>
      </trkpt>
      <trkpt lat="47.71472" lon="3.66322">
        <ele>159.2</ele>
        <time>2022-02-23T08:29:48Z</time>
      </trkpt>
      <trkpt lat="47.71472" lon="3.66322">
        <ele>159.2</ele>
        <time>2022-02-23T08:29:49Z</time>
      </trkpt>
      <trkpt lat="47.71471" lon="3.66324">
        <ele>159.2</ele>
        <time>2022-02-23T08:29:50Z</time>
      </trkpt>
      <trkpt lat="47.71471" lon="3.66325">
        <ele>159.2</ele>
        <time>2022-02-23T08:29:51Z</time>
      </trkpt>
      <trkpt lat="47.7147" lon="3.66326">
        <ele>159.2</ele>
        <time>2022-02-23T08:29:53Z</time>
      </trkpt>
      <trkpt lat="47.71469" lon="3.66326">
        <ele>159.3</ele>
        <time>2022-02-23T08:29:54Z</time>
      </trkpt>
      <trkpt lat="47.71468" lon="3.66327">
        <ele>159.5</ele>
        <time>2022-02-23T08:29:55Z</time>
      </trkpt>
      <trkpt lat="47.71467" lon="3.66327">
        <ele>159.6</ele>
        <time>2022-02-23T08:29:56Z</time>
      </trkpt>
      <trkpt lat="47.71466" lon="3.66328">
        <ele>159.8</ele>
        <time>2022-02-23T08:29:57Z</time>
      </trkpt>
      <trkpt lat="47.71465" lon="3.66329">
        <ele>160</ele>
        <time>2022-02-23T08:29:58Z</time>
      </trkpt>
      <trkpt lat="47.71464" lon="3.6633">
        <ele>160.1</ele>
        <time>2022-02-23T08:29:59Z</time>
      </trkpt>
      <trkpt lat="47.71463" lon="3.66331">
        <ele>160.4</ele>
        <time>2022-02-23T08:30:01Z</time>
      </trkpt>
      <trkpt lat="47.71462" lon="3.66332">
        <ele>160.5</ele>
        <time>2022-02-23T08:30:02Z</time>
      </trkpt>
      <trkpt lat="47.71461" lon="3.66333">
        <ele>160.7</ele>
        <time>2022-02-23T08:30:03Z</time>
      </trkpt>
      <trkpt lat="47.7146" lon="3.66334">
        <ele>160.7</ele>
        <time>2022-02-23T08:30:04Z</time>
      </trkpt>
      <trkpt lat="47.71459" lon="3.66335">
        <ele>160.7</ele>
        <time>2022-02-23T08:30:05Z</time>
      </trkpt>
      <trkpt lat="47.71458" lon="3.66336">
        <ele>160.7</ele>
        <time>2022-02-23T08:30:06Z</time>
      </trkpt>
      <trkpt lat="47.71457" lon="3.66338">
        <ele>160.8</ele>
        <time>2022-02-23T08:30:08Z</time>
      </trkpt>
      <trkpt lat="47.71456" lon="3.66339">
        <ele>160.8</ele>
        <time>2022-02-23T08:30:09Z</time>
      </trkpt>
      <trkpt lat="47.71454" lon="3.66342">
        <ele>160.9</ele>
        <time>2022-02-23T08:30:10Z</time>
      </trkpt>
      <trkpt lat="47.71454" lon="3.66344">
        <ele>160.9</ele>
        <time>2022-02-23T08:30:11Z</time>
      </trkpt>
      <trkpt lat="47.71454" lon="3.66346">
        <ele>161</ele>
        <time>2022-02-23T08:30:13Z</time>
      </trkpt>
      <trkpt lat="47.71454" lon="3.66348">
        <ele>161</ele>
        <time>2022-02-23T08:30:14Z</time>
      </trkpt>
      <trkpt lat="47.71455" lon="3.66349">
        <ele>161</ele>
        <time>2022-02-23T08:30:15Z</time>
      </trkpt>
      <trkpt lat="47.71453" lon="3.66351">
        <ele>161</ele>
        <time>2022-02-23T08:30:16Z</time>
      </trkpt>
      <trkpt lat="47.71453" lon="3.66352">
        <ele>161.1</ele>
        <time>2022-02-23T08:30:17Z</time>
      </trkpt>
      <trkpt lat="47.71452" lon="3.66352">
        <ele>161.1</ele>
        <time>2022-02-23T08:30:18Z</time>
      </trkpt>
      <trkpt lat="47.71452" lon="3.66353">
        <ele>161.1</ele>
        <time>2022-02-23T08:30:19Z</time>
      </trkpt>
      <trkpt lat="47.7145" lon="3.66355">
        <ele>161.1</ele>
        <time>2022-02-23T08:30:21Z</time>
      </trkpt>
      <trkpt lat="47.7145" lon="3.66356">
        <ele>161.2</ele>
        <time>2022-02-23T08:30:22Z</time>
      </trkpt>
      <trkpt lat="47.71449" lon="3.66357">
        <ele>161.2</ele>
        <time>2022-02-23T08:30:23Z</time>
      </trkpt>
      <trkpt lat="47.71448" lon="3.66358">
        <ele>161.2</ele>
        <time>2022-02-23T08:30:24Z</time>
      </trkpt>
      <trkpt lat="47.71448" lon="3.6636">
        <ele>161.2</ele>
        <time>2022-02-23T08:30:25Z</time>
      </trkpt>
      <trkpt lat="47.71447" lon="3.66361">
        <ele>161.3</ele>
        <time>2022-02-23T08:30:26Z</time>
      </trkpt>
      <trkpt lat="47.71447" lon="3.66363">
        <ele>161.3</ele>
        <time>2022-02-23T08:30:27Z</time>
      </trkpt>
      <trkpt lat="47.71446" lon="3.66364">
        <ele>161.3</ele>
        <time>2022-02-23T08:30:28Z</time>
      </trkpt>
      <trkpt lat="47.71446" lon="3.66365">
        <ele>161.4</ele>
        <time>2022-02-23T08:30:29Z</time>
      </trkpt>
      <trkpt lat="47.71446" lon="3.66367">
        <ele>161.4</ele>
        <time>2022-02-23T08:30:30Z</time>
      </trkpt>
      <trkpt lat="47.71445" lon="3.66368">
        <ele>161.4</ele>
        <time>2022-02-23T08:30:31Z</time>
      </trkpt>
      <trkpt lat="47.71444" lon="3.6637">
        <ele>161.5</ele>
        <time>2022-02-23T08:30:33Z</time>
      </trkpt>
      <trkpt lat="47.71444" lon="3.66372">
        <ele>161.5</ele>
        <time>2022-02-23T08:30:34Z</time>
      </trkpt>
      <trkpt lat="47.71443" lon="3.66374">
        <ele>161.6</ele>
        <time>2022-02-23T08:30:36Z</time>
      </trkpt>
      <trkpt lat="47.71441" lon="3.66376">
        <ele>161.6</ele>
        <time>2022-02-23T08:30:38Z</time>
      </trkpt>
      <trkpt lat="47.71441" lon="3.66377">
        <ele>161.7</ele>
        <time>2022-02-23T08:30:39Z</time>
      </trkpt>
      <trkpt lat="47.7144" lon="3.66379">
        <ele>161.7</ele>
        <time>2022-02-23T08:30:40Z</time>
      </trkpt>
      <trkpt lat="47.71439" lon="3.6638">
        <ele>161.8</ele>
        <time>2022-02-23T08:30:42Z</time>
      </trkpt>
      <trkpt lat="47.71438" lon="3.66381">
        <ele>161.8</ele>
        <time>2022-02-23T08:30:43Z</time>
      </trkpt>
      <trkpt lat="47.71438" lon="3.66382">
        <ele>161.8</ele>
        <time>2022-02-23T08:30:44Z</time>
      </trkpt>
      <trkpt lat="47.71438" lon="3.66383">
        <ele>161.9</ele>
        <time>2022-02-23T08:30:45Z</time>
      </trkpt>
      <trkpt lat="47.71438" lon="3.66384">
        <ele>161.9</ele>
        <time>2022-02-23T08:30:46Z</time>
      </trkpt>
      <trkpt lat="47.71437" lon="3.66385">
        <ele>161.9</ele>
        <time>2022-02-23T08:30:47Z</time>
      </trkpt>
      <trkpt lat="47.71437" lon="3.66386">
        <ele>162</ele>
        <time>2022-02-23T08:30:48Z</time>
      </trkpt>
      <trkpt lat="47.71435" lon="3.66386">
        <ele>162</ele>
        <time>2022-02-23T08:30:50Z</time>
      </trkpt>
      <trkpt lat="47.71434" lon="3.66387">
        <ele>162.1</ele>
        <time>2022-02-23T08:30:51Z</time>
      </trkpt>
      <trkpt lat="47.71433" lon="3.66389">
        <ele>162.1</ele>
        <time>2022-02-23T08:30:52Z</time>
      </trkpt>
      <trkpt lat="47.71432" lon="3.6639">
        <ele>162.2</ele>
        <time>2022-02-23T08:30:53Z</time>
      </trkpt>
      <trkpt lat="47.7143" lon="3.66391">
        <ele>162.2</ele>
        <time>2022-02-23T08:30:54Z</time>
      </trkpt>
      <trkpt lat="47.71429" lon="3.66391">
        <ele>162.3</ele>
        <time>2022-02-23T08:30:55Z</time>
      </trkpt>
      <trkpt lat="47.71428" lon="3.66391">
        <ele>162.3</ele>
        <time>2022-02-23T08:30:56Z</time>
      </trkpt>
      <trkpt lat="47.71427" lon="3.66392">
        <ele>162.4</ele>
        <time>2022-02-23T08:30:57Z</time>
      </trkpt>
      <trkpt lat="47.71426" lon="3.66392">
        <ele>162.4</ele>
        <time>2022-02-23T08:30:58Z</time>
      </trkpt>
      <trkpt lat="47.71425" lon="3.66393">
        <ele>162.4</ele>
        <time>2022-02-23T08:31:00Z</time>
      </trkpt>
      <trkpt lat="47.71424" lon="3.66394">
        <ele>162.5</ele>
        <time>2022-02-23T08:31:01Z</time>
      </trkpt>
      <trkpt lat="47.71423" lon="3.66396">
        <ele>162.5</ele>
        <time>2022-02-23T08:31:02Z</time>
      </trkpt>
      <trkpt lat="47.71422" lon="3.66396">
        <ele>162.6</ele>
        <time>2022-02-23T08:31:03Z</time>
      </trkpt>
      <trkpt lat="47.71422" lon="3.66397">
        <ele>162.6</ele>
        <time>2022-02-23T08:31:04Z</time>
      </trkpt>
      <trkpt lat="47.71421" lon="3.66397">
        <ele>162.6</ele>
        <time>2022-02-23T08:31:06Z</time>
      </trkpt>
      <trkpt lat="47.71421" lon="3.66397">
        <ele>162.6</ele>
        <time>2022-02-23T08:31:07Z</time>
      </trkpt>
      <trkpt lat="47.7142" lon="3.66397">
        <ele>162.8</ele>
        <time>2022-02-23T08:31:08Z</time>
      </trkpt>
      <trkpt lat="47.71419" lon="3.66397">
        <ele>162.8</ele>
        <time>2022-02-23T08:31:10Z</time>
      </trkpt>
      <trkpt lat="47.71419" lon="3.66396">
        <ele>162.8</ele>
        <time>2022-02-23T08:31:11Z</time>
      </trkpt>
      <trkpt lat="47.71419" lon="3.66394">
        <ele>162.8</ele>
        <time>2022-02-23T08:31:12Z</time>
      </trkpt>
      <trkpt lat="47.71418" lon="3.66392">
        <ele>162.8</ele>
        <time>2022-02-23T08:31:13Z</time>
      </trkpt>
      <trkpt lat="47.71416" lon="3.66391">
        <ele>162.8</ele>
        <time>2022-02-23T08:31:14Z</time>
      </trkpt>
      <trkpt lat="47.71415" lon="3.66391">
        <ele>162.8</ele>
        <time>2022-02-23T08:31:16Z</time>
      </trkpt>
      <trkpt lat="47.71414" lon="3.66391">
        <ele>162.9</ele>
        <time>2022-02-23T08:31:17Z</time>
      </trkpt>
      <trkpt lat="47.71413" lon="3.66392">
        <ele>163</ele>
        <time>2022-02-23T08:31:18Z</time>
      </trkpt>
      <trkpt lat="47.71411" lon="3.66393">
        <ele>163.1</ele>
        <time>2022-02-23T08:31:19Z</time>
      </trkpt>
      <trkpt lat="47.7141" lon="3.66394">
        <ele>163.2</ele>
        <time>2022-02-23T08:31:20Z</time>
      </trkpt>
      <trkpt lat="47.71409" lon="3.66396">
        <ele>163.3</ele>
        <time>2022-02-23T08:31:21Z</time>
      </trkpt>
      <trkpt lat="47.71408" lon="3.66398">
        <ele>163.4</ele>
        <time>2022-02-23T08:31:23Z</time>
      </trkpt>
      <trkpt lat="47.71407" lon="3.664">
        <ele>163.5</ele>
        <time>2022-02-23T08:31:24Z</time>
      </trkpt>
      <trkpt lat="47.71406" lon="3.66402">
        <ele>163.6</ele>
        <time>2022-02-23T08:31:25Z</time>
      </trkpt>
      <trkpt lat="47.71405" lon="3.66403">
        <ele>163.7</ele>
        <time>2022-02-23T08:31:26Z</time>
      </trkpt>
      <trkpt lat="47.71404" lon="3.66405">
        <ele>163.8</ele>
        <time>2022-02-23T08:31:27Z</time>
      </trkpt>
      <trkpt lat="47.71404" lon="3.66406">
        <ele>163.9</ele>
        <time>2022-02-23T08:31:28Z</time>
      </trkpt>
      <trkpt lat="47.71403" lon="3.66408">
        <ele>164</ele>
        <time>2022-02-23T08:31:29Z</time>
      </trkpt>
      <trkpt lat="47.71402" lon="3.66409">
        <ele>164</ele>
        <time>2022-02-23T08:31:30Z</time>
      </trkpt>
      <trkpt lat="47.71402" lon="3.66409">
        <ele>164.1</ele>
        <time>2022-02-23T08:31:31Z</time>
      </trkpt>
      <trkpt lat="47.714" lon="3.66409">
        <ele>164.2</ele>
        <time>2022-02-23T08:31:33Z</time>
      </trkpt>
      <trkpt lat="47.71399" lon="3.6641">
        <ele>164.3</ele>
        <time>2022-02-23T08:31:34Z</time>
      </trkpt>
      <trkpt lat="47.71398" lon="3.66411">
        <ele>164.3</ele>
        <time>2022-02-23T08:31:35Z</time>
      </trkpt>
      <trkpt lat="47.71397" lon="3.66411">
        <ele>164.4</ele>
        <time>2022-02-23T08:31:36Z</time>
      </trkpt>
      <trkpt lat="47.71396" lon="3.66413">
        <ele>164.5</ele>
        <time>2022-02-23T08:31:37Z</time>
      </trkpt>
      <trkpt lat="47.71395" lon="3.66414">
        <ele>164.6</ele>
        <time>2022-02-23T08:31:38Z</time>
      </trkpt>
      <trkpt lat="47.71393" lon="3.66415">
        <ele>164.8</ele>
        <time>2022-02-23T08:31:40Z</time>
      </trkpt>
      <trkpt lat="47.71392" lon="3.66416">
        <ele>164.9</ele>
        <time>2022-02-23T08:31:41Z</time>
      </trkpt>
      <trkpt lat="47.71391" lon="3.66417">
        <ele>164.9</ele>
        <time>2022-02-23T08:31:42Z</time>
      </trkpt>
      <trkpt lat="47.71389" lon="3.66418">
        <ele>165.1</ele>
        <time>2022-02-23T08:31:43Z</time>
      </trkpt>
      <trkpt lat="47.71389" lon="3.66419">
        <ele>165.1</ele>
        <time>2022-02-23T08:31:44Z</time>
      </trkpt>
      <trkpt lat="47.71388" lon="3.66419">
        <ele>165.2</ele>
        <time>2022-02-23T08:31:45Z</time>
      </trkpt>
      <trkpt lat="47.71387" lon="3.6642">
        <ele>165.3</ele>
        <time>2022-02-23T08:31:46Z</time>
      </trkpt>
      <trkpt lat="47.71385" lon="3.6642">
        <ele>165.4</ele>
        <time>2022-02-23T08:31:47Z</time>
      </trkpt>
      <trkpt lat="47.71383" lon="3.66421">
        <ele>165.5</ele>
        <time>2022-02-23T08:31:49Z</time>
      </trkpt>
      <trkpt lat="47.71383" lon="3.66421">
        <ele>165.6</ele>
        <time>2022-02-23T08:31:50Z</time>
      </trkpt>
      <trkpt lat="47.71382" lon="3.66422">
        <ele>165.6</ele>
        <time>2022-02-23T08:31:51Z</time>
      </trkpt>
      <trkpt lat="47.71381" lon="3.66422">
        <ele>165.7</ele>
        <time>2022-02-23T08:31:52Z</time>
      </trkpt>
      <trkpt lat="47.7138" lon="3.66423">
        <ele>165.8</ele>
        <time>2022-02-23T08:31:54Z</time>
      </trkpt>
      <trkpt lat="47.71379" lon="3.66423">
        <ele>165.8</ele>
        <time>2022-02-23T08:31:55Z</time>
      </trkpt>
      <trkpt lat="47.71377" lon="3.66424">
        <ele>165.9</ele>
        <time>2022-02-23T08:31:56Z</time>
      </trkpt>
      <trkpt lat="47.71376" lon="3.66424">
        <ele>166</ele>
        <time>2022-02-23T08:31:57Z</time>
      </trkpt>
      <trkpt lat="47.71375" lon="3.66425">
        <ele>166.1</ele>
        <time>2022-02-23T08:31:58Z</time>
      </trkpt>
      <trkpt lat="47.71375" lon="3.66425">
        <ele>166.1</ele>
        <time>2022-02-23T08:31:59Z</time>
      </trkpt>
      <trkpt lat="47.71374" lon="3.66426">
        <ele>166.2</ele>
        <time>2022-02-23T08:32:00Z</time>
      </trkpt>
      <trkpt lat="47.71372" lon="3.66426">
        <ele>166.3</ele>
        <time>2022-02-23T08:32:01Z</time>
      </trkpt>
      <trkpt lat="47.71371" lon="3.66426">
        <ele>166.4</ele>
        <time>2022-02-23T08:32:02Z</time>
      </trkpt>
      <trkpt lat="47.7137" lon="3.66425">
        <ele>166.4</ele>
        <time>2022-02-23T08:32:04Z</time>
      </trkpt>
      <trkpt lat="47.7137" lon="3.66424">
        <ele>166.5</ele>
        <time>2022-02-23T08:32:05Z</time>
      </trkpt>
      <trkpt lat="47.71369" lon="3.66423">
        <ele>166.6</ele>
        <time>2022-02-23T08:32:06Z</time>
      </trkpt>
      <trkpt lat="47.71368" lon="3.66422">
        <ele>166.7</ele>
        <time>2022-02-23T08:32:07Z</time>
      </trkpt>
      <trkpt lat="47.71367" lon="3.66421">
        <ele>166.8</ele>
        <time>2022-02-23T08:32:08Z</time>
      </trkpt>
      <trkpt lat="47.71366" lon="3.6642">
        <ele>166.8</ele>
        <time>2022-02-23T08:32:09Z</time>
      </trkpt>
      <trkpt lat="47.71365" lon="3.66419">
        <ele>166.9</ele>
        <time>2022-02-23T08:32:10Z</time>
      </trkpt>
      <trkpt lat="47.71365" lon="3.66419">
        <ele>166.9</ele>
        <time>2022-02-23T08:32:11Z</time>
      </trkpt>
      <trkpt lat="47.71364" lon="3.66418">
        <ele>167</ele>
        <time>2022-02-23T08:32:12Z</time>
      </trkpt>
      <trkpt lat="47.71362" lon="3.66418">
        <ele>167.1</ele>
        <time>2022-02-23T08:32:13Z</time>
      </trkpt>
      <trkpt lat="47.71361" lon="3.66419">
        <ele>167.2</ele>
        <time>2022-02-23T08:32:14Z</time>
      </trkpt>
      <trkpt lat="47.7136" lon="3.6642">
        <ele>167.3</ele>
        <time>2022-02-23T08:32:16Z</time>
      </trkpt>
      <trkpt lat="47.71359" lon="3.6642">
        <ele>167.4</ele>
        <time>2022-02-23T08:32:17Z</time>
      </trkpt>
      <trkpt lat="47.71358" lon="3.66421">
        <ele>167.4</ele>
        <time>2022-02-23T08:32:18Z</time>
      </trkpt>
      <trkpt lat="47.71358" lon="3.66422">
        <ele>167.5</ele>
        <time>2022-02-23T08:32:19Z</time>
      </trkpt>
      <trkpt lat="47.71357" lon="3.66423">
        <ele>167.6</ele>
        <time>2022-02-23T08:32:20Z</time>
      </trkpt>
      <trkpt lat="47.71356" lon="3.66424">
        <ele>167.7</ele>
        <time>2022-02-23T08:32:21Z</time>
      </trkpt>
      <trkpt lat="47.71355" lon="3.66426">
        <ele>167.7</ele>
        <time>2022-02-23T08:32:22Z</time>
      </trkpt>
      <trkpt lat="47.71354" lon="3.66427">
        <ele>167.8</ele>
        <time>2022-02-23T08:32:23Z</time>
      </trkpt>
      <trkpt lat="47.71354" lon="3.66429">
        <ele>167.9</ele>
        <time>2022-02-23T08:32:24Z</time>
      </trkpt>
      <trkpt lat="47.71353" lon="3.6643">
        <ele>168</ele>
        <time>2022-02-23T08:32:25Z</time>
      </trkpt>
      <trkpt lat="47.71353" lon="3.6643">
        <ele>168</ele>
        <time>2022-02-23T08:32:26Z</time>
      </trkpt>
      <trkpt lat="47.71352" lon="3.66431">
        <ele>168.1</ele>
        <time>2022-02-23T08:32:27Z</time>
      </trkpt>
      <trkpt lat="47.71351" lon="3.66433">
        <ele>168.2</ele>
        <time>2022-02-23T08:32:29Z</time>
      </trkpt>
      <trkpt lat="47.7135" lon="3.66434">
        <ele>168.3</ele>
        <time>2022-02-23T08:32:30Z</time>
      </trkpt>
      <trkpt lat="47.71349" lon="3.66436">
        <ele>168.4</ele>
        <time>2022-02-23T08:32:31Z</time>
      </trkpt>
      <trkpt lat="47.71348" lon="3.66437">
        <ele>168.5</ele>
        <time>2022-02-23T08:32:32Z</time>
      </trkpt>
      <trkpt lat="47.71347" lon="3.66438">
        <ele>168.6</ele>
        <time>2022-02-23T08:32:34Z</time>
      </trkpt>
      <trkpt lat="47.71346" lon="3.66439">
        <ele>168.7</ele>
        <time>2022-02-23T08:32:35Z</time>
      </trkpt>
      <trkpt lat="47.71345" lon="3.66439">
        <ele>168.7</ele>
        <time>2022-02-23T08:32:36Z</time>
      </trkpt>
      <trkpt lat="47.71343" lon="3.66439">
        <ele>168.8</ele>
        <time>2022-02-23T08:32:37Z</time>
      </trkpt>
      <trkpt lat="47.71342" lon="3.66439">
        <ele>168.9</ele>
        <time>2022-02-23T08:32:38Z</time>
      </trkpt>
      <trkpt lat="47.71341" lon="3.66438">
        <ele>169.1</ele>
        <time>2022-02-23T08:32:39Z</time>
      </trkpt>
      <trkpt lat="47.7134" lon="3.66437">
        <ele>169.1</ele>
        <time>2022-02-23T08:32:40Z</time>
      </trkpt>
      <trkpt lat="47.71338" lon="3.66434">
        <ele>169</ele>
        <time>2022-02-23T08:32:42Z</time>
      </trkpt>
      <trkpt lat="47.71337" lon="3.66432">
        <ele>169</ele>
        <time>2022-02-23T08:32:43Z</time>
      </trkpt>
      <trkpt lat="47.71335" lon="3.6643">
        <ele>168.9</ele>
        <time>2022-02-23T08:32:44Z</time>
      </trkpt>
      <trkpt lat="47.71333" lon="3.66427">
        <ele>168.8</ele>
        <time>2022-02-23T08:32:45Z</time>
      </trkpt>
      <trkpt lat="47.71332" lon="3.66427">
        <ele>168.8</ele>
        <time>2022-02-23T08:32:46Z</time>
      </trkpt>
      <trkpt lat="47.7133" lon="3.66426">
        <ele>168.8</ele>
        <time>2022-02-23T08:32:48Z</time>
      </trkpt>
      <trkpt lat="47.71329" lon="3.66425">
        <ele>168.8</ele>
        <time>2022-02-23T08:32:49Z</time>
      </trkpt>
      <trkpt lat="47.71327" lon="3.66426">
        <ele>168.7</ele>
        <time>2022-02-23T08:32:50Z</time>
      </trkpt>
      <trkpt lat="47.71326" lon="3.66426">
        <ele>168.8</ele>
        <time>2022-02-23T08:32:51Z</time>
      </trkpt>
      <trkpt lat="47.71325" lon="3.66426">
        <ele>168.8</ele>
        <time>2022-02-23T08:32:52Z</time>
      </trkpt>
      <trkpt lat="47.71324" lon="3.66426">
        <ele>168.8</ele>
        <time>2022-02-23T08:32:53Z</time>
      </trkpt>
      <trkpt lat="47.71323" lon="3.66427">
        <ele>168.9</ele>
        <time>2022-02-23T08:32:55Z</time>
      </trkpt>
      <trkpt lat="47.71322" lon="3.66427">
        <ele>168.9</ele>
        <time>2022-02-23T08:32:56Z</time>
      </trkpt>
      <trkpt lat="47.71321" lon="3.66428">
        <ele>168.9</ele>
        <time>2022-02-23T08:32:57Z</time>
      </trkpt>
      <trkpt lat="47.7132" lon="3.66428">
        <ele>169</ele>
        <time>2022-02-23T08:32:58Z</time>
      </trkpt>
      <trkpt lat="47.71319" lon="3.66429">
        <ele>169</ele>
        <time>2022-02-23T08:32:59Z</time>
      </trkpt>
      <trkpt lat="47.71318" lon="3.66429">
        <ele>169</ele>
        <time>2022-02-23T08:33:00Z</time>
      </trkpt>
      <trkpt lat="47.71317" lon="3.66429">
        <ele>169.1</ele>
        <time>2022-02-23T08:33:01Z</time>
      </trkpt>
      <trkpt lat="47.71316" lon="3.6643">
        <ele>169.1</ele>
        <time>2022-02-23T08:33:02Z</time>
      </trkpt>
      <trkpt lat="47.71315" lon="3.66431">
        <ele>169.2</ele>
        <time>2022-02-23T08:33:03Z</time>
      </trkpt>
      <trkpt lat="47.71314" lon="3.66431">
        <ele>169.2</ele>
        <time>2022-02-23T08:33:05Z</time>
      </trkpt>
      <trkpt lat="47.71313" lon="3.66431">
        <ele>169.2</ele>
        <time>2022-02-23T08:33:06Z</time>
      </trkpt>
      <trkpt lat="47.71311" lon="3.66433">
        <ele>169.3</ele>
        <time>2022-02-23T08:33:07Z</time>
      </trkpt>
      <trkpt lat="47.7131" lon="3.66434">
        <ele>169.4</ele>
        <time>2022-02-23T08:33:09Z</time>
      </trkpt>
      <trkpt lat="47.71309" lon="3.66435">
        <ele>169.4</ele>
        <time>2022-02-23T08:33:10Z</time>
      </trkpt>
      <trkpt lat="47.71308" lon="3.66436">
        <ele>169.5</ele>
        <time>2022-02-23T08:33:11Z</time>
      </trkpt>
      <trkpt lat="47.71308" lon="3.66438">
        <ele>169.5</ele>
        <time>2022-02-23T08:33:12Z</time>
      </trkpt>
      <trkpt lat="47.71308" lon="3.66439">
        <ele>169.6</ele>
        <time>2022-02-23T08:33:13Z</time>
      </trkpt>
      <trkpt lat="47.71308" lon="3.6644">
        <ele>169.6</ele>
        <time>2022-02-23T08:33:15Z</time>
      </trkpt>
      <trkpt lat="47.71308" lon="3.66441">
        <ele>169.6</ele>
        <time>2022-02-23T08:33:16Z</time>
      </trkpt>
      <trkpt lat="47.71307" lon="3.66444">
        <ele>169.8</ele>
        <time>2022-02-23T08:33:17Z</time>
      </trkpt>
      <trkpt lat="47.71307" lon="3.66446">
        <ele>169.8</ele>
        <time>2022-02-23T08:33:18Z</time>
      </trkpt>
      <trkpt lat="47.71306" lon="3.66447">
        <ele>169.9</ele>
        <time>2022-02-23T08:33:19Z</time>
      </trkpt>
      <trkpt lat="47.71306" lon="3.66449">
        <ele>169.9</ele>
        <time>2022-02-23T08:33:21Z</time>
      </trkpt>
      <trkpt lat="47.71306" lon="3.66451">
        <ele>170</ele>
        <time>2022-02-23T08:33:22Z</time>
      </trkpt>
      <trkpt lat="47.71305" lon="3.66453">
        <ele>170.1</ele>
        <time>2022-02-23T08:33:23Z</time>
      </trkpt>
      <trkpt lat="47.71304" lon="3.66455">
        <ele>170.2</ele>
        <time>2022-02-23T08:33:24Z</time>
      </trkpt>
      <trkpt lat="47.71303" lon="3.66456">
        <ele>170.2</ele>
        <time>2022-02-23T08:33:25Z</time>
      </trkpt>
      <trkpt lat="47.71302" lon="3.66458">
        <ele>170.3</ele>
        <time>2022-02-23T08:33:26Z</time>
      </trkpt>
      <trkpt lat="47.713" lon="3.66459">
        <ele>170.4</ele>
        <time>2022-02-23T08:33:27Z</time>
      </trkpt>
      <trkpt lat="47.71299" lon="3.6646">
        <ele>170.5</ele>
        <time>2022-02-23T08:33:29Z</time>
      </trkpt>
      <trkpt lat="47.71297" lon="3.66461">
        <ele>170.6</ele>
        <time>2022-02-23T08:33:30Z</time>
      </trkpt>
      <trkpt lat="47.71296" lon="3.66462">
        <ele>170.7</ele>
        <time>2022-02-23T08:33:31Z</time>
      </trkpt>
      <trkpt lat="47.71295" lon="3.66463">
        <ele>170.8</ele>
        <time>2022-02-23T08:33:32Z</time>
      </trkpt>
      <trkpt lat="47.71294" lon="3.66464">
        <ele>170.8</ele>
        <time>2022-02-23T08:33:33Z</time>
      </trkpt>
      <trkpt lat="47.71292" lon="3.66466">
        <ele>171</ele>
        <time>2022-02-23T08:33:35Z</time>
      </trkpt>
      <trkpt lat="47.7129" lon="3.66468">
        <ele>171.2</ele>
        <time>2022-02-23T08:33:36Z</time>
      </trkpt>
      <trkpt lat="47.7129" lon="3.66468">
        <ele>171.2</ele>
        <time>2022-02-23T08:33:37Z</time>
      </trkpt>
      <trkpt lat="47.71289" lon="3.66469">
        <ele>171.3</ele>
        <time>2022-02-23T08:33:38Z</time>
      </trkpt>
      <trkpt lat="47.71288" lon="3.6647">
        <ele>171.4</ele>
        <time>2022-02-23T08:33:39Z</time>
      </trkpt>
      <trkpt lat="47.71287" lon="3.66471">
        <ele>171.4</ele>
        <time>2022-02-23T08:33:40Z</time>
      </trkpt>
      <trkpt lat="47.71287" lon="3.66472">
        <ele>171.5</ele>
        <time>2022-02-23T08:33:41Z</time>
      </trkpt>
      <trkpt lat="47.71286" lon="3.66473">
        <ele>171.6</ele>
        <time>2022-02-23T08:33:42Z</time>
      </trkpt>
      <trkpt lat="47.71284" lon="3.66475">
        <ele>171.7</ele>
        <time>2022-02-23T08:33:43Z</time>
      </trkpt>
      <trkpt lat="47.71282" lon="3.66476">
        <ele>171.9</ele>
        <time>2022-02-23T08:33:45Z</time>
      </trkpt>
      <trkpt lat="47.71282" lon="3.66477">
        <ele>172</ele>
        <time>2022-02-23T08:33:46Z</time>
      </trkpt>
      <trkpt lat="47.71281" lon="3.66478">
        <ele>172.1</ele>
        <time>2022-02-23T08:33:47Z</time>
      </trkpt>
      <trkpt lat="47.71279" lon="3.66479">
        <ele>172.2</ele>
        <time>2022-02-23T08:33:48Z</time>
      </trkpt>
      <trkpt lat="47.71278" lon="3.6648">
        <ele>172.4</ele>
        <time>2022-02-23T08:33:49Z</time>
      </trkpt>
      <trkpt lat="47.71277" lon="3.66481">
        <ele>172.5</ele>
        <time>2022-02-23T08:33:50Z</time>
      </trkpt>
      <trkpt lat="47.71276" lon="3.66482">
        <ele>172.6</ele>
        <time>2022-02-23T08:33:52Z</time>
      </trkpt>
      <trkpt lat="47.71275" lon="3.66482">
        <ele>172.7</ele>
        <time>2022-02-23T08:33:53Z</time>
      </trkpt>
      <trkpt lat="47.71274" lon="3.66483">
        <ele>172.8</ele>
        <time>2022-02-23T08:33:54Z</time>
      </trkpt>
      <trkpt lat="47.71273" lon="3.66483">
        <ele>172.9</ele>
        <time>2022-02-23T08:33:55Z</time>
      </trkpt>
      <trkpt lat="47.71271" lon="3.66482">
        <ele>173</ele>
        <time>2022-02-23T08:33:56Z</time>
      </trkpt>
      <trkpt lat="47.7127" lon="3.66482">
        <ele>173.1</ele>
        <time>2022-02-23T08:33:57Z</time>
      </trkpt>
      <trkpt lat="47.71268" lon="3.66483">
        <ele>173.3</ele>
        <time>2022-02-23T08:33:58Z</time>
      </trkpt>
      <trkpt lat="47.71268" lon="3.66483">
        <ele>173.3</ele>
        <time>2022-02-23T08:34:00Z</time>
      </trkpt>
      <trkpt lat="47.71267" lon="3.66483">
        <ele>173.4</ele>
        <time>2022-02-23T08:34:01Z</time>
      </trkpt>
      <trkpt lat="47.71265" lon="3.66485">
        <ele>173.6</ele>
        <time>2022-02-23T08:34:03Z</time>
      </trkpt>
      <trkpt lat="47.71264" lon="3.66485">
        <ele>173.7</ele>
        <time>2022-02-23T08:34:04Z</time>
      </trkpt>
      <trkpt lat="47.71263" lon="3.66486">
        <ele>173.8</ele>
        <time>2022-02-23T08:34:05Z</time>
      </trkpt>
      <trkpt lat="47.71263" lon="3.66486">
        <ele>173.9</ele>
        <time>2022-02-23T08:34:06Z</time>
      </trkpt>
      <trkpt lat="47.71262" lon="3.66487">
        <ele>174</ele>
        <time>2022-02-23T08:34:07Z</time>
      </trkpt>
      <trkpt lat="47.71261" lon="3.66488">
        <ele>174.1</ele>
        <time>2022-02-23T08:34:08Z</time>
      </trkpt>
      <trkpt lat="47.71259" lon="3.6649">
        <ele>174.3</ele>
        <time>2022-02-23T08:34:09Z</time>
      </trkpt>
      <trkpt lat="47.71258" lon="3.66491">
        <ele>174.4</ele>
        <time>2022-02-23T08:34:11Z</time>
      </trkpt>
      <trkpt lat="47.71258" lon="3.66492">
        <ele>174.5</ele>
        <time>2022-02-23T08:34:12Z</time>
      </trkpt>
      <trkpt lat="47.71257" lon="3.66493">
        <ele>174.6</ele>
        <time>2022-02-23T08:34:14Z</time>
      </trkpt>
      <trkpt lat="47.71256" lon="3.66493">
        <ele>174.7</ele>
        <time>2022-02-23T08:34:15Z</time>
      </trkpt>
      <trkpt lat="47.71255" lon="3.66493">
        <ele>174.8</ele>
        <time>2022-02-23T08:34:16Z</time>
      </trkpt>
      <trkpt lat="47.71254" lon="3.66494">
        <ele>174.8</ele>
        <time>2022-02-23T08:34:17Z</time>
      </trkpt>
      <trkpt lat="47.71254" lon="3.66495">
        <ele>174.9</ele>
        <time>2022-02-23T08:34:18Z</time>
      </trkpt>
      <trkpt lat="47.71253" lon="3.66496">
        <ele>175</ele>
        <time>2022-02-23T08:34:19Z</time>
      </trkpt>
      <trkpt lat="47.71252" lon="3.66496">
        <ele>175.1</ele>
        <time>2022-02-23T08:34:20Z</time>
      </trkpt>
      <trkpt lat="47.71251" lon="3.66497">
        <ele>175.2</ele>
        <time>2022-02-23T08:34:22Z</time>
      </trkpt>
      <trkpt lat="47.7125" lon="3.66498">
        <ele>175.3</ele>
        <time>2022-02-23T08:34:23Z</time>
      </trkpt>
      <trkpt lat="47.71248" lon="3.66499">
        <ele>175.5</ele>
        <time>2022-02-23T08:34:24Z</time>
      </trkpt>
      <trkpt lat="47.71247" lon="3.66499">
        <ele>175.6</ele>
        <time>2022-02-23T08:34:25Z</time>
      </trkpt>
      <trkpt lat="47.71246" lon="3.66499">
        <ele>175.7</ele>
        <time>2022-02-23T08:34:26Z</time>
      </trkpt>
      <trkpt lat="47.71244" lon="3.665">
        <ele>175.7</ele>
        <time>2022-02-23T08:34:28Z</time>
      </trkpt>
      <trkpt lat="47.71242" lon="3.66501">
        <ele>175.9</ele>
        <time>2022-02-23T08:34:29Z</time>
      </trkpt>
      <trkpt lat="47.71241" lon="3.66502">
        <ele>175.9</ele>
        <time>2022-02-23T08:34:31Z</time>
      </trkpt>
      <trkpt lat="47.71241" lon="3.66502">
        <ele>176</ele>
        <time>2022-02-23T08:34:32Z</time>
      </trkpt>
      <trkpt lat="47.71239" lon="3.66503">
        <ele>176.1</ele>
        <time>2022-02-23T08:34:33Z</time>
      </trkpt>
      <trkpt lat="47.71238" lon="3.66504">
        <ele>176.1</ele>
        <time>2022-02-23T08:34:34Z</time>
      </trkpt>
      <trkpt lat="47.71238" lon="3.66505">
        <ele>176.2</ele>
        <time>2022-02-23T08:34:35Z</time>
      </trkpt>
      <trkpt lat="47.71237" lon="3.66505">
        <ele>176.3</ele>
        <time>2022-02-23T08:34:36Z</time>
      </trkpt>
      <trkpt lat="47.71235" lon="3.66506">
        <ele>176.3</ele>
        <time>2022-02-23T08:34:37Z</time>
      </trkpt>
      <trkpt lat="47.71234" lon="3.66506">
        <ele>176.4</ele>
        <time>2022-02-23T08:34:39Z</time>
      </trkpt>
      <trkpt lat="47.71232" lon="3.66506">
        <ele>176.5</ele>
        <time>2022-02-23T08:34:40Z</time>
      </trkpt>
      <trkpt lat="47.7123" lon="3.66507">
        <ele>176.6</ele>
        <time>2022-02-23T08:34:41Z</time>
      </trkpt>
      <trkpt lat="47.71229" lon="3.66508">
        <ele>176.7</ele>
        <time>2022-02-23T08:34:43Z</time>
      </trkpt>
      <trkpt lat="47.71228" lon="3.66509">
        <ele>176.8</ele>
        <time>2022-02-23T08:34:44Z</time>
      </trkpt>
      <trkpt lat="47.71225" lon="3.66508">
        <ele>176.9</ele>
        <time>2022-02-23T08:34:45Z</time>
      </trkpt>
      <trkpt lat="47.71225" lon="3.66508">
        <ele>177.1</ele>
        <time>2022-02-23T08:34:46Z</time>
      </trkpt>
      <trkpt lat="47.71224" lon="3.66508">
        <ele>177.1</ele>
        <time>2022-02-23T08:34:47Z</time>
      </trkpt>
      <trkpt lat="47.71222" lon="3.66507">
        <ele>177.1</ele>
        <time>2022-02-23T08:34:48Z</time>
      </trkpt>
      <trkpt lat="47.71221" lon="3.66505">
        <ele>177.1</ele>
        <time>2022-02-23T08:34:50Z</time>
      </trkpt>
      <trkpt lat="47.7122" lon="3.66504">
        <ele>177.1</ele>
        <time>2022-02-23T08:34:51Z</time>
      </trkpt>
      <trkpt lat="47.7122" lon="3.66503">
        <ele>177.1</ele>
        <time>2022-02-23T08:34:52Z</time>
      </trkpt>
      <trkpt lat="47.71219" lon="3.66501">
        <ele>177.1</ele>
        <time>2022-02-23T08:34:53Z</time>
      </trkpt>
      <trkpt lat="47.71218" lon="3.665">
        <ele>177.1</ele>
        <time>2022-02-23T08:34:55Z</time>
      </trkpt>
      <trkpt lat="47.71217" lon="3.66498">
        <ele>177.1</ele>
        <time>2022-02-23T08:34:56Z</time>
      </trkpt>
      <trkpt lat="47.71217" lon="3.66496">
        <ele>177.1</ele>
        <time>2022-02-23T08:34:57Z</time>
      </trkpt>
      <trkpt lat="47.71217" lon="3.66495">
        <ele>177.1</ele>
        <time>2022-02-23T08:34:58Z</time>
      </trkpt>
      <trkpt lat="47.71216" lon="3.66492">
        <ele>177.1</ele>
        <time>2022-02-23T08:35:00Z</time>
      </trkpt>
      <trkpt lat="47.71215" lon="3.66489">
        <ele>177.1</ele>
        <time>2022-02-23T08:35:01Z</time>
      </trkpt>
      <trkpt lat="47.71214" lon="3.66487">
        <ele>177.1</ele>
        <time>2022-02-23T08:35:02Z</time>
      </trkpt>
      <trkpt lat="47.71214" lon="3.66486">
        <ele>177.1</ele>
        <time>2022-02-23T08:35:03Z</time>
      </trkpt>
      <trkpt lat="47.71213" lon="3.66483">
        <ele>177.1</ele>
        <time>2022-02-23T08:35:05Z</time>
      </trkpt>
      <trkpt lat="47.71213" lon="3.66482">
        <ele>177.1</ele>
        <time>2022-02-23T08:35:06Z</time>
      </trkpt>
      <trkpt lat="47.71213" lon="3.66481">
        <ele>177.2</ele>
        <time>2022-02-23T08:35:07Z</time>
      </trkpt>
      <trkpt lat="47.71212" lon="3.66478">
        <ele>177.2</ele>
        <time>2022-02-23T08:35:08Z</time>
      </trkpt>
      <trkpt lat="47.71211" lon="3.66477">
        <ele>177.2</ele>
        <time>2022-02-23T08:35:09Z</time>
      </trkpt>
      <trkpt lat="47.71211" lon="3.66476">
        <ele>177.2</ele>
        <time>2022-02-23T08:35:10Z</time>
      </trkpt>
      <trkpt lat="47.7121" lon="3.66473">
        <ele>177.3</ele>
        <time>2022-02-23T08:35:11Z</time>
      </trkpt>
      <trkpt lat="47.71209" lon="3.66472">
        <ele>177.3</ele>
        <time>2022-02-23T08:35:12Z</time>
      </trkpt>
      <trkpt lat="47.71209" lon="3.66471">
        <ele>177.3</ele>
        <time>2022-02-23T08:35:13Z</time>
      </trkpt>
      <trkpt lat="47.71208" lon="3.6647">
        <ele>177.3</ele>
        <time>2022-02-23T08:35:14Z</time>
      </trkpt>
      <trkpt lat="47.71207" lon="3.66468">
        <ele>177.4</ele>
        <time>2022-02-23T08:35:15Z</time>
      </trkpt>
      <trkpt lat="47.71207" lon="3.66466">
        <ele>177.4</ele>
        <time>2022-02-23T08:35:17Z</time>
      </trkpt>
      <trkpt lat="47.71206" lon="3.66465">
        <ele>177.4</ele>
        <time>2022-02-23T08:35:18Z</time>
      </trkpt>
      <trkpt lat="47.71205" lon="3.66463">
        <ele>177.4</ele>
        <time>2022-02-23T08:35:19Z</time>
      </trkpt>
      <trkpt lat="47.71205" lon="3.66462">
        <ele>177.5</ele>
        <time>2022-02-23T08:35:20Z</time>
      </trkpt>
      <trkpt lat="47.71204" lon="3.6646">
        <ele>177.5</ele>
        <time>2022-02-23T08:35:21Z</time>
      </trkpt>
      <trkpt lat="47.71204" lon="3.66458">
        <ele>177.5</ele>
        <time>2022-02-23T08:35:22Z</time>
      </trkpt>
      <trkpt lat="47.71202" lon="3.66456">
        <ele>177.5</ele>
        <time>2022-02-23T08:35:24Z</time>
      </trkpt>
      <trkpt lat="47.71202" lon="3.66455">
        <ele>177.5</ele>
        <time>2022-02-23T08:35:25Z</time>
      </trkpt>
      <trkpt lat="47.71202" lon="3.66454">
        <ele>177.5</ele>
        <time>2022-02-23T08:35:26Z</time>
      </trkpt>
      <trkpt lat="47.71201" lon="3.66452">
        <ele>177.6</ele>
        <time>2022-02-23T08:35:27Z</time>
      </trkpt>
      <trkpt lat="47.712" lon="3.66451">
        <ele>177.6</ele>
        <time>2022-02-23T08:35:28Z</time>
      </trkpt>
      <trkpt lat="47.71198" lon="3.66448">
        <ele>177.6</ele>
        <time>2022-02-23T08:35:29Z</time>
      </trkpt>
      <trkpt lat="47.71197" lon="3.66446">
        <ele>177.6</ele>
        <time>2022-02-23T08:35:31Z</time>
      </trkpt>
      <trkpt lat="47.71197" lon="3.66445">
        <ele>177.6</ele>
        <time>2022-02-23T08:35:32Z</time>
      </trkpt>
      <trkpt lat="47.71196" lon="3.66444">
        <ele>177.7</ele>
        <time>2022-02-23T08:35:33Z</time>
      </trkpt>
      <trkpt lat="47.71195" lon="3.66443">
        <ele>177.7</ele>
        <time>2022-02-23T08:35:34Z</time>
      </trkpt>
      <trkpt lat="47.71194" lon="3.6644">
        <ele>177.7</ele>
        <time>2022-02-23T08:35:35Z</time>
      </trkpt>
      <trkpt lat="47.71194" lon="3.66438">
        <ele>177.7</ele>
        <time>2022-02-23T08:35:37Z</time>
      </trkpt>
      <trkpt lat="47.71193" lon="3.66437">
        <ele>177.7</ele>
        <time>2022-02-23T08:35:38Z</time>
      </trkpt>
      <trkpt lat="47.71193" lon="3.66435">
        <ele>177.8</ele>
        <time>2022-02-23T08:35:39Z</time>
      </trkpt>
      <trkpt lat="47.71192" lon="3.66432">
        <ele>177.8</ele>
        <time>2022-02-23T08:35:40Z</time>
      </trkpt>
      <trkpt lat="47.71191" lon="3.66431">
        <ele>177.9</ele>
        <time>2022-02-23T08:35:41Z</time>
      </trkpt>
      <trkpt lat="47.7119" lon="3.6643">
        <ele>177.9</ele>
        <time>2022-02-23T08:35:42Z</time>
      </trkpt>
      <trkpt lat="47.71189" lon="3.66428">
        <ele>177.9</ele>
        <time>2022-02-23T08:35:43Z</time>
      </trkpt>
      <trkpt lat="47.71188" lon="3.66426">
        <ele>178</ele>
        <time>2022-02-23T08:35:44Z</time>
      </trkpt>
      <trkpt lat="47.71187" lon="3.66424">
        <ele>178</ele>
        <time>2022-02-23T08:35:46Z</time>
      </trkpt>
      <trkpt lat="47.71185" lon="3.66424">
        <ele>178.1</ele>
        <time>2022-02-23T08:35:47Z</time>
      </trkpt>
      <trkpt lat="47.71185" lon="3.66422">
        <ele>178.1</ele>
        <time>2022-02-23T08:35:48Z</time>
      </trkpt>
      <trkpt lat="47.71184" lon="3.6642">
        <ele>178.2</ele>
        <time>2022-02-23T08:35:49Z</time>
      </trkpt>
      <trkpt lat="47.71183" lon="3.66419">
        <ele>178.2</ele>
        <time>2022-02-23T08:35:50Z</time>
      </trkpt>
      <trkpt lat="47.71181" lon="3.66417">
        <ele>178.3</ele>
        <time>2022-02-23T08:35:51Z</time>
      </trkpt>
      <trkpt lat="47.7118" lon="3.66416">
        <ele>178.4</ele>
        <time>2022-02-23T08:35:53Z</time>
      </trkpt>
      <trkpt lat="47.7118" lon="3.66415">
        <ele>178.4</ele>
        <time>2022-02-23T08:35:54Z</time>
      </trkpt>
      <trkpt lat="47.71179" lon="3.66414">
        <ele>178.4</ele>
        <time>2022-02-23T08:35:55Z</time>
      </trkpt>
      <trkpt lat="47.71178" lon="3.66413">
        <ele>178.5</ele>
        <time>2022-02-23T08:35:56Z</time>
      </trkpt>
      <trkpt lat="47.71176" lon="3.66413">
        <ele>178.6</ele>
        <time>2022-02-23T08:35:57Z</time>
      </trkpt>
      <trkpt lat="47.71175" lon="3.66414">
        <ele>178.8</ele>
        <time>2022-02-23T08:35:58Z</time>
      </trkpt>
      <trkpt lat="47.71174" lon="3.66413">
        <ele>178.9</ele>
        <time>2022-02-23T08:35:59Z</time>
      </trkpt>
      <trkpt lat="47.71173" lon="3.66413">
        <ele>179</ele>
        <time>2022-02-23T08:36:00Z</time>
      </trkpt>
      <trkpt lat="47.71172" lon="3.66413">
        <ele>179.1</ele>
        <time>2022-02-23T08:36:01Z</time>
      </trkpt>
      <trkpt lat="47.7117" lon="3.66412">
        <ele>179.3</ele>
        <time>2022-02-23T08:36:03Z</time>
      </trkpt>
      <trkpt lat="47.71169" lon="3.66411">
        <ele>179.4</ele>
        <time>2022-02-23T08:36:04Z</time>
      </trkpt>
      <trkpt lat="47.71167" lon="3.66411">
        <ele>179.5</ele>
        <time>2022-02-23T08:36:05Z</time>
      </trkpt>
      <trkpt lat="47.71166" lon="3.6641">
        <ele>179.6</ele>
        <time>2022-02-23T08:36:06Z</time>
      </trkpt>
      <trkpt lat="47.71164" lon="3.66409">
        <ele>179.8</ele>
        <time>2022-02-23T08:36:08Z</time>
      </trkpt>
      <trkpt lat="47.71163" lon="3.66408">
        <ele>179.9</ele>
        <time>2022-02-23T08:36:09Z</time>
      </trkpt>
      <trkpt lat="47.71161" lon="3.66407">
        <ele>180.1</ele>
        <time>2022-02-23T08:36:10Z</time>
      </trkpt>
      <trkpt lat="47.7116" lon="3.66406">
        <ele>180.2</ele>
        <time>2022-02-23T08:36:11Z</time>
      </trkpt>
      <trkpt lat="47.71159" lon="3.66405">
        <ele>180.3</ele>
        <time>2022-02-23T08:36:13Z</time>
      </trkpt>
      <trkpt lat="47.71157" lon="3.66404">
        <ele>180.4</ele>
        <time>2022-02-23T08:36:14Z</time>
      </trkpt>
      <trkpt lat="47.71156" lon="3.66403">
        <ele>180.5</ele>
        <time>2022-02-23T08:36:15Z</time>
      </trkpt>
      <trkpt lat="47.71155" lon="3.66402">
        <ele>180.6</ele>
        <time>2022-02-23T08:36:16Z</time>
      </trkpt>
      <trkpt lat="47.71154" lon="3.66401">
        <ele>180.7</ele>
        <time>2022-02-23T08:36:17Z</time>
      </trkpt>
      <trkpt lat="47.71153" lon="3.66401">
        <ele>180.8</ele>
        <time>2022-02-23T08:36:18Z</time>
      </trkpt>
      <trkpt lat="47.71151" lon="3.66399">
        <ele>181</ele>
        <time>2022-02-23T08:36:20Z</time>
      </trkpt>
      <trkpt lat="47.7115" lon="3.66398">
        <ele>181.1</ele>
        <time>2022-02-23T08:36:21Z</time>
      </trkpt>
      <trkpt lat="47.7115" lon="3.66398">
        <ele>181.1</ele>
        <time>2022-02-23T08:36:22Z</time>
      </trkpt>
      <trkpt lat="47.71149" lon="3.66398">
        <ele>181.2</ele>
        <time>2022-02-23T08:36:23Z</time>
      </trkpt>
      <trkpt lat="47.71149" lon="3.66399">
        <ele>181.2</ele>
        <time>2022-02-23T08:36:24Z</time>
      </trkpt>
      <trkpt lat="47.71149" lon="3.66399">
        <ele>181.2</ele>
        <time>2022-02-23T08:36:26Z</time>
      </trkpt>
      <trkpt lat="47.71148" lon="3.66398">
        <ele>181.3</ele>
        <time>2022-02-23T08:36:27Z</time>
      </trkpt>
      <trkpt lat="47.71147" lon="3.66398">
        <ele>181.3</ele>
        <time>2022-02-23T08:36:28Z</time>
      </trkpt>
      <trkpt lat="47.71147" lon="3.66397">
        <ele>181.4</ele>
        <time>2022-02-23T08:36:30Z</time>
      </trkpt>
      <trkpt lat="47.71146" lon="3.66397">
        <ele>181.5</ele>
        <time>2022-02-23T08:36:31Z</time>
      </trkpt>
      <trkpt lat="47.71145" lon="3.66396">
        <ele>181.5</ele>
        <time>2022-02-23T08:36:32Z</time>
      </trkpt>
      <trkpt lat="47.71144" lon="3.66394">
        <ele>181.7</ele>
        <time>2022-02-23T08:36:34Z</time>
      </trkpt>
      <trkpt lat="47.71143" lon="3.66393">
        <ele>181.7</ele>
        <time>2022-02-23T08:36:35Z</time>
      </trkpt>
      <trkpt lat="47.71142" lon="3.66392">
        <ele>181.8</ele>
        <time>2022-02-23T08:36:36Z</time>
      </trkpt>
      <trkpt lat="47.71141" lon="3.66391">
        <ele>181.9</ele>
        <time>2022-02-23T08:36:37Z</time>
      </trkpt>
      <trkpt lat="47.7114" lon="3.66388">
        <ele>182</ele>
        <time>2022-02-23T08:36:39Z</time>
      </trkpt>
      <trkpt lat="47.71139" lon="3.66386">
        <ele>182.1</ele>
        <time>2022-02-23T08:36:40Z</time>
      </trkpt>
      <trkpt lat="47.71139" lon="3.66385">
        <ele>182.2</ele>
        <time>2022-02-23T08:36:41Z</time>
      </trkpt>
      <trkpt lat="47.71138" lon="3.66383">
        <ele>182.3</ele>
        <time>2022-02-23T08:36:42Z</time>
      </trkpt>
      <trkpt lat="47.71137" lon="3.66382">
        <ele>182.3</ele>
        <time>2022-02-23T08:36:43Z</time>
      </trkpt>
      <trkpt lat="47.71136" lon="3.66381">
        <ele>182.5</ele>
        <time>2022-02-23T08:36:45Z</time>
      </trkpt>
      <trkpt lat="47.71135" lon="3.6638">
        <ele>182.5</ele>
        <time>2022-02-23T08:36:46Z</time>
      </trkpt>
      <trkpt lat="47.71134" lon="3.66378">
        <ele>182.6</ele>
        <time>2022-02-23T08:36:47Z</time>
      </trkpt>
      <trkpt lat="47.71132" lon="3.66377">
        <ele>182.7</ele>
        <time>2022-02-23T08:36:48Z</time>
      </trkpt>
      <trkpt lat="47.71131" lon="3.66376">
        <ele>182.8</ele>
        <time>2022-02-23T08:36:50Z</time>
      </trkpt>
      <trkpt lat="47.71129" lon="3.66375">
        <ele>182.9</ele>
        <time>2022-02-23T08:36:51Z</time>
      </trkpt>
      <trkpt lat="47.71128" lon="3.66375">
        <ele>183</ele>
        <time>2022-02-23T08:36:52Z</time>
      </trkpt>
      <trkpt lat="47.71126" lon="3.66374">
        <ele>183.2</ele>
        <time>2022-02-23T08:36:53Z</time>
      </trkpt>
      <trkpt lat="47.71125" lon="3.66373">
        <ele>183.3</ele>
        <time>2022-02-23T08:36:55Z</time>
      </trkpt>
      <trkpt lat="47.71124" lon="3.66372">
        <ele>183.3</ele>
        <time>2022-02-23T08:36:56Z</time>
      </trkpt>
      <trkpt lat="47.71123" lon="3.66372">
        <ele>183.4</ele>
        <time>2022-02-23T08:36:57Z</time>
      </trkpt>
      <trkpt lat="47.71122" lon="3.66371">
        <ele>183.5</ele>
        <time>2022-02-23T08:36:58Z</time>
      </trkpt>
      <trkpt lat="47.7112" lon="3.6637">
        <ele>183.6</ele>
        <time>2022-02-23T08:37:00Z</time>
      </trkpt>
      <trkpt lat="47.71118" lon="3.6637">
        <ele>183.7</ele>
        <time>2022-02-23T08:37:01Z</time>
      </trkpt>
      <trkpt lat="47.71117" lon="3.66369">
        <ele>183.8</ele>
        <time>2022-02-23T08:37:02Z</time>
      </trkpt>
      <trkpt lat="47.71116" lon="3.66369">
        <ele>183.8</ele>
        <time>2022-02-23T08:37:03Z</time>
      </trkpt>
      <trkpt lat="47.71115" lon="3.66368">
        <ele>183.9</ele>
        <time>2022-02-23T08:37:04Z</time>
      </trkpt>
      <trkpt lat="47.71114" lon="3.66367">
        <ele>184</ele>
        <time>2022-02-23T08:37:05Z</time>
      </trkpt>
      <trkpt lat="47.71113" lon="3.66366">
        <ele>184.1</ele>
        <time>2022-02-23T08:37:06Z</time>
      </trkpt>
      <trkpt lat="47.71111" lon="3.66365">
        <ele>184.1</ele>
        <time>2022-02-23T08:37:08Z</time>
      </trkpt>
      <trkpt lat="47.7111" lon="3.66364">
        <ele>184.2</ele>
        <time>2022-02-23T08:37:09Z</time>
      </trkpt>
      <trkpt lat="47.71109" lon="3.66363">
        <ele>184.3</ele>
        <time>2022-02-23T08:37:10Z</time>
      </trkpt>
      <trkpt lat="47.71108" lon="3.66362">
        <ele>184.4</ele>
        <time>2022-02-23T08:37:11Z</time>
      </trkpt>
      <trkpt lat="47.71106" lon="3.66361">
        <ele>184.5</ele>
        <time>2022-02-23T08:37:13Z</time>
      </trkpt>
      <trkpt lat="47.71105" lon="3.66359">
        <ele>184.6</ele>
        <time>2022-02-23T08:37:14Z</time>
      </trkpt>
      <trkpt lat="47.71103" lon="3.66358">
        <ele>184.7</ele>
        <time>2022-02-23T08:37:15Z</time>
      </trkpt>
      <trkpt lat="47.71103" lon="3.66357">
        <ele>184.8</ele>
        <time>2022-02-23T08:37:16Z</time>
      </trkpt>
      <trkpt lat="47.71102" lon="3.66357">
        <ele>184.8</ele>
        <time>2022-02-23T08:37:17Z</time>
      </trkpt>
      <trkpt lat="47.71101" lon="3.66356">
        <ele>184.9</ele>
        <time>2022-02-23T08:37:18Z</time>
      </trkpt>
      <trkpt lat="47.711" lon="3.66355">
        <ele>185</ele>
        <time>2022-02-23T08:37:19Z</time>
      </trkpt>
      <trkpt lat="47.71098" lon="3.66353">
        <ele>185.1</ele>
        <time>2022-02-23T08:37:21Z</time>
      </trkpt>
      <trkpt lat="47.71097" lon="3.66352">
        <ele>185.2</ele>
        <time>2022-02-23T08:37:22Z</time>
      </trkpt>
      <trkpt lat="47.71096" lon="3.66351">
        <ele>185.3</ele>
        <time>2022-02-23T08:37:23Z</time>
      </trkpt>
      <trkpt lat="47.71095" lon="3.66351">
        <ele>185.3</ele>
        <time>2022-02-23T08:37:24Z</time>
      </trkpt>
      <trkpt lat="47.71094" lon="3.6635">
        <ele>185.4</ele>
        <time>2022-02-23T08:37:25Z</time>
      </trkpt>
      <trkpt lat="47.71092" lon="3.66349">
        <ele>185.5</ele>
        <time>2022-02-23T08:37:26Z</time>
      </trkpt>
      <trkpt lat="47.71091" lon="3.66348">
        <ele>185.6</ele>
        <time>2022-02-23T08:37:27Z</time>
      </trkpt>
      <trkpt lat="47.7109" lon="3.66348">
        <ele>185.6</ele>
        <time>2022-02-23T08:37:28Z</time>
      </trkpt>
      <trkpt lat="47.71089" lon="3.66347">
        <ele>185.7</ele>
        <time>2022-02-23T08:37:29Z</time>
      </trkpt>
      <trkpt lat="47.71088" lon="3.66345">
        <ele>185.8</ele>
        <time>2022-02-23T08:37:30Z</time>
      </trkpt>
      <trkpt lat="47.71087" lon="3.66344">
        <ele>185.9</ele>
        <time>2022-02-23T08:37:32Z</time>
      </trkpt>
      <trkpt lat="47.71086" lon="3.66343">
        <ele>186</ele>
        <time>2022-02-23T08:37:33Z</time>
      </trkpt>
      <trkpt lat="47.71085" lon="3.66342">
        <ele>186</ele>
        <time>2022-02-23T08:37:34Z</time>
      </trkpt>
      <trkpt lat="47.71084" lon="3.66341">
        <ele>186.1</ele>
        <time>2022-02-23T08:37:35Z</time>
      </trkpt>
      <trkpt lat="47.71083" lon="3.66341">
        <ele>186.2</ele>
        <time>2022-02-23T08:37:36Z</time>
      </trkpt>
      <trkpt lat="47.71082" lon="3.6634">
        <ele>186.2</ele>
        <time>2022-02-23T08:37:37Z</time>
      </trkpt>
      <trkpt lat="47.71081" lon="3.66339">
        <ele>186.3</ele>
        <time>2022-02-23T08:37:38Z</time>
      </trkpt>
      <trkpt lat="47.71081" lon="3.66338">
        <ele>186.4</ele>
        <time>2022-02-23T08:37:40Z</time>
      </trkpt>
      <trkpt lat="47.7108" lon="3.66337">
        <ele>186.4</ele>
        <time>2022-02-23T08:37:41Z</time>
      </trkpt>
      <trkpt lat="47.71079" lon="3.66335">
        <ele>186.5</ele>
        <time>2022-02-23T08:37:43Z</time>
      </trkpt>
      <trkpt lat="47.71078" lon="3.66334">
        <ele>186.6</ele>
        <time>2022-02-23T08:37:44Z</time>
      </trkpt>
      <trkpt lat="47.71077" lon="3.66334">
        <ele>186.6</ele>
        <time>2022-02-23T08:37:45Z</time>
      </trkpt>
      <trkpt lat="47.71075" lon="3.66333">
        <ele>186.7</ele>
        <time>2022-02-23T08:37:47Z</time>
      </trkpt>
      <trkpt lat="47.71074" lon="3.66332">
        <ele>186.8</ele>
        <time>2022-02-23T08:37:48Z</time>
      </trkpt>
      <trkpt lat="47.71073" lon="3.66331">
        <ele>186.8</ele>
        <time>2022-02-23T08:37:49Z</time>
      </trkpt>
      <trkpt lat="47.71072" lon="3.66331">
        <ele>186.9</ele>
        <time>2022-02-23T08:37:50Z</time>
      </trkpt>
      <trkpt lat="47.71071" lon="3.6633">
        <ele>187</ele>
        <time>2022-02-23T08:37:51Z</time>
      </trkpt>
      <trkpt lat="47.7107" lon="3.6633">
        <ele>187</ele>
        <time>2022-02-23T08:37:52Z</time>
      </trkpt>
      <trkpt lat="47.71068" lon="3.66329">
        <ele>187.1</ele>
        <time>2022-02-23T08:37:54Z</time>
      </trkpt>
      <trkpt lat="47.71067" lon="3.66328">
        <ele>187.2</ele>
        <time>2022-02-23T08:37:55Z</time>
      </trkpt>
      <trkpt lat="47.71066" lon="3.66327">
        <ele>187.2</ele>
        <time>2022-02-23T08:37:56Z</time>
      </trkpt>
      <trkpt lat="47.71065" lon="3.66327">
        <ele>187.3</ele>
        <time>2022-02-23T08:37:57Z</time>
      </trkpt>
      <trkpt lat="47.71063" lon="3.66325">
        <ele>187.4</ele>
        <time>2022-02-23T08:37:59Z</time>
      </trkpt>
      <trkpt lat="47.71062" lon="3.66324">
        <ele>187.5</ele>
        <time>2022-02-23T08:38:00Z</time>
      </trkpt>
      <trkpt lat="47.71061" lon="3.66324">
        <ele>187.5</ele>
        <time>2022-02-23T08:38:01Z</time>
      </trkpt>
      <trkpt lat="47.7106" lon="3.66323">
        <ele>187.6</ele>
        <time>2022-02-23T08:38:03Z</time>
      </trkpt>
      <trkpt lat="47.71059" lon="3.66322">
        <ele>187.7</ele>
        <time>2022-02-23T08:38:04Z</time>
      </trkpt>
      <trkpt lat="47.71058" lon="3.66321">
        <ele>187.7</ele>
        <time>2022-02-23T08:38:05Z</time>
      </trkpt>
      <trkpt lat="47.71057" lon="3.6632">
        <ele>187.8</ele>
        <time>2022-02-23T08:38:06Z</time>
      </trkpt>
      <trkpt lat="47.71056" lon="3.66319">
        <ele>187.9</ele>
        <time>2022-02-23T08:38:08Z</time>
      </trkpt>
      <trkpt lat="47.71055" lon="3.66317">
        <ele>188</ele>
        <time>2022-02-23T08:38:09Z</time>
      </trkpt>
      <trkpt lat="47.71054" lon="3.66317">
        <ele>188</ele>
        <time>2022-02-23T08:38:10Z</time>
      </trkpt>
      <trkpt lat="47.71053" lon="3.66316">
        <ele>188.1</ele>
        <time>2022-02-23T08:38:11Z</time>
      </trkpt>
      <trkpt lat="47.71052" lon="3.66315">
        <ele>188.2</ele>
        <time>2022-02-23T08:38:12Z</time>
      </trkpt>
      <trkpt lat="47.71051" lon="3.66315">
        <ele>188.3</ele>
        <time>2022-02-23T08:38:13Z</time>
      </trkpt>
      <trkpt lat="47.71049" lon="3.66313">
        <ele>188.4</ele>
        <time>2022-02-23T08:38:15Z</time>
      </trkpt>
      <trkpt lat="47.71048" lon="3.66313">
        <ele>188.5</ele>
        <time>2022-02-23T08:38:16Z</time>
      </trkpt>
      <trkpt lat="47.71046" lon="3.66312">
        <ele>188.6</ele>
        <time>2022-02-23T08:38:18Z</time>
      </trkpt>
      <trkpt lat="47.71045" lon="3.66312">
        <ele>188.7</ele>
        <time>2022-02-23T08:38:19Z</time>
      </trkpt>
      <trkpt lat="47.71043" lon="3.66311">
        <ele>188.8</ele>
        <time>2022-02-23T08:38:20Z</time>
      </trkpt>
      <trkpt lat="47.71042" lon="3.6631">
        <ele>189</ele>
        <time>2022-02-23T08:38:22Z</time>
      </trkpt>
      <trkpt lat="47.71041" lon="3.66309">
        <ele>189</ele>
        <time>2022-02-23T08:38:23Z</time>
      </trkpt>
      <trkpt lat="47.71039" lon="3.66309">
        <ele>189.1</ele>
        <time>2022-02-23T08:38:24Z</time>
      </trkpt>
      <trkpt lat="47.71037" lon="3.66308">
        <ele>189.3</ele>
        <time>2022-02-23T08:38:26Z</time>
      </trkpt>
      <trkpt lat="47.71036" lon="3.66308">
        <ele>189.3</ele>
        <time>2022-02-23T08:38:27Z</time>
      </trkpt>
      <trkpt lat="47.71035" lon="3.66308">
        <ele>189.4</ele>
        <time>2022-02-23T08:38:28Z</time>
      </trkpt>
      <trkpt lat="47.71034" lon="3.66308">
        <ele>189.5</ele>
        <time>2022-02-23T08:38:29Z</time>
      </trkpt>
      <trkpt lat="47.71032" lon="3.66307">
        <ele>189.6</ele>
        <time>2022-02-23T08:38:30Z</time>
      </trkpt>
      <trkpt lat="47.71032" lon="3.66307">
        <ele>189.7</ele>
        <time>2022-02-23T08:38:31Z</time>
      </trkpt>
      <trkpt lat="47.7103" lon="3.66307">
        <ele>189.8</ele>
        <time>2022-02-23T08:38:32Z</time>
      </trkpt>
      <trkpt lat="47.71028" lon="3.66307">
        <ele>189.9</ele>
        <time>2022-02-23T08:38:33Z</time>
      </trkpt>
      <trkpt lat="47.71027" lon="3.66307">
        <ele>190</ele>
        <time>2022-02-23T08:38:34Z</time>
      </trkpt>
      <trkpt lat="47.71026" lon="3.66307">
        <ele>190</ele>
        <time>2022-02-23T08:38:35Z</time>
      </trkpt>
      <trkpt lat="47.71024" lon="3.66306">
        <ele>190.2</ele>
        <time>2022-02-23T08:38:36Z</time>
      </trkpt>
      <trkpt lat="47.71024" lon="3.66306">
        <ele>190.2</ele>
        <time>2022-02-23T08:38:38Z</time>
      </trkpt>
      <trkpt lat="47.71023" lon="3.66306">
        <ele>190.3</ele>
        <time>2022-02-23T08:38:39Z</time>
      </trkpt>
      <trkpt lat="47.71021" lon="3.66305">
        <ele>190.5</ele>
        <time>2022-02-23T08:38:40Z</time>
      </trkpt>
      <trkpt lat="47.7102" lon="3.66305">
        <ele>190.5</ele>
        <time>2022-02-23T08:38:42Z</time>
      </trkpt>
      <trkpt lat="47.71019" lon="3.66304">
        <ele>190.6</ele>
        <time>2022-02-23T08:38:43Z</time>
      </trkpt>
      <trkpt lat="47.71018" lon="3.66304">
        <ele>190.7</ele>
        <time>2022-02-23T08:38:44Z</time>
      </trkpt>
      <trkpt lat="47.71017" lon="3.66303">
        <ele>190.8</ele>
        <time>2022-02-23T08:38:45Z</time>
      </trkpt>
      <trkpt lat="47.71016" lon="3.66302">
        <ele>190.8</ele>
        <time>2022-02-23T08:38:46Z</time>
      </trkpt>
      <trkpt lat="47.71015" lon="3.66302">
        <ele>190.9</ele>
        <time>2022-02-23T08:38:47Z</time>
      </trkpt>
      <trkpt lat="47.71014" lon="3.66301">
        <ele>191</ele>
        <time>2022-02-23T08:38:48Z</time>
      </trkpt>
      <trkpt lat="47.71013" lon="3.663">
        <ele>191</ele>
        <time>2022-02-23T08:38:49Z</time>
      </trkpt>
      <trkpt lat="47.71012" lon="3.66299">
        <ele>191.2</ele>
        <time>2022-02-23T08:38:50Z</time>
      </trkpt>
      <trkpt lat="47.71011" lon="3.66299">
        <ele>191.2</ele>
        <time>2022-02-23T08:38:51Z</time>
      </trkpt>
      <trkpt lat="47.71011" lon="3.66299">
        <ele>191.2</ele>
        <time>2022-02-23T08:38:52Z</time>
      </trkpt>
      <trkpt lat="47.71009" lon="3.66298">
        <ele>191.4</ele>
        <time>2022-02-23T08:38:53Z</time>
      </trkpt>
      <trkpt lat="47.71008" lon="3.66298">
        <ele>191.4</ele>
        <time>2022-02-23T08:38:54Z</time>
      </trkpt>
      <trkpt lat="47.71007" lon="3.66297">
        <ele>191.5</ele>
        <time>2022-02-23T08:38:55Z</time>
      </trkpt>
      <trkpt lat="47.71007" lon="3.66296">
        <ele>191.6</ele>
        <time>2022-02-23T08:38:56Z</time>
      </trkpt>
      <trkpt lat="47.71005" lon="3.66296">
        <ele>191.6</ele>
        <time>2022-02-23T08:38:58Z</time>
      </trkpt>
      <trkpt lat="47.71004" lon="3.66295">
        <ele>191.7</ele>
        <time>2022-02-23T08:38:59Z</time>
      </trkpt>
      <trkpt lat="47.71003" lon="3.66294">
        <ele>191.9</ele>
        <time>2022-02-23T08:39:00Z</time>
      </trkpt>
      <trkpt lat="47.71001" lon="3.66294">
        <ele>192</ele>
        <time>2022-02-23T08:39:02Z</time>
      </trkpt>
      <trkpt lat="47.70999" lon="3.66293">
        <ele>192.1</ele>
        <time>2022-02-23T08:39:03Z</time>
      </trkpt>
      <trkpt lat="47.70998" lon="3.66292">
        <ele>192.2</ele>
        <time>2022-02-23T08:39:04Z</time>
      </trkpt>
      <trkpt lat="47.70997" lon="3.66292">
        <ele>192.2</ele>
        <time>2022-02-23T08:39:05Z</time>
      </trkpt>
      <trkpt lat="47.70995" lon="3.66292">
        <ele>192.4</ele>
        <time>2022-02-23T08:39:06Z</time>
      </trkpt>
      <trkpt lat="47.70995" lon="3.66292">
        <ele>192.5</ele>
        <time>2022-02-23T08:39:08Z</time>
      </trkpt>
      <trkpt lat="47.70994" lon="3.66292">
        <ele>192.5</ele>
        <time>2022-02-23T08:39:09Z</time>
      </trkpt>
      <trkpt lat="47.70992" lon="3.66292">
        <ele>192.6</ele>
        <time>2022-02-23T08:39:10Z</time>
      </trkpt>
      <trkpt lat="47.70991" lon="3.66292">
        <ele>192.8</ele>
        <time>2022-02-23T08:39:11Z</time>
      </trkpt>
      <trkpt lat="47.70988" lon="3.66291">
        <ele>193</ele>
        <time>2022-02-23T08:39:13Z</time>
      </trkpt>
      <trkpt lat="47.70987" lon="3.66291">
        <ele>193.1</ele>
        <time>2022-02-23T08:39:14Z</time>
      </trkpt>
      <trkpt lat="47.70984" lon="3.66291">
        <ele>193.2</ele>
        <time>2022-02-23T08:39:15Z</time>
      </trkpt>
      <trkpt lat="47.70983" lon="3.66291">
        <ele>193.3</ele>
        <time>2022-02-23T08:39:17Z</time>
      </trkpt>
      <trkpt lat="47.70982" lon="3.66291">
        <ele>193.4</ele>
        <time>2022-02-23T08:39:18Z</time>
      </trkpt>
      <trkpt lat="47.70981" lon="3.66291">
        <ele>193.5</ele>
        <time>2022-02-23T08:39:19Z</time>
      </trkpt>
      <trkpt lat="47.7098" lon="3.66291">
        <ele>193.6</ele>
        <time>2022-02-23T08:39:20Z</time>
      </trkpt>
      <trkpt lat="47.70978" lon="3.6629">
        <ele>193.7</ele>
        <time>2022-02-23T08:39:21Z</time>
      </trkpt>
      <trkpt lat="47.70977" lon="3.6629">
        <ele>193.8</ele>
        <time>2022-02-23T08:39:23Z</time>
      </trkpt>
      <trkpt lat="47.70976" lon="3.6629">
        <ele>193.9</ele>
        <time>2022-02-23T08:39:24Z</time>
      </trkpt>
      <trkpt lat="47.70975" lon="3.6629">
        <ele>194</ele>
        <time>2022-02-23T08:39:25Z</time>
      </trkpt>
      <trkpt lat="47.70973" lon="3.6629">
        <ele>194.1</ele>
        <time>2022-02-23T08:39:27Z</time>
      </trkpt>
      <trkpt lat="47.70972" lon="3.6629">
        <ele>194.2</ele>
        <time>2022-02-23T08:39:28Z</time>
      </trkpt>
      <trkpt lat="47.70971" lon="3.66289">
        <ele>194.2</ele>
        <time>2022-02-23T08:39:29Z</time>
      </trkpt>
      <trkpt lat="47.7097" lon="3.66289">
        <ele>194.3</ele>
        <time>2022-02-23T08:39:30Z</time>
      </trkpt>
      <trkpt lat="47.70969" lon="3.66289">
        <ele>194.4</ele>
        <time>2022-02-23T08:39:31Z</time>
      </trkpt>
      <trkpt lat="47.70967" lon="3.66288">
        <ele>194.6</ele>
        <time>2022-02-23T08:39:33Z</time>
      </trkpt>
      <trkpt lat="47.70966" lon="3.66289">
        <ele>194.7</ele>
        <time>2022-02-23T08:39:34Z</time>
      </trkpt>
      <trkpt lat="47.70965" lon="3.66289">
        <ele>194.7</ele>
        <time>2022-02-23T08:39:35Z</time>
      </trkpt>
      <trkpt lat="47.70964" lon="3.66289">
        <ele>194.8</ele>
        <time>2022-02-23T08:39:36Z</time>
      </trkpt>
      <trkpt lat="47.70961" lon="3.66289">
        <ele>195</ele>
        <time>2022-02-23T08:39:38Z</time>
      </trkpt>
      <trkpt lat="47.70961" lon="3.66289">
        <ele>195.1</ele>
        <time>2022-02-23T08:39:39Z</time>
      </trkpt>
      <trkpt lat="47.7096" lon="3.66289">
        <ele>195.1</ele>
        <time>2022-02-23T08:39:40Z</time>
      </trkpt>
      <trkpt lat="47.70959" lon="3.66288">
        <ele>195.2</ele>
        <time>2022-02-23T08:39:41Z</time>
      </trkpt>
      <trkpt lat="47.70958" lon="3.66288">
        <ele>195.3</ele>
        <time>2022-02-23T08:39:42Z</time>
      </trkpt>
      <trkpt lat="47.70957" lon="3.66287">
        <ele>195.4</ele>
        <time>2022-02-23T08:39:43Z</time>
      </trkpt>
      <trkpt lat="47.70956" lon="3.66286">
        <ele>195.5</ele>
        <time>2022-02-23T08:39:44Z</time>
      </trkpt>
      <trkpt lat="47.70955" lon="3.66285">
        <ele>195.6</ele>
        <time>2022-02-23T08:39:46Z</time>
      </trkpt>
      <trkpt lat="47.70954" lon="3.66285">
        <ele>195.6</ele>
        <time>2022-02-23T08:39:47Z</time>
      </trkpt>
      <trkpt lat="47.70953" lon="3.66284">
        <ele>195.7</ele>
        <time>2022-02-23T08:39:48Z</time>
      </trkpt>
      <trkpt lat="47.70952" lon="3.66284">
        <ele>195.8</ele>
        <time>2022-02-23T08:39:49Z</time>
      </trkpt>
      <trkpt lat="47.70952" lon="3.66284">
        <ele>195.8</ele>
        <time>2022-02-23T08:39:50Z</time>
      </trkpt>
      <trkpt lat="47.7095" lon="3.66284">
        <ele>195.9</ele>
        <time>2022-02-23T08:39:52Z</time>
      </trkpt>
      <trkpt lat="47.70949" lon="3.66283">
        <ele>196</ele>
        <time>2022-02-23T08:39:53Z</time>
      </trkpt>
      <trkpt lat="47.70948" lon="3.66283">
        <ele>196.1</ele>
        <time>2022-02-23T08:39:55Z</time>
      </trkpt>
      <trkpt lat="47.70947" lon="3.66283">
        <ele>196.2</ele>
        <time>2022-02-23T08:39:56Z</time>
      </trkpt>
      <trkpt lat="47.70946" lon="3.66283">
        <ele>196.2</ele>
        <time>2022-02-23T08:39:57Z</time>
      </trkpt>
      <trkpt lat="47.70944" lon="3.66282">
        <ele>196.4</ele>
        <time>2022-02-23T08:39:58Z</time>
      </trkpt>
      <trkpt lat="47.70944" lon="3.66283">
        <ele>196.4</ele>
        <time>2022-02-23T08:39:59Z</time>
      </trkpt>
      <trkpt lat="47.70943" lon="3.66283">
        <ele>196.4</ele>
        <time>2022-02-23T08:40:00Z</time>
      </trkpt>
      <trkpt lat="47.70942" lon="3.66283">
        <ele>196.5</ele>
        <time>2022-02-23T08:40:01Z</time>
      </trkpt>
      <trkpt lat="47.7094" lon="3.66282">
        <ele>196.7</ele>
        <time>2022-02-23T08:40:03Z</time>
      </trkpt>
      <trkpt lat="47.70939" lon="3.66282">
        <ele>196.8</ele>
        <time>2022-02-23T08:40:04Z</time>
      </trkpt>
      <trkpt lat="47.70938" lon="3.66282">
        <ele>196.8</ele>
        <time>2022-02-23T08:40:05Z</time>
      </trkpt>
      <trkpt lat="47.70937" lon="3.66282">
        <ele>196.9</ele>
        <time>2022-02-23T08:40:06Z</time>
      </trkpt>
      <trkpt lat="47.70934" lon="3.66282">
        <ele>197.1</ele>
        <time>2022-02-23T08:40:08Z</time>
      </trkpt>
      <trkpt lat="47.70933" lon="3.66282">
        <ele>197.2</ele>
        <time>2022-02-23T08:40:09Z</time>
      </trkpt>
      <trkpt lat="47.70931" lon="3.66283">
        <ele>197.3</ele>
        <time>2022-02-23T08:40:10Z</time>
      </trkpt>
      <trkpt lat="47.7093" lon="3.66283">
        <ele>197.4</ele>
        <time>2022-02-23T08:40:12Z</time>
      </trkpt>
      <trkpt lat="47.70928" lon="3.66283">
        <ele>197.5</ele>
        <time>2022-02-23T08:40:13Z</time>
      </trkpt>
      <trkpt lat="47.70927" lon="3.66283">
        <ele>197.5</ele>
        <time>2022-02-23T08:40:14Z</time>
      </trkpt>
      <trkpt lat="47.70925" lon="3.66282">
        <ele>197.7</ele>
        <time>2022-02-23T08:40:15Z</time>
      </trkpt>
      <trkpt lat="47.70924" lon="3.66282">
        <ele>197.7</ele>
        <time>2022-02-23T08:40:16Z</time>
      </trkpt>
      <trkpt lat="47.70923" lon="3.66282">
        <ele>197.8</ele>
        <time>2022-02-23T08:40:17Z</time>
      </trkpt>
      <trkpt lat="47.70922" lon="3.6628">
        <ele>197.9</ele>
        <time>2022-02-23T08:40:19Z</time>
      </trkpt>
      <trkpt lat="47.70921" lon="3.6628">
        <ele>198</ele>
        <time>2022-02-23T08:40:20Z</time>
      </trkpt>
      <trkpt lat="47.70918" lon="3.66279">
        <ele>198.1</ele>
        <time>2022-02-23T08:40:21Z</time>
      </trkpt>
      <trkpt lat="47.70917" lon="3.66279">
        <ele>198.2</ele>
        <time>2022-02-23T08:40:22Z</time>
      </trkpt>
      <trkpt lat="47.70916" lon="3.66278">
        <ele>198.2</ele>
        <time>2022-02-23T08:40:23Z</time>
      </trkpt>
      <trkpt lat="47.70915" lon="3.66278">
        <ele>198.3</ele>
        <time>2022-02-23T08:40:25Z</time>
      </trkpt>
      <trkpt lat="47.70914" lon="3.66277">
        <ele>198.4</ele>
        <time>2022-02-23T08:40:26Z</time>
      </trkpt>
      <trkpt lat="47.70912" lon="3.66277">
        <ele>198.4</ele>
        <time>2022-02-23T08:40:27Z</time>
      </trkpt>
      <trkpt lat="47.7091" lon="3.66276">
        <ele>198.5</ele>
        <time>2022-02-23T08:40:28Z</time>
      </trkpt>
      <trkpt lat="47.70909" lon="3.66276">
        <ele>198.6</ele>
        <time>2022-02-23T08:40:29Z</time>
      </trkpt>
      <trkpt lat="47.70908" lon="3.66276">
        <ele>198.7</ele>
        <time>2022-02-23T08:40:30Z</time>
      </trkpt>
      <trkpt lat="47.70907" lon="3.66276">
        <ele>198.7</ele>
        <time>2022-02-23T08:40:32Z</time>
      </trkpt>
      <trkpt lat="47.70905" lon="3.66276">
        <ele>198.8</ele>
        <time>2022-02-23T08:40:33Z</time>
      </trkpt>
      <trkpt lat="47.70904" lon="3.66276">
        <ele>198.9</ele>
        <time>2022-02-23T08:40:34Z</time>
      </trkpt>
      <trkpt lat="47.70903" lon="3.66276">
        <ele>198.9</ele>
        <time>2022-02-23T08:40:35Z</time>
      </trkpt>
      <trkpt lat="47.70901" lon="3.66276">
        <ele>199</ele>
        <time>2022-02-23T08:40:36Z</time>
      </trkpt>
      <trkpt lat="47.709" lon="3.66275">
        <ele>199.1</ele>
        <time>2022-02-23T08:40:37Z</time>
      </trkpt>
      <trkpt lat="47.70898" lon="3.66275">
        <ele>199.1</ele>
        <time>2022-02-23T08:40:38Z</time>
      </trkpt>
      <trkpt lat="47.70896" lon="3.66274">
        <ele>199.2</ele>
        <time>2022-02-23T08:40:39Z</time>
      </trkpt>
      <trkpt lat="47.70895" lon="3.66274">
        <ele>199.3</ele>
        <time>2022-02-23T08:40:40Z</time>
      </trkpt>
      <trkpt lat="47.70894" lon="3.66274">
        <ele>199.3</ele>
        <time>2022-02-23T08:40:41Z</time>
      </trkpt>
      <trkpt lat="47.70891" lon="3.66273">
        <ele>199.4</ele>
        <time>2022-02-23T08:40:42Z</time>
      </trkpt>
      <trkpt lat="47.7089" lon="3.66273">
        <ele>199.5</ele>
        <time>2022-02-23T08:40:43Z</time>
      </trkpt>
      <trkpt lat="47.70888" lon="3.66273">
        <ele>199.6</ele>
        <time>2022-02-23T08:40:45Z</time>
      </trkpt>
      <trkpt lat="47.70887" lon="3.66272">
        <ele>199.6</ele>
        <time>2022-02-23T08:40:46Z</time>
      </trkpt>
      <trkpt lat="47.70887" lon="3.66272">
        <ele>199.6</ele>
        <time>2022-02-23T08:40:47Z</time>
      </trkpt>
      <trkpt lat="47.70883" lon="3.66272">
        <ele>199.7</ele>
        <time>2022-02-23T08:40:48Z</time>
      </trkpt>
      <trkpt lat="47.70883" lon="3.66272">
        <ele>199.8</ele>
        <time>2022-02-23T08:40:49Z</time>
      </trkpt>
      <trkpt lat="47.70881" lon="3.66272">
        <ele>199.8</ele>
        <time>2022-02-23T08:40:50Z</time>
      </trkpt>
      <trkpt lat="47.7088" lon="3.66272">
        <ele>199.9</ele>
        <time>2022-02-23T08:40:51Z</time>
      </trkpt>
      <trkpt lat="47.70879" lon="3.66271">
        <ele>199.9</ele>
        <time>2022-02-23T08:40:53Z</time>
      </trkpt>
      <trkpt lat="47.70877" lon="3.66271">
        <ele>200</ele>
        <time>2022-02-23T08:40:54Z</time>
      </trkpt>
      <trkpt lat="47.70875" lon="3.6627">
        <ele>200</ele>
        <time>2022-02-23T08:40:55Z</time>
      </trkpt>
      <trkpt lat="47.70874" lon="3.66269">
        <ele>200</ele>
        <time>2022-02-23T08:40:56Z</time>
      </trkpt>
      <trkpt lat="47.70873" lon="3.66269">
        <ele>200</ele>
        <time>2022-02-23T08:40:57Z</time>
      </trkpt>
      <trkpt lat="47.70872" lon="3.66268">
        <ele>200</ele>
        <time>2022-02-23T08:40:58Z</time>
      </trkpt>
      <trkpt lat="47.70872" lon="3.66266">
        <ele>200</ele>
        <time>2022-02-23T08:40:59Z</time>
      </trkpt>
      <trkpt lat="47.70871" lon="3.66265">
        <ele>200</ele>
        <time>2022-02-23T08:41:01Z</time>
      </trkpt>
      <trkpt lat="47.7087" lon="3.66264">
        <ele>200</ele>
        <time>2022-02-23T08:41:02Z</time>
      </trkpt>
      <trkpt lat="47.7087" lon="3.66263">
        <ele>200.1</ele>
        <time>2022-02-23T08:41:03Z</time>
      </trkpt>
      <trkpt lat="47.70868" lon="3.66262">
        <ele>200.1</ele>
        <time>2022-02-23T08:41:04Z</time>
      </trkpt>
      <trkpt lat="47.70867" lon="3.66261">
        <ele>200.1</ele>
        <time>2022-02-23T08:41:06Z</time>
      </trkpt>
      <trkpt lat="47.70866" lon="3.66261">
        <ele>200.1</ele>
        <time>2022-02-23T08:41:07Z</time>
      </trkpt>
      <trkpt lat="47.70865" lon="3.6626">
        <ele>200.1</ele>
        <time>2022-02-23T08:41:08Z</time>
      </trkpt>
      <trkpt lat="47.70863" lon="3.66259">
        <ele>200.1</ele>
        <time>2022-02-23T08:41:09Z</time>
      </trkpt>
      <trkpt lat="47.70862" lon="3.66259">
        <ele>200.1</ele>
        <time>2022-02-23T08:41:10Z</time>
      </trkpt>
      <trkpt lat="47.70862" lon="3.66258">
        <ele>200.1</ele>
        <time>2022-02-23T08:41:11Z</time>
      </trkpt>
      <trkpt lat="47.7086" lon="3.66258">
        <ele>200.1</ele>
        <time>2022-02-23T08:41:13Z</time>
      </trkpt>
      <trkpt lat="47.70859" lon="3.66257">
        <ele>200.1</ele>
        <time>2022-02-23T08:41:14Z</time>
      </trkpt>
      <trkpt lat="47.70857" lon="3.66256">
        <ele>200.2</ele>
        <time>2022-02-23T08:41:16Z</time>
      </trkpt>
      <trkpt lat="47.70856" lon="3.66256">
        <ele>200.2</ele>
        <time>2022-02-23T08:41:17Z</time>
      </trkpt>
      <trkpt lat="47.70854" lon="3.66256">
        <ele>200.2</ele>
        <time>2022-02-23T08:41:18Z</time>
      </trkpt>
      <trkpt lat="47.70854" lon="3.66256">
        <ele>200.2</ele>
        <time>2022-02-23T08:41:19Z</time>
      </trkpt>
      <trkpt lat="47.70852" lon="3.66255">
        <ele>200.2</ele>
        <time>2022-02-23T08:41:20Z</time>
      </trkpt>
      <trkpt lat="47.70851" lon="3.66255">
        <ele>200.2</ele>
        <time>2022-02-23T08:41:21Z</time>
      </trkpt>
      <trkpt lat="47.7085" lon="3.66255">
        <ele>200.2</ele>
        <time>2022-02-23T08:41:23Z</time>
      </trkpt>
      <trkpt lat="47.70849" lon="3.66254">
        <ele>200.2</ele>
        <time>2022-02-23T08:41:24Z</time>
      </trkpt>
      <trkpt lat="47.70847" lon="3.66254">
        <ele>200.2</ele>
        <time>2022-02-23T08:41:25Z</time>
      </trkpt>
      <trkpt lat="47.70846" lon="3.66253">
        <ele>200.2</ele>
        <time>2022-02-23T08:41:26Z</time>
      </trkpt>
      <trkpt lat="47.70845" lon="3.66253">
        <ele>200.2</ele>
        <time>2022-02-23T08:41:27Z</time>
      </trkpt>
      <trkpt lat="47.70844" lon="3.66252">
        <ele>200.2</ele>
        <time>2022-02-23T08:41:28Z</time>
      </trkpt>
      <trkpt lat="47.70843" lon="3.66252">
        <ele>200.3</ele>
        <time>2022-02-23T08:41:30Z</time>
      </trkpt>
      <trkpt lat="47.70841" lon="3.66251">
        <ele>200.3</ele>
        <time>2022-02-23T08:41:31Z</time>
      </trkpt>
      <trkpt lat="47.70841" lon="3.66251">
        <ele>200.3</ele>
        <time>2022-02-23T08:41:32Z</time>
      </trkpt>
      <trkpt lat="47.7084" lon="3.66251">
        <ele>200.3</ele>
        <time>2022-02-23T08:41:33Z</time>
      </trkpt>
      <trkpt lat="47.70838" lon="3.6625">
        <ele>200.3</ele>
        <time>2022-02-23T08:41:34Z</time>
      </trkpt>
      <trkpt lat="47.70837" lon="3.6625">
        <ele>200.3</ele>
        <time>2022-02-23T08:41:35Z</time>
      </trkpt>
      <trkpt lat="47.70836" lon="3.66249">
        <ele>200.3</ele>
        <time>2022-02-23T08:41:36Z</time>
      </trkpt>
      <trkpt lat="47.70835" lon="3.66248">
        <ele>200.3</ele>
        <time>2022-02-23T08:41:37Z</time>
      </trkpt>
      <trkpt lat="47.70834" lon="3.66247">
        <ele>200.3</ele>
        <time>2022-02-23T08:41:38Z</time>
      </trkpt>
      <trkpt lat="47.70833" lon="3.66246">
        <ele>200.3</ele>
        <time>2022-02-23T08:41:39Z</time>
      </trkpt>
      <trkpt lat="47.70831" lon="3.66244">
        <ele>200.3</ele>
        <time>2022-02-23T08:41:41Z</time>
      </trkpt>
      <trkpt lat="47.7083" lon="3.66244">
        <ele>200.3</ele>
        <time>2022-02-23T08:41:42Z</time>
      </trkpt>
      <trkpt lat="47.70829" lon="3.66243">
        <ele>200.3</ele>
        <time>2022-02-23T08:41:43Z</time>
      </trkpt>
      <trkpt lat="47.70828" lon="3.66243">
        <ele>200.3</ele>
        <time>2022-02-23T08:41:44Z</time>
      </trkpt>
      <trkpt lat="47.70828" lon="3.66243">
        <ele>200.3</ele>
        <time>2022-02-23T08:41:45Z</time>
      </trkpt>
      <trkpt lat="47.70826" lon="3.66242">
        <ele>200.3</ele>
        <time>2022-02-23T08:41:47Z</time>
      </trkpt>
      <trkpt lat="47.70825" lon="3.66242">
        <ele>200.3</ele>
        <time>2022-02-23T08:41:48Z</time>
      </trkpt>
      <trkpt lat="47.70824" lon="3.66241">
        <ele>200.3</ele>
        <time>2022-02-23T08:41:49Z</time>
      </trkpt>
      <trkpt lat="47.70822" lon="3.66241">
        <ele>200.2</ele>
        <time>2022-02-23T08:41:50Z</time>
      </trkpt>
      <trkpt lat="47.70821" lon="3.66241">
        <ele>200.2</ele>
        <time>2022-02-23T08:41:52Z</time>
      </trkpt>
      <trkpt lat="47.7082" lon="3.66242">
        <ele>200.2</ele>
        <time>2022-02-23T08:41:53Z</time>
      </trkpt>
      <trkpt lat="47.70819" lon="3.66242">
        <ele>200.2</ele>
        <time>2022-02-23T08:41:54Z</time>
      </trkpt>
      <trkpt lat="47.70818" lon="3.66242">
        <ele>200.2</ele>
        <time>2022-02-23T08:41:55Z</time>
      </trkpt>
      <trkpt lat="47.70816" lon="3.66242">
        <ele>200.2</ele>
        <time>2022-02-23T08:41:56Z</time>
      </trkpt>
      <trkpt lat="47.70816" lon="3.66241">
        <ele>200.2</ele>
        <time>2022-02-23T08:41:57Z</time>
      </trkpt>
      <trkpt lat="47.70815" lon="3.66241">
        <ele>200.2</ele>
        <time>2022-02-23T08:41:58Z</time>
      </trkpt>
      <trkpt lat="47.70813" lon="3.66241">
        <ele>200.2</ele>
        <time>2022-02-23T08:41:59Z</time>
      </trkpt>
      <trkpt lat="47.70813" lon="3.66241">
        <ele>200.2</ele>
        <time>2022-02-23T08:42:00Z</time>
      </trkpt>
      <trkpt lat="47.70811" lon="3.6624">
        <ele>200.1</ele>
        <time>2022-02-23T08:42:01Z</time>
      </trkpt>
      <trkpt lat="47.70809" lon="3.66239">
        <ele>200.1</ele>
        <time>2022-02-23T08:42:03Z</time>
      </trkpt>
      <trkpt lat="47.70808" lon="3.66239">
        <ele>200.1</ele>
        <time>2022-02-23T08:42:04Z</time>
      </trkpt>
      <trkpt lat="47.70807" lon="3.66238">
        <ele>200.1</ele>
        <time>2022-02-23T08:42:05Z</time>
      </trkpt>
      <trkpt lat="47.70805" lon="3.66238">
        <ele>200.1</ele>
        <time>2022-02-23T08:42:06Z</time>
      </trkpt>
      <trkpt lat="47.70804" lon="3.66237">
        <ele>200.1</ele>
        <time>2022-02-23T08:42:07Z</time>
      </trkpt>
      <trkpt lat="47.70802" lon="3.66236">
        <ele>200</ele>
        <time>2022-02-23T08:42:09Z</time>
      </trkpt>
      <trkpt lat="47.70801" lon="3.66235">
        <ele>200</ele>
        <time>2022-02-23T08:42:10Z</time>
      </trkpt>
      <trkpt lat="47.70799" lon="3.66235">
        <ele>200</ele>
        <time>2022-02-23T08:42:11Z</time>
      </trkpt>
      <trkpt lat="47.70799" lon="3.66235">
        <ele>200</ele>
        <time>2022-02-23T08:42:12Z</time>
      </trkpt>
      <trkpt lat="47.70798" lon="3.66235">
        <ele>200</ele>
        <time>2022-02-23T08:42:13Z</time>
      </trkpt>
      <trkpt lat="47.70797" lon="3.66234">
        <ele>200</ele>
        <time>2022-02-23T08:42:14Z</time>
      </trkpt>
      <trkpt lat="47.70795" lon="3.66233">
        <ele>199.9</ele>
        <time>2022-02-23T08:42:16Z</time>
      </trkpt>
      <trkpt lat="47.70794" lon="3.66233">
        <ele>199.9</ele>
        <time>2022-02-23T08:42:17Z</time>
      </trkpt>
      <trkpt lat="47.70792" lon="3.66232">
        <ele>199.9</ele>
        <time>2022-02-23T08:42:18Z</time>
      </trkpt>
      <trkpt lat="47.70791" lon="3.66232">
        <ele>199.9</ele>
        <time>2022-02-23T08:42:19Z</time>
      </trkpt>
      <trkpt lat="47.7079" lon="3.66231">
        <ele>199.9</ele>
        <time>2022-02-23T08:42:21Z</time>
      </trkpt>
      <trkpt lat="47.70789" lon="3.6623">
        <ele>199.8</ele>
        <time>2022-02-23T08:42:22Z</time>
      </trkpt>
      <trkpt lat="47.70787" lon="3.66229">
        <ele>199.8</ele>
        <time>2022-02-23T08:42:23Z</time>
      </trkpt>
      <trkpt lat="47.70786" lon="3.66229">
        <ele>199.8</ele>
        <time>2022-02-23T08:42:24Z</time>
      </trkpt>
      <trkpt lat="47.70785" lon="3.66229">
        <ele>199.8</ele>
        <time>2022-02-23T08:42:25Z</time>
      </trkpt>
      <trkpt lat="47.70784" lon="3.66228">
        <ele>199.8</ele>
        <time>2022-02-23T08:42:26Z</time>
      </trkpt>
      <trkpt lat="47.70782" lon="3.66228">
        <ele>199.8</ele>
        <time>2022-02-23T08:42:27Z</time>
      </trkpt>
      <trkpt lat="47.70781" lon="3.66228">
        <ele>199.7</ele>
        <time>2022-02-23T08:42:28Z</time>
      </trkpt>
      <trkpt lat="47.70779" lon="3.66227">
        <ele>199.7</ele>
        <time>2022-02-23T08:42:30Z</time>
      </trkpt>
      <trkpt lat="47.70777" lon="3.66226">
        <ele>199.7</ele>
        <time>2022-02-23T08:42:31Z</time>
      </trkpt>
      <trkpt lat="47.70776" lon="3.66226">
        <ele>199.7</ele>
        <time>2022-02-23T08:42:33Z</time>
      </trkpt>
      <trkpt lat="47.70775" lon="3.66226">
        <ele>199.7</ele>
        <time>2022-02-23T08:42:34Z</time>
      </trkpt>
      <trkpt lat="47.70774" lon="3.66225">
        <ele>199.7</ele>
        <time>2022-02-23T08:42:35Z</time>
      </trkpt>
      <trkpt lat="47.70771" lon="3.66225">
        <ele>199.7</ele>
        <time>2022-02-23T08:42:37Z</time>
      </trkpt>
      <trkpt lat="47.7077" lon="3.66226">
        <ele>199.7</ele>
        <time>2022-02-23T08:42:38Z</time>
      </trkpt>
      <trkpt lat="47.70769" lon="3.66226">
        <ele>199.7</ele>
        <time>2022-02-23T08:42:39Z</time>
      </trkpt>
      <trkpt lat="47.70767" lon="3.66226">
        <ele>199.7</ele>
        <time>2022-02-23T08:42:40Z</time>
      </trkpt>
      <trkpt lat="47.70765" lon="3.66227">
        <ele>199.7</ele>
        <time>2022-02-23T08:42:42Z</time>
      </trkpt>
      <trkpt lat="47.70764" lon="3.66228">
        <ele>199.8</ele>
        <time>2022-02-23T08:42:44Z</time>
      </trkpt>
      <trkpt lat="47.70763" lon="3.6623">
        <ele>199.8</ele>
        <time>2022-02-23T08:42:45Z</time>
      </trkpt>
      <trkpt lat="47.70762" lon="3.66232">
        <ele>199.8</ele>
        <time>2022-02-23T08:42:46Z</time>
      </trkpt>
      <trkpt lat="47.70761" lon="3.66234">
        <ele>199.9</ele>
        <time>2022-02-23T08:42:47Z</time>
      </trkpt>
      <trkpt lat="47.70761" lon="3.66235">
        <ele>199.9</ele>
        <time>2022-02-23T08:42:48Z</time>
      </trkpt>
      <trkpt lat="47.70761" lon="3.66237">
        <ele>199.9</ele>
        <time>2022-02-23T08:42:49Z</time>
      </trkpt>
      <trkpt lat="47.7076" lon="3.66238">
        <ele>199.9</ele>
        <time>2022-02-23T08:42:50Z</time>
      </trkpt>
      <trkpt lat="47.7076" lon="3.66243">
        <ele>200.1</ele>
        <time>2022-02-23T08:42:51Z</time>
      </trkpt>
      <trkpt lat="47.7076" lon="3.66244">
        <ele>200.1</ele>
        <time>2022-02-23T08:42:53Z</time>
      </trkpt>
      <trkpt lat="47.7076" lon="3.66246">
        <ele>200.1</ele>
        <time>2022-02-23T08:42:54Z</time>
      </trkpt>
      <trkpt lat="47.7076" lon="3.66248">
        <ele>200.2</ele>
        <time>2022-02-23T08:42:55Z</time>
      </trkpt>
      <trkpt lat="47.70759" lon="3.66249">
        <ele>200.2</ele>
        <time>2022-02-23T08:42:56Z</time>
      </trkpt>
      <trkpt lat="47.70759" lon="3.6625">
        <ele>200.3</ele>
        <time>2022-02-23T08:42:58Z</time>
      </trkpt>
      <trkpt lat="47.70759" lon="3.66252">
        <ele>200.3</ele>
        <time>2022-02-23T08:42:59Z</time>
      </trkpt>
      <trkpt lat="47.70759" lon="3.66254">
        <ele>200.4</ele>
        <time>2022-02-23T08:43:00Z</time>
      </trkpt>
      <trkpt lat="47.70759" lon="3.66256">
        <ele>200.5</ele>
        <time>2022-02-23T08:43:02Z</time>
      </trkpt>
      <trkpt lat="47.70759" lon="3.66257">
        <ele>200.5</ele>
        <time>2022-02-23T08:43:03Z</time>
      </trkpt>
      <trkpt lat="47.70758" lon="3.66258">
        <ele>200.6</ele>
        <time>2022-02-23T08:43:04Z</time>
      </trkpt>
      <trkpt lat="47.70758" lon="3.6626">
        <ele>200.6</ele>
        <time>2022-02-23T08:43:05Z</time>
      </trkpt>
      <trkpt lat="47.70758" lon="3.66261">
        <ele>200.7</ele>
        <time>2022-02-23T08:43:06Z</time>
      </trkpt>
      <trkpt lat="47.70758" lon="3.66263">
        <ele>200.7</ele>
        <time>2022-02-23T08:43:07Z</time>
      </trkpt>
      <trkpt lat="47.70758" lon="3.66264">
        <ele>200.8</ele>
        <time>2022-02-23T08:43:08Z</time>
      </trkpt>
      <trkpt lat="47.70758" lon="3.66265">
        <ele>200.9</ele>
        <time>2022-02-23T08:43:09Z</time>
      </trkpt>
      <trkpt lat="47.70757" lon="3.66267">
        <ele>200.9</ele>
        <time>2022-02-23T08:43:10Z</time>
      </trkpt>
      <trkpt lat="47.70757" lon="3.66268">
        <ele>201</ele>
        <time>2022-02-23T08:43:11Z</time>
      </trkpt>
      <trkpt lat="47.70757" lon="3.6627">
        <ele>201.1</ele>
        <time>2022-02-23T08:43:12Z</time>
      </trkpt>
      <trkpt lat="47.70757" lon="3.66271">
        <ele>201.1</ele>
        <time>2022-02-23T08:43:13Z</time>
      </trkpt>
      <trkpt lat="47.70757" lon="3.66273">
        <ele>201.2</ele>
        <time>2022-02-23T08:43:15Z</time>
      </trkpt>
      <trkpt lat="47.70756" lon="3.66274">
        <ele>201.3</ele>
        <time>2022-02-23T08:43:16Z</time>
      </trkpt>
      <trkpt lat="47.70756" lon="3.66276">
        <ele>201.4</ele>
        <time>2022-02-23T08:43:17Z</time>
      </trkpt>
      <trkpt lat="47.70756" lon="3.66278">
        <ele>201.4</ele>
        <time>2022-02-23T08:43:18Z</time>
      </trkpt>
      <trkpt lat="47.70755" lon="3.6628">
        <ele>201.6</ele>
        <time>2022-02-23T08:43:19Z</time>
      </trkpt>
      <trkpt lat="47.70755" lon="3.6628">
        <ele>201.6</ele>
        <time>2022-02-23T08:43:20Z</time>
      </trkpt>
      <trkpt lat="47.70754" lon="3.66284">
        <ele>201.8</ele>
        <time>2022-02-23T08:43:22Z</time>
      </trkpt>
      <trkpt lat="47.70754" lon="3.66285">
        <ele>201.9</ele>
        <time>2022-02-23T08:43:23Z</time>
      </trkpt>
      <trkpt lat="47.70754" lon="3.66287">
        <ele>202</ele>
        <time>2022-02-23T08:43:24Z</time>
      </trkpt>
      <trkpt lat="47.70753" lon="3.66288">
        <ele>202</ele>
        <time>2022-02-23T08:43:25Z</time>
      </trkpt>
      <trkpt lat="47.70753" lon="3.66289">
        <ele>202.1</ele>
        <time>2022-02-23T08:43:26Z</time>
      </trkpt>
      <trkpt lat="47.70753" lon="3.66291">
        <ele>202.2</ele>
        <time>2022-02-23T08:43:27Z</time>
      </trkpt>
      <trkpt lat="47.70753" lon="3.66291">
        <ele>202.2</ele>
        <time>2022-02-23T08:43:28Z</time>
      </trkpt>
      <trkpt lat="47.70752" lon="3.66292">
        <ele>202.3</ele>
        <time>2022-02-23T08:43:29Z</time>
      </trkpt>
      <trkpt lat="47.70751" lon="3.66293">
        <ele>202.4</ele>
        <time>2022-02-23T08:43:30Z</time>
      </trkpt>
      <trkpt lat="47.7075" lon="3.66294">
        <ele>202.4</ele>
        <time>2022-02-23T08:43:31Z</time>
      </trkpt>
      <trkpt lat="47.70749" lon="3.66296">
        <ele>202.6</ele>
        <time>2022-02-23T08:43:32Z</time>
      </trkpt>
      <trkpt lat="47.70748" lon="3.66297">
        <ele>202.7</ele>
        <time>2022-02-23T08:43:33Z</time>
      </trkpt>
      <trkpt lat="47.70747" lon="3.66298">
        <ele>202.8</ele>
        <time>2022-02-23T08:43:35Z</time>
      </trkpt>
      <trkpt lat="47.70746" lon="3.66298">
        <ele>202.8</ele>
        <time>2022-02-23T08:43:36Z</time>
      </trkpt>
      <trkpt lat="47.70745" lon="3.66299">
        <ele>202.9</ele>
        <time>2022-02-23T08:43:37Z</time>
      </trkpt>
      <trkpt lat="47.70745" lon="3.663">
        <ele>203</ele>
        <time>2022-02-23T08:43:38Z</time>
      </trkpt>
      <trkpt lat="47.70744" lon="3.66301">
        <ele>203.1</ele>
        <time>2022-02-23T08:43:40Z</time>
      </trkpt>
      <trkpt lat="47.70743" lon="3.66302">
        <ele>203.1</ele>
        <time>2022-02-23T08:43:41Z</time>
      </trkpt>
      <trkpt lat="47.70742" lon="3.66303">
        <ele>203.2</ele>
        <time>2022-02-23T08:43:42Z</time>
      </trkpt>
      <trkpt lat="47.70741" lon="3.66304">
        <ele>203.3</ele>
        <time>2022-02-23T08:43:43Z</time>
      </trkpt>
      <trkpt lat="47.7074" lon="3.66305">
        <ele>203.3</ele>
        <time>2022-02-23T08:43:44Z</time>
      </trkpt>
      <trkpt lat="47.70739" lon="3.66306">
        <ele>203.4</ele>
        <time>2022-02-23T08:43:45Z</time>
      </trkpt>
      <trkpt lat="47.70738" lon="3.66307">
        <ele>203.5</ele>
        <time>2022-02-23T08:43:47Z</time>
      </trkpt>
      <trkpt lat="47.70737" lon="3.66309">
        <ele>203.6</ele>
        <time>2022-02-23T08:43:48Z</time>
      </trkpt>
      <trkpt lat="47.70735" lon="3.66311">
        <ele>203.7</ele>
        <time>2022-02-23T08:43:50Z</time>
      </trkpt>
      <trkpt lat="47.70735" lon="3.66311">
        <ele>203.8</ele>
        <time>2022-02-23T08:43:51Z</time>
      </trkpt>
      <trkpt lat="47.70734" lon="3.66312">
        <ele>203.8</ele>
        <time>2022-02-23T08:43:52Z</time>
      </trkpt>
      <trkpt lat="47.70733" lon="3.66314">
        <ele>203.9</ele>
        <time>2022-02-23T08:43:53Z</time>
      </trkpt>
      <trkpt lat="47.70732" lon="3.66315">
        <ele>203.9</ele>
        <time>2022-02-23T08:43:54Z</time>
      </trkpt>
      <trkpt lat="47.70732" lon="3.66316">
        <ele>204</ele>
        <time>2022-02-23T08:43:55Z</time>
      </trkpt>
      <trkpt lat="47.70729" lon="3.66319">
        <ele>204.1</ele>
        <time>2022-02-23T08:43:57Z</time>
      </trkpt>
      <trkpt lat="47.70728" lon="3.6632">
        <ele>204.2</ele>
        <time>2022-02-23T08:43:58Z</time>
      </trkpt>
      <trkpt lat="47.70728" lon="3.6632">
        <ele>204.2</ele>
        <time>2022-02-23T08:43:59Z</time>
      </trkpt>
      <trkpt lat="47.70727" lon="3.66322">
        <ele>204.3</ele>
        <time>2022-02-23T08:44:00Z</time>
      </trkpt>
      <trkpt lat="47.70727" lon="3.66324">
        <ele>204.4</ele>
        <time>2022-02-23T08:44:02Z</time>
      </trkpt>
      <trkpt lat="47.70726" lon="3.66326">
        <ele>204.5</ele>
        <time>2022-02-23T08:44:04Z</time>
      </trkpt>
      <trkpt lat="47.70725" lon="3.66329">
        <ele>204.6</ele>
        <time>2022-02-23T08:44:05Z</time>
      </trkpt>
      <trkpt lat="47.70725" lon="3.66332">
        <ele>204.7</ele>
        <time>2022-02-23T08:44:06Z</time>
      </trkpt>
      <trkpt lat="47.70725" lon="3.66334">
        <ele>204.8</ele>
        <time>2022-02-23T08:44:07Z</time>
      </trkpt>
      <trkpt lat="47.70725" lon="3.66336">
        <ele>204.8</ele>
        <time>2022-02-23T08:44:08Z</time>
      </trkpt>
      <trkpt lat="47.70725" lon="3.66338">
        <ele>204.9</ele>
        <time>2022-02-23T08:44:10Z</time>
      </trkpt>
      <trkpt lat="47.70724" lon="3.6634">
        <ele>205</ele>
        <time>2022-02-23T08:44:11Z</time>
      </trkpt>
      <trkpt lat="47.70724" lon="3.66341">
        <ele>205</ele>
        <time>2022-02-23T08:44:12Z</time>
      </trkpt>
      <trkpt lat="47.70724" lon="3.66343">
        <ele>205.1</ele>
        <time>2022-02-23T08:44:14Z</time>
      </trkpt>
      <trkpt lat="47.70725" lon="3.66344">
        <ele>205.2</ele>
        <time>2022-02-23T08:44:15Z</time>
      </trkpt>
      <trkpt lat="47.70725" lon="3.66346">
        <ele>205.2</ele>
        <time>2022-02-23T08:44:16Z</time>
      </trkpt>
      <trkpt lat="47.70726" lon="3.66347">
        <ele>205.3</ele>
        <time>2022-02-23T08:44:18Z</time>
      </trkpt>
      <trkpt lat="47.70726" lon="3.66349">
        <ele>205.3</ele>
        <time>2022-02-23T08:44:19Z</time>
      </trkpt>
      <trkpt lat="47.70726" lon="3.6635">
        <ele>205.4</ele>
        <time>2022-02-23T08:44:20Z</time>
      </trkpt>
      <trkpt lat="47.70726" lon="3.66353">
        <ele>205.5</ele>
        <time>2022-02-23T08:44:21Z</time>
      </trkpt>
      <trkpt lat="47.70725" lon="3.66354">
        <ele>205.5</ele>
        <time>2022-02-23T08:44:22Z</time>
      </trkpt>
      <trkpt lat="47.70725" lon="3.66357">
        <ele>205.6</ele>
        <time>2022-02-23T08:44:24Z</time>
      </trkpt>
      <trkpt lat="47.70725" lon="3.66358">
        <ele>205.7</ele>
        <time>2022-02-23T08:44:25Z</time>
      </trkpt>
      <trkpt lat="47.70725" lon="3.66359">
        <ele>205.7</ele>
        <time>2022-02-23T08:44:26Z</time>
      </trkpt>
      <trkpt lat="47.70725" lon="3.66362">
        <ele>205.8</ele>
        <time>2022-02-23T08:44:27Z</time>
      </trkpt>
      <trkpt lat="47.70725" lon="3.66364">
        <ele>205.9</ele>
        <time>2022-02-23T08:44:28Z</time>
      </trkpt>
      <trkpt lat="47.70724" lon="3.66365">
        <ele>206</ele>
        <time>2022-02-23T08:44:29Z</time>
      </trkpt>
      <trkpt lat="47.70724" lon="3.66366">
        <ele>206</ele>
        <time>2022-02-23T08:44:30Z</time>
      </trkpt>
      <trkpt lat="47.70724" lon="3.66369">
        <ele>206.1</ele>
        <time>2022-02-23T08:44:31Z</time>
      </trkpt>
      <trkpt lat="47.70724" lon="3.66371">
        <ele>206.2</ele>
        <time>2022-02-23T08:44:33Z</time>
      </trkpt>
      <trkpt lat="47.70724" lon="3.66372">
        <ele>206.2</ele>
        <time>2022-02-23T08:44:34Z</time>
      </trkpt>
      <trkpt lat="47.70724" lon="3.66374">
        <ele>206.3</ele>
        <time>2022-02-23T08:44:35Z</time>
      </trkpt>
      <trkpt lat="47.70724" lon="3.66376">
        <ele>206.4</ele>
        <time>2022-02-23T08:44:36Z</time>
      </trkpt>
      <trkpt lat="47.70724" lon="3.66378">
        <ele>206.4</ele>
        <time>2022-02-23T08:44:38Z</time>
      </trkpt>
      <trkpt lat="47.70724" lon="3.6638">
        <ele>206.5</ele>
        <time>2022-02-23T08:44:39Z</time>
      </trkpt>
      <trkpt lat="47.70724" lon="3.66381">
        <ele>206.5</ele>
        <time>2022-02-23T08:44:40Z</time>
      </trkpt>
      <trkpt lat="47.70723" lon="3.66383">
        <ele>206.6</ele>
        <time>2022-02-23T08:44:41Z</time>
      </trkpt>
      <trkpt lat="47.70724" lon="3.66384">
        <ele>206.7</ele>
        <time>2022-02-23T08:44:42Z</time>
      </trkpt>
      <trkpt lat="47.70724" lon="3.66386">
        <ele>206.7</ele>
        <time>2022-02-23T08:44:43Z</time>
      </trkpt>
      <trkpt lat="47.70724" lon="3.66388">
        <ele>206.8</ele>
        <time>2022-02-23T08:44:45Z</time>
      </trkpt>
      <trkpt lat="47.70725" lon="3.66389">
        <ele>206.8</ele>
        <time>2022-02-23T08:44:46Z</time>
      </trkpt>
      <trkpt lat="47.70725" lon="3.6639">
        <ele>206.9</ele>
        <time>2022-02-23T08:44:47Z</time>
      </trkpt>
      <trkpt lat="47.70725" lon="3.66392">
        <ele>206.9</ele>
        <time>2022-02-23T08:44:48Z</time>
      </trkpt>
      <trkpt lat="47.70725" lon="3.66395">
        <ele>207</ele>
        <time>2022-02-23T08:44:49Z</time>
      </trkpt>
      <trkpt lat="47.70726" lon="3.66396">
        <ele>207</ele>
        <time>2022-02-23T08:44:50Z</time>
      </trkpt>
      <trkpt lat="47.70726" lon="3.66397">
        <ele>207.1</ele>
        <time>2022-02-23T08:44:51Z</time>
      </trkpt>
      <trkpt lat="47.70726" lon="3.66398">
        <ele>207.1</ele>
        <time>2022-02-23T08:44:52Z</time>
      </trkpt>
      <trkpt lat="47.70726" lon="3.664">
        <ele>207.2</ele>
        <time>2022-02-23T08:44:53Z</time>
      </trkpt>
      <trkpt lat="47.70727" lon="3.66403">
        <ele>207.3</ele>
        <time>2022-02-23T08:44:55Z</time>
      </trkpt>
      <trkpt lat="47.70727" lon="3.66404">
        <ele>207.3</ele>
        <time>2022-02-23T08:44:56Z</time>
      </trkpt>
      <trkpt lat="47.70727" lon="3.66406">
        <ele>207.3</ele>
        <time>2022-02-23T08:44:57Z</time>
      </trkpt>
      <trkpt lat="47.70728" lon="3.66407">
        <ele>207.4</ele>
        <time>2022-02-23T08:44:58Z</time>
      </trkpt>
      <trkpt lat="47.70728" lon="3.66409">
        <ele>207.4</ele>
        <time>2022-02-23T08:44:59Z</time>
      </trkpt>
      <trkpt lat="47.70728" lon="3.6641">
        <ele>207.5</ele>
        <time>2022-02-23T08:45:00Z</time>
      </trkpt>
      <trkpt lat="47.70729" lon="3.66412">
        <ele>207.5</ele>
        <time>2022-02-23T08:45:01Z</time>
      </trkpt>
      <trkpt lat="47.70729" lon="3.66415">
        <ele>207.6</ele>
        <time>2022-02-23T08:45:03Z</time>
      </trkpt>
      <trkpt lat="47.70729" lon="3.66417">
        <ele>207.7</ele>
        <time>2022-02-23T08:45:04Z</time>
      </trkpt>
      <trkpt lat="47.70729" lon="3.66419">
        <ele>207.7</ele>
        <time>2022-02-23T08:45:05Z</time>
      </trkpt>
      <trkpt lat="47.70729" lon="3.66421">
        <ele>207.8</ele>
        <time>2022-02-23T08:45:07Z</time>
      </trkpt>
      <trkpt lat="47.70729" lon="3.66425">
        <ele>207.9</ele>
        <time>2022-02-23T08:45:09Z</time>
      </trkpt>
      <trkpt lat="47.7073" lon="3.66426">
        <ele>207.9</ele>
        <time>2022-02-23T08:45:10Z</time>
      </trkpt>
      <trkpt lat="47.7073" lon="3.66428">
        <ele>208</ele>
        <time>2022-02-23T08:45:11Z</time>
      </trkpt>
      <trkpt lat="47.7073" lon="3.66429">
        <ele>208</ele>
        <time>2022-02-23T08:45:12Z</time>
      </trkpt>
      <trkpt lat="47.7073" lon="3.66431">
        <ele>208.1</ele>
        <time>2022-02-23T08:45:13Z</time>
      </trkpt>
      <trkpt lat="47.7073" lon="3.66433">
        <ele>208.1</ele>
        <time>2022-02-23T08:45:14Z</time>
      </trkpt>
      <trkpt lat="47.70731" lon="3.66435">
        <ele>208.2</ele>
        <time>2022-02-23T08:45:15Z</time>
      </trkpt>
      <trkpt lat="47.70731" lon="3.66436">
        <ele>208.2</ele>
        <time>2022-02-23T08:45:17Z</time>
      </trkpt>
      <trkpt lat="47.70731" lon="3.66438">
        <ele>208.3</ele>
        <time>2022-02-23T08:45:18Z</time>
      </trkpt>
      <trkpt lat="47.70731" lon="3.66441">
        <ele>208.3</ele>
        <time>2022-02-23T08:45:19Z</time>
      </trkpt>
      <trkpt lat="47.70731" lon="3.66442">
        <ele>208.4</ele>
        <time>2022-02-23T08:45:20Z</time>
      </trkpt>
      <trkpt lat="47.70731" lon="3.66444">
        <ele>208.4</ele>
        <time>2022-02-23T08:45:21Z</time>
      </trkpt>
      <trkpt lat="47.70731" lon="3.66444">
        <ele>208.4</ele>
        <time>2022-02-23T08:45:22Z</time>
      </trkpt>
      <trkpt lat="47.70731" lon="3.66447">
        <ele>208.5</ele>
        <time>2022-02-23T08:45:24Z</time>
      </trkpt>
      <trkpt lat="47.70731" lon="3.66448">
        <ele>208.5</ele>
        <time>2022-02-23T08:45:25Z</time>
      </trkpt>
      <trkpt lat="47.70731" lon="3.66449">
        <ele>208.5</ele>
        <time>2022-02-23T08:45:26Z</time>
      </trkpt>
      <trkpt lat="47.70731" lon="3.66449">
        <ele>208.5</ele>
        <time>2022-02-23T08:45:27Z</time>
      </trkpt>
      <trkpt lat="47.70731" lon="3.6645">
        <ele>208.5</ele>
        <time>2022-02-23T08:45:28Z</time>
      </trkpt>
      <trkpt lat="47.7073" lon="3.66452">
        <ele>208.6</ele>
        <time>2022-02-23T08:45:29Z</time>
      </trkpt>
      <trkpt lat="47.70731" lon="3.66453">
        <ele>208.6</ele>
        <time>2022-02-23T08:45:31Z</time>
      </trkpt>
      <trkpt lat="47.70731" lon="3.66454">
        <ele>208.6</ele>
        <time>2022-02-23T08:45:32Z</time>
      </trkpt>
      <trkpt lat="47.70731" lon="3.66456">
        <ele>208.7</ele>
        <time>2022-02-23T08:45:33Z</time>
      </trkpt>
      <trkpt lat="47.70731" lon="3.66458">
        <ele>208.7</ele>
        <time>2022-02-23T08:45:35Z</time>
      </trkpt>
      <trkpt lat="47.70731" lon="3.6646">
        <ele>208.7</ele>
        <time>2022-02-23T08:45:36Z</time>
      </trkpt>
      <trkpt lat="47.70731" lon="3.66461">
        <ele>208.7</ele>
        <time>2022-02-23T08:45:37Z</time>
      </trkpt>
      <trkpt lat="47.70731" lon="3.66464">
        <ele>208.8</ele>
        <time>2022-02-23T08:45:39Z</time>
      </trkpt>
      <trkpt lat="47.70732" lon="3.66467">
        <ele>208.8</ele>
        <time>2022-02-23T08:45:40Z</time>
      </trkpt>
      <trkpt lat="47.70732" lon="3.66469">
        <ele>208.9</ele>
        <time>2022-02-23T08:45:41Z</time>
      </trkpt>
      <trkpt lat="47.70732" lon="3.6647">
        <ele>208.9</ele>
        <time>2022-02-23T08:45:42Z</time>
      </trkpt>
      <trkpt lat="47.70733" lon="3.66473">
        <ele>208.9</ele>
        <time>2022-02-23T08:45:44Z</time>
      </trkpt>
      <trkpt lat="47.70733" lon="3.66475">
        <ele>209</ele>
        <time>2022-02-23T08:45:45Z</time>
      </trkpt>
      <trkpt lat="47.70733" lon="3.66476">
        <ele>209</ele>
        <time>2022-02-23T08:45:46Z</time>
      </trkpt>
      <trkpt lat="47.70733" lon="3.66478">
        <ele>209</ele>
        <time>2022-02-23T08:45:47Z</time>
      </trkpt>
      <trkpt lat="47.70734" lon="3.6648">
        <ele>209</ele>
        <time>2022-02-23T08:45:49Z</time>
      </trkpt>
      <trkpt lat="47.70734" lon="3.66483">
        <ele>209.1</ele>
        <time>2022-02-23T08:45:50Z</time>
      </trkpt>
      <trkpt lat="47.70734" lon="3.66484">
        <ele>209.1</ele>
        <time>2022-02-23T08:45:51Z</time>
      </trkpt>
      <trkpt lat="47.70734" lon="3.66485">
        <ele>209.1</ele>
        <time>2022-02-23T08:45:52Z</time>
      </trkpt>
      <trkpt lat="47.70733" lon="3.66486">
        <ele>209.1</ele>
        <time>2022-02-23T08:45:53Z</time>
      </trkpt>
      <trkpt lat="47.70733" lon="3.66488">
        <ele>209.2</ele>
        <time>2022-02-23T08:45:54Z</time>
      </trkpt>
      <trkpt lat="47.70733" lon="3.6649">
        <ele>209.2</ele>
        <time>2022-02-23T08:45:55Z</time>
      </trkpt>
      <trkpt lat="47.70733" lon="3.66492">
        <ele>209.2</ele>
        <time>2022-02-23T08:45:57Z</time>
      </trkpt>
      <trkpt lat="47.70733" lon="3.66493">
        <ele>209.2</ele>
        <time>2022-02-23T08:45:58Z</time>
      </trkpt>
      <trkpt lat="47.70733" lon="3.66497">
        <ele>209.3</ele>
        <time>2022-02-23T08:46:00Z</time>
      </trkpt>
      <trkpt lat="47.70732" lon="3.66499">
        <ele>209.3</ele>
        <time>2022-02-23T08:46:01Z</time>
      </trkpt>
      <trkpt lat="47.70732" lon="3.665">
        <ele>209.4</ele>
        <time>2022-02-23T08:46:02Z</time>
      </trkpt>
      <trkpt lat="47.70732" lon="3.66502">
        <ele>209.4</ele>
        <time>2022-02-23T08:46:03Z</time>
      </trkpt>
      <trkpt lat="47.70732" lon="3.66504">
        <ele>209.4</ele>
        <time>2022-02-23T08:46:04Z</time>
      </trkpt>
      <trkpt lat="47.70732" lon="3.66505">
        <ele>209.5</ele>
        <time>2022-02-23T08:46:05Z</time>
      </trkpt>
      <trkpt lat="47.70732" lon="3.66506">
        <ele>209.5</ele>
        <time>2022-02-23T08:46:06Z</time>
      </trkpt>
      <trkpt lat="47.70732" lon="3.66507">
        <ele>209.5</ele>
        <time>2022-02-23T08:46:07Z</time>
      </trkpt>
      <trkpt lat="47.70731" lon="3.66509">
        <ele>209.6</ele>
        <time>2022-02-23T08:46:08Z</time>
      </trkpt>
      <trkpt lat="47.70731" lon="3.66511">
        <ele>209.6</ele>
        <time>2022-02-23T08:46:10Z</time>
      </trkpt>
      <trkpt lat="47.70731" lon="3.66512">
        <ele>209.6</ele>
        <time>2022-02-23T08:46:11Z</time>
      </trkpt>
      <trkpt lat="47.7073" lon="3.66515">
        <ele>209.7</ele>
        <time>2022-02-23T08:46:12Z</time>
      </trkpt>
      <trkpt lat="47.7073" lon="3.66516">
        <ele>209.8</ele>
        <time>2022-02-23T08:46:13Z</time>
      </trkpt>
      <trkpt lat="47.7073" lon="3.66518">
        <ele>209.8</ele>
        <time>2022-02-23T08:46:14Z</time>
      </trkpt>
      <trkpt lat="47.70729" lon="3.66519">
        <ele>209.8</ele>
        <time>2022-02-23T08:46:15Z</time>
      </trkpt>
      <trkpt lat="47.70729" lon="3.66522">
        <ele>209.9</ele>
        <time>2022-02-23T08:46:17Z</time>
      </trkpt>
      <trkpt lat="47.70729" lon="3.66523">
        <ele>210</ele>
        <time>2022-02-23T08:46:18Z</time>
      </trkpt>
      <trkpt lat="47.70729" lon="3.66525">
        <ele>210</ele>
        <time>2022-02-23T08:46:19Z</time>
      </trkpt>
      <trkpt lat="47.70729" lon="3.66527">
        <ele>210.1</ele>
        <time>2022-02-23T08:46:20Z</time>
      </trkpt>
      <trkpt lat="47.70728" lon="3.6653">
        <ele>210.2</ele>
        <time>2022-02-23T08:46:22Z</time>
      </trkpt>
      <trkpt lat="47.70727" lon="3.66532">
        <ele>210.3</ele>
        <time>2022-02-23T08:46:23Z</time>
      </trkpt>
      <trkpt lat="47.70727" lon="3.66535">
        <ele>210.4</ele>
        <time>2022-02-23T08:46:24Z</time>
      </trkpt>
      <trkpt lat="47.70726" lon="3.66536">
        <ele>210.5</ele>
        <time>2022-02-23T08:46:25Z</time>
      </trkpt>
      <trkpt lat="47.70726" lon="3.66537">
        <ele>210.5</ele>
        <time>2022-02-23T08:46:26Z</time>
      </trkpt>
      <trkpt lat="47.70725" lon="3.66539">
        <ele>210.6</ele>
        <time>2022-02-23T08:46:28Z</time>
      </trkpt>
      <trkpt lat="47.70725" lon="3.66541">
        <ele>210.7</ele>
        <time>2022-02-23T08:46:29Z</time>
      </trkpt>
      <trkpt lat="47.70724" lon="3.66542">
        <ele>210.8</ele>
        <time>2022-02-23T08:46:30Z</time>
      </trkpt>
      <trkpt lat="47.70723" lon="3.66545">
        <ele>210.9</ele>
        <time>2022-02-23T08:46:32Z</time>
      </trkpt>
      <trkpt lat="47.70723" lon="3.66546">
        <ele>211</ele>
        <time>2022-02-23T08:46:33Z</time>
      </trkpt>
      <trkpt lat="47.70723" lon="3.66548">
        <ele>211.1</ele>
        <time>2022-02-23T08:46:34Z</time>
      </trkpt>
      <trkpt lat="47.70723" lon="3.66549">
        <ele>211.2</ele>
        <time>2022-02-23T08:46:35Z</time>
      </trkpt>
      <trkpt lat="47.70722" lon="3.66551">
        <ele>211.2</ele>
        <time>2022-02-23T08:46:36Z</time>
      </trkpt>
      <trkpt lat="47.70722" lon="3.66552">
        <ele>211.3</ele>
        <time>2022-02-23T08:46:37Z</time>
      </trkpt>
      <trkpt lat="47.70721" lon="3.66553">
        <ele>211.4</ele>
        <time>2022-02-23T08:46:38Z</time>
      </trkpt>
      <trkpt lat="47.70721" lon="3.66554">
        <ele>211.4</ele>
        <time>2022-02-23T08:46:39Z</time>
      </trkpt>
      <trkpt lat="47.70721" lon="3.66556">
        <ele>211.5</ele>
        <time>2022-02-23T08:46:40Z</time>
      </trkpt>
      <trkpt lat="47.7072" lon="3.66557">
        <ele>211.6</ele>
        <time>2022-02-23T08:46:41Z</time>
      </trkpt>
      <trkpt lat="47.70719" lon="3.66559">
        <ele>211.7</ele>
        <time>2022-02-23T08:46:42Z</time>
      </trkpt>
      <trkpt lat="47.70719" lon="3.6656">
        <ele>211.7</ele>
        <time>2022-02-23T08:46:43Z</time>
      </trkpt>
      <trkpt lat="47.70718" lon="3.66561">
        <ele>211.8</ele>
        <time>2022-02-23T08:46:44Z</time>
      </trkpt>
      <trkpt lat="47.70718" lon="3.66562">
        <ele>211.9</ele>
        <time>2022-02-23T08:46:45Z</time>
      </trkpt>
      <trkpt lat="47.70718" lon="3.66563">
        <ele>211.9</ele>
        <time>2022-02-23T08:46:46Z</time>
      </trkpt>
      <trkpt lat="47.70718" lon="3.66564">
        <ele>212</ele>
        <time>2022-02-23T08:46:47Z</time>
      </trkpt>
      <trkpt lat="47.70718" lon="3.66566">
        <ele>212.1</ele>
        <time>2022-02-23T08:46:48Z</time>
      </trkpt>
      <trkpt lat="47.70718" lon="3.66566">
        <ele>212.1</ele>
        <time>2022-02-23T08:46:49Z</time>
      </trkpt>
      <trkpt lat="47.70718" lon="3.66568">
        <ele>212.2</ele>
        <time>2022-02-23T08:46:51Z</time>
      </trkpt>
      <trkpt lat="47.70717" lon="3.66569">
        <ele>212.2</ele>
        <time>2022-02-23T08:46:52Z</time>
      </trkpt>
      <trkpt lat="47.70717" lon="3.6657">
        <ele>212.3</ele>
        <time>2022-02-23T08:46:53Z</time>
      </trkpt>
      <trkpt lat="47.70716" lon="3.66571">
        <ele>212.4</ele>
        <time>2022-02-23T08:46:54Z</time>
      </trkpt>
      <trkpt lat="47.70716" lon="3.66572">
        <ele>212.4</ele>
        <time>2022-02-23T08:46:55Z</time>
      </trkpt>
      <trkpt lat="47.70716" lon="3.66573">
        <ele>212.5</ele>
        <time>2022-02-23T08:46:56Z</time>
      </trkpt>
      <trkpt lat="47.70715" lon="3.66576">
        <ele>212.7</ele>
        <time>2022-02-23T08:46:57Z</time>
      </trkpt>
      <trkpt lat="47.70715" lon="3.66577">
        <ele>212.7</ele>
        <time>2022-02-23T08:46:59Z</time>
      </trkpt>
      <trkpt lat="47.70714" lon="3.66579">
        <ele>212.8</ele>
        <time>2022-02-23T08:47:00Z</time>
      </trkpt>
      <trkpt lat="47.70714" lon="3.6658">
        <ele>212.9</ele>
        <time>2022-02-23T08:47:01Z</time>
      </trkpt>
      <trkpt lat="47.70714" lon="3.66582">
        <ele>213</ele>
        <time>2022-02-23T08:47:02Z</time>
      </trkpt>
      <trkpt lat="47.70714" lon="3.66584">
        <ele>213</ele>
        <time>2022-02-23T08:47:03Z</time>
      </trkpt>
      <trkpt lat="47.70714" lon="3.66586">
        <ele>213.2</ele>
        <time>2022-02-23T08:47:05Z</time>
      </trkpt>
      <trkpt lat="47.70714" lon="3.66588">
        <ele>213.3</ele>
        <time>2022-02-23T08:47:06Z</time>
      </trkpt>
      <trkpt lat="47.70714" lon="3.66589">
        <ele>213.3</ele>
        <time>2022-02-23T08:47:07Z</time>
      </trkpt>
      <trkpt lat="47.70714" lon="3.66591">
        <ele>213.4</ele>
        <time>2022-02-23T08:47:08Z</time>
      </trkpt>
      <trkpt lat="47.70714" lon="3.66593">
        <ele>213.5</ele>
        <time>2022-02-23T08:47:09Z</time>
      </trkpt>
      <trkpt lat="47.70713" lon="3.66595">
        <ele>213.6</ele>
        <time>2022-02-23T08:47:10Z</time>
      </trkpt>
      <trkpt lat="47.70713" lon="3.66597">
        <ele>213.7</ele>
        <time>2022-02-23T08:47:12Z</time>
      </trkpt>
      <trkpt lat="47.70711" lon="3.66599">
        <ele>213.9</ele>
        <time>2022-02-23T08:47:13Z</time>
      </trkpt>
      <trkpt lat="47.70711" lon="3.66601">
        <ele>214</ele>
        <time>2022-02-23T08:47:14Z</time>
      </trkpt>
      <trkpt lat="47.70711" lon="3.66603">
        <ele>214.1</ele>
        <time>2022-02-23T08:47:15Z</time>
      </trkpt>
      <trkpt lat="47.70711" lon="3.66606">
        <ele>214.2</ele>
        <time>2022-02-23T08:47:16Z</time>
      </trkpt>
      <trkpt lat="47.70711" lon="3.66608">
        <ele>214.3</ele>
        <time>2022-02-23T08:47:18Z</time>
      </trkpt>
      <trkpt lat="47.70711" lon="3.6661">
        <ele>214.4</ele>
        <time>2022-02-23T08:47:19Z</time>
      </trkpt>
      <trkpt lat="47.70711" lon="3.66611">
        <ele>214.5</ele>
        <time>2022-02-23T08:47:20Z</time>
      </trkpt>
      <trkpt lat="47.7071" lon="3.66613">
        <ele>214.6</ele>
        <time>2022-02-23T08:47:21Z</time>
      </trkpt>
      <trkpt lat="47.70711" lon="3.66615">
        <ele>214.7</ele>
        <time>2022-02-23T08:47:22Z</time>
      </trkpt>
      <trkpt lat="47.70711" lon="3.66616">
        <ele>214.8</ele>
        <time>2022-02-23T08:47:23Z</time>
      </trkpt>
      <trkpt lat="47.70711" lon="3.66618">
        <ele>214.9</ele>
        <time>2022-02-23T08:47:25Z</time>
      </trkpt>
      <trkpt lat="47.70711" lon="3.6662">
        <ele>215</ele>
        <time>2022-02-23T08:47:26Z</time>
      </trkpt>
      <trkpt lat="47.70711" lon="3.66623">
        <ele>215.2</ele>
        <time>2022-02-23T08:47:27Z</time>
      </trkpt>
      <trkpt lat="47.70711" lon="3.66624">
        <ele>215.2</ele>
        <time>2022-02-23T08:47:28Z</time>
      </trkpt>
      <trkpt lat="47.70711" lon="3.66625">
        <ele>215.3</ele>
        <time>2022-02-23T08:47:29Z</time>
      </trkpt>
      <trkpt lat="47.70711" lon="3.66627">
        <ele>215.4</ele>
        <time>2022-02-23T08:47:31Z</time>
      </trkpt>
      <trkpt lat="47.70712" lon="3.66628">
        <ele>215.5</ele>
        <time>2022-02-23T08:47:32Z</time>
      </trkpt>
      <trkpt lat="47.70712" lon="3.66629">
        <ele>215.5</ele>
        <time>2022-02-23T08:47:33Z</time>
      </trkpt>
      <trkpt lat="47.70712" lon="3.6663">
        <ele>215.6</ele>
        <time>2022-02-23T08:47:34Z</time>
      </trkpt>
      <trkpt lat="47.70713" lon="3.66632">
        <ele>215.7</ele>
        <time>2022-02-23T08:47:35Z</time>
      </trkpt>
      <trkpt lat="47.70713" lon="3.66633">
        <ele>215.7</ele>
        <time>2022-02-23T08:47:36Z</time>
      </trkpt>
      <trkpt lat="47.70713" lon="3.66634">
        <ele>215.8</ele>
        <time>2022-02-23T08:47:37Z</time>
      </trkpt>
      <trkpt lat="47.70713" lon="3.66638">
        <ele>216</ele>
        <time>2022-02-23T08:47:39Z</time>
      </trkpt>
      <trkpt lat="47.70713" lon="3.66639">
        <ele>216.1</ele>
        <time>2022-02-23T08:47:40Z</time>
      </trkpt>
      <trkpt lat="47.70712" lon="3.66641">
        <ele>216.2</ele>
        <time>2022-02-23T08:47:41Z</time>
      </trkpt>
      <trkpt lat="47.70712" lon="3.66643">
        <ele>216.4</ele>
        <time>2022-02-23T08:47:43Z</time>
      </trkpt>
      <trkpt lat="47.70712" lon="3.66645">
        <ele>216.5</ele>
        <time>2022-02-23T08:47:44Z</time>
      </trkpt>
      <trkpt lat="47.70711" lon="3.66646">
        <ele>216.6</ele>
        <time>2022-02-23T08:47:45Z</time>
      </trkpt>
      <trkpt lat="47.70711" lon="3.66648">
        <ele>217.5</ele>
        <time>2022-02-23T08:47:46Z</time>
      </trkpt>
      <trkpt lat="47.7071" lon="3.6665">
        <ele>217.4</ele>
        <time>2022-02-23T08:47:48Z</time>
      </trkpt>
      <trkpt lat="47.7071" lon="3.66651">
        <ele>217.3</ele>
        <time>2022-02-23T08:47:49Z</time>
      </trkpt>
      <trkpt lat="47.70709" lon="3.66652">
        <ele>217.3</ele>
        <time>2022-02-23T08:47:50Z</time>
      </trkpt>
      <trkpt lat="47.70709" lon="3.66654">
        <ele>217.2</ele>
        <time>2022-02-23T08:47:52Z</time>
      </trkpt>
      <trkpt lat="47.70709" lon="3.66655">
        <ele>217.1</ele>
        <time>2022-02-23T08:47:53Z</time>
      </trkpt>
      <trkpt lat="47.70709" lon="3.66655">
        <ele>217.1</ele>
        <time>2022-02-23T08:47:54Z</time>
      </trkpt>
      <trkpt lat="47.70708" lon="3.66656">
        <ele>217</ele>
        <time>2022-02-23T08:47:55Z</time>
      </trkpt>
      <trkpt lat="47.70707" lon="3.66656">
        <ele>217</ele>
        <time>2022-02-23T08:47:56Z</time>
      </trkpt>
      <trkpt lat="47.70707" lon="3.66657">
        <ele>217</ele>
        <time>2022-02-23T08:47:57Z</time>
      </trkpt>
      <trkpt lat="47.70706" lon="3.66657">
        <ele>216.9</ele>
        <time>2022-02-23T08:47:58Z</time>
      </trkpt>
      <trkpt lat="47.70705" lon="3.66656">
        <ele>216.8</ele>
        <time>2022-02-23T08:48:00Z</time>
      </trkpt>
      <trkpt lat="47.70704" lon="3.66656">
        <ele>216.7</ele>
        <time>2022-02-23T08:48:01Z</time>
      </trkpt>
      <trkpt lat="47.70702" lon="3.66655">
        <ele>216.6</ele>
        <time>2022-02-23T08:48:02Z</time>
      </trkpt>
      <trkpt lat="47.70702" lon="3.66655">
        <ele>216.5</ele>
        <time>2022-02-23T08:48:03Z</time>
      </trkpt>
      <trkpt lat="47.70701" lon="3.66655">
        <ele>216.5</ele>
        <time>2022-02-23T08:48:04Z</time>
      </trkpt>
      <trkpt lat="47.707" lon="3.66654">
        <ele>216.4</ele>
        <time>2022-02-23T08:48:06Z</time>
      </trkpt>
      <trkpt lat="47.70699" lon="3.66653">
        <ele>216.3</ele>
        <time>2022-02-23T08:48:07Z</time>
      </trkpt>
      <trkpt lat="47.70697" lon="3.66652">
        <ele>216</ele>
        <time>2022-02-23T08:48:08Z</time>
      </trkpt>
      <trkpt lat="47.70696" lon="3.66652">
        <ele>215.9</ele>
        <time>2022-02-23T08:48:09Z</time>
      </trkpt>
      <trkpt lat="47.70695" lon="3.66652">
        <ele>215.8</ele>
        <time>2022-02-23T08:48:10Z</time>
      </trkpt>
      <trkpt lat="47.70694" lon="3.66652">
        <ele>215.7</ele>
        <time>2022-02-23T08:48:11Z</time>
      </trkpt>
      <trkpt lat="47.70693" lon="3.66652">
        <ele>215.5</ele>
        <time>2022-02-23T08:48:13Z</time>
      </trkpt>
      <trkpt lat="47.70691" lon="3.66652">
        <ele>215.4</ele>
        <time>2022-02-23T08:48:14Z</time>
      </trkpt>
      <trkpt lat="47.7069" lon="3.66652">
        <ele>215.2</ele>
        <time>2022-02-23T08:48:15Z</time>
      </trkpt>
      <trkpt lat="47.70688" lon="3.66651">
        <ele>215</ele>
        <time>2022-02-23T08:48:16Z</time>
      </trkpt>
      <trkpt lat="47.70687" lon="3.66651">
        <ele>214.8</ele>
        <time>2022-02-23T08:48:18Z</time>
      </trkpt>
      <trkpt lat="47.70686" lon="3.6665">
        <ele>214.6</ele>
        <time>2022-02-23T08:48:19Z</time>
      </trkpt>
      <trkpt lat="47.70685" lon="3.66649">
        <ele>214.5</ele>
        <time>2022-02-23T08:48:20Z</time>
      </trkpt>
      <trkpt lat="47.70684" lon="3.66649">
        <ele>214.4</ele>
        <time>2022-02-23T08:48:21Z</time>
      </trkpt>
      <trkpt lat="47.70683" lon="3.66649">
        <ele>214.3</ele>
        <time>2022-02-23T08:48:22Z</time>
      </trkpt>
      <trkpt lat="47.70683" lon="3.66649">
        <ele>214.2</ele>
        <time>2022-02-23T08:48:23Z</time>
      </trkpt>
      <trkpt lat="47.70682" lon="3.66648">
        <ele>214.1</ele>
        <time>2022-02-23T08:48:24Z</time>
      </trkpt>
      <trkpt lat="47.70681" lon="3.66648">
        <ele>213.9</ele>
        <time>2022-02-23T08:48:26Z</time>
      </trkpt>
      <trkpt lat="47.7068" lon="3.66647">
        <ele>213.8</ele>
        <time>2022-02-23T08:48:27Z</time>
      </trkpt>
      <trkpt lat="47.70679" lon="3.66647">
        <ele>213.6</ele>
        <time>2022-02-23T08:48:28Z</time>
      </trkpt>
      <trkpt lat="47.70678" lon="3.66646">
        <ele>213.5</ele>
        <time>2022-02-23T08:48:29Z</time>
      </trkpt>
      <trkpt lat="47.70677" lon="3.66646">
        <ele>213.4</ele>
        <time>2022-02-23T08:48:30Z</time>
      </trkpt>
      <trkpt lat="47.70677" lon="3.66646">
        <ele>213.3</ele>
        <time>2022-02-23T08:48:31Z</time>
      </trkpt>
      <trkpt lat="47.70676" lon="3.66645">
        <ele>213.2</ele>
        <time>2022-02-23T08:48:32Z</time>
      </trkpt>
      <trkpt lat="47.70675" lon="3.66644">
        <ele>213.1</ele>
        <time>2022-02-23T08:48:33Z</time>
      </trkpt>
      <trkpt lat="47.70674" lon="3.66644">
        <ele>212.9</ele>
        <time>2022-02-23T08:48:34Z</time>
      </trkpt>
      <trkpt lat="47.70672" lon="3.66644">
        <ele>212.7</ele>
        <time>2022-02-23T08:48:36Z</time>
      </trkpt>
      <trkpt lat="47.70672" lon="3.66644">
        <ele>212.6</ele>
        <time>2022-02-23T08:48:37Z</time>
      </trkpt>
      <trkpt lat="47.70671" lon="3.66644">
        <ele>212.5</ele>
        <time>2022-02-23T08:48:38Z</time>
      </trkpt>
      <trkpt lat="47.7067" lon="3.66643">
        <ele>212.4</ele>
        <time>2022-02-23T08:48:39Z</time>
      </trkpt>
      <trkpt lat="47.70669" lon="3.66643">
        <ele>212.2</ele>
        <time>2022-02-23T08:48:40Z</time>
      </trkpt>
      <trkpt lat="47.70668" lon="3.66642">
        <ele>212.1</ele>
        <time>2022-02-23T08:48:41Z</time>
      </trkpt>
      <trkpt lat="47.70666" lon="3.66642">
        <ele>211.9</ele>
        <time>2022-02-23T08:48:42Z</time>
      </trkpt>
      <trkpt lat="47.70665" lon="3.66641">
        <ele>211.8</ele>
        <time>2022-02-23T08:48:44Z</time>
      </trkpt>
      <trkpt lat="47.70664" lon="3.66641">
        <ele>211.6</ele>
        <time>2022-02-23T08:48:45Z</time>
      </trkpt>
      <trkpt lat="47.70663" lon="3.66641">
        <ele>211.5</ele>
        <time>2022-02-23T08:48:46Z</time>
      </trkpt>
      <trkpt lat="47.70662" lon="3.6664">
        <ele>211.4</ele>
        <time>2022-02-23T08:48:47Z</time>
      </trkpt>
      <trkpt lat="47.7066" lon="3.6664">
        <ele>211.2</ele>
        <time>2022-02-23T08:48:49Z</time>
      </trkpt>
      <trkpt lat="47.70659" lon="3.66639">
        <ele>211</ele>
        <time>2022-02-23T08:48:50Z</time>
      </trkpt>
      <trkpt lat="47.70658" lon="3.66638">
        <ele>210.9</ele>
        <time>2022-02-23T08:48:51Z</time>
      </trkpt>
      <trkpt lat="47.70657" lon="3.66637">
        <ele>210.8</ele>
        <time>2022-02-23T08:48:52Z</time>
      </trkpt>
      <trkpt lat="47.70656" lon="3.66636">
        <ele>210.7</ele>
        <time>2022-02-23T08:48:53Z</time>
      </trkpt>
      <trkpt lat="47.70654" lon="3.66637">
        <ele>210.5</ele>
        <time>2022-02-23T08:48:55Z</time>
      </trkpt>
      <trkpt lat="47.70653" lon="3.66637">
        <ele>210.4</ele>
        <time>2022-02-23T08:48:57Z</time>
      </trkpt>
      <trkpt lat="47.70652" lon="3.66636">
        <ele>210.3</ele>
        <time>2022-02-23T08:48:58Z</time>
      </trkpt>
      <trkpt lat="47.70652" lon="3.66634">
        <ele>210.2</ele>
        <time>2022-02-23T08:48:59Z</time>
      </trkpt>
      <trkpt lat="47.70651" lon="3.66633">
        <ele>210.2</ele>
        <time>2022-02-23T08:49:00Z</time>
      </trkpt>
      <trkpt lat="47.70652" lon="3.66633">
        <ele>210.1</ele>
        <time>2022-02-23T08:49:01Z</time>
      </trkpt>
      <trkpt lat="47.70652" lon="3.66633">
        <ele>210.1</ele>
        <time>2022-02-23T08:49:02Z</time>
      </trkpt>
      <trkpt lat="47.70652" lon="3.66634">
        <ele>210.1</ele>
        <time>2022-02-23T08:49:04Z</time>
      </trkpt>
      <trkpt lat="47.70652" lon="3.66634">
        <ele>210.1</ele>
        <time>2022-02-23T08:49:05Z</time>
      </trkpt>
      <trkpt lat="47.70653" lon="3.66634">
        <ele>210</ele>
        <time>2022-02-23T08:49:06Z</time>
      </trkpt>
      <trkpt lat="47.70653" lon="3.66634">
        <ele>210</ele>
        <time>2022-02-23T08:49:07Z</time>
      </trkpt>
      <trkpt lat="47.70653" lon="3.66634">
        <ele>210</ele>
        <time>2022-02-23T08:49:08Z</time>
      </trkpt>
      <trkpt lat="47.70654" lon="3.66633">
        <ele>210</ele>
        <time>2022-02-23T08:49:09Z</time>
      </trkpt>
      <trkpt lat="47.70654" lon="3.66633">
        <ele>209.9</ele>
        <time>2022-02-23T08:49:10Z</time>
      </trkpt>
      <trkpt lat="47.70654" lon="3.66633">
        <ele>209.9</ele>
        <time>2022-02-23T08:49:11Z</time>
      </trkpt>
      <trkpt lat="47.70654" lon="3.66633">
        <ele>209.9</ele>
        <time>2022-02-23T08:49:12Z</time>
      </trkpt>
      <trkpt lat="47.70653" lon="3.66633">
        <ele>209.9</ele>
        <time>2022-02-23T08:49:13Z</time>
      </trkpt>
      <trkpt lat="47.70653" lon="3.66633">
        <ele>209.9</ele>
        <time>2022-02-23T08:49:14Z</time>
      </trkpt>
      <trkpt lat="47.70653" lon="3.66633">
        <ele>209.8</ele>
        <time>2022-02-23T08:49:15Z</time>
      </trkpt>
      <trkpt lat="47.70652" lon="3.66633">
        <ele>209.8</ele>
        <time>2022-02-23T08:49:16Z</time>
      </trkpt>
      <trkpt lat="47.70652" lon="3.66633">
        <ele>209.8</ele>
        <time>2022-02-23T08:49:17Z</time>
      </trkpt>
      <trkpt lat="47.70652" lon="3.66633">
        <ele>209.8</ele>
        <time>2022-02-23T08:49:18Z</time>
      </trkpt>
      <trkpt lat="47.70651" lon="3.66633">
        <ele>209.7</ele>
        <time>2022-02-23T08:49:19Z</time>
      </trkpt>
      <trkpt lat="47.70651" lon="3.66632">
        <ele>209.7</ele>
        <time>2022-02-23T08:49:20Z</time>
      </trkpt>
      <trkpt lat="47.7065" lon="3.66632">
        <ele>209.7</ele>
        <time>2022-02-23T08:49:21Z</time>
      </trkpt>
      <trkpt lat="47.70649" lon="3.66632">
        <ele>209.6</ele>
        <time>2022-02-23T08:49:22Z</time>
      </trkpt>
      <trkpt lat="47.70647" lon="3.66631">
        <ele>209.5</ele>
        <time>2022-02-23T08:49:24Z</time>
      </trkpt>
      <trkpt lat="47.70646" lon="3.6663">
        <ele>209.4</ele>
        <time>2022-02-23T08:49:25Z</time>
      </trkpt>
      <trkpt lat="47.70645" lon="3.66629">
        <ele>209.4</ele>
        <time>2022-02-23T08:49:26Z</time>
      </trkpt>
      <trkpt lat="47.70642" lon="3.66627">
        <ele>209.2</ele>
        <time>2022-02-23T08:49:28Z</time>
      </trkpt>
      <trkpt lat="47.70641" lon="3.66626">
        <ele>209.2</ele>
        <time>2022-02-23T08:49:29Z</time>
      </trkpt>
      <trkpt lat="47.7064" lon="3.66625">
        <ele>209.1</ele>
        <time>2022-02-23T08:49:30Z</time>
      </trkpt>
      <trkpt lat="47.70639" lon="3.66624">
        <ele>209.1</ele>
        <time>2022-02-23T08:49:31Z</time>
      </trkpt>
      <trkpt lat="47.70638" lon="3.66623">
        <ele>209</ele>
        <time>2022-02-23T08:49:32Z</time>
      </trkpt>
      <trkpt lat="47.70637" lon="3.66623">
        <ele>209</ele>
        <time>2022-02-23T08:49:33Z</time>
      </trkpt>
      <trkpt lat="47.70636" lon="3.66622">
        <ele>208.9</ele>
        <time>2022-02-23T08:49:35Z</time>
      </trkpt>
      <trkpt lat="47.70635" lon="3.66621">
        <ele>208.9</ele>
        <time>2022-02-23T08:49:36Z</time>
      </trkpt>
      <trkpt lat="47.70633" lon="3.6662">
        <ele>208.8</ele>
        <time>2022-02-23T08:49:37Z</time>
      </trkpt>
      <trkpt lat="47.70632" lon="3.66619">
        <ele>208.8</ele>
        <time>2022-02-23T08:49:38Z</time>
      </trkpt>
      <trkpt lat="47.70631" lon="3.66618">
        <ele>208.8</ele>
        <time>2022-02-23T08:49:39Z</time>
      </trkpt>
      <trkpt lat="47.7063" lon="3.66616">
        <ele>208.7</ele>
        <time>2022-02-23T08:49:40Z</time>
      </trkpt>
      <trkpt lat="47.70628" lon="3.66614">
        <ele>208.7</ele>
        <time>2022-02-23T08:49:41Z</time>
      </trkpt>
      <trkpt lat="47.70627" lon="3.66612">
        <ele>208.6</ele>
        <time>2022-02-23T08:49:43Z</time>
      </trkpt>
      <trkpt lat="47.70626" lon="3.66611">
        <ele>208.6</ele>
        <time>2022-02-23T08:49:44Z</time>
      </trkpt>
      <trkpt lat="47.70625" lon="3.6661">
        <ele>208.6</ele>
        <time>2022-02-23T08:49:45Z</time>
      </trkpt>
      <trkpt lat="47.70623" lon="3.66608">
        <ele>208.5</ele>
        <time>2022-02-23T08:49:46Z</time>
      </trkpt>
      <trkpt lat="47.70623" lon="3.66608">
        <ele>208.5</ele>
        <time>2022-02-23T08:49:47Z</time>
      </trkpt>
      <trkpt lat="47.70621" lon="3.66607">
        <ele>208.5</ele>
        <time>2022-02-23T08:49:48Z</time>
      </trkpt>
      <trkpt lat="47.7062" lon="3.66606">
        <ele>208.5</ele>
        <time>2022-02-23T08:49:49Z</time>
      </trkpt>
      <trkpt lat="47.70619" lon="3.66605">
        <ele>208.5</ele>
        <time>2022-02-23T08:49:50Z</time>
      </trkpt>
      <trkpt lat="47.70618" lon="3.66604">
        <ele>208.4</ele>
        <time>2022-02-23T08:49:51Z</time>
      </trkpt>
      <trkpt lat="47.70618" lon="3.66603">
        <ele>208.4</ele>
        <time>2022-02-23T08:49:52Z</time>
      </trkpt>
      <trkpt lat="47.70616" lon="3.66601">
        <ele>208.4</ele>
        <time>2022-02-23T08:49:53Z</time>
      </trkpt>
      <trkpt lat="47.70615" lon="3.66601">
        <ele>208.4</ele>
        <time>2022-02-23T08:49:54Z</time>
      </trkpt>
      <trkpt lat="47.70614" lon="3.666">
        <ele>208.4</ele>
        <time>2022-02-23T08:49:55Z</time>
      </trkpt>
      <trkpt lat="47.70613" lon="3.66599">
        <ele>208.4</ele>
        <time>2022-02-23T08:49:57Z</time>
      </trkpt>
      <trkpt lat="47.70612" lon="3.66598">
        <ele>208.3</ele>
        <time>2022-02-23T08:49:58Z</time>
      </trkpt>
      <trkpt lat="47.70611" lon="3.66597">
        <ele>208.3</ele>
        <time>2022-02-23T08:49:59Z</time>
      </trkpt>
      <trkpt lat="47.7061" lon="3.66595">
        <ele>208.3</ele>
        <time>2022-02-23T08:50:00Z</time>
      </trkpt>
      <trkpt lat="47.70609" lon="3.66595">
        <ele>208.3</ele>
        <time>2022-02-23T08:50:01Z</time>
      </trkpt>
      <trkpt lat="47.70609" lon="3.66595">
        <ele>208.3</ele>
        <time>2022-02-23T08:50:02Z</time>
      </trkpt>
      <trkpt lat="47.70609" lon="3.66595">
        <ele>208.3</ele>
        <time>2022-02-23T08:50:03Z</time>
      </trkpt>
      <trkpt lat="47.70608" lon="3.66594">
        <ele>208.3</ele>
        <time>2022-02-23T08:50:04Z</time>
      </trkpt>
      <trkpt lat="47.70607" lon="3.66592">
        <ele>208.3</ele>
        <time>2022-02-23T08:50:05Z</time>
      </trkpt>
      <trkpt lat="47.70607" lon="3.66591">
        <ele>208.3</ele>
        <time>2022-02-23T08:50:06Z</time>
      </trkpt>
      <trkpt lat="47.70606" lon="3.6659">
        <ele>208.3</ele>
        <time>2022-02-23T08:50:07Z</time>
      </trkpt>
      <trkpt lat="47.70605" lon="3.6659">
        <ele>208.3</ele>
        <time>2022-02-23T08:50:08Z</time>
      </trkpt>
      <trkpt lat="47.70604" lon="3.66589">
        <ele>208.3</ele>
        <time>2022-02-23T08:50:09Z</time>
      </trkpt>
      <trkpt lat="47.70603" lon="3.66589">
        <ele>208.3</ele>
        <time>2022-02-23T08:50:10Z</time>
      </trkpt>
      <trkpt lat="47.70602" lon="3.66588">
        <ele>208.3</ele>
        <time>2022-02-23T08:50:11Z</time>
      </trkpt>
      <trkpt lat="47.70601" lon="3.66587">
        <ele>208.3</ele>
        <time>2022-02-23T08:50:12Z</time>
      </trkpt>
      <trkpt lat="47.706" lon="3.66585">
        <ele>208.3</ele>
        <time>2022-02-23T08:50:13Z</time>
      </trkpt>
      <trkpt lat="47.70599" lon="3.66584">
        <ele>208.3</ele>
        <time>2022-02-23T08:50:14Z</time>
      </trkpt>
      <trkpt lat="47.70599" lon="3.66583">
        <ele>208.3</ele>
        <time>2022-02-23T08:50:15Z</time>
      </trkpt>
      <trkpt lat="47.70597" lon="3.66581">
        <ele>208.3</ele>
        <time>2022-02-23T08:50:16Z</time>
      </trkpt>
      <trkpt lat="47.70596" lon="3.6658">
        <ele>208.3</ele>
        <time>2022-02-23T08:50:17Z</time>
      </trkpt>
      <trkpt lat="47.70596" lon="3.66579">
        <ele>208.3</ele>
        <time>2022-02-23T08:50:18Z</time>
      </trkpt>
      <trkpt lat="47.70594" lon="3.66578">
        <ele>208.3</ele>
        <time>2022-02-23T08:50:19Z</time>
      </trkpt>
      <trkpt lat="47.70593" lon="3.66577">
        <ele>208.3</ele>
        <time>2022-02-23T08:50:21Z</time>
      </trkpt>
      <trkpt lat="47.70592" lon="3.66576">
        <ele>208.3</ele>
        <time>2022-02-23T08:50:22Z</time>
      </trkpt>
      <trkpt lat="47.70591" lon="3.66574">
        <ele>208.4</ele>
        <time>2022-02-23T08:50:23Z</time>
      </trkpt>
      <trkpt lat="47.7059" lon="3.66573">
        <ele>208.4</ele>
        <time>2022-02-23T08:50:24Z</time>
      </trkpt>
      <trkpt lat="47.7059" lon="3.66572">
        <ele>208.4</ele>
        <time>2022-02-23T08:50:25Z</time>
      </trkpt>
      <trkpt lat="47.70588" lon="3.6657">
        <ele>208.4</ele>
        <time>2022-02-23T08:50:26Z</time>
      </trkpt>
      <trkpt lat="47.70587" lon="3.66569">
        <ele>208.4</ele>
        <time>2022-02-23T08:50:27Z</time>
      </trkpt>
      <trkpt lat="47.70587" lon="3.66568">
        <ele>208.4</ele>
        <time>2022-02-23T08:50:28Z</time>
      </trkpt>
      <trkpt lat="47.70586" lon="3.66567">
        <ele>208.4</ele>
        <time>2022-02-23T08:50:29Z</time>
      </trkpt>
      <trkpt lat="47.70585" lon="3.66565">
        <ele>208.5</ele>
        <time>2022-02-23T08:50:31Z</time>
      </trkpt>
      <trkpt lat="47.70584" lon="3.66563">
        <ele>208.5</ele>
        <time>2022-02-23T08:50:32Z</time>
      </trkpt>
      <trkpt lat="47.70582" lon="3.66561">
        <ele>208.5</ele>
        <time>2022-02-23T08:50:33Z</time>
      </trkpt>
      <trkpt lat="47.70581" lon="3.66559">
        <ele>208.6</ele>
        <time>2022-02-23T08:50:35Z</time>
      </trkpt>
      <trkpt lat="47.70578" lon="3.66557">
        <ele>208.7</ele>
        <time>2022-02-23T08:50:37Z</time>
      </trkpt>
      <trkpt lat="47.70576" lon="3.66555">
        <ele>208.7</ele>
        <time>2022-02-23T08:50:39Z</time>
      </trkpt>
      <trkpt lat="47.70575" lon="3.66554">
        <ele>208.8</ele>
        <time>2022-02-23T08:50:40Z</time>
      </trkpt>
      <trkpt lat="47.70574" lon="3.66552">
        <ele>208.8</ele>
        <time>2022-02-23T08:50:41Z</time>
      </trkpt>
      <trkpt lat="47.70573" lon="3.66551">
        <ele>208.8</ele>
        <time>2022-02-23T08:50:42Z</time>
      </trkpt>
      <trkpt lat="47.70572" lon="3.6655">
        <ele>208.9</ele>
        <time>2022-02-23T08:50:43Z</time>
      </trkpt>
      <trkpt lat="47.70571" lon="3.66548">
        <ele>208.9</ele>
        <time>2022-02-23T08:50:45Z</time>
      </trkpt>
      <trkpt lat="47.7057" lon="3.66547">
        <ele>209</ele>
        <time>2022-02-23T08:50:46Z</time>
      </trkpt>
      <trkpt lat="47.7057" lon="3.66546">
        <ele>209</ele>
        <time>2022-02-23T08:50:47Z</time>
      </trkpt>
      <trkpt lat="47.70569" lon="3.66545">
        <ele>209</ele>
        <time>2022-02-23T08:50:48Z</time>
      </trkpt>
      <trkpt lat="47.70568" lon="3.66544">
        <ele>209</ele>
        <time>2022-02-23T08:50:49Z</time>
      </trkpt>
      <trkpt lat="47.70567" lon="3.66544">
        <ele>209.1</ele>
        <time>2022-02-23T08:50:50Z</time>
      </trkpt>
      <trkpt lat="47.70567" lon="3.66543">
        <ele>209.1</ele>
        <time>2022-02-23T08:50:51Z</time>
      </trkpt>
      <trkpt lat="47.70566" lon="3.66542">
        <ele>209.1</ele>
        <time>2022-02-23T08:50:52Z</time>
      </trkpt>
      <trkpt lat="47.70565" lon="3.66541">
        <ele>209.2</ele>
        <time>2022-02-23T08:50:53Z</time>
      </trkpt>
      <trkpt lat="47.70564" lon="3.66541">
        <ele>209.2</ele>
        <time>2022-02-23T08:50:54Z</time>
      </trkpt>
      <trkpt lat="47.70564" lon="3.6654">
        <ele>209.2</ele>
        <time>2022-02-23T08:50:55Z</time>
      </trkpt>
      <trkpt lat="47.70563" lon="3.66538">
        <ele>209.3</ele>
        <time>2022-02-23T08:50:56Z</time>
      </trkpt>
      <trkpt lat="47.70562" lon="3.66537">
        <ele>209.3</ele>
        <time>2022-02-23T08:50:57Z</time>
      </trkpt>
      <trkpt lat="47.70561" lon="3.66536">
        <ele>209.3</ele>
        <time>2022-02-23T08:50:59Z</time>
      </trkpt>
      <trkpt lat="47.7056" lon="3.66534">
        <ele>209.4</ele>
        <time>2022-02-23T08:51:00Z</time>
      </trkpt>
      <trkpt lat="47.70558" lon="3.66532">
        <ele>209.4</ele>
        <time>2022-02-23T08:51:01Z</time>
      </trkpt>
      <trkpt lat="47.70557" lon="3.66532">
        <ele>209.5</ele>
        <time>2022-02-23T08:51:03Z</time>
      </trkpt>
      <trkpt lat="47.70557" lon="3.66531">
        <ele>209.5</ele>
        <time>2022-02-23T08:51:04Z</time>
      </trkpt>
      <trkpt lat="47.70555" lon="3.66529">
        <ele>209.6</ele>
        <time>2022-02-23T08:51:05Z</time>
      </trkpt>
      <trkpt lat="47.70554" lon="3.66528">
        <ele>209.6</ele>
        <time>2022-02-23T08:51:06Z</time>
      </trkpt>
      <trkpt lat="47.70554" lon="3.66528">
        <ele>209.6</ele>
        <time>2022-02-23T08:51:07Z</time>
      </trkpt>
      <trkpt lat="47.70553" lon="3.66526">
        <ele>209.6</ele>
        <time>2022-02-23T08:51:08Z</time>
      </trkpt>
      <trkpt lat="47.70551" lon="3.66525">
        <ele>209.7</ele>
        <time>2022-02-23T08:51:10Z</time>
      </trkpt>
      <trkpt lat="47.7055" lon="3.66523">
        <ele>209.7</ele>
        <time>2022-02-23T08:51:11Z</time>
      </trkpt>
      <trkpt lat="47.7055" lon="3.66522">
        <ele>209.8</ele>
        <time>2022-02-23T08:51:12Z</time>
      </trkpt>
      <trkpt lat="47.70549" lon="3.66521">
        <ele>209.8</ele>
        <time>2022-02-23T08:51:13Z</time>
      </trkpt>
      <trkpt lat="47.70548" lon="3.6652">
        <ele>209.9</ele>
        <time>2022-02-23T08:51:14Z</time>
      </trkpt>
      <trkpt lat="47.70547" lon="3.66519">
        <ele>209.9</ele>
        <time>2022-02-23T08:51:15Z</time>
      </trkpt>
      <trkpt lat="47.70546" lon="3.66518">
        <ele>209.9</ele>
        <time>2022-02-23T08:51:16Z</time>
      </trkpt>
      <trkpt lat="47.70544" lon="3.66515">
        <ele>210</ele>
        <time>2022-02-23T08:51:18Z</time>
      </trkpt>
      <trkpt lat="47.70543" lon="3.66514">
        <ele>210.1</ele>
        <time>2022-02-23T08:51:19Z</time>
      </trkpt>
      <trkpt lat="47.70541" lon="3.66512">
        <ele>210.2</ele>
        <time>2022-02-23T08:51:20Z</time>
      </trkpt>
      <trkpt lat="47.70541" lon="3.66511">
        <ele>210.2</ele>
        <time>2022-02-23T08:51:21Z</time>
      </trkpt>
      <trkpt lat="47.7054" lon="3.6651">
        <ele>210.2</ele>
        <time>2022-02-23T08:51:22Z</time>
      </trkpt>
      <trkpt lat="47.70539" lon="3.66509">
        <ele>210.3</ele>
        <time>2022-02-23T08:51:23Z</time>
      </trkpt>
      <trkpt lat="47.70537" lon="3.66507">
        <ele>210.4</ele>
        <time>2022-02-23T08:51:25Z</time>
      </trkpt>
      <trkpt lat="47.70536" lon="3.66506">
        <ele>210.4</ele>
        <time>2022-02-23T08:51:26Z</time>
      </trkpt>
      <trkpt lat="47.70535" lon="3.66505">
        <ele>210.5</ele>
        <time>2022-02-23T08:51:28Z</time>
      </trkpt>
      <trkpt lat="47.70534" lon="3.66503">
        <ele>210.6</ele>
        <time>2022-02-23T08:51:29Z</time>
      </trkpt>
      <trkpt lat="47.70533" lon="3.66501">
        <ele>210.6</ele>
        <time>2022-02-23T08:51:30Z</time>
      </trkpt>
      <trkpt lat="47.70533" lon="3.66499">
        <ele>210.7</ele>
        <time>2022-02-23T08:51:32Z</time>
      </trkpt>
      <trkpt lat="47.70532" lon="3.66497">
        <ele>210.8</ele>
        <time>2022-02-23T08:51:33Z</time>
      </trkpt>
      <trkpt lat="47.70531" lon="3.66496">
        <ele>210.9</ele>
        <time>2022-02-23T08:51:34Z</time>
      </trkpt>
      <trkpt lat="47.7053" lon="3.66494">
        <ele>211</ele>
        <time>2022-02-23T08:51:36Z</time>
      </trkpt>
      <trkpt lat="47.70529" lon="3.66492">
        <ele>211</ele>
        <time>2022-02-23T08:51:37Z</time>
      </trkpt>
      <trkpt lat="47.70528" lon="3.66491">
        <ele>211.1</ele>
        <time>2022-02-23T08:51:38Z</time>
      </trkpt>
      <trkpt lat="47.70526" lon="3.6649">
        <ele>211.2</ele>
        <time>2022-02-23T08:51:39Z</time>
      </trkpt>
      <trkpt lat="47.70525" lon="3.66489">
        <ele>211.3</ele>
        <time>2022-02-23T08:51:40Z</time>
      </trkpt>
      <trkpt lat="47.70524" lon="3.66487">
        <ele>211.3</ele>
        <time>2022-02-23T08:51:42Z</time>
      </trkpt>
      <trkpt lat="47.70523" lon="3.66486">
        <ele>211.4</ele>
        <time>2022-02-23T08:51:43Z</time>
      </trkpt>
      <trkpt lat="47.70522" lon="3.66485">
        <ele>211.5</ele>
        <time>2022-02-23T08:51:44Z</time>
      </trkpt>
      <trkpt lat="47.70521" lon="3.66483">
        <ele>211.6</ele>
        <time>2022-02-23T08:51:45Z</time>
      </trkpt>
      <trkpt lat="47.70519" lon="3.6648">
        <ele>211.7</ele>
        <time>2022-02-23T08:51:46Z</time>
      </trkpt>
      <trkpt lat="47.70519" lon="3.66479">
        <ele>211.7</ele>
        <time>2022-02-23T08:51:47Z</time>
      </trkpt>
      <trkpt lat="47.70519" lon="3.66478">
        <ele>211.7</ele>
        <time>2022-02-23T08:51:48Z</time>
      </trkpt>
      <trkpt lat="47.70517" lon="3.66475">
        <ele>211.8</ele>
        <time>2022-02-23T08:51:49Z</time>
      </trkpt>
      <trkpt lat="47.70517" lon="3.66474">
        <ele>211.9</ele>
        <time>2022-02-23T08:51:51Z</time>
      </trkpt>
      <trkpt lat="47.70517" lon="3.66473">
        <ele>211.9</ele>
        <time>2022-02-23T08:51:52Z</time>
      </trkpt>
      <trkpt lat="47.70516" lon="3.66472">
        <ele>211.9</ele>
        <time>2022-02-23T08:51:53Z</time>
      </trkpt>
      <trkpt lat="47.70515" lon="3.6647">
        <ele>212</ele>
        <time>2022-02-23T08:51:54Z</time>
      </trkpt>
      <trkpt lat="47.70514" lon="3.66469">
        <ele>212</ele>
        <time>2022-02-23T08:51:55Z</time>
      </trkpt>
      <trkpt lat="47.70513" lon="3.66467">
        <ele>212.1</ele>
        <time>2022-02-23T08:51:56Z</time>
      </trkpt>
      <trkpt lat="47.70512" lon="3.66466">
        <ele>212.1</ele>
        <time>2022-02-23T08:51:57Z</time>
      </trkpt>
      <trkpt lat="47.70512" lon="3.66465">
        <ele>212.2</ele>
        <time>2022-02-23T08:51:58Z</time>
      </trkpt>
      <trkpt lat="47.70511" lon="3.66462">
        <ele>212.2</ele>
        <time>2022-02-23T08:52:00Z</time>
      </trkpt>
      <trkpt lat="47.7051" lon="3.66461">
        <ele>212.2</ele>
        <time>2022-02-23T08:52:01Z</time>
      </trkpt>
      <trkpt lat="47.70509" lon="3.6646">
        <ele>212.3</ele>
        <time>2022-02-23T08:52:02Z</time>
      </trkpt>
      <trkpt lat="47.70509" lon="3.66458">
        <ele>212.3</ele>
        <time>2022-02-23T08:52:03Z</time>
      </trkpt>
      <trkpt lat="47.70508" lon="3.66456">
        <ele>212.3</ele>
        <time>2022-02-23T08:52:05Z</time>
      </trkpt>
      <trkpt lat="47.70507" lon="3.66454">
        <ele>212.4</ele>
        <time>2022-02-23T08:52:06Z</time>
      </trkpt>
      <trkpt lat="47.70507" lon="3.66452">
        <ele>212.4</ele>
        <time>2022-02-23T08:52:07Z</time>
      </trkpt>
      <trkpt lat="47.70507" lon="3.66451">
        <ele>212.4</ele>
        <time>2022-02-23T08:52:08Z</time>
      </trkpt>
      <trkpt lat="47.70506" lon="3.66449">
        <ele>212.5</ele>
        <time>2022-02-23T08:52:09Z</time>
      </trkpt>
      <trkpt lat="47.70506" lon="3.66448">
        <ele>212.5</ele>
        <time>2022-02-23T08:52:10Z</time>
      </trkpt>
      <trkpt lat="47.70506" lon="3.66446">
        <ele>212.5</ele>
        <time>2022-02-23T08:52:11Z</time>
      </trkpt>
      <trkpt lat="47.70505" lon="3.66443">
        <ele>212.6</ele>
        <time>2022-02-23T08:52:12Z</time>
      </trkpt>
      <trkpt lat="47.70505" lon="3.66442">
        <ele>212.6</ele>
        <time>2022-02-23T08:52:14Z</time>
      </trkpt>
      <trkpt lat="47.70504" lon="3.66441">
        <ele>212.6</ele>
        <time>2022-02-23T08:52:15Z</time>
      </trkpt>
      <trkpt lat="47.70504" lon="3.66439">
        <ele>212.6</ele>
        <time>2022-02-23T08:52:16Z</time>
      </trkpt>
      <trkpt lat="47.70503" lon="3.66437">
        <ele>212.6</ele>
        <time>2022-02-23T08:52:17Z</time>
      </trkpt>
      <trkpt lat="47.70502" lon="3.66435">
        <ele>212.7</ele>
        <time>2022-02-23T08:52:19Z</time>
      </trkpt>
      <trkpt lat="47.70502" lon="3.66433">
        <ele>212.7</ele>
        <time>2022-02-23T08:52:20Z</time>
      </trkpt>
      <trkpt lat="47.70501" lon="3.66431">
        <ele>212.7</ele>
        <time>2022-02-23T08:52:21Z</time>
      </trkpt>
      <trkpt lat="47.705" lon="3.66429">
        <ele>212.7</ele>
        <time>2022-02-23T08:52:22Z</time>
      </trkpt>
      <trkpt lat="47.70499" lon="3.66427">
        <ele>212.7</ele>
        <time>2022-02-23T08:52:23Z</time>
      </trkpt>
      <trkpt lat="47.70498" lon="3.66426">
        <ele>212.8</ele>
        <time>2022-02-23T08:52:24Z</time>
      </trkpt>
      <trkpt lat="47.70497" lon="3.66423">
        <ele>212.8</ele>
        <time>2022-02-23T08:52:26Z</time>
      </trkpt>
      <trkpt lat="47.70497" lon="3.66422">
        <ele>212.8</ele>
        <time>2022-02-23T08:52:27Z</time>
      </trkpt>
      <trkpt lat="47.70496" lon="3.66421">
        <ele>212.8</ele>
        <time>2022-02-23T08:52:28Z</time>
      </trkpt>
      <trkpt lat="47.70495" lon="3.66418">
        <ele>212.8</ele>
        <time>2022-02-23T08:52:29Z</time>
      </trkpt>
      <trkpt lat="47.70495" lon="3.66416">
        <ele>212.8</ele>
        <time>2022-02-23T08:52:30Z</time>
      </trkpt>
      <trkpt lat="47.70495" lon="3.66415">
        <ele>212.8</ele>
        <time>2022-02-23T08:52:31Z</time>
      </trkpt>
      <trkpt lat="47.70494" lon="3.66412">
        <ele>212.9</ele>
        <time>2022-02-23T08:52:32Z</time>
      </trkpt>
      <trkpt lat="47.70493" lon="3.66411">
        <ele>212.9</ele>
        <time>2022-02-23T08:52:33Z</time>
      </trkpt>
      <trkpt lat="47.70493" lon="3.6641">
        <ele>212.9</ele>
        <time>2022-02-23T08:52:34Z</time>
      </trkpt>
      <trkpt lat="47.70493" lon="3.66408">
        <ele>212.9</ele>
        <time>2022-02-23T08:52:35Z</time>
      </trkpt>
      <trkpt lat="47.70492" lon="3.66406">
        <ele>212.9</ele>
        <time>2022-02-23T08:52:36Z</time>
      </trkpt>
      <trkpt lat="47.70492" lon="3.66403">
        <ele>212.9</ele>
        <time>2022-02-23T08:52:38Z</time>
      </trkpt>
      <trkpt lat="47.70491" lon="3.66401">
        <ele>212.9</ele>
        <time>2022-02-23T08:52:39Z</time>
      </trkpt>
      <trkpt lat="47.7049" lon="3.66399">
        <ele>213</ele>
        <time>2022-02-23T08:52:40Z</time>
      </trkpt>
      <trkpt lat="47.7049" lon="3.66397">
        <ele>213</ele>
        <time>2022-02-23T08:52:41Z</time>
      </trkpt>
      <trkpt lat="47.70489" lon="3.66395">
        <ele>213</ele>
        <time>2022-02-23T08:52:42Z</time>
      </trkpt>
      <trkpt lat="47.70488" lon="3.66393">
        <ele>213</ele>
        <time>2022-02-23T08:52:43Z</time>
      </trkpt>
      <trkpt lat="47.70487" lon="3.6639">
        <ele>213</ele>
        <time>2022-02-23T08:52:44Z</time>
      </trkpt>
      <trkpt lat="47.70487" lon="3.66389">
        <ele>213</ele>
        <time>2022-02-23T08:52:45Z</time>
      </trkpt>
      <trkpt lat="47.70487" lon="3.66388">
        <ele>213</ele>
        <time>2022-02-23T08:52:46Z</time>
      </trkpt>
      <trkpt lat="47.70486" lon="3.66386">
        <ele>213.1</ele>
        <time>2022-02-23T08:52:47Z</time>
      </trkpt>
      <trkpt lat="47.70485" lon="3.66384">
        <ele>213.1</ele>
        <time>2022-02-23T08:52:48Z</time>
      </trkpt>
      <trkpt lat="47.70485" lon="3.66382">
        <ele>213.1</ele>
        <time>2022-02-23T08:52:50Z</time>
      </trkpt>
      <trkpt lat="47.70484" lon="3.6638">
        <ele>213.1</ele>
        <time>2022-02-23T08:52:51Z</time>
      </trkpt>
      <trkpt lat="47.70484" lon="3.66379">
        <ele>213.1</ele>
        <time>2022-02-23T08:52:52Z</time>
      </trkpt>
      <trkpt lat="47.70483" lon="3.66377">
        <ele>213.1</ele>
        <time>2022-02-23T08:52:53Z</time>
      </trkpt>
      <trkpt lat="47.70483" lon="3.66376">
        <ele>213.1</ele>
        <time>2022-02-23T08:52:54Z</time>
      </trkpt>
      <trkpt lat="47.70483" lon="3.66374">
        <ele>213.1</ele>
        <time>2022-02-23T08:52:55Z</time>
      </trkpt>
      <trkpt lat="47.70482" lon="3.66373">
        <ele>213.2</ele>
        <time>2022-02-23T08:52:56Z</time>
      </trkpt>
      <trkpt lat="47.70482" lon="3.66371">
        <ele>213.2</ele>
        <time>2022-02-23T08:52:57Z</time>
      </trkpt>
      <trkpt lat="47.70482" lon="3.66369">
        <ele>213.2</ele>
        <time>2022-02-23T08:52:58Z</time>
      </trkpt>
      <trkpt lat="47.70481" lon="3.66368">
        <ele>213.2</ele>
        <time>2022-02-23T08:52:59Z</time>
      </trkpt>
      <trkpt lat="47.70481" lon="3.66366">
        <ele>213.2</ele>
        <time>2022-02-23T08:53:00Z</time>
      </trkpt>
      <trkpt lat="47.7048" lon="3.66364">
        <ele>213.2</ele>
        <time>2022-02-23T08:53:01Z</time>
      </trkpt>
      <trkpt lat="47.7048" lon="3.66363">
        <ele>213.2</ele>
        <time>2022-02-23T08:53:02Z</time>
      </trkpt>
      <trkpt lat="47.70479" lon="3.66362">
        <ele>213.2</ele>
        <time>2022-02-23T08:53:03Z</time>
      </trkpt>
      <trkpt lat="47.70478" lon="3.66359">
        <ele>213.3</ele>
        <time>2022-02-23T08:53:05Z</time>
      </trkpt>
      <trkpt lat="47.70477" lon="3.66357">
        <ele>213.3</ele>
        <time>2022-02-23T08:53:06Z</time>
      </trkpt>
      <trkpt lat="47.70477" lon="3.66356">
        <ele>213.3</ele>
        <time>2022-02-23T08:53:07Z</time>
      </trkpt>
      <trkpt lat="47.70476" lon="3.66354">
        <ele>213.3</ele>
        <time>2022-02-23T08:53:08Z</time>
      </trkpt>
      <trkpt lat="47.70476" lon="3.66352">
        <ele>213.3</ele>
        <time>2022-02-23T08:53:09Z</time>
      </trkpt>
      <trkpt lat="47.70475" lon="3.66351">
        <ele>213.3</ele>
        <time>2022-02-23T08:53:10Z</time>
      </trkpt>
      <trkpt lat="47.70475" lon="3.66348">
        <ele>213.4</ele>
        <time>2022-02-23T08:53:11Z</time>
      </trkpt>
      <trkpt lat="47.70474" lon="3.66346">
        <ele>213.4</ele>
        <time>2022-02-23T08:53:13Z</time>
      </trkpt>
      <trkpt lat="47.70474" lon="3.66345">
        <ele>213.4</ele>
        <time>2022-02-23T08:53:14Z</time>
      </trkpt>
      <trkpt lat="47.70473" lon="3.66342">
        <ele>213.4</ele>
        <time>2022-02-23T08:53:15Z</time>
      </trkpt>
      <trkpt lat="47.70473" lon="3.66341">
        <ele>213.5</ele>
        <time>2022-02-23T08:53:16Z</time>
      </trkpt>
      <trkpt lat="47.70472" lon="3.6634">
        <ele>213.5</ele>
        <time>2022-02-23T08:53:17Z</time>
      </trkpt>
      <trkpt lat="47.70472" lon="3.66338">
        <ele>213.5</ele>
        <time>2022-02-23T08:53:18Z</time>
      </trkpt>
      <trkpt lat="47.70472" lon="3.66336">
        <ele>213.5</ele>
        <time>2022-02-23T08:53:19Z</time>
      </trkpt>
      <trkpt lat="47.70472" lon="3.66335">
        <ele>213.5</ele>
        <time>2022-02-23T08:53:20Z</time>
      </trkpt>
      <trkpt lat="47.70471" lon="3.66332">
        <ele>213.6</ele>
        <time>2022-02-23T08:53:21Z</time>
      </trkpt>
      <trkpt lat="47.70471" lon="3.6633">
        <ele>213.6</ele>
        <time>2022-02-23T08:53:22Z</time>
      </trkpt>
      <trkpt lat="47.7047" lon="3.66329">
        <ele>213.6</ele>
        <time>2022-02-23T08:53:23Z</time>
      </trkpt>
      <trkpt lat="47.70469" lon="3.66327">
        <ele>213.7</ele>
        <time>2022-02-23T08:53:24Z</time>
      </trkpt>
      <trkpt lat="47.70469" lon="3.66325">
        <ele>213.7</ele>
        <time>2022-02-23T08:53:25Z</time>
      </trkpt>
      <trkpt lat="47.70468" lon="3.66323">
        <ele>213.7</ele>
        <time>2022-02-23T08:53:27Z</time>
      </trkpt>
      <trkpt lat="47.70467" lon="3.66322">
        <ele>213.8</ele>
        <time>2022-02-23T08:53:28Z</time>
      </trkpt>
      <trkpt lat="47.70467" lon="3.66321">
        <ele>213.8</ele>
        <time>2022-02-23T08:53:29Z</time>
      </trkpt>
      <trkpt lat="47.70466" lon="3.66319">
        <ele>213.8</ele>
        <time>2022-02-23T08:53:30Z</time>
      </trkpt>
      <trkpt lat="47.70465" lon="3.66318">
        <ele>213.9</ele>
        <time>2022-02-23T08:53:31Z</time>
      </trkpt>
      <trkpt lat="47.70464" lon="3.66315">
        <ele>213.9</ele>
        <time>2022-02-23T08:53:32Z</time>
      </trkpt>
      <trkpt lat="47.70463" lon="3.66314">
        <ele>213.9</ele>
        <time>2022-02-23T08:53:33Z</time>
      </trkpt>
      <trkpt lat="47.70462" lon="3.66313">
        <ele>214</ele>
        <time>2022-02-23T08:53:34Z</time>
      </trkpt>
      <trkpt lat="47.70462" lon="3.66312">
        <ele>214</ele>
        <time>2022-02-23T08:53:35Z</time>
      </trkpt>
      <trkpt lat="47.70461" lon="3.6631">
        <ele>213.8</ele>
        <time>2022-02-23T08:53:36Z</time>
      </trkpt>
      <trkpt lat="47.7046" lon="3.66309">
        <ele>213.6</ele>
        <time>2022-02-23T08:53:37Z</time>
      </trkpt>
      <trkpt lat="47.7046" lon="3.66308">
        <ele>213.5</ele>
        <time>2022-02-23T08:53:38Z</time>
      </trkpt>
      <trkpt lat="47.70459" lon="3.66307">
        <ele>213.4</ele>
        <time>2022-02-23T08:53:39Z</time>
      </trkpt>
      <trkpt lat="47.70459" lon="3.66306">
        <ele>213.2</ele>
        <time>2022-02-23T08:53:41Z</time>
      </trkpt>
      <trkpt lat="47.70459" lon="3.66304">
        <ele>213.1</ele>
        <time>2022-02-23T08:53:42Z</time>
      </trkpt>
      <trkpt lat="47.70458" lon="3.66303">
        <ele>213</ele>
        <time>2022-02-23T08:53:43Z</time>
      </trkpt>
      <trkpt lat="47.70458" lon="3.66302">
        <ele>212.8</ele>
        <time>2022-02-23T08:53:44Z</time>
      </trkpt>
      <trkpt lat="47.70458" lon="3.663">
        <ele>212.7</ele>
        <time>2022-02-23T08:53:45Z</time>
      </trkpt>
      <trkpt lat="47.70459" lon="3.66298">
        <ele>212.5</ele>
        <time>2022-02-23T08:53:46Z</time>
      </trkpt>
      <trkpt lat="47.70459" lon="3.66296">
        <ele>212.3</ele>
        <time>2022-02-23T08:53:48Z</time>
      </trkpt>
      <trkpt lat="47.70459" lon="3.66295">
        <ele>212.2</ele>
        <time>2022-02-23T08:53:49Z</time>
      </trkpt>
      <trkpt lat="47.70459" lon="3.66294">
        <ele>212.1</ele>
        <time>2022-02-23T08:53:50Z</time>
      </trkpt>
      <trkpt lat="47.70458" lon="3.66292">
        <ele>212</ele>
        <time>2022-02-23T08:53:51Z</time>
      </trkpt>
      <trkpt lat="47.70458" lon="3.66291">
        <ele>211.8</ele>
        <time>2022-02-23T08:53:52Z</time>
      </trkpt>
      <trkpt lat="47.70457" lon="3.6629">
        <ele>211.7</ele>
        <time>2022-02-23T08:53:53Z</time>
      </trkpt>
      <trkpt lat="47.70457" lon="3.66288">
        <ele>211.5</ele>
        <time>2022-02-23T08:53:54Z</time>
      </trkpt>
      <trkpt lat="47.70457" lon="3.66287">
        <ele>211.4</ele>
        <time>2022-02-23T08:53:55Z</time>
      </trkpt>
      <trkpt lat="47.70457" lon="3.66285">
        <ele>211.2</ele>
        <time>2022-02-23T08:53:57Z</time>
      </trkpt>
      <trkpt lat="47.70457" lon="3.66283">
        <ele>211.1</ele>
        <time>2022-02-23T08:53:58Z</time>
      </trkpt>
      <trkpt lat="47.70457" lon="3.66281">
        <ele>210.9</ele>
        <time>2022-02-23T08:53:59Z</time>
      </trkpt>
      <trkpt lat="47.70457" lon="3.6628">
        <ele>210.7</ele>
        <time>2022-02-23T08:54:00Z</time>
      </trkpt>
      <trkpt lat="47.70457" lon="3.66278">
        <ele>210.6</ele>
        <time>2022-02-23T08:54:01Z</time>
      </trkpt>
      <trkpt lat="47.70457" lon="3.66276">
        <ele>210.4</ele>
        <time>2022-02-23T08:54:02Z</time>
      </trkpt>
      <trkpt lat="47.70456" lon="3.66275">
        <ele>210.3</ele>
        <time>2022-02-23T08:54:03Z</time>
      </trkpt>
      <trkpt lat="47.70456" lon="3.66273">
        <ele>210.1</ele>
        <time>2022-02-23T08:54:04Z</time>
      </trkpt>
      <trkpt lat="47.70456" lon="3.66271">
        <ele>209.9</ele>
        <time>2022-02-23T08:54:06Z</time>
      </trkpt>
      <trkpt lat="47.70456" lon="3.66269">
        <ele>209.8</ele>
        <time>2022-02-23T08:54:07Z</time>
      </trkpt>
      <trkpt lat="47.70456" lon="3.66267">
        <ele>209.6</ele>
        <time>2022-02-23T08:54:08Z</time>
      </trkpt>
      <trkpt lat="47.70456" lon="3.66266">
        <ele>209.5</ele>
        <time>2022-02-23T08:54:09Z</time>
      </trkpt>
      <trkpt lat="47.70455" lon="3.66262">
        <ele>209.2</ele>
        <time>2022-02-23T08:54:10Z</time>
      </trkpt>
      <trkpt lat="47.70455" lon="3.66261">
        <ele>209.1</ele>
        <time>2022-02-23T08:54:11Z</time>
      </trkpt>
      <trkpt lat="47.70455" lon="3.6626">
        <ele>209</ele>
        <time>2022-02-23T08:54:12Z</time>
      </trkpt>
      <trkpt lat="47.70455" lon="3.66259">
        <ele>208.9</ele>
        <time>2022-02-23T08:54:13Z</time>
      </trkpt>
      <trkpt lat="47.70455" lon="3.66258">
        <ele>208.8</ele>
        <time>2022-02-23T08:54:14Z</time>
      </trkpt>
      <trkpt lat="47.70455" lon="3.66256">
        <ele>208.6</ele>
        <time>2022-02-23T08:54:15Z</time>
      </trkpt>
      <trkpt lat="47.70455" lon="3.66255">
        <ele>208.5</ele>
        <time>2022-02-23T08:54:16Z</time>
      </trkpt>
      <trkpt lat="47.70455" lon="3.66254">
        <ele>208.3</ele>
        <time>2022-02-23T08:54:17Z</time>
      </trkpt>
      <trkpt lat="47.70455" lon="3.66252">
        <ele>208.2</ele>
        <time>2022-02-23T08:54:18Z</time>
      </trkpt>
      <trkpt lat="47.70456" lon="3.66251">
        <ele>208.1</ele>
        <time>2022-02-23T08:54:19Z</time>
      </trkpt>
      <trkpt lat="47.70456" lon="3.66249">
        <ele>207.9</ele>
        <time>2022-02-23T08:54:20Z</time>
      </trkpt>
      <trkpt lat="47.70457" lon="3.66248">
        <ele>207.8</ele>
        <time>2022-02-23T08:54:21Z</time>
      </trkpt>
      <trkpt lat="47.70457" lon="3.66247">
        <ele>207.7</ele>
        <time>2022-02-23T08:54:22Z</time>
      </trkpt>
      <trkpt lat="47.70457" lon="3.66245">
        <ele>207.5</ele>
        <time>2022-02-23T08:54:23Z</time>
      </trkpt>
      <trkpt lat="47.70456" lon="3.66244">
        <ele>207.4</ele>
        <time>2022-02-23T08:54:24Z</time>
      </trkpt>
      <trkpt lat="47.70456" lon="3.66242">
        <ele>207.3</ele>
        <time>2022-02-23T08:54:25Z</time>
      </trkpt>
      <trkpt lat="47.70455" lon="3.6624">
        <ele>207</ele>
        <time>2022-02-23T08:54:27Z</time>
      </trkpt>
      <trkpt lat="47.70455" lon="3.66238">
        <ele>206.9</ele>
        <time>2022-02-23T08:54:28Z</time>
      </trkpt>
      <trkpt lat="47.70456" lon="3.66235">
        <ele>206.6</ele>
        <time>2022-02-23T08:54:29Z</time>
      </trkpt>
      <trkpt lat="47.70457" lon="3.66234">
        <ele>206.4</ele>
        <time>2022-02-23T08:54:30Z</time>
      </trkpt>
      <trkpt lat="47.70457" lon="3.66233">
        <ele>206.3</ele>
        <time>2022-02-23T08:54:31Z</time>
      </trkpt>
      <trkpt lat="47.70458" lon="3.66232">
        <ele>206.1</ele>
        <time>2022-02-23T08:54:32Z</time>
      </trkpt>
      <trkpt lat="47.70459" lon="3.6623">
        <ele>205.9</ele>
        <time>2022-02-23T08:54:34Z</time>
      </trkpt>
      <trkpt lat="47.7046" lon="3.66228">
        <ele>205.7</ele>
        <time>2022-02-23T08:54:35Z</time>
      </trkpt>
      <trkpt lat="47.70461" lon="3.66226">
        <ele>205.5</ele>
        <time>2022-02-23T08:54:36Z</time>
      </trkpt>
      <trkpt lat="47.70461" lon="3.66223">
        <ele>205.2</ele>
        <time>2022-02-23T08:54:37Z</time>
      </trkpt>
      <trkpt lat="47.70461" lon="3.66221">
        <ele>205.1</ele>
        <time>2022-02-23T08:54:38Z</time>
      </trkpt>
      <trkpt lat="47.70461" lon="3.6622">
        <ele>205</ele>
        <time>2022-02-23T08:54:39Z</time>
      </trkpt>
      <trkpt lat="47.70461" lon="3.66217">
        <ele>204.7</ele>
        <time>2022-02-23T08:54:40Z</time>
      </trkpt>
      <trkpt lat="47.70461" lon="3.66215">
        <ele>204.6</ele>
        <time>2022-02-23T08:54:41Z</time>
      </trkpt>
      <trkpt lat="47.70461" lon="3.66214">
        <ele>204.4</ele>
        <time>2022-02-23T08:54:42Z</time>
      </trkpt>
      <trkpt lat="47.7046" lon="3.66211">
        <ele>204.2</ele>
        <time>2022-02-23T08:54:44Z</time>
      </trkpt>
      <trkpt lat="47.7046" lon="3.6621">
        <ele>204</ele>
        <time>2022-02-23T08:54:45Z</time>
      </trkpt>
      <trkpt lat="47.7046" lon="3.66208">
        <ele>203.9</ele>
        <time>2022-02-23T08:54:46Z</time>
      </trkpt>
      <trkpt lat="47.70461" lon="3.66206">
        <ele>203.7</ele>
        <time>2022-02-23T08:54:48Z</time>
      </trkpt>
      <trkpt lat="47.70461" lon="3.66204">
        <ele>203.5</ele>
        <time>2022-02-23T08:54:49Z</time>
      </trkpt>
      <trkpt lat="47.70462" lon="3.66203">
        <ele>203.4</ele>
        <time>2022-02-23T08:54:50Z</time>
      </trkpt>
      <trkpt lat="47.70463" lon="3.66199">
        <ele>203</ele>
        <time>2022-02-23T08:54:52Z</time>
      </trkpt>
      <trkpt lat="47.70463" lon="3.66198">
        <ele>202.9</ele>
        <time>2022-02-23T08:54:53Z</time>
      </trkpt>
      <trkpt lat="47.70463" lon="3.66196">
        <ele>202.7</ele>
        <time>2022-02-23T08:54:54Z</time>
      </trkpt>
      <trkpt lat="47.70463" lon="3.66194">
        <ele>202.6</ele>
        <time>2022-02-23T08:54:55Z</time>
      </trkpt>
      <trkpt lat="47.70463" lon="3.66191">
        <ele>202.3</ele>
        <time>2022-02-23T08:54:56Z</time>
      </trkpt>
      <trkpt lat="47.70464" lon="3.6619">
        <ele>202.2</ele>
        <time>2022-02-23T08:54:57Z</time>
      </trkpt>
      <trkpt lat="47.70464" lon="3.66189">
        <ele>202</ele>
        <time>2022-02-23T08:54:58Z</time>
      </trkpt>
      <trkpt lat="47.70464" lon="3.66186">
        <ele>201.8</ele>
        <time>2022-02-23T08:55:00Z</time>
      </trkpt>
      <trkpt lat="47.70464" lon="3.66184">
        <ele>201.6</ele>
        <time>2022-02-23T08:55:02Z</time>
      </trkpt>
      <trkpt lat="47.70464" lon="3.66183">
        <ele>201.5</ele>
        <time>2022-02-23T08:55:03Z</time>
      </trkpt>
      <trkpt lat="47.70464" lon="3.66181">
        <ele>201.4</ele>
        <time>2022-02-23T08:55:04Z</time>
      </trkpt>
      <trkpt lat="47.70464" lon="3.6618">
        <ele>201.2</ele>
        <time>2022-02-23T08:55:05Z</time>
      </trkpt>
      <trkpt lat="47.70464" lon="3.66178">
        <ele>201.1</ele>
        <time>2022-02-23T08:55:06Z</time>
      </trkpt>
      <trkpt lat="47.70464" lon="3.66178">
        <ele>201.1</ele>
        <time>2022-02-23T08:55:07Z</time>
      </trkpt>
      <trkpt lat="47.70464" lon="3.66177">
        <ele>201</ele>
        <time>2022-02-23T08:55:08Z</time>
      </trkpt>
      <trkpt lat="47.70464" lon="3.66177">
        <ele>200.9</ele>
        <time>2022-02-23T08:55:09Z</time>
      </trkpt>
      <trkpt lat="47.70464" lon="3.66176">
        <ele>200.8</ele>
        <time>2022-02-23T08:55:10Z</time>
      </trkpt>
      <trkpt lat="47.70465" lon="3.66172">
        <ele>200.5</ele>
        <time>2022-02-23T08:55:12Z</time>
      </trkpt>
      <trkpt lat="47.70465" lon="3.66171">
        <ele>200.4</ele>
        <time>2022-02-23T08:55:13Z</time>
      </trkpt>
      <trkpt lat="47.70465" lon="3.6617">
        <ele>200.3</ele>
        <time>2022-02-23T08:55:14Z</time>
      </trkpt>
      <trkpt lat="47.70465" lon="3.66166">
        <ele>199.9</ele>
        <time>2022-02-23T08:55:15Z</time>
      </trkpt>
      <trkpt lat="47.70466" lon="3.66164">
        <ele>199.8</ele>
        <time>2022-02-23T08:55:16Z</time>
      </trkpt>
      <trkpt lat="47.70466" lon="3.66162">
        <ele>199.6</ele>
        <time>2022-02-23T08:55:18Z</time>
      </trkpt>
      <trkpt lat="47.70467" lon="3.66161">
        <ele>199.4</ele>
        <time>2022-02-23T08:55:19Z</time>
      </trkpt>
      <trkpt lat="47.70467" lon="3.66159">
        <ele>199.2</ele>
        <time>2022-02-23T08:55:20Z</time>
      </trkpt>
      <trkpt lat="47.70467" lon="3.66158">
        <ele>199.1</ele>
        <time>2022-02-23T08:55:21Z</time>
      </trkpt>
      <trkpt lat="47.70468" lon="3.66157">
        <ele>199</ele>
        <time>2022-02-23T08:55:22Z</time>
      </trkpt>
      <trkpt lat="47.70468" lon="3.66154">
        <ele>198.8</ele>
        <time>2022-02-23T08:55:23Z</time>
      </trkpt>
      <trkpt lat="47.70469" lon="3.66152">
        <ele>198.6</ele>
        <time>2022-02-23T08:55:25Z</time>
      </trkpt>
      <trkpt lat="47.70469" lon="3.6615">
        <ele>198.4</ele>
        <time>2022-02-23T08:55:26Z</time>
      </trkpt>
      <trkpt lat="47.7047" lon="3.66149">
        <ele>198.3</ele>
        <time>2022-02-23T08:55:27Z</time>
      </trkpt>
      <trkpt lat="47.7047" lon="3.66147">
        <ele>198.1</ele>
        <time>2022-02-23T08:55:28Z</time>
      </trkpt>
      <trkpt lat="47.70471" lon="3.66145">
        <ele>197.9</ele>
        <time>2022-02-23T08:55:29Z</time>
      </trkpt>
      <trkpt lat="47.70471" lon="3.66142">
        <ele>197.7</ele>
        <time>2022-02-23T08:55:30Z</time>
      </trkpt>
      <trkpt lat="47.70471" lon="3.6614">
        <ele>197.5</ele>
        <time>2022-02-23T08:55:31Z</time>
      </trkpt>
      <trkpt lat="47.70471" lon="3.66138">
        <ele>197.2</ele>
        <time>2022-02-23T08:55:33Z</time>
      </trkpt>
      <trkpt lat="47.70472" lon="3.66136">
        <ele>197</ele>
        <time>2022-02-23T08:55:34Z</time>
      </trkpt>
      <trkpt lat="47.70472" lon="3.66134">
        <ele>196.9</ele>
        <time>2022-02-23T08:55:35Z</time>
      </trkpt>
      <trkpt lat="47.70473" lon="3.66132">
        <ele>196.7</ele>
        <time>2022-02-23T08:55:36Z</time>
      </trkpt>
      <trkpt lat="47.70473" lon="3.6613">
        <ele>196.5</ele>
        <time>2022-02-23T08:55:37Z</time>
      </trkpt>
      <trkpt lat="47.70475" lon="3.66128">
        <ele>196.2</ele>
        <time>2022-02-23T08:55:38Z</time>
      </trkpt>
      <trkpt lat="47.70475" lon="3.66127">
        <ele>196.1</ele>
        <time>2022-02-23T08:55:39Z</time>
      </trkpt>
      <trkpt lat="47.70476" lon="3.66126">
        <ele>196</ele>
        <time>2022-02-23T08:55:40Z</time>
      </trkpt>
      <trkpt lat="47.70477" lon="3.66124">
        <ele>195.8</ele>
        <time>2022-02-23T08:55:41Z</time>
      </trkpt>
      <trkpt lat="47.70476" lon="3.66121">
        <ele>195.5</ele>
        <time>2022-02-23T08:55:43Z</time>
      </trkpt>
      <trkpt lat="47.70476" lon="3.66119">
        <ele>195.3</ele>
        <time>2022-02-23T08:55:44Z</time>
      </trkpt>
      <trkpt lat="47.70476" lon="3.6612">
        <ele>195.3</ele>
        <time>2022-02-23T08:55:45Z</time>
      </trkpt>
      <trkpt lat="47.70476" lon="3.6612">
        <ele>195.2</ele>
        <time>2022-02-23T08:55:46Z</time>
      </trkpt>
      <trkpt lat="47.70476" lon="3.66119">
        <ele>195.1</ele>
        <time>2022-02-23T08:55:47Z</time>
      </trkpt>
      <trkpt lat="47.70477" lon="3.66116">
        <ele>194.9</ele>
        <time>2022-02-23T08:55:48Z</time>
      </trkpt>
      <trkpt lat="47.70477" lon="3.66114">
        <ele>194.7</ele>
        <time>2022-02-23T08:55:50Z</time>
      </trkpt>
      <trkpt lat="47.70478" lon="3.66111">
        <ele>194.4</ele>
        <time>2022-02-23T08:55:51Z</time>
      </trkpt>
      <trkpt lat="47.70477" lon="3.66109">
        <ele>194.2</ele>
        <time>2022-02-23T08:55:52Z</time>
      </trkpt>
      <trkpt lat="47.70477" lon="3.66106">
        <ele>194</ele>
        <time>2022-02-23T08:55:53Z</time>
      </trkpt>
      <trkpt lat="47.70478" lon="3.66103">
        <ele>193.7</ele>
        <time>2022-02-23T08:55:55Z</time>
      </trkpt>
      <trkpt lat="47.70478" lon="3.66102">
        <ele>193.6</ele>
        <time>2022-02-23T08:55:56Z</time>
      </trkpt>
      <trkpt lat="47.70478" lon="3.66101">
        <ele>193.5</ele>
        <time>2022-02-23T08:55:57Z</time>
      </trkpt>
      <trkpt lat="47.70478" lon="3.661">
        <ele>193.5</ele>
        <time>2022-02-23T08:55:58Z</time>
      </trkpt>
      <trkpt lat="47.70478" lon="3.66098">
        <ele>193.2</ele>
        <time>2022-02-23T08:55:59Z</time>
      </trkpt>
      <trkpt lat="47.70479" lon="3.66096">
        <ele>193.1</ele>
        <time>2022-02-23T08:56:00Z</time>
      </trkpt>
      <trkpt lat="47.70479" lon="3.66095">
        <ele>193</ele>
        <time>2022-02-23T08:56:01Z</time>
      </trkpt>
      <trkpt lat="47.70479" lon="3.66092">
        <ele>192.7</ele>
        <time>2022-02-23T08:56:02Z</time>
      </trkpt>
      <trkpt lat="47.7048" lon="3.66091">
        <ele>192.5</ele>
        <time>2022-02-23T08:56:03Z</time>
      </trkpt>
      <trkpt lat="47.7048" lon="3.66089">
        <ele>192.4</ele>
        <time>2022-02-23T08:56:04Z</time>
      </trkpt>
      <trkpt lat="47.7048" lon="3.66088">
        <ele>192.3</ele>
        <time>2022-02-23T08:56:05Z</time>
      </trkpt>
      <trkpt lat="47.7048" lon="3.66087">
        <ele>192.2</ele>
        <time>2022-02-23T08:56:06Z</time>
      </trkpt>
      <trkpt lat="47.7048" lon="3.66085">
        <ele>192</ele>
        <time>2022-02-23T08:56:07Z</time>
      </trkpt>
      <trkpt lat="47.7048" lon="3.66083">
        <ele>191.8</ele>
        <time>2022-02-23T08:56:08Z</time>
      </trkpt>
      <trkpt lat="47.70481" lon="3.66082">
        <ele>191.7</ele>
        <time>2022-02-23T08:56:09Z</time>
      </trkpt>
      <trkpt lat="47.70481" lon="3.6608">
        <ele>191.6</ele>
        <time>2022-02-23T08:56:10Z</time>
      </trkpt>
      <trkpt lat="47.70482" lon="3.66078">
        <ele>191.4</ele>
        <time>2022-02-23T08:56:11Z</time>
      </trkpt>
      <trkpt lat="47.70482" lon="3.66076">
        <ele>191.2</ele>
        <time>2022-02-23T08:56:13Z</time>
      </trkpt>
      <trkpt lat="47.70483" lon="3.66073">
        <ele>190.9</ele>
        <time>2022-02-23T08:56:14Z</time>
      </trkpt>
      <trkpt lat="47.70484" lon="3.66072">
        <ele>190.8</ele>
        <time>2022-02-23T08:56:15Z</time>
      </trkpt>
      <trkpt lat="47.70484" lon="3.6607">
        <ele>190.6</ele>
        <time>2022-02-23T08:56:16Z</time>
      </trkpt>
      <trkpt lat="47.70485" lon="3.66068">
        <ele>190.4</ele>
        <time>2022-02-23T08:56:17Z</time>
      </trkpt>
      <trkpt lat="47.70485" lon="3.66066">
        <ele>190.2</ele>
        <time>2022-02-23T08:56:18Z</time>
      </trkpt>
      <trkpt lat="47.70485" lon="3.66065">
        <ele>190</ele>
        <time>2022-02-23T08:56:19Z</time>
      </trkpt>
      <trkpt lat="47.70485" lon="3.66063">
        <ele>189.9</ele>
        <time>2022-02-23T08:56:20Z</time>
      </trkpt>
      <trkpt lat="47.70485" lon="3.66062">
        <ele>189.8</ele>
        <time>2022-02-23T08:56:21Z</time>
      </trkpt>
      <trkpt lat="47.70485" lon="3.66061">
        <ele>189.7</ele>
        <time>2022-02-23T08:56:23Z</time>
      </trkpt>
      <trkpt lat="47.70485" lon="3.66061">
        <ele>189.6</ele>
        <time>2022-02-23T08:56:24Z</time>
      </trkpt>
      <trkpt lat="47.70485" lon="3.6606">
        <ele>189.6</ele>
        <time>2022-02-23T08:56:25Z</time>
      </trkpt>
      <trkpt lat="47.70486" lon="3.6606">
        <ele>189.5</ele>
        <time>2022-02-23T08:56:26Z</time>
      </trkpt>
      <trkpt lat="47.70487" lon="3.66059">
        <ele>189.3</ele>
        <time>2022-02-23T08:56:27Z</time>
      </trkpt>
      <trkpt lat="47.70488" lon="3.66058">
        <ele>189.1</ele>
        <time>2022-02-23T08:56:28Z</time>
      </trkpt>
      <trkpt lat="47.70489" lon="3.66056">
        <ele>188.9</ele>
        <time>2022-02-23T08:56:29Z</time>
      </trkpt>
      <trkpt lat="47.70491" lon="3.66053">
        <ele>188.6</ele>
        <time>2022-02-23T08:56:30Z</time>
      </trkpt>
      <trkpt lat="47.70491" lon="3.66052">
        <ele>188.4</ele>
        <time>2022-02-23T08:56:32Z</time>
      </trkpt>
      <trkpt lat="47.70491" lon="3.6605">
        <ele>188.3</ele>
        <time>2022-02-23T08:56:33Z</time>
      </trkpt>
      <trkpt lat="47.70492" lon="3.66049">
        <ele>188.1</ele>
        <time>2022-02-23T08:56:35Z</time>
      </trkpt>
      <trkpt lat="47.70492" lon="3.66047">
        <ele>188</ele>
        <time>2022-02-23T08:56:36Z</time>
      </trkpt>
      <trkpt lat="47.70493" lon="3.66044">
        <ele>187.7</ele>
        <time>2022-02-23T08:56:37Z</time>
      </trkpt>
      <trkpt lat="47.70493" lon="3.66043">
        <ele>187.6</ele>
        <time>2022-02-23T08:56:38Z</time>
      </trkpt>
      <trkpt lat="47.70493" lon="3.66042">
        <ele>187.5</ele>
        <time>2022-02-23T08:56:39Z</time>
      </trkpt>
      <trkpt lat="47.70494" lon="3.66039">
        <ele>187.2</ele>
        <time>2022-02-23T08:56:41Z</time>
      </trkpt>
      <trkpt lat="47.70495" lon="3.66037">
        <ele>187</ele>
        <time>2022-02-23T08:56:42Z</time>
      </trkpt>
      <trkpt lat="47.70495" lon="3.66035">
        <ele>186.8</ele>
        <time>2022-02-23T08:56:43Z</time>
      </trkpt>
      <trkpt lat="47.70494" lon="3.66033">
        <ele>186.6</ele>
        <time>2022-02-23T08:56:44Z</time>
      </trkpt>
      <trkpt lat="47.70494" lon="3.6603">
        <ele>186.4</ele>
        <time>2022-02-23T08:56:46Z</time>
      </trkpt>
      <trkpt lat="47.70493" lon="3.66029">
        <ele>186.5</ele>
        <time>2022-02-23T08:56:47Z</time>
      </trkpt>
      <trkpt lat="47.70492" lon="3.66027">
        <ele>186.5</ele>
        <time>2022-02-23T08:56:48Z</time>
      </trkpt>
      <trkpt lat="47.70491" lon="3.66025">
        <ele>186.6</ele>
        <time>2022-02-23T08:56:49Z</time>
      </trkpt>
      <trkpt lat="47.7049" lon="3.66024">
        <ele>186.6</ele>
        <time>2022-02-23T08:56:50Z</time>
      </trkpt>
      <trkpt lat="47.70489" lon="3.66023">
        <ele>186.7</ele>
        <time>2022-02-23T08:56:51Z</time>
      </trkpt>
      <trkpt lat="47.70487" lon="3.66022">
        <ele>186.7</ele>
        <time>2022-02-23T08:56:52Z</time>
      </trkpt>
      <trkpt lat="47.70486" lon="3.66021">
        <ele>186.8</ele>
        <time>2022-02-23T08:56:53Z</time>
      </trkpt>
      <trkpt lat="47.70485" lon="3.6602">
        <ele>186.8</ele>
        <time>2022-02-23T08:56:55Z</time>
      </trkpt>
      <trkpt lat="47.70484" lon="3.66018">
        <ele>186.9</ele>
        <time>2022-02-23T08:56:56Z</time>
      </trkpt>
      <trkpt lat="47.70482" lon="3.66017">
        <ele>186.9</ele>
        <time>2022-02-23T08:56:57Z</time>
      </trkpt>
      <trkpt lat="47.70482" lon="3.66017">
        <ele>186.9</ele>
        <time>2022-02-23T08:56:58Z</time>
      </trkpt>
      <trkpt lat="47.70481" lon="3.66017">
        <ele>187</ele>
        <time>2022-02-23T08:57:00Z</time>
      </trkpt>
      <trkpt lat="47.7048" lon="3.66016">
        <ele>187</ele>
        <time>2022-02-23T08:57:01Z</time>
      </trkpt>
      <trkpt lat="47.70479" lon="3.66015">
        <ele>187</ele>
        <time>2022-02-23T08:57:03Z</time>
      </trkpt>
      <trkpt lat="47.70478" lon="3.66014">
        <ele>187</ele>
        <time>2022-02-23T08:57:04Z</time>
      </trkpt>
      <trkpt lat="47.70478" lon="3.66013">
        <ele>187.1</ele>
        <time>2022-02-23T08:57:05Z</time>
      </trkpt>
      <trkpt lat="47.70477" lon="3.66012">
        <ele>187.1</ele>
        <time>2022-02-23T08:57:06Z</time>
      </trkpt>
      <trkpt lat="47.70476" lon="3.6601">
        <ele>187.1</ele>
        <time>2022-02-23T08:57:07Z</time>
      </trkpt>
      <trkpt lat="47.70476" lon="3.66009">
        <ele>187.2</ele>
        <time>2022-02-23T08:57:08Z</time>
      </trkpt>
      <trkpt lat="47.70475" lon="3.66009">
        <ele>187.2</ele>
        <time>2022-02-23T08:57:09Z</time>
      </trkpt>
      <trkpt lat="47.70475" lon="3.66007">
        <ele>187.2</ele>
        <time>2022-02-23T08:57:11Z</time>
      </trkpt>
      <trkpt lat="47.70475" lon="3.66006">
        <ele>187.2</ele>
        <time>2022-02-23T08:57:12Z</time>
      </trkpt>
      <trkpt lat="47.70475" lon="3.66005">
        <ele>187.2</ele>
        <time>2022-02-23T08:57:14Z</time>
      </trkpt>
      <trkpt lat="47.70474" lon="3.66004">
        <ele>187.3</ele>
        <time>2022-02-23T08:57:15Z</time>
      </trkpt>
      <trkpt lat="47.70474" lon="3.66003">
        <ele>187.3</ele>
        <time>2022-02-23T08:57:16Z</time>
      </trkpt>
      <trkpt lat="47.70472" lon="3.66001">
        <ele>187.3</ele>
        <time>2022-02-23T08:57:17Z</time>
      </trkpt>
      <trkpt lat="47.70471" lon="3.66">
        <ele>187.3</ele>
        <time>2022-02-23T08:57:18Z</time>
      </trkpt>
      <trkpt lat="47.70471" lon="3.65999">
        <ele>187.4</ele>
        <time>2022-02-23T08:57:19Z</time>
      </trkpt>
      <trkpt lat="47.70469" lon="3.65997">
        <ele>187.4</ele>
        <time>2022-02-23T08:57:21Z</time>
      </trkpt>
      <trkpt lat="47.70468" lon="3.65996">
        <ele>187.4</ele>
        <time>2022-02-23T08:57:22Z</time>
      </trkpt>
      <trkpt lat="47.70467" lon="3.65995">
        <ele>187.5</ele>
        <time>2022-02-23T08:57:23Z</time>
      </trkpt>
      <trkpt lat="47.70466" lon="3.65994">
        <ele>187.5</ele>
        <time>2022-02-23T08:57:24Z</time>
      </trkpt>
      <trkpt lat="47.70466" lon="3.65994">
        <ele>187.5</ele>
        <time>2022-02-23T08:57:25Z</time>
      </trkpt>
      <trkpt lat="47.70464" lon="3.65994">
        <ele>187.5</ele>
        <time>2022-02-23T08:57:27Z</time>
      </trkpt>
      <trkpt lat="47.70464" lon="3.65993">
        <ele>187.5</ele>
        <time>2022-02-23T08:57:28Z</time>
      </trkpt>
      <trkpt lat="47.70463" lon="3.65993">
        <ele>187.5</ele>
        <time>2022-02-23T08:57:29Z</time>
      </trkpt>
      <trkpt lat="47.70463" lon="3.65993">
        <ele>187.5</ele>
        <time>2022-02-23T08:57:30Z</time>
      </trkpt>
      <trkpt lat="47.70463" lon="3.65993">
        <ele>187.5</ele>
        <time>2022-02-23T08:57:31Z</time>
      </trkpt>
      <trkpt lat="47.70464" lon="3.65993">
        <ele>187.6</ele>
        <time>2022-02-23T08:57:32Z</time>
      </trkpt>
      <trkpt lat="47.70464" lon="3.65993">
        <ele>187.6</ele>
        <time>2022-02-23T08:57:33Z</time>
      </trkpt>
      <trkpt lat="47.70464" lon="3.65994">
        <ele>187.6</ele>
        <time>2022-02-23T08:57:34Z</time>
      </trkpt>
      <trkpt lat="47.70464" lon="3.65994">
        <ele>187.6</ele>
        <time>2022-02-23T08:57:35Z</time>
      </trkpt>
      <trkpt lat="47.70465" lon="3.65994">
        <ele>187.6</ele>
        <time>2022-02-23T08:57:36Z</time>
      </trkpt>
      <trkpt lat="47.70465" lon="3.65994">
        <ele>187.6</ele>
        <time>2022-02-23T08:57:37Z</time>
      </trkpt>
      <trkpt lat="47.70465" lon="3.65995">
        <ele>187.6</ele>
        <time>2022-02-23T08:57:38Z</time>
      </trkpt>
      <trkpt lat="47.70465" lon="3.65995">
        <ele>187.6</ele>
        <time>2022-02-23T08:57:39Z</time>
      </trkpt>
      <trkpt lat="47.70465" lon="3.65995">
        <ele>187.6</ele>
        <time>2022-02-23T08:57:40Z</time>
      </trkpt>
      <trkpt lat="47.70466" lon="3.65996">
        <ele>187.6</ele>
        <time>2022-02-23T08:57:41Z</time>
      </trkpt>
      <trkpt lat="47.70466" lon="3.65996">
        <ele>187.6</ele>
        <time>2022-02-23T08:57:43Z</time>
      </trkpt>
      <trkpt lat="47.70466" lon="3.65996">
        <ele>187.6</ele>
        <time>2022-02-23T08:57:44Z</time>
      </trkpt>
      <trkpt lat="47.70466" lon="3.65996">
        <ele>187.6</ele>
        <time>2022-02-23T08:57:45Z</time>
      </trkpt>
      <trkpt lat="47.70467" lon="3.65997">
        <ele>187.6</ele>
        <time>2022-02-23T08:57:47Z</time>
      </trkpt>
      <trkpt lat="47.70467" lon="3.65997">
        <ele>187.6</ele>
        <time>2022-02-23T08:57:48Z</time>
      </trkpt>
      <trkpt lat="47.70467" lon="3.65997">
        <ele>187.6</ele>
        <time>2022-02-23T08:57:49Z</time>
      </trkpt>
      <trkpt lat="47.70467" lon="3.65997">
        <ele>187.6</ele>
        <time>2022-02-23T08:57:50Z</time>
      </trkpt>
      <trkpt lat="47.70468" lon="3.65998">
        <ele>187.6</ele>
        <time>2022-02-23T08:57:51Z</time>
      </trkpt>
      <trkpt lat="47.70468" lon="3.65998">
        <ele>187.6</ele>
        <time>2022-02-23T08:57:52Z</time>
      </trkpt>
      <trkpt lat="47.70468" lon="3.65998">
        <ele>187.6</ele>
        <time>2022-02-23T08:57:53Z</time>
      </trkpt>
      <trkpt lat="47.70468" lon="3.65998">
        <ele>187.7</ele>
        <time>2022-02-23T08:57:55Z</time>
      </trkpt>
      <trkpt lat="47.70468" lon="3.65999">
        <ele>187.7</ele>
        <time>2022-02-23T08:57:57Z</time>
      </trkpt>
      <trkpt lat="47.70469" lon="3.65999">
        <ele>187.7</ele>
        <time>2022-02-23T08:57:58Z</time>
      </trkpt>
      <trkpt lat="47.7047" lon="3.66001">
        <ele>187.7</ele>
        <time>2022-02-23T08:57:59Z</time>
      </trkpt>
      <trkpt lat="47.70471" lon="3.66001">
        <ele>187.7</ele>
        <time>2022-02-23T08:58:00Z</time>
      </trkpt>
      <trkpt lat="47.70472" lon="3.66002">
        <ele>187.7</ele>
        <time>2022-02-23T08:58:01Z</time>
      </trkpt>
      <trkpt lat="47.70473" lon="3.66003">
        <ele>187.6</ele>
        <time>2022-02-23T08:58:02Z</time>
      </trkpt>
      <trkpt lat="47.70474" lon="3.66003">
        <ele>187.6</ele>
        <time>2022-02-23T08:58:03Z</time>
      </trkpt>
      <trkpt lat="47.70475" lon="3.66004">
        <ele>187.6</ele>
        <time>2022-02-23T08:58:04Z</time>
      </trkpt>
      <trkpt lat="47.70476" lon="3.66005">
        <ele>187.5</ele>
        <time>2022-02-23T08:58:05Z</time>
      </trkpt>
      <trkpt lat="47.70477" lon="3.66007">
        <ele>187.5</ele>
        <time>2022-02-23T08:58:07Z</time>
      </trkpt>
      <trkpt lat="47.70478" lon="3.66008">
        <ele>187.5</ele>
        <time>2022-02-23T08:58:08Z</time>
      </trkpt>
      <trkpt lat="47.70479" lon="3.66009">
        <ele>187.4</ele>
        <time>2022-02-23T08:58:09Z</time>
      </trkpt>
      <trkpt lat="47.7048" lon="3.66011">
        <ele>187.4</ele>
        <time>2022-02-23T08:58:11Z</time>
      </trkpt>
      <trkpt lat="47.70481" lon="3.66012">
        <ele>187.3</ele>
        <time>2022-02-23T08:58:12Z</time>
      </trkpt>
      <trkpt lat="47.70482" lon="3.66013">
        <ele>187.3</ele>
        <time>2022-02-23T08:58:13Z</time>
      </trkpt>
      <trkpt lat="47.70483" lon="3.66015">
        <ele>187.2</ele>
        <time>2022-02-23T08:58:14Z</time>
      </trkpt>
      <trkpt lat="47.70483" lon="3.66015">
        <ele>187.2</ele>
        <time>2022-02-23T08:58:15Z</time>
      </trkpt>
      <trkpt lat="47.70484" lon="3.66017">
        <ele>187.2</ele>
        <time>2022-02-23T08:58:16Z</time>
      </trkpt>
      <trkpt lat="47.70484" lon="3.66018">
        <ele>187.1</ele>
        <time>2022-02-23T08:58:17Z</time>
      </trkpt>
      <trkpt lat="47.70485" lon="3.6602">
        <ele>187</ele>
        <time>2022-02-23T08:58:18Z</time>
      </trkpt>
      <trkpt lat="47.70487" lon="3.66021">
        <ele>187</ele>
        <time>2022-02-23T08:58:20Z</time>
      </trkpt>
      <trkpt lat="47.70488" lon="3.66021">
        <ele>186.9</ele>
        <time>2022-02-23T08:58:22Z</time>
      </trkpt>
      <trkpt lat="47.70488" lon="3.66022">
        <ele>186.9</ele>
        <time>2022-02-23T08:58:23Z</time>
      </trkpt>
      <trkpt lat="47.70488" lon="3.66022">
        <ele>186.9</ele>
        <time>2022-02-23T08:58:24Z</time>
      </trkpt>
      <trkpt lat="47.70489" lon="3.66023">
        <ele>186.8</ele>
        <time>2022-02-23T08:58:25Z</time>
      </trkpt>
      <trkpt lat="47.7049" lon="3.66024">
        <ele>186.8</ele>
        <time>2022-02-23T08:58:26Z</time>
      </trkpt>
      <trkpt lat="47.70491" lon="3.66024">
        <ele>186.7</ele>
        <time>2022-02-23T08:58:27Z</time>
      </trkpt>
      <trkpt lat="47.70492" lon="3.66025">
        <ele>186.7</ele>
        <time>2022-02-23T08:58:28Z</time>
      </trkpt>
      <trkpt lat="47.70492" lon="3.66026">
        <ele>186.6</ele>
        <time>2022-02-23T08:58:29Z</time>
      </trkpt>
      <trkpt lat="47.70493" lon="3.66027">
        <ele>186.5</ele>
        <time>2022-02-23T08:58:31Z</time>
      </trkpt>
      <trkpt lat="47.70495" lon="3.66027">
        <ele>186.5</ele>
        <time>2022-02-23T08:58:32Z</time>
      </trkpt>
      <trkpt lat="47.70495" lon="3.66026">
        <ele>186.4</ele>
        <time>2022-02-23T08:58:33Z</time>
      </trkpt>
      <trkpt lat="47.70496" lon="3.66026">
        <ele>185.9</ele>
        <time>2022-02-23T08:58:34Z</time>
      </trkpt>
      <trkpt lat="47.70497" lon="3.66024">
        <ele>185.8</ele>
        <time>2022-02-23T08:58:35Z</time>
      </trkpt>
      <trkpt lat="47.70498" lon="3.66023">
        <ele>185.6</ele>
        <time>2022-02-23T08:58:36Z</time>
      </trkpt>
      <trkpt lat="47.70498" lon="3.66019">
        <ele>185.3</ele>
        <time>2022-02-23T08:58:37Z</time>
      </trkpt>
      <trkpt lat="47.70498" lon="3.66018">
        <ele>185.2</ele>
        <time>2022-02-23T08:58:39Z</time>
      </trkpt>
      <trkpt lat="47.70499" lon="3.66017">
        <ele>185.1</ele>
        <time>2022-02-23T08:58:40Z</time>
      </trkpt>
      <trkpt lat="47.70499" lon="3.66016">
        <ele>185</ele>
        <time>2022-02-23T08:58:41Z</time>
      </trkpt>
      <trkpt lat="47.705" lon="3.66015">
        <ele>184.9</ele>
        <time>2022-02-23T08:58:42Z</time>
      </trkpt>
      <trkpt lat="47.705" lon="3.66014">
        <ele>184.8</ele>
        <time>2022-02-23T08:58:43Z</time>
      </trkpt>
      <trkpt lat="47.70501" lon="3.66012">
        <ele>184.6</ele>
        <time>2022-02-23T08:58:44Z</time>
      </trkpt>
      <trkpt lat="47.70502" lon="3.66011">
        <ele>184.5</ele>
        <time>2022-02-23T08:58:45Z</time>
      </trkpt>
      <trkpt lat="47.70502" lon="3.6601">
        <ele>184.4</ele>
        <time>2022-02-23T08:58:46Z</time>
      </trkpt>
      <trkpt lat="47.70502" lon="3.66008">
        <ele>184.3</ele>
        <time>2022-02-23T08:58:47Z</time>
      </trkpt>
      <trkpt lat="47.70503" lon="3.66006">
        <ele>184.1</ele>
        <time>2022-02-23T08:58:49Z</time>
      </trkpt>
      <trkpt lat="47.70503" lon="3.66005">
        <ele>184</ele>
        <time>2022-02-23T08:58:50Z</time>
      </trkpt>
      <trkpt lat="47.70504" lon="3.66002">
        <ele>183.8</ele>
        <time>2022-02-23T08:58:51Z</time>
      </trkpt>
      <trkpt lat="47.70504" lon="3.66001">
        <ele>183.7</ele>
        <time>2022-02-23T08:58:52Z</time>
      </trkpt>
      <trkpt lat="47.70505" lon="3.66">
        <ele>183.6</ele>
        <time>2022-02-23T08:58:53Z</time>
      </trkpt>
      <trkpt lat="47.70506" lon="3.65996">
        <ele>183.3</ele>
        <time>2022-02-23T08:58:55Z</time>
      </trkpt>
      <trkpt lat="47.70506" lon="3.65995">
        <ele>183.2</ele>
        <time>2022-02-23T08:58:56Z</time>
      </trkpt>
      <trkpt lat="47.70506" lon="3.65993">
        <ele>183.1</ele>
        <time>2022-02-23T08:58:57Z</time>
      </trkpt>
      <trkpt lat="47.70506" lon="3.6599">
        <ele>182.9</ele>
        <time>2022-02-23T08:58:58Z</time>
      </trkpt>
      <trkpt lat="47.70507" lon="3.65988">
        <ele>182.7</ele>
        <time>2022-02-23T08:59:00Z</time>
      </trkpt>
      <trkpt lat="47.70507" lon="3.65986">
        <ele>182.5</ele>
        <time>2022-02-23T08:59:01Z</time>
      </trkpt>
      <trkpt lat="47.70508" lon="3.65985">
        <ele>182.4</ele>
        <time>2022-02-23T08:59:02Z</time>
      </trkpt>
      <trkpt lat="47.70509" lon="3.65983">
        <ele>182.2</ele>
        <time>2022-02-23T08:59:03Z</time>
      </trkpt>
      <trkpt lat="47.7051" lon="3.65982">
        <ele>182.1</ele>
        <time>2022-02-23T08:59:04Z</time>
      </trkpt>
      <trkpt lat="47.70511" lon="3.6598">
        <ele>182</ele>
        <time>2022-02-23T08:59:05Z</time>
      </trkpt>
      <trkpt lat="47.70512" lon="3.65979">
        <ele>181.8</ele>
        <time>2022-02-23T08:59:06Z</time>
      </trkpt>
      <trkpt lat="47.70513" lon="3.65977">
        <ele>181.7</ele>
        <time>2022-02-23T08:59:07Z</time>
      </trkpt>
      <trkpt lat="47.70514" lon="3.65975">
        <ele>181.6</ele>
        <time>2022-02-23T08:59:09Z</time>
      </trkpt>
      <trkpt lat="47.70514" lon="3.65975">
        <ele>181.6</ele>
        <time>2022-02-23T08:59:10Z</time>
      </trkpt>
      <trkpt lat="47.70515" lon="3.65975">
        <ele>181.5</ele>
        <time>2022-02-23T08:59:11Z</time>
      </trkpt>
      <trkpt lat="47.70516" lon="3.65974">
        <ele>181.4</ele>
        <time>2022-02-23T08:59:12Z</time>
      </trkpt>
      <trkpt lat="47.70517" lon="3.65972">
        <ele>181.2</ele>
        <time>2022-02-23T08:59:14Z</time>
      </trkpt>
      <trkpt lat="47.70518" lon="3.6597">
        <ele>181.1</ele>
        <time>2022-02-23T08:59:15Z</time>
      </trkpt>
      <trkpt lat="47.70519" lon="3.65968">
        <ele>181</ele>
        <time>2022-02-23T08:59:16Z</time>
      </trkpt>
      <trkpt lat="47.7052" lon="3.65966">
        <ele>180.9</ele>
        <time>2022-02-23T08:59:17Z</time>
      </trkpt>
      <trkpt lat="47.7052" lon="3.65964">
        <ele>180.7</ele>
        <time>2022-02-23T08:59:18Z</time>
      </trkpt>
      <trkpt lat="47.70521" lon="3.65961">
        <ele>180.6</ele>
        <time>2022-02-23T08:59:20Z</time>
      </trkpt>
      <trkpt lat="47.70522" lon="3.6596">
        <ele>180.5</ele>
        <time>2022-02-23T08:59:21Z</time>
      </trkpt>
      <trkpt lat="47.70522" lon="3.6596">
        <ele>180.5</ele>
        <time>2022-02-23T08:59:22Z</time>
      </trkpt>
      <trkpt lat="47.70524" lon="3.65957">
        <ele>180.3</ele>
        <time>2022-02-23T08:59:23Z</time>
      </trkpt>
      <trkpt lat="47.70524" lon="3.65955">
        <ele>180.2</ele>
        <time>2022-02-23T08:59:25Z</time>
      </trkpt>
      <trkpt lat="47.70525" lon="3.65954">
        <ele>180.1</ele>
        <time>2022-02-23T08:59:26Z</time>
      </trkpt>
      <trkpt lat="47.70525" lon="3.65952">
        <ele>180</ele>
        <time>2022-02-23T08:59:27Z</time>
      </trkpt>
      <trkpt lat="47.70526" lon="3.65951">
        <ele>180</ele>
        <time>2022-02-23T08:59:28Z</time>
      </trkpt>
      <trkpt lat="47.70526" lon="3.65948">
        <ele>179.8</ele>
        <time>2022-02-23T08:59:30Z</time>
      </trkpt>
      <trkpt lat="47.70526" lon="3.65947">
        <ele>179.8</ele>
        <time>2022-02-23T08:59:31Z</time>
      </trkpt>
      <trkpt lat="47.70526" lon="3.65946">
        <ele>179.7</ele>
        <time>2022-02-23T08:59:32Z</time>
      </trkpt>
      <trkpt lat="47.70526" lon="3.65943">
        <ele>179.6</ele>
        <time>2022-02-23T08:59:33Z</time>
      </trkpt>
      <trkpt lat="47.70526" lon="3.65941">
        <ele>179.5</ele>
        <time>2022-02-23T08:59:34Z</time>
      </trkpt>
      <trkpt lat="47.70525" lon="3.6594">
        <ele>179.5</ele>
        <time>2022-02-23T08:59:35Z</time>
      </trkpt>
      <trkpt lat="47.70524" lon="3.65938">
        <ele>179.3</ele>
        <time>2022-02-23T08:59:36Z</time>
      </trkpt>
      <trkpt lat="47.70524" lon="3.65936">
        <ele>179.3</ele>
        <time>2022-02-23T08:59:37Z</time>
      </trkpt>
      <trkpt lat="47.70524" lon="3.65934">
        <ele>179.2</ele>
        <time>2022-02-23T08:59:39Z</time>
      </trkpt>
      <trkpt lat="47.70525" lon="3.65933">
        <ele>179.1</ele>
        <time>2022-02-23T08:59:40Z</time>
      </trkpt>
      <trkpt lat="47.70526" lon="3.65932">
        <ele>179</ele>
        <time>2022-02-23T08:59:41Z</time>
      </trkpt>
      <trkpt lat="47.70528" lon="3.6593">
        <ele>178.8</ele>
        <time>2022-02-23T08:59:43Z</time>
      </trkpt>
      <trkpt lat="47.70531" lon="3.65928">
        <ele>178.7</ele>
        <time>2022-02-23T08:59:44Z</time>
      </trkpt>
      <trkpt lat="47.70533" lon="3.65927">
        <ele>178.5</ele>
        <time>2022-02-23T08:59:46Z</time>
      </trkpt>
      <trkpt lat="47.70536" lon="3.65925">
        <ele>178.3</ele>
        <time>2022-02-23T08:59:47Z</time>
      </trkpt>
      <trkpt lat="47.70537" lon="3.65924">
        <ele>178.2</ele>
        <time>2022-02-23T08:59:48Z</time>
      </trkpt>
      <trkpt lat="47.70539" lon="3.65923">
        <ele>178.1</ele>
        <time>2022-02-23T08:59:49Z</time>
      </trkpt>
      <trkpt lat="47.7054" lon="3.65922">
        <ele>178</ele>
        <time>2022-02-23T08:59:50Z</time>
      </trkpt>
      <trkpt lat="47.70542" lon="3.6592">
        <ele>177.8</ele>
        <time>2022-02-23T08:59:51Z</time>
      </trkpt>
      <trkpt lat="47.70543" lon="3.65919">
        <ele>177.8</ele>
        <time>2022-02-23T08:59:52Z</time>
      </trkpt>
      <trkpt lat="47.70544" lon="3.65917">
        <ele>177.7</ele>
        <time>2022-02-23T08:59:54Z</time>
      </trkpt>
      <trkpt lat="47.70546" lon="3.65914">
        <ele>177.5</ele>
        <time>2022-02-23T08:59:56Z</time>
      </trkpt>
      <trkpt lat="47.70547" lon="3.65913">
        <ele>177.4</ele>
        <time>2022-02-23T08:59:57Z</time>
      </trkpt>
      <trkpt lat="47.70548" lon="3.65912">
        <ele>177.4</ele>
        <time>2022-02-23T08:59:58Z</time>
      </trkpt>
      <trkpt lat="47.70548" lon="3.65911">
        <ele>177.3</ele>
        <time>2022-02-23T08:59:59Z</time>
      </trkpt>
      <trkpt lat="47.7055" lon="3.65909">
        <ele>177.2</ele>
        <time>2022-02-23T09:00:00Z</time>
      </trkpt>
      <trkpt lat="47.7055" lon="3.65909">
        <ele>177.1</ele>
        <time>2022-02-23T09:00:01Z</time>
      </trkpt>
      <trkpt lat="47.70551" lon="3.65908">
        <ele>177.1</ele>
        <time>2022-02-23T09:00:02Z</time>
      </trkpt>
      <trkpt lat="47.70551" lon="3.65907">
        <ele>177.1</ele>
        <time>2022-02-23T09:00:03Z</time>
      </trkpt>
      <trkpt lat="47.70553" lon="3.65906">
        <ele>177</ele>
        <time>2022-02-23T09:00:05Z</time>
      </trkpt>
      <trkpt lat="47.70554" lon="3.65905">
        <ele>176.9</ele>
        <time>2022-02-23T09:00:06Z</time>
      </trkpt>
      <trkpt lat="47.70555" lon="3.65904">
        <ele>176.8</ele>
        <time>2022-02-23T09:00:07Z</time>
      </trkpt>
      <trkpt lat="47.70557" lon="3.65902">
        <ele>176.7</ele>
        <time>2022-02-23T09:00:08Z</time>
      </trkpt>
      <trkpt lat="47.70558" lon="3.65901">
        <ele>176.6</ele>
        <time>2022-02-23T09:00:09Z</time>
      </trkpt>
      <trkpt lat="47.70559" lon="3.65899">
        <ele>176.5</ele>
        <time>2022-02-23T09:00:10Z</time>
      </trkpt>
      <trkpt lat="47.7056" lon="3.65898">
        <ele>176.4</ele>
        <time>2022-02-23T09:00:11Z</time>
      </trkpt>
      <trkpt lat="47.7056" lon="3.65895">
        <ele>176.3</ele>
        <time>2022-02-23T09:00:12Z</time>
      </trkpt>
      <trkpt lat="47.70562" lon="3.65891">
        <ele>176.1</ele>
        <time>2022-02-23T09:00:14Z</time>
      </trkpt>
      <trkpt lat="47.70563" lon="3.6589">
        <ele>176.1</ele>
        <time>2022-02-23T09:00:15Z</time>
      </trkpt>
      <trkpt lat="47.70563" lon="3.65888">
        <ele>176</ele>
        <time>2022-02-23T09:00:16Z</time>
      </trkpt>
      <trkpt lat="47.70564" lon="3.65888">
        <ele>175.9</ele>
        <time>2022-02-23T09:00:17Z</time>
      </trkpt>
      <trkpt lat="47.70563" lon="3.65887">
        <ele>175.9</ele>
        <time>2022-02-23T09:00:18Z</time>
      </trkpt>
      <trkpt lat="47.70563" lon="3.65887">
        <ele>175.9</ele>
        <time>2022-02-23T09:00:19Z</time>
      </trkpt>
      <trkpt lat="47.70563" lon="3.65886">
        <ele>175.8</ele>
        <time>2022-02-23T09:00:20Z</time>
      </trkpt>
      <trkpt lat="47.70563" lon="3.65884">
        <ele>175.8</ele>
        <time>2022-02-23T09:00:21Z</time>
      </trkpt>
      <trkpt lat="47.70564" lon="3.65883">
        <ele>175.7</ele>
        <time>2022-02-23T09:00:22Z</time>
      </trkpt>
      <trkpt lat="47.70565" lon="3.6588">
        <ele>175.6</ele>
        <time>2022-02-23T09:00:24Z</time>
      </trkpt>
      <trkpt lat="47.70566" lon="3.65879">
        <ele>175.5</ele>
        <time>2022-02-23T09:00:25Z</time>
      </trkpt>
      <trkpt lat="47.70567" lon="3.65877">
        <ele>175.4</ele>
        <time>2022-02-23T09:00:26Z</time>
      </trkpt>
      <trkpt lat="47.70569" lon="3.65875">
        <ele>175.3</ele>
        <time>2022-02-23T09:00:27Z</time>
      </trkpt>
      <trkpt lat="47.7057" lon="3.65875">
        <ele>175.2</ele>
        <time>2022-02-23T09:00:28Z</time>
      </trkpt>
      <trkpt lat="47.7057" lon="3.65874">
        <ele>175.2</ele>
        <time>2022-02-23T09:00:29Z</time>
      </trkpt>
      <trkpt lat="47.70572" lon="3.65873">
        <ele>175.1</ele>
        <time>2022-02-23T09:00:30Z</time>
      </trkpt>
      <trkpt lat="47.70573" lon="3.65872">
        <ele>175</ele>
        <time>2022-02-23T09:00:31Z</time>
      </trkpt>
      <trkpt lat="47.70576" lon="3.6587">
        <ele>174.8</ele>
        <time>2022-02-23T09:00:32Z</time>
      </trkpt>
      <trkpt lat="47.70577" lon="3.65869">
        <ele>174.7</ele>
        <time>2022-02-23T09:00:33Z</time>
      </trkpt>
      <trkpt lat="47.70578" lon="3.65868">
        <ele>174.6</ele>
        <time>2022-02-23T09:00:34Z</time>
      </trkpt>
      <trkpt lat="47.70579" lon="3.65866">
        <ele>174.5</ele>
        <time>2022-02-23T09:00:35Z</time>
      </trkpt>
      <trkpt lat="47.7058" lon="3.65865">
        <ele>174.4</ele>
        <time>2022-02-23T09:00:36Z</time>
      </trkpt>
      <trkpt lat="47.70582" lon="3.65864">
        <ele>174.3</ele>
        <time>2022-02-23T09:00:37Z</time>
      </trkpt>
      <trkpt lat="47.70584" lon="3.65863">
        <ele>174.2</ele>
        <time>2022-02-23T09:00:38Z</time>
      </trkpt>
      <trkpt lat="47.70585" lon="3.65862">
        <ele>174.1</ele>
        <time>2022-02-23T09:00:39Z</time>
      </trkpt>
      <trkpt lat="47.70587" lon="3.65861">
        <ele>174</ele>
        <time>2022-02-23T09:00:40Z</time>
      </trkpt>
      <trkpt lat="47.70588" lon="3.6586">
        <ele>173.9</ele>
        <time>2022-02-23T09:00:42Z</time>
      </trkpt>
      <trkpt lat="47.70589" lon="3.65858">
        <ele>173.8</ele>
        <time>2022-02-23T09:00:43Z</time>
      </trkpt>
      <trkpt lat="47.7059" lon="3.65857">
        <ele>173.7</ele>
        <time>2022-02-23T09:00:44Z</time>
      </trkpt>
      <trkpt lat="47.70591" lon="3.65856">
        <ele>173.7</ele>
        <time>2022-02-23T09:00:45Z</time>
      </trkpt>
      <trkpt lat="47.70592" lon="3.65855">
        <ele>173.6</ele>
        <time>2022-02-23T09:00:46Z</time>
      </trkpt>
      <trkpt lat="47.70593" lon="3.65854">
        <ele>173.5</ele>
        <time>2022-02-23T09:00:47Z</time>
      </trkpt>
      <trkpt lat="47.70594" lon="3.65853">
        <ele>173.5</ele>
        <time>2022-02-23T09:00:48Z</time>
      </trkpt>
      <trkpt lat="47.70595" lon="3.65852">
        <ele>173.4</ele>
        <time>2022-02-23T09:00:50Z</time>
      </trkpt>
      <trkpt lat="47.70597" lon="3.65851">
        <ele>173.3</ele>
        <time>2022-02-23T09:00:51Z</time>
      </trkpt>
      <trkpt lat="47.70597" lon="3.6585">
        <ele>173.2</ele>
        <time>2022-02-23T09:00:52Z</time>
      </trkpt>
      <trkpt lat="47.70599" lon="3.65848">
        <ele>173.1</ele>
        <time>2022-02-23T09:00:54Z</time>
      </trkpt>
      <trkpt lat="47.706" lon="3.65844">
        <ele>172.9</ele>
        <time>2022-02-23T09:00:55Z</time>
      </trkpt>
      <trkpt lat="47.70601" lon="3.65843">
        <ele>172.9</ele>
        <time>2022-02-23T09:00:57Z</time>
      </trkpt>
      <trkpt lat="47.70602" lon="3.65842">
        <ele>172.8</ele>
        <time>2022-02-23T09:00:58Z</time>
      </trkpt>
      <trkpt lat="47.70602" lon="3.6584">
        <ele>172.8</ele>
        <time>2022-02-23T09:00:59Z</time>
      </trkpt>
      <trkpt lat="47.70603" lon="3.65839">
        <ele>172.7</ele>
        <time>2022-02-23T09:01:00Z</time>
      </trkpt>
      <trkpt lat="47.70604" lon="3.65838">
        <ele>172.6</ele>
        <time>2022-02-23T09:01:01Z</time>
      </trkpt>
      <trkpt lat="47.70605" lon="3.65836">
        <ele>172.5</ele>
        <time>2022-02-23T09:01:02Z</time>
      </trkpt>
      <trkpt lat="47.70606" lon="3.65835">
        <ele>172.5</ele>
        <time>2022-02-23T09:01:03Z</time>
      </trkpt>
      <trkpt lat="47.70607" lon="3.65833">
        <ele>172.4</ele>
        <time>2022-02-23T09:01:04Z</time>
      </trkpt>
      <trkpt lat="47.70609" lon="3.6583">
        <ele>172.3</ele>
        <time>2022-02-23T09:01:05Z</time>
      </trkpt>
      <trkpt lat="47.70609" lon="3.65829">
        <ele>172.2</ele>
        <time>2022-02-23T09:01:07Z</time>
      </trkpt>
      <trkpt lat="47.7061" lon="3.65828">
        <ele>172.1</ele>
        <time>2022-02-23T09:01:08Z</time>
      </trkpt>
      <trkpt lat="47.7061" lon="3.65826">
        <ele>172.1</ele>
        <time>2022-02-23T09:01:09Z</time>
      </trkpt>
      <trkpt lat="47.70611" lon="3.65825">
        <ele>172.1</ele>
        <time>2022-02-23T09:01:10Z</time>
      </trkpt>
      <trkpt lat="47.70612" lon="3.65822">
        <ele>172.2</ele>
        <time>2022-02-23T09:01:12Z</time>
      </trkpt>
      <trkpt lat="47.70612" lon="3.65821">
        <ele>172.2</ele>
        <time>2022-02-23T09:01:13Z</time>
      </trkpt>
      <trkpt lat="47.70611" lon="3.65818">
        <ele>172.3</ele>
        <time>2022-02-23T09:01:14Z</time>
      </trkpt>
      <trkpt lat="47.7061" lon="3.65817">
        <ele>172.3</ele>
        <time>2022-02-23T09:01:16Z</time>
      </trkpt>
      <trkpt lat="47.70609" lon="3.65816">
        <ele>172.3</ele>
        <time>2022-02-23T09:01:17Z</time>
      </trkpt>
      <trkpt lat="47.70608" lon="3.65815">
        <ele>172.3</ele>
        <time>2022-02-23T09:01:18Z</time>
      </trkpt>
      <trkpt lat="47.70608" lon="3.65815">
        <ele>172.3</ele>
        <time>2022-02-23T09:01:19Z</time>
      </trkpt>
      <trkpt lat="47.70607" lon="3.65814">
        <ele>172.4</ele>
        <time>2022-02-23T09:01:20Z</time>
      </trkpt>
      <trkpt lat="47.70605" lon="3.65813">
        <ele>172.4</ele>
        <time>2022-02-23T09:01:22Z</time>
      </trkpt>
      <trkpt lat="47.70604" lon="3.65813">
        <ele>172.4</ele>
        <time>2022-02-23T09:01:23Z</time>
      </trkpt>
      <trkpt lat="47.70603" lon="3.65812">
        <ele>172.5</ele>
        <time>2022-02-23T09:01:24Z</time>
      </trkpt>
      <trkpt lat="47.70601" lon="3.65812">
        <ele>172.5</ele>
        <time>2022-02-23T09:01:25Z</time>
      </trkpt>
      <trkpt lat="47.706" lon="3.65812">
        <ele>172.5</ele>
        <time>2022-02-23T09:01:27Z</time>
      </trkpt>
      <trkpt lat="47.706" lon="3.65811">
        <ele>172.5</ele>
        <time>2022-02-23T09:01:28Z</time>
      </trkpt>
      <trkpt lat="47.70599" lon="3.65811">
        <ele>172.6</ele>
        <time>2022-02-23T09:01:29Z</time>
      </trkpt>
      <trkpt lat="47.70597" lon="3.6581">
        <ele>172.6</ele>
        <time>2022-02-23T09:01:30Z</time>
      </trkpt>
      <trkpt lat="47.70596" lon="3.6581">
        <ele>172.6</ele>
        <time>2022-02-23T09:01:32Z</time>
      </trkpt>
      <trkpt lat="47.70595" lon="3.65809">
        <ele>172.6</ele>
        <time>2022-02-23T09:01:33Z</time>
      </trkpt>
      <trkpt lat="47.70594" lon="3.65809">
        <ele>172.7</ele>
        <time>2022-02-23T09:01:34Z</time>
      </trkpt>
      <trkpt lat="47.70593" lon="3.65808">
        <ele>172.7</ele>
        <time>2022-02-23T09:01:35Z</time>
      </trkpt>
      <trkpt lat="47.70592" lon="3.65808">
        <ele>172.7</ele>
        <time>2022-02-23T09:01:37Z</time>
      </trkpt>
      <trkpt lat="47.70591" lon="3.65807">
        <ele>172.7</ele>
        <time>2022-02-23T09:01:38Z</time>
      </trkpt>
      <trkpt lat="47.7059" lon="3.65806">
        <ele>172.8</ele>
        <time>2022-02-23T09:01:39Z</time>
      </trkpt>
      <trkpt lat="47.70589" lon="3.65806">
        <ele>172.8</ele>
        <time>2022-02-23T09:01:40Z</time>
      </trkpt>
      <trkpt lat="47.70588" lon="3.65805">
        <ele>172.8</ele>
        <time>2022-02-23T09:01:41Z</time>
      </trkpt>
      <trkpt lat="47.70587" lon="3.65804">
        <ele>172.8</ele>
        <time>2022-02-23T09:01:42Z</time>
      </trkpt>
      <trkpt lat="47.70587" lon="3.65803">
        <ele>172.9</ele>
        <time>2022-02-23T09:01:43Z</time>
      </trkpt>
      <trkpt lat="47.70586" lon="3.65802">
        <ele>172.9</ele>
        <time>2022-02-23T09:01:44Z</time>
      </trkpt>
      <trkpt lat="47.70585" lon="3.658">
        <ele>172.9</ele>
        <time>2022-02-23T09:01:45Z</time>
      </trkpt>
      <trkpt lat="47.70583" lon="3.65799">
        <ele>173</ele>
        <time>2022-02-23T09:01:47Z</time>
      </trkpt>
      <trkpt lat="47.70582" lon="3.65798">
        <ele>173</ele>
        <time>2022-02-23T09:01:48Z</time>
      </trkpt>
      <trkpt lat="47.70581" lon="3.65798">
        <ele>173</ele>
        <time>2022-02-23T09:01:49Z</time>
      </trkpt>
      <trkpt lat="47.7058" lon="3.65797">
        <ele>173</ele>
        <time>2022-02-23T09:01:50Z</time>
      </trkpt>
      <trkpt lat="47.70579" lon="3.65797">
        <ele>173</ele>
        <time>2022-02-23T09:01:51Z</time>
      </trkpt>
      <trkpt lat="47.70578" lon="3.65796">
        <ele>173.1</ele>
        <time>2022-02-23T09:01:52Z</time>
      </trkpt>
      <trkpt lat="47.70576" lon="3.65795">
        <ele>173.1</ele>
        <time>2022-02-23T09:01:54Z</time>
      </trkpt>
      <trkpt lat="47.70575" lon="3.65795">
        <ele>173.1</ele>
        <time>2022-02-23T09:01:55Z</time>
      </trkpt>
      <trkpt lat="47.70574" lon="3.65795">
        <ele>173.2</ele>
        <time>2022-02-23T09:01:57Z</time>
      </trkpt>
      <trkpt lat="47.70573" lon="3.65795">
        <ele>173.2</ele>
        <time>2022-02-23T09:01:58Z</time>
      </trkpt>
      <trkpt lat="47.70572" lon="3.65794">
        <ele>173.2</ele>
        <time>2022-02-23T09:01:59Z</time>
      </trkpt>
      <trkpt lat="47.70571" lon="3.65794">
        <ele>173.2</ele>
        <time>2022-02-23T09:02:00Z</time>
      </trkpt>
      <trkpt lat="47.7057" lon="3.65793">
        <ele>173.3</ele>
        <time>2022-02-23T09:02:02Z</time>
      </trkpt>
      <trkpt lat="47.70569" lon="3.65793">
        <ele>173.3</ele>
        <time>2022-02-23T09:02:03Z</time>
      </trkpt>
      <trkpt lat="47.70567" lon="3.65793">
        <ele>173.3</ele>
        <time>2022-02-23T09:02:04Z</time>
      </trkpt>
      <trkpt lat="47.70566" lon="3.65793">
        <ele>173.4</ele>
        <time>2022-02-23T09:02:06Z</time>
      </trkpt>
      <trkpt lat="47.70565" lon="3.65793">
        <ele>173.4</ele>
        <time>2022-02-23T09:02:07Z</time>
      </trkpt>
      <trkpt lat="47.70564" lon="3.65793">
        <ele>173.4</ele>
        <time>2022-02-23T09:02:08Z</time>
      </trkpt>
      <trkpt lat="47.70563" lon="3.65793">
        <ele>173.4</ele>
        <time>2022-02-23T09:02:09Z</time>
      </trkpt>
      <trkpt lat="47.70562" lon="3.65793">
        <ele>173.4</ele>
        <time>2022-02-23T09:02:10Z</time>
      </trkpt>
      <trkpt lat="47.70561" lon="3.65793">
        <ele>173.5</ele>
        <time>2022-02-23T09:02:11Z</time>
      </trkpt>
      <trkpt lat="47.7056" lon="3.65793">
        <ele>173.5</ele>
        <time>2022-02-23T09:02:13Z</time>
      </trkpt>
      <trkpt lat="47.70558" lon="3.65793">
        <ele>173.5</ele>
        <time>2022-02-23T09:02:15Z</time>
      </trkpt>
      <trkpt lat="47.70557" lon="3.65793">
        <ele>173.6</ele>
        <time>2022-02-23T09:02:16Z</time>
      </trkpt>
      <trkpt lat="47.70556" lon="3.65793">
        <ele>173.6</ele>
        <time>2022-02-23T09:02:17Z</time>
      </trkpt>
      <trkpt lat="47.70555" lon="3.65793">
        <ele>173.6</ele>
        <time>2022-02-23T09:02:18Z</time>
      </trkpt>
      <trkpt lat="47.70554" lon="3.65793">
        <ele>173.6</ele>
        <time>2022-02-23T09:02:19Z</time>
      </trkpt>
      <trkpt lat="47.70553" lon="3.65793">
        <ele>173.7</ele>
        <time>2022-02-23T09:02:20Z</time>
      </trkpt>
      <trkpt lat="47.70552" lon="3.65793">
        <ele>173.7</ele>
        <time>2022-02-23T09:02:22Z</time>
      </trkpt>
      <trkpt lat="47.70551" lon="3.65792">
        <ele>173.7</ele>
        <time>2022-02-23T09:02:23Z</time>
      </trkpt>
      <trkpt lat="47.7055" lon="3.65792">
        <ele>173.7</ele>
        <time>2022-02-23T09:02:24Z</time>
      </trkpt>
      <trkpt lat="47.70549" lon="3.65792">
        <ele>173.7</ele>
        <time>2022-02-23T09:02:25Z</time>
      </trkpt>
      <trkpt lat="47.70548" lon="3.65792">
        <ele>173.8</ele>
        <time>2022-02-23T09:02:26Z</time>
      </trkpt>
      <trkpt lat="47.70547" lon="3.65792">
        <ele>173.8</ele>
        <time>2022-02-23T09:02:27Z</time>
      </trkpt>
      <trkpt lat="47.70546" lon="3.65792">
        <ele>173.8</ele>
        <time>2022-02-23T09:02:28Z</time>
      </trkpt>
      <trkpt lat="47.70545" lon="3.65791">
        <ele>173.8</ele>
        <time>2022-02-23T09:02:30Z</time>
      </trkpt>
      <trkpt lat="47.70544" lon="3.6579">
        <ele>173.9</ele>
        <time>2022-02-23T09:02:31Z</time>
      </trkpt>
      <trkpt lat="47.70543" lon="3.6579">
        <ele>173.9</ele>
        <time>2022-02-23T09:02:32Z</time>
      </trkpt>
      <trkpt lat="47.70542" lon="3.6579">
        <ele>173.9</ele>
        <time>2022-02-23T09:02:33Z</time>
      </trkpt>
      <trkpt lat="47.70541" lon="3.65789">
        <ele>173.9</ele>
        <time>2022-02-23T09:02:34Z</time>
      </trkpt>
      <trkpt lat="47.7054" lon="3.65789">
        <ele>174</ele>
        <time>2022-02-23T09:02:35Z</time>
      </trkpt>
      <trkpt lat="47.70538" lon="3.65788">
        <ele>174</ele>
        <time>2022-02-23T09:02:37Z</time>
      </trkpt>
      <trkpt lat="47.70537" lon="3.65788">
        <ele>174</ele>
        <time>2022-02-23T09:02:38Z</time>
      </trkpt>
      <trkpt lat="47.70536" lon="3.65787">
        <ele>174.1</ele>
        <time>2022-02-23T09:02:39Z</time>
      </trkpt>
      <trkpt lat="47.70535" lon="3.65786">
        <ele>174.1</ele>
        <time>2022-02-23T09:02:40Z</time>
      </trkpt>
      <trkpt lat="47.70534" lon="3.65786">
        <ele>174.1</ele>
        <time>2022-02-23T09:02:42Z</time>
      </trkpt>
      <trkpt lat="47.70532" lon="3.65785">
        <ele>174.1</ele>
        <time>2022-02-23T09:02:43Z</time>
      </trkpt>
      <trkpt lat="47.70531" lon="3.65784">
        <ele>174.2</ele>
        <time>2022-02-23T09:02:44Z</time>
      </trkpt>
      <trkpt lat="47.70529" lon="3.65783">
        <ele>174.2</ele>
        <time>2022-02-23T09:02:45Z</time>
      </trkpt>
      <trkpt lat="47.70528" lon="3.65782">
        <ele>174.2</ele>
        <time>2022-02-23T09:02:47Z</time>
      </trkpt>
      <trkpt lat="47.70527" lon="3.65781">
        <ele>174.3</ele>
        <time>2022-02-23T09:02:48Z</time>
      </trkpt>
      <trkpt lat="47.70525" lon="3.65781">
        <ele>174.3</ele>
        <time>2022-02-23T09:02:49Z</time>
      </trkpt>
      <trkpt lat="47.70524" lon="3.6578">
        <ele>174.3</ele>
        <time>2022-02-23T09:02:50Z</time>
      </trkpt>
      <trkpt lat="47.70523" lon="3.65779">
        <ele>174.4</ele>
        <time>2022-02-23T09:02:51Z</time>
      </trkpt>
      <trkpt lat="47.70521" lon="3.65779">
        <ele>174.4</ele>
        <time>2022-02-23T09:02:53Z</time>
      </trkpt>
      <trkpt lat="47.7052" lon="3.65778">
        <ele>174.4</ele>
        <time>2022-02-23T09:02:54Z</time>
      </trkpt>
      <trkpt lat="47.70518" lon="3.65777">
        <ele>174.5</ele>
        <time>2022-02-23T09:02:55Z</time>
      </trkpt>
      <trkpt lat="47.70517" lon="3.65777">
        <ele>174.5</ele>
        <time>2022-02-23T09:02:56Z</time>
      </trkpt>
      <trkpt lat="47.70515" lon="3.65776">
        <ele>174.6</ele>
        <time>2022-02-23T09:02:57Z</time>
      </trkpt>
      <trkpt lat="47.70514" lon="3.65776">
        <ele>174.6</ele>
        <time>2022-02-23T09:02:58Z</time>
      </trkpt>
      <trkpt lat="47.70513" lon="3.65776">
        <ele>174.6</ele>
        <time>2022-02-23T09:02:59Z</time>
      </trkpt>
      <trkpt lat="47.70511" lon="3.65775">
        <ele>174.6</ele>
        <time>2022-02-23T09:03:01Z</time>
      </trkpt>
      <trkpt lat="47.7051" lon="3.65774">
        <ele>174.6</ele>
        <time>2022-02-23T09:03:02Z</time>
      </trkpt>
      <trkpt lat="47.70508" lon="3.65773">
        <ele>174.6</ele>
        <time>2022-02-23T09:03:03Z</time>
      </trkpt>
      <trkpt lat="47.70507" lon="3.65773">
        <ele>174.7</ele>
        <time>2022-02-23T09:03:04Z</time>
      </trkpt>
      <trkpt lat="47.70506" lon="3.65772">
        <ele>174.7</ele>
        <time>2022-02-23T09:03:05Z</time>
      </trkpt>
      <trkpt lat="47.70505" lon="3.65771">
        <ele>174.7</ele>
        <time>2022-02-23T09:03:07Z</time>
      </trkpt>
      <trkpt lat="47.70503" lon="3.65771">
        <ele>174.8</ele>
        <time>2022-02-23T09:03:08Z</time>
      </trkpt>
      <trkpt lat="47.70501" lon="3.6577">
        <ele>174.8</ele>
        <time>2022-02-23T09:03:09Z</time>
      </trkpt>
      <trkpt lat="47.70501" lon="3.65769">
        <ele>174.8</ele>
        <time>2022-02-23T09:03:10Z</time>
      </trkpt>
      <trkpt lat="47.705" lon="3.65769">
        <ele>174.8</ele>
        <time>2022-02-23T09:03:11Z</time>
      </trkpt>
      <trkpt lat="47.70498" lon="3.65767">
        <ele>174.9</ele>
        <time>2022-02-23T09:03:13Z</time>
      </trkpt>
      <trkpt lat="47.70497" lon="3.65767">
        <ele>174.9</ele>
        <time>2022-02-23T09:03:14Z</time>
      </trkpt>
      <trkpt lat="47.70496" lon="3.65766">
        <ele>174.9</ele>
        <time>2022-02-23T09:03:15Z</time>
      </trkpt>
      <trkpt lat="47.70495" lon="3.65765">
        <ele>175</ele>
        <time>2022-02-23T09:03:16Z</time>
      </trkpt>
      <trkpt lat="47.70494" lon="3.65765">
        <ele>175</ele>
        <time>2022-02-23T09:03:18Z</time>
      </trkpt>
      <trkpt lat="47.70493" lon="3.65763">
        <ele>175</ele>
        <time>2022-02-23T09:03:19Z</time>
      </trkpt>
      <trkpt lat="47.70492" lon="3.65763">
        <ele>175</ele>
        <time>2022-02-23T09:03:20Z</time>
      </trkpt>
      <trkpt lat="47.70491" lon="3.65762">
        <ele>175.1</ele>
        <time>2022-02-23T09:03:21Z</time>
      </trkpt>
      <trkpt lat="47.7049" lon="3.65761">
        <ele>175.1</ele>
        <time>2022-02-23T09:03:23Z</time>
      </trkpt>
      <trkpt lat="47.70489" lon="3.6576">
        <ele>175.1</ele>
        <time>2022-02-23T09:03:24Z</time>
      </trkpt>
      <trkpt lat="47.70488" lon="3.6576">
        <ele>175.1</ele>
        <time>2022-02-23T09:03:25Z</time>
      </trkpt>
      <trkpt lat="47.70488" lon="3.65759">
        <ele>175.2</ele>
        <time>2022-02-23T09:03:26Z</time>
      </trkpt>
      <trkpt lat="47.70487" lon="3.65758">
        <ele>175.2</ele>
        <time>2022-02-23T09:03:27Z</time>
      </trkpt>
      <trkpt lat="47.70486" lon="3.65758">
        <ele>175.2</ele>
        <time>2022-02-23T09:03:28Z</time>
      </trkpt>
      <trkpt lat="47.70485" lon="3.65757">
        <ele>175.2</ele>
        <time>2022-02-23T09:03:29Z</time>
      </trkpt>
      <trkpt lat="47.70483" lon="3.65756">
        <ele>175.3</ele>
        <time>2022-02-23T09:03:31Z</time>
      </trkpt>
      <trkpt lat="47.70482" lon="3.65755">
        <ele>175.3</ele>
        <time>2022-02-23T09:03:32Z</time>
      </trkpt>
      <trkpt lat="47.70481" lon="3.65755">
        <ele>175.3</ele>
        <time>2022-02-23T09:03:33Z</time>
      </trkpt>
      <trkpt lat="47.7048" lon="3.65754">
        <ele>175.4</ele>
        <time>2022-02-23T09:03:34Z</time>
      </trkpt>
      <trkpt lat="47.70479" lon="3.65753">
        <ele>175.4</ele>
        <time>2022-02-23T09:03:36Z</time>
      </trkpt>
      <trkpt lat="47.70477" lon="3.65753">
        <ele>175.4</ele>
        <time>2022-02-23T09:03:37Z</time>
      </trkpt>
      <trkpt lat="47.70476" lon="3.65752">
        <ele>175.4</ele>
        <time>2022-02-23T09:03:38Z</time>
      </trkpt>
      <trkpt lat="47.70475" lon="3.65752">
        <ele>175.5</ele>
        <time>2022-02-23T09:03:39Z</time>
      </trkpt>
      <trkpt lat="47.70474" lon="3.65751">
        <ele>175.5</ele>
        <time>2022-02-23T09:03:40Z</time>
      </trkpt>
      <trkpt lat="47.70473" lon="3.65751">
        <ele>175.5</ele>
        <time>2022-02-23T09:03:41Z</time>
      </trkpt>
      <trkpt lat="47.70471" lon="3.6575">
        <ele>175.6</ele>
        <time>2022-02-23T09:03:43Z</time>
      </trkpt>
      <trkpt lat="47.7047" lon="3.65749">
        <ele>175.6</ele>
        <time>2022-02-23T09:03:44Z</time>
      </trkpt>
      <trkpt lat="47.70469" lon="3.65748">
        <ele>175.6</ele>
        <time>2022-02-23T09:03:45Z</time>
      </trkpt>
      <trkpt lat="47.70468" lon="3.65747">
        <ele>175.6</ele>
        <time>2022-02-23T09:03:47Z</time>
      </trkpt>
      <trkpt lat="47.70467" lon="3.65746">
        <ele>175.7</ele>
        <time>2022-02-23T09:03:48Z</time>
      </trkpt>
      <trkpt lat="47.70466" lon="3.65746">
        <ele>175.7</ele>
        <time>2022-02-23T09:03:49Z</time>
      </trkpt>
      <trkpt lat="47.70463" lon="3.65744">
        <ele>175.8</ele>
        <time>2022-02-23T09:03:50Z</time>
      </trkpt>
      <trkpt lat="47.70462" lon="3.65743">
        <ele>175.8</ele>
        <time>2022-02-23T09:03:52Z</time>
      </trkpt>
      <trkpt lat="47.70461" lon="3.65743">
        <ele>175.8</ele>
        <time>2022-02-23T09:03:53Z</time>
      </trkpt>
      <trkpt lat="47.7046" lon="3.65742">
        <ele>175.8</ele>
        <time>2022-02-23T09:03:54Z</time>
      </trkpt>
      <trkpt lat="47.70459" lon="3.65742">
        <ele>175.9</ele>
        <time>2022-02-23T09:03:55Z</time>
      </trkpt>
      <trkpt lat="47.70457" lon="3.65741">
        <ele>175.9</ele>
        <time>2022-02-23T09:03:57Z</time>
      </trkpt>
      <trkpt lat="47.70457" lon="3.6574">
        <ele>175.9</ele>
        <time>2022-02-23T09:03:58Z</time>
      </trkpt>
      <trkpt lat="47.70456" lon="3.6574">
        <ele>175.9</ele>
        <time>2022-02-23T09:03:59Z</time>
      </trkpt>
      <trkpt lat="47.70455" lon="3.65739">
        <ele>176</ele>
        <time>2022-02-23T09:04:00Z</time>
      </trkpt>
      <trkpt lat="47.70454" lon="3.65739">
        <ele>176</ele>
        <time>2022-02-23T09:04:01Z</time>
      </trkpt>
      <trkpt lat="47.70453" lon="3.65739">
        <ele>176</ele>
        <time>2022-02-23T09:04:02Z</time>
      </trkpt>
      <trkpt lat="47.70452" lon="3.65738">
        <ele>176</ele>
        <time>2022-02-23T09:04:03Z</time>
      </trkpt>
      <trkpt lat="47.70451" lon="3.65738">
        <ele>176.1</ele>
        <time>2022-02-23T09:04:04Z</time>
      </trkpt>
      <trkpt lat="47.7045" lon="3.65737">
        <ele>176.1</ele>
        <time>2022-02-23T09:04:05Z</time>
      </trkpt>
      <trkpt lat="47.70449" lon="3.65736">
        <ele>176.1</ele>
        <time>2022-02-23T09:04:07Z</time>
      </trkpt>
      <trkpt lat="47.70448" lon="3.65736">
        <ele>176.1</ele>
        <time>2022-02-23T09:04:08Z</time>
      </trkpt>
      <trkpt lat="47.70447" lon="3.65735">
        <ele>176.2</ele>
        <time>2022-02-23T09:04:09Z</time>
      </trkpt>
      <trkpt lat="47.70445" lon="3.65735">
        <ele>176.2</ele>
        <time>2022-02-23T09:04:10Z</time>
      </trkpt>
      <trkpt lat="47.70444" lon="3.65734">
        <ele>176.2</ele>
        <time>2022-02-23T09:04:12Z</time>
      </trkpt>
      <trkpt lat="47.70443" lon="3.65733">
        <ele>176.2</ele>
        <time>2022-02-23T09:04:13Z</time>
      </trkpt>
      <trkpt lat="47.70442" lon="3.65733">
        <ele>176.3</ele>
        <time>2022-02-23T09:04:14Z</time>
      </trkpt>
      <trkpt lat="47.70441" lon="3.65732">
        <ele>176.3</ele>
        <time>2022-02-23T09:04:15Z</time>
      </trkpt>
      <trkpt lat="47.7044" lon="3.65731">
        <ele>176.3</ele>
        <time>2022-02-23T09:04:16Z</time>
      </trkpt>
      <trkpt lat="47.70439" lon="3.65731">
        <ele>176.3</ele>
        <time>2022-02-23T09:04:17Z</time>
      </trkpt>
      <trkpt lat="47.70437" lon="3.6573">
        <ele>176.4</ele>
        <time>2022-02-23T09:04:19Z</time>
      </trkpt>
      <trkpt lat="47.70436" lon="3.65729">
        <ele>176.4</ele>
        <time>2022-02-23T09:04:20Z</time>
      </trkpt>
      <trkpt lat="47.70435" lon="3.65729">
        <ele>176.4</ele>
        <time>2022-02-23T09:04:21Z</time>
      </trkpt>
      <trkpt lat="47.70434" lon="3.65728">
        <ele>176.5</ele>
        <time>2022-02-23T09:04:22Z</time>
      </trkpt>
      <trkpt lat="47.70433" lon="3.65728">
        <ele>176.5</ele>
        <time>2022-02-23T09:04:23Z</time>
      </trkpt>
      <trkpt lat="47.70432" lon="3.65727">
        <ele>176.5</ele>
        <time>2022-02-23T09:04:24Z</time>
      </trkpt>
      <trkpt lat="47.70431" lon="3.65726">
        <ele>176.5</ele>
        <time>2022-02-23T09:04:26Z</time>
      </trkpt>
      <trkpt lat="47.70429" lon="3.65725">
        <ele>176.6</ele>
        <time>2022-02-23T09:04:27Z</time>
      </trkpt>
      <trkpt lat="47.70428" lon="3.65725">
        <ele>176.6</ele>
        <time>2022-02-23T09:04:28Z</time>
      </trkpt>
      <trkpt lat="47.70427" lon="3.65725">
        <ele>176.6</ele>
        <time>2022-02-23T09:04:29Z</time>
      </trkpt>
      <trkpt lat="47.70426" lon="3.65725">
        <ele>176.7</ele>
        <time>2022-02-23T09:04:30Z</time>
      </trkpt>
      <trkpt lat="47.70425" lon="3.65724">
        <ele>176.7</ele>
        <time>2022-02-23T09:04:31Z</time>
      </trkpt>
      <trkpt lat="47.70424" lon="3.65724">
        <ele>176.7</ele>
        <time>2022-02-23T09:04:32Z</time>
      </trkpt>
      <trkpt lat="47.70423" lon="3.65723">
        <ele>176.7</ele>
        <time>2022-02-23T09:04:33Z</time>
      </trkpt>
      <trkpt lat="47.70421" lon="3.65722">
        <ele>176.8</ele>
        <time>2022-02-23T09:04:34Z</time>
      </trkpt>
      <trkpt lat="47.70419" lon="3.65721">
        <ele>176.8</ele>
        <time>2022-02-23T09:04:36Z</time>
      </trkpt>
      <trkpt lat="47.70419" lon="3.65721">
        <ele>176.8</ele>
        <time>2022-02-23T09:04:37Z</time>
      </trkpt>
      <trkpt lat="47.70418" lon="3.6572">
        <ele>176.9</ele>
        <time>2022-02-23T09:04:38Z</time>
      </trkpt>
      <trkpt lat="47.70417" lon="3.65719">
        <ele>176.9</ele>
        <time>2022-02-23T09:04:39Z</time>
      </trkpt>
      <trkpt lat="47.70416" lon="3.65718">
        <ele>176.9</ele>
        <time>2022-02-23T09:04:40Z</time>
      </trkpt>
      <trkpt lat="47.70415" lon="3.65718">
        <ele>176.9</ele>
        <time>2022-02-23T09:04:41Z</time>
      </trkpt>
      <trkpt lat="47.70414" lon="3.65717">
        <ele>177</ele>
        <time>2022-02-23T09:04:42Z</time>
      </trkpt>
      <trkpt lat="47.70413" lon="3.65717">
        <ele>177</ele>
        <time>2022-02-23T09:04:43Z</time>
      </trkpt>
      <trkpt lat="47.70412" lon="3.65716">
        <ele>177</ele>
        <time>2022-02-23T09:04:44Z</time>
      </trkpt>
      <trkpt lat="47.70411" lon="3.65715">
        <ele>177</ele>
        <time>2022-02-23T09:04:45Z</time>
      </trkpt>
      <trkpt lat="47.7041" lon="3.65715">
        <ele>177.1</ele>
        <time>2022-02-23T09:04:46Z</time>
      </trkpt>
      <trkpt lat="47.70409" lon="3.65714">
        <ele>177.1</ele>
        <time>2022-02-23T09:04:48Z</time>
      </trkpt>
      <trkpt lat="47.70407" lon="3.65713">
        <ele>177.1</ele>
        <time>2022-02-23T09:04:49Z</time>
      </trkpt>
      <trkpt lat="47.70406" lon="3.65713">
        <ele>177.2</ele>
        <time>2022-02-23T09:04:50Z</time>
      </trkpt>
      <trkpt lat="47.70405" lon="3.65713">
        <ele>177.2</ele>
        <time>2022-02-23T09:04:51Z</time>
      </trkpt>
      <trkpt lat="47.70404" lon="3.65713">
        <ele>177.2</ele>
        <time>2022-02-23T09:04:52Z</time>
      </trkpt>
      <trkpt lat="47.70403" lon="3.65713">
        <ele>177.2</ele>
        <time>2022-02-23T09:04:53Z</time>
      </trkpt>
      <trkpt lat="47.70402" lon="3.65713">
        <ele>177.2</ele>
        <time>2022-02-23T09:04:54Z</time>
      </trkpt>
      <trkpt lat="47.70401" lon="3.65712">
        <ele>177.3</ele>
        <time>2022-02-23T09:04:55Z</time>
      </trkpt>
      <trkpt lat="47.704" lon="3.65711">
        <ele>177.3</ele>
        <time>2022-02-23T09:04:57Z</time>
      </trkpt>
      <trkpt lat="47.70399" lon="3.6571">
        <ele>177.3</ele>
        <time>2022-02-23T09:04:58Z</time>
      </trkpt>
      <trkpt lat="47.70398" lon="3.65709">
        <ele>177.4</ele>
        <time>2022-02-23T09:04:59Z</time>
      </trkpt>
      <trkpt lat="47.70397" lon="3.65709">
        <ele>177.4</ele>
        <time>2022-02-23T09:05:00Z</time>
      </trkpt>
      <trkpt lat="47.70396" lon="3.65708">
        <ele>177.4</ele>
        <time>2022-02-23T09:05:01Z</time>
      </trkpt>
      <trkpt lat="47.70394" lon="3.65707">
        <ele>177.4</ele>
        <time>2022-02-23T09:05:03Z</time>
      </trkpt>
      <trkpt lat="47.70393" lon="3.65707">
        <ele>177.5</ele>
        <time>2022-02-23T09:05:04Z</time>
      </trkpt>
      <trkpt lat="47.70392" lon="3.65706">
        <ele>177.5</ele>
        <time>2022-02-23T09:05:05Z</time>
      </trkpt>
      <trkpt lat="47.70391" lon="3.65706">
        <ele>177.5</ele>
        <time>2022-02-23T09:05:06Z</time>
      </trkpt>
      <trkpt lat="47.70389" lon="3.65705">
        <ele>177.6</ele>
        <time>2022-02-23T09:05:07Z</time>
      </trkpt>
      <trkpt lat="47.70388" lon="3.65705">
        <ele>177.6</ele>
        <time>2022-02-23T09:05:08Z</time>
      </trkpt>
      <trkpt lat="47.70388" lon="3.65705">
        <ele>177.6</ele>
        <time>2022-02-23T09:05:09Z</time>
      </trkpt>
      <trkpt lat="47.70386" lon="3.65704">
        <ele>177.6</ele>
        <time>2022-02-23T09:05:10Z</time>
      </trkpt>
      <trkpt lat="47.70385" lon="3.65704">
        <ele>177.7</ele>
        <time>2022-02-23T09:05:12Z</time>
      </trkpt>
      <trkpt lat="47.70384" lon="3.65703">
        <ele>177.7</ele>
        <time>2022-02-23T09:05:13Z</time>
      </trkpt>
      <trkpt lat="47.70383" lon="3.65702">
        <ele>177.7</ele>
        <time>2022-02-23T09:05:14Z</time>
      </trkpt>
      <trkpt lat="47.70382" lon="3.65702">
        <ele>177.7</ele>
        <time>2022-02-23T09:05:15Z</time>
      </trkpt>
      <trkpt lat="47.70381" lon="3.65702">
        <ele>177.7</ele>
        <time>2022-02-23T09:05:16Z</time>
      </trkpt>
      <trkpt lat="47.7038" lon="3.65701">
        <ele>177.8</ele>
        <time>2022-02-23T09:05:17Z</time>
      </trkpt>
      <trkpt lat="47.70379" lon="3.657">
        <ele>177.8</ele>
        <time>2022-02-23T09:05:18Z</time>
      </trkpt>
      <trkpt lat="47.70377" lon="3.65699">
        <ele>177.8</ele>
        <time>2022-02-23T09:05:20Z</time>
      </trkpt>
      <trkpt lat="47.70377" lon="3.65698">
        <ele>177.9</ele>
        <time>2022-02-23T09:05:21Z</time>
      </trkpt>
      <trkpt lat="47.70376" lon="3.65698">
        <ele>177.9</ele>
        <time>2022-02-23T09:05:22Z</time>
      </trkpt>
      <trkpt lat="47.70375" lon="3.65697">
        <ele>177.9</ele>
        <time>2022-02-23T09:05:23Z</time>
      </trkpt>
      <trkpt lat="47.70374" lon="3.65696">
        <ele>177.9</ele>
        <time>2022-02-23T09:05:24Z</time>
      </trkpt>
      <trkpt lat="47.70373" lon="3.65695">
        <ele>178</ele>
        <time>2022-02-23T09:05:25Z</time>
      </trkpt>
      <trkpt lat="47.70372" lon="3.65695">
        <ele>178</ele>
        <time>2022-02-23T09:05:26Z</time>
      </trkpt>
      <trkpt lat="47.70371" lon="3.65694">
        <ele>178</ele>
        <time>2022-02-23T09:05:27Z</time>
      </trkpt>
      <trkpt lat="47.70369" lon="3.65693">
        <ele>178.1</ele>
        <time>2022-02-23T09:05:29Z</time>
      </trkpt>
      <trkpt lat="47.70367" lon="3.65692">
        <ele>178.1</ele>
        <time>2022-02-23T09:05:31Z</time>
      </trkpt>
      <trkpt lat="47.70366" lon="3.65692">
        <ele>178.1</ele>
        <time>2022-02-23T09:05:32Z</time>
      </trkpt>
      <trkpt lat="47.70364" lon="3.65691">
        <ele>178.2</ele>
        <time>2022-02-23T09:05:33Z</time>
      </trkpt>
      <trkpt lat="47.70363" lon="3.65691">
        <ele>178.2</ele>
        <time>2022-02-23T09:05:34Z</time>
      </trkpt>
      <trkpt lat="47.70362" lon="3.6569">
        <ele>178.2</ele>
        <time>2022-02-23T09:05:36Z</time>
      </trkpt>
      <trkpt lat="47.70361" lon="3.65689">
        <ele>178.3</ele>
        <time>2022-02-23T09:05:37Z</time>
      </trkpt>
      <trkpt lat="47.70359" lon="3.65688">
        <ele>178.3</ele>
        <time>2022-02-23T09:05:39Z</time>
      </trkpt>
      <trkpt lat="47.70358" lon="3.65687">
        <ele>178.3</ele>
        <time>2022-02-23T09:05:40Z</time>
      </trkpt>
      <trkpt lat="47.70357" lon="3.65687">
        <ele>178.4</ele>
        <time>2022-02-23T09:05:41Z</time>
      </trkpt>
      <trkpt lat="47.70356" lon="3.65686">
        <ele>178.4</ele>
        <time>2022-02-23T09:05:42Z</time>
      </trkpt>
      <trkpt lat="47.70354" lon="3.65685">
        <ele>178.4</ele>
        <time>2022-02-23T09:05:44Z</time>
      </trkpt>
      <trkpt lat="47.70353" lon="3.65685">
        <ele>178.4</ele>
        <time>2022-02-23T09:05:45Z</time>
      </trkpt>
      <trkpt lat="47.70352" lon="3.65684">
        <ele>178.5</ele>
        <time>2022-02-23T09:05:46Z</time>
      </trkpt>
      <trkpt lat="47.70351" lon="3.65684">
        <ele>178.5</ele>
        <time>2022-02-23T09:05:47Z</time>
      </trkpt>
      <trkpt lat="47.7035" lon="3.65683">
        <ele>178.5</ele>
        <time>2022-02-23T09:05:48Z</time>
      </trkpt>
      <trkpt lat="47.70348" lon="3.65683">
        <ele>178.6</ele>
        <time>2022-02-23T09:05:50Z</time>
      </trkpt>
      <trkpt lat="47.70347" lon="3.65682">
        <ele>178.6</ele>
        <time>2022-02-23T09:05:51Z</time>
      </trkpt>
      <trkpt lat="47.70345" lon="3.6568">
        <ele>178.6</ele>
        <time>2022-02-23T09:05:52Z</time>
      </trkpt>
      <trkpt lat="47.70344" lon="3.6568">
        <ele>178.7</ele>
        <time>2022-02-23T09:05:53Z</time>
      </trkpt>
      <trkpt lat="47.70344" lon="3.65679">
        <ele>178.7</ele>
        <time>2022-02-23T09:05:54Z</time>
      </trkpt>
      <trkpt lat="47.70342" lon="3.65678">
        <ele>178.7</ele>
        <time>2022-02-23T09:05:55Z</time>
      </trkpt>
      <trkpt lat="47.70341" lon="3.65677">
        <ele>178.8</ele>
        <time>2022-02-23T09:05:57Z</time>
      </trkpt>
      <trkpt lat="47.7034" lon="3.65676">
        <ele>178.8</ele>
        <time>2022-02-23T09:05:58Z</time>
      </trkpt>
      <trkpt lat="47.70339" lon="3.65675">
        <ele>178.8</ele>
        <time>2022-02-23T09:06:00Z</time>
      </trkpt>
      <trkpt lat="47.70337" lon="3.65674">
        <ele>178.8</ele>
        <time>2022-02-23T09:06:01Z</time>
      </trkpt>
      <trkpt lat="47.70336" lon="3.65674">
        <ele>178.9</ele>
        <time>2022-02-23T09:06:02Z</time>
      </trkpt>
      <trkpt lat="47.70335" lon="3.65673">
        <ele>178.9</ele>
        <time>2022-02-23T09:06:03Z</time>
      </trkpt>
      <trkpt lat="47.70334" lon="3.65672">
        <ele>178.9</ele>
        <time>2022-02-23T09:06:04Z</time>
      </trkpt>
      <trkpt lat="47.70333" lon="3.65672">
        <ele>178.9</ele>
        <time>2022-02-23T09:06:05Z</time>
      </trkpt>
      <trkpt lat="47.70332" lon="3.65671">
        <ele>179</ele>
        <time>2022-02-23T09:06:06Z</time>
      </trkpt>
      <trkpt lat="47.70331" lon="3.6567">
        <ele>179</ele>
        <time>2022-02-23T09:06:07Z</time>
      </trkpt>
      <trkpt lat="47.70329" lon="3.65669">
        <ele>179.1</ele>
        <time>2022-02-23T09:06:09Z</time>
      </trkpt>
      <trkpt lat="47.70328" lon="3.65669">
        <ele>179.1</ele>
        <time>2022-02-23T09:06:10Z</time>
      </trkpt>
      <trkpt lat="47.70327" lon="3.65668">
        <ele>179.1</ele>
        <time>2022-02-23T09:06:11Z</time>
      </trkpt>
      <trkpt lat="47.70326" lon="3.65668">
        <ele>179.1</ele>
        <time>2022-02-23T09:06:12Z</time>
      </trkpt>
      <trkpt lat="47.70325" lon="3.65667">
        <ele>179.1</ele>
        <time>2022-02-23T09:06:13Z</time>
      </trkpt>
      <trkpt lat="47.70324" lon="3.65667">
        <ele>179.2</ele>
        <time>2022-02-23T09:06:14Z</time>
      </trkpt>
      <trkpt lat="47.70323" lon="3.65667">
        <ele>179.2</ele>
        <time>2022-02-23T09:06:15Z</time>
      </trkpt>
      <trkpt lat="47.70322" lon="3.65666">
        <ele>179.2</ele>
        <time>2022-02-23T09:06:16Z</time>
      </trkpt>
      <trkpt lat="47.70321" lon="3.65666">
        <ele>179.2</ele>
        <time>2022-02-23T09:06:17Z</time>
      </trkpt>
      <trkpt lat="47.7032" lon="3.65665">
        <ele>179.3</ele>
        <time>2022-02-23T09:06:18Z</time>
      </trkpt>
      <trkpt lat="47.70319" lon="3.65665">
        <ele>179.3</ele>
        <time>2022-02-23T09:06:19Z</time>
      </trkpt>
      <trkpt lat="47.70317" lon="3.65664">
        <ele>179.3</ele>
        <time>2022-02-23T09:06:21Z</time>
      </trkpt>
      <trkpt lat="47.70316" lon="3.65663">
        <ele>179.4</ele>
        <time>2022-02-23T09:06:22Z</time>
      </trkpt>
      <trkpt lat="47.70315" lon="3.65662">
        <ele>179.4</ele>
        <time>2022-02-23T09:06:23Z</time>
      </trkpt>
      <trkpt lat="47.70314" lon="3.65662">
        <ele>179.4</ele>
        <time>2022-02-23T09:06:25Z</time>
      </trkpt>
      <trkpt lat="47.70313" lon="3.65661">
        <ele>179.4</ele>
        <time>2022-02-23T09:06:26Z</time>
      </trkpt>
      <trkpt lat="47.70312" lon="3.65661">
        <ele>179.5</ele>
        <time>2022-02-23T09:06:27Z</time>
      </trkpt>
      <trkpt lat="47.70311" lon="3.6566">
        <ele>179.5</ele>
        <time>2022-02-23T09:06:28Z</time>
      </trkpt>
      <trkpt lat="47.7031" lon="3.6566">
        <ele>179.5</ele>
        <time>2022-02-23T09:06:29Z</time>
      </trkpt>
      <trkpt lat="47.70308" lon="3.65659">
        <ele>179.5</ele>
        <time>2022-02-23T09:06:30Z</time>
      </trkpt>
      <trkpt lat="47.70307" lon="3.65659">
        <ele>179.6</ele>
        <time>2022-02-23T09:06:32Z</time>
      </trkpt>
      <trkpt lat="47.70306" lon="3.65659">
        <ele>179.6</ele>
        <time>2022-02-23T09:06:33Z</time>
      </trkpt>
      <trkpt lat="47.70305" lon="3.65658">
        <ele>179.6</ele>
        <time>2022-02-23T09:06:34Z</time>
      </trkpt>
      <trkpt lat="47.70303" lon="3.65658">
        <ele>179.7</ele>
        <time>2022-02-23T09:06:36Z</time>
      </trkpt>
      <trkpt lat="47.70301" lon="3.65657">
        <ele>179.7</ele>
        <time>2022-02-23T09:06:37Z</time>
      </trkpt>
      <trkpt lat="47.703" lon="3.65657">
        <ele>179.7</ele>
        <time>2022-02-23T09:06:38Z</time>
      </trkpt>
      <trkpt lat="47.70299" lon="3.65656">
        <ele>179.8</ele>
        <time>2022-02-23T09:06:40Z</time>
      </trkpt>
      <trkpt lat="47.70297" lon="3.65655">
        <ele>179.8</ele>
        <time>2022-02-23T09:06:41Z</time>
      </trkpt>
      <trkpt lat="47.70296" lon="3.65654">
        <ele>179.8</ele>
        <time>2022-02-23T09:06:42Z</time>
      </trkpt>
      <trkpt lat="47.70295" lon="3.65654">
        <ele>179.9</ele>
        <time>2022-02-23T09:06:43Z</time>
      </trkpt>
      <trkpt lat="47.70294" lon="3.65653">
        <ele>179.9</ele>
        <time>2022-02-23T09:06:44Z</time>
      </trkpt>
      <trkpt lat="47.70293" lon="3.65653">
        <ele>179.9</ele>
        <time>2022-02-23T09:06:45Z</time>
      </trkpt>
      <trkpt lat="47.70292" lon="3.65652">
        <ele>179.9</ele>
        <time>2022-02-23T09:06:46Z</time>
      </trkpt>
      <trkpt lat="47.7029" lon="3.6565">
        <ele>180</ele>
        <time>2022-02-23T09:06:48Z</time>
      </trkpt>
      <trkpt lat="47.70289" lon="3.65649">
        <ele>180</ele>
        <time>2022-02-23T09:06:49Z</time>
      </trkpt>
      <trkpt lat="47.70287" lon="3.65648">
        <ele>180.1</ele>
        <time>2022-02-23T09:06:50Z</time>
      </trkpt>
      <trkpt lat="47.70285" lon="3.65646">
        <ele>180.1</ele>
        <time>2022-02-23T09:06:51Z</time>
      </trkpt>
      <trkpt lat="47.70285" lon="3.65646">
        <ele>180.1</ele>
        <time>2022-02-23T09:06:53Z</time>
      </trkpt>
      <trkpt lat="47.70284" lon="3.65645">
        <ele>180.2</ele>
        <time>2022-02-23T09:06:54Z</time>
      </trkpt>
      <trkpt lat="47.70282" lon="3.65644">
        <ele>180.2</ele>
        <time>2022-02-23T09:06:55Z</time>
      </trkpt>
      <trkpt lat="47.70281" lon="3.65644">
        <ele>180.2</ele>
        <time>2022-02-23T09:06:56Z</time>
      </trkpt>
      <trkpt lat="47.7028" lon="3.65644">
        <ele>180.2</ele>
        <time>2022-02-23T09:06:57Z</time>
      </trkpt>
      <trkpt lat="47.70278" lon="3.65643">
        <ele>180.3</ele>
        <time>2022-02-23T09:06:58Z</time>
      </trkpt>
      <trkpt lat="47.70278" lon="3.65643">
        <ele>180.3</ele>
        <time>2022-02-23T09:06:59Z</time>
      </trkpt>
      <trkpt lat="47.70277" lon="3.65642">
        <ele>180.3</ele>
        <time>2022-02-23T09:07:00Z</time>
      </trkpt>
      <trkpt lat="47.70275" lon="3.65642">
        <ele>180.4</ele>
        <time>2022-02-23T09:07:01Z</time>
      </trkpt>
      <trkpt lat="47.70274" lon="3.65642">
        <ele>180.4</ele>
        <time>2022-02-23T09:07:03Z</time>
      </trkpt>
      <trkpt lat="47.70273" lon="3.65641">
        <ele>180.4</ele>
        <time>2022-02-23T09:07:04Z</time>
      </trkpt>
      <trkpt lat="47.70272" lon="3.65641">
        <ele>180.4</ele>
        <time>2022-02-23T09:07:05Z</time>
      </trkpt>
      <trkpt lat="47.70271" lon="3.65641">
        <ele>180.5</ele>
        <time>2022-02-23T09:07:06Z</time>
      </trkpt>
      <trkpt lat="47.7027" lon="3.6564">
        <ele>180.5</ele>
        <time>2022-02-23T09:07:07Z</time>
      </trkpt>
      <trkpt lat="47.70268" lon="3.65639">
        <ele>180.5</ele>
        <time>2022-02-23T09:07:08Z</time>
      </trkpt>
      <trkpt lat="47.70267" lon="3.65638">
        <ele>180.5</ele>
        <time>2022-02-23T09:07:10Z</time>
      </trkpt>
      <trkpt lat="47.70266" lon="3.65637">
        <ele>180.6</ele>
        <time>2022-02-23T09:07:11Z</time>
      </trkpt>
      <trkpt lat="47.70265" lon="3.65636">
        <ele>180.6</ele>
        <time>2022-02-23T09:07:12Z</time>
      </trkpt>
      <trkpt lat="47.70264" lon="3.65635">
        <ele>180.6</ele>
        <time>2022-02-23T09:07:13Z</time>
      </trkpt>
      <trkpt lat="47.70263" lon="3.65635">
        <ele>180.7</ele>
        <time>2022-02-23T09:07:14Z</time>
      </trkpt>
      <trkpt lat="47.70262" lon="3.65634">
        <ele>180.7</ele>
        <time>2022-02-23T09:07:15Z</time>
      </trkpt>
      <trkpt lat="47.70261" lon="3.65633">
        <ele>180.7</ele>
        <time>2022-02-23T09:07:17Z</time>
      </trkpt>
      <trkpt lat="47.7026" lon="3.65633">
        <ele>180.7</ele>
        <time>2022-02-23T09:07:18Z</time>
      </trkpt>
      <trkpt lat="47.70259" lon="3.65632">
        <ele>180.8</ele>
        <time>2022-02-23T09:07:19Z</time>
      </trkpt>
      <trkpt lat="47.70258" lon="3.6563">
        <ele>180.8</ele>
        <time>2022-02-23T09:07:21Z</time>
      </trkpt>
      <trkpt lat="47.70257" lon="3.6563">
        <ele>180.8</ele>
        <time>2022-02-23T09:07:22Z</time>
      </trkpt>
      <trkpt lat="47.70256" lon="3.6563">
        <ele>180.8</ele>
        <time>2022-02-23T09:07:23Z</time>
      </trkpt>
      <trkpt lat="47.70254" lon="3.65629">
        <ele>180.9</ele>
        <time>2022-02-23T09:07:24Z</time>
      </trkpt>
      <trkpt lat="47.70253" lon="3.65629">
        <ele>180.9</ele>
        <time>2022-02-23T09:07:26Z</time>
      </trkpt>
      <trkpt lat="47.70252" lon="3.65629">
        <ele>180.9</ele>
        <time>2022-02-23T09:07:27Z</time>
      </trkpt>
      <trkpt lat="47.70251" lon="3.65628">
        <ele>181</ele>
        <time>2022-02-23T09:07:28Z</time>
      </trkpt>
      <trkpt lat="47.7025" lon="3.65627">
        <ele>181</ele>
        <time>2022-02-23T09:07:29Z</time>
      </trkpt>
      <trkpt lat="47.70249" lon="3.65626">
        <ele>181</ele>
        <time>2022-02-23T09:07:30Z</time>
      </trkpt>
      <trkpt lat="47.70249" lon="3.65625">
        <ele>181</ele>
        <time>2022-02-23T09:07:31Z</time>
      </trkpt>
      <trkpt lat="47.70247" lon="3.65623">
        <ele>181.1</ele>
        <time>2022-02-23T09:07:32Z</time>
      </trkpt>
      <trkpt lat="47.70246" lon="3.65622">
        <ele>181.1</ele>
        <time>2022-02-23T09:07:33Z</time>
      </trkpt>
      <trkpt lat="47.70246" lon="3.65622">
        <ele>181.1</ele>
        <time>2022-02-23T09:07:34Z</time>
      </trkpt>
      <trkpt lat="47.70244" lon="3.6562">
        <ele>181.2</ele>
        <time>2022-02-23T09:07:35Z</time>
      </trkpt>
      <trkpt lat="47.70243" lon="3.6562">
        <ele>181.2</ele>
        <time>2022-02-23T09:07:37Z</time>
      </trkpt>
      <trkpt lat="47.70242" lon="3.65619">
        <ele>181.2</ele>
        <time>2022-02-23T09:07:38Z</time>
      </trkpt>
      <trkpt lat="47.7024" lon="3.65619">
        <ele>181.3</ele>
        <time>2022-02-23T09:07:39Z</time>
      </trkpt>
      <trkpt lat="47.70239" lon="3.65619">
        <ele>181.3</ele>
        <time>2022-02-23T09:07:40Z</time>
      </trkpt>
      <trkpt lat="47.70238" lon="3.65618">
        <ele>181.3</ele>
        <time>2022-02-23T09:07:41Z</time>
      </trkpt>
      <trkpt lat="47.70237" lon="3.65619">
        <ele>181.3</ele>
        <time>2022-02-23T09:07:43Z</time>
      </trkpt>
      <trkpt lat="47.70236" lon="3.65619">
        <ele>181.3</ele>
        <time>2022-02-23T09:07:44Z</time>
      </trkpt>
      <trkpt lat="47.70235" lon="3.65619">
        <ele>181.4</ele>
        <time>2022-02-23T09:07:45Z</time>
      </trkpt>
      <trkpt lat="47.70234" lon="3.65619">
        <ele>181.4</ele>
        <time>2022-02-23T09:07:46Z</time>
      </trkpt>
      <trkpt lat="47.70232" lon="3.65618">
        <ele>181.4</ele>
        <time>2022-02-23T09:07:48Z</time>
      </trkpt>
      <trkpt lat="47.7023" lon="3.65618">
        <ele>181.5</ele>
        <time>2022-02-23T09:07:49Z</time>
      </trkpt>
      <trkpt lat="47.70229" lon="3.65617">
        <ele>181.5</ele>
        <time>2022-02-23T09:07:50Z</time>
      </trkpt>
      <trkpt lat="47.70228" lon="3.65617">
        <ele>181.5</ele>
        <time>2022-02-23T09:07:51Z</time>
      </trkpt>
      <trkpt lat="47.70227" lon="3.65616">
        <ele>181.5</ele>
        <time>2022-02-23T09:07:52Z</time>
      </trkpt>
      <trkpt lat="47.70226" lon="3.65616">
        <ele>181.6</ele>
        <time>2022-02-23T09:07:53Z</time>
      </trkpt>
      <trkpt lat="47.70225" lon="3.65615">
        <ele>181.6</ele>
        <time>2022-02-23T09:07:54Z</time>
      </trkpt>
      <trkpt lat="47.70224" lon="3.65615">
        <ele>181.6</ele>
        <time>2022-02-23T09:07:55Z</time>
      </trkpt>
      <trkpt lat="47.70223" lon="3.65614">
        <ele>181.7</ele>
        <time>2022-02-23T09:07:56Z</time>
      </trkpt>
      <trkpt lat="47.70222" lon="3.65613">
        <ele>181.7</ele>
        <time>2022-02-23T09:07:57Z</time>
      </trkpt>
      <trkpt lat="47.70221" lon="3.65613">
        <ele>181.7</ele>
        <time>2022-02-23T09:07:59Z</time>
      </trkpt>
      <trkpt lat="47.7022" lon="3.65612">
        <ele>181.7</ele>
        <time>2022-02-23T09:08:00Z</time>
      </trkpt>
      <trkpt lat="47.70219" lon="3.65611">
        <ele>181.8</ele>
        <time>2022-02-23T09:08:01Z</time>
      </trkpt>
      <trkpt lat="47.70218" lon="3.6561">
        <ele>181.8</ele>
        <time>2022-02-23T09:08:02Z</time>
      </trkpt>
      <trkpt lat="47.70217" lon="3.6561">
        <ele>181.8</ele>
        <time>2022-02-23T09:08:03Z</time>
      </trkpt>
      <trkpt lat="47.70216" lon="3.65609">
        <ele>181.8</ele>
        <time>2022-02-23T09:08:05Z</time>
      </trkpt>
      <trkpt lat="47.70215" lon="3.65608">
        <ele>181.9</ele>
        <time>2022-02-23T09:08:06Z</time>
      </trkpt>
      <trkpt lat="47.70214" lon="3.65608">
        <ele>181.9</ele>
        <time>2022-02-23T09:08:07Z</time>
      </trkpt>
      <trkpt lat="47.70213" lon="3.65607">
        <ele>181.9</ele>
        <time>2022-02-23T09:08:08Z</time>
      </trkpt>
      <trkpt lat="47.70212" lon="3.65606">
        <ele>181.9</ele>
        <time>2022-02-23T09:08:09Z</time>
      </trkpt>
      <trkpt lat="47.70211" lon="3.65605">
        <ele>182</ele>
        <time>2022-02-23T09:08:10Z</time>
      </trkpt>
      <trkpt lat="47.7021" lon="3.65604">
        <ele>182</ele>
        <time>2022-02-23T09:08:11Z</time>
      </trkpt>
      <trkpt lat="47.70209" lon="3.65604">
        <ele>182</ele>
        <time>2022-02-23T09:08:12Z</time>
      </trkpt>
      <trkpt lat="47.70207" lon="3.65603">
        <ele>182</ele>
        <time>2022-02-23T09:08:13Z</time>
      </trkpt>
      <trkpt lat="47.70206" lon="3.65603">
        <ele>182.1</ele>
        <time>2022-02-23T09:08:14Z</time>
      </trkpt>
      <trkpt lat="47.70204" lon="3.65603">
        <ele>182.1</ele>
        <time>2022-02-23T09:08:15Z</time>
      </trkpt>
      <trkpt lat="47.70203" lon="3.65602">
        <ele>182.2</ele>
        <time>2022-02-23T09:08:17Z</time>
      </trkpt>
      <trkpt lat="47.70201" lon="3.65602">
        <ele>182.2</ele>
        <time>2022-02-23T09:08:18Z</time>
      </trkpt>
      <trkpt lat="47.702" lon="3.65601">
        <ele>182.2</ele>
        <time>2022-02-23T09:08:19Z</time>
      </trkpt>
      <trkpt lat="47.70198" lon="3.65601">
        <ele>182.3</ele>
        <time>2022-02-23T09:08:21Z</time>
      </trkpt>
      <trkpt lat="47.70196" lon="3.656">
        <ele>182.3</ele>
        <time>2022-02-23T09:08:23Z</time>
      </trkpt>
      <trkpt lat="47.70195" lon="3.656">
        <ele>182.3</ele>
        <time>2022-02-23T09:08:24Z</time>
      </trkpt>
      <trkpt lat="47.70193" lon="3.65599">
        <ele>182.4</ele>
        <time>2022-02-23T09:08:25Z</time>
      </trkpt>
      <trkpt lat="47.70192" lon="3.65599">
        <ele>182.4</ele>
        <time>2022-02-23T09:08:26Z</time>
      </trkpt>
      <trkpt lat="47.70191" lon="3.65598">
        <ele>182.4</ele>
        <time>2022-02-23T09:08:27Z</time>
      </trkpt>
      <trkpt lat="47.70189" lon="3.65598">
        <ele>182.5</ele>
        <time>2022-02-23T09:08:28Z</time>
      </trkpt>
      <trkpt lat="47.70188" lon="3.65598">
        <ele>182.5</ele>
        <time>2022-02-23T09:08:29Z</time>
      </trkpt>
      <trkpt lat="47.70187" lon="3.65598">
        <ele>182.5</ele>
        <time>2022-02-23T09:08:30Z</time>
      </trkpt>
      <trkpt lat="47.70186" lon="3.65598">
        <ele>182.6</ele>
        <time>2022-02-23T09:08:31Z</time>
      </trkpt>
      <trkpt lat="47.70184" lon="3.65597">
        <ele>182.6</ele>
        <time>2022-02-23T09:08:33Z</time>
      </trkpt>
      <trkpt lat="47.70183" lon="3.65597">
        <ele>182.6</ele>
        <time>2022-02-23T09:08:34Z</time>
      </trkpt>
      <trkpt lat="47.70182" lon="3.65597">
        <ele>182.6</ele>
        <time>2022-02-23T09:08:35Z</time>
      </trkpt>
      <trkpt lat="47.7018" lon="3.65598">
        <ele>182.7</ele>
        <time>2022-02-23T09:08:36Z</time>
      </trkpt>
      <trkpt lat="47.70179" lon="3.65598">
        <ele>182.7</ele>
        <time>2022-02-23T09:08:37Z</time>
      </trkpt>
      <trkpt lat="47.70178" lon="3.65599">
        <ele>182.7</ele>
        <time>2022-02-23T09:08:38Z</time>
      </trkpt>
      <trkpt lat="47.70175" lon="3.65599">
        <ele>182.8</ele>
        <time>2022-02-23T09:08:40Z</time>
      </trkpt>
      <trkpt lat="47.70174" lon="3.656">
        <ele>182.8</ele>
        <time>2022-02-23T09:08:41Z</time>
      </trkpt>
      <trkpt lat="47.70173" lon="3.656">
        <ele>182.9</ele>
        <time>2022-02-23T09:08:42Z</time>
      </trkpt>
      <trkpt lat="47.70171" lon="3.656">
        <ele>182.9</ele>
        <time>2022-02-23T09:08:44Z</time>
      </trkpt>
      <trkpt lat="47.70169" lon="3.65601">
        <ele>182.9</ele>
        <time>2022-02-23T09:08:45Z</time>
      </trkpt>
      <trkpt lat="47.70168" lon="3.65601">
        <ele>183</ele>
        <time>2022-02-23T09:08:46Z</time>
      </trkpt>
      <trkpt lat="47.70167" lon="3.65601">
        <ele>183</ele>
        <time>2022-02-23T09:08:47Z</time>
      </trkpt>
      <trkpt lat="47.70166" lon="3.65602">
        <ele>183</ele>
        <time>2022-02-23T09:08:48Z</time>
      </trkpt>
      <trkpt lat="47.70165" lon="3.65602">
        <ele>183</ele>
        <time>2022-02-23T09:08:49Z</time>
      </trkpt>
      <trkpt lat="47.70163" lon="3.65603">
        <ele>183.1</ele>
        <time>2022-02-23T09:08:51Z</time>
      </trkpt>
      <trkpt lat="47.70162" lon="3.65603">
        <ele>183.1</ele>
        <time>2022-02-23T09:08:52Z</time>
      </trkpt>
      <trkpt lat="47.70161" lon="3.65603">
        <ele>183.1</ele>
        <time>2022-02-23T09:08:53Z</time>
      </trkpt>
      <trkpt lat="47.7016" lon="3.65603">
        <ele>183.1</ele>
        <time>2022-02-23T09:08:54Z</time>
      </trkpt>
      <trkpt lat="47.70158" lon="3.65603">
        <ele>183.2</ele>
        <time>2022-02-23T09:08:55Z</time>
      </trkpt>
      <trkpt lat="47.70156" lon="3.65603">
        <ele>183.2</ele>
        <time>2022-02-23T09:08:57Z</time>
      </trkpt>
      <trkpt lat="47.70155" lon="3.65603">
        <ele>183.3</ele>
        <time>2022-02-23T09:08:58Z</time>
      </trkpt>
      <trkpt lat="47.70154" lon="3.65603">
        <ele>183.3</ele>
        <time>2022-02-23T09:08:59Z</time>
      </trkpt>
      <trkpt lat="47.70153" lon="3.65604">
        <ele>183.3</ele>
        <time>2022-02-23T09:09:00Z</time>
      </trkpt>
      <trkpt lat="47.70152" lon="3.65604">
        <ele>183.3</ele>
        <time>2022-02-23T09:09:01Z</time>
      </trkpt>
      <trkpt lat="47.7015" lon="3.65604">
        <ele>183.4</ele>
        <time>2022-02-23T09:09:02Z</time>
      </trkpt>
      <trkpt lat="47.70149" lon="3.65604">
        <ele>183.4</ele>
        <time>2022-02-23T09:09:04Z</time>
      </trkpt>
      <trkpt lat="47.70148" lon="3.65604">
        <ele>183.4</ele>
        <time>2022-02-23T09:09:05Z</time>
      </trkpt>
      <trkpt lat="47.70147" lon="3.65604">
        <ele>183.4</ele>
        <time>2022-02-23T09:09:06Z</time>
      </trkpt>
      <trkpt lat="47.70146" lon="3.65604">
        <ele>183.5</ele>
        <time>2022-02-23T09:09:07Z</time>
      </trkpt>
      <trkpt lat="47.70144" lon="3.65604">
        <ele>183.5</ele>
        <time>2022-02-23T09:09:09Z</time>
      </trkpt>
      <trkpt lat="47.70142" lon="3.65604">
        <ele>183.6</ele>
        <time>2022-02-23T09:09:10Z</time>
      </trkpt>
      <trkpt lat="47.70142" lon="3.65605">
        <ele>183.6</ele>
        <time>2022-02-23T09:09:11Z</time>
      </trkpt>
      <trkpt lat="47.70141" lon="3.65605">
        <ele>183.6</ele>
        <time>2022-02-23T09:09:12Z</time>
      </trkpt>
      <trkpt lat="47.7014" lon="3.65605">
        <ele>183.6</ele>
        <time>2022-02-23T09:09:13Z</time>
      </trkpt>
      <trkpt lat="47.70138" lon="3.65606">
        <ele>183.6</ele>
        <time>2022-02-23T09:09:14Z</time>
      </trkpt>
      <trkpt lat="47.70137" lon="3.65606">
        <ele>183.7</ele>
        <time>2022-02-23T09:09:15Z</time>
      </trkpt>
      <trkpt lat="47.70135" lon="3.65606">
        <ele>183.7</ele>
        <time>2022-02-23T09:09:17Z</time>
      </trkpt>
      <trkpt lat="47.70133" lon="3.65606">
        <ele>183.8</ele>
        <time>2022-02-23T09:09:18Z</time>
      </trkpt>
      <trkpt lat="47.70132" lon="3.65606">
        <ele>183.8</ele>
        <time>2022-02-23T09:09:19Z</time>
      </trkpt>
      <trkpt lat="47.70132" lon="3.65606">
        <ele>183.8</ele>
        <time>2022-02-23T09:09:20Z</time>
      </trkpt>
      <trkpt lat="47.70131" lon="3.65606">
        <ele>183.8</ele>
        <time>2022-02-23T09:09:21Z</time>
      </trkpt>
      <trkpt lat="47.70129" lon="3.65606">
        <ele>183.9</ele>
        <time>2022-02-23T09:09:22Z</time>
      </trkpt>
      <trkpt lat="47.70128" lon="3.65607">
        <ele>183.9</ele>
        <time>2022-02-23T09:09:23Z</time>
      </trkpt>
      <trkpt lat="47.70127" lon="3.65606">
        <ele>183.9</ele>
        <time>2022-02-23T09:09:25Z</time>
      </trkpt>
      <trkpt lat="47.70127" lon="3.65606">
        <ele>183.9</ele>
        <time>2022-02-23T09:09:26Z</time>
      </trkpt>
      <trkpt lat="47.70126" lon="3.65606">
        <ele>183.9</ele>
        <time>2022-02-23T09:09:27Z</time>
      </trkpt>
      <trkpt lat="47.70125" lon="3.65604">
        <ele>183.7</ele>
        <time>2022-02-23T09:09:28Z</time>
      </trkpt>
      <trkpt lat="47.70125" lon="3.65602">
        <ele>183.6</ele>
        <time>2022-02-23T09:09:29Z</time>
      </trkpt>
      <trkpt lat="47.70125" lon="3.65601">
        <ele>183.4</ele>
        <time>2022-02-23T09:09:30Z</time>
      </trkpt>
      <trkpt lat="47.70124" lon="3.65598">
        <ele>183.3</ele>
        <time>2022-02-23T09:09:32Z</time>
      </trkpt>
      <trkpt lat="47.70125" lon="3.65594">
        <ele>183</ele>
        <time>2022-02-23T09:09:33Z</time>
      </trkpt>
      <trkpt lat="47.70125" lon="3.65592">
        <ele>182.9</ele>
        <time>2022-02-23T09:09:34Z</time>
      </trkpt>
      <trkpt lat="47.70125" lon="3.65589">
        <ele>182.6</ele>
        <time>2022-02-23T09:09:35Z</time>
      </trkpt>
      <trkpt lat="47.70124" lon="3.65588">
        <ele>182.5</ele>
        <time>2022-02-23T09:09:36Z</time>
      </trkpt>
      <trkpt lat="47.70124" lon="3.65586">
        <ele>182.4</ele>
        <time>2022-02-23T09:09:37Z</time>
      </trkpt>
      <trkpt lat="47.70124" lon="3.65586">
        <ele>182.4</ele>
        <time>2022-02-23T09:09:38Z</time>
      </trkpt>
      <trkpt lat="47.70124" lon="3.65585">
        <ele>182.3</ele>
        <time>2022-02-23T09:09:39Z</time>
      </trkpt>
      <trkpt lat="47.70124" lon="3.65583">
        <ele>182.2</ele>
        <time>2022-02-23T09:09:41Z</time>
      </trkpt>
      <trkpt lat="47.70125" lon="3.65582">
        <ele>182</ele>
        <time>2022-02-23T09:09:42Z</time>
      </trkpt>
      <trkpt lat="47.70125" lon="3.6558">
        <ele>181.9</ele>
        <time>2022-02-23T09:09:43Z</time>
      </trkpt>
      <trkpt lat="47.70125" lon="3.65579">
        <ele>181.8</ele>
        <time>2022-02-23T09:09:44Z</time>
      </trkpt>
      <trkpt lat="47.70126" lon="3.65577">
        <ele>181.7</ele>
        <time>2022-02-23T09:09:45Z</time>
      </trkpt>
      <trkpt lat="47.70127" lon="3.65574">
        <ele>181.4</ele>
        <time>2022-02-23T09:09:46Z</time>
      </trkpt>
      <trkpt lat="47.70128" lon="3.65572">
        <ele>181.3</ele>
        <time>2022-02-23T09:09:48Z</time>
      </trkpt>
      <trkpt lat="47.70128" lon="3.65571">
        <ele>181.2</ele>
        <time>2022-02-23T09:09:49Z</time>
      </trkpt>
      <trkpt lat="47.70129" lon="3.6557">
        <ele>181</ele>
        <time>2022-02-23T09:09:50Z</time>
      </trkpt>
      <trkpt lat="47.70129" lon="3.65568">
        <ele>180.9</ele>
        <time>2022-02-23T09:09:51Z</time>
      </trkpt>
      <trkpt lat="47.7013" lon="3.65566">
        <ele>180.8</ele>
        <time>2022-02-23T09:09:52Z</time>
      </trkpt>
      <trkpt lat="47.7013" lon="3.65564">
        <ele>180.6</ele>
        <time>2022-02-23T09:09:53Z</time>
      </trkpt>
      <trkpt lat="47.7013" lon="3.65563">
        <ele>180.5</ele>
        <time>2022-02-23T09:09:54Z</time>
      </trkpt>
      <trkpt lat="47.7013" lon="3.65561">
        <ele>180.4</ele>
        <time>2022-02-23T09:09:55Z</time>
      </trkpt>
      <trkpt lat="47.7013" lon="3.65559">
        <ele>180.2</ele>
        <time>2022-02-23T09:09:56Z</time>
      </trkpt>
      <trkpt lat="47.7013" lon="3.65556">
        <ele>180</ele>
        <time>2022-02-23T09:09:57Z</time>
      </trkpt>
      <trkpt lat="47.7013" lon="3.65555">
        <ele>179.9</ele>
        <time>2022-02-23T09:09:59Z</time>
      </trkpt>
      <trkpt lat="47.7013" lon="3.65554">
        <ele>179.8</ele>
        <time>2022-02-23T09:10:00Z</time>
      </trkpt>
      <trkpt lat="47.7013" lon="3.65551">
        <ele>179.6</ele>
        <time>2022-02-23T09:10:01Z</time>
      </trkpt>
      <trkpt lat="47.7013" lon="3.65549">
        <ele>179.5</ele>
        <time>2022-02-23T09:10:02Z</time>
      </trkpt>
      <trkpt lat="47.7013" lon="3.65548">
        <ele>179.4</ele>
        <time>2022-02-23T09:10:03Z</time>
      </trkpt>
      <trkpt lat="47.70129" lon="3.65547">
        <ele>179.3</ele>
        <time>2022-02-23T09:10:04Z</time>
      </trkpt>
      <trkpt lat="47.70129" lon="3.65546">
        <ele>179.3</ele>
        <time>2022-02-23T09:10:05Z</time>
      </trkpt>
      <trkpt lat="47.70129" lon="3.65546">
        <ele>179.2</ele>
        <time>2022-02-23T09:10:06Z</time>
      </trkpt>
      <trkpt lat="47.70129" lon="3.65544">
        <ele>179.1</ele>
        <time>2022-02-23T09:10:07Z</time>
      </trkpt>
      <trkpt lat="47.70129" lon="3.65541">
        <ele>178.9</ele>
        <time>2022-02-23T09:10:08Z</time>
      </trkpt>
      <trkpt lat="47.70129" lon="3.6554">
        <ele>178.8</ele>
        <time>2022-02-23T09:10:10Z</time>
      </trkpt>
      <trkpt lat="47.70129" lon="3.65538">
        <ele>178.7</ele>
        <time>2022-02-23T09:10:11Z</time>
      </trkpt>
      <trkpt lat="47.70129" lon="3.65535">
        <ele>178.5</ele>
        <time>2022-02-23T09:10:12Z</time>
      </trkpt>
      <trkpt lat="47.70129" lon="3.65534">
        <ele>178.4</ele>
        <time>2022-02-23T09:10:13Z</time>
      </trkpt>
      <trkpt lat="47.70129" lon="3.65533">
        <ele>178.3</ele>
        <time>2022-02-23T09:10:14Z</time>
      </trkpt>
      <trkpt lat="47.70129" lon="3.6553">
        <ele>178.1</ele>
        <time>2022-02-23T09:10:15Z</time>
      </trkpt>
      <trkpt lat="47.70129" lon="3.65529">
        <ele>178</ele>
        <time>2022-02-23T09:10:16Z</time>
      </trkpt>
      <trkpt lat="47.7013" lon="3.65527">
        <ele>177.9</ele>
        <time>2022-02-23T09:10:17Z</time>
      </trkpt>
      <trkpt lat="47.7013" lon="3.65525">
        <ele>177.7</ele>
        <time>2022-02-23T09:10:19Z</time>
      </trkpt>
      <trkpt lat="47.7013" lon="3.65523">
        <ele>177.6</ele>
        <time>2022-02-23T09:10:20Z</time>
      </trkpt>
      <trkpt lat="47.7013" lon="3.65521">
        <ele>177.5</ele>
        <time>2022-02-23T09:10:21Z</time>
      </trkpt>
      <trkpt lat="47.7013" lon="3.6552">
        <ele>177.4</ele>
        <time>2022-02-23T09:10:22Z</time>
      </trkpt>
      <trkpt lat="47.7013" lon="3.65518">
        <ele>177.3</ele>
        <time>2022-02-23T09:10:23Z</time>
      </trkpt>
      <trkpt lat="47.7013" lon="3.65516">
        <ele>177.1</ele>
        <time>2022-02-23T09:10:24Z</time>
      </trkpt>
      <trkpt lat="47.70131" lon="3.65514">
        <ele>177</ele>
        <time>2022-02-23T09:10:26Z</time>
      </trkpt>
      <trkpt lat="47.70131" lon="3.65513">
        <ele>176.9</ele>
        <time>2022-02-23T09:10:27Z</time>
      </trkpt>
      <trkpt lat="47.7013" lon="3.65511">
        <ele>176.8</ele>
        <time>2022-02-23T09:10:28Z</time>
      </trkpt>
      <trkpt lat="47.70129" lon="3.65509">
        <ele>176.6</ele>
        <time>2022-02-23T09:10:29Z</time>
      </trkpt>
      <trkpt lat="47.70129" lon="3.65509">
        <ele>176.5</ele>
        <time>2022-02-23T09:10:30Z</time>
      </trkpt>
      <trkpt lat="47.70128" lon="3.65508">
        <ele>176.5</ele>
        <time>2022-02-23T09:10:32Z</time>
      </trkpt>
      <trkpt lat="47.70128" lon="3.65507">
        <ele>176.4</ele>
        <time>2022-02-23T09:10:33Z</time>
      </trkpt>
      <trkpt lat="47.70128" lon="3.65507">
        <ele>176.3</ele>
        <time>2022-02-23T09:10:35Z</time>
      </trkpt>
      <trkpt lat="47.70128" lon="3.65507">
        <ele>176.2</ele>
        <time>2022-02-23T09:10:36Z</time>
      </trkpt>
      <trkpt lat="47.70127" lon="3.65507">
        <ele>176.1</ele>
        <time>2022-02-23T09:10:37Z</time>
      </trkpt>
      <trkpt lat="47.70127" lon="3.65506">
        <ele>176</ele>
        <time>2022-02-23T09:10:38Z</time>
      </trkpt>
      <trkpt lat="47.70127" lon="3.65506">
        <ele>175.8</ele>
        <time>2022-02-23T09:10:39Z</time>
      </trkpt>
      <trkpt lat="47.70126" lon="3.65506">
        <ele>175.7</ele>
        <time>2022-02-23T09:10:40Z</time>
      </trkpt>
      <trkpt lat="47.70126" lon="3.65506">
        <ele>175.2</ele>
        <time>2022-02-23T09:10:41Z</time>
      </trkpt>
      <trkpt lat="47.70125" lon="3.65506">
        <ele>175.1</ele>
        <time>2022-02-23T09:10:42Z</time>
      </trkpt>
      <trkpt lat="47.70125" lon="3.65506">
        <ele>175.4</ele>
        <time>2022-02-23T09:10:43Z</time>
      </trkpt>
      <trkpt lat="47.70125" lon="3.65506">
        <ele>175.3</ele>
        <time>2022-02-23T09:10:44Z</time>
      </trkpt>
      <trkpt lat="47.70125" lon="3.65506">
        <ele>175.2</ele>
        <time>2022-02-23T09:10:45Z</time>
      </trkpt>
      <trkpt lat="47.70125" lon="3.65506">
        <ele>175.1</ele>
        <time>2022-02-23T09:10:46Z</time>
      </trkpt>
      <trkpt lat="47.70124" lon="3.65507">
        <ele>175</ele>
        <time>2022-02-23T09:10:47Z</time>
      </trkpt>
      <trkpt lat="47.70124" lon="3.65507">
        <ele>174.9</ele>
        <time>2022-02-23T09:10:48Z</time>
      </trkpt>
      <trkpt lat="47.70124" lon="3.65507">
        <ele>174.8</ele>
        <time>2022-02-23T09:10:49Z</time>
      </trkpt>
      <trkpt lat="47.70123" lon="3.65507">
        <ele>174.7</ele>
        <time>2022-02-23T09:10:50Z</time>
      </trkpt>
      <trkpt lat="47.70122" lon="3.65508">
        <ele>174.6</ele>
        <time>2022-02-23T09:10:51Z</time>
      </trkpt>
      <trkpt lat="47.70121" lon="3.65508">
        <ele>174.4</ele>
        <time>2022-02-23T09:10:53Z</time>
      </trkpt>
      <trkpt lat="47.7012" lon="3.65508">
        <ele>174.3</ele>
        <time>2022-02-23T09:10:54Z</time>
      </trkpt>
      <trkpt lat="47.70119" lon="3.65508">
        <ele>174.2</ele>
        <time>2022-02-23T09:10:55Z</time>
      </trkpt>
      <trkpt lat="47.70119" lon="3.65508">
        <ele>174.1</ele>
        <time>2022-02-23T09:10:56Z</time>
      </trkpt>
      <trkpt lat="47.70119" lon="3.65508">
        <ele>174</ele>
        <time>2022-02-23T09:10:57Z</time>
      </trkpt>
      <trkpt lat="47.70119" lon="3.65508">
        <ele>173.7</ele>
        <time>2022-02-23T09:11:00Z</time>
      </trkpt>
      <trkpt lat="47.70119" lon="3.65508">
        <ele>173.6</ele>
        <time>2022-02-23T09:11:01Z</time>
      </trkpt>
      <trkpt lat="47.70119" lon="3.65508">
        <ele>173.5</ele>
        <time>2022-02-23T09:11:02Z</time>
      </trkpt>
      <trkpt lat="47.70119" lon="3.65508">
        <ele>173.3</ele>
        <time>2022-02-23T09:11:04Z</time>
      </trkpt>
      <trkpt lat="47.70119" lon="3.65508">
        <ele>173.2</ele>
        <time>2022-02-23T09:11:06Z</time>
      </trkpt>
      <trkpt lat="47.70119" lon="3.65508">
        <ele>173.1</ele>
        <time>2022-02-23T09:11:07Z</time>
      </trkpt>
      <trkpt lat="47.70119" lon="3.65508">
        <ele>173</ele>
        <time>2022-02-23T09:11:08Z</time>
      </trkpt>
      <trkpt lat="47.70119" lon="3.65508">
        <ele>172.9</ele>
        <time>2022-02-23T09:11:09Z</time>
      </trkpt>
      <trkpt lat="47.70118" lon="3.65508">
        <ele>172.7</ele>
        <time>2022-02-23T09:11:10Z</time>
      </trkpt>
      <trkpt lat="47.70117" lon="3.65508">
        <ele>172.6</ele>
        <time>2022-02-23T09:11:11Z</time>
      </trkpt>
      <trkpt lat="47.70116" lon="3.65508">
        <ele>172.5</ele>
        <time>2022-02-23T09:11:12Z</time>
      </trkpt>
      <trkpt lat="47.70116" lon="3.65509">
        <ele>172.4</ele>
        <time>2022-02-23T09:11:13Z</time>
      </trkpt>
      <trkpt lat="47.70115" lon="3.65509">
        <ele>172.3</ele>
        <time>2022-02-23T09:11:14Z</time>
      </trkpt>
      <trkpt lat="47.70114" lon="3.65509">
        <ele>172.2</ele>
        <time>2022-02-23T09:11:15Z</time>
      </trkpt>
      <trkpt lat="47.70113" lon="3.65507">
        <ele>172</ele>
        <time>2022-02-23T09:11:16Z</time>
      </trkpt>
      <trkpt lat="47.70111" lon="3.65506">
        <ele>171.9</ele>
        <time>2022-02-23T09:11:17Z</time>
      </trkpt>
      <trkpt lat="47.70109" lon="3.65505">
        <ele>171.3</ele>
        <time>2022-02-23T09:11:18Z</time>
      </trkpt>
      <trkpt lat="47.70108" lon="3.65505">
        <ele>171.2</ele>
        <time>2022-02-23T09:11:19Z</time>
      </trkpt>
      <trkpt lat="47.70107" lon="3.65505">
        <ele>171</ele>
        <time>2022-02-23T09:11:20Z</time>
      </trkpt>
      <trkpt lat="47.70105" lon="3.65505">
        <ele>170.9</ele>
        <time>2022-02-23T09:11:21Z</time>
      </trkpt>
      <trkpt lat="47.70104" lon="3.65505">
        <ele>170.8</ele>
        <time>2022-02-23T09:11:22Z</time>
      </trkpt>
      <trkpt lat="47.70102" lon="3.65505">
        <ele>170.6</ele>
        <time>2022-02-23T09:11:24Z</time>
      </trkpt>
      <trkpt lat="47.70101" lon="3.65505">
        <ele>170.5</ele>
        <time>2022-02-23T09:11:25Z</time>
      </trkpt>
      <trkpt lat="47.701" lon="3.65505">
        <ele>170.4</ele>
        <time>2022-02-23T09:11:26Z</time>
      </trkpt>
      <trkpt lat="47.70099" lon="3.65504">
        <ele>170.3</ele>
        <time>2022-02-23T09:11:27Z</time>
      </trkpt>
      <trkpt lat="47.70097" lon="3.65504">
        <ele>170.1</ele>
        <time>2022-02-23T09:11:29Z</time>
      </trkpt>
      <trkpt lat="47.70097" lon="3.65504">
        <ele>170</ele>
        <time>2022-02-23T09:11:30Z</time>
      </trkpt>
      <trkpt lat="47.70096" lon="3.65504">
        <ele>169.9</ele>
        <time>2022-02-23T09:11:31Z</time>
      </trkpt>
      <trkpt lat="47.70096" lon="3.65504">
        <ele>169.8</ele>
        <time>2022-02-23T09:11:32Z</time>
      </trkpt>
      <trkpt lat="47.70095" lon="3.65504">
        <ele>169.6</ele>
        <time>2022-02-23T09:11:33Z</time>
      </trkpt>
      <trkpt lat="47.70094" lon="3.65504">
        <ele>169.5</ele>
        <time>2022-02-23T09:11:34Z</time>
      </trkpt>
      <trkpt lat="47.70094" lon="3.65504">
        <ele>169.4</ele>
        <time>2022-02-23T09:11:35Z</time>
      </trkpt>
      <trkpt lat="47.70093" lon="3.65503">
        <ele>169.3</ele>
        <time>2022-02-23T09:11:37Z</time>
      </trkpt>
      <trkpt lat="47.70092" lon="3.65503">
        <ele>169.1</ele>
        <time>2022-02-23T09:11:38Z</time>
      </trkpt>
      <trkpt lat="47.70091" lon="3.65502">
        <ele>169</ele>
        <time>2022-02-23T09:11:39Z</time>
      </trkpt>
      <trkpt lat="47.70091" lon="3.65502">
        <ele>168.9</ele>
        <time>2022-02-23T09:11:40Z</time>
      </trkpt>
      <trkpt lat="47.7009" lon="3.65503">
        <ele>168.8</ele>
        <time>2022-02-23T09:11:41Z</time>
      </trkpt>
      <trkpt lat="47.7009" lon="3.65503">
        <ele>168.5</ele>
        <time>2022-02-23T09:11:42Z</time>
      </trkpt>
      <trkpt lat="47.70088" lon="3.65503">
        <ele>168.4</ele>
        <time>2022-02-23T09:11:44Z</time>
      </trkpt>
      <trkpt lat="47.70087" lon="3.65503">
        <ele>168.3</ele>
        <time>2022-02-23T09:11:45Z</time>
      </trkpt>
      <trkpt lat="47.70086" lon="3.65504">
        <ele>168</ele>
        <time>2022-02-23T09:11:46Z</time>
      </trkpt>
      <trkpt lat="47.70086" lon="3.65505">
        <ele>167.9</ele>
        <time>2022-02-23T09:11:47Z</time>
      </trkpt>
      <trkpt lat="47.70085" lon="3.65505">
        <ele>167.8</ele>
        <time>2022-02-23T09:11:49Z</time>
      </trkpt>
      <trkpt lat="47.70084" lon="3.65504">
        <ele>167.4</ele>
        <time>2022-02-23T09:11:50Z</time>
      </trkpt>
      <trkpt lat="47.70083" lon="3.65503">
        <ele>167.3</ele>
        <time>2022-02-23T09:11:51Z</time>
      </trkpt>
      <trkpt lat="47.70082" lon="3.65503">
        <ele>167.2</ele>
        <time>2022-02-23T09:11:53Z</time>
      </trkpt>
      <trkpt lat="47.70081" lon="3.65502">
        <ele>167.1</ele>
        <time>2022-02-23T09:11:54Z</time>
      </trkpt>
      <trkpt lat="47.70081" lon="3.65501">
        <ele>166.5</ele>
        <time>2022-02-23T09:11:56Z</time>
      </trkpt>
      <trkpt lat="47.70079" lon="3.65501">
        <ele>166.4</ele>
        <time>2022-02-23T09:11:57Z</time>
      </trkpt>
      <trkpt lat="47.70079" lon="3.65501">
        <ele>166.3</ele>
        <time>2022-02-23T09:11:58Z</time>
      </trkpt>
      <trkpt lat="47.70078" lon="3.655">
        <ele>165.9</ele>
        <time>2022-02-23T09:12:00Z</time>
      </trkpt>
      <trkpt lat="47.70078" lon="3.65499">
        <ele>165.8</ele>
        <time>2022-02-23T09:12:01Z</time>
      </trkpt>
      <trkpt lat="47.70077" lon="3.65499">
        <ele>165.7</ele>
        <time>2022-02-23T09:12:02Z</time>
      </trkpt>
      <trkpt lat="47.70077" lon="3.65499">
        <ele>165.5</ele>
        <time>2022-02-23T09:12:05Z</time>
      </trkpt>
      <trkpt lat="47.70077" lon="3.655">
        <ele>165.4</ele>
        <time>2022-02-23T09:12:06Z</time>
      </trkpt>
      <trkpt lat="47.70076" lon="3.65501">
        <ele>165.3</ele>
        <time>2022-02-23T09:12:07Z</time>
      </trkpt>
      <trkpt lat="47.70075" lon="3.65502">
        <ele>165.1</ele>
        <time>2022-02-23T09:12:08Z</time>
      </trkpt>
      <trkpt lat="47.70074" lon="3.65503">
        <ele>165</ele>
        <time>2022-02-23T09:12:10Z</time>
      </trkpt>
      <trkpt lat="47.70073" lon="3.65504">
        <ele>164.9</ele>
        <time>2022-02-23T09:12:11Z</time>
      </trkpt>
      <trkpt lat="47.70072" lon="3.65507">
        <ele>164.7</ele>
        <time>2022-02-23T09:12:13Z</time>
      </trkpt>
      <trkpt lat="47.70072" lon="3.65508">
        <ele>164.7</ele>
        <time>2022-02-23T09:12:14Z</time>
      </trkpt>
      <trkpt lat="47.70072" lon="3.65508">
        <ele>164.8</ele>
        <time>2022-02-23T09:12:15Z</time>
      </trkpt>
      <trkpt lat="47.70072" lon="3.65509">
        <ele>164.8</ele>
        <time>2022-02-23T09:12:16Z</time>
      </trkpt>
      <trkpt lat="47.70072" lon="3.65509">
        <ele>164.8</ele>
        <time>2022-02-23T09:12:18Z</time>
      </trkpt>
      <trkpt lat="47.70072" lon="3.65509">
        <ele>164.8</ele>
        <time>2022-02-23T09:12:19Z</time>
      </trkpt>
      <trkpt lat="47.70072" lon="3.65509">
        <ele>164.8</ele>
        <time>2022-02-23T09:12:20Z</time>
      </trkpt>
      <trkpt lat="47.70072" lon="3.65508">
        <ele>164.8</ele>
        <time>2022-02-23T09:12:21Z</time>
      </trkpt>
      <trkpt lat="47.70071" lon="3.65508">
        <ele>164.8</ele>
        <time>2022-02-23T09:12:22Z</time>
      </trkpt>
      <trkpt lat="47.70071" lon="3.65508">
        <ele>164.8</ele>
        <time>2022-02-23T09:12:23Z</time>
      </trkpt>
      <trkpt lat="47.70071" lon="3.65508">
        <ele>164.9</ele>
        <time>2022-02-23T09:12:24Z</time>
      </trkpt>
      <trkpt lat="47.70071" lon="3.65507">
        <ele>164.9</ele>
        <time>2022-02-23T09:12:25Z</time>
      </trkpt>
      <trkpt lat="47.70071" lon="3.65507">
        <ele>164.9</ele>
        <time>2022-02-23T09:12:26Z</time>
      </trkpt>
      <trkpt lat="47.70071" lon="3.65507">
        <ele>164.9</ele>
        <time>2022-02-23T09:12:27Z</time>
      </trkpt>
      <trkpt lat="47.70071" lon="3.65507">
        <ele>164.9</ele>
        <time>2022-02-23T09:12:28Z</time>
      </trkpt>
      <trkpt lat="47.70071" lon="3.65507">
        <ele>164.9</ele>
        <time>2022-02-23T09:12:29Z</time>
      </trkpt>
      <trkpt lat="47.70071" lon="3.65507">
        <ele>164.9</ele>
        <time>2022-02-23T09:12:30Z</time>
      </trkpt>
      <trkpt lat="47.70071" lon="3.65507">
        <ele>164.9</ele>
        <time>2022-02-23T09:12:31Z</time>
      </trkpt>
      <trkpt lat="47.70071" lon="3.65507">
        <ele>165</ele>
        <time>2022-02-23T09:12:32Z</time>
      </trkpt>
      <trkpt lat="47.70071" lon="3.65506">
        <ele>165</ele>
        <time>2022-02-23T09:12:33Z</time>
      </trkpt>
      <trkpt lat="47.70071" lon="3.65506">
        <ele>165</ele>
        <time>2022-02-23T09:12:34Z</time>
      </trkpt>
      <trkpt lat="47.70071" lon="3.65506">
        <ele>165</ele>
        <time>2022-02-23T09:12:35Z</time>
      </trkpt>
      <trkpt lat="47.7007" lon="3.65506">
        <ele>165</ele>
        <time>2022-02-23T09:12:36Z</time>
      </trkpt>
      <trkpt lat="47.7007" lon="3.65506">
        <ele>165</ele>
        <time>2022-02-23T09:12:37Z</time>
      </trkpt>
      <trkpt lat="47.7007" lon="3.65506">
        <ele>165</ele>
        <time>2022-02-23T09:12:38Z</time>
      </trkpt>
      <trkpt lat="47.70071" lon="3.65505">
        <ele>165</ele>
        <time>2022-02-23T09:12:39Z</time>
      </trkpt>
      <trkpt lat="47.70071" lon="3.65505">
        <ele>165.1</ele>
        <time>2022-02-23T09:12:40Z</time>
      </trkpt>
      <trkpt lat="47.70071" lon="3.65505">
        <ele>165.1</ele>
        <time>2022-02-23T09:12:41Z</time>
      </trkpt>
      <trkpt lat="47.70071" lon="3.65505">
        <ele>165.1</ele>
        <time>2022-02-23T09:12:42Z</time>
      </trkpt>
      <trkpt lat="47.70071" lon="3.65506">
        <ele>165.1</ele>
        <time>2022-02-23T09:12:43Z</time>
      </trkpt>
      <trkpt lat="47.70071" lon="3.65505">
        <ele>165.1</ele>
        <time>2022-02-23T09:12:44Z</time>
      </trkpt>
      <trkpt lat="47.70071" lon="3.65505">
        <ele>165.2</ele>
        <time>2022-02-23T09:12:45Z</time>
      </trkpt>
      <trkpt lat="47.70071" lon="3.65505">
        <ele>165.2</ele>
        <time>2022-02-23T09:12:47Z</time>
      </trkpt>
      <trkpt lat="47.7007" lon="3.65506">
        <ele>165.2</ele>
        <time>2022-02-23T09:12:48Z</time>
      </trkpt>
      <trkpt lat="47.7007" lon="3.65506">
        <ele>165.2</ele>
        <time>2022-02-23T09:12:49Z</time>
      </trkpt>
      <trkpt lat="47.7007" lon="3.65508">
        <ele>165.3</ele>
        <time>2022-02-23T09:12:51Z</time>
      </trkpt>
      <trkpt lat="47.70071" lon="3.65508">
        <ele>165.3</ele>
        <time>2022-02-23T09:12:52Z</time>
      </trkpt>
      <trkpt lat="47.70071" lon="3.65509">
        <ele>165.4</ele>
        <time>2022-02-23T09:12:53Z</time>
      </trkpt>
      <trkpt lat="47.70071" lon="3.6551">
        <ele>165.4</ele>
        <time>2022-02-23T09:12:54Z</time>
      </trkpt>
      <trkpt lat="47.70072" lon="3.65511">
        <ele>165.5</ele>
        <time>2022-02-23T09:12:55Z</time>
      </trkpt>
      <trkpt lat="47.70072" lon="3.65512">
        <ele>165.5</ele>
        <time>2022-02-23T09:12:57Z</time>
      </trkpt>
      <trkpt lat="47.70072" lon="3.65513">
        <ele>165.6</ele>
        <time>2022-02-23T09:12:58Z</time>
      </trkpt>
      <trkpt lat="47.70072" lon="3.65513">
        <ele>165.6</ele>
        <time>2022-02-23T09:12:59Z</time>
      </trkpt>
      <trkpt lat="47.70071" lon="3.65513">
        <ele>165.6</ele>
        <time>2022-02-23T09:13:00Z</time>
      </trkpt>
      <trkpt lat="47.70072" lon="3.65513">
        <ele>165.6</ele>
        <time>2022-02-23T09:13:01Z</time>
      </trkpt>
      <trkpt lat="47.70072" lon="3.65513">
        <ele>165.6</ele>
        <time>2022-02-23T09:13:02Z</time>
      </trkpt>
      <trkpt lat="47.70072" lon="3.65513">
        <ele>165.6</ele>
        <time>2022-02-23T09:13:03Z</time>
      </trkpt>
      <trkpt lat="47.70072" lon="3.65513">
        <ele>165.6</ele>
        <time>2022-02-23T09:13:04Z</time>
      </trkpt>
      <trkpt lat="47.70072" lon="3.65513">
        <ele>165.7</ele>
        <time>2022-02-23T09:13:05Z</time>
      </trkpt>
      <trkpt lat="47.70072" lon="3.65513">
        <ele>165.7</ele>
        <time>2022-02-23T09:13:07Z</time>
      </trkpt>
      <trkpt lat="47.70072" lon="3.65513">
        <ele>165.7</ele>
        <time>2022-02-23T09:13:08Z</time>
      </trkpt>
      <trkpt lat="47.70072" lon="3.65513">
        <ele>165.7</ele>
        <time>2022-02-23T09:13:10Z</time>
      </trkpt>
      <trkpt lat="47.70072" lon="3.65513">
        <ele>165.7</ele>
        <time>2022-02-23T09:13:11Z</time>
      </trkpt>
      <trkpt lat="47.70072" lon="3.65513">
        <ele>165.7</ele>
        <time>2022-02-23T09:13:12Z</time>
      </trkpt>
      <trkpt lat="47.70072" lon="3.65513">
        <ele>165.7</ele>
        <time>2022-02-23T09:13:13Z</time>
      </trkpt>
      <trkpt lat="47.70072" lon="3.65512">
        <ele>165.7</ele>
        <time>2022-02-23T09:13:14Z</time>
      </trkpt>
      <trkpt lat="47.70072" lon="3.65512">
        <ele>165.8</ele>
        <time>2022-02-23T09:13:15Z</time>
      </trkpt>
      <trkpt lat="47.70071" lon="3.65512">
        <ele>165.8</ele>
        <time>2022-02-23T09:13:16Z</time>
      </trkpt>
      <trkpt lat="47.70071" lon="3.65511">
        <ele>165.8</ele>
        <time>2022-02-23T09:13:17Z</time>
      </trkpt>
      <trkpt lat="47.70071" lon="3.65511">
        <ele>165.9</ele>
        <time>2022-02-23T09:13:18Z</time>
      </trkpt>
      <trkpt lat="47.70071" lon="3.65511">
        <ele>165.9</ele>
        <time>2022-02-23T09:13:19Z</time>
      </trkpt>
      <trkpt lat="47.70071" lon="3.65511">
        <ele>165.9</ele>
        <time>2022-02-23T09:13:20Z</time>
      </trkpt>
      <trkpt lat="47.70071" lon="3.65511">
        <ele>165.9</ele>
        <time>2022-02-23T09:13:21Z</time>
      </trkpt>
      <trkpt lat="47.70071" lon="3.65511">
        <ele>165.9</ele>
        <time>2022-02-23T09:13:22Z</time>
      </trkpt>
      <trkpt lat="47.70071" lon="3.65511">
        <ele>165.9</ele>
        <time>2022-02-23T09:13:23Z</time>
      </trkpt>
      <trkpt lat="47.70071" lon="3.65511">
        <ele>165.9</ele>
        <time>2022-02-23T09:13:24Z</time>
      </trkpt>
      <trkpt lat="47.70071" lon="3.65511">
        <ele>165.9</ele>
        <time>2022-02-23T09:13:25Z</time>
      </trkpt>
      <trkpt lat="47.70071" lon="3.65511">
        <ele>165.9</ele>
        <time>2022-02-23T09:13:26Z</time>
      </trkpt>
      <trkpt lat="47.70071" lon="3.65511">
        <ele>165.9</ele>
        <time>2022-02-23T09:13:27Z</time>
      </trkpt>
      <trkpt lat="47.70071" lon="3.65511">
        <ele>166</ele>
        <time>2022-02-23T09:13:28Z</time>
      </trkpt>
      <trkpt lat="47.70071" lon="3.65511">
        <ele>166</ele>
        <time>2022-02-23T09:13:29Z</time>
      </trkpt>
      <trkpt lat="47.70071" lon="3.65511">
        <ele>166</ele>
        <time>2022-02-23T09:13:30Z</time>
      </trkpt>
      <trkpt lat="47.70071" lon="3.65511">
        <ele>166</ele>
        <time>2022-02-23T09:13:31Z</time>
      </trkpt>
      <trkpt lat="47.70071" lon="3.65511">
        <ele>166</ele>
        <time>2022-02-23T09:13:32Z</time>
      </trkpt>
      <trkpt lat="47.70071" lon="3.65511">
        <ele>166</ele>
        <time>2022-02-23T09:13:33Z</time>
      </trkpt>
      <trkpt lat="47.70071" lon="3.65511">
        <ele>166</ele>
        <time>2022-02-23T09:13:34Z</time>
      </trkpt>
      <trkpt lat="47.70071" lon="3.65511">
        <ele>166</ele>
        <time>2022-02-23T09:13:36Z</time>
      </trkpt>
      <trkpt lat="47.70071" lon="3.65511">
        <ele>166.1</ele>
        <time>2022-02-23T09:13:37Z</time>
      </trkpt>
      <trkpt lat="47.70071" lon="3.65511">
        <ele>166.1</ele>
        <time>2022-02-23T09:13:38Z</time>
      </trkpt>
      <trkpt lat="47.70071" lon="3.65512">
        <ele>166.1</ele>
        <time>2022-02-23T09:13:39Z</time>
      </trkpt>
      <trkpt lat="47.70071" lon="3.65511">
        <ele>166.1</ele>
        <time>2022-02-23T09:13:40Z</time>
      </trkpt>
      <trkpt lat="47.70071" lon="3.65511">
        <ele>166.1</ele>
        <time>2022-02-23T09:13:41Z</time>
      </trkpt>
      <trkpt lat="47.70072" lon="3.65511">
        <ele>166.1</ele>
        <time>2022-02-23T09:13:42Z</time>
      </trkpt>
      <trkpt lat="47.70072" lon="3.65511">
        <ele>166.1</ele>
        <time>2022-02-23T09:13:43Z</time>
      </trkpt>
      <trkpt lat="47.70072" lon="3.65511">
        <ele>166.2</ele>
        <time>2022-02-23T09:13:45Z</time>
      </trkpt>
      <trkpt lat="47.70072" lon="3.65511">
        <ele>166.2</ele>
        <time>2022-02-23T09:13:46Z</time>
      </trkpt>
      <trkpt lat="47.70072" lon="3.65512">
        <ele>166.2</ele>
        <time>2022-02-23T09:13:47Z</time>
      </trkpt>
      <trkpt lat="47.70072" lon="3.65512">
        <ele>166.3</ele>
        <time>2022-02-23T09:13:48Z</time>
      </trkpt>
      <trkpt lat="47.70072" lon="3.65512">
        <ele>166.3</ele>
        <time>2022-02-23T09:13:49Z</time>
      </trkpt>
      <trkpt lat="47.70072" lon="3.65512">
        <ele>166.3</ele>
        <time>2022-02-23T09:13:50Z</time>
      </trkpt>
      <trkpt lat="47.70072" lon="3.65512">
        <ele>166.3</ele>
        <time>2022-02-23T09:13:51Z</time>
      </trkpt>
      <trkpt lat="47.70072" lon="3.65512">
        <ele>166.3</ele>
        <time>2022-02-23T09:13:52Z</time>
      </trkpt>
      <trkpt lat="47.70072" lon="3.65512">
        <ele>166.3</ele>
        <time>2022-02-23T09:13:53Z</time>
      </trkpt>
      <trkpt lat="47.70072" lon="3.65512">
        <ele>166.3</ele>
        <time>2022-02-23T09:13:54Z</time>
      </trkpt>
      <trkpt lat="47.70072" lon="3.65513">
        <ele>166.4</ele>
        <time>2022-02-23T09:13:55Z</time>
      </trkpt>
      <trkpt lat="47.70072" lon="3.65513">
        <ele>166.4</ele>
        <time>2022-02-23T09:13:56Z</time>
      </trkpt>
      <trkpt lat="47.70072" lon="3.65513">
        <ele>166.4</ele>
        <time>2022-02-23T09:13:57Z</time>
      </trkpt>
      <trkpt lat="47.70072" lon="3.65513">
        <ele>166.4</ele>
        <time>2022-02-23T09:13:59Z</time>
      </trkpt>
      <trkpt lat="47.70072" lon="3.65513">
        <ele>166.4</ele>
        <time>2022-02-23T09:14:00Z</time>
      </trkpt>
      <trkpt lat="47.70072" lon="3.65513">
        <ele>166.4</ele>
        <time>2022-02-23T09:14:01Z</time>
      </trkpt>
      <trkpt lat="47.70072" lon="3.65513">
        <ele>166.5</ele>
        <time>2022-02-23T09:14:02Z</time>
      </trkpt>
      <trkpt lat="47.70072" lon="3.65513">
        <ele>166.5</ele>
        <time>2022-02-23T09:14:03Z</time>
      </trkpt>
      <trkpt lat="47.70073" lon="3.65513">
        <ele>166.5</ele>
        <time>2022-02-23T09:14:04Z</time>
      </trkpt>
      <trkpt lat="47.70073" lon="3.65513">
        <ele>166.5</ele>
        <time>2022-02-23T09:14:05Z</time>
      </trkpt>
      <trkpt lat="47.70073" lon="3.65513">
        <ele>166.5</ele>
        <time>2022-02-23T09:14:06Z</time>
      </trkpt>
      <trkpt lat="47.70072" lon="3.65513">
        <ele>166.5</ele>
        <time>2022-02-23T09:14:07Z</time>
      </trkpt>
      <trkpt lat="47.70072" lon="3.65513">
        <ele>166.5</ele>
        <time>2022-02-23T09:14:08Z</time>
      </trkpt>
      <trkpt lat="47.70072" lon="3.65513">
        <ele>166.6</ele>
        <time>2022-02-23T09:14:10Z</time>
      </trkpt>
      <trkpt lat="47.70072" lon="3.65513">
        <ele>166.6</ele>
        <time>2022-02-23T09:14:11Z</time>
      </trkpt>
      <trkpt lat="47.70073" lon="3.65513">
        <ele>166.6</ele>
        <time>2022-02-23T09:14:12Z</time>
      </trkpt>
      <trkpt lat="47.70073" lon="3.65513">
        <ele>166.6</ele>
        <time>2022-02-23T09:14:13Z</time>
      </trkpt>
      <trkpt lat="47.70073" lon="3.65514">
        <ele>166.6</ele>
        <time>2022-02-23T09:14:14Z</time>
      </trkpt>
      <trkpt lat="47.70073" lon="3.65514">
        <ele>166.6</ele>
        <time>2022-02-23T09:14:15Z</time>
      </trkpt>
      <trkpt lat="47.70073" lon="3.65514">
        <ele>166.7</ele>
        <time>2022-02-23T09:14:16Z</time>
      </trkpt>
      <trkpt lat="47.70073" lon="3.65514">
        <ele>166.7</ele>
        <time>2022-02-23T09:14:17Z</time>
      </trkpt>
      <trkpt lat="47.70073" lon="3.65514">
        <ele>166.7</ele>
        <time>2022-02-23T09:14:18Z</time>
      </trkpt>
      <trkpt lat="47.70073" lon="3.65514">
        <ele>166.7</ele>
        <time>2022-02-23T09:14:19Z</time>
      </trkpt>
      <trkpt lat="47.70072" lon="3.65514">
        <ele>166.7</ele>
        <time>2022-02-23T09:14:20Z</time>
      </trkpt>
      <trkpt lat="47.70072" lon="3.65514">
        <ele>166.7</ele>
        <time>2022-02-23T09:14:21Z</time>
      </trkpt>
      <trkpt lat="47.70072" lon="3.65514">
        <ele>166.8</ele>
        <time>2022-02-23T09:14:23Z</time>
      </trkpt>
      <trkpt lat="47.70072" lon="3.65513">
        <ele>166.8</ele>
        <time>2022-02-23T09:14:24Z</time>
      </trkpt>
      <trkpt lat="47.70072" lon="3.65513">
        <ele>166.8</ele>
        <time>2022-02-23T09:14:25Z</time>
      </trkpt>
      <trkpt lat="47.70072" lon="3.65514">
        <ele>166.9</ele>
        <time>2022-02-23T09:14:26Z</time>
      </trkpt>
      <trkpt lat="47.70072" lon="3.65514">
        <ele>166.9</ele>
        <time>2022-02-23T09:14:28Z</time>
      </trkpt>
      <trkpt lat="47.70072" lon="3.65514">
        <ele>166.9</ele>
        <time>2022-02-23T09:14:29Z</time>
      </trkpt>
      <trkpt lat="47.70072" lon="3.65514">
        <ele>166.9</ele>
        <time>2022-02-23T09:14:30Z</time>
      </trkpt>
      <trkpt lat="47.70072" lon="3.65514">
        <ele>166.9</ele>
        <time>2022-02-23T09:14:31Z</time>
      </trkpt>
      <trkpt lat="47.70072" lon="3.65513">
        <ele>166.9</ele>
        <time>2022-02-23T09:14:32Z</time>
      </trkpt>
      <trkpt lat="47.70073" lon="3.65513">
        <ele>167</ele>
        <time>2022-02-23T09:14:33Z</time>
      </trkpt>
      <trkpt lat="47.70073" lon="3.65513">
        <ele>167</ele>
        <time>2022-02-23T09:14:34Z</time>
      </trkpt>
      <trkpt lat="47.70073" lon="3.65513">
        <ele>167</ele>
        <time>2022-02-23T09:14:35Z</time>
      </trkpt>
      <trkpt lat="47.70073" lon="3.65512">
        <ele>167</ele>
        <time>2022-02-23T09:14:36Z</time>
      </trkpt>
      <trkpt lat="47.70073" lon="3.65512">
        <ele>167</ele>
        <time>2022-02-23T09:14:37Z</time>
      </trkpt>
      <trkpt lat="47.70073" lon="3.65512">
        <ele>167</ele>
        <time>2022-02-23T09:14:38Z</time>
      </trkpt>
      <trkpt lat="47.70073" lon="3.65512">
        <ele>167</ele>
        <time>2022-02-23T09:14:40Z</time>
      </trkpt>
      <trkpt lat="47.70073" lon="3.65512">
        <ele>167.1</ele>
        <time>2022-02-23T09:14:43Z</time>
      </trkpt>
      <trkpt lat="47.70072" lon="3.65512">
        <ele>167.1</ele>
        <time>2022-02-23T09:14:44Z</time>
      </trkpt>
      <trkpt lat="47.70072" lon="3.65512">
        <ele>167.1</ele>
        <time>2022-02-23T09:14:45Z</time>
      </trkpt>
      <trkpt lat="47.70072" lon="3.65512">
        <ele>167.1</ele>
        <time>2022-02-23T09:14:46Z</time>
      </trkpt>
      <trkpt lat="47.70072" lon="3.65512">
        <ele>167.1</ele>
        <time>2022-02-23T09:14:47Z</time>
      </trkpt>
      <trkpt lat="47.70072" lon="3.65513">
        <ele>167.1</ele>
        <time>2022-02-23T09:14:48Z</time>
      </trkpt>
      <trkpt lat="47.70072" lon="3.65513">
        <ele>167.1</ele>
        <time>2022-02-23T09:14:50Z</time>
      </trkpt>
      <trkpt lat="47.70072" lon="3.65513">
        <ele>167.1</ele>
        <time>2022-02-23T09:14:51Z</time>
      </trkpt>
      <trkpt lat="47.70072" lon="3.65513">
        <ele>167.2</ele>
        <time>2022-02-23T09:14:54Z</time>
      </trkpt>
      <trkpt lat="47.70072" lon="3.65513">
        <ele>167.2</ele>
        <time>2022-02-23T09:14:55Z</time>
      </trkpt>
      <trkpt lat="47.70072" lon="3.65513">
        <ele>167.2</ele>
        <time>2022-02-23T09:14:56Z</time>
      </trkpt>
      <trkpt lat="47.70072" lon="3.65513">
        <ele>167.2</ele>
        <time>2022-02-23T09:14:57Z</time>
      </trkpt>
      <trkpt lat="47.70072" lon="3.65513">
        <ele>167.2</ele>
        <time>2022-02-23T09:14:58Z</time>
      </trkpt>
      <trkpt lat="47.70073" lon="3.65513">
        <ele>167.2</ele>
        <time>2022-02-23T09:14:59Z</time>
      </trkpt>
      <trkpt lat="47.70073" lon="3.65513">
        <ele>167.3</ele>
        <time>2022-02-23T09:15:00Z</time>
      </trkpt>
      <trkpt lat="47.70073" lon="3.65513">
        <ele>167.3</ele>
        <time>2022-02-23T09:15:01Z</time>
      </trkpt>
      <trkpt lat="47.70073" lon="3.65513">
        <ele>167.3</ele>
        <time>2022-02-23T09:15:02Z</time>
      </trkpt>
      <trkpt lat="47.70073" lon="3.65513">
        <ele>167.3</ele>
        <time>2022-02-23T09:15:03Z</time>
      </trkpt>
      <trkpt lat="47.70073" lon="3.65513">
        <ele>167.3</ele>
        <time>2022-02-23T09:15:04Z</time>
      </trkpt>
      <trkpt lat="47.70073" lon="3.65513">
        <ele>167.3</ele>
        <time>2022-02-23T09:15:05Z</time>
      </trkpt>
      <trkpt lat="47.70073" lon="3.65513">
        <ele>167.3</ele>
        <time>2022-02-23T09:15:06Z</time>
      </trkpt>
      <trkpt lat="47.70073" lon="3.65512">
        <ele>167.4</ele>
        <time>2022-02-23T09:15:10Z</time>
      </trkpt>
      <trkpt lat="47.70073" lon="3.65512">
        <ele>167.4</ele>
        <time>2022-02-23T09:15:11Z</time>
      </trkpt>
      <trkpt lat="47.70073" lon="3.65512">
        <ele>167.4</ele>
        <time>2022-02-23T09:15:12Z</time>
      </trkpt>
      <trkpt lat="47.70073" lon="3.65512">
        <ele>167.4</ele>
        <time>2022-02-23T09:15:13Z</time>
      </trkpt>
      <trkpt lat="47.70073" lon="3.65512">
        <ele>167.4</ele>
        <time>2022-02-23T09:15:14Z</time>
      </trkpt>
      <trkpt lat="47.70073" lon="3.65513">
        <ele>167.5</ele>
        <time>2022-02-23T09:15:15Z</time>
      </trkpt>
      <trkpt lat="47.70073" lon="3.65513">
        <ele>167.5</ele>
        <time>2022-02-23T09:15:16Z</time>
      </trkpt>
      <trkpt lat="47.70073" lon="3.65513">
        <ele>167.5</ele>
        <time>2022-02-23T09:15:17Z</time>
      </trkpt>
      <trkpt lat="47.70073" lon="3.65513">
        <ele>167.5</ele>
        <time>2022-02-23T09:15:18Z</time>
      </trkpt>
      <trkpt lat="47.70073" lon="3.65513">
        <ele>167.5</ele>
        <time>2022-02-23T09:15:19Z</time>
      </trkpt>
      <trkpt lat="47.70073" lon="3.65514">
        <ele>167.6</ele>
        <time>2022-02-23T09:15:20Z</time>
      </trkpt>
      <trkpt lat="47.70073" lon="3.65514">
        <ele>167.6</ele>
        <time>2022-02-23T09:15:21Z</time>
      </trkpt>
      <trkpt lat="47.70073" lon="3.65514">
        <ele>167.6</ele>
        <time>2022-02-23T09:15:23Z</time>
      </trkpt>
      <trkpt lat="47.70073" lon="3.65514">
        <ele>167.6</ele>
        <time>2022-02-23T09:15:24Z</time>
      </trkpt>
      <trkpt lat="47.70073" lon="3.65514">
        <ele>167.6</ele>
        <time>2022-02-23T09:15:26Z</time>
      </trkpt>
      <trkpt lat="47.70072" lon="3.65514">
        <ele>167.6</ele>
        <time>2022-02-23T09:15:27Z</time>
      </trkpt>
      <trkpt lat="47.70072" lon="3.65514">
        <ele>167.6</ele>
        <time>2022-02-23T09:15:28Z</time>
      </trkpt>
      <trkpt lat="47.70072" lon="3.65514">
        <ele>167.6</ele>
        <time>2022-02-23T09:15:30Z</time>
      </trkpt>
      <trkpt lat="47.70072" lon="3.65514">
        <ele>167.6</ele>
        <time>2022-02-23T09:15:31Z</time>
      </trkpt>
      <trkpt lat="47.70072" lon="3.65514">
        <ele>167.6</ele>
        <time>2022-02-23T09:15:32Z</time>
      </trkpt>
      <trkpt lat="47.70072" lon="3.65514">
        <ele>167.7</ele>
        <time>2022-02-23T09:15:33Z</time>
      </trkpt>
      <trkpt lat="47.70072" lon="3.65514">
        <ele>167.7</ele>
        <time>2022-02-23T09:15:35Z</time>
      </trkpt>
      <trkpt lat="47.70072" lon="3.65514">
        <ele>167.7</ele>
        <time>2022-02-23T09:15:36Z</time>
      </trkpt>
      <trkpt lat="47.70072" lon="3.65515">
        <ele>167.7</ele>
        <time>2022-02-23T09:15:37Z</time>
      </trkpt>
      <trkpt lat="47.70072" lon="3.65515">
        <ele>167.7</ele>
        <time>2022-02-23T09:15:38Z</time>
      </trkpt>
      <trkpt lat="47.70072" lon="3.65515">
        <ele>167.7</ele>
        <time>2022-02-23T09:15:40Z</time>
      </trkpt>
      <trkpt lat="47.70072" lon="3.65515">
        <ele>167.8</ele>
        <time>2022-02-23T09:15:42Z</time>
      </trkpt>
      <trkpt lat="47.70072" lon="3.65515">
        <ele>167.8</ele>
        <time>2022-02-23T09:15:43Z</time>
      </trkpt>
      <trkpt lat="47.70072" lon="3.65515">
        <ele>167.8</ele>
        <time>2022-02-23T09:15:44Z</time>
      </trkpt>
      <trkpt lat="47.70072" lon="3.65515">
        <ele>167.8</ele>
        <time>2022-02-23T09:15:46Z</time>
      </trkpt>
      <trkpt lat="47.70072" lon="3.65515">
        <ele>167.8</ele>
        <time>2022-02-23T09:15:47Z</time>
      </trkpt>
      <trkpt lat="47.70072" lon="3.65516">
        <ele>167.8</ele>
        <time>2022-02-23T09:15:48Z</time>
      </trkpt>
      <trkpt lat="47.70072" lon="3.65516">
        <ele>167.8</ele>
        <time>2022-02-23T09:15:49Z</time>
      </trkpt>
      <trkpt lat="47.70072" lon="3.65516">
        <ele>167.8</ele>
        <time>2022-02-23T09:15:52Z</time>
      </trkpt>
      <trkpt lat="47.70072" lon="3.65516">
        <ele>167.8</ele>
        <time>2022-02-23T09:15:53Z</time>
      </trkpt>
      <trkpt lat="47.70072" lon="3.65516">
        <ele>167.8</ele>
        <time>2022-02-23T09:15:54Z</time>
      </trkpt>
      <trkpt lat="47.70072" lon="3.65516">
        <ele>167.8</ele>
        <time>2022-02-23T09:15:56Z</time>
      </trkpt>
      <trkpt lat="47.70072" lon="3.65516">
        <ele>167.9</ele>
        <time>2022-02-23T09:15:58Z</time>
      </trkpt>
      <trkpt lat="47.70072" lon="3.65516">
        <ele>167.9</ele>
        <time>2022-02-23T09:15:59Z</time>
      </trkpt>
      <trkpt lat="47.70072" lon="3.65516">
        <ele>167.9</ele>
        <time>2022-02-23T09:16:02Z</time>
      </trkpt>
      <trkpt lat="47.70072" lon="3.65516">
        <ele>167.9</ele>
        <time>2022-02-23T09:16:03Z</time>
      </trkpt>
      <trkpt lat="47.70072" lon="3.65516">
        <ele>167.9</ele>
        <time>2022-02-23T09:16:04Z</time>
      </trkpt>
      <trkpt lat="47.70071" lon="3.65516">
        <ele>167.9</ele>
        <time>2022-02-23T09:16:05Z</time>
      </trkpt>
      <trkpt lat="47.70071" lon="3.65516">
        <ele>167.9</ele>
        <time>2022-02-23T09:16:06Z</time>
      </trkpt>
      <trkpt lat="47.70071" lon="3.65516">
        <ele>168</ele>
        <time>2022-02-23T09:16:07Z</time>
      </trkpt>
      <trkpt lat="47.70071" lon="3.65515">
        <ele>168</ele>
        <time>2022-02-23T09:16:08Z</time>
      </trkpt>
      <trkpt lat="47.70071" lon="3.65515">
        <ele>168</ele>
        <time>2022-02-23T09:16:09Z</time>
      </trkpt>
      <trkpt lat="47.70072" lon="3.65514">
        <ele>168.1</ele>
        <time>2022-02-23T09:16:10Z</time>
      </trkpt>
      <trkpt lat="47.70072" lon="3.65514">
        <ele>168.1</ele>
        <time>2022-02-23T09:16:11Z</time>
      </trkpt>
      <trkpt lat="47.70072" lon="3.65514">
        <ele>168.1</ele>
        <time>2022-02-23T09:16:12Z</time>
      </trkpt>
      <trkpt lat="47.70072" lon="3.65514">
        <ele>168.1</ele>
        <time>2022-02-23T09:16:13Z</time>
      </trkpt>
      <trkpt lat="47.70072" lon="3.65514">
        <ele>168.1</ele>
        <time>2022-02-23T09:16:14Z</time>
      </trkpt>
      <trkpt lat="47.70072" lon="3.65515">
        <ele>168.1</ele>
        <time>2022-02-23T09:16:15Z</time>
      </trkpt>
      <trkpt lat="47.70071" lon="3.65515">
        <ele>168.1</ele>
        <time>2022-02-23T09:16:16Z</time>
      </trkpt>
      <trkpt lat="47.70071" lon="3.65514">
        <ele>168.1</ele>
        <time>2022-02-23T09:16:17Z</time>
      </trkpt>
      <trkpt lat="47.70071" lon="3.65514">
        <ele>168.2</ele>
        <time>2022-02-23T09:16:18Z</time>
      </trkpt>
      <trkpt lat="47.70071" lon="3.65514">
        <ele>168.2</ele>
        <time>2022-02-23T09:16:19Z</time>
      </trkpt>
      <trkpt lat="47.7007" lon="3.65514">
        <ele>168.2</ele>
        <time>2022-02-23T09:16:20Z</time>
      </trkpt>
      <trkpt lat="47.7007" lon="3.65514">
        <ele>168.2</ele>
        <time>2022-02-23T09:16:21Z</time>
      </trkpt>
      <trkpt lat="47.7007" lon="3.65514">
        <ele>168.2</ele>
        <time>2022-02-23T09:16:23Z</time>
      </trkpt>
      <trkpt lat="47.7007" lon="3.65514">
        <ele>168.2</ele>
        <time>2022-02-23T09:16:26Z</time>
      </trkpt>
      <trkpt lat="47.7007" lon="3.65515">
        <ele>168.3</ele>
        <time>2022-02-23T09:16:28Z</time>
      </trkpt>
      <trkpt lat="47.7007" lon="3.65515">
        <ele>168.3</ele>
        <time>2022-02-23T09:16:29Z</time>
      </trkpt>
      <trkpt lat="47.7007" lon="3.65515">
        <ele>168.3</ele>
        <time>2022-02-23T09:16:31Z</time>
      </trkpt>
      <trkpt lat="47.7007" lon="3.65515">
        <ele>168.3</ele>
        <time>2022-02-23T09:16:32Z</time>
      </trkpt>
      <trkpt lat="47.7007" lon="3.65515">
        <ele>168.3</ele>
        <time>2022-02-23T09:16:33Z</time>
      </trkpt>
      <trkpt lat="47.7007" lon="3.65515">
        <ele>168.3</ele>
        <time>2022-02-23T09:16:34Z</time>
      </trkpt>
      <trkpt lat="47.70071" lon="3.65515">
        <ele>168.3</ele>
        <time>2022-02-23T09:16:35Z</time>
      </trkpt>
      <trkpt lat="47.70071" lon="3.65515">
        <ele>168.3</ele>
        <time>2022-02-23T09:16:36Z</time>
      </trkpt>
      <trkpt lat="47.70071" lon="3.65515">
        <ele>168.3</ele>
        <time>2022-02-23T09:16:37Z</time>
      </trkpt>
      <trkpt lat="47.70071" lon="3.65515">
        <ele>168.3</ele>
        <time>2022-02-23T09:16:38Z</time>
      </trkpt>
      <trkpt lat="47.70071" lon="3.65515">
        <ele>168.3</ele>
        <time>2022-02-23T09:16:39Z</time>
      </trkpt>
      <trkpt lat="47.70071" lon="3.65515">
        <ele>168.4</ele>
        <time>2022-02-23T09:16:40Z</time>
      </trkpt>
      <trkpt lat="47.70071" lon="3.65515">
        <ele>168.4</ele>
        <time>2022-02-23T09:16:42Z</time>
      </trkpt>
      <trkpt lat="47.70071" lon="3.65515">
        <ele>168.4</ele>
        <time>2022-02-23T09:16:43Z</time>
      </trkpt>
      <trkpt lat="47.70071" lon="3.65516">
        <ele>168.4</ele>
        <time>2022-02-23T09:16:44Z</time>
      </trkpt>
      <trkpt lat="47.70071" lon="3.65516">
        <ele>168.4</ele>
        <time>2022-02-23T09:16:45Z</time>
      </trkpt>
      <trkpt lat="47.70072" lon="3.65515">
        <ele>168.5</ele>
        <time>2022-02-23T09:16:46Z</time>
      </trkpt>
      <trkpt lat="47.70072" lon="3.65515">
        <ele>168.5</ele>
        <time>2022-02-23T09:16:47Z</time>
      </trkpt>
      <trkpt lat="47.70072" lon="3.65515">
        <ele>168.5</ele>
        <time>2022-02-23T09:16:48Z</time>
      </trkpt>
      <trkpt lat="47.70072" lon="3.65515">
        <ele>168.5</ele>
        <time>2022-02-23T09:16:49Z</time>
      </trkpt>
      <trkpt lat="47.70072" lon="3.65515">
        <ele>168.5</ele>
        <time>2022-02-23T09:16:50Z</time>
      </trkpt>
      <trkpt lat="47.70072" lon="3.65515">
        <ele>168.5</ele>
        <time>2022-02-23T09:16:51Z</time>
      </trkpt>
      <trkpt lat="47.70072" lon="3.65514">
        <ele>168.5</ele>
        <time>2022-02-23T09:16:52Z</time>
      </trkpt>
      <trkpt lat="47.70073" lon="3.65514">
        <ele>168.6</ele>
        <time>2022-02-23T09:16:53Z</time>
      </trkpt>
      <trkpt lat="47.70073" lon="3.65514">
        <ele>168.6</ele>
        <time>2022-02-23T09:16:54Z</time>
      </trkpt>
      <trkpt lat="47.70073" lon="3.65514">
        <ele>168.6</ele>
        <time>2022-02-23T09:16:55Z</time>
      </trkpt>
      <trkpt lat="47.70073" lon="3.65514">
        <ele>168.6</ele>
        <time>2022-02-23T09:16:57Z</time>
      </trkpt>
      <trkpt lat="47.70073" lon="3.65513">
        <ele>168.6</ele>
        <time>2022-02-23T09:16:58Z</time>
      </trkpt>
      <trkpt lat="47.70073" lon="3.65513">
        <ele>168.6</ele>
        <time>2022-02-23T09:16:59Z</time>
      </trkpt>
      <trkpt lat="47.70073" lon="3.65513">
        <ele>168.7</ele>
        <time>2022-02-23T09:17:00Z</time>
      </trkpt>
      <trkpt lat="47.70073" lon="3.65513">
        <ele>168.7</ele>
        <time>2022-02-23T09:17:01Z</time>
      </trkpt>
      <trkpt lat="47.70073" lon="3.65512">
        <ele>168.7</ele>
        <time>2022-02-23T09:17:02Z</time>
      </trkpt>
      <trkpt lat="47.70073" lon="3.65512">
        <ele>168.7</ele>
        <time>2022-02-23T09:17:03Z</time>
      </trkpt>
      <trkpt lat="47.70073" lon="3.65512">
        <ele>168.7</ele>
        <time>2022-02-23T09:17:04Z</time>
      </trkpt>
      <trkpt lat="47.70073" lon="3.65512">
        <ele>168.7</ele>
        <time>2022-02-23T09:17:05Z</time>
      </trkpt>
      <trkpt lat="47.70073" lon="3.65512">
        <ele>168.8</ele>
        <time>2022-02-23T09:17:06Z</time>
      </trkpt>
      <trkpt lat="47.70073" lon="3.65512">
        <ele>168.8</ele>
        <time>2022-02-23T09:17:07Z</time>
      </trkpt>
      <trkpt lat="47.70073" lon="3.65512">
        <ele>168.8</ele>
        <time>2022-02-23T09:17:08Z</time>
      </trkpt>
      <trkpt lat="47.70073" lon="3.65513">
        <ele>168.8</ele>
        <time>2022-02-23T09:17:09Z</time>
      </trkpt>
      <trkpt lat="47.70073" lon="3.65513">
        <ele>168.8</ele>
        <time>2022-02-23T09:17:10Z</time>
      </trkpt>
      <trkpt lat="47.70073" lon="3.65513">
        <ele>168.9</ele>
        <time>2022-02-23T09:17:11Z</time>
      </trkpt>
      <trkpt lat="47.70074" lon="3.65513">
        <ele>168.9</ele>
        <time>2022-02-23T09:17:12Z</time>
      </trkpt>
      <trkpt lat="47.70074" lon="3.65513">
        <ele>168.9</ele>
        <time>2022-02-23T09:17:13Z</time>
      </trkpt>
      <trkpt lat="47.70074" lon="3.65512">
        <ele>168.9</ele>
        <time>2022-02-23T09:17:14Z</time>
      </trkpt>
      <trkpt lat="47.70074" lon="3.65512">
        <ele>168.9</ele>
        <time>2022-02-23T09:17:18Z</time>
      </trkpt>
      <trkpt lat="47.70074" lon="3.65512">
        <ele>168.9</ele>
        <time>2022-02-23T09:17:19Z</time>
      </trkpt>
      <trkpt lat="47.70074" lon="3.65513">
        <ele>168.9</ele>
        <time>2022-02-23T09:17:23Z</time>
      </trkpt>
      <trkpt lat="47.70073" lon="3.65513">
        <ele>169</ele>
        <time>2022-02-23T09:17:24Z</time>
      </trkpt>
      <trkpt lat="47.70074" lon="3.65514">
        <ele>169</ele>
        <time>2022-02-23T09:17:25Z</time>
      </trkpt>
      <trkpt lat="47.70074" lon="3.65513">
        <ele>169.1</ele>
        <time>2022-02-23T09:17:26Z</time>
      </trkpt>
      <trkpt lat="47.70074" lon="3.65513">
        <ele>169.1</ele>
        <time>2022-02-23T09:17:27Z</time>
      </trkpt>
      <trkpt lat="47.70074" lon="3.65514">
        <ele>169.2</ele>
        <time>2022-02-23T09:17:29Z</time>
      </trkpt>
      <trkpt lat="47.70073" lon="3.65516">
        <ele>169.3</ele>
        <time>2022-02-23T09:17:30Z</time>
      </trkpt>
      <trkpt lat="47.70073" lon="3.65517">
        <ele>169.3</ele>
        <time>2022-02-23T09:17:31Z</time>
      </trkpt>
      <trkpt lat="47.70073" lon="3.65517">
        <ele>169.3</ele>
        <time>2022-02-23T09:17:32Z</time>
      </trkpt>
      <trkpt lat="47.70073" lon="3.65518">
        <ele>169.4</ele>
        <time>2022-02-23T09:17:33Z</time>
      </trkpt>
      <trkpt lat="47.70073" lon="3.65518">
        <ele>169.4</ele>
        <time>2022-02-23T09:17:34Z</time>
      </trkpt>
      <trkpt lat="47.70073" lon="3.65519">
        <ele>169.5</ele>
        <time>2022-02-23T09:17:35Z</time>
      </trkpt>
      <trkpt lat="47.70073" lon="3.6552">
        <ele>169.5</ele>
        <time>2022-02-23T09:17:36Z</time>
      </trkpt>
      <trkpt lat="47.70073" lon="3.65521">
        <ele>169.6</ele>
        <time>2022-02-23T09:17:37Z</time>
      </trkpt>
      <trkpt lat="47.70072" lon="3.65522">
        <ele>169.7</ele>
        <time>2022-02-23T09:17:38Z</time>
      </trkpt>
      <trkpt lat="47.70072" lon="3.65524">
        <ele>169.8</ele>
        <time>2022-02-23T09:17:40Z</time>
      </trkpt>
      <trkpt lat="47.70072" lon="3.65525">
        <ele>169.8</ele>
        <time>2022-02-23T09:17:41Z</time>
      </trkpt>
      <trkpt lat="47.70072" lon="3.65527">
        <ele>169.9</ele>
        <time>2022-02-23T09:17:42Z</time>
      </trkpt>
      <trkpt lat="47.70071" lon="3.65528">
        <ele>170</ele>
        <time>2022-02-23T09:17:43Z</time>
      </trkpt>
      <trkpt lat="47.70071" lon="3.6553">
        <ele>170.1</ele>
        <time>2022-02-23T09:17:44Z</time>
      </trkpt>
      <trkpt lat="47.70071" lon="3.65533">
        <ele>170.3</ele>
        <time>2022-02-23T09:17:45Z</time>
      </trkpt>
      <trkpt lat="47.70071" lon="3.65534">
        <ele>170.4</ele>
        <time>2022-02-23T09:17:46Z</time>
      </trkpt>
      <trkpt lat="47.70071" lon="3.65536">
        <ele>170.5</ele>
        <time>2022-02-23T09:17:47Z</time>
      </trkpt>
      <trkpt lat="47.70071" lon="3.65538">
        <ele>170.6</ele>
        <time>2022-02-23T09:17:49Z</time>
      </trkpt>
      <trkpt lat="47.70071" lon="3.6554">
        <ele>170.7</ele>
        <time>2022-02-23T09:17:50Z</time>
      </trkpt>
      <trkpt lat="47.70071" lon="3.65542">
        <ele>170.8</ele>
        <time>2022-02-23T09:17:51Z</time>
      </trkpt>
      <trkpt lat="47.70071" lon="3.65544">
        <ele>170.9</ele>
        <time>2022-02-23T09:17:52Z</time>
      </trkpt>
      <trkpt lat="47.70072" lon="3.65545">
        <ele>171</ele>
        <time>2022-02-23T09:17:53Z</time>
      </trkpt>
      <trkpt lat="47.70072" lon="3.65546">
        <ele>171.1</ele>
        <time>2022-02-23T09:17:55Z</time>
      </trkpt>
      <trkpt lat="47.70073" lon="3.65548">
        <ele>171.2</ele>
        <time>2022-02-23T09:17:56Z</time>
      </trkpt>
      <trkpt lat="47.70073" lon="3.65549">
        <ele>171.2</ele>
        <time>2022-02-23T09:17:57Z</time>
      </trkpt>
      <trkpt lat="47.70073" lon="3.6555">
        <ele>171.3</ele>
        <time>2022-02-23T09:17:58Z</time>
      </trkpt>
      <trkpt lat="47.70073" lon="3.65551">
        <ele>171.3</ele>
        <time>2022-02-23T09:17:59Z</time>
      </trkpt>
      <trkpt lat="47.70074" lon="3.65552">
        <ele>171.4</ele>
        <time>2022-02-23T09:18:00Z</time>
      </trkpt>
      <trkpt lat="47.70074" lon="3.65553">
        <ele>171.5</ele>
        <time>2022-02-23T09:18:01Z</time>
      </trkpt>
      <trkpt lat="47.70075" lon="3.65555">
        <ele>171.6</ele>
        <time>2022-02-23T09:18:03Z</time>
      </trkpt>
      <trkpt lat="47.70075" lon="3.65556">
        <ele>171.6</ele>
        <time>2022-02-23T09:18:04Z</time>
      </trkpt>
      <trkpt lat="47.70075" lon="3.65557">
        <ele>171.7</ele>
        <time>2022-02-23T09:18:05Z</time>
      </trkpt>
      <trkpt lat="47.70075" lon="3.65559">
        <ele>171.7</ele>
        <time>2022-02-23T09:18:07Z</time>
      </trkpt>
      <trkpt lat="47.70075" lon="3.65561">
        <ele>171.8</ele>
        <time>2022-02-23T09:18:08Z</time>
      </trkpt>
      <trkpt lat="47.70075" lon="3.65562">
        <ele>171.9</ele>
        <time>2022-02-23T09:18:09Z</time>
      </trkpt>
      <trkpt lat="47.70074" lon="3.65563">
        <ele>171.9</ele>
        <time>2022-02-23T09:18:10Z</time>
      </trkpt>
      <trkpt lat="47.70074" lon="3.65565">
        <ele>172</ele>
        <time>2022-02-23T09:18:11Z</time>
      </trkpt>
      <trkpt lat="47.70074" lon="3.65565">
        <ele>172</ele>
        <time>2022-02-23T09:18:12Z</time>
      </trkpt>
      <trkpt lat="47.70073" lon="3.65566">
        <ele>172.1</ele>
        <time>2022-02-23T09:18:13Z</time>
      </trkpt>
      <trkpt lat="47.70073" lon="3.65568">
        <ele>172.1</ele>
        <time>2022-02-23T09:18:14Z</time>
      </trkpt>
      <trkpt lat="47.70073" lon="3.65568">
        <ele>172.2</ele>
        <time>2022-02-23T09:18:15Z</time>
      </trkpt>
      <trkpt lat="47.70073" lon="3.65569">
        <ele>172.2</ele>
        <time>2022-02-23T09:18:16Z</time>
      </trkpt>
      <trkpt lat="47.70073" lon="3.6557">
        <ele>172.2</ele>
        <time>2022-02-23T09:18:17Z</time>
      </trkpt>
      <trkpt lat="47.70072" lon="3.65571">
        <ele>172.3</ele>
        <time>2022-02-23T09:18:18Z</time>
      </trkpt>
      <trkpt lat="47.70072" lon="3.65572">
        <ele>172.3</ele>
        <time>2022-02-23T09:18:19Z</time>
      </trkpt>
      <trkpt lat="47.70072" lon="3.65574">
        <ele>172.4</ele>
        <time>2022-02-23T09:18:20Z</time>
      </trkpt>
      <trkpt lat="47.70072" lon="3.65574">
        <ele>172.4</ele>
        <time>2022-02-23T09:18:21Z</time>
      </trkpt>
      <trkpt lat="47.70072" lon="3.65576">
        <ele>172.4</ele>
        <time>2022-02-23T09:18:23Z</time>
      </trkpt>
      <trkpt lat="47.70072" lon="3.65578">
        <ele>172.5</ele>
        <time>2022-02-23T09:18:24Z</time>
      </trkpt>
      <trkpt lat="47.70072" lon="3.65579">
        <ele>172.5</ele>
        <time>2022-02-23T09:18:25Z</time>
      </trkpt>
      <trkpt lat="47.70072" lon="3.65579">
        <ele>172.6</ele>
        <time>2022-02-23T09:18:26Z</time>
      </trkpt>
      <trkpt lat="47.70072" lon="3.65581">
        <ele>172.6</ele>
        <time>2022-02-23T09:18:28Z</time>
      </trkpt>
      <trkpt lat="47.70072" lon="3.65582">
        <ele>172.6</ele>
        <time>2022-02-23T09:18:29Z</time>
      </trkpt>
      <trkpt lat="47.70072" lon="3.65584">
        <ele>172.7</ele>
        <time>2022-02-23T09:18:31Z</time>
      </trkpt>
      <trkpt lat="47.70073" lon="3.65585">
        <ele>172.7</ele>
        <time>2022-02-23T09:18:32Z</time>
      </trkpt>
      <trkpt lat="47.70073" lon="3.65586">
        <ele>172.8</ele>
        <time>2022-02-23T09:18:33Z</time>
      </trkpt>
      <trkpt lat="47.70073" lon="3.65587">
        <ele>172.8</ele>
        <time>2022-02-23T09:18:34Z</time>
      </trkpt>
      <trkpt lat="47.70073" lon="3.65589">
        <ele>172.8</ele>
        <time>2022-02-23T09:18:36Z</time>
      </trkpt>
      <trkpt lat="47.70073" lon="3.6559">
        <ele>172.9</ele>
        <time>2022-02-23T09:18:37Z</time>
      </trkpt>
      <trkpt lat="47.70073" lon="3.65591">
        <ele>172.9</ele>
        <time>2022-02-23T09:18:39Z</time>
      </trkpt>
      <trkpt lat="47.70074" lon="3.65593">
        <ele>173</ele>
        <time>2022-02-23T09:18:40Z</time>
      </trkpt>
      <trkpt lat="47.70074" lon="3.65595">
        <ele>173</ele>
        <time>2022-02-23T09:18:41Z</time>
      </trkpt>
      <trkpt lat="47.70074" lon="3.65596">
        <ele>173</ele>
        <time>2022-02-23T09:18:42Z</time>
      </trkpt>
      <trkpt lat="47.70073" lon="3.65597">
        <ele>173.1</ele>
        <time>2022-02-23T09:18:44Z</time>
      </trkpt>
      <trkpt lat="47.70073" lon="3.65598">
        <ele>173.1</ele>
        <time>2022-02-23T09:18:45Z</time>
      </trkpt>
      <trkpt lat="47.70072" lon="3.65599">
        <ele>173.1</ele>
        <time>2022-02-23T09:18:46Z</time>
      </trkpt>
      <trkpt lat="47.70072" lon="3.656">
        <ele>173.2</ele>
        <time>2022-02-23T09:18:47Z</time>
      </trkpt>
      <trkpt lat="47.70072" lon="3.656">
        <ele>173.2</ele>
        <time>2022-02-23T09:18:48Z</time>
      </trkpt>
      <trkpt lat="47.70071" lon="3.65601">
        <ele>173.2</ele>
        <time>2022-02-23T09:18:49Z</time>
      </trkpt>
      <trkpt lat="47.70071" lon="3.65602">
        <ele>173.2</ele>
        <time>2022-02-23T09:18:50Z</time>
      </trkpt>
      <trkpt lat="47.7007" lon="3.65603">
        <ele>173.3</ele>
        <time>2022-02-23T09:18:52Z</time>
      </trkpt>
      <trkpt lat="47.7007" lon="3.65604">
        <ele>173.3</ele>
        <time>2022-02-23T09:18:53Z</time>
      </trkpt>
      <trkpt lat="47.7007" lon="3.65606">
        <ele>173.4</ele>
        <time>2022-02-23T09:18:54Z</time>
      </trkpt>
      <trkpt lat="47.7007" lon="3.65608">
        <ele>173.4</ele>
        <time>2022-02-23T09:18:56Z</time>
      </trkpt>
      <trkpt lat="47.7007" lon="3.65609">
        <ele>173.5</ele>
        <time>2022-02-23T09:18:57Z</time>
      </trkpt>
      <trkpt lat="47.7007" lon="3.6561">
        <ele>173.5</ele>
        <time>2022-02-23T09:18:58Z</time>
      </trkpt>
      <trkpt lat="47.70069" lon="3.65612">
        <ele>173.6</ele>
        <time>2022-02-23T09:19:00Z</time>
      </trkpt>
      <trkpt lat="47.70068" lon="3.65613">
        <ele>173.6</ele>
        <time>2022-02-23T09:19:01Z</time>
      </trkpt>
      <trkpt lat="47.70068" lon="3.65614">
        <ele>173.7</ele>
        <time>2022-02-23T09:19:03Z</time>
      </trkpt>
      <trkpt lat="47.70067" lon="3.65615">
        <ele>173.7</ele>
        <time>2022-02-23T09:19:04Z</time>
      </trkpt>
      <trkpt lat="47.70067" lon="3.65616">
        <ele>173.8</ele>
        <time>2022-02-23T09:19:05Z</time>
      </trkpt>
      <trkpt lat="47.70066" lon="3.65618">
        <ele>173.8</ele>
        <time>2022-02-23T09:19:06Z</time>
      </trkpt>
      <trkpt lat="47.70066" lon="3.65619">
        <ele>173.8</ele>
        <time>2022-02-23T09:19:07Z</time>
      </trkpt>
      <trkpt lat="47.70066" lon="3.65619">
        <ele>173.9</ele>
        <time>2022-02-23T09:19:08Z</time>
      </trkpt>
      <trkpt lat="47.70066" lon="3.65619">
        <ele>173.9</ele>
        <time>2022-02-23T09:19:09Z</time>
      </trkpt>
      <trkpt lat="47.70066" lon="3.6562">
        <ele>173.9</ele>
        <time>2022-02-23T09:19:10Z</time>
      </trkpt>
      <trkpt lat="47.70065" lon="3.65622">
        <ele>174</ele>
        <time>2022-02-23T09:19:11Z</time>
      </trkpt>
      <trkpt lat="47.70065" lon="3.65624">
        <ele>174</ele>
        <time>2022-02-23T09:19:12Z</time>
      </trkpt>
      <trkpt lat="47.70065" lon="3.65626">
        <ele>174.1</ele>
        <time>2022-02-23T09:19:14Z</time>
      </trkpt>
      <trkpt lat="47.70065" lon="3.65628">
        <ele>174.2</ele>
        <time>2022-02-23T09:19:15Z</time>
      </trkpt>
      <trkpt lat="47.70066" lon="3.65631">
        <ele>174.3</ele>
        <time>2022-02-23T09:19:17Z</time>
      </trkpt>
      <trkpt lat="47.70066" lon="3.65633">
        <ele>174.4</ele>
        <time>2022-02-23T09:19:18Z</time>
      </trkpt>
      <trkpt lat="47.70066" lon="3.65634">
        <ele>174.4</ele>
        <time>2022-02-23T09:19:19Z</time>
      </trkpt>
      <trkpt lat="47.70066" lon="3.65635">
        <ele>174.5</ele>
        <time>2022-02-23T09:19:20Z</time>
      </trkpt>
      <trkpt lat="47.70067" lon="3.65636">
        <ele>174.5</ele>
        <time>2022-02-23T09:19:21Z</time>
      </trkpt>
      <trkpt lat="47.70067" lon="3.65637">
        <ele>174.5</ele>
        <time>2022-02-23T09:19:22Z</time>
      </trkpt>
      <trkpt lat="47.70067" lon="3.65637">
        <ele>174.6</ele>
        <time>2022-02-23T09:19:23Z</time>
      </trkpt>
      <trkpt lat="47.70067" lon="3.65638">
        <ele>174.6</ele>
        <time>2022-02-23T09:19:24Z</time>
      </trkpt>
      <trkpt lat="47.70067" lon="3.65639">
        <ele>174.6</ele>
        <time>2022-02-23T09:19:25Z</time>
      </trkpt>
      <trkpt lat="47.70067" lon="3.6564">
        <ele>174.6</ele>
        <time>2022-02-23T09:19:26Z</time>
      </trkpt>
      <trkpt lat="47.70068" lon="3.65641">
        <ele>174.7</ele>
        <time>2022-02-23T09:19:28Z</time>
      </trkpt>
      <trkpt lat="47.70068" lon="3.65643">
        <ele>174.8</ele>
        <time>2022-02-23T09:19:29Z</time>
      </trkpt>
      <trkpt lat="47.70067" lon="3.65645">
        <ele>174.8</ele>
        <time>2022-02-23T09:19:30Z</time>
      </trkpt>
      <trkpt lat="47.70067" lon="3.65647">
        <ele>174.9</ele>
        <time>2022-02-23T09:19:32Z</time>
      </trkpt>
      <trkpt lat="47.70067" lon="3.65648">
        <ele>174.9</ele>
        <time>2022-02-23T09:19:33Z</time>
      </trkpt>
      <trkpt lat="47.70067" lon="3.65648">
        <ele>175</ele>
        <time>2022-02-23T09:19:34Z</time>
      </trkpt>
      <trkpt lat="47.70067" lon="3.65649">
        <ele>175</ele>
        <time>2022-02-23T09:19:35Z</time>
      </trkpt>
      <trkpt lat="47.70067" lon="3.6565">
        <ele>175</ele>
        <time>2022-02-23T09:19:36Z</time>
      </trkpt>
      <trkpt lat="47.70067" lon="3.6565">
        <ele>175</ele>
        <time>2022-02-23T09:19:37Z</time>
      </trkpt>
      <trkpt lat="47.70067" lon="3.65651">
        <ele>175.1</ele>
        <time>2022-02-23T09:19:38Z</time>
      </trkpt>
      <trkpt lat="47.70067" lon="3.65651">
        <ele>175.1</ele>
        <time>2022-02-23T09:19:39Z</time>
      </trkpt>
      <trkpt lat="47.70068" lon="3.65653">
        <ele>175.1</ele>
        <time>2022-02-23T09:19:41Z</time>
      </trkpt>
      <trkpt lat="47.70068" lon="3.65654">
        <ele>175.2</ele>
        <time>2022-02-23T09:19:43Z</time>
      </trkpt>
      <trkpt lat="47.70068" lon="3.65655">
        <ele>175.2</ele>
        <time>2022-02-23T09:19:44Z</time>
      </trkpt>
      <trkpt lat="47.70068" lon="3.65656">
        <ele>175.2</ele>
        <time>2022-02-23T09:19:45Z</time>
      </trkpt>
      <trkpt lat="47.70068" lon="3.65657">
        <ele>175.3</ele>
        <time>2022-02-23T09:19:46Z</time>
      </trkpt>
      <trkpt lat="47.70068" lon="3.65658">
        <ele>175.3</ele>
        <time>2022-02-23T09:19:47Z</time>
      </trkpt>
      <trkpt lat="47.70069" lon="3.6566">
        <ele>175.3</ele>
        <time>2022-02-23T09:19:49Z</time>
      </trkpt>
      <trkpt lat="47.70069" lon="3.65661">
        <ele>175.4</ele>
        <time>2022-02-23T09:19:50Z</time>
      </trkpt>
      <trkpt lat="47.70069" lon="3.65663">
        <ele>175.4</ele>
        <time>2022-02-23T09:19:51Z</time>
      </trkpt>
      <trkpt lat="47.70069" lon="3.65664">
        <ele>175.4</ele>
        <time>2022-02-23T09:19:53Z</time>
      </trkpt>
      <trkpt lat="47.70069" lon="3.65666">
        <ele>175.5</ele>
        <time>2022-02-23T09:19:54Z</time>
      </trkpt>
      <trkpt lat="47.70069" lon="3.65667">
        <ele>175.5</ele>
        <time>2022-02-23T09:19:55Z</time>
      </trkpt>
      <trkpt lat="47.70069" lon="3.65669">
        <ele>175.5</ele>
        <time>2022-02-23T09:19:57Z</time>
      </trkpt>
      <trkpt lat="47.70069" lon="3.6567">
        <ele>175.6</ele>
        <time>2022-02-23T09:19:58Z</time>
      </trkpt>
      <trkpt lat="47.70069" lon="3.65672">
        <ele>175.6</ele>
        <time>2022-02-23T09:19:59Z</time>
      </trkpt>
      <trkpt lat="47.70069" lon="3.65673">
        <ele>175.6</ele>
        <time>2022-02-23T09:20:00Z</time>
      </trkpt>
      <trkpt lat="47.70069" lon="3.65675">
        <ele>175.6</ele>
        <time>2022-02-23T09:20:02Z</time>
      </trkpt>
      <trkpt lat="47.70069" lon="3.65677">
        <ele>175.7</ele>
        <time>2022-02-23T09:20:03Z</time>
      </trkpt>
      <trkpt lat="47.70069" lon="3.65679">
        <ele>175.7</ele>
        <time>2022-02-23T09:20:05Z</time>
      </trkpt>
      <trkpt lat="47.70068" lon="3.6568">
        <ele>175.7</ele>
        <time>2022-02-23T09:20:06Z</time>
      </trkpt>
      <trkpt lat="47.70067" lon="3.65682">
        <ele>175.7</ele>
        <time>2022-02-23T09:20:07Z</time>
      </trkpt>
      <trkpt lat="47.70067" lon="3.65683">
        <ele>175.7</ele>
        <time>2022-02-23T09:20:08Z</time>
      </trkpt>
      <trkpt lat="47.70066" lon="3.65684">
        <ele>175.7</ele>
        <time>2022-02-23T09:20:10Z</time>
      </trkpt>
      <trkpt lat="47.70066" lon="3.65685">
        <ele>175.7</ele>
        <time>2022-02-23T09:20:11Z</time>
      </trkpt>
      <trkpt lat="47.70066" lon="3.65686">
        <ele>175.7</ele>
        <time>2022-02-23T09:20:12Z</time>
      </trkpt>
      <trkpt lat="47.70065" lon="3.65688">
        <ele>175.8</ele>
        <time>2022-02-23T09:20:14Z</time>
      </trkpt>
      <trkpt lat="47.70065" lon="3.65689">
        <ele>175.8</ele>
        <time>2022-02-23T09:20:15Z</time>
      </trkpt>
      <trkpt lat="47.70065" lon="3.6569">
        <ele>175.8</ele>
        <time>2022-02-23T09:20:16Z</time>
      </trkpt>
      <trkpt lat="47.70065" lon="3.6569">
        <ele>175.8</ele>
        <time>2022-02-23T09:20:17Z</time>
      </trkpt>
      <trkpt lat="47.70064" lon="3.65691">
        <ele>175.8</ele>
        <time>2022-02-23T09:20:18Z</time>
      </trkpt>
      <trkpt lat="47.70064" lon="3.65691">
        <ele>175.8</ele>
        <time>2022-02-23T09:20:19Z</time>
      </trkpt>
      <trkpt lat="47.70064" lon="3.65692">
        <ele>175.8</ele>
        <time>2022-02-23T09:20:20Z</time>
      </trkpt>
      <trkpt lat="47.70064" lon="3.65694">
        <ele>175.8</ele>
        <time>2022-02-23T09:20:22Z</time>
      </trkpt>
      <trkpt lat="47.70064" lon="3.65694">
        <ele>175.8</ele>
        <time>2022-02-23T09:20:23Z</time>
      </trkpt>
      <trkpt lat="47.70065" lon="3.65695">
        <ele>175.8</ele>
        <time>2022-02-23T09:20:24Z</time>
      </trkpt>
      <trkpt lat="47.70065" lon="3.65696">
        <ele>175.8</ele>
        <time>2022-02-23T09:20:25Z</time>
      </trkpt>
      <trkpt lat="47.70065" lon="3.65697">
        <ele>175.8</ele>
        <time>2022-02-23T09:20:26Z</time>
      </trkpt>
      <trkpt lat="47.70065" lon="3.65699">
        <ele>175.8</ele>
        <time>2022-02-23T09:20:27Z</time>
      </trkpt>
      <trkpt lat="47.70065" lon="3.657">
        <ele>175.8</ele>
        <time>2022-02-23T09:20:28Z</time>
      </trkpt>
      <trkpt lat="47.70065" lon="3.65701">
        <ele>175.8</ele>
        <time>2022-02-23T09:20:30Z</time>
      </trkpt>
      <trkpt lat="47.70066" lon="3.65703">
        <ele>175.8</ele>
        <time>2022-02-23T09:20:31Z</time>
      </trkpt>
      <trkpt lat="47.70066" lon="3.65704">
        <ele>175.8</ele>
        <time>2022-02-23T09:20:32Z</time>
      </trkpt>
      <trkpt lat="47.70066" lon="3.65705">
        <ele>175.8</ele>
        <time>2022-02-23T09:20:34Z</time>
      </trkpt>
      <trkpt lat="47.70066" lon="3.65707">
        <ele>175.7</ele>
        <time>2022-02-23T09:20:35Z</time>
      </trkpt>
      <trkpt lat="47.70066" lon="3.65709">
        <ele>175.7</ele>
        <time>2022-02-23T09:20:37Z</time>
      </trkpt>
      <trkpt lat="47.70065" lon="3.6571">
        <ele>175.7</ele>
        <time>2022-02-23T09:20:38Z</time>
      </trkpt>
      <trkpt lat="47.70065" lon="3.65711">
        <ele>175.7</ele>
        <time>2022-02-23T09:20:39Z</time>
      </trkpt>
      <trkpt lat="47.70065" lon="3.65713">
        <ele>175.7</ele>
        <time>2022-02-23T09:20:41Z</time>
      </trkpt>
      <trkpt lat="47.70065" lon="3.65714">
        <ele>175.7</ele>
        <time>2022-02-23T09:20:42Z</time>
      </trkpt>
      <trkpt lat="47.70064" lon="3.65716">
        <ele>175.7</ele>
        <time>2022-02-23T09:20:43Z</time>
      </trkpt>
      <trkpt lat="47.70064" lon="3.65717">
        <ele>175.7</ele>
        <time>2022-02-23T09:20:44Z</time>
      </trkpt>
      <trkpt lat="47.70064" lon="3.65718">
        <ele>175.7</ele>
        <time>2022-02-23T09:20:46Z</time>
      </trkpt>
      <trkpt lat="47.70064" lon="3.6572">
        <ele>175.7</ele>
        <time>2022-02-23T09:20:47Z</time>
      </trkpt>
      <trkpt lat="47.70063" lon="3.65721">
        <ele>175.7</ele>
        <time>2022-02-23T09:20:48Z</time>
      </trkpt>
      <trkpt lat="47.70063" lon="3.65723">
        <ele>175.7</ele>
        <time>2022-02-23T09:20:50Z</time>
      </trkpt>
      <trkpt lat="47.70063" lon="3.65724">
        <ele>175.7</ele>
        <time>2022-02-23T09:20:51Z</time>
      </trkpt>
      <trkpt lat="47.70062" lon="3.65728">
        <ele>175.7</ele>
        <time>2022-02-23T09:20:52Z</time>
      </trkpt>
      <trkpt lat="47.70062" lon="3.65729">
        <ele>175.7</ele>
        <time>2022-02-23T09:20:53Z</time>
      </trkpt>
      <trkpt lat="47.70062" lon="3.6573">
        <ele>175.7</ele>
        <time>2022-02-23T09:20:54Z</time>
      </trkpt>
      <trkpt lat="47.70062" lon="3.65731">
        <ele>175.7</ele>
        <time>2022-02-23T09:20:55Z</time>
      </trkpt>
      <trkpt lat="47.70061" lon="3.65733">
        <ele>175.8</ele>
        <time>2022-02-23T09:20:56Z</time>
      </trkpt>
      <trkpt lat="47.70061" lon="3.65736">
        <ele>175.8</ele>
        <time>2022-02-23T09:20:58Z</time>
      </trkpt>
      <trkpt lat="47.70061" lon="3.65738">
        <ele>175.8</ele>
        <time>2022-02-23T09:20:59Z</time>
      </trkpt>
      <trkpt lat="47.70061" lon="3.6574">
        <ele>175.8</ele>
        <time>2022-02-23T09:21:00Z</time>
      </trkpt>
      <trkpt lat="47.7006" lon="3.65742">
        <ele>175.8</ele>
        <time>2022-02-23T09:21:02Z</time>
      </trkpt>
      <trkpt lat="47.7006" lon="3.65744">
        <ele>175.9</ele>
        <time>2022-02-23T09:21:03Z</time>
      </trkpt>
      <trkpt lat="47.7006" lon="3.65746">
        <ele>175.9</ele>
        <time>2022-02-23T09:21:05Z</time>
      </trkpt>
      <trkpt lat="47.7006" lon="3.65746">
        <ele>175.9</ele>
        <time>2022-02-23T09:21:06Z</time>
      </trkpt>
      <trkpt lat="47.7006" lon="3.65748">
        <ele>175.9</ele>
        <time>2022-02-23T09:21:07Z</time>
      </trkpt>
      <trkpt lat="47.7006" lon="3.65748">
        <ele>175.9</ele>
        <time>2022-02-23T09:21:08Z</time>
      </trkpt>
      <trkpt lat="47.7006" lon="3.65749">
        <ele>175.9</ele>
        <time>2022-02-23T09:21:09Z</time>
      </trkpt>
      <trkpt lat="47.7006" lon="3.65751">
        <ele>175.9</ele>
        <time>2022-02-23T09:21:10Z</time>
      </trkpt>
      <trkpt lat="47.7006" lon="3.65752">
        <ele>176</ele>
        <time>2022-02-23T09:21:11Z</time>
      </trkpt>
      <trkpt lat="47.7006" lon="3.65754">
        <ele>176</ele>
        <time>2022-02-23T09:21:12Z</time>
      </trkpt>
      <trkpt lat="47.7006" lon="3.65755">
        <ele>176</ele>
        <time>2022-02-23T09:21:13Z</time>
      </trkpt>
      <trkpt lat="47.7006" lon="3.65756">
        <ele>176</ele>
        <time>2022-02-23T09:21:14Z</time>
      </trkpt>
      <trkpt lat="47.7006" lon="3.65758">
        <ele>176.1</ele>
        <time>2022-02-23T09:21:15Z</time>
      </trkpt>
      <trkpt lat="47.7006" lon="3.65758">
        <ele>176.1</ele>
        <time>2022-02-23T09:21:16Z</time>
      </trkpt>
      <trkpt lat="47.7006" lon="3.65759">
        <ele>176.1</ele>
        <time>2022-02-23T09:21:17Z</time>
      </trkpt>
      <trkpt lat="47.7006" lon="3.6576">
        <ele>176.1</ele>
        <time>2022-02-23T09:21:18Z</time>
      </trkpt>
      <trkpt lat="47.70061" lon="3.65759">
        <ele>176.1</ele>
        <time>2022-02-23T09:21:19Z</time>
      </trkpt>
      <trkpt lat="47.70061" lon="3.65758">
        <ele>176.2</ele>
        <time>2022-02-23T09:21:20Z</time>
      </trkpt>
      <trkpt lat="47.70062" lon="3.65758">
        <ele>176.2</ele>
        <time>2022-02-23T09:21:21Z</time>
      </trkpt>
      <trkpt lat="47.70062" lon="3.65758">
        <ele>176.2</ele>
        <time>2022-02-23T09:21:22Z</time>
      </trkpt>
      <trkpt lat="47.70063" lon="3.65758">
        <ele>176.2</ele>
        <time>2022-02-23T09:21:23Z</time>
      </trkpt>
      <trkpt lat="47.70064" lon="3.65759">
        <ele>176.2</ele>
        <time>2022-02-23T09:21:25Z</time>
      </trkpt>
      <trkpt lat="47.70064" lon="3.6576">
        <ele>176.3</ele>
        <time>2022-02-23T09:21:26Z</time>
      </trkpt>
      <trkpt lat="47.70065" lon="3.65761">
        <ele>176.3</ele>
        <time>2022-02-23T09:21:27Z</time>
      </trkpt>
      <trkpt lat="47.70065" lon="3.65762">
        <ele>176.3</ele>
        <time>2022-02-23T09:21:28Z</time>
      </trkpt>
      <trkpt lat="47.70066" lon="3.65764">
        <ele>176.4</ele>
        <time>2022-02-23T09:21:29Z</time>
      </trkpt>
      <trkpt lat="47.70066" lon="3.65766">
        <ele>176.4</ele>
        <time>2022-02-23T09:21:31Z</time>
      </trkpt>
      <trkpt lat="47.70066" lon="3.65769">
        <ele>176.5</ele>
        <time>2022-02-23T09:21:32Z</time>
      </trkpt>
      <trkpt lat="47.70066" lon="3.65771">
        <ele>176.5</ele>
        <time>2022-02-23T09:21:34Z</time>
      </trkpt>
      <trkpt lat="47.70066" lon="3.65772">
        <ele>176.5</ele>
        <time>2022-02-23T09:21:35Z</time>
      </trkpt>
      <trkpt lat="47.70065" lon="3.65774">
        <ele>176.6</ele>
        <time>2022-02-23T09:21:36Z</time>
      </trkpt>
      <trkpt lat="47.70065" lon="3.65776">
        <ele>176.6</ele>
        <time>2022-02-23T09:21:38Z</time>
      </trkpt>
      <trkpt lat="47.70064" lon="3.65777">
        <ele>176.7</ele>
        <time>2022-02-23T09:21:39Z</time>
      </trkpt>
      <trkpt lat="47.70064" lon="3.65778">
        <ele>176.7</ele>
        <time>2022-02-23T09:21:40Z</time>
      </trkpt>
      <trkpt lat="47.70064" lon="3.65779">
        <ele>176.7</ele>
        <time>2022-02-23T09:21:41Z</time>
      </trkpt>
      <trkpt lat="47.70064" lon="3.65779">
        <ele>176.7</ele>
        <time>2022-02-23T09:21:42Z</time>
      </trkpt>
      <trkpt lat="47.70064" lon="3.6578">
        <ele>176.7</ele>
        <time>2022-02-23T09:21:44Z</time>
      </trkpt>
      <trkpt lat="47.70064" lon="3.65781">
        <ele>176.7</ele>
        <time>2022-02-23T09:21:45Z</time>
      </trkpt>
      <trkpt lat="47.70063" lon="3.65782">
        <ele>176.8</ele>
        <time>2022-02-23T09:21:46Z</time>
      </trkpt>
      <trkpt lat="47.70063" lon="3.65783">
        <ele>176.8</ele>
        <time>2022-02-23T09:21:47Z</time>
      </trkpt>
      <trkpt lat="47.70063" lon="3.65784">
        <ele>176.8</ele>
        <time>2022-02-23T09:21:49Z</time>
      </trkpt>
      <trkpt lat="47.70063" lon="3.65784">
        <ele>176.8</ele>
        <time>2022-02-23T09:21:50Z</time>
      </trkpt>
      <trkpt lat="47.70063" lon="3.65784">
        <ele>176.8</ele>
        <time>2022-02-23T09:21:53Z</time>
      </trkpt>
      <trkpt lat="47.70063" lon="3.65784">
        <ele>176.8</ele>
        <time>2022-02-23T09:21:55Z</time>
      </trkpt>
      <trkpt lat="47.70063" lon="3.65783">
        <ele>176.8</ele>
        <time>2022-02-23T09:21:56Z</time>
      </trkpt>
      <trkpt lat="47.70063" lon="3.65783">
        <ele>176.8</ele>
        <time>2022-02-23T09:21:57Z</time>
      </trkpt>
      <trkpt lat="47.70063" lon="3.65784">
        <ele>176.8</ele>
        <time>2022-02-23T09:21:58Z</time>
      </trkpt>
      <trkpt lat="47.70063" lon="3.65784">
        <ele>176.8</ele>
        <time>2022-02-23T09:21:59Z</time>
      </trkpt>
      <trkpt lat="47.70063" lon="3.65785">
        <ele>176.8</ele>
        <time>2022-02-23T09:22:00Z</time>
      </trkpt>
      <trkpt lat="47.70063" lon="3.65786">
        <ele>176.9</ele>
        <time>2022-02-23T09:22:01Z</time>
      </trkpt>
      <trkpt lat="47.70063" lon="3.65788">
        <ele>176.9</ele>
        <time>2022-02-23T09:22:02Z</time>
      </trkpt>
      <trkpt lat="47.70063" lon="3.65789">
        <ele>176.9</ele>
        <time>2022-02-23T09:22:03Z</time>
      </trkpt>
      <trkpt lat="47.70063" lon="3.65791">
        <ele>176.9</ele>
        <time>2022-02-23T09:22:04Z</time>
      </trkpt>
      <trkpt lat="47.70063" lon="3.65793">
        <ele>177</ele>
        <time>2022-02-23T09:22:06Z</time>
      </trkpt>
      <trkpt lat="47.70063" lon="3.65795">
        <ele>177</ele>
        <time>2022-02-23T09:22:07Z</time>
      </trkpt>
      <trkpt lat="47.70063" lon="3.65796">
        <ele>177</ele>
        <time>2022-02-23T09:22:08Z</time>
      </trkpt>
      <trkpt lat="47.70063" lon="3.65798">
        <ele>177</ele>
        <time>2022-02-23T09:22:10Z</time>
      </trkpt>
      <trkpt lat="47.70063" lon="3.658">
        <ele>177.1</ele>
        <time>2022-02-23T09:22:11Z</time>
      </trkpt>
      <trkpt lat="47.70063" lon="3.65803">
        <ele>177.1</ele>
        <time>2022-02-23T09:22:12Z</time>
      </trkpt>
      <trkpt lat="47.70063" lon="3.65804">
        <ele>177.1</ele>
        <time>2022-02-23T09:22:13Z</time>
      </trkpt>
      <trkpt lat="47.70063" lon="3.65807">
        <ele>177.2</ele>
        <time>2022-02-23T09:22:15Z</time>
      </trkpt>
      <trkpt lat="47.70063" lon="3.65808">
        <ele>177.2</ele>
        <time>2022-02-23T09:22:16Z</time>
      </trkpt>
      <trkpt lat="47.70063" lon="3.6581">
        <ele>177.2</ele>
        <time>2022-02-23T09:22:17Z</time>
      </trkpt>
      <trkpt lat="47.70063" lon="3.65812">
        <ele>177.2</ele>
        <time>2022-02-23T09:22:19Z</time>
      </trkpt>
      <trkpt lat="47.70064" lon="3.65813">
        <ele>177.2</ele>
        <time>2022-02-23T09:22:20Z</time>
      </trkpt>
      <trkpt lat="47.70064" lon="3.65814">
        <ele>177.2</ele>
        <time>2022-02-23T09:22:21Z</time>
      </trkpt>
      <trkpt lat="47.70064" lon="3.65815">
        <ele>177.3</ele>
        <time>2022-02-23T09:22:22Z</time>
      </trkpt>
      <trkpt lat="47.70065" lon="3.65816">
        <ele>177.3</ele>
        <time>2022-02-23T09:22:23Z</time>
      </trkpt>
      <trkpt lat="47.70065" lon="3.65817">
        <ele>177.3</ele>
        <time>2022-02-23T09:22:24Z</time>
      </trkpt>
      <trkpt lat="47.70066" lon="3.65817">
        <ele>177.3</ele>
        <time>2022-02-23T09:22:25Z</time>
      </trkpt>
      <trkpt lat="47.70066" lon="3.65817">
        <ele>177.3</ele>
        <time>2022-02-23T09:22:26Z</time>
      </trkpt>
      <trkpt lat="47.70067" lon="3.65818">
        <ele>177.3</ele>
        <time>2022-02-23T09:22:27Z</time>
      </trkpt>
      <trkpt lat="47.70067" lon="3.65818">
        <ele>177.3</ele>
        <time>2022-02-23T09:22:28Z</time>
      </trkpt>
      <trkpt lat="47.70067" lon="3.65819">
        <ele>177.3</ele>
        <time>2022-02-23T09:22:29Z</time>
      </trkpt>
      <trkpt lat="47.70067" lon="3.6582">
        <ele>177.3</ele>
        <time>2022-02-23T09:22:30Z</time>
      </trkpt>
      <trkpt lat="47.70067" lon="3.65821">
        <ele>177.3</ele>
        <time>2022-02-23T09:22:31Z</time>
      </trkpt>
      <trkpt lat="47.70067" lon="3.65823">
        <ele>177.4</ele>
        <time>2022-02-23T09:22:32Z</time>
      </trkpt>
      <trkpt lat="47.70067" lon="3.65826">
        <ele>177.4</ele>
        <time>2022-02-23T09:22:33Z</time>
      </trkpt>
      <trkpt lat="47.70066" lon="3.65828">
        <ele>177.4</ele>
        <time>2022-02-23T09:22:35Z</time>
      </trkpt>
      <trkpt lat="47.70066" lon="3.65829">
        <ele>177.4</ele>
        <time>2022-02-23T09:22:36Z</time>
      </trkpt>
      <trkpt lat="47.70065" lon="3.65831">
        <ele>177.4</ele>
        <time>2022-02-23T09:22:38Z</time>
      </trkpt>
      <trkpt lat="47.70065" lon="3.65832">
        <ele>177.4</ele>
        <time>2022-02-23T09:22:39Z</time>
      </trkpt>
      <trkpt lat="47.70065" lon="3.65833">
        <ele>177.4</ele>
        <time>2022-02-23T09:22:40Z</time>
      </trkpt>
      <trkpt lat="47.70064" lon="3.65834">
        <ele>177.5</ele>
        <time>2022-02-23T09:22:41Z</time>
      </trkpt>
      <trkpt lat="47.70064" lon="3.65837">
        <ele>177.5</ele>
        <time>2022-02-23T09:22:42Z</time>
      </trkpt>
      <trkpt lat="47.70064" lon="3.65838">
        <ele>177.5</ele>
        <time>2022-02-23T09:22:43Z</time>
      </trkpt>
      <trkpt lat="47.70065" lon="3.65839">
        <ele>177.5</ele>
        <time>2022-02-23T09:22:44Z</time>
      </trkpt>
      <trkpt lat="47.70065" lon="3.6584">
        <ele>177.5</ele>
        <time>2022-02-23T09:22:45Z</time>
      </trkpt>
      <trkpt lat="47.70065" lon="3.65841">
        <ele>177.5</ele>
        <time>2022-02-23T09:22:46Z</time>
      </trkpt>
      <trkpt lat="47.70066" lon="3.65842">
        <ele>177.5</ele>
        <time>2022-02-23T09:22:47Z</time>
      </trkpt>
      <trkpt lat="47.70066" lon="3.65842">
        <ele>177.5</ele>
        <time>2022-02-23T09:22:48Z</time>
      </trkpt>
      <trkpt lat="47.70067" lon="3.65844">
        <ele>177.5</ele>
        <time>2022-02-23T09:22:50Z</time>
      </trkpt>
      <trkpt lat="47.70067" lon="3.65846">
        <ele>177.6</ele>
        <time>2022-02-23T09:22:51Z</time>
      </trkpt>
      <trkpt lat="47.70066" lon="3.65848">
        <ele>177.6</ele>
        <time>2022-02-23T09:22:53Z</time>
      </trkpt>
      <trkpt lat="47.70066" lon="3.65849">
        <ele>177.6</ele>
        <time>2022-02-23T09:22:54Z</time>
      </trkpt>
      <trkpt lat="47.70066" lon="3.6585">
        <ele>177.6</ele>
        <time>2022-02-23T09:22:55Z</time>
      </trkpt>
      <trkpt lat="47.70065" lon="3.65851">
        <ele>177.6</ele>
        <time>2022-02-23T09:22:56Z</time>
      </trkpt>
      <trkpt lat="47.70065" lon="3.65851">
        <ele>177.6</ele>
        <time>2022-02-23T09:22:57Z</time>
      </trkpt>
      <trkpt lat="47.70065" lon="3.6585">
        <ele>177.6</ele>
        <time>2022-02-23T09:22:58Z</time>
      </trkpt>
      <trkpt lat="47.70065" lon="3.6585">
        <ele>177.6</ele>
        <time>2022-02-23T09:22:59Z</time>
      </trkpt>
      <trkpt lat="47.70065" lon="3.6585">
        <ele>177.6</ele>
        <time>2022-02-23T09:23:00Z</time>
      </trkpt>
      <trkpt lat="47.70065" lon="3.65849">
        <ele>177.6</ele>
        <time>2022-02-23T09:23:01Z</time>
      </trkpt>
      <trkpt lat="47.70065" lon="3.65849">
        <ele>177.6</ele>
        <time>2022-02-23T09:23:02Z</time>
      </trkpt>
      <trkpt lat="47.70065" lon="3.65848">
        <ele>177.6</ele>
        <time>2022-02-23T09:23:03Z</time>
      </trkpt>
      <trkpt lat="47.70065" lon="3.65848">
        <ele>177.6</ele>
        <time>2022-02-23T09:23:04Z</time>
      </trkpt>
      <trkpt lat="47.70066" lon="3.65848">
        <ele>177.6</ele>
        <time>2022-02-23T09:23:05Z</time>
      </trkpt>
      <trkpt lat="47.70066" lon="3.65848">
        <ele>177.6</ele>
        <time>2022-02-23T09:23:06Z</time>
      </trkpt>
      <trkpt lat="47.70067" lon="3.65849">
        <ele>177.7</ele>
        <time>2022-02-23T09:23:08Z</time>
      </trkpt>
      <trkpt lat="47.70067" lon="3.65851">
        <ele>177.7</ele>
        <time>2022-02-23T09:23:09Z</time>
      </trkpt>
      <trkpt lat="47.70067" lon="3.65853">
        <ele>177.7</ele>
        <time>2022-02-23T09:23:10Z</time>
      </trkpt>
      <trkpt lat="47.70067" lon="3.65854">
        <ele>177.7</ele>
        <time>2022-02-23T09:23:11Z</time>
      </trkpt>
      <trkpt lat="47.70067" lon="3.65857">
        <ele>177.7</ele>
        <time>2022-02-23T09:23:12Z</time>
      </trkpt>
      <trkpt lat="47.70067" lon="3.65859">
        <ele>177.7</ele>
        <time>2022-02-23T09:23:14Z</time>
      </trkpt>
      <trkpt lat="47.70067" lon="3.6586">
        <ele>177.8</ele>
        <time>2022-02-23T09:23:15Z</time>
      </trkpt>
      <trkpt lat="47.70067" lon="3.65862">
        <ele>177.8</ele>
        <time>2022-02-23T09:23:16Z</time>
      </trkpt>
      <trkpt lat="47.70067" lon="3.65864">
        <ele>177.8</ele>
        <time>2022-02-23T09:23:17Z</time>
      </trkpt>
      <trkpt lat="47.70067" lon="3.65867">
        <ele>177.8</ele>
        <time>2022-02-23T09:23:19Z</time>
      </trkpt>
      <trkpt lat="47.70067" lon="3.65869">
        <ele>177.9</ele>
        <time>2022-02-23T09:23:20Z</time>
      </trkpt>
      <trkpt lat="47.70067" lon="3.6587">
        <ele>177.9</ele>
        <time>2022-02-23T09:23:21Z</time>
      </trkpt>
      <trkpt lat="47.70067" lon="3.65872">
        <ele>177.9</ele>
        <time>2022-02-23T09:23:22Z</time>
      </trkpt>
      <trkpt lat="47.70066" lon="3.65873">
        <ele>177.9</ele>
        <time>2022-02-23T09:23:24Z</time>
      </trkpt>
      <trkpt lat="47.70067" lon="3.65875">
        <ele>178</ele>
        <time>2022-02-23T09:23:25Z</time>
      </trkpt>
      <trkpt lat="47.70067" lon="3.65876">
        <ele>178</ele>
        <time>2022-02-23T09:23:26Z</time>
      </trkpt>
      <trkpt lat="47.70067" lon="3.65877">
        <ele>178</ele>
        <time>2022-02-23T09:23:27Z</time>
      </trkpt>
      <trkpt lat="47.70067" lon="3.65878">
        <ele>178</ele>
        <time>2022-02-23T09:23:28Z</time>
      </trkpt>
      <trkpt lat="47.70067" lon="3.6588">
        <ele>178</ele>
        <time>2022-02-23T09:23:29Z</time>
      </trkpt>
      <trkpt lat="47.70067" lon="3.65881">
        <ele>178</ele>
        <time>2022-02-23T09:23:30Z</time>
      </trkpt>
      <trkpt lat="47.70067" lon="3.65883">
        <ele>178.1</ele>
        <time>2022-02-23T09:23:31Z</time>
      </trkpt>
      <trkpt lat="47.70067" lon="3.65883">
        <ele>178.1</ele>
        <time>2022-02-23T09:23:32Z</time>
      </trkpt>
      <trkpt lat="47.70067" lon="3.65884">
        <ele>178.1</ele>
        <time>2022-02-23T09:23:33Z</time>
      </trkpt>
      <trkpt lat="47.70067" lon="3.65885">
        <ele>178.1</ele>
        <time>2022-02-23T09:23:34Z</time>
      </trkpt>
      <trkpt lat="47.70067" lon="3.65886">
        <ele>178.1</ele>
        <time>2022-02-23T09:23:36Z</time>
      </trkpt>
      <trkpt lat="47.70067" lon="3.65888">
        <ele>178.2</ele>
        <time>2022-02-23T09:23:37Z</time>
      </trkpt>
      <trkpt lat="47.70067" lon="3.6589">
        <ele>178.2</ele>
        <time>2022-02-23T09:23:38Z</time>
      </trkpt>
      <trkpt lat="47.70067" lon="3.65892">
        <ele>178.2</ele>
        <time>2022-02-23T09:23:39Z</time>
      </trkpt>
      <trkpt lat="47.70067" lon="3.65893">
        <ele>178.2</ele>
        <time>2022-02-23T09:23:40Z</time>
      </trkpt>
      <trkpt lat="47.70066" lon="3.65894">
        <ele>178.3</ele>
        <time>2022-02-23T09:23:41Z</time>
      </trkpt>
      <trkpt lat="47.70066" lon="3.65894">
        <ele>178.3</ele>
        <time>2022-02-23T09:23:43Z</time>
      </trkpt>
      <trkpt lat="47.70066" lon="3.65895">
        <ele>178.3</ele>
        <time>2022-02-23T09:23:44Z</time>
      </trkpt>
      <trkpt lat="47.70066" lon="3.65897">
        <ele>178.3</ele>
        <time>2022-02-23T09:23:45Z</time>
      </trkpt>
      <trkpt lat="47.70066" lon="3.65898">
        <ele>178.4</ele>
        <time>2022-02-23T09:23:46Z</time>
      </trkpt>
      <trkpt lat="47.70066" lon="3.65902">
        <ele>178.5</ele>
        <time>2022-02-23T09:23:48Z</time>
      </trkpt>
      <trkpt lat="47.70066" lon="3.65904">
        <ele>178.5</ele>
        <time>2022-02-23T09:23:50Z</time>
      </trkpt>
      <trkpt lat="47.70067" lon="3.65906">
        <ele>178.5</ele>
        <time>2022-02-23T09:23:51Z</time>
      </trkpt>
      <trkpt lat="47.70067" lon="3.65907">
        <ele>178.6</ele>
        <time>2022-02-23T09:23:52Z</time>
      </trkpt>
      <trkpt lat="47.70068" lon="3.65909">
        <ele>178.7</ele>
        <time>2022-02-23T09:23:54Z</time>
      </trkpt>
      <trkpt lat="47.70068" lon="3.6591">
        <ele>178.7</ele>
        <time>2022-02-23T09:23:55Z</time>
      </trkpt>
      <trkpt lat="47.70068" lon="3.65911">
        <ele>178.8</ele>
        <time>2022-02-23T09:23:56Z</time>
      </trkpt>
      <trkpt lat="47.70068" lon="3.65911">
        <ele>178.8</ele>
        <time>2022-02-23T09:23:57Z</time>
      </trkpt>
      <trkpt lat="47.70069" lon="3.65913">
        <ele>178.8</ele>
        <time>2022-02-23T09:23:59Z</time>
      </trkpt>
      <trkpt lat="47.70069" lon="3.65913">
        <ele>178.8</ele>
        <time>2022-02-23T09:24:00Z</time>
      </trkpt>
      <trkpt lat="47.70069" lon="3.65914">
        <ele>178.9</ele>
        <time>2022-02-23T09:24:01Z</time>
      </trkpt>
      <trkpt lat="47.7007" lon="3.65914">
        <ele>179</ele>
        <time>2022-02-23T09:24:02Z</time>
      </trkpt>
      <trkpt lat="47.7007" lon="3.65915">
        <ele>179.1</ele>
        <time>2022-02-23T09:24:03Z</time>
      </trkpt>
      <trkpt lat="47.7007" lon="3.65915">
        <ele>179.1</ele>
        <time>2022-02-23T09:24:05Z</time>
      </trkpt>
      <trkpt lat="47.7007" lon="3.65915">
        <ele>179.1</ele>
        <time>2022-02-23T09:24:06Z</time>
      </trkpt>
      <trkpt lat="47.7007" lon="3.65916">
        <ele>179.2</ele>
        <time>2022-02-23T09:24:07Z</time>
      </trkpt>
      <trkpt lat="47.70069" lon="3.65916">
        <ele>179.1</ele>
        <time>2022-02-23T09:24:09Z</time>
      </trkpt>
      <trkpt lat="47.70069" lon="3.65916">
        <ele>179.1</ele>
        <time>2022-02-23T09:24:10Z</time>
      </trkpt>
      <trkpt lat="47.70069" lon="3.65916">
        <ele>179.1</ele>
        <time>2022-02-23T09:24:11Z</time>
      </trkpt>
      <trkpt lat="47.70069" lon="3.65915">
        <ele>179.2</ele>
        <time>2022-02-23T09:24:12Z</time>
      </trkpt>
      <trkpt lat="47.70069" lon="3.65915">
        <ele>179.2</ele>
        <time>2022-02-23T09:24:13Z</time>
      </trkpt>
      <trkpt lat="47.70069" lon="3.65915">
        <ele>179.2</ele>
        <time>2022-02-23T09:24:14Z</time>
      </trkpt>
      <trkpt lat="47.70069" lon="3.65915">
        <ele>179.3</ele>
        <time>2022-02-23T09:24:15Z</time>
      </trkpt>
      <trkpt lat="47.70068" lon="3.65915">
        <ele>179.3</ele>
        <time>2022-02-23T09:24:16Z</time>
      </trkpt>
      <trkpt lat="47.70068" lon="3.65914">
        <ele>179.4</ele>
        <time>2022-02-23T09:24:19Z</time>
      </trkpt>
      <trkpt lat="47.70068" lon="3.65915">
        <ele>179.4</ele>
        <time>2022-02-23T09:24:20Z</time>
      </trkpt>
      <trkpt lat="47.70068" lon="3.65915">
        <ele>179.4</ele>
        <time>2022-02-23T09:24:21Z</time>
      </trkpt>
      <trkpt lat="47.70068" lon="3.65915">
        <ele>179.5</ele>
        <time>2022-02-23T09:24:22Z</time>
      </trkpt>
      <trkpt lat="47.70069" lon="3.65915">
        <ele>179.5</ele>
        <time>2022-02-23T09:24:23Z</time>
      </trkpt>
      <trkpt lat="47.70069" lon="3.65915">
        <ele>179.6</ele>
        <time>2022-02-23T09:24:24Z</time>
      </trkpt>
      <trkpt lat="47.70068" lon="3.65915">
        <ele>179.6</ele>
        <time>2022-02-23T09:24:25Z</time>
      </trkpt>
      <trkpt lat="47.70068" lon="3.65915">
        <ele>179.6</ele>
        <time>2022-02-23T09:24:26Z</time>
      </trkpt>
      <trkpt lat="47.70068" lon="3.65915">
        <ele>179.7</ele>
        <time>2022-02-23T09:24:27Z</time>
      </trkpt>
      <trkpt lat="47.70069" lon="3.65915">
        <ele>179.7</ele>
        <time>2022-02-23T09:24:28Z</time>
      </trkpt>
      <trkpt lat="47.7007" lon="3.65915">
        <ele>180.1</ele>
        <time>2022-02-23T09:24:29Z</time>
      </trkpt>
      <trkpt lat="47.7007" lon="3.65915">
        <ele>180.1</ele>
        <time>2022-02-23T09:24:30Z</time>
      </trkpt>
      <trkpt lat="47.70069" lon="3.65916">
        <ele>179.9</ele>
        <time>2022-02-23T09:24:31Z</time>
      </trkpt>
      <trkpt lat="47.70069" lon="3.65917">
        <ele>179.9</ele>
        <time>2022-02-23T09:24:32Z</time>
      </trkpt>
      <trkpt lat="47.70068" lon="3.65917">
        <ele>180</ele>
        <time>2022-02-23T09:24:34Z</time>
      </trkpt>
      <trkpt lat="47.70068" lon="3.65917">
        <ele>180</ele>
        <time>2022-02-23T09:24:35Z</time>
      </trkpt>
      <trkpt lat="47.70068" lon="3.65917">
        <ele>180.1</ele>
        <time>2022-02-23T09:24:36Z</time>
      </trkpt>
      <trkpt lat="47.70068" lon="3.65917">
        <ele>180.1</ele>
        <time>2022-02-23T09:24:37Z</time>
      </trkpt>
      <trkpt lat="47.70068" lon="3.65918">
        <ele>180.2</ele>
        <time>2022-02-23T09:24:38Z</time>
      </trkpt>
      <trkpt lat="47.70068" lon="3.65918">
        <ele>180.3</ele>
        <time>2022-02-23T09:24:39Z</time>
      </trkpt>
      <trkpt lat="47.70068" lon="3.65918">
        <ele>180.4</ele>
        <time>2022-02-23T09:24:40Z</time>
      </trkpt>
      <trkpt lat="47.70068" lon="3.65919">
        <ele>180.4</ele>
        <time>2022-02-23T09:24:41Z</time>
      </trkpt>
      <trkpt lat="47.70068" lon="3.65919">
        <ele>180.5</ele>
        <time>2022-02-23T09:24:42Z</time>
      </trkpt>
      <trkpt lat="47.70068" lon="3.6592">
        <ele>180.6</ele>
        <time>2022-02-23T09:24:43Z</time>
      </trkpt>
      <trkpt lat="47.70068" lon="3.6592">
        <ele>180.7</ele>
        <time>2022-02-23T09:24:44Z</time>
      </trkpt>
      <trkpt lat="47.70068" lon="3.6592">
        <ele>180.7</ele>
        <time>2022-02-23T09:24:45Z</time>
      </trkpt>
      <trkpt lat="47.70068" lon="3.65921">
        <ele>180.8</ele>
        <time>2022-02-23T09:24:46Z</time>
      </trkpt>
      <trkpt lat="47.70068" lon="3.65921">
        <ele>180.8</ele>
        <time>2022-02-23T09:24:47Z</time>
      </trkpt>
      <trkpt lat="47.70068" lon="3.65921">
        <ele>180.9</ele>
        <time>2022-02-23T09:24:48Z</time>
      </trkpt>
      <trkpt lat="47.70068" lon="3.65921">
        <ele>181</ele>
        <time>2022-02-23T09:24:50Z</time>
      </trkpt>
      <trkpt lat="47.70068" lon="3.65921">
        <ele>181.1</ele>
        <time>2022-02-23T09:24:51Z</time>
      </trkpt>
      <trkpt lat="47.70068" lon="3.65921">
        <ele>181.1</ele>
        <time>2022-02-23T09:24:52Z</time>
      </trkpt>
      <trkpt lat="47.70068" lon="3.65921">
        <ele>181.3</ele>
        <time>2022-02-23T09:24:54Z</time>
      </trkpt>
      <trkpt lat="47.70068" lon="3.6592">
        <ele>181.4</ele>
        <time>2022-02-23T09:24:56Z</time>
      </trkpt>
      <trkpt lat="47.70068" lon="3.6592">
        <ele>181.5</ele>
        <time>2022-02-23T09:24:57Z</time>
      </trkpt>
      <trkpt lat="47.70068" lon="3.6592">
        <ele>181.6</ele>
        <time>2022-02-23T09:24:58Z</time>
      </trkpt>
      <trkpt lat="47.70068" lon="3.6592">
        <ele>181.8</ele>
        <time>2022-02-23T09:25:00Z</time>
      </trkpt>
      <trkpt lat="47.70068" lon="3.6592">
        <ele>181.8</ele>
        <time>2022-02-23T09:25:01Z</time>
      </trkpt>
      <trkpt lat="47.70068" lon="3.6592">
        <ele>181.9</ele>
        <time>2022-02-23T09:25:02Z</time>
      </trkpt>
      <trkpt lat="47.70068" lon="3.6592">
        <ele>181.9</ele>
        <time>2022-02-23T09:25:03Z</time>
      </trkpt>
      <trkpt lat="47.70068" lon="3.65921">
        <ele>182.1</ele>
        <time>2022-02-23T09:25:04Z</time>
      </trkpt>
      <trkpt lat="47.70068" lon="3.65921">
        <ele>182.1</ele>
        <time>2022-02-23T09:25:05Z</time>
      </trkpt>
      <trkpt lat="47.70068" lon="3.65921">
        <ele>182.2</ele>
        <time>2022-02-23T09:25:06Z</time>
      </trkpt>
      <trkpt lat="47.70068" lon="3.65921">
        <ele>182.3</ele>
        <time>2022-02-23T09:25:07Z</time>
      </trkpt>
      <trkpt lat="47.70068" lon="3.65921">
        <ele>182.4</ele>
        <time>2022-02-23T09:25:08Z</time>
      </trkpt>
      <trkpt lat="47.70068" lon="3.65921">
        <ele>182.5</ele>
        <time>2022-02-23T09:25:09Z</time>
      </trkpt>
      <trkpt lat="47.70068" lon="3.65921">
        <ele>182.5</ele>
        <time>2022-02-23T09:25:10Z</time>
      </trkpt>
      <trkpt lat="47.70068" lon="3.65922">
        <ele>182.7</ele>
        <time>2022-02-23T09:25:11Z</time>
      </trkpt>
      <trkpt lat="47.70068" lon="3.65922">
        <ele>182.7</ele>
        <time>2022-02-23T09:25:13Z</time>
      </trkpt>
      <trkpt lat="47.70068" lon="3.65922">
        <ele>182.9</ele>
        <time>2022-02-23T09:25:14Z</time>
      </trkpt>
      <trkpt lat="47.70068" lon="3.65922">
        <ele>183</ele>
        <time>2022-02-23T09:25:15Z</time>
      </trkpt>
      <trkpt lat="47.70068" lon="3.65922">
        <ele>183.2</ele>
        <time>2022-02-23T09:25:16Z</time>
      </trkpt>
      <trkpt lat="47.70067" lon="3.65922">
        <ele>183.2</ele>
        <time>2022-02-23T09:25:18Z</time>
      </trkpt>
      <trkpt lat="47.70068" lon="3.65922">
        <ele>183.4</ele>
        <time>2022-02-23T09:25:20Z</time>
      </trkpt>
      <trkpt lat="47.70068" lon="3.65922">
        <ele>183.6</ele>
        <time>2022-02-23T09:25:22Z</time>
      </trkpt>
      <trkpt lat="47.70068" lon="3.65922">
        <ele>183.7</ele>
        <time>2022-02-23T09:25:23Z</time>
      </trkpt>
      <trkpt lat="47.70068" lon="3.65922">
        <ele>183.8</ele>
        <time>2022-02-23T09:25:24Z</time>
      </trkpt>
      <trkpt lat="47.70068" lon="3.65923">
        <ele>183.9</ele>
        <time>2022-02-23T09:25:25Z</time>
      </trkpt>
      <trkpt lat="47.70069" lon="3.65923">
        <ele>184.1</ele>
        <time>2022-02-23T09:25:27Z</time>
      </trkpt>
      <trkpt lat="47.70068" lon="3.65924">
        <ele>184.1</ele>
        <time>2022-02-23T09:25:28Z</time>
      </trkpt>
      <trkpt lat="47.70068" lon="3.65925">
        <ele>184.3</ele>
        <time>2022-02-23T09:25:29Z</time>
      </trkpt>
      <trkpt lat="47.70068" lon="3.65926">
        <ele>184.5</ele>
        <time>2022-02-23T09:25:30Z</time>
      </trkpt>
      <trkpt lat="47.70067" lon="3.65928">
        <ele>184.6</ele>
        <time>2022-02-23T09:25:31Z</time>
      </trkpt>
      <trkpt lat="47.70067" lon="3.6593">
        <ele>184.7</ele>
        <time>2022-02-23T09:25:32Z</time>
      </trkpt>
      <trkpt lat="47.70066" lon="3.65931">
        <ele>184.3</ele>
        <time>2022-02-23T09:25:33Z</time>
      </trkpt>
      <trkpt lat="47.70066" lon="3.65933">
        <ele>184.3</ele>
        <time>2022-02-23T09:25:34Z</time>
      </trkpt>
      <trkpt lat="47.70065" lon="3.65933">
        <ele>184.4</ele>
        <time>2022-02-23T09:25:35Z</time>
      </trkpt>
      <trkpt lat="47.70065" lon="3.65935">
        <ele>184.4</ele>
        <time>2022-02-23T09:25:37Z</time>
      </trkpt>
      <trkpt lat="47.70065" lon="3.65935">
        <ele>184.5</ele>
        <time>2022-02-23T09:25:38Z</time>
      </trkpt>
      <trkpt lat="47.70065" lon="3.65935">
        <ele>184.6</ele>
        <time>2022-02-23T09:25:39Z</time>
      </trkpt>
      <trkpt lat="47.70065" lon="3.65935">
        <ele>184.7</ele>
        <time>2022-02-23T09:25:43Z</time>
      </trkpt>
      <trkpt lat="47.70065" lon="3.65935">
        <ele>184.9</ele>
        <time>2022-02-23T09:25:44Z</time>
      </trkpt>
      <trkpt lat="47.70065" lon="3.65935">
        <ele>185</ele>
        <time>2022-02-23T09:25:45Z</time>
      </trkpt>
      <trkpt lat="47.70065" lon="3.65935">
        <ele>185.1</ele>
        <time>2022-02-23T09:25:46Z</time>
      </trkpt>
      <trkpt lat="47.70065" lon="3.65936">
        <ele>185.1</ele>
        <time>2022-02-23T09:25:47Z</time>
      </trkpt>
      <trkpt lat="47.70065" lon="3.65939">
        <ele>185.2</ele>
        <time>2022-02-23T09:25:49Z</time>
      </trkpt>
      <trkpt lat="47.70064" lon="3.65941">
        <ele>185.4</ele>
        <time>2022-02-23T09:25:50Z</time>
      </trkpt>
      <trkpt lat="47.70064" lon="3.65942">
        <ele>185.4</ele>
        <time>2022-02-23T09:25:51Z</time>
      </trkpt>
      <trkpt lat="47.70064" lon="3.65944">
        <ele>184.8</ele>
        <time>2022-02-23T09:25:53Z</time>
      </trkpt>
      <trkpt lat="47.70063" lon="3.65946">
        <ele>184.9</ele>
        <time>2022-02-23T09:25:54Z</time>
      </trkpt>
      <trkpt lat="47.70063" lon="3.65947">
        <ele>185</ele>
        <time>2022-02-23T09:25:55Z</time>
      </trkpt>
      <trkpt lat="47.70064" lon="3.65948">
        <ele>185.9</ele>
        <time>2022-02-23T09:25:56Z</time>
      </trkpt>
      <trkpt lat="47.70064" lon="3.65949">
        <ele>186</ele>
        <time>2022-02-23T09:25:57Z</time>
      </trkpt>
      <trkpt lat="47.70064" lon="3.65951">
        <ele>185.3</ele>
        <time>2022-02-23T09:25:58Z</time>
      </trkpt>
      <trkpt lat="47.70063" lon="3.65953">
        <ele>185.4</ele>
        <time>2022-02-23T09:25:59Z</time>
      </trkpt>
      <trkpt lat="47.70063" lon="3.65954">
        <ele>185.5</ele>
        <time>2022-02-23T09:26:00Z</time>
      </trkpt>
      <trkpt lat="47.70063" lon="3.65955">
        <ele>185.5</ele>
        <time>2022-02-23T09:26:01Z</time>
      </trkpt>
      <trkpt lat="47.70063" lon="3.65956">
        <ele>185.6</ele>
        <time>2022-02-23T09:26:02Z</time>
      </trkpt>
      <trkpt lat="47.70064" lon="3.65956">
        <ele>185.7</ele>
        <time>2022-02-23T09:26:03Z</time>
      </trkpt>
      <trkpt lat="47.70063" lon="3.65957">
        <ele>185.8</ele>
        <time>2022-02-23T09:26:05Z</time>
      </trkpt>
      <trkpt lat="47.70064" lon="3.65957">
        <ele>186.6</ele>
        <time>2022-02-23T09:26:06Z</time>
      </trkpt>
      <trkpt lat="47.70064" lon="3.65958">
        <ele>186.7</ele>
        <time>2022-02-23T09:26:07Z</time>
      </trkpt>
      <trkpt lat="47.70064" lon="3.65958">
        <ele>186.7</ele>
        <time>2022-02-23T09:26:08Z</time>
      </trkpt>
      <trkpt lat="47.70064" lon="3.65958">
        <ele>186.8</ele>
        <time>2022-02-23T09:26:09Z</time>
      </trkpt>
      <trkpt lat="47.70064" lon="3.65958">
        <ele>186.9</ele>
        <time>2022-02-23T09:26:10Z</time>
      </trkpt>
      <trkpt lat="47.70064" lon="3.65958">
        <ele>186.9</ele>
        <time>2022-02-23T09:26:11Z</time>
      </trkpt>
      <trkpt lat="47.70064" lon="3.65958">
        <ele>187</ele>
        <time>2022-02-23T09:26:13Z</time>
      </trkpt>
      <trkpt lat="47.70064" lon="3.65959">
        <ele>187.1</ele>
        <time>2022-02-23T09:26:14Z</time>
      </trkpt>
      <trkpt lat="47.70065" lon="3.6596">
        <ele>187.1</ele>
        <time>2022-02-23T09:26:16Z</time>
      </trkpt>
      <trkpt lat="47.70065" lon="3.65961">
        <ele>187.3</ele>
        <time>2022-02-23T09:26:17Z</time>
      </trkpt>
      <trkpt lat="47.70065" lon="3.65961">
        <ele>187.3</ele>
        <time>2022-02-23T09:26:18Z</time>
      </trkpt>
      <trkpt lat="47.70065" lon="3.65961">
        <ele>187.4</ele>
        <time>2022-02-23T09:26:20Z</time>
      </trkpt>
      <trkpt lat="47.70066" lon="3.65962">
        <ele>187.4</ele>
        <time>2022-02-23T09:26:21Z</time>
      </trkpt>
      <trkpt lat="47.70065" lon="3.65963">
        <ele>187.5</ele>
        <time>2022-02-23T09:26:22Z</time>
      </trkpt>
      <trkpt lat="47.70065" lon="3.65964">
        <ele>187.5</ele>
        <time>2022-02-23T09:26:23Z</time>
      </trkpt>
      <trkpt lat="47.70065" lon="3.65965">
        <ele>187.6</ele>
        <time>2022-02-23T09:26:24Z</time>
      </trkpt>
      <trkpt lat="47.70065" lon="3.65966">
        <ele>187.7</ele>
        <time>2022-02-23T09:26:26Z</time>
      </trkpt>
      <trkpt lat="47.70065" lon="3.65968">
        <ele>187.8</ele>
        <time>2022-02-23T09:26:27Z</time>
      </trkpt>
      <trkpt lat="47.70066" lon="3.65969">
        <ele>187.8</ele>
        <time>2022-02-23T09:26:28Z</time>
      </trkpt>
      <trkpt lat="47.70066" lon="3.6597">
        <ele>187.9</ele>
        <time>2022-02-23T09:26:29Z</time>
      </trkpt>
      <trkpt lat="47.70065" lon="3.6597">
        <ele>188</ele>
        <time>2022-02-23T09:26:30Z</time>
      </trkpt>
      <trkpt lat="47.70065" lon="3.65971">
        <ele>188</ele>
        <time>2022-02-23T09:26:31Z</time>
      </trkpt>
      <trkpt lat="47.70066" lon="3.65972">
        <ele>188.1</ele>
        <time>2022-02-23T09:26:32Z</time>
      </trkpt>
      <trkpt lat="47.70066" lon="3.65975">
        <ele>188.1</ele>
        <time>2022-02-23T09:26:34Z</time>
      </trkpt>
      <trkpt lat="47.70066" lon="3.65977">
        <ele>188.2</ele>
        <time>2022-02-23T09:26:35Z</time>
      </trkpt>
      <trkpt lat="47.70066" lon="3.65979">
        <ele>188.2</ele>
        <time>2022-02-23T09:26:36Z</time>
      </trkpt>
      <trkpt lat="47.70066" lon="3.6598">
        <ele>188.3</ele>
        <time>2022-02-23T09:26:37Z</time>
      </trkpt>
      <trkpt lat="47.70066" lon="3.65981">
        <ele>188.3</ele>
        <time>2022-02-23T09:26:38Z</time>
      </trkpt>
      <trkpt lat="47.70065" lon="3.65982">
        <ele>188.4</ele>
        <time>2022-02-23T09:26:40Z</time>
      </trkpt>
      <trkpt lat="47.70065" lon="3.65982">
        <ele>188.5</ele>
        <time>2022-02-23T09:26:41Z</time>
      </trkpt>
      <trkpt lat="47.70065" lon="3.65982">
        <ele>188.5</ele>
        <time>2022-02-23T09:26:42Z</time>
      </trkpt>
      <trkpt lat="47.70065" lon="3.65982">
        <ele>188.6</ele>
        <time>2022-02-23T09:26:43Z</time>
      </trkpt>
      <trkpt lat="47.70065" lon="3.65982">
        <ele>188.6</ele>
        <time>2022-02-23T09:26:44Z</time>
      </trkpt>
      <trkpt lat="47.70065" lon="3.65982">
        <ele>188.7</ele>
        <time>2022-02-23T09:26:46Z</time>
      </trkpt>
      <trkpt lat="47.70065" lon="3.65983">
        <ele>188.8</ele>
        <time>2022-02-23T09:26:47Z</time>
      </trkpt>
      <trkpt lat="47.70065" lon="3.65983">
        <ele>188.8</ele>
        <time>2022-02-23T09:26:48Z</time>
      </trkpt>
      <trkpt lat="47.70064" lon="3.65983">
        <ele>188.9</ele>
        <time>2022-02-23T09:26:49Z</time>
      </trkpt>
      <trkpt lat="47.70064" lon="3.65983">
        <ele>188.9</ele>
        <time>2022-02-23T09:26:50Z</time>
      </trkpt>
      <trkpt lat="47.70064" lon="3.65983">
        <ele>189</ele>
        <time>2022-02-23T09:26:51Z</time>
      </trkpt>
      <trkpt lat="47.70064" lon="3.65983">
        <ele>189</ele>
        <time>2022-02-23T09:26:52Z</time>
      </trkpt>
      <trkpt lat="47.70064" lon="3.65983">
        <ele>189.1</ele>
        <time>2022-02-23T09:26:53Z</time>
      </trkpt>
      <trkpt lat="47.70064" lon="3.65983">
        <ele>189.1</ele>
        <time>2022-02-23T09:26:54Z</time>
      </trkpt>
      <trkpt lat="47.70064" lon="3.65983">
        <ele>189.2</ele>
        <time>2022-02-23T09:26:55Z</time>
      </trkpt>
      <trkpt lat="47.70064" lon="3.65983">
        <ele>189.3</ele>
        <time>2022-02-23T09:26:56Z</time>
      </trkpt>
      <trkpt lat="47.70064" lon="3.65984">
        <ele>188.5</ele>
        <time>2022-02-23T09:26:57Z</time>
      </trkpt>
      <trkpt lat="47.70064" lon="3.65984">
        <ele>189.4</ele>
        <time>2022-02-23T09:26:58Z</time>
      </trkpt>
      <trkpt lat="47.70064" lon="3.65984">
        <ele>189.4</ele>
        <time>2022-02-23T09:26:59Z</time>
      </trkpt>
      <trkpt lat="47.70064" lon="3.65985">
        <ele>189.5</ele>
        <time>2022-02-23T09:27:00Z</time>
      </trkpt>
      <trkpt lat="47.70064" lon="3.65987">
        <ele>189.5</ele>
        <time>2022-02-23T09:27:02Z</time>
      </trkpt>
      <trkpt lat="47.70065" lon="3.65988">
        <ele>189.5</ele>
        <time>2022-02-23T09:27:03Z</time>
      </trkpt>
      <trkpt lat="47.70066" lon="3.65991">
        <ele>189.5</ele>
        <time>2022-02-23T09:27:05Z</time>
      </trkpt>
      <trkpt lat="47.70066" lon="3.65992">
        <ele>189.6</ele>
        <time>2022-02-23T09:27:06Z</time>
      </trkpt>
      <trkpt lat="47.70066" lon="3.65995">
        <ele>189.6</ele>
        <time>2022-02-23T09:27:07Z</time>
      </trkpt>
      <trkpt lat="47.70066" lon="3.65997">
        <ele>189.5</ele>
        <time>2022-02-23T09:27:09Z</time>
      </trkpt>
      <trkpt lat="47.70066" lon="3.65997">
        <ele>189.6</ele>
        <time>2022-02-23T09:27:10Z</time>
      </trkpt>
      <trkpt lat="47.70066" lon="3.65998">
        <ele>189.6</ele>
        <time>2022-02-23T09:27:11Z</time>
      </trkpt>
      <trkpt lat="47.70067" lon="3.65998">
        <ele>190.4</ele>
        <time>2022-02-23T09:27:12Z</time>
      </trkpt>
      <trkpt lat="47.70067" lon="3.65999">
        <ele>190.5</ele>
        <time>2022-02-23T09:27:13Z</time>
      </trkpt>
      <trkpt lat="47.70067" lon="3.66">
        <ele>190.4</ele>
        <time>2022-02-23T09:27:14Z</time>
      </trkpt>
      <trkpt lat="47.70067" lon="3.66001">
        <ele>190.4</ele>
        <time>2022-02-23T09:27:16Z</time>
      </trkpt>
      <trkpt lat="47.70067" lon="3.66002">
        <ele>190.5</ele>
        <time>2022-02-23T09:27:17Z</time>
      </trkpt>
      <trkpt lat="47.70067" lon="3.66003">
        <ele>190.5</ele>
        <time>2022-02-23T09:27:18Z</time>
      </trkpt>
      <trkpt lat="47.70067" lon="3.66006">
        <ele>190.4</ele>
        <time>2022-02-23T09:27:20Z</time>
      </trkpt>
      <trkpt lat="47.70067" lon="3.66007">
        <ele>190.4</ele>
        <time>2022-02-23T09:27:21Z</time>
      </trkpt>
      <trkpt lat="47.70067" lon="3.66007">
        <ele>190.5</ele>
        <time>2022-02-23T09:27:22Z</time>
      </trkpt>
      <trkpt lat="47.70067" lon="3.66007">
        <ele>190.6</ele>
        <time>2022-02-23T09:27:23Z</time>
      </trkpt>
      <trkpt lat="47.70067" lon="3.66008">
        <ele>190.6</ele>
        <time>2022-02-23T09:27:24Z</time>
      </trkpt>
      <trkpt lat="47.70067" lon="3.66008">
        <ele>190.7</ele>
        <time>2022-02-23T09:27:25Z</time>
      </trkpt>
      <trkpt lat="47.70067" lon="3.66008">
        <ele>190.8</ele>
        <time>2022-02-23T09:27:27Z</time>
      </trkpt>
      <trkpt lat="47.70067" lon="3.66008">
        <ele>190.6</ele>
        <time>2022-02-23T09:27:28Z</time>
      </trkpt>
      <trkpt lat="47.70067" lon="3.66008">
        <ele>190.9</ele>
        <time>2022-02-23T09:27:29Z</time>
      </trkpt>
      <trkpt lat="47.70067" lon="3.66008">
        <ele>191</ele>
        <time>2022-02-23T09:27:30Z</time>
      </trkpt>
      <trkpt lat="47.70067" lon="3.66007">
        <ele>191</ele>
        <time>2022-02-23T09:27:32Z</time>
      </trkpt>
      <trkpt lat="47.70067" lon="3.66007">
        <ele>191.1</ele>
        <time>2022-02-23T09:27:35Z</time>
      </trkpt>
      <trkpt lat="47.70067" lon="3.66008">
        <ele>191.2</ele>
        <time>2022-02-23T09:27:36Z</time>
      </trkpt>
      <trkpt lat="47.70067" lon="3.66008">
        <ele>191.2</ele>
        <time>2022-02-23T09:27:37Z</time>
      </trkpt>
      <trkpt lat="47.70067" lon="3.66008">
        <ele>191.3</ele>
        <time>2022-02-23T09:27:38Z</time>
      </trkpt>
      <trkpt lat="47.70067" lon="3.66007">
        <ele>191.4</ele>
        <time>2022-02-23T09:27:39Z</time>
      </trkpt>
      <trkpt lat="47.70068" lon="3.66008">
        <ele>191.4</ele>
        <time>2022-02-23T09:27:40Z</time>
      </trkpt>
      <trkpt lat="47.70069" lon="3.66009">
        <ele>191.2</ele>
        <time>2022-02-23T09:27:41Z</time>
      </trkpt>
      <trkpt lat="47.70069" lon="3.6601">
        <ele>191.3</ele>
        <time>2022-02-23T09:27:42Z</time>
      </trkpt>
      <trkpt lat="47.70069" lon="3.66012">
        <ele>191.3</ele>
        <time>2022-02-23T09:27:43Z</time>
      </trkpt>
      <trkpt lat="47.7007" lon="3.66015">
        <ele>191.8</ele>
        <time>2022-02-23T09:27:45Z</time>
      </trkpt>
      <trkpt lat="47.7007" lon="3.66015">
        <ele>191.8</ele>
        <time>2022-02-23T09:27:46Z</time>
      </trkpt>
      <trkpt lat="47.7007" lon="3.66016">
        <ele>191.9</ele>
        <time>2022-02-23T09:27:47Z</time>
      </trkpt>
      <trkpt lat="47.70072" lon="3.66017">
        <ele>191.6</ele>
        <time>2022-02-23T09:27:49Z</time>
      </trkpt>
      <trkpt lat="47.70073" lon="3.66018">
        <ele>192.4</ele>
        <time>2022-02-23T09:27:50Z</time>
      </trkpt>
      <trkpt lat="47.70073" lon="3.66019">
        <ele>192.4</ele>
        <time>2022-02-23T09:27:51Z</time>
      </trkpt>
      <trkpt lat="47.70074" lon="3.6602">
        <ele>192.5</ele>
        <time>2022-02-23T09:27:52Z</time>
      </trkpt>
      <trkpt lat="47.70074" lon="3.66022">
        <ele>192.2</ele>
        <time>2022-02-23T09:27:54Z</time>
      </trkpt>
      <trkpt lat="47.70075" lon="3.66024">
        <ele>192.9</ele>
        <time>2022-02-23T09:27:55Z</time>
      </trkpt>
      <trkpt lat="47.70076" lon="3.66025">
        <ele>192.9</ele>
        <time>2022-02-23T09:27:56Z</time>
      </trkpt>
      <trkpt lat="47.70077" lon="3.66026">
        <ele>192.6</ele>
        <time>2022-02-23T09:27:57Z</time>
      </trkpt>
      <trkpt lat="47.70077" lon="3.66027">
        <ele>192.7</ele>
        <time>2022-02-23T09:27:59Z</time>
      </trkpt>
      <trkpt lat="47.70079" lon="3.66028">
        <ele>193.4</ele>
        <time>2022-02-23T09:28:00Z</time>
      </trkpt>
      <trkpt lat="47.70079" lon="3.66028">
        <ele>193.4</ele>
        <time>2022-02-23T09:28:01Z</time>
      </trkpt>
      <trkpt lat="47.7008" lon="3.66029">
        <ele>193.1</ele>
        <time>2022-02-23T09:28:03Z</time>
      </trkpt>
      <trkpt lat="47.70081" lon="3.6603">
        <ele>193.2</ele>
        <time>2022-02-23T09:28:04Z</time>
      </trkpt>
      <trkpt lat="47.70082" lon="3.66031">
        <ele>193.9</ele>
        <time>2022-02-23T09:28:06Z</time>
      </trkpt>
      <trkpt lat="47.70083" lon="3.66032">
        <ele>194</ele>
        <time>2022-02-23T09:28:08Z</time>
      </trkpt>
      <trkpt lat="47.70083" lon="3.66034">
        <ele>193.6</ele>
        <time>2022-02-23T09:28:09Z</time>
      </trkpt>
      <trkpt lat="47.70083" lon="3.66035">
        <ele>193.7</ele>
        <time>2022-02-23T09:28:10Z</time>
      </trkpt>
      <trkpt lat="47.70083" lon="3.66036">
        <ele>193.7</ele>
        <time>2022-02-23T09:28:11Z</time>
      </trkpt>
      <trkpt lat="47.70083" lon="3.66037">
        <ele>193.8</ele>
        <time>2022-02-23T09:28:12Z</time>
      </trkpt>
      <trkpt lat="47.70084" lon="3.66038">
        <ele>193.4</ele>
        <time>2022-02-23T09:28:14Z</time>
      </trkpt>
      <trkpt lat="47.70084" lon="3.6604">
        <ele>194.2</ele>
        <time>2022-02-23T09:28:15Z</time>
      </trkpt>
      <trkpt lat="47.70085" lon="3.66042">
        <ele>194.3</ele>
        <time>2022-02-23T09:28:16Z</time>
      </trkpt>
      <trkpt lat="47.70085" lon="3.66043">
        <ele>193.9</ele>
        <time>2022-02-23T09:28:17Z</time>
      </trkpt>
      <trkpt lat="47.70086" lon="3.66044">
        <ele>193.9</ele>
        <time>2022-02-23T09:28:18Z</time>
      </trkpt>
      <trkpt lat="47.70086" lon="3.66045">
        <ele>194</ele>
        <time>2022-02-23T09:28:19Z</time>
      </trkpt>
      <trkpt lat="47.70087" lon="3.66047">
        <ele>193.5</ele>
        <time>2022-02-23T09:28:21Z</time>
      </trkpt>
      <trkpt lat="47.70087" lon="3.66048">
        <ele>194.4</ele>
        <time>2022-02-23T09:28:22Z</time>
      </trkpt>
      <trkpt lat="47.70088" lon="3.66049">
        <ele>194.4</ele>
        <time>2022-02-23T09:28:23Z</time>
      </trkpt>
      <trkpt lat="47.70089" lon="3.66052">
        <ele>194</ele>
        <time>2022-02-23T09:28:25Z</time>
      </trkpt>
      <trkpt lat="47.7009" lon="3.66053">
        <ele>194.8</ele>
        <time>2022-02-23T09:28:27Z</time>
      </trkpt>
      <trkpt lat="47.70091" lon="3.66054">
        <ele>194.8</ele>
        <time>2022-02-23T09:28:28Z</time>
      </trkpt>
      <trkpt lat="47.70092" lon="3.66056">
        <ele>194.4</ele>
        <time>2022-02-23T09:28:29Z</time>
      </trkpt>
      <trkpt lat="47.70092" lon="3.66056">
        <ele>194.5</ele>
        <time>2022-02-23T09:28:30Z</time>
      </trkpt>
      <trkpt lat="47.70094" lon="3.66059">
        <ele>195.2</ele>
        <time>2022-02-23T09:28:32Z</time>
      </trkpt>
      <trkpt lat="47.70094" lon="3.6606">
        <ele>194.8</ele>
        <time>2022-02-23T09:28:33Z</time>
      </trkpt>
      <trkpt lat="47.70094" lon="3.66061">
        <ele>194.9</ele>
        <time>2022-02-23T09:28:34Z</time>
      </trkpt>
      <trkpt lat="47.70095" lon="3.66064">
        <ele>195.1</ele>
        <time>2022-02-23T09:28:36Z</time>
      </trkpt>
      <trkpt lat="47.70096" lon="3.66065">
        <ele>195.2</ele>
        <time>2022-02-23T09:28:37Z</time>
      </trkpt>
      <trkpt lat="47.70096" lon="3.66066">
        <ele>195.2</ele>
        <time>2022-02-23T09:28:38Z</time>
      </trkpt>
      <trkpt lat="47.70097" lon="3.66067">
        <ele>195.3</ele>
        <time>2022-02-23T09:28:39Z</time>
      </trkpt>
      <trkpt lat="47.70098" lon="3.66069">
        <ele>195.7</ele>
        <time>2022-02-23T09:28:40Z</time>
      </trkpt>
      <trkpt lat="47.70099" lon="3.6607">
        <ele>195.9</ele>
        <time>2022-02-23T09:28:42Z</time>
      </trkpt>
      <trkpt lat="47.70099" lon="3.66071">
        <ele>196.1</ele>
        <time>2022-02-23T09:28:43Z</time>
      </trkpt>
      <trkpt lat="47.701" lon="3.66072">
        <ele>196.3</ele>
        <time>2022-02-23T09:28:44Z</time>
      </trkpt>
      <trkpt lat="47.701" lon="3.66074">
        <ele>196.6</ele>
        <time>2022-02-23T09:28:45Z</time>
      </trkpt>
      <trkpt lat="47.70101" lon="3.66074">
        <ele>196.7</ele>
        <time>2022-02-23T09:28:47Z</time>
      </trkpt>
      <trkpt lat="47.70101" lon="3.66075">
        <ele>196.9</ele>
        <time>2022-02-23T09:28:48Z</time>
      </trkpt>
      <trkpt lat="47.70102" lon="3.66076">
        <ele>197.1</ele>
        <time>2022-02-23T09:28:49Z</time>
      </trkpt>
      <trkpt lat="47.70103" lon="3.66077">
        <ele>197.4</ele>
        <time>2022-02-23T09:28:50Z</time>
      </trkpt>
      <trkpt lat="47.70104" lon="3.66077">
        <ele>197.6</ele>
        <time>2022-02-23T09:28:52Z</time>
      </trkpt>
      <trkpt lat="47.70105" lon="3.66078">
        <ele>197.8</ele>
        <time>2022-02-23T09:28:53Z</time>
      </trkpt>
      <trkpt lat="47.70107" lon="3.66079">
        <ele>198.3</ele>
        <time>2022-02-23T09:28:55Z</time>
      </trkpt>
      <trkpt lat="47.70107" lon="3.6608">
        <ele>198.5</ele>
        <time>2022-02-23T09:28:56Z</time>
      </trkpt>
      <trkpt lat="47.70108" lon="3.66081">
        <ele>198.6</ele>
        <time>2022-02-23T09:28:57Z</time>
      </trkpt>
      <trkpt lat="47.70108" lon="3.66081">
        <ele>198.8</ele>
        <time>2022-02-23T09:28:58Z</time>
      </trkpt>
      <trkpt lat="47.70109" lon="3.66081">
        <ele>198.9</ele>
        <time>2022-02-23T09:28:59Z</time>
      </trkpt>
      <trkpt lat="47.7011" lon="3.66082">
        <ele>199.3</ele>
        <time>2022-02-23T09:29:00Z</time>
      </trkpt>
      <trkpt lat="47.70111" lon="3.66083">
        <ele>199.5</ele>
        <time>2022-02-23T09:29:02Z</time>
      </trkpt>
      <trkpt lat="47.70112" lon="3.66084">
        <ele>199.8</ele>
        <time>2022-02-23T09:29:03Z</time>
      </trkpt>
      <trkpt lat="47.70113" lon="3.66085">
        <ele>200.2</ele>
        <time>2022-02-23T09:29:05Z</time>
      </trkpt>
      <trkpt lat="47.70113" lon="3.66086">
        <ele>200.4</ele>
        <time>2022-02-23T09:29:06Z</time>
      </trkpt>
      <trkpt lat="47.70114" lon="3.66087">
        <ele>200.6</ele>
        <time>2022-02-23T09:29:07Z</time>
      </trkpt>
      <trkpt lat="47.70116" lon="3.66088">
        <ele>201.1</ele>
        <time>2022-02-23T09:29:08Z</time>
      </trkpt>
      <trkpt lat="47.70117" lon="3.66089">
        <ele>201.4</ele>
        <time>2022-02-23T09:29:10Z</time>
      </trkpt>
      <trkpt lat="47.70117" lon="3.6609">
        <ele>201.7</ele>
        <time>2022-02-23T09:29:11Z</time>
      </trkpt>
      <trkpt lat="47.70119" lon="3.66091">
        <ele>202.2</ele>
        <time>2022-02-23T09:29:12Z</time>
      </trkpt>
      <trkpt lat="47.7012" lon="3.66091">
        <ele>202.5</ele>
        <time>2022-02-23T09:29:14Z</time>
      </trkpt>
      <trkpt lat="47.70121" lon="3.66091">
        <ele>202.8</ele>
        <time>2022-02-23T09:29:15Z</time>
      </trkpt>
      <trkpt lat="47.70122" lon="3.66091">
        <ele>203.1</ele>
        <time>2022-02-23T09:29:16Z</time>
      </trkpt>
      <trkpt lat="47.70123" lon="3.66091">
        <ele>203.3</ele>
        <time>2022-02-23T09:29:17Z</time>
      </trkpt>
      <trkpt lat="47.70124" lon="3.66091">
        <ele>203.5</ele>
        <time>2022-02-23T09:29:18Z</time>
      </trkpt>
      <trkpt lat="47.70125" lon="3.66091">
        <ele>203.8</ele>
        <time>2022-02-23T09:29:19Z</time>
      </trkpt>
      <trkpt lat="47.70126" lon="3.66091">
        <ele>204.2</ele>
        <time>2022-02-23T09:29:20Z</time>
      </trkpt>
      <trkpt lat="47.70127" lon="3.66091">
        <ele>204.4</ele>
        <time>2022-02-23T09:29:21Z</time>
      </trkpt>
      <trkpt lat="47.70128" lon="3.66091">
        <ele>204.6</ele>
        <time>2022-02-23T09:29:22Z</time>
      </trkpt>
      <trkpt lat="47.70129" lon="3.66091">
        <ele>204.9</ele>
        <time>2022-02-23T09:29:24Z</time>
      </trkpt>
      <trkpt lat="47.70129" lon="3.6609">
        <ele>205.1</ele>
        <time>2022-02-23T09:29:25Z</time>
      </trkpt>
      <trkpt lat="47.7013" lon="3.6609">
        <ele>205.3</ele>
        <time>2022-02-23T09:29:26Z</time>
      </trkpt>
      <trkpt lat="47.70131" lon="3.6609">
        <ele>205.5</ele>
        <time>2022-02-23T09:29:28Z</time>
      </trkpt>
      <trkpt lat="47.70131" lon="3.66089">
        <ele>205.7</ele>
        <time>2022-02-23T09:29:29Z</time>
      </trkpt>
      <trkpt lat="47.70132" lon="3.66089">
        <ele>205.8</ele>
        <time>2022-02-23T09:29:30Z</time>
      </trkpt>
      <trkpt lat="47.70132" lon="3.66088">
        <ele>206</ele>
        <time>2022-02-23T09:29:31Z</time>
      </trkpt>
      <trkpt lat="47.70133" lon="3.66088">
        <ele>206.3</ele>
        <time>2022-02-23T09:29:33Z</time>
      </trkpt>
      <trkpt lat="47.70133" lon="3.66087">
        <ele>206.5</ele>
        <time>2022-02-23T09:29:34Z</time>
      </trkpt>
      <trkpt lat="47.70134" lon="3.66087">
        <ele>206.6</ele>
        <time>2022-02-23T09:29:35Z</time>
      </trkpt>
      <trkpt lat="47.70135" lon="3.66087">
        <ele>206.9</ele>
        <time>2022-02-23T09:29:37Z</time>
      </trkpt>
      <trkpt lat="47.70135" lon="3.66086">
        <ele>207.2</ele>
        <time>2022-02-23T09:29:38Z</time>
      </trkpt>
      <trkpt lat="47.70136" lon="3.66086">
        <ele>207.3</ele>
        <time>2022-02-23T09:29:39Z</time>
      </trkpt>
      <trkpt lat="47.70137" lon="3.66086">
        <ele>207.5</ele>
        <time>2022-02-23T09:29:41Z</time>
      </trkpt>
      <trkpt lat="47.70138" lon="3.66086">
        <ele>207.6</ele>
        <time>2022-02-23T09:29:42Z</time>
      </trkpt>
      <trkpt lat="47.70139" lon="3.66085">
        <ele>207.7</ele>
        <time>2022-02-23T09:29:43Z</time>
      </trkpt>
      <trkpt lat="47.70139" lon="3.66085">
        <ele>207.8</ele>
        <time>2022-02-23T09:29:44Z</time>
      </trkpt>
      <trkpt lat="47.70141" lon="3.66085">
        <ele>208</ele>
        <time>2022-02-23T09:29:46Z</time>
      </trkpt>
      <trkpt lat="47.70142" lon="3.66085">
        <ele>208.2</ele>
        <time>2022-02-23T09:29:47Z</time>
      </trkpt>
      <trkpt lat="47.70143" lon="3.66084">
        <ele>208.4</ele>
        <time>2022-02-23T09:29:48Z</time>
      </trkpt>
      <trkpt lat="47.70144" lon="3.66084">
        <ele>208.6</ele>
        <time>2022-02-23T09:29:50Z</time>
      </trkpt>
      <trkpt lat="47.70146" lon="3.66084">
        <ele>208.9</ele>
        <time>2022-02-23T09:29:51Z</time>
      </trkpt>
      <trkpt lat="47.70147" lon="3.66083">
        <ele>209</ele>
        <time>2022-02-23T09:29:52Z</time>
      </trkpt>
      <trkpt lat="47.70147" lon="3.66083">
        <ele>209.1</ele>
        <time>2022-02-23T09:29:53Z</time>
      </trkpt>
      <trkpt lat="47.70148" lon="3.66083">
        <ele>209.2</ele>
        <time>2022-02-23T09:29:54Z</time>
      </trkpt>
      <trkpt lat="47.70149" lon="3.66082">
        <ele>209.4</ele>
        <time>2022-02-23T09:29:55Z</time>
      </trkpt>
      <trkpt lat="47.70151" lon="3.66081">
        <ele>209.6</ele>
        <time>2022-02-23T09:29:56Z</time>
      </trkpt>
      <trkpt lat="47.70152" lon="3.6608">
        <ele>209.9</ele>
        <time>2022-02-23T09:29:58Z</time>
      </trkpt>
      <trkpt lat="47.70153" lon="3.66079">
        <ele>210</ele>
        <time>2022-02-23T09:29:59Z</time>
      </trkpt>
      <trkpt lat="47.70155" lon="3.66078">
        <ele>210.3</ele>
        <time>2022-02-23T09:30:01Z</time>
      </trkpt>
      <trkpt lat="47.70156" lon="3.66077">
        <ele>210.5</ele>
        <time>2022-02-23T09:30:02Z</time>
      </trkpt>
      <trkpt lat="47.70157" lon="3.66076">
        <ele>210.7</ele>
        <time>2022-02-23T09:30:03Z</time>
      </trkpt>
      <trkpt lat="47.70158" lon="3.66075">
        <ele>210.8</ele>
        <time>2022-02-23T09:30:04Z</time>
      </trkpt>
      <trkpt lat="47.7016" lon="3.66074">
        <ele>211</ele>
        <time>2022-02-23T09:30:06Z</time>
      </trkpt>
      <trkpt lat="47.70161" lon="3.66073">
        <ele>211.2</ele>
        <time>2022-02-23T09:30:07Z</time>
      </trkpt>
      <trkpt lat="47.70162" lon="3.66073">
        <ele>211.2</ele>
        <time>2022-02-23T09:30:08Z</time>
      </trkpt>
      <trkpt lat="47.70163" lon="3.66072">
        <ele>211.4</ele>
        <time>2022-02-23T09:30:09Z</time>
      </trkpt>
      <trkpt lat="47.70164" lon="3.66071">
        <ele>211.6</ele>
        <time>2022-02-23T09:30:11Z</time>
      </trkpt>
      <trkpt lat="47.70166" lon="3.6607">
        <ele>211.7</ele>
        <time>2022-02-23T09:30:12Z</time>
      </trkpt>
      <trkpt lat="47.70167" lon="3.66069">
        <ele>211.8</ele>
        <time>2022-02-23T09:30:14Z</time>
      </trkpt>
      <trkpt lat="47.70168" lon="3.66069">
        <ele>212</ele>
        <time>2022-02-23T09:30:15Z</time>
      </trkpt>
      <trkpt lat="47.70168" lon="3.66069">
        <ele>212</ele>
        <time>2022-02-23T09:30:16Z</time>
      </trkpt>
      <trkpt lat="47.70169" lon="3.66068">
        <ele>212.1</ele>
        <time>2022-02-23T09:30:17Z</time>
      </trkpt>
      <trkpt lat="47.70169" lon="3.66068">
        <ele>212.2</ele>
        <time>2022-02-23T09:30:18Z</time>
      </trkpt>
      <trkpt lat="47.7017" lon="3.66067">
        <ele>212.2</ele>
        <time>2022-02-23T09:30:19Z</time>
      </trkpt>
      <trkpt lat="47.70171" lon="3.66067">
        <ele>212.4</ele>
        <time>2022-02-23T09:30:20Z</time>
      </trkpt>
      <trkpt lat="47.70172" lon="3.66066">
        <ele>212.5</ele>
        <time>2022-02-23T09:30:21Z</time>
      </trkpt>
      <trkpt lat="47.70173" lon="3.66066">
        <ele>212.6</ele>
        <time>2022-02-23T09:30:22Z</time>
      </trkpt>
      <trkpt lat="47.70174" lon="3.66066">
        <ele>212.7</ele>
        <time>2022-02-23T09:30:24Z</time>
      </trkpt>
      <trkpt lat="47.70175" lon="3.66065">
        <ele>212.8</ele>
        <time>2022-02-23T09:30:26Z</time>
      </trkpt>
      <trkpt lat="47.70175" lon="3.66065">
        <ele>212.9</ele>
        <time>2022-02-23T09:30:27Z</time>
      </trkpt>
      <trkpt lat="47.70176" lon="3.66065">
        <ele>213</ele>
        <time>2022-02-23T09:30:28Z</time>
      </trkpt>
      <trkpt lat="47.70177" lon="3.66065">
        <ele>213.1</ele>
        <time>2022-02-23T09:30:29Z</time>
      </trkpt>
      <trkpt lat="47.70178" lon="3.66064">
        <ele>213.2</ele>
        <time>2022-02-23T09:30:30Z</time>
      </trkpt>
      <trkpt lat="47.70179" lon="3.66064">
        <ele>213.3</ele>
        <time>2022-02-23T09:30:32Z</time>
      </trkpt>
      <trkpt lat="47.70181" lon="3.66065">
        <ele>213.5</ele>
        <time>2022-02-23T09:30:33Z</time>
      </trkpt>
      <trkpt lat="47.70181" lon="3.66065">
        <ele>213.6</ele>
        <time>2022-02-23T09:30:34Z</time>
      </trkpt>
      <trkpt lat="47.70184" lon="3.66065">
        <ele>213.8</ele>
        <time>2022-02-23T09:30:36Z</time>
      </trkpt>
      <trkpt lat="47.70184" lon="3.66065">
        <ele>213.9</ele>
        <time>2022-02-23T09:30:37Z</time>
      </trkpt>
      <trkpt lat="47.70185" lon="3.66065">
        <ele>214</ele>
        <time>2022-02-23T09:30:38Z</time>
      </trkpt>
      <trkpt lat="47.70186" lon="3.66066">
        <ele>214.1</ele>
        <time>2022-02-23T09:30:39Z</time>
      </trkpt>
      <trkpt lat="47.70187" lon="3.66066">
        <ele>214.2</ele>
        <time>2022-02-23T09:30:40Z</time>
      </trkpt>
      <trkpt lat="47.70188" lon="3.66067">
        <ele>214.4</ele>
        <time>2022-02-23T09:30:41Z</time>
      </trkpt>
      <trkpt lat="47.70189" lon="3.66067">
        <ele>214.4</ele>
        <time>2022-02-23T09:30:42Z</time>
      </trkpt>
      <trkpt lat="47.70189" lon="3.66068">
        <ele>214.6</ele>
        <time>2022-02-23T09:30:44Z</time>
      </trkpt>
      <trkpt lat="47.7019" lon="3.66069">
        <ele>214.8</ele>
        <time>2022-02-23T09:30:45Z</time>
      </trkpt>
      <trkpt lat="47.70191" lon="3.6607">
        <ele>214.8</ele>
        <time>2022-02-23T09:30:46Z</time>
      </trkpt>
      <trkpt lat="47.70192" lon="3.66071">
        <ele>214.9</ele>
        <time>2022-02-23T09:30:48Z</time>
      </trkpt>
      <trkpt lat="47.70192" lon="3.66071">
        <ele>215</ele>
        <time>2022-02-23T09:30:49Z</time>
      </trkpt>
      <trkpt lat="47.70193" lon="3.66072">
        <ele>215</ele>
        <time>2022-02-23T09:30:50Z</time>
      </trkpt>
      <trkpt lat="47.70193" lon="3.66073">
        <ele>215.1</ele>
        <time>2022-02-23T09:30:51Z</time>
      </trkpt>
      <trkpt lat="47.70194" lon="3.66073">
        <ele>215.1</ele>
        <time>2022-02-23T09:30:52Z</time>
      </trkpt>
      <trkpt lat="47.70194" lon="3.66072">
        <ele>215.1</ele>
        <time>2022-02-23T09:30:53Z</time>
      </trkpt>
      <trkpt lat="47.70194" lon="3.66072">
        <ele>215.2</ele>
        <time>2022-02-23T09:30:54Z</time>
      </trkpt>
      <trkpt lat="47.70194" lon="3.66072">
        <ele>215.2</ele>
        <time>2022-02-23T09:30:55Z</time>
      </trkpt>
      <trkpt lat="47.70194" lon="3.66072">
        <ele>215.2</ele>
        <time>2022-02-23T09:30:56Z</time>
      </trkpt>
      <trkpt lat="47.70194" lon="3.66072">
        <ele>215.2</ele>
        <time>2022-02-23T09:30:57Z</time>
      </trkpt>
      <trkpt lat="47.70194" lon="3.66071">
        <ele>215.2</ele>
        <time>2022-02-23T09:30:58Z</time>
      </trkpt>
      <trkpt lat="47.70194" lon="3.66072">
        <ele>215.2</ele>
        <time>2022-02-23T09:31:00Z</time>
      </trkpt>
      <trkpt lat="47.70194" lon="3.66072">
        <ele>215.2</ele>
        <time>2022-02-23T09:31:01Z</time>
      </trkpt>
      <trkpt lat="47.70194" lon="3.66071">
        <ele>215.3</ele>
        <time>2022-02-23T09:31:02Z</time>
      </trkpt>
      <trkpt lat="47.70194" lon="3.66071">
        <ele>215.3</ele>
        <time>2022-02-23T09:31:03Z</time>
      </trkpt>
      <trkpt lat="47.70193" lon="3.66071">
        <ele>215.4</ele>
        <time>2022-02-23T09:31:04Z</time>
      </trkpt>
      <trkpt lat="47.70193" lon="3.66071">
        <ele>215.4</ele>
        <time>2022-02-23T09:31:05Z</time>
      </trkpt>
      <trkpt lat="47.70193" lon="3.66071">
        <ele>215.4</ele>
        <time>2022-02-23T09:31:06Z</time>
      </trkpt>
      <trkpt lat="47.70192" lon="3.66071">
        <ele>215.4</ele>
        <time>2022-02-23T09:31:07Z</time>
      </trkpt>
      <trkpt lat="47.70192" lon="3.66071">
        <ele>215.5</ele>
        <time>2022-02-23T09:31:08Z</time>
      </trkpt>
      <trkpt lat="47.70192" lon="3.66071">
        <ele>215.5</ele>
        <time>2022-02-23T09:31:09Z</time>
      </trkpt>
      <trkpt lat="47.70191" lon="3.66071">
        <ele>215.6</ele>
        <time>2022-02-23T09:31:11Z</time>
      </trkpt>
      <trkpt lat="47.70191" lon="3.66071">
        <ele>215.6</ele>
        <time>2022-02-23T09:31:12Z</time>
      </trkpt>
      <trkpt lat="47.70191" lon="3.66072">
        <ele>215.6</ele>
        <time>2022-02-23T09:31:13Z</time>
      </trkpt>
      <trkpt lat="47.70191" lon="3.66072">
        <ele>215.6</ele>
        <time>2022-02-23T09:31:14Z</time>
      </trkpt>
      <trkpt lat="47.70192" lon="3.66072">
        <ele>215.7</ele>
        <time>2022-02-23T09:31:15Z</time>
      </trkpt>
      <trkpt lat="47.70192" lon="3.66073">
        <ele>215.7</ele>
        <time>2022-02-23T09:31:17Z</time>
      </trkpt>
      <trkpt lat="47.70192" lon="3.66073">
        <ele>215.7</ele>
        <time>2022-02-23T09:31:18Z</time>
      </trkpt>
      <trkpt lat="47.70192" lon="3.66073">
        <ele>215.7</ele>
        <time>2022-02-23T09:31:19Z</time>
      </trkpt>
      <trkpt lat="47.70192" lon="3.66073">
        <ele>215.8</ele>
        <time>2022-02-23T09:31:20Z</time>
      </trkpt>
      <trkpt lat="47.70192" lon="3.66074">
        <ele>215.8</ele>
        <time>2022-02-23T09:31:21Z</time>
      </trkpt>
      <trkpt lat="47.70193" lon="3.66074">
        <ele>215.8</ele>
        <time>2022-02-23T09:31:23Z</time>
      </trkpt>
      <trkpt lat="47.70193" lon="3.66074">
        <ele>215.8</ele>
        <time>2022-02-23T09:31:24Z</time>
      </trkpt>
      <trkpt lat="47.70193" lon="3.66074">
        <ele>215.8</ele>
        <time>2022-02-23T09:31:25Z</time>
      </trkpt>
      <trkpt lat="47.70193" lon="3.66074">
        <ele>215.8</ele>
        <time>2022-02-23T09:31:26Z</time>
      </trkpt>
      <trkpt lat="47.70193" lon="3.66074">
        <ele>215.8</ele>
        <time>2022-02-23T09:31:27Z</time>
      </trkpt>
      <trkpt lat="47.70193" lon="3.66074">
        <ele>215.9</ele>
        <time>2022-02-23T09:31:29Z</time>
      </trkpt>
      <trkpt lat="47.70192" lon="3.66074">
        <ele>215.9</ele>
        <time>2022-02-23T09:31:31Z</time>
      </trkpt>
      <trkpt lat="47.70192" lon="3.66074">
        <ele>215.9</ele>
        <time>2022-02-23T09:31:32Z</time>
      </trkpt>
      <trkpt lat="47.70192" lon="3.66074">
        <ele>215.9</ele>
        <time>2022-02-23T09:31:33Z</time>
      </trkpt>
      <trkpt lat="47.70192" lon="3.66074">
        <ele>215.9</ele>
        <time>2022-02-23T09:31:34Z</time>
      </trkpt>
      <trkpt lat="47.70193" lon="3.66074">
        <ele>215.9</ele>
        <time>2022-02-23T09:31:35Z</time>
      </trkpt>
      <trkpt lat="47.70193" lon="3.66073">
        <ele>215.9</ele>
        <time>2022-02-23T09:31:36Z</time>
      </trkpt>
      <trkpt lat="47.70193" lon="3.66073">
        <ele>216</ele>
        <time>2022-02-23T09:31:37Z</time>
      </trkpt>
      <trkpt lat="47.70193" lon="3.66073">
        <ele>216</ele>
        <time>2022-02-23T09:31:38Z</time>
      </trkpt>
      <trkpt lat="47.70193" lon="3.66073">
        <ele>216</ele>
        <time>2022-02-23T09:31:39Z</time>
      </trkpt>
      <trkpt lat="47.70193" lon="3.66073">
        <ele>216</ele>
        <time>2022-02-23T09:31:40Z</time>
      </trkpt>
      <trkpt lat="47.70193" lon="3.66074">
        <ele>216</ele>
        <time>2022-02-23T09:31:41Z</time>
      </trkpt>
      <trkpt lat="47.70193" lon="3.66074">
        <ele>216</ele>
        <time>2022-02-23T09:31:42Z</time>
      </trkpt>
      <trkpt lat="47.70193" lon="3.66074">
        <ele>216</ele>
        <time>2022-02-23T09:31:43Z</time>
      </trkpt>
      <trkpt lat="47.70193" lon="3.66074">
        <ele>216</ele>
        <time>2022-02-23T09:31:44Z</time>
      </trkpt>
      <trkpt lat="47.70194" lon="3.66074">
        <ele>216.1</ele>
        <time>2022-02-23T09:31:45Z</time>
      </trkpt>
      <trkpt lat="47.70194" lon="3.66074">
        <ele>216.1</ele>
        <time>2022-02-23T09:31:46Z</time>
      </trkpt>
      <trkpt lat="47.70194" lon="3.66074">
        <ele>216.1</ele>
        <time>2022-02-23T09:31:48Z</time>
      </trkpt>
      <trkpt lat="47.70194" lon="3.66074">
        <ele>216.1</ele>
        <time>2022-02-23T09:31:50Z</time>
      </trkpt>
      <trkpt lat="47.70194" lon="3.66074">
        <ele>216.1</ele>
        <time>2022-02-23T09:31:51Z</time>
      </trkpt>
      <trkpt lat="47.70194" lon="3.66073">
        <ele>216.1</ele>
        <time>2022-02-23T09:31:52Z</time>
      </trkpt>
      <trkpt lat="47.70194" lon="3.66073">
        <ele>216.1</ele>
        <time>2022-02-23T09:31:54Z</time>
      </trkpt>
      <trkpt lat="47.70194" lon="3.66073">
        <ele>216.1</ele>
        <time>2022-02-23T09:31:55Z</time>
      </trkpt>
      <trkpt lat="47.70193" lon="3.66073">
        <ele>216.2</ele>
        <time>2022-02-23T09:31:57Z</time>
      </trkpt>
      <trkpt lat="47.70193" lon="3.66073">
        <ele>216.2</ele>
        <time>2022-02-23T09:31:58Z</time>
      </trkpt>
      <trkpt lat="47.70193" lon="3.66073">
        <ele>216.2</ele>
        <time>2022-02-23T09:31:59Z</time>
      </trkpt>
      <trkpt lat="47.70193" lon="3.66073">
        <ele>216.2</ele>
        <time>2022-02-23T09:32:00Z</time>
      </trkpt>
      <trkpt lat="47.70193" lon="3.66072">
        <ele>216.2</ele>
        <time>2022-02-23T09:32:02Z</time>
      </trkpt>
      <trkpt lat="47.70193" lon="3.66072">
        <ele>216.2</ele>
        <time>2022-02-23T09:32:03Z</time>
      </trkpt>
      <trkpt lat="47.70193" lon="3.66072">
        <ele>216.3</ele>
        <time>2022-02-23T09:32:04Z</time>
      </trkpt>
      <trkpt lat="47.70193" lon="3.66072">
        <ele>216.3</ele>
        <time>2022-02-23T09:32:05Z</time>
      </trkpt>
      <trkpt lat="47.70193" lon="3.66072">
        <ele>216.3</ele>
        <time>2022-02-23T09:32:07Z</time>
      </trkpt>
      <trkpt lat="47.70192" lon="3.66073">
        <ele>216.3</ele>
        <time>2022-02-23T09:32:08Z</time>
      </trkpt>
      <trkpt lat="47.70192" lon="3.66073">
        <ele>216.3</ele>
        <time>2022-02-23T09:32:09Z</time>
      </trkpt>
      <trkpt lat="47.70193" lon="3.66073">
        <ele>216.3</ele>
        <time>2022-02-23T09:32:10Z</time>
      </trkpt>
      <trkpt lat="47.70193" lon="3.66073">
        <ele>216.3</ele>
        <time>2022-02-23T09:32:13Z</time>
      </trkpt>
      <trkpt lat="47.70193" lon="3.66073">
        <ele>216.3</ele>
        <time>2022-02-23T09:32:14Z</time>
      </trkpt>
      <trkpt lat="47.70193" lon="3.66073">
        <ele>216.4</ele>
        <time>2022-02-23T09:32:15Z</time>
      </trkpt>
      <trkpt lat="47.70193" lon="3.66073">
        <ele>216.4</ele>
        <time>2022-02-23T09:32:16Z</time>
      </trkpt>
      <trkpt lat="47.70193" lon="3.66073">
        <ele>216.4</ele>
        <time>2022-02-23T09:32:17Z</time>
      </trkpt>
      <trkpt lat="47.70194" lon="3.66073">
        <ele>216.4</ele>
        <time>2022-02-23T09:32:18Z</time>
      </trkpt>
      <trkpt lat="47.70194" lon="3.66074">
        <ele>216.5</ele>
        <time>2022-02-23T09:32:19Z</time>
      </trkpt>
      <trkpt lat="47.70194" lon="3.66074">
        <ele>216.5</ele>
        <time>2022-02-23T09:32:20Z</time>
      </trkpt>
      <trkpt lat="47.70194" lon="3.66074">
        <ele>216.5</ele>
        <time>2022-02-23T09:32:21Z</time>
      </trkpt>
      <trkpt lat="47.70194" lon="3.66074">
        <ele>216.5</ele>
        <time>2022-02-23T09:32:22Z</time>
      </trkpt>
      <trkpt lat="47.70194" lon="3.66074">
        <ele>216.5</ele>
        <time>2022-02-23T09:32:23Z</time>
      </trkpt>
      <trkpt lat="47.70194" lon="3.66074">
        <ele>216.5</ele>
        <time>2022-02-23T09:32:24Z</time>
      </trkpt>
      <trkpt lat="47.70194" lon="3.66074">
        <ele>216.5</ele>
        <time>2022-02-23T09:32:25Z</time>
      </trkpt>
      <trkpt lat="47.70194" lon="3.66074">
        <ele>216.5</ele>
        <time>2022-02-23T09:32:26Z</time>
      </trkpt>
      <trkpt lat="47.70194" lon="3.66074">
        <ele>216.6</ele>
        <time>2022-02-23T09:32:27Z</time>
      </trkpt>
      <trkpt lat="47.70194" lon="3.66074">
        <ele>216.6</ele>
        <time>2022-02-23T09:32:28Z</time>
      </trkpt>
      <trkpt lat="47.70194" lon="3.66074">
        <ele>216.6</ele>
        <time>2022-02-23T09:32:30Z</time>
      </trkpt>
      <trkpt lat="47.70194" lon="3.66075">
        <ele>216.6</ele>
        <time>2022-02-23T09:32:31Z</time>
      </trkpt>
      <trkpt lat="47.70194" lon="3.66075">
        <ele>216.6</ele>
        <time>2022-02-23T09:32:32Z</time>
      </trkpt>
      <trkpt lat="47.70194" lon="3.66075">
        <ele>216.6</ele>
        <time>2022-02-23T09:32:33Z</time>
      </trkpt>
      <trkpt lat="47.70194" lon="3.66075">
        <ele>216.6</ele>
        <time>2022-02-23T09:32:34Z</time>
      </trkpt>
      <trkpt lat="47.70194" lon="3.66075">
        <ele>216.6</ele>
        <time>2022-02-23T09:32:35Z</time>
      </trkpt>
      <trkpt lat="47.70194" lon="3.66075">
        <ele>216.6</ele>
        <time>2022-02-23T09:32:36Z</time>
      </trkpt>
      <trkpt lat="47.70194" lon="3.66075">
        <ele>216.6</ele>
        <time>2022-02-23T09:32:37Z</time>
      </trkpt>
      <trkpt lat="47.70194" lon="3.66075">
        <ele>216.6</ele>
        <time>2022-02-23T09:32:38Z</time>
      </trkpt>
      <trkpt lat="47.70194" lon="3.66075">
        <ele>216.7</ele>
        <time>2022-02-23T09:32:39Z</time>
      </trkpt>
      <trkpt lat="47.70194" lon="3.66075">
        <ele>216.7</ele>
        <time>2022-02-23T09:32:40Z</time>
      </trkpt>
      <trkpt lat="47.70194" lon="3.66075">
        <ele>216.7</ele>
        <time>2022-02-23T09:32:41Z</time>
      </trkpt>
      <trkpt lat="47.70194" lon="3.66075">
        <ele>216.7</ele>
        <time>2022-02-23T09:32:42Z</time>
      </trkpt>
      <trkpt lat="47.70194" lon="3.66074">
        <ele>216.7</ele>
        <time>2022-02-23T09:32:43Z</time>
      </trkpt>
      <trkpt lat="47.70194" lon="3.66074">
        <ele>216.7</ele>
        <time>2022-02-23T09:32:44Z</time>
      </trkpt>
      <trkpt lat="47.70194" lon="3.66074">
        <ele>216.7</ele>
        <time>2022-02-23T09:32:45Z</time>
      </trkpt>
      <trkpt lat="47.70194" lon="3.66075">
        <ele>216.8</ele>
        <time>2022-02-23T09:32:46Z</time>
      </trkpt>
      <trkpt lat="47.70195" lon="3.66076">
        <ele>216.8</ele>
        <time>2022-02-23T09:32:47Z</time>
      </trkpt>
      <trkpt lat="47.70195" lon="3.66076">
        <ele>216.8</ele>
        <time>2022-02-23T09:32:48Z</time>
      </trkpt>
      <trkpt lat="47.70194" lon="3.66076">
        <ele>216.8</ele>
        <time>2022-02-23T09:32:49Z</time>
      </trkpt>
      <trkpt lat="47.70194" lon="3.66076">
        <ele>216.9</ele>
        <time>2022-02-23T09:32:50Z</time>
      </trkpt>
      <trkpt lat="47.70194" lon="3.66076">
        <ele>216.9</ele>
        <time>2022-02-23T09:32:52Z</time>
      </trkpt>
      <trkpt lat="47.70194" lon="3.66076">
        <ele>216.9</ele>
        <time>2022-02-23T09:32:53Z</time>
      </trkpt>
      <trkpt lat="47.70194" lon="3.66076">
        <ele>216.9</ele>
        <time>2022-02-23T09:32:54Z</time>
      </trkpt>
      <trkpt lat="47.70194" lon="3.66076">
        <ele>216.9</ele>
        <time>2022-02-23T09:32:56Z</time>
      </trkpt>
      <trkpt lat="47.70194" lon="3.66076">
        <ele>216.9</ele>
        <time>2022-02-23T09:32:57Z</time>
      </trkpt>
      <trkpt lat="47.70194" lon="3.66076">
        <ele>216.9</ele>
        <time>2022-02-23T09:32:58Z</time>
      </trkpt>
      <trkpt lat="47.70194" lon="3.66076">
        <ele>216.9</ele>
        <time>2022-02-23T09:32:59Z</time>
      </trkpt>
      <trkpt lat="47.70194" lon="3.66076">
        <ele>216.9</ele>
        <time>2022-02-23T09:33:01Z</time>
      </trkpt>
      <trkpt lat="47.70194" lon="3.66076">
        <ele>217</ele>
        <time>2022-02-23T09:33:02Z</time>
      </trkpt>
      <trkpt lat="47.70193" lon="3.66076">
        <ele>217</ele>
        <time>2022-02-23T09:33:03Z</time>
      </trkpt>
      <trkpt lat="47.70193" lon="3.66076">
        <ele>217</ele>
        <time>2022-02-23T09:33:04Z</time>
      </trkpt>
      <trkpt lat="47.70193" lon="3.66076">
        <ele>217</ele>
        <time>2022-02-23T09:33:05Z</time>
      </trkpt>
      <trkpt lat="47.70193" lon="3.66077">
        <ele>217</ele>
        <time>2022-02-23T09:33:06Z</time>
      </trkpt>
      <trkpt lat="47.70193" lon="3.66076">
        <ele>217</ele>
        <time>2022-02-23T09:33:07Z</time>
      </trkpt>
      <trkpt lat="47.70193" lon="3.66076">
        <ele>217.1</ele>
        <time>2022-02-23T09:33:08Z</time>
      </trkpt>
      <trkpt lat="47.70193" lon="3.66076">
        <ele>217.1</ele>
        <time>2022-02-23T09:33:09Z</time>
      </trkpt>
      <trkpt lat="47.70193" lon="3.66076">
        <ele>217.1</ele>
        <time>2022-02-23T09:33:10Z</time>
      </trkpt>
      <trkpt lat="47.70192" lon="3.66076">
        <ele>217.1</ele>
        <time>2022-02-23T09:33:11Z</time>
      </trkpt>
      <trkpt lat="47.70192" lon="3.66076">
        <ele>217.1</ele>
        <time>2022-02-23T09:33:12Z</time>
      </trkpt>
      <trkpt lat="47.70192" lon="3.66076">
        <ele>217.1</ele>
        <time>2022-02-23T09:33:13Z</time>
      </trkpt>
      <trkpt lat="47.70192" lon="3.66076">
        <ele>217.1</ele>
        <time>2022-02-23T09:33:14Z</time>
      </trkpt>
      <trkpt lat="47.70192" lon="3.66076">
        <ele>217.1</ele>
        <time>2022-02-23T09:33:15Z</time>
      </trkpt>
      <trkpt lat="47.70193" lon="3.66076">
        <ele>217.2</ele>
        <time>2022-02-23T09:33:16Z</time>
      </trkpt>
      <trkpt lat="47.70194" lon="3.66077">
        <ele>217.2</ele>
        <time>2022-02-23T09:33:17Z</time>
      </trkpt>
      <trkpt lat="47.70195" lon="3.66078">
        <ele>217.3</ele>
        <time>2022-02-23T09:33:18Z</time>
      </trkpt>
      <trkpt lat="47.70195" lon="3.66078">
        <ele>217.4</ele>
        <time>2022-02-23T09:33:19Z</time>
      </trkpt>
      <trkpt lat="47.70196" lon="3.66079">
        <ele>217.4</ele>
        <time>2022-02-23T09:33:20Z</time>
      </trkpt>
      <trkpt lat="47.70196" lon="3.6608">
        <ele>217.5</ele>
        <time>2022-02-23T09:33:21Z</time>
      </trkpt>
      <trkpt lat="47.70197" lon="3.66081">
        <ele>217.6</ele>
        <time>2022-02-23T09:33:22Z</time>
      </trkpt>
      <trkpt lat="47.70197" lon="3.66083">
        <ele>217.7</ele>
        <time>2022-02-23T09:33:23Z</time>
      </trkpt>
      <trkpt lat="47.70197" lon="3.66083">
        <ele>217.7</ele>
        <time>2022-02-23T09:33:24Z</time>
      </trkpt>
      <trkpt lat="47.70198" lon="3.66084">
        <ele>217.8</ele>
        <time>2022-02-23T09:33:25Z</time>
      </trkpt>
      <trkpt lat="47.70199" lon="3.66086">
        <ele>217.8</ele>
        <time>2022-02-23T09:33:26Z</time>
      </trkpt>
      <trkpt lat="47.702" lon="3.66088">
        <ele>218</ele>
        <time>2022-02-23T09:33:28Z</time>
      </trkpt>
      <trkpt lat="47.70201" lon="3.66089">
        <ele>218.1</ele>
        <time>2022-02-23T09:33:29Z</time>
      </trkpt>
      <trkpt lat="47.70202" lon="3.6609">
        <ele>218.2</ele>
        <time>2022-02-23T09:33:30Z</time>
      </trkpt>
      <trkpt lat="47.70203" lon="3.66091">
        <ele>218.2</ele>
        <time>2022-02-23T09:33:32Z</time>
      </trkpt>
      <trkpt lat="47.70204" lon="3.66092">
        <ele>218.3</ele>
        <time>2022-02-23T09:33:33Z</time>
      </trkpt>
      <trkpt lat="47.70205" lon="3.66093">
        <ele>218.4</ele>
        <time>2022-02-23T09:33:34Z</time>
      </trkpt>
      <trkpt lat="47.70206" lon="3.66094">
        <ele>218.5</ele>
        <time>2022-02-23T09:33:36Z</time>
      </trkpt>
      <trkpt lat="47.70207" lon="3.66095">
        <ele>218.5</ele>
        <time>2022-02-23T09:33:37Z</time>
      </trkpt>
      <trkpt lat="47.70208" lon="3.66096">
        <ele>218.6</ele>
        <time>2022-02-23T09:33:38Z</time>
      </trkpt>
      <trkpt lat="47.70208" lon="3.66096">
        <ele>218.6</ele>
        <time>2022-02-23T09:33:39Z</time>
      </trkpt>
      <trkpt lat="47.70209" lon="3.66097">
        <ele>218.7</ele>
        <time>2022-02-23T09:33:40Z</time>
      </trkpt>
      <trkpt lat="47.70211" lon="3.66098">
        <ele>218.8</ele>
        <time>2022-02-23T09:33:41Z</time>
      </trkpt>
      <trkpt lat="47.70212" lon="3.66099">
        <ele>218.9</ele>
        <time>2022-02-23T09:33:43Z</time>
      </trkpt>
      <trkpt lat="47.70213" lon="3.661">
        <ele>219</ele>
        <time>2022-02-23T09:33:44Z</time>
      </trkpt>
      <trkpt lat="47.70214" lon="3.661">
        <ele>219</ele>
        <time>2022-02-23T09:33:45Z</time>
      </trkpt>
      <trkpt lat="47.70215" lon="3.66101">
        <ele>219.1</ele>
        <time>2022-02-23T09:33:47Z</time>
      </trkpt>
      <trkpt lat="47.70216" lon="3.66102">
        <ele>219.2</ele>
        <time>2022-02-23T09:33:48Z</time>
      </trkpt>
      <trkpt lat="47.70217" lon="3.66103">
        <ele>219.2</ele>
        <time>2022-02-23T09:33:49Z</time>
      </trkpt>
      <trkpt lat="47.70218" lon="3.66103">
        <ele>219.3</ele>
        <time>2022-02-23T09:33:50Z</time>
      </trkpt>
      <trkpt lat="47.70218" lon="3.66104">
        <ele>219.3</ele>
        <time>2022-02-23T09:33:51Z</time>
      </trkpt>
      <trkpt lat="47.7022" lon="3.66105">
        <ele>219.4</ele>
        <time>2022-02-23T09:33:52Z</time>
      </trkpt>
      <trkpt lat="47.70221" lon="3.66106">
        <ele>219.5</ele>
        <time>2022-02-23T09:33:54Z</time>
      </trkpt>
      <trkpt lat="47.70222" lon="3.66106">
        <ele>219.6</ele>
        <time>2022-02-23T09:33:55Z</time>
      </trkpt>
      <trkpt lat="47.70223" lon="3.66107">
        <ele>219.6</ele>
        <time>2022-02-23T09:33:56Z</time>
      </trkpt>
      <trkpt lat="47.70224" lon="3.66107">
        <ele>219.7</ele>
        <time>2022-02-23T09:33:57Z</time>
      </trkpt>
      <trkpt lat="47.70226" lon="3.66108">
        <ele>219.8</ele>
        <time>2022-02-23T09:33:59Z</time>
      </trkpt>
      <trkpt lat="47.70227" lon="3.66109">
        <ele>219.8</ele>
        <time>2022-02-23T09:34:00Z</time>
      </trkpt>
      <trkpt lat="47.70227" lon="3.66109">
        <ele>219.9</ele>
        <time>2022-02-23T09:34:01Z</time>
      </trkpt>
      <trkpt lat="47.70229" lon="3.66111">
        <ele>220</ele>
        <time>2022-02-23T09:34:02Z</time>
      </trkpt>
      <trkpt lat="47.7023" lon="3.66112">
        <ele>220</ele>
        <time>2022-02-23T09:34:04Z</time>
      </trkpt>
      <trkpt lat="47.70231" lon="3.66113">
        <ele>220.1</ele>
        <time>2022-02-23T09:34:05Z</time>
      </trkpt>
      <trkpt lat="47.70232" lon="3.66113">
        <ele>220.2</ele>
        <time>2022-02-23T09:34:06Z</time>
      </trkpt>
      <trkpt lat="47.70233" lon="3.66114">
        <ele>220.2</ele>
        <time>2022-02-23T09:34:08Z</time>
      </trkpt>
      <trkpt lat="47.70234" lon="3.66115">
        <ele>220.3</ele>
        <time>2022-02-23T09:34:09Z</time>
      </trkpt>
      <trkpt lat="47.70235" lon="3.66116">
        <ele>220.3</ele>
        <time>2022-02-23T09:34:10Z</time>
      </trkpt>
      <trkpt lat="47.70236" lon="3.66117">
        <ele>220.4</ele>
        <time>2022-02-23T09:34:11Z</time>
      </trkpt>
      <trkpt lat="47.70237" lon="3.66118">
        <ele>220.4</ele>
        <time>2022-02-23T09:34:13Z</time>
      </trkpt>
      <trkpt lat="47.70238" lon="3.66119">
        <ele>220.5</ele>
        <time>2022-02-23T09:34:14Z</time>
      </trkpt>
      <trkpt lat="47.70239" lon="3.6612">
        <ele>220.5</ele>
        <time>2022-02-23T09:34:15Z</time>
      </trkpt>
      <trkpt lat="47.70241" lon="3.66122">
        <ele>220.6</ele>
        <time>2022-02-23T09:34:16Z</time>
      </trkpt>
      <trkpt lat="47.70242" lon="3.66123">
        <ele>220.6</ele>
        <time>2022-02-23T09:34:18Z</time>
      </trkpt>
      <trkpt lat="47.70243" lon="3.66124">
        <ele>220.7</ele>
        <time>2022-02-23T09:34:19Z</time>
      </trkpt>
      <trkpt lat="47.70244" lon="3.66125">
        <ele>220.7</ele>
        <time>2022-02-23T09:34:20Z</time>
      </trkpt>
      <trkpt lat="47.70245" lon="3.66126">
        <ele>220.8</ele>
        <time>2022-02-23T09:34:22Z</time>
      </trkpt>
      <trkpt lat="47.70246" lon="3.66128">
        <ele>220.8</ele>
        <time>2022-02-23T09:34:23Z</time>
      </trkpt>
      <trkpt lat="47.70247" lon="3.66131">
        <ele>220.9</ele>
        <time>2022-02-23T09:34:25Z</time>
      </trkpt>
      <trkpt lat="47.70248" lon="3.66132">
        <ele>220.9</ele>
        <time>2022-02-23T09:34:26Z</time>
      </trkpt>
      <trkpt lat="47.70248" lon="3.66133">
        <ele>220.9</ele>
        <time>2022-02-23T09:34:27Z</time>
      </trkpt>
      <trkpt lat="47.70249" lon="3.66135">
        <ele>221</ele>
        <time>2022-02-23T09:34:29Z</time>
      </trkpt>
      <trkpt lat="47.7025" lon="3.66136">
        <ele>221</ele>
        <time>2022-02-23T09:34:30Z</time>
      </trkpt>
      <trkpt lat="47.70251" lon="3.66139">
        <ele>221.1</ele>
        <time>2022-02-23T09:34:31Z</time>
      </trkpt>
      <trkpt lat="47.70252" lon="3.6614">
        <ele>221.1</ele>
        <time>2022-02-23T09:34:33Z</time>
      </trkpt>
      <trkpt lat="47.70252" lon="3.66141">
        <ele>221.1</ele>
        <time>2022-02-23T09:34:34Z</time>
      </trkpt>
      <trkpt lat="47.70253" lon="3.66143">
        <ele>221.2</ele>
        <time>2022-02-23T09:34:35Z</time>
      </trkpt>
      <trkpt lat="47.70254" lon="3.66144">
        <ele>221.2</ele>
        <time>2022-02-23T09:34:36Z</time>
      </trkpt>
      <trkpt lat="47.70254" lon="3.66145">
        <ele>221.2</ele>
        <time>2022-02-23T09:34:37Z</time>
      </trkpt>
      <trkpt lat="47.70255" lon="3.66147">
        <ele>221.2</ele>
        <time>2022-02-23T09:34:39Z</time>
      </trkpt>
      <trkpt lat="47.70255" lon="3.66148">
        <ele>221.3</ele>
        <time>2022-02-23T09:34:40Z</time>
      </trkpt>
      <trkpt lat="47.70256" lon="3.66149">
        <ele>221.3</ele>
        <time>2022-02-23T09:34:41Z</time>
      </trkpt>
      <trkpt lat="47.70256" lon="3.6615">
        <ele>221.3</ele>
        <time>2022-02-23T09:34:42Z</time>
      </trkpt>
      <trkpt lat="47.70257" lon="3.66152">
        <ele>221.3</ele>
        <time>2022-02-23T09:34:43Z</time>
      </trkpt>
      <trkpt lat="47.70257" lon="3.66153">
        <ele>221.4</ele>
        <time>2022-02-23T09:34:45Z</time>
      </trkpt>
      <trkpt lat="47.70258" lon="3.66155">
        <ele>221.4</ele>
        <time>2022-02-23T09:34:46Z</time>
      </trkpt>
      <trkpt lat="47.70258" lon="3.66156">
        <ele>221.4</ele>
        <time>2022-02-23T09:34:47Z</time>
      </trkpt>
      <trkpt lat="47.70259" lon="3.66159">
        <ele>221.5</ele>
        <time>2022-02-23T09:34:49Z</time>
      </trkpt>
      <trkpt lat="47.7026" lon="3.6616">
        <ele>221.5</ele>
        <time>2022-02-23T09:34:50Z</time>
      </trkpt>
      <trkpt lat="47.7026" lon="3.66162">
        <ele>221.5</ele>
        <time>2022-02-23T09:34:52Z</time>
      </trkpt>
      <trkpt lat="47.70261" lon="3.66163">
        <ele>221.5</ele>
        <time>2022-02-23T09:34:53Z</time>
      </trkpt>
      <trkpt lat="47.70261" lon="3.66164">
        <ele>221.6</ele>
        <time>2022-02-23T09:34:54Z</time>
      </trkpt>
      <trkpt lat="47.70262" lon="3.66166">
        <ele>221.6</ele>
        <time>2022-02-23T09:34:55Z</time>
      </trkpt>
      <trkpt lat="47.70262" lon="3.66166">
        <ele>221.6</ele>
        <time>2022-02-23T09:34:56Z</time>
      </trkpt>
      <trkpt lat="47.70263" lon="3.66168">
        <ele>221.6</ele>
        <time>2022-02-23T09:34:57Z</time>
      </trkpt>
      <trkpt lat="47.70264" lon="3.6617">
        <ele>221.7</ele>
        <time>2022-02-23T09:34:59Z</time>
      </trkpt>
      <trkpt lat="47.70264" lon="3.66171">
        <ele>221.7</ele>
        <time>2022-02-23T09:35:00Z</time>
      </trkpt>
      <trkpt lat="47.70265" lon="3.66172">
        <ele>221.7</ele>
        <time>2022-02-23T09:35:01Z</time>
      </trkpt>
      <trkpt lat="47.70265" lon="3.66173">
        <ele>221.7</ele>
        <time>2022-02-23T09:35:02Z</time>
      </trkpt>
      <trkpt lat="47.70267" lon="3.66176">
        <ele>221.8</ele>
        <time>2022-02-23T09:35:03Z</time>
      </trkpt>
      <trkpt lat="47.70267" lon="3.66177">
        <ele>221.8</ele>
        <time>2022-02-23T09:35:04Z</time>
      </trkpt>
      <trkpt lat="47.70268" lon="3.66178">
        <ele>221.8</ele>
        <time>2022-02-23T09:35:06Z</time>
      </trkpt>
      <trkpt lat="47.70268" lon="3.6618">
        <ele>221.8</ele>
        <time>2022-02-23T09:35:07Z</time>
      </trkpt>
      <trkpt lat="47.70269" lon="3.66181">
        <ele>221.8</ele>
        <time>2022-02-23T09:35:08Z</time>
      </trkpt>
      <trkpt lat="47.7027" lon="3.66182">
        <ele>221.9</ele>
        <time>2022-02-23T09:35:09Z</time>
      </trkpt>
      <trkpt lat="47.7027" lon="3.66183">
        <ele>221.9</ele>
        <time>2022-02-23T09:35:10Z</time>
      </trkpt>
      <trkpt lat="47.70271" lon="3.66185">
        <ele>221.9</ele>
        <time>2022-02-23T09:35:11Z</time>
      </trkpt>
      <trkpt lat="47.70271" lon="3.66186">
        <ele>221.9</ele>
        <time>2022-02-23T09:35:13Z</time>
      </trkpt>
      <trkpt lat="47.70272" lon="3.66188">
        <ele>221.9</ele>
        <time>2022-02-23T09:35:14Z</time>
      </trkpt>
      <trkpt lat="47.70272" lon="3.6619">
        <ele>222</ele>
        <time>2022-02-23T09:35:15Z</time>
      </trkpt>
      <trkpt lat="47.70273" lon="3.66191">
        <ele>222</ele>
        <time>2022-02-23T09:35:16Z</time>
      </trkpt>
      <trkpt lat="47.70273" lon="3.66193">
        <ele>222</ele>
        <time>2022-02-23T09:35:18Z</time>
      </trkpt>
      <trkpt lat="47.70274" lon="3.66194">
        <ele>222</ele>
        <time>2022-02-23T09:35:19Z</time>
      </trkpt>
      <trkpt lat="47.70274" lon="3.66196">
        <ele>222</ele>
        <time>2022-02-23T09:35:20Z</time>
      </trkpt>
      <trkpt lat="47.70274" lon="3.66197">
        <ele>222</ele>
        <time>2022-02-23T09:35:21Z</time>
      </trkpt>
      <trkpt lat="47.70274" lon="3.66198">
        <ele>222</ele>
        <time>2022-02-23T09:35:22Z</time>
      </trkpt>
      <trkpt lat="47.70275" lon="3.662">
        <ele>222</ele>
        <time>2022-02-23T09:35:23Z</time>
      </trkpt>
      <trkpt lat="47.70275" lon="3.66204">
        <ele>222.1</ele>
        <time>2022-02-23T09:35:24Z</time>
      </trkpt>
      <trkpt lat="47.70275" lon="3.66205">
        <ele>222.1</ele>
        <time>2022-02-23T09:35:26Z</time>
      </trkpt>
      <trkpt lat="47.70275" lon="3.66207">
        <ele>222.1</ele>
        <time>2022-02-23T09:35:27Z</time>
      </trkpt>
      <trkpt lat="47.70275" lon="3.66208">
        <ele>222.1</ele>
        <time>2022-02-23T09:35:28Z</time>
      </trkpt>
      <trkpt lat="47.70276" lon="3.6621">
        <ele>222.1</ele>
        <time>2022-02-23T09:35:29Z</time>
      </trkpt>
      <trkpt lat="47.70276" lon="3.66211">
        <ele>222.1</ele>
        <time>2022-02-23T09:35:30Z</time>
      </trkpt>
      <trkpt lat="47.70275" lon="3.66213">
        <ele>222.2</ele>
        <time>2022-02-23T09:35:31Z</time>
      </trkpt>
      <trkpt lat="47.70275" lon="3.66215">
        <ele>222.2</ele>
        <time>2022-02-23T09:35:33Z</time>
      </trkpt>
      <trkpt lat="47.70275" lon="3.66217">
        <ele>222.2</ele>
        <time>2022-02-23T09:35:34Z</time>
      </trkpt>
      <trkpt lat="47.70276" lon="3.66219">
        <ele>222.2</ele>
        <time>2022-02-23T09:35:35Z</time>
      </trkpt>
      <trkpt lat="47.70276" lon="3.66222">
        <ele>222.2</ele>
        <time>2022-02-23T09:35:36Z</time>
      </trkpt>
      <trkpt lat="47.70276" lon="3.66223">
        <ele>222.2</ele>
        <time>2022-02-23T09:35:37Z</time>
      </trkpt>
      <trkpt lat="47.70277" lon="3.66228">
        <ele>222.3</ele>
        <time>2022-02-23T09:35:38Z</time>
      </trkpt>
      <trkpt lat="47.70277" lon="3.66229">
        <ele>222.3</ele>
        <time>2022-02-23T09:35:40Z</time>
      </trkpt>
      <trkpt lat="47.70277" lon="3.66231">
        <ele>222.3</ele>
        <time>2022-02-23T09:35:41Z</time>
      </trkpt>
      <trkpt lat="47.70278" lon="3.66232">
        <ele>222.3</ele>
        <time>2022-02-23T09:35:42Z</time>
      </trkpt>
      <trkpt lat="47.70278" lon="3.66234">
        <ele>222.3</ele>
        <time>2022-02-23T09:35:43Z</time>
      </trkpt>
      <trkpt lat="47.70278" lon="3.66236">
        <ele>222.4</ele>
        <time>2022-02-23T09:35:44Z</time>
      </trkpt>
      <trkpt lat="47.70279" lon="3.66238">
        <ele>222.4</ele>
        <time>2022-02-23T09:35:45Z</time>
      </trkpt>
      <trkpt lat="47.70279" lon="3.6624">
        <ele>222.4</ele>
        <time>2022-02-23T09:35:47Z</time>
      </trkpt>
      <trkpt lat="47.7028" lon="3.66242">
        <ele>222.4</ele>
        <time>2022-02-23T09:35:48Z</time>
      </trkpt>
      <trkpt lat="47.7028" lon="3.66244">
        <ele>222.4</ele>
        <time>2022-02-23T09:35:49Z</time>
      </trkpt>
      <trkpt lat="47.70281" lon="3.66245">
        <ele>222.5</ele>
        <time>2022-02-23T09:35:50Z</time>
      </trkpt>
      <trkpt lat="47.70282" lon="3.66247">
        <ele>222.5</ele>
        <time>2022-02-23T09:35:51Z</time>
      </trkpt>
      <trkpt lat="47.70283" lon="3.66249">
        <ele>222.5</ele>
        <time>2022-02-23T09:35:52Z</time>
      </trkpt>
      <trkpt lat="47.70284" lon="3.66251">
        <ele>222.6</ele>
        <time>2022-02-23T09:35:53Z</time>
      </trkpt>
      <trkpt lat="47.70285" lon="3.66252">
        <ele>222.6</ele>
        <time>2022-02-23T09:35:54Z</time>
      </trkpt>
      <trkpt lat="47.70285" lon="3.66254">
        <ele>222.6</ele>
        <time>2022-02-23T09:35:56Z</time>
      </trkpt>
      <trkpt lat="47.70286" lon="3.66255">
        <ele>222.6</ele>
        <time>2022-02-23T09:35:57Z</time>
      </trkpt>
      <trkpt lat="47.70287" lon="3.66256">
        <ele>222.6</ele>
        <time>2022-02-23T09:35:58Z</time>
      </trkpt>
      <trkpt lat="47.70288" lon="3.66258">
        <ele>222.7</ele>
        <time>2022-02-23T09:35:59Z</time>
      </trkpt>
      <trkpt lat="47.70288" lon="3.66259">
        <ele>222.7</ele>
        <time>2022-02-23T09:36:00Z</time>
      </trkpt>
      <trkpt lat="47.70289" lon="3.6626">
        <ele>222.7</ele>
        <time>2022-02-23T09:36:01Z</time>
      </trkpt>
      <trkpt lat="47.7029" lon="3.66261">
        <ele>222.7</ele>
        <time>2022-02-23T09:36:03Z</time>
      </trkpt>
      <trkpt lat="47.70291" lon="3.66263">
        <ele>222.8</ele>
        <time>2022-02-23T09:36:04Z</time>
      </trkpt>
      <trkpt lat="47.70291" lon="3.66263">
        <ele>222.8</ele>
        <time>2022-02-23T09:36:05Z</time>
      </trkpt>
      <trkpt lat="47.70292" lon="3.66265">
        <ele>222.8</ele>
        <time>2022-02-23T09:36:06Z</time>
      </trkpt>
      <trkpt lat="47.70292" lon="3.66266">
        <ele>222.8</ele>
        <time>2022-02-23T09:36:07Z</time>
      </trkpt>
      <trkpt lat="47.70294" lon="3.66269">
        <ele>222.9</ele>
        <time>2022-02-23T09:36:09Z</time>
      </trkpt>
      <trkpt lat="47.70294" lon="3.6627">
        <ele>222.9</ele>
        <time>2022-02-23T09:36:10Z</time>
      </trkpt>
      <trkpt lat="47.70295" lon="3.66272">
        <ele>223</ele>
        <time>2022-02-23T09:36:11Z</time>
      </trkpt>
      <trkpt lat="47.70295" lon="3.66274">
        <ele>223</ele>
        <time>2022-02-23T09:36:12Z</time>
      </trkpt>
      <trkpt lat="47.70296" lon="3.66276">
        <ele>223.1</ele>
        <time>2022-02-23T09:36:13Z</time>
      </trkpt>
      <trkpt lat="47.70297" lon="3.66277">
        <ele>223.1</ele>
        <time>2022-02-23T09:36:15Z</time>
      </trkpt>
      <trkpt lat="47.70297" lon="3.66279">
        <ele>223.1</ele>
        <time>2022-02-23T09:36:16Z</time>
      </trkpt>
      <trkpt lat="47.70298" lon="3.6628">
        <ele>223.2</ele>
        <time>2022-02-23T09:36:17Z</time>
      </trkpt>
      <trkpt lat="47.70299" lon="3.66283">
        <ele>223.2</ele>
        <time>2022-02-23T09:36:19Z</time>
      </trkpt>
      <trkpt lat="47.703" lon="3.66284">
        <ele>223.3</ele>
        <time>2022-02-23T09:36:20Z</time>
      </trkpt>
      <trkpt lat="47.703" lon="3.66286">
        <ele>223.3</ele>
        <time>2022-02-23T09:36:21Z</time>
      </trkpt>
      <trkpt lat="47.70301" lon="3.66287">
        <ele>223.3</ele>
        <time>2022-02-23T09:36:22Z</time>
      </trkpt>
      <trkpt lat="47.70301" lon="3.66288">
        <ele>223.4</ele>
        <time>2022-02-23T09:36:23Z</time>
      </trkpt>
      <trkpt lat="47.70302" lon="3.6629">
        <ele>223.4</ele>
        <time>2022-02-23T09:36:24Z</time>
      </trkpt>
      <trkpt lat="47.70302" lon="3.66292">
        <ele>223.5</ele>
        <time>2022-02-23T09:36:25Z</time>
      </trkpt>
      <trkpt lat="47.70303" lon="3.66294">
        <ele>223.5</ele>
        <time>2022-02-23T09:36:26Z</time>
      </trkpt>
      <trkpt lat="47.70304" lon="3.66295">
        <ele>223.6</ele>
        <time>2022-02-23T09:36:28Z</time>
      </trkpt>
      <trkpt lat="47.70304" lon="3.66296">
        <ele>223.6</ele>
        <time>2022-02-23T09:36:29Z</time>
      </trkpt>
      <trkpt lat="47.70305" lon="3.66298">
        <ele>223.7</ele>
        <time>2022-02-23T09:36:30Z</time>
      </trkpt>
      <trkpt lat="47.70306" lon="3.66299">
        <ele>223.7</ele>
        <time>2022-02-23T09:36:31Z</time>
      </trkpt>
      <trkpt lat="47.70307" lon="3.66301">
        <ele>223.8</ele>
        <time>2022-02-23T09:36:32Z</time>
      </trkpt>
      <trkpt lat="47.70308" lon="3.66302">
        <ele>223.8</ele>
        <time>2022-02-23T09:36:33Z</time>
      </trkpt>
      <trkpt lat="47.70308" lon="3.66303">
        <ele>223.9</ele>
        <time>2022-02-23T09:36:34Z</time>
      </trkpt>
      <trkpt lat="47.70309" lon="3.66306">
        <ele>223.9</ele>
        <time>2022-02-23T09:36:35Z</time>
      </trkpt>
      <trkpt lat="47.7031" lon="3.66307">
        <ele>224</ele>
        <time>2022-02-23T09:36:36Z</time>
      </trkpt>
      <trkpt lat="47.70311" lon="3.66308">
        <ele>224</ele>
        <time>2022-02-23T09:36:37Z</time>
      </trkpt>
      <trkpt lat="47.70311" lon="3.66309">
        <ele>224.1</ele>
        <time>2022-02-23T09:36:38Z</time>
      </trkpt>
      <trkpt lat="47.70312" lon="3.6631">
        <ele>224.1</ele>
        <time>2022-02-23T09:36:40Z</time>
      </trkpt>
      <trkpt lat="47.70313" lon="3.66312">
        <ele>224.2</ele>
        <time>2022-02-23T09:36:41Z</time>
      </trkpt>
      <trkpt lat="47.70314" lon="3.66313">
        <ele>224.2</ele>
        <time>2022-02-23T09:36:42Z</time>
      </trkpt>
      <trkpt lat="47.70314" lon="3.66314">
        <ele>224.3</ele>
        <time>2022-02-23T09:36:43Z</time>
      </trkpt>
      <trkpt lat="47.70315" lon="3.66316">
        <ele>224.3</ele>
        <time>2022-02-23T09:36:45Z</time>
      </trkpt>
      <trkpt lat="47.70316" lon="3.66318">
        <ele>224.4</ele>
        <time>2022-02-23T09:36:46Z</time>
      </trkpt>
      <trkpt lat="47.70317" lon="3.66319">
        <ele>224.4</ele>
        <time>2022-02-23T09:36:47Z</time>
      </trkpt>
      <trkpt lat="47.70317" lon="3.6632">
        <ele>224.5</ele>
        <time>2022-02-23T09:36:48Z</time>
      </trkpt>
      <trkpt lat="47.70318" lon="3.66322">
        <ele>224.5</ele>
        <time>2022-02-23T09:36:49Z</time>
      </trkpt>
      <trkpt lat="47.70319" lon="3.66323">
        <ele>224.6</ele>
        <time>2022-02-23T09:36:50Z</time>
      </trkpt>
      <trkpt lat="47.70319" lon="3.66324">
        <ele>224.6</ele>
        <time>2022-02-23T09:36:51Z</time>
      </trkpt>
      <trkpt lat="47.7032" lon="3.66326">
        <ele>224.7</ele>
        <time>2022-02-23T09:36:53Z</time>
      </trkpt>
      <trkpt lat="47.7032" lon="3.66327">
        <ele>224.7</ele>
        <time>2022-02-23T09:36:54Z</time>
      </trkpt>
      <trkpt lat="47.70322" lon="3.66329">
        <ele>224.8</ele>
        <time>2022-02-23T09:36:56Z</time>
      </trkpt>
      <trkpt lat="47.70322" lon="3.6633">
        <ele>224.9</ele>
        <time>2022-02-23T09:36:57Z</time>
      </trkpt>
      <trkpt lat="47.70323" lon="3.66331">
        <ele>224.9</ele>
        <time>2022-02-23T09:36:58Z</time>
      </trkpt>
      <trkpt lat="47.70323" lon="3.66333">
        <ele>224.9</ele>
        <time>2022-02-23T09:36:59Z</time>
      </trkpt>
      <trkpt lat="47.70324" lon="3.66333">
        <ele>225</ele>
        <time>2022-02-23T09:37:00Z</time>
      </trkpt>
      <trkpt lat="47.70324" lon="3.66335">
        <ele>225</ele>
        <time>2022-02-23T09:37:01Z</time>
      </trkpt>
      <trkpt lat="47.70325" lon="3.66337">
        <ele>225.1</ele>
        <time>2022-02-23T09:37:03Z</time>
      </trkpt>
      <trkpt lat="47.70325" lon="3.66338">
        <ele>225.1</ele>
        <time>2022-02-23T09:37:04Z</time>
      </trkpt>
      <trkpt lat="47.70325" lon="3.6634">
        <ele>225.2</ele>
        <time>2022-02-23T09:37:05Z</time>
      </trkpt>
      <trkpt lat="47.70326" lon="3.66342">
        <ele>225.2</ele>
        <time>2022-02-23T09:37:06Z</time>
      </trkpt>
      <trkpt lat="47.70327" lon="3.66345">
        <ele>225.3</ele>
        <time>2022-02-23T09:37:08Z</time>
      </trkpt>
      <trkpt lat="47.70328" lon="3.66346">
        <ele>225.3</ele>
        <time>2022-02-23T09:37:09Z</time>
      </trkpt>
      <trkpt lat="47.70328" lon="3.66347">
        <ele>225.3</ele>
        <time>2022-02-23T09:37:10Z</time>
      </trkpt>
      <trkpt lat="47.70329" lon="3.66349">
        <ele>225.4</ele>
        <time>2022-02-23T09:37:12Z</time>
      </trkpt>
      <trkpt lat="47.7033" lon="3.6635">
        <ele>225.4</ele>
        <time>2022-02-23T09:37:13Z</time>
      </trkpt>
      <trkpt lat="47.7033" lon="3.66351">
        <ele>225.4</ele>
        <time>2022-02-23T09:37:14Z</time>
      </trkpt>
      <trkpt lat="47.70331" lon="3.66352">
        <ele>225.5</ele>
        <time>2022-02-23T09:37:15Z</time>
      </trkpt>
      <trkpt lat="47.70332" lon="3.66353">
        <ele>225.5</ele>
        <time>2022-02-23T09:37:16Z</time>
      </trkpt>
      <trkpt lat="47.70332" lon="3.66353">
        <ele>225.5</ele>
        <time>2022-02-23T09:37:17Z</time>
      </trkpt>
      <trkpt lat="47.70333" lon="3.66354">
        <ele>225.6</ele>
        <time>2022-02-23T09:37:19Z</time>
      </trkpt>
      <trkpt lat="47.70334" lon="3.66356">
        <ele>225.6</ele>
        <time>2022-02-23T09:37:20Z</time>
      </trkpt>
      <trkpt lat="47.70334" lon="3.66357">
        <ele>225.6</ele>
        <time>2022-02-23T09:37:21Z</time>
      </trkpt>
      <trkpt lat="47.70334" lon="3.66358">
        <ele>225.7</ele>
        <time>2022-02-23T09:37:22Z</time>
      </trkpt>
      <trkpt lat="47.70335" lon="3.6636">
        <ele>225.7</ele>
        <time>2022-02-23T09:37:24Z</time>
      </trkpt>
      <trkpt lat="47.70335" lon="3.66362">
        <ele>225.7</ele>
        <time>2022-02-23T09:37:25Z</time>
      </trkpt>
      <trkpt lat="47.70335" lon="3.66363">
        <ele>225.8</ele>
        <time>2022-02-23T09:37:26Z</time>
      </trkpt>
      <trkpt lat="47.70335" lon="3.66364">
        <ele>225.8</ele>
        <time>2022-02-23T09:37:27Z</time>
      </trkpt>
      <trkpt lat="47.70335" lon="3.66366">
        <ele>225.8</ele>
        <time>2022-02-23T09:37:28Z</time>
      </trkpt>
      <trkpt lat="47.70336" lon="3.66368">
        <ele>225.9</ele>
        <time>2022-02-23T09:37:30Z</time>
      </trkpt>
      <trkpt lat="47.70336" lon="3.66369">
        <ele>225.9</ele>
        <time>2022-02-23T09:37:31Z</time>
      </trkpt>
      <trkpt lat="47.70336" lon="3.66371">
        <ele>225.9</ele>
        <time>2022-02-23T09:37:32Z</time>
      </trkpt>
      <trkpt lat="47.70336" lon="3.66372">
        <ele>226</ele>
        <time>2022-02-23T09:37:33Z</time>
      </trkpt>
      <trkpt lat="47.70336" lon="3.66373">
        <ele>226</ele>
        <time>2022-02-23T09:37:34Z</time>
      </trkpt>
      <trkpt lat="47.70336" lon="3.66375">
        <ele>226</ele>
        <time>2022-02-23T09:37:35Z</time>
      </trkpt>
      <trkpt lat="47.70336" lon="3.66376">
        <ele>226.1</ele>
        <time>2022-02-23T09:37:36Z</time>
      </trkpt>
      <trkpt lat="47.70337" lon="3.66378">
        <ele>226.1</ele>
        <time>2022-02-23T09:37:37Z</time>
      </trkpt>
      <trkpt lat="47.70337" lon="3.66379">
        <ele>226.1</ele>
        <time>2022-02-23T09:37:38Z</time>
      </trkpt>
      <trkpt lat="47.70338" lon="3.6638">
        <ele>226.1</ele>
        <time>2022-02-23T09:37:39Z</time>
      </trkpt>
      <trkpt lat="47.70338" lon="3.66381">
        <ele>226.2</ele>
        <time>2022-02-23T09:37:40Z</time>
      </trkpt>
      <trkpt lat="47.70339" lon="3.66384">
        <ele>226.3</ele>
        <time>2022-02-23T09:37:41Z</time>
      </trkpt>
      <trkpt lat="47.7034" lon="3.66385">
        <ele>226.3</ele>
        <time>2022-02-23T09:37:43Z</time>
      </trkpt>
      <trkpt lat="47.7034" lon="3.66386">
        <ele>226.3</ele>
        <time>2022-02-23T09:37:44Z</time>
      </trkpt>
      <trkpt lat="47.70341" lon="3.66387">
        <ele>226.3</ele>
        <time>2022-02-23T09:37:45Z</time>
      </trkpt>
      <trkpt lat="47.70341" lon="3.66388">
        <ele>226.4</ele>
        <time>2022-02-23T09:37:46Z</time>
      </trkpt>
      <trkpt lat="47.70342" lon="3.6639">
        <ele>226.4</ele>
        <time>2022-02-23T09:37:47Z</time>
      </trkpt>
      <trkpt lat="47.70342" lon="3.66391">
        <ele>226.5</ele>
        <time>2022-02-23T09:37:48Z</time>
      </trkpt>
      <trkpt lat="47.70343" lon="3.66393">
        <ele>226.5</ele>
        <time>2022-02-23T09:37:49Z</time>
      </trkpt>
      <trkpt lat="47.70343" lon="3.66395">
        <ele>226.5</ele>
        <time>2022-02-23T09:37:51Z</time>
      </trkpt>
      <trkpt lat="47.70343" lon="3.66396">
        <ele>226.6</ele>
        <time>2022-02-23T09:37:52Z</time>
      </trkpt>
      <trkpt lat="47.70344" lon="3.66398">
        <ele>226.6</ele>
        <time>2022-02-23T09:37:53Z</time>
      </trkpt>
      <trkpt lat="47.70344" lon="3.664">
        <ele>226.7</ele>
        <time>2022-02-23T09:37:54Z</time>
      </trkpt>
      <trkpt lat="47.70344" lon="3.66402">
        <ele>226.7</ele>
        <time>2022-02-23T09:37:55Z</time>
      </trkpt>
      <trkpt lat="47.70345" lon="3.66403">
        <ele>226.8</ele>
        <time>2022-02-23T09:37:56Z</time>
      </trkpt>
      <trkpt lat="47.70345" lon="3.66405">
        <ele>226.8</ele>
        <time>2022-02-23T09:37:57Z</time>
      </trkpt>
      <trkpt lat="47.70346" lon="3.66409">
        <ele>226.9</ele>
        <time>2022-02-23T09:37:59Z</time>
      </trkpt>
      <trkpt lat="47.70347" lon="3.6641">
        <ele>226.9</ele>
        <time>2022-02-23T09:38:00Z</time>
      </trkpt>
      <trkpt lat="47.70347" lon="3.66412">
        <ele>227</ele>
        <time>2022-02-23T09:38:01Z</time>
      </trkpt>
      <trkpt lat="47.70347" lon="3.66414">
        <ele>227</ele>
        <time>2022-02-23T09:38:02Z</time>
      </trkpt>
      <trkpt lat="47.70348" lon="3.66416">
        <ele>227.1</ele>
        <time>2022-02-23T09:38:04Z</time>
      </trkpt>
      <trkpt lat="47.70348" lon="3.66418">
        <ele>227.1</ele>
        <time>2022-02-23T09:38:05Z</time>
      </trkpt>
      <trkpt lat="47.70349" lon="3.66421">
        <ele>227.2</ele>
        <time>2022-02-23T09:38:06Z</time>
      </trkpt>
      <trkpt lat="47.70349" lon="3.66422">
        <ele>227.3</ele>
        <time>2022-02-23T09:38:07Z</time>
      </trkpt>
      <trkpt lat="47.70349" lon="3.66423">
        <ele>227.3</ele>
        <time>2022-02-23T09:38:08Z</time>
      </trkpt>
      <trkpt lat="47.70349" lon="3.66425">
        <ele>227.4</ele>
        <time>2022-02-23T09:38:09Z</time>
      </trkpt>
      <trkpt lat="47.7035" lon="3.66426">
        <ele>227.4</ele>
        <time>2022-02-23T09:38:10Z</time>
      </trkpt>
      <trkpt lat="47.7035" lon="3.66428">
        <ele>227.4</ele>
        <time>2022-02-23T09:38:11Z</time>
      </trkpt>
      <trkpt lat="47.7035" lon="3.66432">
        <ele>227.6</ele>
        <time>2022-02-23T09:38:12Z</time>
      </trkpt>
      <trkpt lat="47.7035" lon="3.66433">
        <ele>227.6</ele>
        <time>2022-02-23T09:38:14Z</time>
      </trkpt>
      <trkpt lat="47.70351" lon="3.66434">
        <ele>227.6</ele>
        <time>2022-02-23T09:38:15Z</time>
      </trkpt>
      <trkpt lat="47.70351" lon="3.66436">
        <ele>227.7</ele>
        <time>2022-02-23T09:38:16Z</time>
      </trkpt>
      <trkpt lat="47.70351" lon="3.66437">
        <ele>227.7</ele>
        <time>2022-02-23T09:38:17Z</time>
      </trkpt>
      <trkpt lat="47.70351" lon="3.6644">
        <ele>227.8</ele>
        <time>2022-02-23T09:38:19Z</time>
      </trkpt>
      <trkpt lat="47.70351" lon="3.66442">
        <ele>227.9</ele>
        <time>2022-02-23T09:38:20Z</time>
      </trkpt>
      <trkpt lat="47.70351" lon="3.66443">
        <ele>227.9</ele>
        <time>2022-02-23T09:38:21Z</time>
      </trkpt>
      <trkpt lat="47.70351" lon="3.66444">
        <ele>227.9</ele>
        <time>2022-02-23T09:38:22Z</time>
      </trkpt>
      <trkpt lat="47.70352" lon="3.66446">
        <ele>228</ele>
        <time>2022-02-23T09:38:23Z</time>
      </trkpt>
      <trkpt lat="47.70352" lon="3.66448">
        <ele>228.1</ele>
        <time>2022-02-23T09:38:24Z</time>
      </trkpt>
      <trkpt lat="47.70352" lon="3.66449">
        <ele>228.1</ele>
        <time>2022-02-23T09:38:25Z</time>
      </trkpt>
      <trkpt lat="47.70352" lon="3.66451">
        <ele>228.2</ele>
        <time>2022-02-23T09:38:26Z</time>
      </trkpt>
      <trkpt lat="47.70352" lon="3.66453">
        <ele>228.3</ele>
        <time>2022-02-23T09:38:28Z</time>
      </trkpt>
      <trkpt lat="47.70352" lon="3.66455">
        <ele>228.3</ele>
        <time>2022-02-23T09:38:29Z</time>
      </trkpt>
      <trkpt lat="47.70352" lon="3.66456">
        <ele>228.4</ele>
        <time>2022-02-23T09:38:30Z</time>
      </trkpt>
      <trkpt lat="47.70353" lon="3.66458">
        <ele>228.5</ele>
        <time>2022-02-23T09:38:32Z</time>
      </trkpt>
      <trkpt lat="47.70353" lon="3.6646">
        <ele>228.5</ele>
        <time>2022-02-23T09:38:33Z</time>
      </trkpt>
      <trkpt lat="47.70353" lon="3.66461">
        <ele>228.6</ele>
        <time>2022-02-23T09:38:34Z</time>
      </trkpt>
      <trkpt lat="47.70353" lon="3.66463">
        <ele>228.7</ele>
        <time>2022-02-23T09:38:35Z</time>
      </trkpt>
      <trkpt lat="47.70353" lon="3.66465">
        <ele>228.8</ele>
        <time>2022-02-23T09:38:37Z</time>
      </trkpt>
      <trkpt lat="47.70354" lon="3.66467">
        <ele>228.8</ele>
        <time>2022-02-23T09:38:38Z</time>
      </trkpt>
      <trkpt lat="47.70354" lon="3.66468">
        <ele>228.9</ele>
        <time>2022-02-23T09:38:39Z</time>
      </trkpt>
      <trkpt lat="47.70354" lon="3.6647">
        <ele>228.9</ele>
        <time>2022-02-23T09:38:40Z</time>
      </trkpt>
      <trkpt lat="47.70354" lon="3.66471">
        <ele>229</ele>
        <time>2022-02-23T09:38:41Z</time>
      </trkpt>
      <trkpt lat="47.70355" lon="3.66472">
        <ele>229.1</ele>
        <time>2022-02-23T09:38:42Z</time>
      </trkpt>
      <trkpt lat="47.70355" lon="3.66474">
        <ele>229.1</ele>
        <time>2022-02-23T09:38:43Z</time>
      </trkpt>
      <trkpt lat="47.70356" lon="3.66476">
        <ele>229.2</ele>
        <time>2022-02-23T09:38:44Z</time>
      </trkpt>
      <trkpt lat="47.70356" lon="3.66479">
        <ele>229.4</ele>
        <time>2022-02-23T09:38:46Z</time>
      </trkpt>
      <trkpt lat="47.70357" lon="3.6648">
        <ele>229.4</ele>
        <time>2022-02-23T09:38:47Z</time>
      </trkpt>
      <trkpt lat="47.70357" lon="3.66481">
        <ele>229.5</ele>
        <time>2022-02-23T09:38:48Z</time>
      </trkpt>
      <trkpt lat="47.70358" lon="3.66484">
        <ele>229.6</ele>
        <time>2022-02-23T09:38:50Z</time>
      </trkpt>
      <trkpt lat="47.70358" lon="3.66485">
        <ele>229.6</ele>
        <time>2022-02-23T09:38:51Z</time>
      </trkpt>
      <trkpt lat="47.70359" lon="3.66487">
        <ele>229.7</ele>
        <time>2022-02-23T09:38:52Z</time>
      </trkpt>
      <trkpt lat="47.70359" lon="3.66489">
        <ele>229.8</ele>
        <time>2022-02-23T09:38:53Z</time>
      </trkpt>
      <trkpt lat="47.70359" lon="3.6649">
        <ele>229.9</ele>
        <time>2022-02-23T09:38:54Z</time>
      </trkpt>
      <trkpt lat="47.7036" lon="3.66492">
        <ele>229.9</ele>
        <time>2022-02-23T09:38:56Z</time>
      </trkpt>
      <trkpt lat="47.70361" lon="3.66494">
        <ele>230</ele>
        <time>2022-02-23T09:38:57Z</time>
      </trkpt>
      <trkpt lat="47.70361" lon="3.66496">
        <ele>230.1</ele>
        <time>2022-02-23T09:38:58Z</time>
      </trkpt>
      <trkpt lat="47.70361" lon="3.66497">
        <ele>230.2</ele>
        <time>2022-02-23T09:39:00Z</time>
      </trkpt>
      <trkpt lat="47.70362" lon="3.66499">
        <ele>230.3</ele>
        <time>2022-02-23T09:39:01Z</time>
      </trkpt>
      <trkpt lat="47.70362" lon="3.66501">
        <ele>230.4</ele>
        <time>2022-02-23T09:39:02Z</time>
      </trkpt>
      <trkpt lat="47.70362" lon="3.66502">
        <ele>230.5</ele>
        <time>2022-02-23T09:39:03Z</time>
      </trkpt>
      <trkpt lat="47.70363" lon="3.66504">
        <ele>230.6</ele>
        <time>2022-02-23T09:39:05Z</time>
      </trkpt>
      <trkpt lat="47.70362" lon="3.66506">
        <ele>230.6</ele>
        <time>2022-02-23T09:39:06Z</time>
      </trkpt>
      <trkpt lat="47.70362" lon="3.66507">
        <ele>230.7</ele>
        <time>2022-02-23T09:39:07Z</time>
      </trkpt>
      <trkpt lat="47.70362" lon="3.66508">
        <ele>230.8</ele>
        <time>2022-02-23T09:39:08Z</time>
      </trkpt>
      <trkpt lat="47.70363" lon="3.6651">
        <ele>230.9</ele>
        <time>2022-02-23T09:39:10Z</time>
      </trkpt>
      <trkpt lat="47.70363" lon="3.66512">
        <ele>230.9</ele>
        <time>2022-02-23T09:39:11Z</time>
      </trkpt>
      <trkpt lat="47.70363" lon="3.66513">
        <ele>231</ele>
        <time>2022-02-23T09:39:12Z</time>
      </trkpt>
      <trkpt lat="47.70364" lon="3.66514">
        <ele>231.1</ele>
        <time>2022-02-23T09:39:13Z</time>
      </trkpt>
      <trkpt lat="47.70364" lon="3.66516">
        <ele>231.2</ele>
        <time>2022-02-23T09:39:15Z</time>
      </trkpt>
      <trkpt lat="47.70365" lon="3.66517">
        <ele>231.2</ele>
        <time>2022-02-23T09:39:16Z</time>
      </trkpt>
      <trkpt lat="47.70365" lon="3.66518">
        <ele>231.3</ele>
        <time>2022-02-23T09:39:17Z</time>
      </trkpt>
      <trkpt lat="47.70367" lon="3.6652">
        <ele>231.5</ele>
        <time>2022-02-23T09:39:18Z</time>
      </trkpt>
      <trkpt lat="47.70367" lon="3.66521">
        <ele>231.5</ele>
        <time>2022-02-23T09:39:20Z</time>
      </trkpt>
      <trkpt lat="47.70368" lon="3.66522">
        <ele>231.6</ele>
        <time>2022-02-23T09:39:21Z</time>
      </trkpt>
      <trkpt lat="47.70368" lon="3.66523">
        <ele>231.7</ele>
        <time>2022-02-23T09:39:22Z</time>
      </trkpt>
      <trkpt lat="47.70369" lon="3.66524">
        <ele>231.7</ele>
        <time>2022-02-23T09:39:23Z</time>
      </trkpt>
      <trkpt lat="47.70369" lon="3.66526">
        <ele>231.8</ele>
        <time>2022-02-23T09:39:25Z</time>
      </trkpt>
      <trkpt lat="47.7037" lon="3.66528">
        <ele>231.9</ele>
        <time>2022-02-23T09:39:26Z</time>
      </trkpt>
      <trkpt lat="47.7037" lon="3.6653">
        <ele>232</ele>
        <time>2022-02-23T09:39:27Z</time>
      </trkpt>
      <trkpt lat="47.7037" lon="3.66531">
        <ele>232.1</ele>
        <time>2022-02-23T09:39:28Z</time>
      </trkpt>
      <trkpt lat="47.70371" lon="3.66533">
        <ele>232.2</ele>
        <time>2022-02-23T09:39:30Z</time>
      </trkpt>
      <trkpt lat="47.70371" lon="3.66535">
        <ele>232.3</ele>
        <time>2022-02-23T09:39:31Z</time>
      </trkpt>
      <trkpt lat="47.70372" lon="3.66538">
        <ele>232.5</ele>
        <time>2022-02-23T09:39:32Z</time>
      </trkpt>
      <trkpt lat="47.70372" lon="3.66539">
        <ele>232.5</ele>
        <time>2022-02-23T09:39:33Z</time>
      </trkpt>
      <trkpt lat="47.70372" lon="3.66541">
        <ele>232.6</ele>
        <time>2022-02-23T09:39:34Z</time>
      </trkpt>
      <trkpt lat="47.70373" lon="3.66544">
        <ele>232.8</ele>
        <time>2022-02-23T09:39:36Z</time>
      </trkpt>
      <trkpt lat="47.70373" lon="3.66545">
        <ele>232.8</ele>
        <time>2022-02-23T09:39:37Z</time>
      </trkpt>
      <trkpt lat="47.70373" lon="3.66546">
        <ele>232.9</ele>
        <time>2022-02-23T09:39:38Z</time>
      </trkpt>
      <trkpt lat="47.70373" lon="3.66547">
        <ele>232.9</ele>
        <time>2022-02-23T09:39:39Z</time>
      </trkpt>
      <trkpt lat="47.70374" lon="3.66549">
        <ele>233</ele>
        <time>2022-02-23T09:39:40Z</time>
      </trkpt>
      <trkpt lat="47.70374" lon="3.66551">
        <ele>233.1</ele>
        <time>2022-02-23T09:39:42Z</time>
      </trkpt>
      <trkpt lat="47.70374" lon="3.66553">
        <ele>233.2</ele>
        <time>2022-02-23T09:39:43Z</time>
      </trkpt>
      <trkpt lat="47.70375" lon="3.66554">
        <ele>233.3</ele>
        <time>2022-02-23T09:39:44Z</time>
      </trkpt>
      <trkpt lat="47.70375" lon="3.66555">
        <ele>233.4</ele>
        <time>2022-02-23T09:39:45Z</time>
      </trkpt>
      <trkpt lat="47.70375" lon="3.66557">
        <ele>233.4</ele>
        <time>2022-02-23T09:39:46Z</time>
      </trkpt>
      <trkpt lat="47.70375" lon="3.66558">
        <ele>233.5</ele>
        <time>2022-02-23T09:39:47Z</time>
      </trkpt>
      <trkpt lat="47.70375" lon="3.6656">
        <ele>233.6</ele>
        <time>2022-02-23T09:39:48Z</time>
      </trkpt>
      <trkpt lat="47.70375" lon="3.66563">
        <ele>233.8</ele>
        <time>2022-02-23T09:39:50Z</time>
      </trkpt>
      <trkpt lat="47.70375" lon="3.66565">
        <ele>233.8</ele>
        <time>2022-02-23T09:39:51Z</time>
      </trkpt>
      <trkpt lat="47.70375" lon="3.66566">
        <ele>233.9</ele>
        <time>2022-02-23T09:39:52Z</time>
      </trkpt>
      <trkpt lat="47.70375" lon="3.66568">
        <ele>234</ele>
        <time>2022-02-23T09:39:53Z</time>
      </trkpt>
      <trkpt lat="47.70375" lon="3.6657">
        <ele>234.1</ele>
        <time>2022-02-23T09:39:55Z</time>
      </trkpt>
      <trkpt lat="47.70376" lon="3.66572">
        <ele>234.1</ele>
        <time>2022-02-23T09:39:56Z</time>
      </trkpt>
      <trkpt lat="47.70376" lon="3.66573">
        <ele>234.2</ele>
        <time>2022-02-23T09:39:57Z</time>
      </trkpt>
      <trkpt lat="47.70375" lon="3.66575">
        <ele>234.3</ele>
        <time>2022-02-23T09:39:58Z</time>
      </trkpt>
      <trkpt lat="47.70375" lon="3.66576">
        <ele>234.4</ele>
        <time>2022-02-23T09:39:59Z</time>
      </trkpt>
      <trkpt lat="47.70375" lon="3.66578">
        <ele>234.4</ele>
        <time>2022-02-23T09:40:00Z</time>
      </trkpt>
      <trkpt lat="47.70375" lon="3.66579">
        <ele>234.5</ele>
        <time>2022-02-23T09:40:01Z</time>
      </trkpt>
      <trkpt lat="47.70374" lon="3.66581">
        <ele>234.5</ele>
        <time>2022-02-23T09:40:02Z</time>
      </trkpt>
      <trkpt lat="47.70375" lon="3.66582">
        <ele>234.6</ele>
        <time>2022-02-23T09:40:03Z</time>
      </trkpt>
      <trkpt lat="47.70375" lon="3.66584">
        <ele>234.7</ele>
        <time>2022-02-23T09:40:04Z</time>
      </trkpt>
      <trkpt lat="47.70375" lon="3.66586">
        <ele>234.8</ele>
        <time>2022-02-23T09:40:06Z</time>
      </trkpt>
      <trkpt lat="47.70375" lon="3.66588">
        <ele>234.9</ele>
        <time>2022-02-23T09:40:07Z</time>
      </trkpt>
      <trkpt lat="47.70375" lon="3.6659">
        <ele>235</ele>
        <time>2022-02-23T09:40:09Z</time>
      </trkpt>
      <trkpt lat="47.70375" lon="3.66593">
        <ele>235.1</ele>
        <time>2022-02-23T09:40:10Z</time>
      </trkpt>
      <trkpt lat="47.70374" lon="3.66594">
        <ele>235.2</ele>
        <time>2022-02-23T09:40:11Z</time>
      </trkpt>
      <trkpt lat="47.70374" lon="3.66595">
        <ele>235.2</ele>
        <time>2022-02-23T09:40:12Z</time>
      </trkpt>
      <trkpt lat="47.70375" lon="3.66597">
        <ele>235.3</ele>
        <time>2022-02-23T09:40:14Z</time>
      </trkpt>
      <trkpt lat="47.70375" lon="3.66599">
        <ele>235.4</ele>
        <time>2022-02-23T09:40:15Z</time>
      </trkpt>
      <trkpt lat="47.70375" lon="3.666">
        <ele>235.5</ele>
        <time>2022-02-23T09:40:16Z</time>
      </trkpt>
      <trkpt lat="47.70375" lon="3.66603">
        <ele>235.6</ele>
        <time>2022-02-23T09:40:18Z</time>
      </trkpt>
      <trkpt lat="47.70375" lon="3.66604">
        <ele>235.7</ele>
        <time>2022-02-23T09:40:19Z</time>
      </trkpt>
      <trkpt lat="47.70375" lon="3.66606">
        <ele>235.7</ele>
        <time>2022-02-23T09:40:20Z</time>
      </trkpt>
      <trkpt lat="47.70375" lon="3.66608">
        <ele>235.9</ele>
        <time>2022-02-23T09:40:22Z</time>
      </trkpt>
      <trkpt lat="47.70375" lon="3.6661">
        <ele>236</ele>
        <time>2022-02-23T09:40:23Z</time>
      </trkpt>
      <trkpt lat="47.70375" lon="3.66612">
        <ele>236</ele>
        <time>2022-02-23T09:40:24Z</time>
      </trkpt>
      <trkpt lat="47.70375" lon="3.66613">
        <ele>236.1</ele>
        <time>2022-02-23T09:40:25Z</time>
      </trkpt>
      <trkpt lat="47.70375" lon="3.66614">
        <ele>236.2</ele>
        <time>2022-02-23T09:40:26Z</time>
      </trkpt>
      <trkpt lat="47.70374" lon="3.66615">
        <ele>236.2</ele>
        <time>2022-02-23T09:40:27Z</time>
      </trkpt>
      <trkpt lat="47.70375" lon="3.66617">
        <ele>236.3</ele>
        <time>2022-02-23T09:40:28Z</time>
      </trkpt>
      <trkpt lat="47.70375" lon="3.66618">
        <ele>236.4</ele>
        <time>2022-02-23T09:40:29Z</time>
      </trkpt>
      <trkpt lat="47.70376" lon="3.66617">
        <ele>236.4</ele>
        <time>2022-02-23T09:40:30Z</time>
      </trkpt>
      <trkpt lat="47.70376" lon="3.66617">
        <ele>236.5</ele>
        <time>2022-02-23T09:40:31Z</time>
      </trkpt>
      <trkpt lat="47.70377" lon="3.66617">
        <ele>236.6</ele>
        <time>2022-02-23T09:40:33Z</time>
      </trkpt>
      <trkpt lat="47.70378" lon="3.66618">
        <ele>236.6</ele>
        <time>2022-02-23T09:40:34Z</time>
      </trkpt>
      <trkpt lat="47.70378" lon="3.66619">
        <ele>236.7</ele>
        <time>2022-02-23T09:40:35Z</time>
      </trkpt>
      <trkpt lat="47.70378" lon="3.66619">
        <ele>236.7</ele>
        <time>2022-02-23T09:40:36Z</time>
      </trkpt>
      <trkpt lat="47.70378" lon="3.66619">
        <ele>236.7</ele>
        <time>2022-02-23T09:40:37Z</time>
      </trkpt>
      <trkpt lat="47.70378" lon="3.66619">
        <ele>236.7</ele>
        <time>2022-02-23T09:40:38Z</time>
      </trkpt>
      <trkpt lat="47.70379" lon="3.66619">
        <ele>236.8</ele>
        <time>2022-02-23T09:40:40Z</time>
      </trkpt>
      <trkpt lat="47.7038" lon="3.66619">
        <ele>236.9</ele>
        <time>2022-02-23T09:40:41Z</time>
      </trkpt>
      <trkpt lat="47.70382" lon="3.66618">
        <ele>237.1</ele>
        <time>2022-02-23T09:40:43Z</time>
      </trkpt>
      <trkpt lat="47.70385" lon="3.66619">
        <ele>237.2</ele>
        <time>2022-02-23T09:40:45Z</time>
      </trkpt>
      <trkpt lat="47.70386" lon="3.66619">
        <ele>237.2</ele>
        <time>2022-02-23T09:40:46Z</time>
      </trkpt>
      <trkpt lat="47.70388" lon="3.66619">
        <ele>237.3</ele>
        <time>2022-02-23T09:40:47Z</time>
      </trkpt>
      <trkpt lat="47.70389" lon="3.6662">
        <ele>237.3</ele>
        <time>2022-02-23T09:40:48Z</time>
      </trkpt>
      <trkpt lat="47.7039" lon="3.6662">
        <ele>237.3</ele>
        <time>2022-02-23T09:40:49Z</time>
      </trkpt>
      <trkpt lat="47.70392" lon="3.6662">
        <ele>237.3</ele>
        <time>2022-02-23T09:40:51Z</time>
      </trkpt>
      <trkpt lat="47.70393" lon="3.66621">
        <ele>237.3</ele>
        <time>2022-02-23T09:40:52Z</time>
      </trkpt>
      <trkpt lat="47.70394" lon="3.66621">
        <ele>237.3</ele>
        <time>2022-02-23T09:40:53Z</time>
      </trkpt>
      <trkpt lat="47.70395" lon="3.66621">
        <ele>237.3</ele>
        <time>2022-02-23T09:40:54Z</time>
      </trkpt>
      <trkpt lat="47.70395" lon="3.66621">
        <ele>237.3</ele>
        <time>2022-02-23T09:40:55Z</time>
      </trkpt>
      <trkpt lat="47.70397" lon="3.66621">
        <ele>237.3</ele>
        <time>2022-02-23T09:40:56Z</time>
      </trkpt>
      <trkpt lat="47.70399" lon="3.66621">
        <ele>237.3</ele>
        <time>2022-02-23T09:40:58Z</time>
      </trkpt>
      <trkpt lat="47.704" lon="3.66621">
        <ele>237.4</ele>
        <time>2022-02-23T09:40:59Z</time>
      </trkpt>
      <trkpt lat="47.704" lon="3.66621">
        <ele>237.4</ele>
        <time>2022-02-23T09:41:00Z</time>
      </trkpt>
      <trkpt lat="47.70401" lon="3.66621">
        <ele>237.4</ele>
        <time>2022-02-23T09:41:01Z</time>
      </trkpt>
      <trkpt lat="47.70402" lon="3.66621">
        <ele>237.4</ele>
        <time>2022-02-23T09:41:03Z</time>
      </trkpt>
      <trkpt lat="47.70403" lon="3.66622">
        <ele>237.4</ele>
        <time>2022-02-23T09:41:04Z</time>
      </trkpt>
      <trkpt lat="47.70404" lon="3.66623">
        <ele>237.4</ele>
        <time>2022-02-23T09:41:05Z</time>
      </trkpt>
      <trkpt lat="47.70405" lon="3.66623">
        <ele>237.4</ele>
        <time>2022-02-23T09:41:07Z</time>
      </trkpt>
      <trkpt lat="47.70406" lon="3.66623">
        <ele>237.4</ele>
        <time>2022-02-23T09:41:08Z</time>
      </trkpt>
      <trkpt lat="47.70408" lon="3.66623">
        <ele>237.4</ele>
        <time>2022-02-23T09:41:10Z</time>
      </trkpt>
      <trkpt lat="47.70409" lon="3.66624">
        <ele>237.4</ele>
        <time>2022-02-23T09:41:11Z</time>
      </trkpt>
      <trkpt lat="47.7041" lon="3.66624">
        <ele>237.4</ele>
        <time>2022-02-23T09:41:12Z</time>
      </trkpt>
      <trkpt lat="47.70411" lon="3.66625">
        <ele>237.4</ele>
        <time>2022-02-23T09:41:13Z</time>
      </trkpt>
      <trkpt lat="47.70412" lon="3.66625">
        <ele>237.4</ele>
        <time>2022-02-23T09:41:15Z</time>
      </trkpt>
      <trkpt lat="47.70413" lon="3.66626">
        <ele>237.4</ele>
        <time>2022-02-23T09:41:16Z</time>
      </trkpt>
      <trkpt lat="47.70414" lon="3.66626">
        <ele>237.4</ele>
        <time>2022-02-23T09:41:17Z</time>
      </trkpt>
      <trkpt lat="47.70415" lon="3.66627">
        <ele>237.4</ele>
        <time>2022-02-23T09:41:18Z</time>
      </trkpt>
      <trkpt lat="47.70416" lon="3.66627">
        <ele>237.4</ele>
        <time>2022-02-23T09:41:19Z</time>
      </trkpt>
      <trkpt lat="47.70417" lon="3.66627">
        <ele>237.5</ele>
        <time>2022-02-23T09:41:20Z</time>
      </trkpt>
      <trkpt lat="47.70418" lon="3.66628">
        <ele>237.5</ele>
        <time>2022-02-23T09:41:22Z</time>
      </trkpt>
      <trkpt lat="47.70419" lon="3.66628">
        <ele>237.5</ele>
        <time>2022-02-23T09:41:23Z</time>
      </trkpt>
      <trkpt lat="47.70422" lon="3.66628">
        <ele>237.5</ele>
        <time>2022-02-23T09:41:24Z</time>
      </trkpt>
      <trkpt lat="47.70423" lon="3.66628">
        <ele>237.5</ele>
        <time>2022-02-23T09:41:25Z</time>
      </trkpt>
      <trkpt lat="47.70424" lon="3.66629">
        <ele>237.5</ele>
        <time>2022-02-23T09:41:26Z</time>
      </trkpt>
      <trkpt lat="47.70424" lon="3.66629">
        <ele>237.5</ele>
        <time>2022-02-23T09:41:27Z</time>
      </trkpt>
      <trkpt lat="47.70425" lon="3.6663">
        <ele>237.5</ele>
        <time>2022-02-23T09:41:28Z</time>
      </trkpt>
      <trkpt lat="47.70426" lon="3.6663">
        <ele>237.5</ele>
        <time>2022-02-23T09:41:29Z</time>
      </trkpt>
      <trkpt lat="47.70428" lon="3.66631">
        <ele>237.6</ele>
        <time>2022-02-23T09:41:30Z</time>
      </trkpt>
      <trkpt lat="47.70429" lon="3.66632">
        <ele>237.6</ele>
        <time>2022-02-23T09:41:31Z</time>
      </trkpt>
      <trkpt lat="47.70431" lon="3.66632">
        <ele>237.6</ele>
        <time>2022-02-23T09:41:33Z</time>
      </trkpt>
      <trkpt lat="47.70432" lon="3.66633">
        <ele>237.6</ele>
        <time>2022-02-23T09:41:34Z</time>
      </trkpt>
      <trkpt lat="47.70433" lon="3.66634">
        <ele>237.6</ele>
        <time>2022-02-23T09:41:35Z</time>
      </trkpt>
      <trkpt lat="47.70435" lon="3.66635">
        <ele>237.6</ele>
        <time>2022-02-23T09:41:36Z</time>
      </trkpt>
      <trkpt lat="47.70436" lon="3.66636">
        <ele>237.7</ele>
        <time>2022-02-23T09:41:38Z</time>
      </trkpt>
      <trkpt lat="47.70438" lon="3.66637">
        <ele>237.7</ele>
        <time>2022-02-23T09:41:39Z</time>
      </trkpt>
      <trkpt lat="47.70438" lon="3.66637">
        <ele>237.7</ele>
        <time>2022-02-23T09:41:40Z</time>
      </trkpt>
      <trkpt lat="47.70439" lon="3.66638">
        <ele>237.7</ele>
        <time>2022-02-23T09:41:41Z</time>
      </trkpt>
      <trkpt lat="47.70441" lon="3.66639">
        <ele>237.7</ele>
        <time>2022-02-23T09:41:42Z</time>
      </trkpt>
      <trkpt lat="47.70442" lon="3.66639">
        <ele>237.7</ele>
        <time>2022-02-23T09:41:44Z</time>
      </trkpt>
      <trkpt lat="47.70443" lon="3.6664">
        <ele>237.7</ele>
        <time>2022-02-23T09:41:45Z</time>
      </trkpt>
      <trkpt lat="47.70444" lon="3.66641">
        <ele>237.7</ele>
        <time>2022-02-23T09:41:46Z</time>
      </trkpt>
      <trkpt lat="47.70445" lon="3.66641">
        <ele>237.8</ele>
        <time>2022-02-23T09:41:47Z</time>
      </trkpt>
      <trkpt lat="47.70448" lon="3.66644">
        <ele>237.8</ele>
        <time>2022-02-23T09:41:49Z</time>
      </trkpt>
      <trkpt lat="47.70448" lon="3.66644">
        <ele>237.8</ele>
        <time>2022-02-23T09:41:50Z</time>
      </trkpt>
      <trkpt lat="47.70449" lon="3.66645">
        <ele>237.8</ele>
        <time>2022-02-23T09:41:51Z</time>
      </trkpt>
      <trkpt lat="47.7045" lon="3.66646">
        <ele>237.8</ele>
        <time>2022-02-23T09:41:53Z</time>
      </trkpt>
      <trkpt lat="47.70451" lon="3.66647">
        <ele>237.8</ele>
        <time>2022-02-23T09:41:54Z</time>
      </trkpt>
      <trkpt lat="47.70452" lon="3.66648">
        <ele>237.8</ele>
        <time>2022-02-23T09:41:55Z</time>
      </trkpt>
      <trkpt lat="47.70453" lon="3.66649">
        <ele>237.8</ele>
        <time>2022-02-23T09:41:56Z</time>
      </trkpt>
      <trkpt lat="47.70454" lon="3.6665">
        <ele>237.9</ele>
        <time>2022-02-23T09:41:57Z</time>
      </trkpt>
      <trkpt lat="47.70454" lon="3.66651">
        <ele>237.9</ele>
        <time>2022-02-23T09:41:58Z</time>
      </trkpt>
      <trkpt lat="47.70455" lon="3.66652">
        <ele>237.9</ele>
        <time>2022-02-23T09:41:59Z</time>
      </trkpt>
      <trkpt lat="47.70456" lon="3.66653">
        <ele>237.9</ele>
        <time>2022-02-23T09:42:00Z</time>
      </trkpt>
      <trkpt lat="47.70457" lon="3.66655">
        <ele>237.9</ele>
        <time>2022-02-23T09:42:02Z</time>
      </trkpt>
      <trkpt lat="47.70458" lon="3.66656">
        <ele>237.9</ele>
        <time>2022-02-23T09:42:03Z</time>
      </trkpt>
      <trkpt lat="47.70459" lon="3.66655">
        <ele>237.9</ele>
        <time>2022-02-23T09:42:04Z</time>
      </trkpt>
      <trkpt lat="47.70461" lon="3.66654">
        <ele>237.9</ele>
        <time>2022-02-23T09:42:06Z</time>
      </trkpt>
      <trkpt lat="47.70462" lon="3.66653">
        <ele>237.9</ele>
        <time>2022-02-23T09:42:07Z</time>
      </trkpt>
      <trkpt lat="47.70463" lon="3.66653">
        <ele>237.9</ele>
        <time>2022-02-23T09:42:08Z</time>
      </trkpt>
      <trkpt lat="47.70464" lon="3.66653">
        <ele>237.9</ele>
        <time>2022-02-23T09:42:09Z</time>
      </trkpt>
      <trkpt lat="47.70466" lon="3.66654">
        <ele>237.9</ele>
        <time>2022-02-23T09:42:10Z</time>
      </trkpt>
      <trkpt lat="47.70467" lon="3.66654">
        <ele>237.9</ele>
        <time>2022-02-23T09:42:11Z</time>
      </trkpt>
      <trkpt lat="47.70468" lon="3.66654">
        <ele>237.9</ele>
        <time>2022-02-23T09:42:12Z</time>
      </trkpt>
      <trkpt lat="47.7047" lon="3.66655">
        <ele>237.9</ele>
        <time>2022-02-23T09:42:14Z</time>
      </trkpt>
      <trkpt lat="47.7047" lon="3.66656">
        <ele>237.9</ele>
        <time>2022-02-23T09:42:15Z</time>
      </trkpt>
      <trkpt lat="47.70471" lon="3.66656">
        <ele>238</ele>
        <time>2022-02-23T09:42:16Z</time>
      </trkpt>
      <trkpt lat="47.70472" lon="3.66657">
        <ele>238</ele>
        <time>2022-02-23T09:42:17Z</time>
      </trkpt>
      <trkpt lat="47.70473" lon="3.66658">
        <ele>238</ele>
        <time>2022-02-23T09:42:18Z</time>
      </trkpt>
      <trkpt lat="47.70475" lon="3.66659">
        <ele>238</ele>
        <time>2022-02-23T09:42:20Z</time>
      </trkpt>
      <trkpt lat="47.70476" lon="3.6666">
        <ele>238</ele>
        <time>2022-02-23T09:42:21Z</time>
      </trkpt>
      <trkpt lat="47.70478" lon="3.66661">
        <ele>238</ele>
        <time>2022-02-23T09:42:22Z</time>
      </trkpt>
      <trkpt lat="47.70478" lon="3.66662">
        <ele>238</ele>
        <time>2022-02-23T09:42:23Z</time>
      </trkpt>
      <trkpt lat="47.70479" lon="3.66662">
        <ele>238</ele>
        <time>2022-02-23T09:42:24Z</time>
      </trkpt>
      <trkpt lat="47.7048" lon="3.66663">
        <ele>238</ele>
        <time>2022-02-23T09:42:25Z</time>
      </trkpt>
      <trkpt lat="47.70481" lon="3.66664">
        <ele>238</ele>
        <time>2022-02-23T09:42:26Z</time>
      </trkpt>
      <trkpt lat="47.70482" lon="3.66664">
        <ele>238</ele>
        <time>2022-02-23T09:42:27Z</time>
      </trkpt>
      <trkpt lat="47.70483" lon="3.66665">
        <ele>238</ele>
        <time>2022-02-23T09:42:28Z</time>
      </trkpt>
      <trkpt lat="47.70484" lon="3.66666">
        <ele>238</ele>
        <time>2022-02-23T09:42:29Z</time>
      </trkpt>
      <trkpt lat="47.70485" lon="3.66667">
        <ele>238</ele>
        <time>2022-02-23T09:42:30Z</time>
      </trkpt>
      <trkpt lat="47.70486" lon="3.66667">
        <ele>238</ele>
        <time>2022-02-23T09:42:31Z</time>
      </trkpt>
      <trkpt lat="47.70487" lon="3.66668">
        <ele>238</ele>
        <time>2022-02-23T09:42:33Z</time>
      </trkpt>
      <trkpt lat="47.70489" lon="3.6667">
        <ele>238</ele>
        <time>2022-02-23T09:42:34Z</time>
      </trkpt>
      <trkpt lat="47.7049" lon="3.66671">
        <ele>238</ele>
        <time>2022-02-23T09:42:35Z</time>
      </trkpt>
      <trkpt lat="47.70492" lon="3.66672">
        <ele>238</ele>
        <time>2022-02-23T09:42:36Z</time>
      </trkpt>
      <trkpt lat="47.70493" lon="3.66673">
        <ele>238</ele>
        <time>2022-02-23T09:42:38Z</time>
      </trkpt>
      <trkpt lat="47.70494" lon="3.66674">
        <ele>238.1</ele>
        <time>2022-02-23T09:42:39Z</time>
      </trkpt>
      <trkpt lat="47.70495" lon="3.66675">
        <ele>238.1</ele>
        <time>2022-02-23T09:42:40Z</time>
      </trkpt>
      <trkpt lat="47.70496" lon="3.66676">
        <ele>238.1</ele>
        <time>2022-02-23T09:42:41Z</time>
      </trkpt>
      <trkpt lat="47.70497" lon="3.66677">
        <ele>238.1</ele>
        <time>2022-02-23T09:42:42Z</time>
      </trkpt>
      <trkpt lat="47.70498" lon="3.66678">
        <ele>238.1</ele>
        <time>2022-02-23T09:42:43Z</time>
      </trkpt>
      <trkpt lat="47.70499" lon="3.66679">
        <ele>238.1</ele>
        <time>2022-02-23T09:42:44Z</time>
      </trkpt>
      <trkpt lat="47.705" lon="3.66679">
        <ele>238.1</ele>
        <time>2022-02-23T09:42:45Z</time>
      </trkpt>
      <trkpt lat="47.70501" lon="3.6668">
        <ele>238.1</ele>
        <time>2022-02-23T09:42:46Z</time>
      </trkpt>
      <trkpt lat="47.70502" lon="3.6668">
        <ele>238.1</ele>
        <time>2022-02-23T09:42:47Z</time>
      </trkpt>
      <trkpt lat="47.70503" lon="3.66681">
        <ele>238.1</ele>
        <time>2022-02-23T09:42:48Z</time>
      </trkpt>
      <trkpt lat="47.70504" lon="3.66683">
        <ele>238.1</ele>
        <time>2022-02-23T09:42:50Z</time>
      </trkpt>
      <trkpt lat="47.70505" lon="3.66683">
        <ele>238.1</ele>
        <time>2022-02-23T09:42:51Z</time>
      </trkpt>
      <trkpt lat="47.70506" lon="3.66685">
        <ele>238.1</ele>
        <time>2022-02-23T09:42:53Z</time>
      </trkpt>
      <trkpt lat="47.70507" lon="3.66686">
        <ele>238.1</ele>
        <time>2022-02-23T09:42:54Z</time>
      </trkpt>
      <trkpt lat="47.70508" lon="3.66686">
        <ele>238.1</ele>
        <time>2022-02-23T09:42:55Z</time>
      </trkpt>
      <trkpt lat="47.70509" lon="3.66687">
        <ele>238.1</ele>
        <time>2022-02-23T09:42:56Z</time>
      </trkpt>
      <trkpt lat="47.7051" lon="3.66688">
        <ele>238.1</ele>
        <time>2022-02-23T09:42:58Z</time>
      </trkpt>
      <trkpt lat="47.70511" lon="3.66689">
        <ele>238.1</ele>
        <time>2022-02-23T09:43:00Z</time>
      </trkpt>
      <trkpt lat="47.70512" lon="3.66689">
        <ele>238.1</ele>
        <time>2022-02-23T09:43:01Z</time>
      </trkpt>
      <trkpt lat="47.70514" lon="3.66689">
        <ele>238.1</ele>
        <time>2022-02-23T09:43:02Z</time>
      </trkpt>
      <trkpt lat="47.70515" lon="3.66689">
        <ele>238.1</ele>
        <time>2022-02-23T09:43:03Z</time>
      </trkpt>
      <trkpt lat="47.70515" lon="3.6669">
        <ele>238.1</ele>
        <time>2022-02-23T09:43:04Z</time>
      </trkpt>
      <trkpt lat="47.70516" lon="3.66691">
        <ele>238</ele>
        <time>2022-02-23T09:43:06Z</time>
      </trkpt>
      <trkpt lat="47.70516" lon="3.66691">
        <ele>238</ele>
        <time>2022-02-23T09:43:07Z</time>
      </trkpt>
      <trkpt lat="47.70517" lon="3.66692">
        <ele>238</ele>
        <time>2022-02-23T09:43:08Z</time>
      </trkpt>
      <trkpt lat="47.70518" lon="3.66692">
        <ele>238</ele>
        <time>2022-02-23T09:43:09Z</time>
      </trkpt>
      <trkpt lat="47.70519" lon="3.66693">
        <ele>238</ele>
        <time>2022-02-23T09:43:11Z</time>
      </trkpt>
      <trkpt lat="47.70521" lon="3.66694">
        <ele>238</ele>
        <time>2022-02-23T09:43:12Z</time>
      </trkpt>
      <trkpt lat="47.70522" lon="3.66694">
        <ele>237.9</ele>
        <time>2022-02-23T09:43:13Z</time>
      </trkpt>
      <trkpt lat="47.70522" lon="3.66695">
        <ele>237.9</ele>
        <time>2022-02-23T09:43:14Z</time>
      </trkpt>
      <trkpt lat="47.70523" lon="3.66695">
        <ele>237.9</ele>
        <time>2022-02-23T09:43:15Z</time>
      </trkpt>
      <trkpt lat="47.70524" lon="3.66695">
        <ele>237.9</ele>
        <time>2022-02-23T09:43:16Z</time>
      </trkpt>
      <trkpt lat="47.70525" lon="3.66696">
        <ele>237.8</ele>
        <time>2022-02-23T09:43:18Z</time>
      </trkpt>
      <trkpt lat="47.70526" lon="3.66696">
        <ele>237.8</ele>
        <time>2022-02-23T09:43:19Z</time>
      </trkpt>
      <trkpt lat="47.70529" lon="3.66697">
        <ele>237.8</ele>
        <time>2022-02-23T09:43:20Z</time>
      </trkpt>
      <trkpt lat="47.70529" lon="3.66697">
        <ele>237.8</ele>
        <time>2022-02-23T09:43:21Z</time>
      </trkpt>
      <trkpt lat="47.7053" lon="3.66698">
        <ele>237.7</ele>
        <time>2022-02-23T09:43:22Z</time>
      </trkpt>
      <trkpt lat="47.70531" lon="3.66699">
        <ele>237.7</ele>
        <time>2022-02-23T09:43:24Z</time>
      </trkpt>
      <trkpt lat="47.70533" lon="3.66701">
        <ele>237.7</ele>
        <time>2022-02-23T09:43:25Z</time>
      </trkpt>
      <trkpt lat="47.70533" lon="3.66701">
        <ele>237.6</ele>
        <time>2022-02-23T09:43:26Z</time>
      </trkpt>
      <trkpt lat="47.70534" lon="3.66703">
        <ele>237.6</ele>
        <time>2022-02-23T09:43:27Z</time>
      </trkpt>
      <trkpt lat="47.70534" lon="3.66704">
        <ele>237.6</ele>
        <time>2022-02-23T09:43:28Z</time>
      </trkpt>
      <trkpt lat="47.70536" lon="3.66705">
        <ele>237.5</ele>
        <time>2022-02-23T09:43:30Z</time>
      </trkpt>
      <trkpt lat="47.70537" lon="3.66705">
        <ele>237.5</ele>
        <time>2022-02-23T09:43:31Z</time>
      </trkpt>
      <trkpt lat="47.70538" lon="3.66706">
        <ele>237.5</ele>
        <time>2022-02-23T09:43:32Z</time>
      </trkpt>
      <trkpt lat="47.70539" lon="3.66706">
        <ele>237.4</ele>
        <time>2022-02-23T09:43:33Z</time>
      </trkpt>
      <trkpt lat="47.7054" lon="3.66707">
        <ele>237.4</ele>
        <time>2022-02-23T09:43:34Z</time>
      </trkpt>
      <trkpt lat="47.70542" lon="3.66708">
        <ele>237.3</ele>
        <time>2022-02-23T09:43:36Z</time>
      </trkpt>
      <trkpt lat="47.70542" lon="3.66709">
        <ele>237.3</ele>
        <time>2022-02-23T09:43:37Z</time>
      </trkpt>
      <trkpt lat="47.70543" lon="3.6671">
        <ele>237.3</ele>
        <time>2022-02-23T09:43:38Z</time>
      </trkpt>
      <trkpt lat="47.70544" lon="3.66711">
        <ele>237.3</ele>
        <time>2022-02-23T09:43:39Z</time>
      </trkpt>
      <trkpt lat="47.70545" lon="3.66713">
        <ele>237.2</ele>
        <time>2022-02-23T09:43:40Z</time>
      </trkpt>
      <trkpt lat="47.70546" lon="3.66713">
        <ele>237.2</ele>
        <time>2022-02-23T09:43:41Z</time>
      </trkpt>
      <trkpt lat="47.70546" lon="3.66713">
        <ele>237.2</ele>
        <time>2022-02-23T09:43:42Z</time>
      </trkpt>
      <trkpt lat="47.70548" lon="3.66715">
        <ele>237.1</ele>
        <time>2022-02-23T09:43:44Z</time>
      </trkpt>
      <trkpt lat="47.70548" lon="3.66717">
        <ele>237.1</ele>
        <time>2022-02-23T09:43:45Z</time>
      </trkpt>
      <trkpt lat="47.70549" lon="3.66718">
        <ele>237</ele>
        <time>2022-02-23T09:43:47Z</time>
      </trkpt>
      <trkpt lat="47.7055" lon="3.66718">
        <ele>237</ele>
        <time>2022-02-23T09:43:48Z</time>
      </trkpt>
      <trkpt lat="47.70551" lon="3.66718">
        <ele>237</ele>
        <time>2022-02-23T09:43:49Z</time>
      </trkpt>
      <trkpt lat="47.70552" lon="3.66719">
        <ele>236.9</ele>
        <time>2022-02-23T09:43:50Z</time>
      </trkpt>
      <trkpt lat="47.70553" lon="3.66719">
        <ele>236.9</ele>
        <time>2022-02-23T09:43:51Z</time>
      </trkpt>
      <trkpt lat="47.70554" lon="3.66719">
        <ele>236.9</ele>
        <time>2022-02-23T09:43:52Z</time>
      </trkpt>
      <trkpt lat="47.70554" lon="3.66719">
        <ele>236.9</ele>
        <time>2022-02-23T09:43:53Z</time>
      </trkpt>
      <trkpt lat="47.70555" lon="3.66719">
        <ele>236.8</ele>
        <time>2022-02-23T09:43:54Z</time>
      </trkpt>
      <trkpt lat="47.70557" lon="3.66721">
        <ele>236.8</ele>
        <time>2022-02-23T09:43:56Z</time>
      </trkpt>
      <trkpt lat="47.70557" lon="3.66722">
        <ele>236.7</ele>
        <time>2022-02-23T09:43:57Z</time>
      </trkpt>
      <trkpt lat="47.70559" lon="3.66724">
        <ele>236.7</ele>
        <time>2022-02-23T09:43:59Z</time>
      </trkpt>
      <trkpt lat="47.7056" lon="3.66726">
        <ele>236.6</ele>
        <time>2022-02-23T09:44:00Z</time>
      </trkpt>
      <trkpt lat="47.70561" lon="3.66727">
        <ele>236.6</ele>
        <time>2022-02-23T09:44:01Z</time>
      </trkpt>
      <trkpt lat="47.70562" lon="3.66728">
        <ele>236.6</ele>
        <time>2022-02-23T09:44:02Z</time>
      </trkpt>
      <trkpt lat="47.70562" lon="3.66728">
        <ele>236.5</ele>
        <time>2022-02-23T09:44:03Z</time>
      </trkpt>
      <trkpt lat="47.70564" lon="3.6673">
        <ele>236.5</ele>
        <time>2022-02-23T09:44:04Z</time>
      </trkpt>
      <trkpt lat="47.70565" lon="3.66731">
        <ele>236.4</ele>
        <time>2022-02-23T09:44:05Z</time>
      </trkpt>
      <trkpt lat="47.70566" lon="3.66731">
        <ele>236.4</ele>
        <time>2022-02-23T09:44:06Z</time>
      </trkpt>
      <trkpt lat="47.70567" lon="3.66732">
        <ele>236.4</ele>
        <time>2022-02-23T09:44:07Z</time>
      </trkpt>
      <trkpt lat="47.70569" lon="3.66734">
        <ele>236.3</ele>
        <time>2022-02-23T09:44:08Z</time>
      </trkpt>
      <trkpt lat="47.7057" lon="3.66735">
        <ele>236.3</ele>
        <time>2022-02-23T09:44:10Z</time>
      </trkpt>
      <trkpt lat="47.70571" lon="3.66735">
        <ele>236.2</ele>
        <time>2022-02-23T09:44:11Z</time>
      </trkpt>
      <trkpt lat="47.70572" lon="3.66736">
        <ele>236.2</ele>
        <time>2022-02-23T09:44:12Z</time>
      </trkpt>
      <trkpt lat="47.70573" lon="3.66737">
        <ele>236.2</ele>
        <time>2022-02-23T09:44:13Z</time>
      </trkpt>
      <trkpt lat="47.70574" lon="3.66738">
        <ele>236.2</ele>
        <time>2022-02-23T09:44:15Z</time>
      </trkpt>
      <trkpt lat="47.70576" lon="3.66739">
        <ele>236.1</ele>
        <time>2022-02-23T09:44:16Z</time>
      </trkpt>
      <trkpt lat="47.70577" lon="3.6674">
        <ele>236.1</ele>
        <time>2022-02-23T09:44:17Z</time>
      </trkpt>
      <trkpt lat="47.70578" lon="3.66741">
        <ele>236.1</ele>
        <time>2022-02-23T09:44:19Z</time>
      </trkpt>
      <trkpt lat="47.70579" lon="3.66742">
        <ele>236.1</ele>
        <time>2022-02-23T09:44:20Z</time>
      </trkpt>
      <trkpt lat="47.7058" lon="3.66743">
        <ele>236</ele>
        <time>2022-02-23T09:44:21Z</time>
      </trkpt>
      <trkpt lat="47.70581" lon="3.66745">
        <ele>236</ele>
        <time>2022-02-23T09:44:22Z</time>
      </trkpt>
      <trkpt lat="47.70582" lon="3.66746">
        <ele>236</ele>
        <time>2022-02-23T09:44:24Z</time>
      </trkpt>
      <trkpt lat="47.70583" lon="3.66748">
        <ele>235.9</ele>
        <time>2022-02-23T09:44:25Z</time>
      </trkpt>
      <trkpt lat="47.70584" lon="3.66749">
        <ele>235.9</ele>
        <time>2022-02-23T09:44:27Z</time>
      </trkpt>
      <trkpt lat="47.70585" lon="3.6675">
        <ele>235.9</ele>
        <time>2022-02-23T09:44:28Z</time>
      </trkpt>
      <trkpt lat="47.70586" lon="3.6675">
        <ele>235.9</ele>
        <time>2022-02-23T09:44:29Z</time>
      </trkpt>
      <trkpt lat="47.70587" lon="3.66751">
        <ele>235.9</ele>
        <time>2022-02-23T09:44:30Z</time>
      </trkpt>
      <trkpt lat="47.70588" lon="3.66752">
        <ele>235.9</ele>
        <time>2022-02-23T09:44:31Z</time>
      </trkpt>
      <trkpt lat="47.70588" lon="3.66753">
        <ele>235.9</ele>
        <time>2022-02-23T09:44:32Z</time>
      </trkpt>
      <trkpt lat="47.70589" lon="3.66754">
        <ele>235.9</ele>
        <time>2022-02-23T09:44:33Z</time>
      </trkpt>
      <trkpt lat="47.7059" lon="3.66755">
        <ele>235.8</ele>
        <time>2022-02-23T09:44:35Z</time>
      </trkpt>
      <trkpt lat="47.70591" lon="3.66757">
        <ele>235.8</ele>
        <time>2022-02-23T09:44:36Z</time>
      </trkpt>
      <trkpt lat="47.70592" lon="3.66758">
        <ele>235.8</ele>
        <time>2022-02-23T09:44:37Z</time>
      </trkpt>
      <trkpt lat="47.70593" lon="3.66758">
        <ele>235.8</ele>
        <time>2022-02-23T09:44:38Z</time>
      </trkpt>
      <trkpt lat="47.70594" lon="3.66759">
        <ele>235.8</ele>
        <time>2022-02-23T09:44:39Z</time>
      </trkpt>
      <trkpt lat="47.70595" lon="3.6676">
        <ele>235.8</ele>
        <time>2022-02-23T09:44:41Z</time>
      </trkpt>
      <trkpt lat="47.70596" lon="3.66761">
        <ele>235.8</ele>
        <time>2022-02-23T09:44:42Z</time>
      </trkpt>
      <trkpt lat="47.70597" lon="3.66762">
        <ele>235.8</ele>
        <time>2022-02-23T09:44:43Z</time>
      </trkpt>
      <trkpt lat="47.70598" lon="3.66763">
        <ele>235.8</ele>
        <time>2022-02-23T09:44:44Z</time>
      </trkpt>
      <trkpt lat="47.70599" lon="3.66765">
        <ele>235.7</ele>
        <time>2022-02-23T09:44:45Z</time>
      </trkpt>
      <trkpt lat="47.706" lon="3.66766">
        <ele>235.7</ele>
        <time>2022-02-23T09:44:46Z</time>
      </trkpt>
      <trkpt lat="47.70601" lon="3.66767">
        <ele>235.7</ele>
        <time>2022-02-23T09:44:48Z</time>
      </trkpt>
      <trkpt lat="47.70602" lon="3.66768">
        <ele>235.7</ele>
        <time>2022-02-23T09:44:49Z</time>
      </trkpt>
      <trkpt lat="47.70604" lon="3.6677">
        <ele>235.7</ele>
        <time>2022-02-23T09:44:51Z</time>
      </trkpt>
      <trkpt lat="47.70605" lon="3.6677">
        <ele>235.7</ele>
        <time>2022-02-23T09:44:52Z</time>
      </trkpt>
      <trkpt lat="47.70606" lon="3.6677">
        <ele>235.7</ele>
        <time>2022-02-23T09:44:53Z</time>
      </trkpt>
      <trkpt lat="47.70607" lon="3.66771">
        <ele>235.7</ele>
        <time>2022-02-23T09:44:55Z</time>
      </trkpt>
      <trkpt lat="47.70608" lon="3.66772">
        <ele>235.7</ele>
        <time>2022-02-23T09:44:56Z</time>
      </trkpt>
      <trkpt lat="47.70609" lon="3.66772">
        <ele>235.7</ele>
        <time>2022-02-23T09:44:57Z</time>
      </trkpt>
      <trkpt lat="47.7061" lon="3.66773">
        <ele>235.7</ele>
        <time>2022-02-23T09:44:58Z</time>
      </trkpt>
      <trkpt lat="47.70611" lon="3.66774">
        <ele>235.7</ele>
        <time>2022-02-23T09:44:59Z</time>
      </trkpt>
      <trkpt lat="47.70612" lon="3.66775">
        <ele>235.7</ele>
        <time>2022-02-23T09:45:01Z</time>
      </trkpt>
      <trkpt lat="47.70613" lon="3.66776">
        <ele>235.7</ele>
        <time>2022-02-23T09:45:02Z</time>
      </trkpt>
      <trkpt lat="47.70614" lon="3.66777">
        <ele>235.7</ele>
        <time>2022-02-23T09:45:03Z</time>
      </trkpt>
      <trkpt lat="47.70615" lon="3.66778">
        <ele>235.7</ele>
        <time>2022-02-23T09:45:04Z</time>
      </trkpt>
      <trkpt lat="47.70616" lon="3.6678">
        <ele>235.7</ele>
        <time>2022-02-23T09:45:06Z</time>
      </trkpt>
      <trkpt lat="47.70617" lon="3.66781">
        <ele>235.7</ele>
        <time>2022-02-23T09:45:07Z</time>
      </trkpt>
      <trkpt lat="47.70618" lon="3.66782">
        <ele>235.7</ele>
        <time>2022-02-23T09:45:08Z</time>
      </trkpt>
      <trkpt lat="47.70618" lon="3.66783">
        <ele>235.6</ele>
        <time>2022-02-23T09:45:09Z</time>
      </trkpt>
      <trkpt lat="47.70619" lon="3.66785">
        <ele>235.6</ele>
        <time>2022-02-23T09:45:10Z</time>
      </trkpt>
      <trkpt lat="47.7062" lon="3.66786">
        <ele>235.6</ele>
        <time>2022-02-23T09:45:12Z</time>
      </trkpt>
      <trkpt lat="47.7062" lon="3.66787">
        <ele>235.6</ele>
        <time>2022-02-23T09:45:13Z</time>
      </trkpt>
      <trkpt lat="47.70621" lon="3.66788">
        <ele>235.6</ele>
        <time>2022-02-23T09:45:14Z</time>
      </trkpt>
      <trkpt lat="47.70623" lon="3.6679">
        <ele>235.6</ele>
        <time>2022-02-23T09:45:16Z</time>
      </trkpt>
      <trkpt lat="47.70623" lon="3.66791">
        <ele>235.6</ele>
        <time>2022-02-23T09:45:17Z</time>
      </trkpt>
      <trkpt lat="47.70625" lon="3.66793">
        <ele>235.6</ele>
        <time>2022-02-23T09:45:18Z</time>
      </trkpt>
      <trkpt lat="47.70626" lon="3.66794">
        <ele>235.6</ele>
        <time>2022-02-23T09:45:20Z</time>
      </trkpt>
      <trkpt lat="47.70627" lon="3.66795">
        <ele>235.6</ele>
        <time>2022-02-23T09:45:21Z</time>
      </trkpt>
      <trkpt lat="47.70628" lon="3.66796">
        <ele>235.6</ele>
        <time>2022-02-23T09:45:22Z</time>
      </trkpt>
      <trkpt lat="47.7063" lon="3.66797">
        <ele>235.6</ele>
        <time>2022-02-23T09:45:23Z</time>
      </trkpt>
      <trkpt lat="47.70631" lon="3.66797">
        <ele>235.6</ele>
        <time>2022-02-23T09:45:25Z</time>
      </trkpt>
      <trkpt lat="47.70632" lon="3.66798">
        <ele>235.6</ele>
        <time>2022-02-23T09:45:26Z</time>
      </trkpt>
      <trkpt lat="47.70633" lon="3.66799">
        <ele>235.6</ele>
        <time>2022-02-23T09:45:27Z</time>
      </trkpt>
      <trkpt lat="47.70634" lon="3.668">
        <ele>235.6</ele>
        <time>2022-02-23T09:45:28Z</time>
      </trkpt>
      <trkpt lat="47.70635" lon="3.668">
        <ele>235.6</ele>
        <time>2022-02-23T09:45:29Z</time>
      </trkpt>
      <trkpt lat="47.70635" lon="3.66801">
        <ele>235.6</ele>
        <time>2022-02-23T09:45:30Z</time>
      </trkpt>
      <trkpt lat="47.70637" lon="3.66802">
        <ele>235.6</ele>
        <time>2022-02-23T09:45:31Z</time>
      </trkpt>
      <trkpt lat="47.70637" lon="3.66802">
        <ele>235.6</ele>
        <time>2022-02-23T09:45:32Z</time>
      </trkpt>
      <trkpt lat="47.70638" lon="3.66803">
        <ele>235.6</ele>
        <time>2022-02-23T09:45:33Z</time>
      </trkpt>
      <trkpt lat="47.70638" lon="3.66804">
        <ele>235.6</ele>
        <time>2022-02-23T09:45:34Z</time>
      </trkpt>
      <trkpt lat="47.70639" lon="3.66805">
        <ele>235.6</ele>
        <time>2022-02-23T09:45:35Z</time>
      </trkpt>
      <trkpt lat="47.7064" lon="3.66807">
        <ele>235.6</ele>
        <time>2022-02-23T09:45:36Z</time>
      </trkpt>
      <trkpt lat="47.70641" lon="3.66808">
        <ele>235.5</ele>
        <time>2022-02-23T09:45:37Z</time>
      </trkpt>
      <trkpt lat="47.70643" lon="3.6681">
        <ele>235.5</ele>
        <time>2022-02-23T09:45:39Z</time>
      </trkpt>
      <trkpt lat="47.70644" lon="3.66811">
        <ele>235.5</ele>
        <time>2022-02-23T09:45:40Z</time>
      </trkpt>
      <trkpt lat="47.70644" lon="3.66812">
        <ele>235.5</ele>
        <time>2022-02-23T09:45:41Z</time>
      </trkpt>
      <trkpt lat="47.70646" lon="3.66813">
        <ele>235.5</ele>
        <time>2022-02-23T09:45:42Z</time>
      </trkpt>
      <trkpt lat="47.70646" lon="3.66814">
        <ele>235.5</ele>
        <time>2022-02-23T09:45:43Z</time>
      </trkpt>
      <trkpt lat="47.70647" lon="3.66815">
        <ele>235.5</ele>
        <time>2022-02-23T09:45:44Z</time>
      </trkpt>
      <trkpt lat="47.70647" lon="3.66815">
        <ele>235.5</ele>
        <time>2022-02-23T09:45:45Z</time>
      </trkpt>
      <trkpt lat="47.70648" lon="3.66817">
        <ele>235.4</ele>
        <time>2022-02-23T09:45:46Z</time>
      </trkpt>
      <trkpt lat="47.70649" lon="3.66818">
        <ele>235.4</ele>
        <time>2022-02-23T09:45:47Z</time>
      </trkpt>
      <trkpt lat="47.7065" lon="3.66819">
        <ele>235.4</ele>
        <time>2022-02-23T09:45:49Z</time>
      </trkpt>
      <trkpt lat="47.70651" lon="3.6682">
        <ele>235.4</ele>
        <time>2022-02-23T09:45:50Z</time>
      </trkpt>
      <trkpt lat="47.70652" lon="3.66821">
        <ele>235.3</ele>
        <time>2022-02-23T09:45:51Z</time>
      </trkpt>
      <trkpt lat="47.70653" lon="3.66821">
        <ele>235.3</ele>
        <time>2022-02-23T09:45:52Z</time>
      </trkpt>
      <trkpt lat="47.70654" lon="3.66822">
        <ele>235.3</ele>
        <time>2022-02-23T09:45:53Z</time>
      </trkpt>
      <trkpt lat="47.70655" lon="3.66823">
        <ele>235.3</ele>
        <time>2022-02-23T09:45:55Z</time>
      </trkpt>
      <trkpt lat="47.70657" lon="3.66825">
        <ele>235.2</ele>
        <time>2022-02-23T09:45:56Z</time>
      </trkpt>
      <trkpt lat="47.70657" lon="3.66825">
        <ele>235.2</ele>
        <time>2022-02-23T09:45:57Z</time>
      </trkpt>
      <trkpt lat="47.70658" lon="3.66826">
        <ele>235.2</ele>
        <time>2022-02-23T09:45:58Z</time>
      </trkpt>
      <trkpt lat="47.7066" lon="3.66828">
        <ele>235.1</ele>
        <time>2022-02-23T09:45:59Z</time>
      </trkpt>
      <trkpt lat="47.7066" lon="3.66828">
        <ele>235.1</ele>
        <time>2022-02-23T09:46:00Z</time>
      </trkpt>
      <trkpt lat="47.70661" lon="3.66829">
        <ele>235.1</ele>
        <time>2022-02-23T09:46:01Z</time>
      </trkpt>
      <trkpt lat="47.70662" lon="3.6683">
        <ele>235</ele>
        <time>2022-02-23T09:46:02Z</time>
      </trkpt>
      <trkpt lat="47.70663" lon="3.66831">
        <ele>235</ele>
        <time>2022-02-23T09:46:04Z</time>
      </trkpt>
      <trkpt lat="47.70664" lon="3.66832">
        <ele>234.9</ele>
        <time>2022-02-23T09:46:05Z</time>
      </trkpt>
      <trkpt lat="47.70666" lon="3.66832">
        <ele>234.8</ele>
        <time>2022-02-23T09:46:06Z</time>
      </trkpt>
      <trkpt lat="47.70667" lon="3.66833">
        <ele>234.8</ele>
        <time>2022-02-23T09:46:07Z</time>
      </trkpt>
      <trkpt lat="47.70668" lon="3.66833">
        <ele>234.7</ele>
        <time>2022-02-23T09:46:08Z</time>
      </trkpt>
      <trkpt lat="47.70669" lon="3.66834">
        <ele>234.7</ele>
        <time>2022-02-23T09:46:09Z</time>
      </trkpt>
      <trkpt lat="47.7067" lon="3.66834">
        <ele>234.6</ele>
        <time>2022-02-23T09:46:10Z</time>
      </trkpt>
      <trkpt lat="47.70671" lon="3.66834">
        <ele>234.6</ele>
        <time>2022-02-23T09:46:11Z</time>
      </trkpt>
      <trkpt lat="47.70672" lon="3.66834">
        <ele>234.5</ele>
        <time>2022-02-23T09:46:12Z</time>
      </trkpt>
      <trkpt lat="47.70672" lon="3.66835">
        <ele>234.5</ele>
        <time>2022-02-23T09:46:13Z</time>
      </trkpt>
      <trkpt lat="47.70673" lon="3.66835">
        <ele>234.4</ele>
        <time>2022-02-23T09:46:15Z</time>
      </trkpt>
      <trkpt lat="47.70675" lon="3.66835">
        <ele>234.3</ele>
        <time>2022-02-23T09:46:16Z</time>
      </trkpt>
      <trkpt lat="47.70676" lon="3.66836">
        <ele>234.2</ele>
        <time>2022-02-23T09:46:17Z</time>
      </trkpt>
      <trkpt lat="47.70679" lon="3.66834">
        <ele>234</ele>
        <time>2022-02-23T09:46:18Z</time>
      </trkpt>
      <trkpt lat="47.7068" lon="3.66834">
        <ele>233.9</ele>
        <time>2022-02-23T09:46:20Z</time>
      </trkpt>
      <trkpt lat="47.70681" lon="3.66833">
        <ele>233.9</ele>
        <time>2022-02-23T09:46:21Z</time>
      </trkpt>
      <trkpt lat="47.70682" lon="3.66832">
        <ele>233.8</ele>
        <time>2022-02-23T09:46:22Z</time>
      </trkpt>
      <trkpt lat="47.70683" lon="3.66832">
        <ele>233.7</ele>
        <time>2022-02-23T09:46:23Z</time>
      </trkpt>
      <trkpt lat="47.70684" lon="3.66831">
        <ele>233.6</ele>
        <time>2022-02-23T09:46:24Z</time>
      </trkpt>
      <trkpt lat="47.70686" lon="3.6683">
        <ele>233.4</ele>
        <time>2022-02-23T09:46:26Z</time>
      </trkpt>
      <trkpt lat="47.70687" lon="3.66829">
        <ele>233.3</ele>
        <time>2022-02-23T09:46:27Z</time>
      </trkpt>
      <trkpt lat="47.70687" lon="3.66827">
        <ele>233.2</ele>
        <time>2022-02-23T09:46:29Z</time>
      </trkpt>
      <trkpt lat="47.70688" lon="3.66826">
        <ele>233</ele>
        <time>2022-02-23T09:46:30Z</time>
      </trkpt>
      <trkpt lat="47.7069" lon="3.66825">
        <ele>232.9</ele>
        <time>2022-02-23T09:46:31Z</time>
      </trkpt>
      <trkpt lat="47.70691" lon="3.66825">
        <ele>232.8</ele>
        <time>2022-02-23T09:46:32Z</time>
      </trkpt>
      <trkpt lat="47.70692" lon="3.66825">
        <ele>232.7</ele>
        <time>2022-02-23T09:46:33Z</time>
      </trkpt>
      <trkpt lat="47.70693" lon="3.66825">
        <ele>232.6</ele>
        <time>2022-02-23T09:46:35Z</time>
      </trkpt>
      <trkpt lat="47.70694" lon="3.66825">
        <ele>232.4</ele>
        <time>2022-02-23T09:46:36Z</time>
      </trkpt>
      <trkpt lat="47.70695" lon="3.66826">
        <ele>232.6</ele>
        <time>2022-02-23T09:46:37Z</time>
      </trkpt>
      <trkpt lat="47.70696" lon="3.66827">
        <ele>232.6</ele>
        <time>2022-02-23T09:46:38Z</time>
      </trkpt>
      <trkpt lat="47.70697" lon="3.66827">
        <ele>232.6</ele>
        <time>2022-02-23T09:46:39Z</time>
      </trkpt>
      <trkpt lat="47.70699" lon="3.66829">
        <ele>232.7</ele>
        <time>2022-02-23T09:46:41Z</time>
      </trkpt>
      <trkpt lat="47.70699" lon="3.66829">
        <ele>232.7</ele>
        <time>2022-02-23T09:46:42Z</time>
      </trkpt>
      <trkpt lat="47.707" lon="3.6683">
        <ele>232.7</ele>
        <time>2022-02-23T09:46:43Z</time>
      </trkpt>
      <trkpt lat="47.70701" lon="3.66831">
        <ele>232.8</ele>
        <time>2022-02-23T09:46:44Z</time>
      </trkpt>
      <trkpt lat="47.70702" lon="3.66832">
        <ele>232.8</ele>
        <time>2022-02-23T09:46:45Z</time>
      </trkpt>
      <trkpt lat="47.70704" lon="3.66835">
        <ele>232.8</ele>
        <time>2022-02-23T09:46:47Z</time>
      </trkpt>
      <trkpt lat="47.70705" lon="3.66837">
        <ele>232.9</ele>
        <time>2022-02-23T09:46:48Z</time>
      </trkpt>
      <trkpt lat="47.70705" lon="3.66839">
        <ele>232.9</ele>
        <time>2022-02-23T09:46:49Z</time>
      </trkpt>
      <trkpt lat="47.70706" lon="3.6684">
        <ele>232.9</ele>
        <time>2022-02-23T09:46:50Z</time>
      </trkpt>
      <trkpt lat="47.70706" lon="3.66841">
        <ele>232.9</ele>
        <time>2022-02-23T09:46:51Z</time>
      </trkpt>
      <trkpt lat="47.70707" lon="3.66842">
        <ele>233</ele>
        <time>2022-02-23T09:46:52Z</time>
      </trkpt>
      <trkpt lat="47.70709" lon="3.66844">
        <ele>233</ele>
        <time>2022-02-23T09:46:54Z</time>
      </trkpt>
      <trkpt lat="47.7071" lon="3.66845">
        <ele>233</ele>
        <time>2022-02-23T09:46:55Z</time>
      </trkpt>
      <trkpt lat="47.70711" lon="3.66847">
        <ele>233.1</ele>
        <time>2022-02-23T09:46:56Z</time>
      </trkpt>
      <trkpt lat="47.70712" lon="3.66849">
        <ele>233.1</ele>
        <time>2022-02-23T09:46:57Z</time>
      </trkpt>
      <trkpt lat="47.70712" lon="3.6685">
        <ele>233.1</ele>
        <time>2022-02-23T09:46:58Z</time>
      </trkpt>
      <trkpt lat="47.70712" lon="3.6685">
        <ele>233.1</ele>
        <time>2022-02-23T09:46:59Z</time>
      </trkpt>
      <trkpt lat="47.70713" lon="3.66851">
        <ele>233.1</ele>
        <time>2022-02-23T09:47:00Z</time>
      </trkpt>
      <trkpt lat="47.70713" lon="3.66852">
        <ele>233.1</ele>
        <time>2022-02-23T09:47:01Z</time>
      </trkpt>
      <trkpt lat="47.70714" lon="3.66854">
        <ele>233.1</ele>
        <time>2022-02-23T09:47:02Z</time>
      </trkpt>
      <trkpt lat="47.70715" lon="3.66855">
        <ele>233.1</ele>
        <time>2022-02-23T09:47:03Z</time>
      </trkpt>
      <trkpt lat="47.70715" lon="3.66855">
        <ele>233.2</ele>
        <time>2022-02-23T09:47:04Z</time>
      </trkpt>
      <trkpt lat="47.70716" lon="3.66856">
        <ele>233.2</ele>
        <time>2022-02-23T09:47:05Z</time>
      </trkpt>
      <trkpt lat="47.70717" lon="3.66859">
        <ele>233.2</ele>
        <time>2022-02-23T09:47:07Z</time>
      </trkpt>
      <trkpt lat="47.70718" lon="3.6686">
        <ele>233.2</ele>
        <time>2022-02-23T09:47:08Z</time>
      </trkpt>
      <trkpt lat="47.70719" lon="3.66861">
        <ele>233.2</ele>
        <time>2022-02-23T09:47:09Z</time>
      </trkpt>
      <trkpt lat="47.7072" lon="3.66862">
        <ele>233.2</ele>
        <time>2022-02-23T09:47:11Z</time>
      </trkpt>
      <trkpt lat="47.7072" lon="3.66863">
        <ele>233.3</ele>
        <time>2022-02-23T09:47:12Z</time>
      </trkpt>
      <trkpt lat="47.7072" lon="3.66864">
        <ele>233.3</ele>
        <time>2022-02-23T09:47:13Z</time>
      </trkpt>
      <trkpt lat="47.70721" lon="3.66866">
        <ele>233.3</ele>
        <time>2022-02-23T09:47:14Z</time>
      </trkpt>
      <trkpt lat="47.70722" lon="3.66867">
        <ele>233.3</ele>
        <time>2022-02-23T09:47:15Z</time>
      </trkpt>
      <trkpt lat="47.70723" lon="3.66869">
        <ele>233.3</ele>
        <time>2022-02-23T09:47:17Z</time>
      </trkpt>
      <trkpt lat="47.70724" lon="3.6687">
        <ele>233.4</ele>
        <time>2022-02-23T09:47:18Z</time>
      </trkpt>
      <trkpt lat="47.70725" lon="3.66873">
        <ele>233.4</ele>
        <time>2022-02-23T09:47:19Z</time>
      </trkpt>
      <trkpt lat="47.70725" lon="3.66874">
        <ele>233.4</ele>
        <time>2022-02-23T09:47:20Z</time>
      </trkpt>
      <trkpt lat="47.70725" lon="3.66875">
        <ele>233.4</ele>
        <time>2022-02-23T09:47:21Z</time>
      </trkpt>
      <trkpt lat="47.70726" lon="3.66877">
        <ele>233.5</ele>
        <time>2022-02-23T09:47:22Z</time>
      </trkpt>
      <trkpt lat="47.70726" lon="3.66879">
        <ele>233.5</ele>
        <time>2022-02-23T09:47:24Z</time>
      </trkpt>
      <trkpt lat="47.70727" lon="3.6688">
        <ele>233.5</ele>
        <time>2022-02-23T09:47:25Z</time>
      </trkpt>
      <trkpt lat="47.70728" lon="3.66881">
        <ele>233.5</ele>
        <time>2022-02-23T09:47:26Z</time>
      </trkpt>
      <trkpt lat="47.70729" lon="3.66882">
        <ele>233.6</ele>
        <time>2022-02-23T09:47:27Z</time>
      </trkpt>
      <trkpt lat="47.7073" lon="3.66883">
        <ele>233.6</ele>
        <time>2022-02-23T09:47:28Z</time>
      </trkpt>
      <trkpt lat="47.70731" lon="3.66884">
        <ele>233.6</ele>
        <time>2022-02-23T09:47:29Z</time>
      </trkpt>
      <trkpt lat="47.70732" lon="3.66885">
        <ele>233.6</ele>
        <time>2022-02-23T09:47:30Z</time>
      </trkpt>
      <trkpt lat="47.70733" lon="3.66888">
        <ele>233.7</ele>
        <time>2022-02-23T09:47:31Z</time>
      </trkpt>
      <trkpt lat="47.70733" lon="3.66889">
        <ele>233.7</ele>
        <time>2022-02-23T09:47:32Z</time>
      </trkpt>
      <trkpt lat="47.70734" lon="3.6689">
        <ele>233.7</ele>
        <time>2022-02-23T09:47:33Z</time>
      </trkpt>
      <trkpt lat="47.70734" lon="3.66891">
        <ele>233.7</ele>
        <time>2022-02-23T09:47:34Z</time>
      </trkpt>
      <trkpt lat="47.70735" lon="3.66893">
        <ele>233.8</ele>
        <time>2022-02-23T09:47:36Z</time>
      </trkpt>
      <trkpt lat="47.70735" lon="3.66893">
        <ele>233.8</ele>
        <time>2022-02-23T09:47:37Z</time>
      </trkpt>
      <trkpt lat="47.70736" lon="3.66895">
        <ele>233.8</ele>
        <time>2022-02-23T09:47:39Z</time>
      </trkpt>
      <trkpt lat="47.70737" lon="3.66896">
        <ele>233.8</ele>
        <time>2022-02-23T09:47:40Z</time>
      </trkpt>
      <trkpt lat="47.70738" lon="3.66899">
        <ele>233.9</ele>
        <time>2022-02-23T09:47:41Z</time>
      </trkpt>
      <trkpt lat="47.70739" lon="3.66901">
        <ele>233.9</ele>
        <time>2022-02-23T09:47:42Z</time>
      </trkpt>
      <trkpt lat="47.70739" lon="3.66902">
        <ele>233.9</ele>
        <time>2022-02-23T09:47:43Z</time>
      </trkpt>
      <trkpt lat="47.7074" lon="3.66903">
        <ele>233.9</ele>
        <time>2022-02-23T09:47:45Z</time>
      </trkpt>
      <trkpt lat="47.70741" lon="3.66904">
        <ele>234</ele>
        <time>2022-02-23T09:47:46Z</time>
      </trkpt>
      <trkpt lat="47.70741" lon="3.66906">
        <ele>234</ele>
        <time>2022-02-23T09:47:47Z</time>
      </trkpt>
      <trkpt lat="47.70742" lon="3.66907">
        <ele>234</ele>
        <time>2022-02-23T09:47:48Z</time>
      </trkpt>
      <trkpt lat="47.70743" lon="3.66908">
        <ele>234</ele>
        <time>2022-02-23T09:47:49Z</time>
      </trkpt>
      <trkpt lat="47.70745" lon="3.6691">
        <ele>234</ele>
        <time>2022-02-23T09:47:51Z</time>
      </trkpt>
      <trkpt lat="47.70746" lon="3.66911">
        <ele>234</ele>
        <time>2022-02-23T09:47:52Z</time>
      </trkpt>
      <trkpt lat="47.70746" lon="3.66912">
        <ele>234.1</ele>
        <time>2022-02-23T09:47:53Z</time>
      </trkpt>
      <trkpt lat="47.70747" lon="3.66913">
        <ele>234.1</ele>
        <time>2022-02-23T09:47:54Z</time>
      </trkpt>
      <trkpt lat="47.70747" lon="3.66914">
        <ele>234.1</ele>
        <time>2022-02-23T09:47:55Z</time>
      </trkpt>
      <trkpt lat="47.70749" lon="3.66917">
        <ele>234.1</ele>
        <time>2022-02-23T09:47:56Z</time>
      </trkpt>
      <trkpt lat="47.70749" lon="3.66917">
        <ele>234.1</ele>
        <time>2022-02-23T09:47:57Z</time>
      </trkpt>
      <trkpt lat="47.7075" lon="3.66918">
        <ele>234.1</ele>
        <time>2022-02-23T09:47:58Z</time>
      </trkpt>
      <trkpt lat="47.70751" lon="3.66919">
        <ele>234.1</ele>
        <time>2022-02-23T09:47:59Z</time>
      </trkpt>
      <trkpt lat="47.70753" lon="3.66922">
        <ele>234.1</ele>
        <time>2022-02-23T09:48:01Z</time>
      </trkpt>
      <trkpt lat="47.70753" lon="3.66923">
        <ele>234.1</ele>
        <time>2022-02-23T09:48:02Z</time>
      </trkpt>
      <trkpt lat="47.70753" lon="3.66924">
        <ele>234.2</ele>
        <time>2022-02-23T09:48:03Z</time>
      </trkpt>
      <trkpt lat="47.70754" lon="3.66926">
        <ele>234.2</ele>
        <time>2022-02-23T09:48:05Z</time>
      </trkpt>
      <trkpt lat="47.70755" lon="3.66927">
        <ele>234.2</ele>
        <time>2022-02-23T09:48:06Z</time>
      </trkpt>
      <trkpt lat="47.70755" lon="3.66928">
        <ele>234.2</ele>
        <time>2022-02-23T09:48:08Z</time>
      </trkpt>
      <trkpt lat="47.70756" lon="3.66929">
        <ele>234.2</ele>
        <time>2022-02-23T09:48:09Z</time>
      </trkpt>
      <trkpt lat="47.70756" lon="3.66931">
        <ele>234.2</ele>
        <time>2022-02-23T09:48:10Z</time>
      </trkpt>
      <trkpt lat="47.70757" lon="3.66932">
        <ele>234.2</ele>
        <time>2022-02-23T09:48:11Z</time>
      </trkpt>
      <trkpt lat="47.70758" lon="3.66934">
        <ele>234.2</ele>
        <time>2022-02-23T09:48:12Z</time>
      </trkpt>
      <trkpt lat="47.70758" lon="3.66935">
        <ele>234.2</ele>
        <time>2022-02-23T09:48:13Z</time>
      </trkpt>
      <trkpt lat="47.70759" lon="3.66937">
        <ele>234.2</ele>
        <time>2022-02-23T09:48:14Z</time>
      </trkpt>
      <trkpt lat="47.7076" lon="3.66938">
        <ele>234.2</ele>
        <time>2022-02-23T09:48:15Z</time>
      </trkpt>
      <trkpt lat="47.70761" lon="3.6694">
        <ele>234.2</ele>
        <time>2022-02-23T09:48:17Z</time>
      </trkpt>
      <trkpt lat="47.70762" lon="3.66941">
        <ele>234.2</ele>
        <time>2022-02-23T09:48:18Z</time>
      </trkpt>
      <trkpt lat="47.70764" lon="3.66942">
        <ele>234.2</ele>
        <time>2022-02-23T09:48:19Z</time>
      </trkpt>
      <trkpt lat="47.70765" lon="3.66943">
        <ele>234.2</ele>
        <time>2022-02-23T09:48:20Z</time>
      </trkpt>
      <trkpt lat="47.70766" lon="3.66944">
        <ele>234.2</ele>
        <time>2022-02-23T09:48:21Z</time>
      </trkpt>
      <trkpt lat="47.70767" lon="3.66945">
        <ele>234.1</ele>
        <time>2022-02-23T09:48:22Z</time>
      </trkpt>
      <trkpt lat="47.70768" lon="3.66947">
        <ele>234.1</ele>
        <time>2022-02-23T09:48:24Z</time>
      </trkpt>
      <trkpt lat="47.70769" lon="3.66948">
        <ele>234.1</ele>
        <time>2022-02-23T09:48:25Z</time>
      </trkpt>
      <trkpt lat="47.7077" lon="3.6695">
        <ele>234.1</ele>
        <time>2022-02-23T09:48:26Z</time>
      </trkpt>
      <trkpt lat="47.7077" lon="3.66952">
        <ele>234.1</ele>
        <time>2022-02-23T09:48:27Z</time>
      </trkpt>
      <trkpt lat="47.70771" lon="3.66954">
        <ele>234.1</ele>
        <time>2022-02-23T09:48:28Z</time>
      </trkpt>
      <trkpt lat="47.70772" lon="3.66955">
        <ele>234.1</ele>
        <time>2022-02-23T09:48:29Z</time>
      </trkpt>
      <trkpt lat="47.70772" lon="3.66957">
        <ele>234.1</ele>
        <time>2022-02-23T09:48:30Z</time>
      </trkpt>
      <trkpt lat="47.70774" lon="3.66958">
        <ele>234</ele>
        <time>2022-02-23T09:48:32Z</time>
      </trkpt>
      <trkpt lat="47.70775" lon="3.66959">
        <ele>234</ele>
        <time>2022-02-23T09:48:33Z</time>
      </trkpt>
      <trkpt lat="47.70776" lon="3.6696">
        <ele>234</ele>
        <time>2022-02-23T09:48:34Z</time>
      </trkpt>
      <trkpt lat="47.70778" lon="3.66962">
        <ele>234</ele>
        <time>2022-02-23T09:48:35Z</time>
      </trkpt>
      <trkpt lat="47.70778" lon="3.66963">
        <ele>234</ele>
        <time>2022-02-23T09:48:36Z</time>
      </trkpt>
      <trkpt lat="47.70779" lon="3.66964">
        <ele>234</ele>
        <time>2022-02-23T09:48:37Z</time>
      </trkpt>
      <trkpt lat="47.70779" lon="3.66965">
        <ele>234</ele>
        <time>2022-02-23T09:48:38Z</time>
      </trkpt>
      <trkpt lat="47.7078" lon="3.66967">
        <ele>233.9</ele>
        <time>2022-02-23T09:48:39Z</time>
      </trkpt>
      <trkpt lat="47.70781" lon="3.66969">
        <ele>233.9</ele>
        <time>2022-02-23T09:48:41Z</time>
      </trkpt>
      <trkpt lat="47.70782" lon="3.6697">
        <ele>233.9</ele>
        <time>2022-02-23T09:48:42Z</time>
      </trkpt>
      <trkpt lat="47.70783" lon="3.66971">
        <ele>233.9</ele>
        <time>2022-02-23T09:48:43Z</time>
      </trkpt>
      <trkpt lat="47.70784" lon="3.66973">
        <ele>233.9</ele>
        <time>2022-02-23T09:48:44Z</time>
      </trkpt>
      <trkpt lat="47.70784" lon="3.66974">
        <ele>233.9</ele>
        <time>2022-02-23T09:48:45Z</time>
      </trkpt>
      <trkpt lat="47.70785" lon="3.66976">
        <ele>233.9</ele>
        <time>2022-02-23T09:48:47Z</time>
      </trkpt>
      <trkpt lat="47.70786" lon="3.66978">
        <ele>233.9</ele>
        <time>2022-02-23T09:48:48Z</time>
      </trkpt>
      <trkpt lat="47.70787" lon="3.66979">
        <ele>233.9</ele>
        <time>2022-02-23T09:48:49Z</time>
      </trkpt>
      <trkpt lat="47.70787" lon="3.6698">
        <ele>233.9</ele>
        <time>2022-02-23T09:48:50Z</time>
      </trkpt>
      <trkpt lat="47.70788" lon="3.66983">
        <ele>233.9</ele>
        <time>2022-02-23T09:48:51Z</time>
      </trkpt>
      <trkpt lat="47.70789" lon="3.66984">
        <ele>233.9</ele>
        <time>2022-02-23T09:48:52Z</time>
      </trkpt>
      <trkpt lat="47.70789" lon="3.66986">
        <ele>233.9</ele>
        <time>2022-02-23T09:48:53Z</time>
      </trkpt>
      <trkpt lat="47.7079" lon="3.66987">
        <ele>233.9</ele>
        <time>2022-02-23T09:48:55Z</time>
      </trkpt>
      <trkpt lat="47.7079" lon="3.66989">
        <ele>233.9</ele>
        <time>2022-02-23T09:48:56Z</time>
      </trkpt>
      <trkpt lat="47.70791" lon="3.66991">
        <ele>233.9</ele>
        <time>2022-02-23T09:48:57Z</time>
      </trkpt>
      <trkpt lat="47.70791" lon="3.66993">
        <ele>233.9</ele>
        <time>2022-02-23T09:48:58Z</time>
      </trkpt>
      <trkpt lat="47.70791" lon="3.66994">
        <ele>233.9</ele>
        <time>2022-02-23T09:48:59Z</time>
      </trkpt>
      <trkpt lat="47.70792" lon="3.66997">
        <ele>233.9</ele>
        <time>2022-02-23T09:49:01Z</time>
      </trkpt>
      <trkpt lat="47.70792" lon="3.66999">
        <ele>233.9</ele>
        <time>2022-02-23T09:49:02Z</time>
      </trkpt>
      <trkpt lat="47.70792" lon="3.67">
        <ele>233.9</ele>
        <time>2022-02-23T09:49:03Z</time>
      </trkpt>
      <trkpt lat="47.70792" lon="3.67003">
        <ele>233.9</ele>
        <time>2022-02-23T09:49:04Z</time>
      </trkpt>
      <trkpt lat="47.70791" lon="3.67004">
        <ele>233.9</ele>
        <time>2022-02-23T09:49:05Z</time>
      </trkpt>
      <trkpt lat="47.70791" lon="3.67005">
        <ele>233.9</ele>
        <time>2022-02-23T09:49:06Z</time>
      </trkpt>
      <trkpt lat="47.70791" lon="3.67009">
        <ele>233.9</ele>
        <time>2022-02-23T09:49:07Z</time>
      </trkpt>
      <trkpt lat="47.70791" lon="3.67011">
        <ele>233.9</ele>
        <time>2022-02-23T09:49:09Z</time>
      </trkpt>
      <trkpt lat="47.70791" lon="3.67012">
        <ele>233.9</ele>
        <time>2022-02-23T09:49:10Z</time>
      </trkpt>
      <trkpt lat="47.70791" lon="3.67014">
        <ele>233.9</ele>
        <time>2022-02-23T09:49:11Z</time>
      </trkpt>
      <trkpt lat="47.70791" lon="3.67015">
        <ele>233.9</ele>
        <time>2022-02-23T09:49:12Z</time>
      </trkpt>
      <trkpt lat="47.70791" lon="3.67017">
        <ele>233.9</ele>
        <time>2022-02-23T09:49:13Z</time>
      </trkpt>
      <trkpt lat="47.70791" lon="3.67018">
        <ele>233.9</ele>
        <time>2022-02-23T09:49:14Z</time>
      </trkpt>
      <trkpt lat="47.70791" lon="3.6702">
        <ele>233.9</ele>
        <time>2022-02-23T09:49:15Z</time>
      </trkpt>
      <trkpt lat="47.70791" lon="3.67022">
        <ele>233.9</ele>
        <time>2022-02-23T09:49:17Z</time>
      </trkpt>
      <trkpt lat="47.70791" lon="3.67024">
        <ele>233.9</ele>
        <time>2022-02-23T09:49:18Z</time>
      </trkpt>
      <trkpt lat="47.70792" lon="3.67026">
        <ele>233.9</ele>
        <time>2022-02-23T09:49:19Z</time>
      </trkpt>
      <trkpt lat="47.70792" lon="3.67028">
        <ele>233.9</ele>
        <time>2022-02-23T09:49:20Z</time>
      </trkpt>
      <trkpt lat="47.70793" lon="3.67029">
        <ele>233.9</ele>
        <time>2022-02-23T09:49:22Z</time>
      </trkpt>
      <trkpt lat="47.70793" lon="3.67032">
        <ele>233.8</ele>
        <time>2022-02-23T09:49:23Z</time>
      </trkpt>
      <trkpt lat="47.70793" lon="3.67033">
        <ele>233.8</ele>
        <time>2022-02-23T09:49:24Z</time>
      </trkpt>
      <trkpt lat="47.70794" lon="3.67035">
        <ele>233.8</ele>
        <time>2022-02-23T09:49:25Z</time>
      </trkpt>
      <trkpt lat="47.70794" lon="3.67036">
        <ele>233.8</ele>
        <time>2022-02-23T09:49:26Z</time>
      </trkpt>
      <trkpt lat="47.70794" lon="3.67038">
        <ele>233.8</ele>
        <time>2022-02-23T09:49:27Z</time>
      </trkpt>
      <trkpt lat="47.70794" lon="3.67039">
        <ele>233.8</ele>
        <time>2022-02-23T09:49:28Z</time>
      </trkpt>
      <trkpt lat="47.70795" lon="3.67041">
        <ele>233.8</ele>
        <time>2022-02-23T09:49:29Z</time>
      </trkpt>
      <trkpt lat="47.70796" lon="3.67044">
        <ele>233.8</ele>
        <time>2022-02-23T09:49:31Z</time>
      </trkpt>
      <trkpt lat="47.70796" lon="3.67045">
        <ele>233.8</ele>
        <time>2022-02-23T09:49:32Z</time>
      </trkpt>
      <trkpt lat="47.70797" lon="3.67047">
        <ele>233.8</ele>
        <time>2022-02-23T09:49:34Z</time>
      </trkpt>
      <trkpt lat="47.70796" lon="3.67049">
        <ele>233.8</ele>
        <time>2022-02-23T09:49:35Z</time>
      </trkpt>
      <trkpt lat="47.70796" lon="3.67052">
        <ele>233.8</ele>
        <time>2022-02-23T09:49:36Z</time>
      </trkpt>
      <trkpt lat="47.70797" lon="3.67053">
        <ele>233.8</ele>
        <time>2022-02-23T09:49:37Z</time>
      </trkpt>
      <trkpt lat="47.70797" lon="3.67054">
        <ele>233.8</ele>
        <time>2022-02-23T09:49:38Z</time>
      </trkpt>
      <trkpt lat="47.70797" lon="3.67056">
        <ele>233.8</ele>
        <time>2022-02-23T09:49:39Z</time>
      </trkpt>
      <trkpt lat="47.70797" lon="3.67058">
        <ele>233.8</ele>
        <time>2022-02-23T09:49:41Z</time>
      </trkpt>
      <trkpt lat="47.70797" lon="3.67059">
        <ele>233.8</ele>
        <time>2022-02-23T09:49:42Z</time>
      </trkpt>
      <trkpt lat="47.70797" lon="3.67062">
        <ele>233.9</ele>
        <time>2022-02-23T09:49:43Z</time>
      </trkpt>
      <trkpt lat="47.70797" lon="3.67064">
        <ele>233.9</ele>
        <time>2022-02-23T09:49:44Z</time>
      </trkpt>
      <trkpt lat="47.70797" lon="3.67065">
        <ele>233.9</ele>
        <time>2022-02-23T09:49:45Z</time>
      </trkpt>
      <trkpt lat="47.70797" lon="3.67068">
        <ele>233.9</ele>
        <time>2022-02-23T09:49:47Z</time>
      </trkpt>
      <trkpt lat="47.70797" lon="3.6707">
        <ele>233.9</ele>
        <time>2022-02-23T09:49:48Z</time>
      </trkpt>
      <trkpt lat="47.70797" lon="3.67071">
        <ele>233.9</ele>
        <time>2022-02-23T09:49:49Z</time>
      </trkpt>
      <trkpt lat="47.70798" lon="3.67072">
        <ele>234</ele>
        <time>2022-02-23T09:49:50Z</time>
      </trkpt>
      <trkpt lat="47.70798" lon="3.67074">
        <ele>234</ele>
        <time>2022-02-23T09:49:51Z</time>
      </trkpt>
      <trkpt lat="47.70799" lon="3.67075">
        <ele>234</ele>
        <time>2022-02-23T09:49:52Z</time>
      </trkpt>
      <trkpt lat="47.70799" lon="3.67078">
        <ele>234</ele>
        <time>2022-02-23T09:49:53Z</time>
      </trkpt>
      <trkpt lat="47.70799" lon="3.67079">
        <ele>234</ele>
        <time>2022-02-23T09:49:54Z</time>
      </trkpt>
      <trkpt lat="47.708" lon="3.6708">
        <ele>234.1</ele>
        <time>2022-02-23T09:49:55Z</time>
      </trkpt>
      <trkpt lat="47.708" lon="3.67083">
        <ele>234.1</ele>
        <time>2022-02-23T09:49:57Z</time>
      </trkpt>
      <trkpt lat="47.708" lon="3.67085">
        <ele>234.1</ele>
        <time>2022-02-23T09:49:58Z</time>
      </trkpt>
      <trkpt lat="47.708" lon="3.67087">
        <ele>234.2</ele>
        <time>2022-02-23T09:49:59Z</time>
      </trkpt>
      <trkpt lat="47.70801" lon="3.67089">
        <ele>234.2</ele>
        <time>2022-02-23T09:50:00Z</time>
      </trkpt>
      <trkpt lat="47.70801" lon="3.67092">
        <ele>234.3</ele>
        <time>2022-02-23T09:50:01Z</time>
      </trkpt>
      <trkpt lat="47.70802" lon="3.67093">
        <ele>234.3</ele>
        <time>2022-02-23T09:50:02Z</time>
      </trkpt>
      <trkpt lat="47.70802" lon="3.67095">
        <ele>234.3</ele>
        <time>2022-02-23T09:50:03Z</time>
      </trkpt>
      <trkpt lat="47.70803" lon="3.67097">
        <ele>234.4</ele>
        <time>2022-02-23T09:50:05Z</time>
      </trkpt>
      <trkpt lat="47.70803" lon="3.67099">
        <ele>234.4</ele>
        <time>2022-02-23T09:50:06Z</time>
      </trkpt>
      <trkpt lat="47.70804" lon="3.67101">
        <ele>234.5</ele>
        <time>2022-02-23T09:50:07Z</time>
      </trkpt>
      <trkpt lat="47.70804" lon="3.67103">
        <ele>234.5</ele>
        <time>2022-02-23T09:50:09Z</time>
      </trkpt>
      <trkpt lat="47.70805" lon="3.67105">
        <ele>234.6</ele>
        <time>2022-02-23T09:50:10Z</time>
      </trkpt>
      <trkpt lat="47.70805" lon="3.67107">
        <ele>234.6</ele>
        <time>2022-02-23T09:50:11Z</time>
      </trkpt>
      <trkpt lat="47.70805" lon="3.67109">
        <ele>234.7</ele>
        <time>2022-02-23T09:50:13Z</time>
      </trkpt>
      <trkpt lat="47.70805" lon="3.6711">
        <ele>234.7</ele>
        <time>2022-02-23T09:50:14Z</time>
      </trkpt>
      <trkpt lat="47.70805" lon="3.6711">
        <ele>234.7</ele>
        <time>2022-02-23T09:50:15Z</time>
      </trkpt>
      <trkpt lat="47.70805" lon="3.6711">
        <ele>234.7</ele>
        <time>2022-02-23T09:50:16Z</time>
      </trkpt>
      <trkpt lat="47.70805" lon="3.6711">
        <ele>234.7</ele>
        <time>2022-02-23T09:50:17Z</time>
      </trkpt>
      <trkpt lat="47.70805" lon="3.6711">
        <ele>234.7</ele>
        <time>2022-02-23T09:50:18Z</time>
      </trkpt>
      <trkpt lat="47.70805" lon="3.67109">
        <ele>234.8</ele>
        <time>2022-02-23T09:50:20Z</time>
      </trkpt>
      <trkpt lat="47.70805" lon="3.67109">
        <ele>234.8</ele>
        <time>2022-02-23T09:50:22Z</time>
      </trkpt>
      <trkpt lat="47.70805" lon="3.67109">
        <ele>234.8</ele>
        <time>2022-02-23T09:50:25Z</time>
      </trkpt>
      <trkpt lat="47.70805" lon="3.67108">
        <ele>234.8</ele>
        <time>2022-02-23T09:50:26Z</time>
      </trkpt>
      <trkpt lat="47.70805" lon="3.67108">
        <ele>234.8</ele>
        <time>2022-02-23T09:50:27Z</time>
      </trkpt>
      <trkpt lat="47.70805" lon="3.67108">
        <ele>234.8</ele>
        <time>2022-02-23T09:50:29Z</time>
      </trkpt>
      <trkpt lat="47.70805" lon="3.67109">
        <ele>234.8</ele>
        <time>2022-02-23T09:50:30Z</time>
      </trkpt>
      <trkpt lat="47.70804" lon="3.6711">
        <ele>234.9</ele>
        <time>2022-02-23T09:50:31Z</time>
      </trkpt>
      <trkpt lat="47.70804" lon="3.67111">
        <ele>234.9</ele>
        <time>2022-02-23T09:50:32Z</time>
      </trkpt>
      <trkpt lat="47.70803" lon="3.67112">
        <ele>234.9</ele>
        <time>2022-02-23T09:50:33Z</time>
      </trkpt>
      <trkpt lat="47.70803" lon="3.67114">
        <ele>235</ele>
        <time>2022-02-23T09:50:34Z</time>
      </trkpt>
      <trkpt lat="47.70803" lon="3.67115">
        <ele>235</ele>
        <time>2022-02-23T09:50:35Z</time>
      </trkpt>
      <trkpt lat="47.70802" lon="3.67117">
        <ele>235.3</ele>
        <time>2022-02-23T09:50:36Z</time>
      </trkpt>
      <trkpt lat="47.70801" lon="3.67118">
        <ele>235.4</ele>
        <time>2022-02-23T09:50:37Z</time>
      </trkpt>
      <trkpt lat="47.708" lon="3.67118">
        <ele>235.5</ele>
        <time>2022-02-23T09:50:38Z</time>
      </trkpt>
      <trkpt lat="47.708" lon="3.67119">
        <ele>235.7</ele>
        <time>2022-02-23T09:50:39Z</time>
      </trkpt>
      <trkpt lat="47.70798" lon="3.6712">
        <ele>235.9</ele>
        <time>2022-02-23T09:50:41Z</time>
      </trkpt>
      <trkpt lat="47.70797" lon="3.67121">
        <ele>236.1</ele>
        <time>2022-02-23T09:50:42Z</time>
      </trkpt>
      <trkpt lat="47.70796" lon="3.67122">
        <ele>236.3</ele>
        <time>2022-02-23T09:50:43Z</time>
      </trkpt>
      <trkpt lat="47.70795" lon="3.67123">
        <ele>236.4</ele>
        <time>2022-02-23T09:50:44Z</time>
      </trkpt>
      <trkpt lat="47.70794" lon="3.67124">
        <ele>236.6</ele>
        <time>2022-02-23T09:50:45Z</time>
      </trkpt>
      <trkpt lat="47.70793" lon="3.67125">
        <ele>236.8</ele>
        <time>2022-02-23T09:50:46Z</time>
      </trkpt>
      <trkpt lat="47.70792" lon="3.67126">
        <ele>237</ele>
        <time>2022-02-23T09:50:48Z</time>
      </trkpt>
      <trkpt lat="47.70791" lon="3.67127">
        <ele>237.2</ele>
        <time>2022-02-23T09:50:49Z</time>
      </trkpt>
      <trkpt lat="47.70791" lon="3.67128">
        <ele>237.3</ele>
        <time>2022-02-23T09:50:50Z</time>
      </trkpt>
      <trkpt lat="47.7079" lon="3.67128">
        <ele>237.4</ele>
        <time>2022-02-23T09:50:51Z</time>
      </trkpt>
      <trkpt lat="47.7079" lon="3.67129">
        <ele>237.4</ele>
        <time>2022-02-23T09:50:52Z</time>
      </trkpt>
      <trkpt lat="47.7079" lon="3.67129">
        <ele>237.5</ele>
        <time>2022-02-23T09:50:53Z</time>
      </trkpt>
      <trkpt lat="47.70789" lon="3.6713">
        <ele>237.6</ele>
        <time>2022-02-23T09:50:55Z</time>
      </trkpt>
      <trkpt lat="47.70789" lon="3.67132">
        <ele>237.8</ele>
        <time>2022-02-23T09:50:56Z</time>
      </trkpt>
      <trkpt lat="47.70788" lon="3.67133">
        <ele>238</ele>
        <time>2022-02-23T09:50:57Z</time>
      </trkpt>
      <trkpt lat="47.70787" lon="3.67136">
        <ele>238.3</ele>
        <time>2022-02-23T09:50:59Z</time>
      </trkpt>
      <trkpt lat="47.70786" lon="3.67137">
        <ele>238.6</ele>
        <time>2022-02-23T09:51:00Z</time>
      </trkpt>
      <trkpt lat="47.70785" lon="3.67138">
        <ele>238.7</ele>
        <time>2022-02-23T09:51:01Z</time>
      </trkpt>
      <trkpt lat="47.70784" lon="3.67139">
        <ele>238.8</ele>
        <time>2022-02-23T09:51:02Z</time>
      </trkpt>
      <trkpt lat="47.70784" lon="3.6714">
        <ele>239</ele>
        <time>2022-02-23T09:51:03Z</time>
      </trkpt>
      <trkpt lat="47.70783" lon="3.67141">
        <ele>239.1</ele>
        <time>2022-02-23T09:51:04Z</time>
      </trkpt>
      <trkpt lat="47.70782" lon="3.67141">
        <ele>239.2</ele>
        <time>2022-02-23T09:51:05Z</time>
      </trkpt>
      <trkpt lat="47.70782" lon="3.67142">
        <ele>239.4</ele>
        <time>2022-02-23T09:51:06Z</time>
      </trkpt>
      <trkpt lat="47.70781" lon="3.67143">
        <ele>239.6</ele>
        <time>2022-02-23T09:51:07Z</time>
      </trkpt>
      <trkpt lat="47.7078" lon="3.67144">
        <ele>239.7</ele>
        <time>2022-02-23T09:51:08Z</time>
      </trkpt>
      <trkpt lat="47.70779" lon="3.67145">
        <ele>239.9</ele>
        <time>2022-02-23T09:51:09Z</time>
      </trkpt>
      <trkpt lat="47.70778" lon="3.67146">
        <ele>240.1</ele>
        <time>2022-02-23T09:51:11Z</time>
      </trkpt>
      <trkpt lat="47.70777" lon="3.67147">
        <ele>240.3</ele>
        <time>2022-02-23T09:51:12Z</time>
      </trkpt>
      <trkpt lat="47.70776" lon="3.67148">
        <ele>240.5</ele>
        <time>2022-02-23T09:51:13Z</time>
      </trkpt>
      <trkpt lat="47.70775" lon="3.67148">
        <ele>240.6</ele>
        <time>2022-02-23T09:51:15Z</time>
      </trkpt>
      <trkpt lat="47.70774" lon="3.6715">
        <ele>240.8</ele>
        <time>2022-02-23T09:51:16Z</time>
      </trkpt>
      <trkpt lat="47.70773" lon="3.67151">
        <ele>241</ele>
        <time>2022-02-23T09:51:17Z</time>
      </trkpt>
      <trkpt lat="47.70772" lon="3.67152">
        <ele>241.2</ele>
        <time>2022-02-23T09:51:19Z</time>
      </trkpt>
      <trkpt lat="47.70771" lon="3.67153">
        <ele>241.3</ele>
        <time>2022-02-23T09:51:20Z</time>
      </trkpt>
      <trkpt lat="47.70771" lon="3.67153">
        <ele>241.4</ele>
        <time>2022-02-23T09:51:21Z</time>
      </trkpt>
      <trkpt lat="47.7077" lon="3.67154">
        <ele>241.6</ele>
        <time>2022-02-23T09:51:22Z</time>
      </trkpt>
      <trkpt lat="47.70769" lon="3.67155">
        <ele>241.7</ele>
        <time>2022-02-23T09:51:24Z</time>
      </trkpt>
      <trkpt lat="47.70768" lon="3.67156">
        <ele>241.9</ele>
        <time>2022-02-23T09:51:25Z</time>
      </trkpt>
      <trkpt lat="47.70767" lon="3.67157">
        <ele>242.1</ele>
        <time>2022-02-23T09:51:26Z</time>
      </trkpt>
      <trkpt lat="47.70766" lon="3.67158">
        <ele>242.3</ele>
        <time>2022-02-23T09:51:28Z</time>
      </trkpt>
      <trkpt lat="47.70766" lon="3.67159">
        <ele>242.5</ele>
        <time>2022-02-23T09:51:29Z</time>
      </trkpt>
      <trkpt lat="47.70765" lon="3.67161">
        <ele>242.7</ele>
        <time>2022-02-23T09:51:31Z</time>
      </trkpt>
      <trkpt lat="47.70764" lon="3.67162">
        <ele>242.9</ele>
        <time>2022-02-23T09:51:32Z</time>
      </trkpt>
      <trkpt lat="47.70764" lon="3.67163">
        <ele>243</ele>
        <time>2022-02-23T09:51:33Z</time>
      </trkpt>
      <trkpt lat="47.70763" lon="3.67164">
        <ele>243.1</ele>
        <time>2022-02-23T09:51:34Z</time>
      </trkpt>
      <trkpt lat="47.70762" lon="3.67163">
        <ele>243.2</ele>
        <time>2022-02-23T09:51:35Z</time>
      </trkpt>
      <trkpt lat="47.70761" lon="3.67163">
        <ele>243.4</ele>
        <time>2022-02-23T09:51:36Z</time>
      </trkpt>
      <trkpt lat="47.70761" lon="3.67162">
        <ele>243.5</ele>
        <time>2022-02-23T09:51:37Z</time>
      </trkpt>
      <trkpt lat="47.7076" lon="3.67163">
        <ele>243.6</ele>
        <time>2022-02-23T09:51:38Z</time>
      </trkpt>
      <trkpt lat="47.7076" lon="3.67164">
        <ele>243.7</ele>
        <time>2022-02-23T09:51:39Z</time>
      </trkpt>
      <trkpt lat="47.7076" lon="3.67165">
        <ele>243.9</ele>
        <time>2022-02-23T09:51:40Z</time>
      </trkpt>
      <trkpt lat="47.7076" lon="3.67167">
        <ele>244.1</ele>
        <time>2022-02-23T09:51:42Z</time>
      </trkpt>
      <trkpt lat="47.7076" lon="3.6717">
        <ele>244.3</ele>
        <time>2022-02-23T09:51:43Z</time>
      </trkpt>
      <trkpt lat="47.7076" lon="3.67171">
        <ele>244.5</ele>
        <time>2022-02-23T09:51:44Z</time>
      </trkpt>
      <trkpt lat="47.7076" lon="3.67172">
        <ele>244.6</ele>
        <time>2022-02-23T09:51:45Z</time>
      </trkpt>
      <trkpt lat="47.70761" lon="3.67175">
        <ele>244.9</ele>
        <time>2022-02-23T09:51:46Z</time>
      </trkpt>
      <trkpt lat="47.70761" lon="3.67176">
        <ele>245.1</ele>
        <time>2022-02-23T09:51:48Z</time>
      </trkpt>
      <trkpt lat="47.70761" lon="3.67178">
        <ele>245.2</ele>
        <time>2022-02-23T09:51:49Z</time>
      </trkpt>
      <trkpt lat="47.7076" lon="3.6718">
        <ele>245.4</ele>
        <time>2022-02-23T09:51:50Z</time>
      </trkpt>
      <trkpt lat="47.70759" lon="3.67181">
        <ele>245.6</ele>
        <time>2022-02-23T09:51:52Z</time>
      </trkpt>
      <trkpt lat="47.70758" lon="3.67182">
        <ele>245.8</ele>
        <time>2022-02-23T09:51:53Z</time>
      </trkpt>
      <trkpt lat="47.70756" lon="3.67183">
        <ele>246.1</ele>
        <time>2022-02-23T09:51:54Z</time>
      </trkpt>
      <trkpt lat="47.70755" lon="3.67184">
        <ele>246.4</ele>
        <time>2022-02-23T09:51:56Z</time>
      </trkpt>
      <trkpt lat="47.70753" lon="3.67184">
        <ele>246.7</ele>
        <time>2022-02-23T09:51:57Z</time>
      </trkpt>
      <trkpt lat="47.70751" lon="3.67185">
        <ele>246.9</ele>
        <time>2022-02-23T09:51:59Z</time>
      </trkpt>
      <trkpt lat="47.7075" lon="3.67186">
        <ele>247.2</ele>
        <time>2022-02-23T09:52:00Z</time>
      </trkpt>
      <trkpt lat="47.70747" lon="3.67186">
        <ele>247.5</ele>
        <time>2022-02-23T09:52:01Z</time>
      </trkpt>
      <trkpt lat="47.70747" lon="3.67186">
        <ele>247.7</ele>
        <time>2022-02-23T09:52:02Z</time>
      </trkpt>
      <trkpt lat="47.70746" lon="3.67187">
        <ele>247.8</ele>
        <time>2022-02-23T09:52:03Z</time>
      </trkpt>
      <trkpt lat="47.70745" lon="3.67188">
        <ele>247.9</ele>
        <time>2022-02-23T09:52:05Z</time>
      </trkpt>
      <trkpt lat="47.70744" lon="3.67188">
        <ele>248.1</ele>
        <time>2022-02-23T09:52:06Z</time>
      </trkpt>
      <trkpt lat="47.70743" lon="3.67189">
        <ele>248.3</ele>
        <time>2022-02-23T09:52:08Z</time>
      </trkpt>
      <trkpt lat="47.70742" lon="3.6719">
        <ele>248.5</ele>
        <time>2022-02-23T09:52:09Z</time>
      </trkpt>
      <trkpt lat="47.70741" lon="3.67191">
        <ele>248.6</ele>
        <time>2022-02-23T09:52:10Z</time>
      </trkpt>
      <trkpt lat="47.7074" lon="3.67192">
        <ele>248.7</ele>
        <time>2022-02-23T09:52:11Z</time>
      </trkpt>
      <trkpt lat="47.70739" lon="3.67193">
        <ele>248.9</ele>
        <time>2022-02-23T09:52:12Z</time>
      </trkpt>
      <trkpt lat="47.70739" lon="3.67194">
        <ele>249</ele>
        <time>2022-02-23T09:52:13Z</time>
      </trkpt>
      <trkpt lat="47.70739" lon="3.67195">
        <ele>249.1</ele>
        <time>2022-02-23T09:52:14Z</time>
      </trkpt>
      <trkpt lat="47.70739" lon="3.67197">
        <ele>249.3</ele>
        <time>2022-02-23T09:52:16Z</time>
      </trkpt>
      <trkpt lat="47.70738" lon="3.67198">
        <ele>249.5</ele>
        <time>2022-02-23T09:52:17Z</time>
      </trkpt>
      <trkpt lat="47.70737" lon="3.67198">
        <ele>249.6</ele>
        <time>2022-02-23T09:52:18Z</time>
      </trkpt>
      <trkpt lat="47.70736" lon="3.67199">
        <ele>249.8</ele>
        <time>2022-02-23T09:52:20Z</time>
      </trkpt>
      <trkpt lat="47.70735" lon="3.67201">
        <ele>250</ele>
        <time>2022-02-23T09:52:21Z</time>
      </trkpt>
      <trkpt lat="47.70734" lon="3.67202">
        <ele>250.2</ele>
        <time>2022-02-23T09:52:22Z</time>
      </trkpt>
      <trkpt lat="47.70733" lon="3.67204">
        <ele>250.4</ele>
        <time>2022-02-23T09:52:24Z</time>
      </trkpt>
      <trkpt lat="47.70732" lon="3.67205">
        <ele>250.5</ele>
        <time>2022-02-23T09:52:25Z</time>
      </trkpt>
      <trkpt lat="47.70732" lon="3.67206">
        <ele>250.7</ele>
        <time>2022-02-23T09:52:26Z</time>
      </trkpt>
      <trkpt lat="47.70731" lon="3.67207">
        <ele>250.8</ele>
        <time>2022-02-23T09:52:27Z</time>
      </trkpt>
      <trkpt lat="47.70731" lon="3.67208">
        <ele>251</ele>
        <time>2022-02-23T09:52:28Z</time>
      </trkpt>
      <trkpt lat="47.7073" lon="3.67209">
        <ele>251.1</ele>
        <time>2022-02-23T09:52:29Z</time>
      </trkpt>
      <trkpt lat="47.7073" lon="3.67211">
        <ele>251.3</ele>
        <time>2022-02-23T09:52:30Z</time>
      </trkpt>
      <trkpt lat="47.70729" lon="3.67212">
        <ele>251.4</ele>
        <time>2022-02-23T09:52:31Z</time>
      </trkpt>
      <trkpt lat="47.70728" lon="3.67213">
        <ele>251.5</ele>
        <time>2022-02-23T09:52:33Z</time>
      </trkpt>
      <trkpt lat="47.70728" lon="3.67214">
        <ele>251.7</ele>
        <time>2022-02-23T09:52:34Z</time>
      </trkpt>
      <trkpt lat="47.70727" lon="3.67215">
        <ele>251.8</ele>
        <time>2022-02-23T09:52:35Z</time>
      </trkpt>
      <trkpt lat="47.70727" lon="3.67216">
        <ele>251.9</ele>
        <time>2022-02-23T09:52:37Z</time>
      </trkpt>
      <trkpt lat="47.70726" lon="3.67217">
        <ele>252</ele>
        <time>2022-02-23T09:52:38Z</time>
      </trkpt>
      <trkpt lat="47.70725" lon="3.67218">
        <ele>252.2</ele>
        <time>2022-02-23T09:52:40Z</time>
      </trkpt>
      <trkpt lat="47.70725" lon="3.67219">
        <ele>252.4</ele>
        <time>2022-02-23T09:52:41Z</time>
      </trkpt>
      <trkpt lat="47.70724" lon="3.6722">
        <ele>252.5</ele>
        <time>2022-02-23T09:52:42Z</time>
      </trkpt>
      <trkpt lat="47.70724" lon="3.67221">
        <ele>252.6</ele>
        <time>2022-02-23T09:52:43Z</time>
      </trkpt>
      <trkpt lat="47.70723" lon="3.67222">
        <ele>252.8</ele>
        <time>2022-02-23T09:52:44Z</time>
      </trkpt>
      <trkpt lat="47.70722" lon="3.67224">
        <ele>253.1</ele>
        <time>2022-02-23T09:52:46Z</time>
      </trkpt>
      <trkpt lat="47.70721" lon="3.67225">
        <ele>253.2</ele>
        <time>2022-02-23T09:52:47Z</time>
      </trkpt>
      <trkpt lat="47.7072" lon="3.67226">
        <ele>253.4</ele>
        <time>2022-02-23T09:52:49Z</time>
      </trkpt>
      <trkpt lat="47.7072" lon="3.67227">
        <ele>253.5</ele>
        <time>2022-02-23T09:52:50Z</time>
      </trkpt>
      <trkpt lat="47.70719" lon="3.67228">
        <ele>253.6</ele>
        <time>2022-02-23T09:52:51Z</time>
      </trkpt>
      <trkpt lat="47.70718" lon="3.67229">
        <ele>253.9</ele>
        <time>2022-02-23T09:52:53Z</time>
      </trkpt>
      <trkpt lat="47.70718" lon="3.6723">
        <ele>254</ele>
        <time>2022-02-23T09:52:54Z</time>
      </trkpt>
      <trkpt lat="47.70717" lon="3.67233">
        <ele>254.3</ele>
        <time>2022-02-23T09:52:56Z</time>
      </trkpt>
      <trkpt lat="47.70716" lon="3.67234">
        <ele>254.5</ele>
        <time>2022-02-23T09:52:57Z</time>
      </trkpt>
      <trkpt lat="47.70716" lon="3.67236">
        <ele>254.7</ele>
        <time>2022-02-23T09:52:59Z</time>
      </trkpt>
      <trkpt lat="47.70715" lon="3.67238">
        <ele>254.9</ele>
        <time>2022-02-23T09:53:00Z</time>
      </trkpt>
      <trkpt lat="47.70714" lon="3.67239">
        <ele>255.1</ele>
        <time>2022-02-23T09:53:02Z</time>
      </trkpt>
      <trkpt lat="47.70714" lon="3.6724">
        <ele>255.2</ele>
        <time>2022-02-23T09:53:03Z</time>
      </trkpt>
      <trkpt lat="47.70713" lon="3.67242">
        <ele>255.4</ele>
        <time>2022-02-23T09:53:05Z</time>
      </trkpt>
      <trkpt lat="47.70713" lon="3.67243">
        <ele>255.6</ele>
        <time>2022-02-23T09:53:06Z</time>
      </trkpt>
      <trkpt lat="47.70712" lon="3.67244">
        <ele>255.7</ele>
        <time>2022-02-23T09:53:07Z</time>
      </trkpt>
      <trkpt lat="47.70712" lon="3.67245">
        <ele>255.8</ele>
        <time>2022-02-23T09:53:08Z</time>
      </trkpt>
      <trkpt lat="47.70712" lon="3.67246">
        <ele>255.9</ele>
        <time>2022-02-23T09:53:09Z</time>
      </trkpt>
      <trkpt lat="47.70711" lon="3.67247">
        <ele>256.1</ele>
        <time>2022-02-23T09:53:11Z</time>
      </trkpt>
      <trkpt lat="47.70711" lon="3.67248">
        <ele>256.1</ele>
        <time>2022-02-23T09:53:12Z</time>
      </trkpt>
      <trkpt lat="47.70711" lon="3.67249">
        <ele>256.2</ele>
        <time>2022-02-23T09:53:13Z</time>
      </trkpt>
      <trkpt lat="47.70711" lon="3.6725">
        <ele>256.3</ele>
        <time>2022-02-23T09:53:15Z</time>
      </trkpt>
      <trkpt lat="47.70711" lon="3.67251">
        <ele>256.5</ele>
        <time>2022-02-23T09:53:16Z</time>
      </trkpt>
      <trkpt lat="47.70711" lon="3.67252">
        <ele>256.6</ele>
        <time>2022-02-23T09:53:17Z</time>
      </trkpt>
      <trkpt lat="47.70711" lon="3.67254">
        <ele>256.8</ele>
        <time>2022-02-23T09:53:19Z</time>
      </trkpt>
      <trkpt lat="47.7071" lon="3.67255">
        <ele>256.9</ele>
        <time>2022-02-23T09:53:20Z</time>
      </trkpt>
      <trkpt lat="47.7071" lon="3.67256">
        <ele>257</ele>
        <time>2022-02-23T09:53:21Z</time>
      </trkpt>
      <trkpt lat="47.70709" lon="3.67256">
        <ele>257.1</ele>
        <time>2022-02-23T09:53:22Z</time>
      </trkpt>
      <trkpt lat="47.70709" lon="3.67258">
        <ele>257.2</ele>
        <time>2022-02-23T09:53:24Z</time>
      </trkpt>
      <trkpt lat="47.70709" lon="3.6726">
        <ele>257.5</ele>
        <time>2022-02-23T09:53:25Z</time>
      </trkpt>
      <trkpt lat="47.70708" lon="3.67261">
        <ele>257.6</ele>
        <time>2022-02-23T09:53:27Z</time>
      </trkpt>
      <trkpt lat="47.70708" lon="3.67263">
        <ele>257.8</ele>
        <time>2022-02-23T09:53:28Z</time>
      </trkpt>
      <trkpt lat="47.70707" lon="3.67264">
        <ele>258</ele>
        <time>2022-02-23T09:53:29Z</time>
      </trkpt>
      <trkpt lat="47.70706" lon="3.67265">
        <ele>258.1</ele>
        <time>2022-02-23T09:53:30Z</time>
      </trkpt>
      <trkpt lat="47.70706" lon="3.67267">
        <ele>258.2</ele>
        <time>2022-02-23T09:53:32Z</time>
      </trkpt>
      <trkpt lat="47.70706" lon="3.67268">
        <ele>258.3</ele>
        <time>2022-02-23T09:53:33Z</time>
      </trkpt>
      <trkpt lat="47.70706" lon="3.6727">
        <ele>258.4</ele>
        <time>2022-02-23T09:53:35Z</time>
      </trkpt>
      <trkpt lat="47.70705" lon="3.67271">
        <ele>258.5</ele>
        <time>2022-02-23T09:53:36Z</time>
      </trkpt>
      <trkpt lat="47.70705" lon="3.67272">
        <ele>258.7</ele>
        <time>2022-02-23T09:53:37Z</time>
      </trkpt>
      <trkpt lat="47.70704" lon="3.67273">
        <ele>258.7</ele>
        <time>2022-02-23T09:53:38Z</time>
      </trkpt>
      <trkpt lat="47.70704" lon="3.67274">
        <ele>258.8</ele>
        <time>2022-02-23T09:53:39Z</time>
      </trkpt>
      <trkpt lat="47.70704" lon="3.67275">
        <ele>258.8</ele>
        <time>2022-02-23T09:53:40Z</time>
      </trkpt>
      <trkpt lat="47.70703" lon="3.67276">
        <ele>258.9</ele>
        <time>2022-02-23T09:53:41Z</time>
      </trkpt>
      <trkpt lat="47.70703" lon="3.67276">
        <ele>258.9</ele>
        <time>2022-02-23T09:53:42Z</time>
      </trkpt>
      <trkpt lat="47.70703" lon="3.67277">
        <ele>259</ele>
        <time>2022-02-23T09:53:43Z</time>
      </trkpt>
      <trkpt lat="47.70703" lon="3.67279">
        <ele>259.1</ele>
        <time>2022-02-23T09:53:44Z</time>
      </trkpt>
      <trkpt lat="47.70702" lon="3.67282">
        <ele>259.3</ele>
        <time>2022-02-23T09:53:46Z</time>
      </trkpt>
      <trkpt lat="47.70702" lon="3.67283">
        <ele>259.4</ele>
        <time>2022-02-23T09:53:47Z</time>
      </trkpt>
      <trkpt lat="47.70702" lon="3.67284">
        <ele>259.5</ele>
        <time>2022-02-23T09:53:48Z</time>
      </trkpt>
      <trkpt lat="47.70701" lon="3.67286">
        <ele>259.6</ele>
        <time>2022-02-23T09:53:50Z</time>
      </trkpt>
      <trkpt lat="47.707" lon="3.67288">
        <ele>259.8</ele>
        <time>2022-02-23T09:53:51Z</time>
      </trkpt>
      <trkpt lat="47.707" lon="3.6729">
        <ele>259.9</ele>
        <time>2022-02-23T09:53:52Z</time>
      </trkpt>
      <trkpt lat="47.70699" lon="3.67292">
        <ele>260</ele>
        <time>2022-02-23T09:53:53Z</time>
      </trkpt>
      <trkpt lat="47.70698" lon="3.67294">
        <ele>260.3</ele>
        <time>2022-02-23T09:53:55Z</time>
      </trkpt>
      <trkpt lat="47.70697" lon="3.67295">
        <ele>260.3</ele>
        <time>2022-02-23T09:53:56Z</time>
      </trkpt>
      <trkpt lat="47.70697" lon="3.67296">
        <ele>260.4</ele>
        <time>2022-02-23T09:53:57Z</time>
      </trkpt>
      <trkpt lat="47.70696" lon="3.67298">
        <ele>260.5</ele>
        <time>2022-02-23T09:53:58Z</time>
      </trkpt>
      <trkpt lat="47.70695" lon="3.67299">
        <ele>260.6</ele>
        <time>2022-02-23T09:53:59Z</time>
      </trkpt>
      <trkpt lat="47.70695" lon="3.673">
        <ele>260.7</ele>
        <time>2022-02-23T09:54:00Z</time>
      </trkpt>
      <trkpt lat="47.70694" lon="3.67302">
        <ele>260.8</ele>
        <time>2022-02-23T09:54:01Z</time>
      </trkpt>
      <trkpt lat="47.70694" lon="3.67304">
        <ele>260.9</ele>
        <time>2022-02-23T09:54:03Z</time>
      </trkpt>
      <trkpt lat="47.70694" lon="3.67305">
        <ele>261.1</ele>
        <time>2022-02-23T09:54:04Z</time>
      </trkpt>
      <trkpt lat="47.70693" lon="3.67308">
        <ele>261.2</ele>
        <time>2022-02-23T09:54:06Z</time>
      </trkpt>
      <trkpt lat="47.70693" lon="3.6731">
        <ele>261.4</ele>
        <time>2022-02-23T09:54:07Z</time>
      </trkpt>
      <trkpt lat="47.70693" lon="3.67312">
        <ele>261.5</ele>
        <time>2022-02-23T09:54:08Z</time>
      </trkpt>
      <trkpt lat="47.70694" lon="3.67313">
        <ele>261.6</ele>
        <time>2022-02-23T09:54:09Z</time>
      </trkpt>
      <trkpt lat="47.70694" lon="3.67315">
        <ele>261.7</ele>
        <time>2022-02-23T09:54:11Z</time>
      </trkpt>
      <trkpt lat="47.70693" lon="3.67317">
        <ele>261.8</ele>
        <time>2022-02-23T09:54:12Z</time>
      </trkpt>
      <trkpt lat="47.70693" lon="3.67319">
        <ele>261.9</ele>
        <time>2022-02-23T09:54:13Z</time>
      </trkpt>
      <trkpt lat="47.70692" lon="3.67321">
        <ele>262.1</ele>
        <time>2022-02-23T09:54:15Z</time>
      </trkpt>
      <trkpt lat="47.70691" lon="3.67323">
        <ele>262.2</ele>
        <time>2022-02-23T09:54:16Z</time>
      </trkpt>
      <trkpt lat="47.70691" lon="3.67324">
        <ele>262.3</ele>
        <time>2022-02-23T09:54:17Z</time>
      </trkpt>
      <trkpt lat="47.70691" lon="3.67325">
        <ele>262.4</ele>
        <time>2022-02-23T09:54:18Z</time>
      </trkpt>
      <trkpt lat="47.7069" lon="3.67327">
        <ele>262.5</ele>
        <time>2022-02-23T09:54:19Z</time>
      </trkpt>
      <trkpt lat="47.70689" lon="3.6733">
        <ele>262.7</ele>
        <time>2022-02-23T09:54:21Z</time>
      </trkpt>
      <trkpt lat="47.70689" lon="3.67331">
        <ele>262.8</ele>
        <time>2022-02-23T09:54:22Z</time>
      </trkpt>
      <trkpt lat="47.70688" lon="3.67333">
        <ele>262.9</ele>
        <time>2022-02-23T09:54:23Z</time>
      </trkpt>
      <trkpt lat="47.70687" lon="3.67335">
        <ele>263.1</ele>
        <time>2022-02-23T09:54:25Z</time>
      </trkpt>
      <trkpt lat="47.70687" lon="3.67337">
        <ele>263.1</ele>
        <time>2022-02-23T09:54:26Z</time>
      </trkpt>
      <trkpt lat="47.70687" lon="3.67338">
        <ele>263.2</ele>
        <time>2022-02-23T09:54:27Z</time>
      </trkpt>
      <trkpt lat="47.70686" lon="3.67341">
        <ele>263.4</ele>
        <time>2022-02-23T09:54:29Z</time>
      </trkpt>
      <trkpt lat="47.70686" lon="3.67342">
        <ele>263.5</ele>
        <time>2022-02-23T09:54:30Z</time>
      </trkpt>
      <trkpt lat="47.70686" lon="3.67343">
        <ele>263.6</ele>
        <time>2022-02-23T09:54:31Z</time>
      </trkpt>
      <trkpt lat="47.70685" lon="3.67345">
        <ele>263.7</ele>
        <time>2022-02-23T09:54:32Z</time>
      </trkpt>
      <trkpt lat="47.70684" lon="3.67347">
        <ele>263.9</ele>
        <time>2022-02-23T09:54:33Z</time>
      </trkpt>
      <trkpt lat="47.70683" lon="3.67349">
        <ele>264</ele>
        <time>2022-02-23T09:54:34Z</time>
      </trkpt>
      <trkpt lat="47.70683" lon="3.6735">
        <ele>264.2</ele>
        <time>2022-02-23T09:54:35Z</time>
      </trkpt>
      <trkpt lat="47.70683" lon="3.67352">
        <ele>264.3</ele>
        <time>2022-02-23T09:54:37Z</time>
      </trkpt>
      <trkpt lat="47.70682" lon="3.67353">
        <ele>264.4</ele>
        <time>2022-02-23T09:54:38Z</time>
      </trkpt>
      <trkpt lat="47.70682" lon="3.67355">
        <ele>264.5</ele>
        <time>2022-02-23T09:54:39Z</time>
      </trkpt>
      <trkpt lat="47.70681" lon="3.67356">
        <ele>264.6</ele>
        <time>2022-02-23T09:54:40Z</time>
      </trkpt>
      <trkpt lat="47.70681" lon="3.67358">
        <ele>264.7</ele>
        <time>2022-02-23T09:54:42Z</time>
      </trkpt>
      <trkpt lat="47.70681" lon="3.67359">
        <ele>264.8</ele>
        <time>2022-02-23T09:54:43Z</time>
      </trkpt>
      <trkpt lat="47.7068" lon="3.67361">
        <ele>264.9</ele>
        <time>2022-02-23T09:54:44Z</time>
      </trkpt>
      <trkpt lat="47.70679" lon="3.67364">
        <ele>265.2</ele>
        <time>2022-02-23T09:54:45Z</time>
      </trkpt>
      <trkpt lat="47.70679" lon="3.67365">
        <ele>265.3</ele>
        <time>2022-02-23T09:54:47Z</time>
      </trkpt>
      <trkpt lat="47.70678" lon="3.67366">
        <ele>265.4</ele>
        <time>2022-02-23T09:54:48Z</time>
      </trkpt>
      <trkpt lat="47.70678" lon="3.67369">
        <ele>265.6</ele>
        <time>2022-02-23T09:54:50Z</time>
      </trkpt>
      <trkpt lat="47.70677" lon="3.6737">
        <ele>265.7</ele>
        <time>2022-02-23T09:54:51Z</time>
      </trkpt>
      <trkpt lat="47.70677" lon="3.67372">
        <ele>265.8</ele>
        <time>2022-02-23T09:54:52Z</time>
      </trkpt>
      <trkpt lat="47.70677" lon="3.67374">
        <ele>266</ele>
        <time>2022-02-23T09:54:53Z</time>
      </trkpt>
      <trkpt lat="47.70676" lon="3.67376">
        <ele>266.1</ele>
        <time>2022-02-23T09:54:55Z</time>
      </trkpt>
      <trkpt lat="47.70676" lon="3.67378">
        <ele>266.2</ele>
        <time>2022-02-23T09:54:56Z</time>
      </trkpt>
      <trkpt lat="47.70676" lon="3.67379">
        <ele>266.3</ele>
        <time>2022-02-23T09:54:57Z</time>
      </trkpt>
      <trkpt lat="47.70675" lon="3.6738">
        <ele>266.4</ele>
        <time>2022-02-23T09:54:58Z</time>
      </trkpt>
      <trkpt lat="47.70675" lon="3.67381">
        <ele>266.5</ele>
        <time>2022-02-23T09:54:59Z</time>
      </trkpt>
      <trkpt lat="47.70674" lon="3.67382">
        <ele>266.6</ele>
        <time>2022-02-23T09:55:00Z</time>
      </trkpt>
      <trkpt lat="47.70674" lon="3.67383">
        <ele>266.7</ele>
        <time>2022-02-23T09:55:01Z</time>
      </trkpt>
      <trkpt lat="47.70674" lon="3.67384">
        <ele>266.7</ele>
        <time>2022-02-23T09:55:02Z</time>
      </trkpt>
      <trkpt lat="47.70673" lon="3.67386">
        <ele>266.8</ele>
        <time>2022-02-23T09:55:04Z</time>
      </trkpt>
      <trkpt lat="47.70673" lon="3.67387">
        <ele>266.9</ele>
        <time>2022-02-23T09:55:05Z</time>
      </trkpt>
      <trkpt lat="47.70673" lon="3.67388">
        <ele>267</ele>
        <time>2022-02-23T09:55:06Z</time>
      </trkpt>
      <trkpt lat="47.70673" lon="3.6739">
        <ele>267.1</ele>
        <time>2022-02-23T09:55:07Z</time>
      </trkpt>
      <trkpt lat="47.70673" lon="3.67392">
        <ele>267.3</ele>
        <time>2022-02-23T09:55:09Z</time>
      </trkpt>
      <trkpt lat="47.70672" lon="3.67394">
        <ele>267.4</ele>
        <time>2022-02-23T09:55:10Z</time>
      </trkpt>
      <trkpt lat="47.70672" lon="3.67395">
        <ele>267.4</ele>
        <time>2022-02-23T09:55:12Z</time>
      </trkpt>
      <trkpt lat="47.70672" lon="3.67396">
        <ele>267.5</ele>
        <time>2022-02-23T09:55:13Z</time>
      </trkpt>
      <trkpt lat="47.70672" lon="3.67398">
        <ele>267.6</ele>
        <time>2022-02-23T09:55:14Z</time>
      </trkpt>
      <trkpt lat="47.70671" lon="3.674">
        <ele>267.7</ele>
        <time>2022-02-23T09:55:15Z</time>
      </trkpt>
      <trkpt lat="47.70671" lon="3.67401">
        <ele>267.8</ele>
        <time>2022-02-23T09:55:17Z</time>
      </trkpt>
      <trkpt lat="47.70671" lon="3.67403">
        <ele>267.9</ele>
        <time>2022-02-23T09:55:18Z</time>
      </trkpt>
      <trkpt lat="47.70671" lon="3.67404">
        <ele>268</ele>
        <time>2022-02-23T09:55:19Z</time>
      </trkpt>
      <trkpt lat="47.70671" lon="3.67406">
        <ele>268.1</ele>
        <time>2022-02-23T09:55:20Z</time>
      </trkpt>
      <trkpt lat="47.70671" lon="3.67408">
        <ele>268.2</ele>
        <time>2022-02-23T09:55:21Z</time>
      </trkpt>
      <trkpt lat="47.70671" lon="3.6741">
        <ele>268.3</ele>
        <time>2022-02-23T09:55:22Z</time>
      </trkpt>
      <trkpt lat="47.70671" lon="3.67412">
        <ele>268.5</ele>
        <time>2022-02-23T09:55:24Z</time>
      </trkpt>
      <trkpt lat="47.70671" lon="3.67414">
        <ele>268.6</ele>
        <time>2022-02-23T09:55:25Z</time>
      </trkpt>
      <trkpt lat="47.70671" lon="3.67416">
        <ele>268.7</ele>
        <time>2022-02-23T09:55:27Z</time>
      </trkpt>
      <trkpt lat="47.70671" lon="3.67418">
        <ele>268.8</ele>
        <time>2022-02-23T09:55:28Z</time>
      </trkpt>
      <trkpt lat="47.70671" lon="3.6742">
        <ele>268.9</ele>
        <time>2022-02-23T09:55:29Z</time>
      </trkpt>
      <trkpt lat="47.70671" lon="3.67422">
        <ele>269</ele>
        <time>2022-02-23T09:55:30Z</time>
      </trkpt>
      <trkpt lat="47.70671" lon="3.67423">
        <ele>269.1</ele>
        <time>2022-02-23T09:55:31Z</time>
      </trkpt>
      <trkpt lat="47.7067" lon="3.67425">
        <ele>269.2</ele>
        <time>2022-02-23T09:55:32Z</time>
      </trkpt>
      <trkpt lat="47.7067" lon="3.67427">
        <ele>269.4</ele>
        <time>2022-02-23T09:55:33Z</time>
      </trkpt>
      <trkpt lat="47.7067" lon="3.67428">
        <ele>269.4</ele>
        <time>2022-02-23T09:55:34Z</time>
      </trkpt>
      <trkpt lat="47.70669" lon="3.67431">
        <ele>269.6</ele>
        <time>2022-02-23T09:55:35Z</time>
      </trkpt>
      <trkpt lat="47.70668" lon="3.67433">
        <ele>269.7</ele>
        <time>2022-02-23T09:55:37Z</time>
      </trkpt>
      <trkpt lat="47.70668" lon="3.67435">
        <ele>269.9</ele>
        <time>2022-02-23T09:55:38Z</time>
      </trkpt>
      <trkpt lat="47.70668" lon="3.67437">
        <ele>270</ele>
        <time>2022-02-23T09:55:39Z</time>
      </trkpt>
      <trkpt lat="47.70668" lon="3.67438">
        <ele>270.1</ele>
        <time>2022-02-23T09:55:40Z</time>
      </trkpt>
      <trkpt lat="47.70667" lon="3.67441">
        <ele>270.2</ele>
        <time>2022-02-23T09:55:42Z</time>
      </trkpt>
      <trkpt lat="47.70667" lon="3.67443">
        <ele>270.4</ele>
        <time>2022-02-23T09:55:43Z</time>
      </trkpt>
      <trkpt lat="47.70667" lon="3.67444">
        <ele>270.5</ele>
        <time>2022-02-23T09:55:44Z</time>
      </trkpt>
      <trkpt lat="47.70667" lon="3.67447">
        <ele>270.6</ele>
        <time>2022-02-23T09:55:46Z</time>
      </trkpt>
      <trkpt lat="47.70667" lon="3.6745">
        <ele>270.8</ele>
        <time>2022-02-23T09:55:47Z</time>
      </trkpt>
      <trkpt lat="47.70667" lon="3.67452">
        <ele>270.9</ele>
        <time>2022-02-23T09:55:48Z</time>
      </trkpt>
      <trkpt lat="47.70667" lon="3.67453">
        <ele>271</ele>
        <time>2022-02-23T09:55:49Z</time>
      </trkpt>
      <trkpt lat="47.70666" lon="3.67455">
        <ele>271.1</ele>
        <time>2022-02-23T09:55:51Z</time>
      </trkpt>
      <trkpt lat="47.70666" lon="3.67457">
        <ele>271.3</ele>
        <time>2022-02-23T09:55:52Z</time>
      </trkpt>
      <trkpt lat="47.70666" lon="3.67459">
        <ele>271.4</ele>
        <time>2022-02-23T09:55:53Z</time>
      </trkpt>
      <trkpt lat="47.70666" lon="3.6746">
        <ele>271.5</ele>
        <time>2022-02-23T09:55:54Z</time>
      </trkpt>
      <trkpt lat="47.70665" lon="3.67463">
        <ele>271.7</ele>
        <time>2022-02-23T09:55:56Z</time>
      </trkpt>
      <trkpt lat="47.70665" lon="3.67466">
        <ele>271.9</ele>
        <time>2022-02-23T09:55:57Z</time>
      </trkpt>
      <trkpt lat="47.70665" lon="3.67468">
        <ele>272</ele>
        <time>2022-02-23T09:55:58Z</time>
      </trkpt>
      <trkpt lat="47.70665" lon="3.67469">
        <ele>272.1</ele>
        <time>2022-02-23T09:55:59Z</time>
      </trkpt>
      <trkpt lat="47.70665" lon="3.67471">
        <ele>272.2</ele>
        <time>2022-02-23T09:56:00Z</time>
      </trkpt>
      <trkpt lat="47.70665" lon="3.67473">
        <ele>272.3</ele>
        <time>2022-02-23T09:56:01Z</time>
      </trkpt>
      <trkpt lat="47.70665" lon="3.67475">
        <ele>272.4</ele>
        <time>2022-02-23T09:56:03Z</time>
      </trkpt>
      <trkpt lat="47.70664" lon="3.67478">
        <ele>272.7</ele>
        <time>2022-02-23T09:56:04Z</time>
      </trkpt>
      <trkpt lat="47.70664" lon="3.67479">
        <ele>272.7</ele>
        <time>2022-02-23T09:56:05Z</time>
      </trkpt>
      <trkpt lat="47.70664" lon="3.6748">
        <ele>272.8</ele>
        <time>2022-02-23T09:56:06Z</time>
      </trkpt>
      <trkpt lat="47.70664" lon="3.67481">
        <ele>272.9</ele>
        <time>2022-02-23T09:56:07Z</time>
      </trkpt>
      <trkpt lat="47.70664" lon="3.67482">
        <ele>272.9</ele>
        <time>2022-02-23T09:56:08Z</time>
      </trkpt>
      <trkpt lat="47.70664" lon="3.67484">
        <ele>273</ele>
        <time>2022-02-23T09:56:09Z</time>
      </trkpt>
      <trkpt lat="47.70665" lon="3.67485">
        <ele>273.1</ele>
        <time>2022-02-23T09:56:11Z</time>
      </trkpt>
      <trkpt lat="47.70665" lon="3.67487">
        <ele>273.2</ele>
        <time>2022-02-23T09:56:12Z</time>
      </trkpt>
      <trkpt lat="47.70665" lon="3.67488">
        <ele>273.3</ele>
        <time>2022-02-23T09:56:13Z</time>
      </trkpt>
      <trkpt lat="47.70664" lon="3.67491">
        <ele>273.5</ele>
        <time>2022-02-23T09:56:15Z</time>
      </trkpt>
      <trkpt lat="47.70664" lon="3.67491">
        <ele>273.5</ele>
        <time>2022-02-23T09:56:16Z</time>
      </trkpt>
      <trkpt lat="47.70663" lon="3.67493">
        <ele>273.6</ele>
        <time>2022-02-23T09:56:18Z</time>
      </trkpt>
      <trkpt lat="47.70663" lon="3.67495">
        <ele>273.7</ele>
        <time>2022-02-23T09:56:19Z</time>
      </trkpt>
      <trkpt lat="47.70662" lon="3.67496">
        <ele>273.8</ele>
        <time>2022-02-23T09:56:20Z</time>
      </trkpt>
      <trkpt lat="47.70662" lon="3.67497">
        <ele>273.9</ele>
        <time>2022-02-23T09:56:22Z</time>
      </trkpt>
      <trkpt lat="47.70662" lon="3.67499">
        <ele>274</ele>
        <time>2022-02-23T09:56:23Z</time>
      </trkpt>
      <trkpt lat="47.70662" lon="3.675">
        <ele>274</ele>
        <time>2022-02-23T09:56:24Z</time>
      </trkpt>
      <trkpt lat="47.70662" lon="3.67501">
        <ele>274.1</ele>
        <time>2022-02-23T09:56:25Z</time>
      </trkpt>
      <trkpt lat="47.70662" lon="3.67502">
        <ele>274.2</ele>
        <time>2022-02-23T09:56:26Z</time>
      </trkpt>
      <trkpt lat="47.70662" lon="3.67504">
        <ele>274.2</ele>
        <time>2022-02-23T09:56:28Z</time>
      </trkpt>
      <trkpt lat="47.70662" lon="3.67505">
        <ele>274.3</ele>
        <time>2022-02-23T09:56:29Z</time>
      </trkpt>
      <trkpt lat="47.70662" lon="3.67507">
        <ele>274.4</ele>
        <time>2022-02-23T09:56:30Z</time>
      </trkpt>
      <trkpt lat="47.70662" lon="3.67508">
        <ele>274.5</ele>
        <time>2022-02-23T09:56:31Z</time>
      </trkpt>
      <trkpt lat="47.70662" lon="3.6751">
        <ele>274.5</ele>
        <time>2022-02-23T09:56:32Z</time>
      </trkpt>
      <trkpt lat="47.70662" lon="3.67511">
        <ele>274.6</ele>
        <time>2022-02-23T09:56:33Z</time>
      </trkpt>
      <trkpt lat="47.70663" lon="3.67512">
        <ele>274.6</ele>
        <time>2022-02-23T09:56:34Z</time>
      </trkpt>
      <trkpt lat="47.70663" lon="3.67514">
        <ele>274.7</ele>
        <time>2022-02-23T09:56:35Z</time>
      </trkpt>
      <trkpt lat="47.70664" lon="3.67517">
        <ele>274.8</ele>
        <time>2022-02-23T09:56:36Z</time>
      </trkpt>
      <trkpt lat="47.70664" lon="3.67519">
        <ele>274.9</ele>
        <time>2022-02-23T09:56:38Z</time>
      </trkpt>
      <trkpt lat="47.70665" lon="3.6752">
        <ele>275</ele>
        <time>2022-02-23T09:56:39Z</time>
      </trkpt>
      <trkpt lat="47.70665" lon="3.67522">
        <ele>275.1</ele>
        <time>2022-02-23T09:56:40Z</time>
      </trkpt>
      <trkpt lat="47.70665" lon="3.67524">
        <ele>275.1</ele>
        <time>2022-02-23T09:56:41Z</time>
      </trkpt>
      <trkpt lat="47.70665" lon="3.67526">
        <ele>275.2</ele>
        <time>2022-02-23T09:56:43Z</time>
      </trkpt>
      <trkpt lat="47.70666" lon="3.67527">
        <ele>275.3</ele>
        <time>2022-02-23T09:56:44Z</time>
      </trkpt>
      <trkpt lat="47.70666" lon="3.67529">
        <ele>275.3</ele>
        <time>2022-02-23T09:56:45Z</time>
      </trkpt>
      <trkpt lat="47.70667" lon="3.67531">
        <ele>275.4</ele>
        <time>2022-02-23T09:56:46Z</time>
      </trkpt>
      <trkpt lat="47.70667" lon="3.67532">
        <ele>275.4</ele>
        <time>2022-02-23T09:56:47Z</time>
      </trkpt>
      <trkpt lat="47.70668" lon="3.67533">
        <ele>275.5</ele>
        <time>2022-02-23T09:56:48Z</time>
      </trkpt>
      <trkpt lat="47.70668" lon="3.67534">
        <ele>275.5</ele>
        <time>2022-02-23T09:56:49Z</time>
      </trkpt>
      <trkpt lat="47.70668" lon="3.67535">
        <ele>275.5</ele>
        <time>2022-02-23T09:56:50Z</time>
      </trkpt>
      <trkpt lat="47.70668" lon="3.67536">
        <ele>275.6</ele>
        <time>2022-02-23T09:56:51Z</time>
      </trkpt>
      <trkpt lat="47.70668" lon="3.67538">
        <ele>275.7</ele>
        <time>2022-02-23T09:56:52Z</time>
      </trkpt>
      <trkpt lat="47.70669" lon="3.6754">
        <ele>275.7</ele>
        <time>2022-02-23T09:56:53Z</time>
      </trkpt>
      <trkpt lat="47.70669" lon="3.67541">
        <ele>275.8</ele>
        <time>2022-02-23T09:56:54Z</time>
      </trkpt>
      <trkpt lat="47.7067" lon="3.67543">
        <ele>275.8</ele>
        <time>2022-02-23T09:56:56Z</time>
      </trkpt>
      <trkpt lat="47.7067" lon="3.67545">
        <ele>275.9</ele>
        <time>2022-02-23T09:56:57Z</time>
      </trkpt>
      <trkpt lat="47.70671" lon="3.67547">
        <ele>276</ele>
        <time>2022-02-23T09:56:58Z</time>
      </trkpt>
      <trkpt lat="47.70671" lon="3.6755">
        <ele>276.1</ele>
        <time>2022-02-23T09:57:00Z</time>
      </trkpt>
      <trkpt lat="47.70672" lon="3.67552">
        <ele>276.2</ele>
        <time>2022-02-23T09:57:01Z</time>
      </trkpt>
      <trkpt lat="47.70673" lon="3.67554">
        <ele>276.2</ele>
        <time>2022-02-23T09:57:02Z</time>
      </trkpt>
      <trkpt lat="47.70673" lon="3.67556">
        <ele>276.3</ele>
        <time>2022-02-23T09:57:03Z</time>
      </trkpt>
      <trkpt lat="47.70674" lon="3.67558">
        <ele>276.4</ele>
        <time>2022-02-23T09:57:04Z</time>
      </trkpt>
      <trkpt lat="47.70675" lon="3.67561">
        <ele>276.5</ele>
        <time>2022-02-23T09:57:06Z</time>
      </trkpt>
      <trkpt lat="47.70675" lon="3.67562">
        <ele>276.5</ele>
        <time>2022-02-23T09:57:07Z</time>
      </trkpt>
      <trkpt lat="47.70675" lon="3.67563">
        <ele>276.6</ele>
        <time>2022-02-23T09:57:08Z</time>
      </trkpt>
      <trkpt lat="47.70676" lon="3.67565">
        <ele>276.6</ele>
        <time>2022-02-23T09:57:09Z</time>
      </trkpt>
      <trkpt lat="47.70676" lon="3.67566">
        <ele>276.7</ele>
        <time>2022-02-23T09:57:10Z</time>
      </trkpt>
      <trkpt lat="47.70677" lon="3.67568">
        <ele>276.8</ele>
        <time>2022-02-23T09:57:11Z</time>
      </trkpt>
      <trkpt lat="47.70677" lon="3.67571">
        <ele>276.9</ele>
        <time>2022-02-23T09:57:12Z</time>
      </trkpt>
      <trkpt lat="47.70678" lon="3.67572">
        <ele>276.9</ele>
        <time>2022-02-23T09:57:14Z</time>
      </trkpt>
      <trkpt lat="47.70678" lon="3.67573">
        <ele>277</ele>
        <time>2022-02-23T09:57:15Z</time>
      </trkpt>
      <trkpt lat="47.70679" lon="3.67576">
        <ele>277.1</ele>
        <time>2022-02-23T09:57:16Z</time>
      </trkpt>
      <trkpt lat="47.70679" lon="3.67577">
        <ele>277.1</ele>
        <time>2022-02-23T09:57:17Z</time>
      </trkpt>
      <trkpt lat="47.70679" lon="3.67578">
        <ele>277.1</ele>
        <time>2022-02-23T09:57:18Z</time>
      </trkpt>
      <trkpt lat="47.70679" lon="3.6758">
        <ele>277.2</ele>
        <time>2022-02-23T09:57:19Z</time>
      </trkpt>
      <trkpt lat="47.7068" lon="3.67581">
        <ele>277.3</ele>
        <time>2022-02-23T09:57:20Z</time>
      </trkpt>
      <trkpt lat="47.7068" lon="3.67584">
        <ele>277.4</ele>
        <time>2022-02-23T09:57:22Z</time>
      </trkpt>
      <trkpt lat="47.70681" lon="3.67587">
        <ele>277.5</ele>
        <time>2022-02-23T09:57:23Z</time>
      </trkpt>
      <trkpt lat="47.70681" lon="3.67588">
        <ele>277.5</ele>
        <time>2022-02-23T09:57:24Z</time>
      </trkpt>
      <trkpt lat="47.70682" lon="3.67589">
        <ele>277.6</ele>
        <time>2022-02-23T09:57:25Z</time>
      </trkpt>
      <trkpt lat="47.70682" lon="3.6759">
        <ele>277.6</ele>
        <time>2022-02-23T09:57:26Z</time>
      </trkpt>
      <trkpt lat="47.70682" lon="3.67591">
        <ele>277.7</ele>
        <time>2022-02-23T09:57:27Z</time>
      </trkpt>
      <trkpt lat="47.70682" lon="3.67593">
        <ele>277.7</ele>
        <time>2022-02-23T09:57:28Z</time>
      </trkpt>
      <trkpt lat="47.70683" lon="3.67595">
        <ele>277.8</ele>
        <time>2022-02-23T09:57:29Z</time>
      </trkpt>
      <trkpt lat="47.70683" lon="3.67597">
        <ele>277.9</ele>
        <time>2022-02-23T09:57:31Z</time>
      </trkpt>
      <trkpt lat="47.70683" lon="3.67599">
        <ele>278</ele>
        <time>2022-02-23T09:57:32Z</time>
      </trkpt>
      <trkpt lat="47.70683" lon="3.676">
        <ele>278</ele>
        <time>2022-02-23T09:57:33Z</time>
      </trkpt>
      <trkpt lat="47.70684" lon="3.67602">
        <ele>278.1</ele>
        <time>2022-02-23T09:57:34Z</time>
      </trkpt>
      <trkpt lat="47.70684" lon="3.67603">
        <ele>278.1</ele>
        <time>2022-02-23T09:57:35Z</time>
      </trkpt>
      <trkpt lat="47.70685" lon="3.67604">
        <ele>278.2</ele>
        <time>2022-02-23T09:57:36Z</time>
      </trkpt>
      <trkpt lat="47.70685" lon="3.67607">
        <ele>278.3</ele>
        <time>2022-02-23T09:57:38Z</time>
      </trkpt>
      <trkpt lat="47.70686" lon="3.67609">
        <ele>278.4</ele>
        <time>2022-02-23T09:57:39Z</time>
      </trkpt>
      <trkpt lat="47.70686" lon="3.67611">
        <ele>278.4</ele>
        <time>2022-02-23T09:57:40Z</time>
      </trkpt>
      <trkpt lat="47.70686" lon="3.67612">
        <ele>278.5</ele>
        <time>2022-02-23T09:57:41Z</time>
      </trkpt>
      <trkpt lat="47.70686" lon="3.67613">
        <ele>278.5</ele>
        <time>2022-02-23T09:57:42Z</time>
      </trkpt>
      <trkpt lat="47.70687" lon="3.67615">
        <ele>278.6</ele>
        <time>2022-02-23T09:57:43Z</time>
      </trkpt>
      <trkpt lat="47.70687" lon="3.67617">
        <ele>278.7</ele>
        <time>2022-02-23T09:57:44Z</time>
      </trkpt>
      <trkpt lat="47.70688" lon="3.67618">
        <ele>278.8</ele>
        <time>2022-02-23T09:57:45Z</time>
      </trkpt>
      <trkpt lat="47.70688" lon="3.6762">
        <ele>278.8</ele>
        <time>2022-02-23T09:57:46Z</time>
      </trkpt>
      <trkpt lat="47.70689" lon="3.67621">
        <ele>278.9</ele>
        <time>2022-02-23T09:57:48Z</time>
      </trkpt>
      <trkpt lat="47.70689" lon="3.67623">
        <ele>279</ele>
        <time>2022-02-23T09:57:49Z</time>
      </trkpt>
      <trkpt lat="47.70689" lon="3.67625">
        <ele>279</ele>
        <time>2022-02-23T09:57:50Z</time>
      </trkpt>
      <trkpt lat="47.70689" lon="3.67627">
        <ele>279.1</ele>
        <time>2022-02-23T09:57:51Z</time>
      </trkpt>
      <trkpt lat="47.70689" lon="3.6763">
        <ele>279.3</ele>
        <time>2022-02-23T09:57:53Z</time>
      </trkpt>
      <trkpt lat="47.7069" lon="3.67631">
        <ele>279.3</ele>
        <time>2022-02-23T09:57:54Z</time>
      </trkpt>
      <trkpt lat="47.7069" lon="3.67634">
        <ele>279.4</ele>
        <time>2022-02-23T09:57:56Z</time>
      </trkpt>
      <trkpt lat="47.70691" lon="3.67635">
        <ele>279.5</ele>
        <time>2022-02-23T09:57:57Z</time>
      </trkpt>
      <trkpt lat="47.70691" lon="3.67636">
        <ele>279.6</ele>
        <time>2022-02-23T09:57:58Z</time>
      </trkpt>
      <trkpt lat="47.70692" lon="3.67638">
        <ele>279.6</ele>
        <time>2022-02-23T09:57:59Z</time>
      </trkpt>
      <trkpt lat="47.70692" lon="3.67639">
        <ele>279.7</ele>
        <time>2022-02-23T09:58:00Z</time>
      </trkpt>
      <trkpt lat="47.70692" lon="3.67641">
        <ele>279.8</ele>
        <time>2022-02-23T09:58:01Z</time>
      </trkpt>
      <trkpt lat="47.70693" lon="3.67642">
        <ele>279.8</ele>
        <time>2022-02-23T09:58:02Z</time>
      </trkpt>
      <trkpt lat="47.70694" lon="3.67645">
        <ele>280</ele>
        <time>2022-02-23T09:58:04Z</time>
      </trkpt>
      <trkpt lat="47.70694" lon="3.67646">
        <ele>280</ele>
        <time>2022-02-23T09:58:05Z</time>
      </trkpt>
      <trkpt lat="47.70694" lon="3.67648">
        <ele>280.1</ele>
        <time>2022-02-23T09:58:07Z</time>
      </trkpt>
      <trkpt lat="47.70695" lon="3.67649">
        <ele>280.2</ele>
        <time>2022-02-23T09:58:08Z</time>
      </trkpt>
      <trkpt lat="47.70695" lon="3.67651">
        <ele>280.2</ele>
        <time>2022-02-23T09:58:09Z</time>
      </trkpt>
      <trkpt lat="47.70695" lon="3.67652">
        <ele>280.3</ele>
        <time>2022-02-23T09:58:10Z</time>
      </trkpt>
      <trkpt lat="47.70695" lon="3.67654">
        <ele>280.4</ele>
        <time>2022-02-23T09:58:11Z</time>
      </trkpt>
      <trkpt lat="47.70696" lon="3.67655">
        <ele>280.4</ele>
        <time>2022-02-23T09:58:12Z</time>
      </trkpt>
      <trkpt lat="47.70696" lon="3.67657">
        <ele>280.5</ele>
        <time>2022-02-23T09:58:13Z</time>
      </trkpt>
      <trkpt lat="47.70696" lon="3.67658">
        <ele>280.6</ele>
        <time>2022-02-23T09:58:14Z</time>
      </trkpt>
      <trkpt lat="47.70697" lon="3.6766">
        <ele>280.6</ele>
        <time>2022-02-23T09:58:16Z</time>
      </trkpt>
      <trkpt lat="47.70697" lon="3.67661">
        <ele>280.7</ele>
        <time>2022-02-23T09:58:17Z</time>
      </trkpt>
      <trkpt lat="47.70697" lon="3.67663">
        <ele>280.8</ele>
        <time>2022-02-23T09:58:18Z</time>
      </trkpt>
      <trkpt lat="47.70698" lon="3.67665">
        <ele>280.9</ele>
        <time>2022-02-23T09:58:19Z</time>
      </trkpt>
      <trkpt lat="47.70699" lon="3.67666">
        <ele>280.9</ele>
        <time>2022-02-23T09:58:20Z</time>
      </trkpt>
      <trkpt lat="47.70699" lon="3.67667">
        <ele>281</ele>
        <time>2022-02-23T09:58:21Z</time>
      </trkpt>
      <trkpt lat="47.70699" lon="3.67668">
        <ele>281</ele>
        <time>2022-02-23T09:58:22Z</time>
      </trkpt>
      <trkpt lat="47.707" lon="3.6767">
        <ele>281.1</ele>
        <time>2022-02-23T09:58:24Z</time>
      </trkpt>
      <trkpt lat="47.707" lon="3.67671">
        <ele>281.2</ele>
        <time>2022-02-23T09:58:25Z</time>
      </trkpt>
      <trkpt lat="47.70701" lon="3.67672">
        <ele>281.2</ele>
        <time>2022-02-23T09:58:26Z</time>
      </trkpt>
      <trkpt lat="47.70701" lon="3.67674">
        <ele>281.3</ele>
        <time>2022-02-23T09:58:27Z</time>
      </trkpt>
      <trkpt lat="47.70701" lon="3.67675">
        <ele>281.4</ele>
        <time>2022-02-23T09:58:28Z</time>
      </trkpt>
      <trkpt lat="47.70702" lon="3.67677">
        <ele>281.4</ele>
        <time>2022-02-23T09:58:29Z</time>
      </trkpt>
      <trkpt lat="47.70702" lon="3.67678">
        <ele>281.5</ele>
        <time>2022-02-23T09:58:30Z</time>
      </trkpt>
      <trkpt lat="47.70702" lon="3.67681">
        <ele>281.6</ele>
        <time>2022-02-23T09:58:32Z</time>
      </trkpt>
      <trkpt lat="47.70703" lon="3.67682">
        <ele>281.7</ele>
        <time>2022-02-23T09:58:33Z</time>
      </trkpt>
      <trkpt lat="47.70703" lon="3.67683">
        <ele>281.8</ele>
        <time>2022-02-23T09:58:34Z</time>
      </trkpt>
      <trkpt lat="47.70703" lon="3.67685">
        <ele>281.8</ele>
        <time>2022-02-23T09:58:35Z</time>
      </trkpt>
      <trkpt lat="47.70704" lon="3.67687">
        <ele>281.9</ele>
        <time>2022-02-23T09:58:37Z</time>
      </trkpt>
      <trkpt lat="47.70704" lon="3.67688">
        <ele>282</ele>
        <time>2022-02-23T09:58:38Z</time>
      </trkpt>
      <trkpt lat="47.70705" lon="3.67689">
        <ele>282.1</ele>
        <time>2022-02-23T09:58:39Z</time>
      </trkpt>
      <trkpt lat="47.70705" lon="3.67691">
        <ele>282.2</ele>
        <time>2022-02-23T09:58:41Z</time>
      </trkpt>
      <trkpt lat="47.70705" lon="3.67693">
        <ele>282.2</ele>
        <time>2022-02-23T09:58:42Z</time>
      </trkpt>
      <trkpt lat="47.70706" lon="3.67695">
        <ele>282.3</ele>
        <time>2022-02-23T09:58:43Z</time>
      </trkpt>
      <trkpt lat="47.70706" lon="3.67697">
        <ele>282.4</ele>
        <time>2022-02-23T09:58:45Z</time>
      </trkpt>
      <trkpt lat="47.70706" lon="3.67699">
        <ele>282.5</ele>
        <time>2022-02-23T09:58:46Z</time>
      </trkpt>
      <trkpt lat="47.70707" lon="3.67701">
        <ele>282.6</ele>
        <time>2022-02-23T09:58:47Z</time>
      </trkpt>
      <trkpt lat="47.70707" lon="3.67702">
        <ele>282.7</ele>
        <time>2022-02-23T09:58:49Z</time>
      </trkpt>
      <trkpt lat="47.70707" lon="3.67704">
        <ele>282.7</ele>
        <time>2022-02-23T09:58:50Z</time>
      </trkpt>
      <trkpt lat="47.70708" lon="3.67705">
        <ele>282.8</ele>
        <time>2022-02-23T09:58:51Z</time>
      </trkpt>
      <trkpt lat="47.70708" lon="3.67707">
        <ele>282.9</ele>
        <time>2022-02-23T09:58:52Z</time>
      </trkpt>
      <trkpt lat="47.70709" lon="3.6771">
        <ele>283</ele>
        <time>2022-02-23T09:58:54Z</time>
      </trkpt>
      <trkpt lat="47.70709" lon="3.67711">
        <ele>283.1</ele>
        <time>2022-02-23T09:58:55Z</time>
      </trkpt>
      <trkpt lat="47.7071" lon="3.67712">
        <ele>283.1</ele>
        <time>2022-02-23T09:58:56Z</time>
      </trkpt>
      <trkpt lat="47.7071" lon="3.67715">
        <ele>283.2</ele>
        <time>2022-02-23T09:58:57Z</time>
      </trkpt>
      <trkpt lat="47.7071" lon="3.67716">
        <ele>283.3</ele>
        <time>2022-02-23T09:58:59Z</time>
      </trkpt>
      <trkpt lat="47.7071" lon="3.67718">
        <ele>283.3</ele>
        <time>2022-02-23T09:59:00Z</time>
      </trkpt>
      <trkpt lat="47.7071" lon="3.67719">
        <ele>283.4</ele>
        <time>2022-02-23T09:59:01Z</time>
      </trkpt>
      <trkpt lat="47.70711" lon="3.67722">
        <ele>283.5</ele>
        <time>2022-02-23T09:59:03Z</time>
      </trkpt>
      <trkpt lat="47.70711" lon="3.67724">
        <ele>283.6</ele>
        <time>2022-02-23T09:59:04Z</time>
      </trkpt>
      <trkpt lat="47.70711" lon="3.67725">
        <ele>283.6</ele>
        <time>2022-02-23T09:59:05Z</time>
      </trkpt>
      <trkpt lat="47.70711" lon="3.67727">
        <ele>283.7</ele>
        <time>2022-02-23T09:59:06Z</time>
      </trkpt>
      <trkpt lat="47.70711" lon="3.67728">
        <ele>283.7</ele>
        <time>2022-02-23T09:59:07Z</time>
      </trkpt>
      <trkpt lat="47.70711" lon="3.6773">
        <ele>283.8</ele>
        <time>2022-02-23T09:59:08Z</time>
      </trkpt>
      <trkpt lat="47.70712" lon="3.67732">
        <ele>283.9</ele>
        <time>2022-02-23T09:59:10Z</time>
      </trkpt>
      <trkpt lat="47.70712" lon="3.67734">
        <ele>284</ele>
        <time>2022-02-23T09:59:11Z</time>
      </trkpt>
      <trkpt lat="47.70712" lon="3.67736">
        <ele>284</ele>
        <time>2022-02-23T09:59:12Z</time>
      </trkpt>
      <trkpt lat="47.70712" lon="3.67737">
        <ele>284.1</ele>
        <time>2022-02-23T09:59:13Z</time>
      </trkpt>
      <trkpt lat="47.70712" lon="3.67739">
        <ele>284.1</ele>
        <time>2022-02-23T09:59:14Z</time>
      </trkpt>
      <trkpt lat="47.70712" lon="3.6774">
        <ele>284.2</ele>
        <time>2022-02-23T09:59:15Z</time>
      </trkpt>
      <trkpt lat="47.70713" lon="3.67741">
        <ele>284.2</ele>
        <time>2022-02-23T09:59:16Z</time>
      </trkpt>
      <trkpt lat="47.70713" lon="3.67742">
        <ele>284.3</ele>
        <time>2022-02-23T09:59:17Z</time>
      </trkpt>
      <trkpt lat="47.70714" lon="3.67743">
        <ele>284.3</ele>
        <time>2022-02-23T09:59:18Z</time>
      </trkpt>
      <trkpt lat="47.70714" lon="3.67743">
        <ele>284.3</ele>
        <time>2022-02-23T09:59:19Z</time>
      </trkpt>
      <trkpt lat="47.70714" lon="3.67744">
        <ele>284.4</ele>
        <time>2022-02-23T09:59:20Z</time>
      </trkpt>
      <trkpt lat="47.70714" lon="3.67745">
        <ele>284.4</ele>
        <time>2022-02-23T09:59:21Z</time>
      </trkpt>
      <trkpt lat="47.70714" lon="3.67746">
        <ele>284.4</ele>
        <time>2022-02-23T09:59:22Z</time>
      </trkpt>
      <trkpt lat="47.70714" lon="3.67747">
        <ele>284.5</ele>
        <time>2022-02-23T09:59:23Z</time>
      </trkpt>
      <trkpt lat="47.70714" lon="3.67748">
        <ele>284.5</ele>
        <time>2022-02-23T09:59:24Z</time>
      </trkpt>
      <trkpt lat="47.70714" lon="3.6775">
        <ele>284.6</ele>
        <time>2022-02-23T09:59:26Z</time>
      </trkpt>
      <trkpt lat="47.70714" lon="3.67752">
        <ele>284.6</ele>
        <time>2022-02-23T09:59:27Z</time>
      </trkpt>
      <trkpt lat="47.70715" lon="3.67754">
        <ele>284.7</ele>
        <time>2022-02-23T09:59:28Z</time>
      </trkpt>
      <trkpt lat="47.70715" lon="3.67756">
        <ele>284.8</ele>
        <time>2022-02-23T09:59:29Z</time>
      </trkpt>
      <trkpt lat="47.70715" lon="3.67757">
        <ele>284.8</ele>
        <time>2022-02-23T09:59:30Z</time>
      </trkpt>
      <trkpt lat="47.70715" lon="3.67759">
        <ele>284.9</ele>
        <time>2022-02-23T09:59:31Z</time>
      </trkpt>
      <trkpt lat="47.70716" lon="3.67761">
        <ele>285</ele>
        <time>2022-02-23T09:59:32Z</time>
      </trkpt>
      <trkpt lat="47.70716" lon="3.67763">
        <ele>285.1</ele>
        <time>2022-02-23T09:59:33Z</time>
      </trkpt>
      <trkpt lat="47.70717" lon="3.67764">
        <ele>284.9</ele>
        <time>2022-02-23T09:59:35Z</time>
      </trkpt>
      <trkpt lat="47.70717" lon="3.67764">
        <ele>284.8</ele>
        <time>2022-02-23T09:59:36Z</time>
      </trkpt>
      <trkpt lat="47.70718" lon="3.67763">
        <ele>284.8</ele>
        <time>2022-02-23T09:59:37Z</time>
      </trkpt>
      <trkpt lat="47.70718" lon="3.67763">
        <ele>284.7</ele>
        <time>2022-02-23T09:59:38Z</time>
      </trkpt>
      <trkpt lat="47.70718" lon="3.67763">
        <ele>284.7</ele>
        <time>2022-02-23T09:59:39Z</time>
      </trkpt>
      <trkpt lat="47.70718" lon="3.67763">
        <ele>284.7</ele>
        <time>2022-02-23T09:59:40Z</time>
      </trkpt>
      <trkpt lat="47.70718" lon="3.67763">
        <ele>284.7</ele>
        <time>2022-02-23T09:59:41Z</time>
      </trkpt>
      <trkpt lat="47.70718" lon="3.67762">
        <ele>284.7</ele>
        <time>2022-02-23T09:59:42Z</time>
      </trkpt>
      <trkpt lat="47.70718" lon="3.67762">
        <ele>284.7</ele>
        <time>2022-02-23T09:59:45Z</time>
      </trkpt>
      <trkpt lat="47.70718" lon="3.67762">
        <ele>284.6</ele>
        <time>2022-02-23T09:59:46Z</time>
      </trkpt>
      <trkpt lat="47.70719" lon="3.67762">
        <ele>284.5</ele>
        <time>2022-02-23T09:59:48Z</time>
      </trkpt>
      <trkpt lat="47.7072" lon="3.67761">
        <ele>284.4</ele>
        <time>2022-02-23T09:59:49Z</time>
      </trkpt>
      <trkpt lat="47.70721" lon="3.6776">
        <ele>284.2</ele>
        <time>2022-02-23T09:59:51Z</time>
      </trkpt>
      <trkpt lat="47.70722" lon="3.67759">
        <ele>284.1</ele>
        <time>2022-02-23T09:59:52Z</time>
      </trkpt>
      <trkpt lat="47.70722" lon="3.67759">
        <ele>284.1</ele>
        <time>2022-02-23T09:59:53Z</time>
      </trkpt>
      <trkpt lat="47.70722" lon="3.67758">
        <ele>284</ele>
        <time>2022-02-23T09:59:54Z</time>
      </trkpt>
      <trkpt lat="47.70722" lon="3.67758">
        <ele>284</ele>
        <time>2022-02-23T09:59:55Z</time>
      </trkpt>
      <trkpt lat="47.70722" lon="3.67758">
        <ele>284</ele>
        <time>2022-02-23T09:59:56Z</time>
      </trkpt>
      <trkpt lat="47.70721" lon="3.67758">
        <ele>284</ele>
        <time>2022-02-23T09:59:57Z</time>
      </trkpt>
      <trkpt lat="47.70721" lon="3.67758">
        <ele>283.9</ele>
        <time>2022-02-23T09:59:58Z</time>
      </trkpt>
      <trkpt lat="47.70721" lon="3.67757">
        <ele>283.9</ele>
        <time>2022-02-23T09:59:59Z</time>
      </trkpt>
      <trkpt lat="47.70721" lon="3.67757">
        <ele>283.9</ele>
        <time>2022-02-23T10:00:00Z</time>
      </trkpt>
      <trkpt lat="47.70721" lon="3.67757">
        <ele>283.9</ele>
        <time>2022-02-23T10:00:01Z</time>
      </trkpt>
      <trkpt lat="47.70721" lon="3.67757">
        <ele>283.8</ele>
        <time>2022-02-23T10:00:02Z</time>
      </trkpt>
      <trkpt lat="47.70721" lon="3.67756">
        <ele>283.8</ele>
        <time>2022-02-23T10:00:03Z</time>
      </trkpt>
      <trkpt lat="47.70721" lon="3.67756">
        <ele>283.8</ele>
        <time>2022-02-23T10:00:04Z</time>
      </trkpt>
      <trkpt lat="47.70721" lon="3.67756">
        <ele>283.7</ele>
        <time>2022-02-23T10:00:05Z</time>
      </trkpt>
      <trkpt lat="47.70723" lon="3.67753">
        <ele>283.4</ele>
        <time>2022-02-23T10:00:07Z</time>
      </trkpt>
      <trkpt lat="47.70723" lon="3.67753">
        <ele>283.3</ele>
        <time>2022-02-23T10:00:08Z</time>
      </trkpt>
      <trkpt lat="47.70724" lon="3.67752">
        <ele>283.2</ele>
        <time>2022-02-23T10:00:09Z</time>
      </trkpt>
      <trkpt lat="47.70725" lon="3.6775">
        <ele>282.9</ele>
        <time>2022-02-23T10:00:11Z</time>
      </trkpt>
      <trkpt lat="47.70726" lon="3.67749">
        <ele>282.8</ele>
        <time>2022-02-23T10:00:12Z</time>
      </trkpt>
      <trkpt lat="47.70727" lon="3.67748">
        <ele>282.7</ele>
        <time>2022-02-23T10:00:13Z</time>
      </trkpt>
      <trkpt lat="47.70728" lon="3.67747">
        <ele>282.5</ele>
        <time>2022-02-23T10:00:14Z</time>
      </trkpt>
      <trkpt lat="47.70729" lon="3.67745">
        <ele>282.4</ele>
        <time>2022-02-23T10:00:16Z</time>
      </trkpt>
      <trkpt lat="47.70729" lon="3.67744">
        <ele>282.2</ele>
        <time>2022-02-23T10:00:17Z</time>
      </trkpt>
      <trkpt lat="47.70729" lon="3.67743">
        <ele>282.1</ele>
        <time>2022-02-23T10:00:18Z</time>
      </trkpt>
      <trkpt lat="47.7073" lon="3.67741">
        <ele>282</ele>
        <time>2022-02-23T10:00:19Z</time>
      </trkpt>
      <trkpt lat="47.70729" lon="3.6774">
        <ele>281.8</ele>
        <time>2022-02-23T10:00:20Z</time>
      </trkpt>
      <trkpt lat="47.70729" lon="3.67738">
        <ele>281.7</ele>
        <time>2022-02-23T10:00:21Z</time>
      </trkpt>
      <trkpt lat="47.70729" lon="3.67736">
        <ele>281.5</ele>
        <time>2022-02-23T10:00:22Z</time>
      </trkpt>
      <trkpt lat="47.70729" lon="3.67735">
        <ele>281.4</ele>
        <time>2022-02-23T10:00:23Z</time>
      </trkpt>
      <trkpt lat="47.70729" lon="3.67734">
        <ele>281.3</ele>
        <time>2022-02-23T10:00:25Z</time>
      </trkpt>
      <trkpt lat="47.70729" lon="3.67733">
        <ele>281.2</ele>
        <time>2022-02-23T10:00:26Z</time>
      </trkpt>
      <trkpt lat="47.70729" lon="3.67732">
        <ele>281.1</ele>
        <time>2022-02-23T10:00:27Z</time>
      </trkpt>
      <trkpt lat="47.70729" lon="3.67732">
        <ele>281.1</ele>
        <time>2022-02-23T10:00:28Z</time>
      </trkpt>
      <trkpt lat="47.7073" lon="3.67733">
        <ele>281.1</ele>
        <time>2022-02-23T10:00:29Z</time>
      </trkpt>
      <trkpt lat="47.7073" lon="3.67733">
        <ele>281.1</ele>
        <time>2022-02-23T10:00:30Z</time>
      </trkpt>
      <trkpt lat="47.7073" lon="3.67733">
        <ele>281.1</ele>
        <time>2022-02-23T10:00:31Z</time>
      </trkpt>
      <trkpt lat="47.7073" lon="3.67733">
        <ele>281</ele>
        <time>2022-02-23T10:00:32Z</time>
      </trkpt>
      <trkpt lat="47.7073" lon="3.67733">
        <ele>281</ele>
        <time>2022-02-23T10:00:33Z</time>
      </trkpt>
      <trkpt lat="47.7073" lon="3.67733">
        <ele>281</ele>
        <time>2022-02-23T10:00:34Z</time>
      </trkpt>
      <trkpt lat="47.7073" lon="3.67734">
        <ele>281</ele>
        <time>2022-02-23T10:00:36Z</time>
      </trkpt>
      <trkpt lat="47.7073" lon="3.67734">
        <ele>281</ele>
        <time>2022-02-23T10:00:37Z</time>
      </trkpt>
      <trkpt lat="47.7073" lon="3.67734">
        <ele>280.9</ele>
        <time>2022-02-23T10:00:38Z</time>
      </trkpt>
      <trkpt lat="47.7073" lon="3.67734">
        <ele>280.9</ele>
        <time>2022-02-23T10:00:39Z</time>
      </trkpt>
      <trkpt lat="47.70731" lon="3.67734">
        <ele>280.9</ele>
        <time>2022-02-23T10:00:40Z</time>
      </trkpt>
      <trkpt lat="47.70731" lon="3.67734">
        <ele>280.9</ele>
        <time>2022-02-23T10:00:41Z</time>
      </trkpt>
      <trkpt lat="47.70731" lon="3.67734">
        <ele>280.9</ele>
        <time>2022-02-23T10:00:42Z</time>
      </trkpt>
      <trkpt lat="47.70731" lon="3.67735">
        <ele>280.8</ele>
        <time>2022-02-23T10:00:43Z</time>
      </trkpt>
      <trkpt lat="47.70731" lon="3.67735">
        <ele>280.8</ele>
        <time>2022-02-23T10:00:44Z</time>
      </trkpt>
      <trkpt lat="47.70731" lon="3.67735">
        <ele>280.8</ele>
        <time>2022-02-23T10:00:45Z</time>
      </trkpt>
      <trkpt lat="47.70731" lon="3.67735">
        <ele>280.8</ele>
        <time>2022-02-23T10:00:46Z</time>
      </trkpt>
      <trkpt lat="47.70731" lon="3.67735">
        <ele>280.8</ele>
        <time>2022-02-23T10:00:47Z</time>
      </trkpt>
      <trkpt lat="47.70731" lon="3.67735">
        <ele>280.8</ele>
        <time>2022-02-23T10:00:48Z</time>
      </trkpt>
      <trkpt lat="47.70731" lon="3.67736">
        <ele>280.7</ele>
        <time>2022-02-23T10:00:49Z</time>
      </trkpt>
      <trkpt lat="47.70731" lon="3.67736">
        <ele>280.7</ele>
        <time>2022-02-23T10:00:50Z</time>
      </trkpt>
      <trkpt lat="47.70732" lon="3.67736">
        <ele>280.7</ele>
        <time>2022-02-23T10:00:52Z</time>
      </trkpt>
      <trkpt lat="47.70732" lon="3.67736">
        <ele>280.7</ele>
        <time>2022-02-23T10:00:53Z</time>
      </trkpt>
      <trkpt lat="47.70732" lon="3.67736">
        <ele>280.7</ele>
        <time>2022-02-23T10:00:54Z</time>
      </trkpt>
      <trkpt lat="47.70732" lon="3.67736">
        <ele>280.6</ele>
        <time>2022-02-23T10:00:55Z</time>
      </trkpt>
      <trkpt lat="47.70734" lon="3.67737">
        <ele>280.4</ele>
        <time>2022-02-23T10:00:56Z</time>
      </trkpt>
      <trkpt lat="47.70735" lon="3.67737">
        <ele>280.2</ele>
        <time>2022-02-23T10:00:57Z</time>
      </trkpt>
      <trkpt lat="47.70736" lon="3.67738">
        <ele>280.1</ele>
        <time>2022-02-23T10:00:58Z</time>
      </trkpt>
      <trkpt lat="47.70738" lon="3.67737">
        <ele>279.8</ele>
        <time>2022-02-23T10:00:59Z</time>
      </trkpt>
      <trkpt lat="47.70739" lon="3.67737">
        <ele>279.7</ele>
        <time>2022-02-23T10:01:01Z</time>
      </trkpt>
      <trkpt lat="47.7074" lon="3.67737">
        <ele>279.5</ele>
        <time>2022-02-23T10:01:02Z</time>
      </trkpt>
      <trkpt lat="47.70741" lon="3.67737">
        <ele>279.4</ele>
        <time>2022-02-23T10:01:03Z</time>
      </trkpt>
      <trkpt lat="47.70742" lon="3.67736">
        <ele>279.2</ele>
        <time>2022-02-23T10:01:04Z</time>
      </trkpt>
      <trkpt lat="47.70743" lon="3.67736">
        <ele>279.1</ele>
        <time>2022-02-23T10:01:05Z</time>
      </trkpt>
      <trkpt lat="47.70745" lon="3.67736">
        <ele>278.9</ele>
        <time>2022-02-23T10:01:07Z</time>
      </trkpt>
      <trkpt lat="47.70746" lon="3.67736">
        <ele>278.8</ele>
        <time>2022-02-23T10:01:08Z</time>
      </trkpt>
      <trkpt lat="47.70747" lon="3.67737">
        <ele>276.6</ele>
        <time>2022-02-23T10:01:09Z</time>
      </trkpt>
      <trkpt lat="47.70748" lon="3.67738">
        <ele>276.5</ele>
        <time>2022-02-23T10:01:10Z</time>
      </trkpt>
      <trkpt lat="47.7075" lon="3.6774">
        <ele>276.5</ele>
        <time>2022-02-23T10:01:12Z</time>
      </trkpt>
      <trkpt lat="47.70751" lon="3.67741">
        <ele>276.5</ele>
        <time>2022-02-23T10:01:13Z</time>
      </trkpt>
      <trkpt lat="47.70752" lon="3.67741">
        <ele>276.5</ele>
        <time>2022-02-23T10:01:14Z</time>
      </trkpt>
      <trkpt lat="47.70753" lon="3.67743">
        <ele>276.5</ele>
        <time>2022-02-23T10:01:15Z</time>
      </trkpt>
      <trkpt lat="47.70754" lon="3.67744">
        <ele>276.4</ele>
        <time>2022-02-23T10:01:17Z</time>
      </trkpt>
      <trkpt lat="47.70755" lon="3.67746">
        <ele>276.4</ele>
        <time>2022-02-23T10:01:18Z</time>
      </trkpt>
      <trkpt lat="47.70756" lon="3.67748">
        <ele>276.3</ele>
        <time>2022-02-23T10:01:19Z</time>
      </trkpt>
      <trkpt lat="47.70757" lon="3.67749">
        <ele>276.3</ele>
        <time>2022-02-23T10:01:20Z</time>
      </trkpt>
      <trkpt lat="47.70758" lon="3.67751">
        <ele>276.3</ele>
        <time>2022-02-23T10:01:21Z</time>
      </trkpt>
      <trkpt lat="47.70759" lon="3.67753">
        <ele>276.2</ele>
        <time>2022-02-23T10:01:23Z</time>
      </trkpt>
      <trkpt lat="47.7076" lon="3.67754">
        <ele>276.2</ele>
        <time>2022-02-23T10:01:24Z</time>
      </trkpt>
      <trkpt lat="47.7076" lon="3.67757">
        <ele>276.1</ele>
        <time>2022-02-23T10:01:25Z</time>
      </trkpt>
      <trkpt lat="47.70761" lon="3.67758">
        <ele>276.1</ele>
        <time>2022-02-23T10:01:26Z</time>
      </trkpt>
      <trkpt lat="47.70762" lon="3.6776">
        <ele>276</ele>
        <time>2022-02-23T10:01:28Z</time>
      </trkpt>
      <trkpt lat="47.70762" lon="3.67761">
        <ele>276</ele>
        <time>2022-02-23T10:01:29Z</time>
      </trkpt>
      <trkpt lat="47.70763" lon="3.67762">
        <ele>276</ele>
        <time>2022-02-23T10:01:30Z</time>
      </trkpt>
      <trkpt lat="47.70763" lon="3.67763">
        <ele>276</ele>
        <time>2022-02-23T10:01:31Z</time>
      </trkpt>
      <trkpt lat="47.70764" lon="3.67765">
        <ele>275.9</ele>
        <time>2022-02-23T10:01:32Z</time>
      </trkpt>
      <trkpt lat="47.70766" lon="3.67767">
        <ele>275.9</ele>
        <time>2022-02-23T10:01:34Z</time>
      </trkpt>
      <trkpt lat="47.70766" lon="3.67768">
        <ele>275.8</ele>
        <time>2022-02-23T10:01:35Z</time>
      </trkpt>
      <trkpt lat="47.70767" lon="3.67769">
        <ele>275.8</ele>
        <time>2022-02-23T10:01:36Z</time>
      </trkpt>
      <trkpt lat="47.70768" lon="3.67771">
        <ele>275.8</ele>
        <time>2022-02-23T10:01:38Z</time>
      </trkpt>
      <trkpt lat="47.70769" lon="3.67772">
        <ele>275.7</ele>
        <time>2022-02-23T10:01:39Z</time>
      </trkpt>
      <trkpt lat="47.7077" lon="3.67775">
        <ele>275.7</ele>
        <time>2022-02-23T10:01:40Z</time>
      </trkpt>
      <trkpt lat="47.70771" lon="3.67776">
        <ele>275.7</ele>
        <time>2022-02-23T10:01:41Z</time>
      </trkpt>
      <trkpt lat="47.70771" lon="3.67776">
        <ele>275.7</ele>
        <time>2022-02-23T10:01:42Z</time>
      </trkpt>
      <trkpt lat="47.70772" lon="3.67778">
        <ele>275.7</ele>
        <time>2022-02-23T10:01:44Z</time>
      </trkpt>
      <trkpt lat="47.70772" lon="3.67779">
        <ele>275.7</ele>
        <time>2022-02-23T10:01:45Z</time>
      </trkpt>
      <trkpt lat="47.70773" lon="3.6778">
        <ele>275.8</ele>
        <time>2022-02-23T10:01:46Z</time>
      </trkpt>
      <trkpt lat="47.70774" lon="3.67781">
        <ele>275.8</ele>
        <time>2022-02-23T10:01:48Z</time>
      </trkpt>
      <trkpt lat="47.70775" lon="3.67782">
        <ele>275.8</ele>
        <time>2022-02-23T10:01:49Z</time>
      </trkpt>
      <trkpt lat="47.70775" lon="3.67783">
        <ele>275.8</ele>
        <time>2022-02-23T10:01:50Z</time>
      </trkpt>
      <trkpt lat="47.70777" lon="3.67786">
        <ele>276</ele>
        <time>2022-02-23T10:01:51Z</time>
      </trkpt>
      <trkpt lat="47.70778" lon="3.67787">
        <ele>276</ele>
        <time>2022-02-23T10:01:53Z</time>
      </trkpt>
      <trkpt lat="47.70779" lon="3.67788">
        <ele>276.1</ele>
        <time>2022-02-23T10:01:54Z</time>
      </trkpt>
      <trkpt lat="47.70779" lon="3.67789">
        <ele>276.2</ele>
        <time>2022-02-23T10:01:55Z</time>
      </trkpt>
      <trkpt lat="47.7078" lon="3.6779">
        <ele>276.3</ele>
        <time>2022-02-23T10:01:56Z</time>
      </trkpt>
      <trkpt lat="47.70782" lon="3.67791">
        <ele>276.5</ele>
        <time>2022-02-23T10:01:58Z</time>
      </trkpt>
      <trkpt lat="47.70783" lon="3.67791">
        <ele>276.6</ele>
        <time>2022-02-23T10:01:59Z</time>
      </trkpt>
      <trkpt lat="47.70784" lon="3.67792">
        <ele>276.8</ele>
        <time>2022-02-23T10:02:00Z</time>
      </trkpt>
      <trkpt lat="47.70785" lon="3.67793">
        <ele>276.9</ele>
        <time>2022-02-23T10:02:01Z</time>
      </trkpt>
      <trkpt lat="47.70785" lon="3.67794">
        <ele>277</ele>
        <time>2022-02-23T10:02:02Z</time>
      </trkpt>
      <trkpt lat="47.70786" lon="3.67795">
        <ele>277.2</ele>
        <time>2022-02-23T10:02:03Z</time>
      </trkpt>
      <trkpt lat="47.70787" lon="3.67796">
        <ele>277.4</ele>
        <time>2022-02-23T10:02:04Z</time>
      </trkpt>
      <trkpt lat="47.70788" lon="3.67797">
        <ele>277.6</ele>
        <time>2022-02-23T10:02:06Z</time>
      </trkpt>
      <trkpt lat="47.70789" lon="3.67798">
        <ele>277.8</ele>
        <time>2022-02-23T10:02:07Z</time>
      </trkpt>
      <trkpt lat="47.70789" lon="3.67799">
        <ele>278</ele>
        <time>2022-02-23T10:02:08Z</time>
      </trkpt>
      <trkpt lat="47.7079" lon="3.678">
        <ele>278.2</ele>
        <time>2022-02-23T10:02:09Z</time>
      </trkpt>
      <trkpt lat="47.70791" lon="3.67801">
        <ele>278.4</ele>
        <time>2022-02-23T10:02:10Z</time>
      </trkpt>
      <trkpt lat="47.70793" lon="3.67802">
        <ele>278.8</ele>
        <time>2022-02-23T10:02:11Z</time>
      </trkpt>
      <trkpt lat="47.70794" lon="3.67803">
        <ele>278.9</ele>
        <time>2022-02-23T10:02:12Z</time>
      </trkpt>
      <trkpt lat="47.70795" lon="3.67803">
        <ele>279.1</ele>
        <time>2022-02-23T10:02:13Z</time>
      </trkpt>
      <trkpt lat="47.70797" lon="3.67805">
        <ele>279.5</ele>
        <time>2022-02-23T10:02:15Z</time>
      </trkpt>
      <trkpt lat="47.70797" lon="3.67805">
        <ele>279.7</ele>
        <time>2022-02-23T10:02:16Z</time>
      </trkpt>
      <trkpt lat="47.70798" lon="3.67806">
        <ele>279.8</ele>
        <time>2022-02-23T10:02:17Z</time>
      </trkpt>
      <trkpt lat="47.70799" lon="3.67807">
        <ele>280</ele>
        <time>2022-02-23T10:02:19Z</time>
      </trkpt>
      <trkpt lat="47.708" lon="3.67808">
        <ele>280.3</ele>
        <time>2022-02-23T10:02:20Z</time>
      </trkpt>
      <trkpt lat="47.70801" lon="3.67809">
        <ele>280.4</ele>
        <time>2022-02-23T10:02:21Z</time>
      </trkpt>
      <trkpt lat="47.70802" lon="3.67809">
        <ele>280.6</ele>
        <time>2022-02-23T10:02:23Z</time>
      </trkpt>
      <trkpt lat="47.70803" lon="3.6781">
        <ele>280.7</ele>
        <time>2022-02-23T10:02:24Z</time>
      </trkpt>
      <trkpt lat="47.70804" lon="3.67811">
        <ele>280.8</ele>
        <time>2022-02-23T10:02:25Z</time>
      </trkpt>
      <trkpt lat="47.70805" lon="3.67814">
        <ele>281.1</ele>
        <time>2022-02-23T10:02:26Z</time>
      </trkpt>
      <trkpt lat="47.70806" lon="3.67814">
        <ele>281.1</ele>
        <time>2022-02-23T10:02:28Z</time>
      </trkpt>
      <trkpt lat="47.70806" lon="3.67815">
        <ele>281.2</ele>
        <time>2022-02-23T10:02:29Z</time>
      </trkpt>
      <trkpt lat="47.70807" lon="3.67817">
        <ele>281.3</ele>
        <time>2022-02-23T10:02:30Z</time>
      </trkpt>
      <trkpt lat="47.70807" lon="3.67817">
        <ele>281.4</ele>
        <time>2022-02-23T10:02:31Z</time>
      </trkpt>
      <trkpt lat="47.70808" lon="3.67818">
        <ele>281.5</ele>
        <time>2022-02-23T10:02:32Z</time>
      </trkpt>
      <trkpt lat="47.70809" lon="3.67819">
        <ele>281.5</ele>
        <time>2022-02-23T10:02:33Z</time>
      </trkpt>
      <trkpt lat="47.70809" lon="3.6782">
        <ele>281.6</ele>
        <time>2022-02-23T10:02:34Z</time>
      </trkpt>
      <trkpt lat="47.70811" lon="3.67821">
        <ele>281.6</ele>
        <time>2022-02-23T10:02:35Z</time>
      </trkpt>
      <trkpt lat="47.70813" lon="3.67822">
        <ele>281.7</ele>
        <time>2022-02-23T10:02:37Z</time>
      </trkpt>
      <trkpt lat="47.70814" lon="3.67823">
        <ele>281.7</ele>
        <time>2022-02-23T10:02:38Z</time>
      </trkpt>
      <trkpt lat="47.70814" lon="3.67824">
        <ele>281.8</ele>
        <time>2022-02-23T10:02:39Z</time>
      </trkpt>
      <trkpt lat="47.70816" lon="3.67825">
        <ele>281.8</ele>
        <time>2022-02-23T10:02:40Z</time>
      </trkpt>
      <trkpt lat="47.70817" lon="3.67826">
        <ele>281.8</ele>
        <time>2022-02-23T10:02:42Z</time>
      </trkpt>
      <trkpt lat="47.70818" lon="3.67826">
        <ele>281.8</ele>
        <time>2022-02-23T10:02:43Z</time>
      </trkpt>
      <trkpt lat="47.70818" lon="3.67827">
        <ele>281.8</ele>
        <time>2022-02-23T10:02:44Z</time>
      </trkpt>
      <trkpt lat="47.70819" lon="3.67828">
        <ele>281.8</ele>
        <time>2022-02-23T10:02:45Z</time>
      </trkpt>
      <trkpt lat="47.7082" lon="3.67829">
        <ele>281.8</ele>
        <time>2022-02-23T10:02:46Z</time>
      </trkpt>
      <trkpt lat="47.70822" lon="3.67831">
        <ele>281.8</ele>
        <time>2022-02-23T10:02:47Z</time>
      </trkpt>
      <trkpt lat="47.70822" lon="3.67832">
        <ele>281.8</ele>
        <time>2022-02-23T10:02:49Z</time>
      </trkpt>
      <trkpt lat="47.70823" lon="3.67832">
        <ele>281.8</ele>
        <time>2022-02-23T10:02:50Z</time>
      </trkpt>
      <trkpt lat="47.70824" lon="3.67833">
        <ele>281.8</ele>
        <time>2022-02-23T10:02:51Z</time>
      </trkpt>
      <trkpt lat="47.70824" lon="3.67834">
        <ele>281.8</ele>
        <time>2022-02-23T10:02:52Z</time>
      </trkpt>
      <trkpt lat="47.70825" lon="3.67835">
        <ele>281.8</ele>
        <time>2022-02-23T10:02:54Z</time>
      </trkpt>
      <trkpt lat="47.70826" lon="3.67836">
        <ele>281.8</ele>
        <time>2022-02-23T10:02:55Z</time>
      </trkpt>
      <trkpt lat="47.70827" lon="3.67837">
        <ele>281.8</ele>
        <time>2022-02-23T10:02:56Z</time>
      </trkpt>
      <trkpt lat="47.70828" lon="3.67838">
        <ele>281.8</ele>
        <time>2022-02-23T10:02:57Z</time>
      </trkpt>
      <trkpt lat="47.70829" lon="3.67839">
        <ele>281.9</ele>
        <time>2022-02-23T10:02:58Z</time>
      </trkpt>
      <trkpt lat="47.70829" lon="3.67839">
        <ele>281.9</ele>
        <time>2022-02-23T10:02:59Z</time>
      </trkpt>
      <trkpt lat="47.7083" lon="3.67841">
        <ele>281.9</ele>
        <time>2022-02-23T10:03:00Z</time>
      </trkpt>
      <trkpt lat="47.70832" lon="3.67843">
        <ele>281.9</ele>
        <time>2022-02-23T10:03:01Z</time>
      </trkpt>
      <trkpt lat="47.70832" lon="3.67843">
        <ele>282</ele>
        <time>2022-02-23T10:03:03Z</time>
      </trkpt>
      <trkpt lat="47.70833" lon="3.67844">
        <ele>282</ele>
        <time>2022-02-23T10:03:04Z</time>
      </trkpt>
      <trkpt lat="47.70834" lon="3.67845">
        <ele>282</ele>
        <time>2022-02-23T10:03:05Z</time>
      </trkpt>
      <trkpt lat="47.70835" lon="3.67846">
        <ele>282</ele>
        <time>2022-02-23T10:03:06Z</time>
      </trkpt>
      <trkpt lat="47.70836" lon="3.67847">
        <ele>282.1</ele>
        <time>2022-02-23T10:03:07Z</time>
      </trkpt>
      <trkpt lat="47.70837" lon="3.67848">
        <ele>282.1</ele>
        <time>2022-02-23T10:03:08Z</time>
      </trkpt>
      <trkpt lat="47.70837" lon="3.67849">
        <ele>282.1</ele>
        <time>2022-02-23T10:03:09Z</time>
      </trkpt>
      <trkpt lat="47.70838" lon="3.6785">
        <ele>282.1</ele>
        <time>2022-02-23T10:03:10Z</time>
      </trkpt>
      <trkpt lat="47.70839" lon="3.67852">
        <ele>282.1</ele>
        <time>2022-02-23T10:03:11Z</time>
      </trkpt>
      <trkpt lat="47.7084" lon="3.67853">
        <ele>282.2</ele>
        <time>2022-02-23T10:03:12Z</time>
      </trkpt>
      <trkpt lat="47.70841" lon="3.67854">
        <ele>282.2</ele>
        <time>2022-02-23T10:03:14Z</time>
      </trkpt>
      <trkpt lat="47.70842" lon="3.67855">
        <ele>282.2</ele>
        <time>2022-02-23T10:03:15Z</time>
      </trkpt>
      <trkpt lat="47.70843" lon="3.67856">
        <ele>282.2</ele>
        <time>2022-02-23T10:03:16Z</time>
      </trkpt>
      <trkpt lat="47.70844" lon="3.67857">
        <ele>282.2</ele>
        <time>2022-02-23T10:03:18Z</time>
      </trkpt>
      <trkpt lat="47.70845" lon="3.67858">
        <ele>282.2</ele>
        <time>2022-02-23T10:03:19Z</time>
      </trkpt>
      <trkpt lat="47.70846" lon="3.6786">
        <ele>282.2</ele>
        <time>2022-02-23T10:03:20Z</time>
      </trkpt>
      <trkpt lat="47.70846" lon="3.67861">
        <ele>282.2</ele>
        <time>2022-02-23T10:03:21Z</time>
      </trkpt>
      <trkpt lat="47.70847" lon="3.67862">
        <ele>282.2</ele>
        <time>2022-02-23T10:03:22Z</time>
      </trkpt>
      <trkpt lat="47.70848" lon="3.67863">
        <ele>282.2</ele>
        <time>2022-02-23T10:03:23Z</time>
      </trkpt>
      <trkpt lat="47.70848" lon="3.67864">
        <ele>282.2</ele>
        <time>2022-02-23T10:03:25Z</time>
      </trkpt>
      <trkpt lat="47.70849" lon="3.67866">
        <ele>282.3</ele>
        <time>2022-02-23T10:03:26Z</time>
      </trkpt>
      <trkpt lat="47.7085" lon="3.67867">
        <ele>282.3</ele>
        <time>2022-02-23T10:03:27Z</time>
      </trkpt>
      <trkpt lat="47.70851" lon="3.67867">
        <ele>282.3</ele>
        <time>2022-02-23T10:03:28Z</time>
      </trkpt>
      <trkpt lat="47.70852" lon="3.67868">
        <ele>282.4</ele>
        <time>2022-02-23T10:03:29Z</time>
      </trkpt>
      <trkpt lat="47.70853" lon="3.67869">
        <ele>282.4</ele>
        <time>2022-02-23T10:03:30Z</time>
      </trkpt>
      <trkpt lat="47.70853" lon="3.6787">
        <ele>282.5</ele>
        <time>2022-02-23T10:03:32Z</time>
      </trkpt>
      <trkpt lat="47.70854" lon="3.67871">
        <ele>282.5</ele>
        <time>2022-02-23T10:03:33Z</time>
      </trkpt>
      <trkpt lat="47.70855" lon="3.67872">
        <ele>282.6</ele>
        <time>2022-02-23T10:03:34Z</time>
      </trkpt>
      <trkpt lat="47.70856" lon="3.67873">
        <ele>282.7</ele>
        <time>2022-02-23T10:03:35Z</time>
      </trkpt>
      <trkpt lat="47.70857" lon="3.67874">
        <ele>282.8</ele>
        <time>2022-02-23T10:03:36Z</time>
      </trkpt>
      <trkpt lat="47.70858" lon="3.67875">
        <ele>282.9</ele>
        <time>2022-02-23T10:03:38Z</time>
      </trkpt>
      <trkpt lat="47.70859" lon="3.67876">
        <ele>283</ele>
        <time>2022-02-23T10:03:39Z</time>
      </trkpt>
      <trkpt lat="47.7086" lon="3.67877">
        <ele>283.1</ele>
        <time>2022-02-23T10:03:40Z</time>
      </trkpt>
      <trkpt lat="47.70861" lon="3.67877">
        <ele>283.2</ele>
        <time>2022-02-23T10:03:41Z</time>
      </trkpt>
      <trkpt lat="47.70862" lon="3.67878">
        <ele>283.3</ele>
        <time>2022-02-23T10:03:42Z</time>
      </trkpt>
      <trkpt lat="47.70864" lon="3.67879">
        <ele>283.5</ele>
        <time>2022-02-23T10:03:43Z</time>
      </trkpt>
      <trkpt lat="47.70865" lon="3.6788">
        <ele>283.6</ele>
        <time>2022-02-23T10:03:45Z</time>
      </trkpt>
      <trkpt lat="47.70866" lon="3.67881">
        <ele>283.8</ele>
        <time>2022-02-23T10:03:46Z</time>
      </trkpt>
      <trkpt lat="47.70867" lon="3.67882">
        <ele>283.9</ele>
        <time>2022-02-23T10:03:47Z</time>
      </trkpt>
      <trkpt lat="47.70868" lon="3.67882">
        <ele>284</ele>
        <time>2022-02-23T10:03:48Z</time>
      </trkpt>
      <trkpt lat="47.7087" lon="3.67884">
        <ele>284.2</ele>
        <time>2022-02-23T10:03:49Z</time>
      </trkpt>
      <trkpt lat="47.7087" lon="3.67885">
        <ele>284.3</ele>
        <time>2022-02-23T10:03:50Z</time>
      </trkpt>
      <trkpt lat="47.70871" lon="3.67885">
        <ele>284.4</ele>
        <time>2022-02-23T10:03:51Z</time>
      </trkpt>
      <trkpt lat="47.70873" lon="3.67887">
        <ele>284.6</ele>
        <time>2022-02-23T10:03:53Z</time>
      </trkpt>
      <trkpt lat="47.70873" lon="3.67888">
        <ele>284.6</ele>
        <time>2022-02-23T10:03:54Z</time>
      </trkpt>
      <trkpt lat="47.70874" lon="3.67889">
        <ele>284.7</ele>
        <time>2022-02-23T10:03:55Z</time>
      </trkpt>
      <trkpt lat="47.70875" lon="3.6789">
        <ele>284.8</ele>
        <time>2022-02-23T10:03:57Z</time>
      </trkpt>
      <trkpt lat="47.70876" lon="3.67891">
        <ele>284.9</ele>
        <time>2022-02-23T10:03:58Z</time>
      </trkpt>
      <trkpt lat="47.70877" lon="3.67892">
        <ele>284.9</ele>
        <time>2022-02-23T10:03:59Z</time>
      </trkpt>
      <trkpt lat="47.70878" lon="3.67892">
        <ele>285</ele>
        <time>2022-02-23T10:04:00Z</time>
      </trkpt>
      <trkpt lat="47.70879" lon="3.67893">
        <ele>285.1</ele>
        <time>2022-02-23T10:04:01Z</time>
      </trkpt>
      <trkpt lat="47.7088" lon="3.67895">
        <ele>285.1</ele>
        <time>2022-02-23T10:04:02Z</time>
      </trkpt>
      <trkpt lat="47.7088" lon="3.67896">
        <ele>285.2</ele>
        <time>2022-02-23T10:04:04Z</time>
      </trkpt>
      <trkpt lat="47.70881" lon="3.67897">
        <ele>285.2</ele>
        <time>2022-02-23T10:04:05Z</time>
      </trkpt>
      <trkpt lat="47.70882" lon="3.67898">
        <ele>285.2</ele>
        <time>2022-02-23T10:04:06Z</time>
      </trkpt>
      <trkpt lat="47.70884" lon="3.679">
        <ele>285.2</ele>
        <time>2022-02-23T10:04:07Z</time>
      </trkpt>
      <trkpt lat="47.70884" lon="3.679">
        <ele>285.3</ele>
        <time>2022-02-23T10:04:09Z</time>
      </trkpt>
      <trkpt lat="47.70885" lon="3.67901">
        <ele>285.3</ele>
        <time>2022-02-23T10:04:10Z</time>
      </trkpt>
      <trkpt lat="47.70886" lon="3.67902">
        <ele>285.2</ele>
        <time>2022-02-23T10:04:11Z</time>
      </trkpt>
      <trkpt lat="47.70887" lon="3.67903">
        <ele>285.2</ele>
        <time>2022-02-23T10:04:13Z</time>
      </trkpt>
      <trkpt lat="47.70888" lon="3.67904">
        <ele>285.2</ele>
        <time>2022-02-23T10:04:14Z</time>
      </trkpt>
      <trkpt lat="47.70889" lon="3.67905">
        <ele>285.2</ele>
        <time>2022-02-23T10:04:16Z</time>
      </trkpt>
      <trkpt lat="47.7089" lon="3.67906">
        <ele>285.1</ele>
        <time>2022-02-23T10:04:17Z</time>
      </trkpt>
      <trkpt lat="47.70891" lon="3.67907">
        <ele>285.1</ele>
        <time>2022-02-23T10:04:18Z</time>
      </trkpt>
      <trkpt lat="47.70891" lon="3.67908">
        <ele>285</ele>
        <time>2022-02-23T10:04:19Z</time>
      </trkpt>
      <trkpt lat="47.70892" lon="3.67909">
        <ele>285</ele>
        <time>2022-02-23T10:04:20Z</time>
      </trkpt>
      <trkpt lat="47.70892" lon="3.67909">
        <ele>284.9</ele>
        <time>2022-02-23T10:04:21Z</time>
      </trkpt>
      <trkpt lat="47.70893" lon="3.6791">
        <ele>284.9</ele>
        <time>2022-02-23T10:04:22Z</time>
      </trkpt>
      <trkpt lat="47.70894" lon="3.6791">
        <ele>284.8</ele>
        <time>2022-02-23T10:04:23Z</time>
      </trkpt>
      <trkpt lat="47.70895" lon="3.6791">
        <ele>284.7</ele>
        <time>2022-02-23T10:04:25Z</time>
      </trkpt>
      <trkpt lat="47.70896" lon="3.67909">
        <ele>284.6</ele>
        <time>2022-02-23T10:04:26Z</time>
      </trkpt>
      <trkpt lat="47.70897" lon="3.67908">
        <ele>284.5</ele>
        <time>2022-02-23T10:04:27Z</time>
      </trkpt>
      <trkpt lat="47.70898" lon="3.67908">
        <ele>284.4</ele>
        <time>2022-02-23T10:04:28Z</time>
      </trkpt>
      <trkpt lat="47.70899" lon="3.67908">
        <ele>284.4</ele>
        <time>2022-02-23T10:04:29Z</time>
      </trkpt>
      <trkpt lat="47.709" lon="3.67909">
        <ele>284.3</ele>
        <time>2022-02-23T10:04:30Z</time>
      </trkpt>
      <trkpt lat="47.70901" lon="3.67909">
        <ele>284.2</ele>
        <time>2022-02-23T10:04:32Z</time>
      </trkpt>
      <trkpt lat="47.70902" lon="3.6791">
        <ele>284.1</ele>
        <time>2022-02-23T10:04:33Z</time>
      </trkpt>
      <trkpt lat="47.70903" lon="3.67911">
        <ele>284</ele>
        <time>2022-02-23T10:04:34Z</time>
      </trkpt>
      <trkpt lat="47.70903" lon="3.67912">
        <ele>283.9</ele>
        <time>2022-02-23T10:04:35Z</time>
      </trkpt>
      <trkpt lat="47.70904" lon="3.67913">
        <ele>283.8</ele>
        <time>2022-02-23T10:04:36Z</time>
      </trkpt>
      <trkpt lat="47.70905" lon="3.67914">
        <ele>283.7</ele>
        <time>2022-02-23T10:04:37Z</time>
      </trkpt>
      <trkpt lat="47.70905" lon="3.67915">
        <ele>283.7</ele>
        <time>2022-02-23T10:04:38Z</time>
      </trkpt>
      <trkpt lat="47.70906" lon="3.67915">
        <ele>283.6</ele>
        <time>2022-02-23T10:04:40Z</time>
      </trkpt>
      <trkpt lat="47.70906" lon="3.67916">
        <ele>283.5</ele>
        <time>2022-02-23T10:04:41Z</time>
      </trkpt>
      <trkpt lat="47.70908" lon="3.67918">
        <ele>283.4</ele>
        <time>2022-02-23T10:04:42Z</time>
      </trkpt>
      <trkpt lat="47.70909" lon="3.67919">
        <ele>283.3</ele>
        <time>2022-02-23T10:04:43Z</time>
      </trkpt>
      <trkpt lat="47.7091" lon="3.6792">
        <ele>283.3</ele>
        <time>2022-02-23T10:04:45Z</time>
      </trkpt>
      <trkpt lat="47.70911" lon="3.67921">
        <ele>283.2</ele>
        <time>2022-02-23T10:04:46Z</time>
      </trkpt>
      <trkpt lat="47.70911" lon="3.67922">
        <ele>283.2</ele>
        <time>2022-02-23T10:04:48Z</time>
      </trkpt>
      <trkpt lat="47.70913" lon="3.67923">
        <ele>283.2</ele>
        <time>2022-02-23T10:04:49Z</time>
      </trkpt>
      <trkpt lat="47.70914" lon="3.67924">
        <ele>283.2</ele>
        <time>2022-02-23T10:04:50Z</time>
      </trkpt>
      <trkpt lat="47.70915" lon="3.67925">
        <ele>283.2</ele>
        <time>2022-02-23T10:04:52Z</time>
      </trkpt>
      <trkpt lat="47.70916" lon="3.67925">
        <ele>283.2</ele>
        <time>2022-02-23T10:04:53Z</time>
      </trkpt>
      <trkpt lat="47.70917" lon="3.67926">
        <ele>283.2</ele>
        <time>2022-02-23T10:04:54Z</time>
      </trkpt>
      <trkpt lat="47.70918" lon="3.67927">
        <ele>283.3</ele>
        <time>2022-02-23T10:04:56Z</time>
      </trkpt>
      <trkpt lat="47.70918" lon="3.67928">
        <ele>283.4</ele>
        <time>2022-02-23T10:04:57Z</time>
      </trkpt>
      <trkpt lat="47.70919" lon="3.6793">
        <ele>283.5</ele>
        <time>2022-02-23T10:04:58Z</time>
      </trkpt>
      <trkpt lat="47.7092" lon="3.67931">
        <ele>283.6</ele>
        <time>2022-02-23T10:05:00Z</time>
      </trkpt>
      <trkpt lat="47.70922" lon="3.67933">
        <ele>283.7</ele>
        <time>2022-02-23T10:05:01Z</time>
      </trkpt>
      <trkpt lat="47.70923" lon="3.67933">
        <ele>283.8</ele>
        <time>2022-02-23T10:05:02Z</time>
      </trkpt>
      <trkpt lat="47.70923" lon="3.67934">
        <ele>283.9</ele>
        <time>2022-02-23T10:05:03Z</time>
      </trkpt>
      <trkpt lat="47.70925" lon="3.67935">
        <ele>284</ele>
        <time>2022-02-23T10:05:04Z</time>
      </trkpt>
      <trkpt lat="47.70925" lon="3.67935">
        <ele>284.1</ele>
        <time>2022-02-23T10:05:06Z</time>
      </trkpt>
      <trkpt lat="47.70926" lon="3.67936">
        <ele>284.2</ele>
        <time>2022-02-23T10:05:07Z</time>
      </trkpt>
      <trkpt lat="47.70927" lon="3.67937">
        <ele>284.3</ele>
        <time>2022-02-23T10:05:08Z</time>
      </trkpt>
      <trkpt lat="47.70928" lon="3.67938">
        <ele>284.4</ele>
        <time>2022-02-23T10:05:09Z</time>
      </trkpt>
      <trkpt lat="47.70929" lon="3.67939">
        <ele>284.5</ele>
        <time>2022-02-23T10:05:11Z</time>
      </trkpt>
      <trkpt lat="47.7093" lon="3.6794">
        <ele>284.7</ele>
        <time>2022-02-23T10:05:12Z</time>
      </trkpt>
      <trkpt lat="47.70931" lon="3.67941">
        <ele>284.8</ele>
        <time>2022-02-23T10:05:13Z</time>
      </trkpt>
      <trkpt lat="47.70932" lon="3.67941">
        <ele>284.8</ele>
        <time>2022-02-23T10:05:14Z</time>
      </trkpt>
      <trkpt lat="47.70933" lon="3.67942">
        <ele>284.9</ele>
        <time>2022-02-23T10:05:15Z</time>
      </trkpt>
      <trkpt lat="47.70934" lon="3.67943">
        <ele>285</ele>
        <time>2022-02-23T10:05:16Z</time>
      </trkpt>
      <trkpt lat="47.70935" lon="3.67943">
        <ele>285.1</ele>
        <time>2022-02-23T10:05:17Z</time>
      </trkpt>
      <trkpt lat="47.70936" lon="3.67944">
        <ele>285.1</ele>
        <time>2022-02-23T10:05:18Z</time>
      </trkpt>
      <trkpt lat="47.70937" lon="3.67945">
        <ele>285.2</ele>
        <time>2022-02-23T10:05:19Z</time>
      </trkpt>
      <trkpt lat="47.70938" lon="3.67946">
        <ele>285.3</ele>
        <time>2022-02-23T10:05:20Z</time>
      </trkpt>
      <trkpt lat="47.70939" lon="3.67947">
        <ele>285.3</ele>
        <time>2022-02-23T10:05:21Z</time>
      </trkpt>
      <trkpt lat="47.7094" lon="3.67947">
        <ele>285.4</ele>
        <time>2022-02-23T10:05:22Z</time>
      </trkpt>
      <trkpt lat="47.70941" lon="3.67949">
        <ele>285.4</ele>
        <time>2022-02-23T10:05:24Z</time>
      </trkpt>
      <trkpt lat="47.70942" lon="3.6795">
        <ele>285.5</ele>
        <time>2022-02-23T10:05:25Z</time>
      </trkpt>
      <trkpt lat="47.70943" lon="3.67951">
        <ele>285.5</ele>
        <time>2022-02-23T10:05:26Z</time>
      </trkpt>
      <trkpt lat="47.70944" lon="3.67952">
        <ele>285.5</ele>
        <time>2022-02-23T10:05:27Z</time>
      </trkpt>
      <trkpt lat="47.70945" lon="3.67953">
        <ele>285.6</ele>
        <time>2022-02-23T10:05:29Z</time>
      </trkpt>
      <trkpt lat="47.70946" lon="3.67954">
        <ele>285.6</ele>
        <time>2022-02-23T10:05:30Z</time>
      </trkpt>
      <trkpt lat="47.70947" lon="3.67954">
        <ele>285.6</ele>
        <time>2022-02-23T10:05:31Z</time>
      </trkpt>
      <trkpt lat="47.70948" lon="3.67955">
        <ele>285.6</ele>
        <time>2022-02-23T10:05:32Z</time>
      </trkpt>
      <trkpt lat="47.70948" lon="3.67956">
        <ele>285.6</ele>
        <time>2022-02-23T10:05:33Z</time>
      </trkpt>
      <trkpt lat="47.7095" lon="3.67956">
        <ele>285.6</ele>
        <time>2022-02-23T10:05:34Z</time>
      </trkpt>
      <trkpt lat="47.70951" lon="3.67957">
        <ele>285.6</ele>
        <time>2022-02-23T10:05:36Z</time>
      </trkpt>
      <trkpt lat="47.70952" lon="3.67958">
        <ele>285.6</ele>
        <time>2022-02-23T10:05:37Z</time>
      </trkpt>
      <trkpt lat="47.70953" lon="3.67959">
        <ele>285.6</ele>
        <time>2022-02-23T10:05:38Z</time>
      </trkpt>
      <trkpt lat="47.70954" lon="3.6796">
        <ele>285.6</ele>
        <time>2022-02-23T10:05:39Z</time>
      </trkpt>
      <trkpt lat="47.70955" lon="3.67961">
        <ele>285.6</ele>
        <time>2022-02-23T10:05:41Z</time>
      </trkpt>
      <trkpt lat="47.70956" lon="3.67962">
        <ele>285.6</ele>
        <time>2022-02-23T10:05:42Z</time>
      </trkpt>
      <trkpt lat="47.70957" lon="3.67963">
        <ele>285.5</ele>
        <time>2022-02-23T10:05:43Z</time>
      </trkpt>
      <trkpt lat="47.70958" lon="3.67964">
        <ele>285.5</ele>
        <time>2022-02-23T10:05:44Z</time>
      </trkpt>
      <trkpt lat="47.70959" lon="3.67965">
        <ele>285.5</ele>
        <time>2022-02-23T10:05:45Z</time>
      </trkpt>
      <trkpt lat="47.7096" lon="3.67965">
        <ele>285.4</ele>
        <time>2022-02-23T10:05:46Z</time>
      </trkpt>
      <trkpt lat="47.70961" lon="3.67966">
        <ele>285.4</ele>
        <time>2022-02-23T10:05:47Z</time>
      </trkpt>
      <trkpt lat="47.70962" lon="3.67967">
        <ele>285.3</ele>
        <time>2022-02-23T10:05:49Z</time>
      </trkpt>
      <trkpt lat="47.70963" lon="3.67968">
        <ele>285.3</ele>
        <time>2022-02-23T10:05:50Z</time>
      </trkpt>
      <trkpt lat="47.70964" lon="3.67969">
        <ele>285.2</ele>
        <time>2022-02-23T10:05:51Z</time>
      </trkpt>
      <trkpt lat="47.70965" lon="3.6797">
        <ele>285.2</ele>
        <time>2022-02-23T10:05:52Z</time>
      </trkpt>
      <trkpt lat="47.70966" lon="3.67971">
        <ele>285.1</ele>
        <time>2022-02-23T10:05:53Z</time>
      </trkpt>
      <trkpt lat="47.70967" lon="3.67972">
        <ele>285</ele>
        <time>2022-02-23T10:05:54Z</time>
      </trkpt>
      <trkpt lat="47.70968" lon="3.67973">
        <ele>284.9</ele>
        <time>2022-02-23T10:05:56Z</time>
      </trkpt>
      <trkpt lat="47.70969" lon="3.67973">
        <ele>284.9</ele>
        <time>2022-02-23T10:05:57Z</time>
      </trkpt>
      <trkpt lat="47.70969" lon="3.67974">
        <ele>284.8</ele>
        <time>2022-02-23T10:05:58Z</time>
      </trkpt>
      <trkpt lat="47.7097" lon="3.67975">
        <ele>284.7</ele>
        <time>2022-02-23T10:05:59Z</time>
      </trkpt>
      <trkpt lat="47.70971" lon="3.67976">
        <ele>284.6</ele>
        <time>2022-02-23T10:06:01Z</time>
      </trkpt>
      <trkpt lat="47.70972" lon="3.67977">
        <ele>284.5</ele>
        <time>2022-02-23T10:06:02Z</time>
      </trkpt>
      <trkpt lat="47.70973" lon="3.67978">
        <ele>284.4</ele>
        <time>2022-02-23T10:06:03Z</time>
      </trkpt>
      <trkpt lat="47.70974" lon="3.6798">
        <ele>284.2</ele>
        <time>2022-02-23T10:06:04Z</time>
      </trkpt>
      <trkpt lat="47.70974" lon="3.67981">
        <ele>284.1</ele>
        <time>2022-02-23T10:06:05Z</time>
      </trkpt>
      <trkpt lat="47.70975" lon="3.67981">
        <ele>284</ele>
        <time>2022-02-23T10:06:06Z</time>
      </trkpt>
      <trkpt lat="47.70976" lon="3.67982">
        <ele>283.9</ele>
        <time>2022-02-23T10:06:07Z</time>
      </trkpt>
      <trkpt lat="47.70976" lon="3.67983">
        <ele>283.8</ele>
        <time>2022-02-23T10:06:09Z</time>
      </trkpt>
      <trkpt lat="47.70977" lon="3.67984">
        <ele>283.7</ele>
        <time>2022-02-23T10:06:10Z</time>
      </trkpt>
      <trkpt lat="47.70978" lon="3.67985">
        <ele>283.5</ele>
        <time>2022-02-23T10:06:11Z</time>
      </trkpt>
      <trkpt lat="47.70979" lon="3.67986">
        <ele>283.3</ele>
        <time>2022-02-23T10:06:12Z</time>
      </trkpt>
      <trkpt lat="47.70981" lon="3.67987">
        <ele>283.2</ele>
        <time>2022-02-23T10:06:14Z</time>
      </trkpt>
      <trkpt lat="47.70982" lon="3.67988">
        <ele>283</ele>
        <time>2022-02-23T10:06:15Z</time>
      </trkpt>
      <trkpt lat="47.70983" lon="3.67989">
        <ele>282.8</ele>
        <time>2022-02-23T10:06:16Z</time>
      </trkpt>
      <trkpt lat="47.70985" lon="3.67991">
        <ele>282.4</ele>
        <time>2022-02-23T10:06:17Z</time>
      </trkpt>
      <trkpt lat="47.70986" lon="3.67991">
        <ele>282.2</ele>
        <time>2022-02-23T10:06:19Z</time>
      </trkpt>
      <trkpt lat="47.70987" lon="3.67992">
        <ele>282.1</ele>
        <time>2022-02-23T10:06:20Z</time>
      </trkpt>
      <trkpt lat="47.70988" lon="3.67993">
        <ele>282</ele>
        <time>2022-02-23T10:06:21Z</time>
      </trkpt>
      <trkpt lat="47.70989" lon="3.67993">
        <ele>281.8</ele>
        <time>2022-02-23T10:06:22Z</time>
      </trkpt>
      <trkpt lat="47.7099" lon="3.67994">
        <ele>281.6</ele>
        <time>2022-02-23T10:06:23Z</time>
      </trkpt>
      <trkpt lat="47.70992" lon="3.67995">
        <ele>281.4</ele>
        <time>2022-02-23T10:06:24Z</time>
      </trkpt>
      <trkpt lat="47.70993" lon="3.67996">
        <ele>281.2</ele>
        <time>2022-02-23T10:06:26Z</time>
      </trkpt>
      <trkpt lat="47.70995" lon="3.67997">
        <ele>281</ele>
        <time>2022-02-23T10:06:27Z</time>
      </trkpt>
      <trkpt lat="47.70996" lon="3.67998">
        <ele>280.8</ele>
        <time>2022-02-23T10:06:28Z</time>
      </trkpt>
      <trkpt lat="47.70997" lon="3.67999">
        <ele>280.7</ele>
        <time>2022-02-23T10:06:29Z</time>
      </trkpt>
      <trkpt lat="47.70999" lon="3.68">
        <ele>280.5</ele>
        <time>2022-02-23T10:06:30Z</time>
      </trkpt>
      <trkpt lat="47.71" lon="3.68001">
        <ele>280.5</ele>
        <time>2022-02-23T10:06:31Z</time>
      </trkpt>
      <trkpt lat="47.71" lon="3.68001">
        <ele>280.4</ele>
        <time>2022-02-23T10:06:32Z</time>
      </trkpt>
      <trkpt lat="47.71001" lon="3.68002">
        <ele>280.3</ele>
        <time>2022-02-23T10:06:33Z</time>
      </trkpt>
      <trkpt lat="47.71003" lon="3.68003">
        <ele>280.3</ele>
        <time>2022-02-23T10:06:34Z</time>
      </trkpt>
      <trkpt lat="47.71005" lon="3.68005">
        <ele>280.2</ele>
        <time>2022-02-23T10:06:35Z</time>
      </trkpt>
      <trkpt lat="47.71006" lon="3.68005">
        <ele>280.2</ele>
        <time>2022-02-23T10:06:37Z</time>
      </trkpt>
      <trkpt lat="47.71007" lon="3.68006">
        <ele>280.2</ele>
        <time>2022-02-23T10:06:38Z</time>
      </trkpt>
      <trkpt lat="47.71008" lon="3.68007">
        <ele>280.2</ele>
        <time>2022-02-23T10:06:39Z</time>
      </trkpt>
      <trkpt lat="47.71009" lon="3.68007">
        <ele>280.2</ele>
        <time>2022-02-23T10:06:40Z</time>
      </trkpt>
      <trkpt lat="47.71011" lon="3.68009">
        <ele>280.3</ele>
        <time>2022-02-23T10:06:41Z</time>
      </trkpt>
      <trkpt lat="47.71011" lon="3.68009">
        <ele>280.3</ele>
        <time>2022-02-23T10:06:42Z</time>
      </trkpt>
      <trkpt lat="47.71012" lon="3.6801">
        <ele>280.4</ele>
        <time>2022-02-23T10:06:43Z</time>
      </trkpt>
      <trkpt lat="47.71013" lon="3.68011">
        <ele>280.5</ele>
        <time>2022-02-23T10:06:45Z</time>
      </trkpt>
      <trkpt lat="47.71014" lon="3.68012">
        <ele>280.6</ele>
        <time>2022-02-23T10:06:46Z</time>
      </trkpt>
      <trkpt lat="47.71015" lon="3.68013">
        <ele>280.7</ele>
        <time>2022-02-23T10:06:47Z</time>
      </trkpt>
      <trkpt lat="47.71017" lon="3.68015">
        <ele>280.9</ele>
        <time>2022-02-23T10:06:48Z</time>
      </trkpt>
      <trkpt lat="47.71017" lon="3.68016">
        <ele>280.9</ele>
        <time>2022-02-23T10:06:50Z</time>
      </trkpt>
      <trkpt lat="47.71018" lon="3.68016">
        <ele>281</ele>
        <time>2022-02-23T10:06:51Z</time>
      </trkpt>
      <trkpt lat="47.71019" lon="3.68017">
        <ele>281.1</ele>
        <time>2022-02-23T10:06:52Z</time>
      </trkpt>
      <trkpt lat="47.7102" lon="3.68017">
        <ele>281.2</ele>
        <time>2022-02-23T10:06:53Z</time>
      </trkpt>
      <trkpt lat="47.71021" lon="3.68018">
        <ele>281.3</ele>
        <time>2022-02-23T10:06:54Z</time>
      </trkpt>
      <trkpt lat="47.71022" lon="3.68019">
        <ele>281.4</ele>
        <time>2022-02-23T10:06:55Z</time>
      </trkpt>
      <trkpt lat="47.71023" lon="3.68019">
        <ele>281.5</ele>
        <time>2022-02-23T10:06:56Z</time>
      </trkpt>
      <trkpt lat="47.71023" lon="3.6802">
        <ele>281.5</ele>
        <time>2022-02-23T10:06:57Z</time>
      </trkpt>
      <trkpt lat="47.71024" lon="3.6802">
        <ele>281.6</ele>
        <time>2022-02-23T10:06:58Z</time>
      </trkpt>
      <trkpt lat="47.71025" lon="3.68021">
        <ele>281.7</ele>
        <time>2022-02-23T10:06:59Z</time>
      </trkpt>
      <trkpt lat="47.71026" lon="3.68022">
        <ele>281.7</ele>
        <time>2022-02-23T10:07:00Z</time>
      </trkpt>
      <trkpt lat="47.71027" lon="3.68022">
        <ele>281.8</ele>
        <time>2022-02-23T10:07:02Z</time>
      </trkpt>
      <trkpt lat="47.71028" lon="3.68023">
        <ele>281.9</ele>
        <time>2022-02-23T10:07:03Z</time>
      </trkpt>
      <trkpt lat="47.71029" lon="3.68024">
        <ele>281.9</ele>
        <time>2022-02-23T10:07:04Z</time>
      </trkpt>
      <trkpt lat="47.7103" lon="3.68024">
        <ele>282</ele>
        <time>2022-02-23T10:07:05Z</time>
      </trkpt>
      <trkpt lat="47.71031" lon="3.68025">
        <ele>282</ele>
        <time>2022-02-23T10:07:06Z</time>
      </trkpt>
      <trkpt lat="47.71032" lon="3.68026">
        <ele>282.1</ele>
        <time>2022-02-23T10:07:07Z</time>
      </trkpt>
      <trkpt lat="47.71033" lon="3.68026">
        <ele>282.1</ele>
        <time>2022-02-23T10:07:09Z</time>
      </trkpt>
      <trkpt lat="47.71034" lon="3.68027">
        <ele>282.1</ele>
        <time>2022-02-23T10:07:10Z</time>
      </trkpt>
      <trkpt lat="47.71035" lon="3.68028">
        <ele>282.1</ele>
        <time>2022-02-23T10:07:11Z</time>
      </trkpt>
      <trkpt lat="47.71036" lon="3.68029">
        <ele>282.1</ele>
        <time>2022-02-23T10:07:12Z</time>
      </trkpt>
      <trkpt lat="47.71037" lon="3.68029">
        <ele>282.1</ele>
        <time>2022-02-23T10:07:13Z</time>
      </trkpt>
      <trkpt lat="47.71037" lon="3.6803">
        <ele>282.1</ele>
        <time>2022-02-23T10:07:14Z</time>
      </trkpt>
      <trkpt lat="47.71039" lon="3.68031">
        <ele>282.1</ele>
        <time>2022-02-23T10:07:15Z</time>
      </trkpt>
      <trkpt lat="47.7104" lon="3.68032">
        <ele>282.1</ele>
        <time>2022-02-23T10:07:17Z</time>
      </trkpt>
      <trkpt lat="47.71041" lon="3.68032">
        <ele>282.1</ele>
        <time>2022-02-23T10:07:18Z</time>
      </trkpt>
      <trkpt lat="47.71042" lon="3.68033">
        <ele>282.1</ele>
        <time>2022-02-23T10:07:19Z</time>
      </trkpt>
      <trkpt lat="47.71043" lon="3.68034">
        <ele>282.1</ele>
        <time>2022-02-23T10:07:20Z</time>
      </trkpt>
      <trkpt lat="47.71044" lon="3.68034">
        <ele>282.1</ele>
        <time>2022-02-23T10:07:22Z</time>
      </trkpt>
      <trkpt lat="47.71045" lon="3.68035">
        <ele>282.1</ele>
        <time>2022-02-23T10:07:23Z</time>
      </trkpt>
      <trkpt lat="47.71047" lon="3.68036">
        <ele>282.1</ele>
        <time>2022-02-23T10:07:24Z</time>
      </trkpt>
      <trkpt lat="47.71048" lon="3.68036">
        <ele>282</ele>
        <time>2022-02-23T10:07:25Z</time>
      </trkpt>
      <trkpt lat="47.7105" lon="3.68037">
        <ele>282</ele>
        <time>2022-02-23T10:07:26Z</time>
      </trkpt>
      <trkpt lat="47.7105" lon="3.68037">
        <ele>282</ele>
        <time>2022-02-23T10:07:28Z</time>
      </trkpt>
      <trkpt lat="47.71051" lon="3.68037">
        <ele>282</ele>
        <time>2022-02-23T10:07:29Z</time>
      </trkpt>
      <trkpt lat="47.71052" lon="3.68038">
        <ele>282.1</ele>
        <time>2022-02-23T10:07:30Z</time>
      </trkpt>
      <trkpt lat="47.71053" lon="3.68038">
        <ele>282.1</ele>
        <time>2022-02-23T10:07:31Z</time>
      </trkpt>
      <trkpt lat="47.71054" lon="3.68039">
        <ele>282.1</ele>
        <time>2022-02-23T10:07:32Z</time>
      </trkpt>
      <trkpt lat="47.71055" lon="3.6804">
        <ele>282.1</ele>
        <time>2022-02-23T10:07:33Z</time>
      </trkpt>
      <trkpt lat="47.71057" lon="3.68041">
        <ele>282.1</ele>
        <time>2022-02-23T10:07:35Z</time>
      </trkpt>
      <trkpt lat="47.71058" lon="3.68041">
        <ele>282.2</ele>
        <time>2022-02-23T10:07:36Z</time>
      </trkpt>
      <trkpt lat="47.71059" lon="3.68042">
        <ele>282.2</ele>
        <time>2022-02-23T10:07:38Z</time>
      </trkpt>
      <trkpt lat="47.71061" lon="3.68043">
        <ele>282.3</ele>
        <time>2022-02-23T10:07:39Z</time>
      </trkpt>
      <trkpt lat="47.71061" lon="3.68043">
        <ele>282.3</ele>
        <time>2022-02-23T10:07:40Z</time>
      </trkpt>
      <trkpt lat="47.71062" lon="3.68044">
        <ele>282.4</ele>
        <time>2022-02-23T10:07:41Z</time>
      </trkpt>
      <trkpt lat="47.71063" lon="3.68044">
        <ele>282.4</ele>
        <time>2022-02-23T10:07:42Z</time>
      </trkpt>
      <trkpt lat="47.71064" lon="3.68045">
        <ele>282.5</ele>
        <time>2022-02-23T10:07:43Z</time>
      </trkpt>
      <trkpt lat="47.71065" lon="3.68045">
        <ele>282.5</ele>
        <time>2022-02-23T10:07:44Z</time>
      </trkpt>
      <trkpt lat="47.71067" lon="3.68046">
        <ele>282.6</ele>
        <time>2022-02-23T10:07:46Z</time>
      </trkpt>
      <trkpt lat="47.71068" lon="3.68046">
        <ele>282.6</ele>
        <time>2022-02-23T10:07:47Z</time>
      </trkpt>
      <trkpt lat="47.71069" lon="3.68046">
        <ele>282.7</ele>
        <time>2022-02-23T10:07:48Z</time>
      </trkpt>
      <trkpt lat="47.7107" lon="3.68046">
        <ele>282.7</ele>
        <time>2022-02-23T10:07:49Z</time>
      </trkpt>
      <trkpt lat="47.71071" lon="3.68046">
        <ele>282.8</ele>
        <time>2022-02-23T10:07:50Z</time>
      </trkpt>
      <trkpt lat="47.71072" lon="3.68047">
        <ele>282.8</ele>
        <time>2022-02-23T10:07:52Z</time>
      </trkpt>
      <trkpt lat="47.71073" lon="3.68047">
        <ele>282.9</ele>
        <time>2022-02-23T10:07:53Z</time>
      </trkpt>
      <trkpt lat="47.71074" lon="3.68047">
        <ele>283</ele>
        <time>2022-02-23T10:07:54Z</time>
      </trkpt>
      <trkpt lat="47.71075" lon="3.68048">
        <ele>283</ele>
        <time>2022-02-23T10:07:55Z</time>
      </trkpt>
      <trkpt lat="47.71077" lon="3.68049">
        <ele>283.1</ele>
        <time>2022-02-23T10:07:56Z</time>
      </trkpt>
      <trkpt lat="47.71077" lon="3.68049">
        <ele>283.1</ele>
        <time>2022-02-23T10:07:57Z</time>
      </trkpt>
      <trkpt lat="47.71078" lon="3.68049">
        <ele>283.2</ele>
        <time>2022-02-23T10:07:58Z</time>
      </trkpt>
      <trkpt lat="47.71079" lon="3.68049">
        <ele>283.2</ele>
        <time>2022-02-23T10:07:59Z</time>
      </trkpt>
      <trkpt lat="47.71079" lon="3.6805">
        <ele>283.2</ele>
        <time>2022-02-23T10:08:00Z</time>
      </trkpt>
      <trkpt lat="47.7108" lon="3.6805">
        <ele>283.3</ele>
        <time>2022-02-23T10:08:01Z</time>
      </trkpt>
      <trkpt lat="47.71081" lon="3.68051">
        <ele>283.3</ele>
        <time>2022-02-23T10:08:02Z</time>
      </trkpt>
      <trkpt lat="47.71082" lon="3.68051">
        <ele>283.3</ele>
        <time>2022-02-23T10:08:03Z</time>
      </trkpt>
      <trkpt lat="47.71084" lon="3.68052">
        <ele>283.4</ele>
        <time>2022-02-23T10:08:05Z</time>
      </trkpt>
      <trkpt lat="47.71085" lon="3.68053">
        <ele>283.5</ele>
        <time>2022-02-23T10:08:06Z</time>
      </trkpt>
      <trkpt lat="47.71085" lon="3.68053">
        <ele>283.5</ele>
        <time>2022-02-23T10:08:07Z</time>
      </trkpt>
      <trkpt lat="47.71087" lon="3.68054">
        <ele>283.5</ele>
        <time>2022-02-23T10:08:08Z</time>
      </trkpt>
      <trkpt lat="47.71088" lon="3.68055">
        <ele>283.6</ele>
        <time>2022-02-23T10:08:09Z</time>
      </trkpt>
      <trkpt lat="47.71089" lon="3.68055">
        <ele>283.6</ele>
        <time>2022-02-23T10:08:11Z</time>
      </trkpt>
      <trkpt lat="47.7109" lon="3.68056">
        <ele>283.7</ele>
        <time>2022-02-23T10:08:12Z</time>
      </trkpt>
      <trkpt lat="47.71091" lon="3.68057">
        <ele>283.7</ele>
        <time>2022-02-23T10:08:13Z</time>
      </trkpt>
      <trkpt lat="47.71092" lon="3.68057">
        <ele>283.7</ele>
        <time>2022-02-23T10:08:14Z</time>
      </trkpt>
      <trkpt lat="47.71093" lon="3.68059">
        <ele>283.8</ele>
        <time>2022-02-23T10:08:15Z</time>
      </trkpt>
      <trkpt lat="47.71094" lon="3.68059">
        <ele>283.8</ele>
        <time>2022-02-23T10:08:17Z</time>
      </trkpt>
      <trkpt lat="47.71095" lon="3.6806">
        <ele>283.8</ele>
        <time>2022-02-23T10:08:18Z</time>
      </trkpt>
      <trkpt lat="47.71096" lon="3.68061">
        <ele>283.9</ele>
        <time>2022-02-23T10:08:19Z</time>
      </trkpt>
      <trkpt lat="47.71097" lon="3.68061">
        <ele>283.9</ele>
        <time>2022-02-23T10:08:20Z</time>
      </trkpt>
      <trkpt lat="47.71099" lon="3.68062">
        <ele>283.9</ele>
        <time>2022-02-23T10:08:21Z</time>
      </trkpt>
      <trkpt lat="47.711" lon="3.68063">
        <ele>284</ele>
        <time>2022-02-23T10:08:23Z</time>
      </trkpt>
      <trkpt lat="47.71101" lon="3.68063">
        <ele>284</ele>
        <time>2022-02-23T10:08:24Z</time>
      </trkpt>
      <trkpt lat="47.71102" lon="3.68064">
        <ele>284</ele>
        <time>2022-02-23T10:08:25Z</time>
      </trkpt>
      <trkpt lat="47.71104" lon="3.68064">
        <ele>284.1</ele>
        <time>2022-02-23T10:08:26Z</time>
      </trkpt>
      <trkpt lat="47.71105" lon="3.68065">
        <ele>284.1</ele>
        <time>2022-02-23T10:08:28Z</time>
      </trkpt>
      <trkpt lat="47.71106" lon="3.68065">
        <ele>284.2</ele>
        <time>2022-02-23T10:08:29Z</time>
      </trkpt>
      <trkpt lat="47.71107" lon="3.68066">
        <ele>284.2</ele>
        <time>2022-02-23T10:08:30Z</time>
      </trkpt>
      <trkpt lat="47.71108" lon="3.68066">
        <ele>284.3</ele>
        <time>2022-02-23T10:08:31Z</time>
      </trkpt>
      <trkpt lat="47.71109" lon="3.68066">
        <ele>284.3</ele>
        <time>2022-02-23T10:08:32Z</time>
      </trkpt>
      <trkpt lat="47.7111" lon="3.68066">
        <ele>284.4</ele>
        <time>2022-02-23T10:08:33Z</time>
      </trkpt>
      <trkpt lat="47.71111" lon="3.68066">
        <ele>284.4</ele>
        <time>2022-02-23T10:08:34Z</time>
      </trkpt>
      <trkpt lat="47.71113" lon="3.68067">
        <ele>284.6</ele>
        <time>2022-02-23T10:08:36Z</time>
      </trkpt>
      <trkpt lat="47.71114" lon="3.68067">
        <ele>284.6</ele>
        <time>2022-02-23T10:08:37Z</time>
      </trkpt>
      <trkpt lat="47.71115" lon="3.68067">
        <ele>284.7</ele>
        <time>2022-02-23T10:08:38Z</time>
      </trkpt>
      <trkpt lat="47.71116" lon="3.68068">
        <ele>284.8</ele>
        <time>2022-02-23T10:08:39Z</time>
      </trkpt>
      <trkpt lat="47.71117" lon="3.68068">
        <ele>284.8</ele>
        <time>2022-02-23T10:08:40Z</time>
      </trkpt>
      <trkpt lat="47.71118" lon="3.68069">
        <ele>284.9</ele>
        <time>2022-02-23T10:08:41Z</time>
      </trkpt>
      <trkpt lat="47.71119" lon="3.68069">
        <ele>285</ele>
        <time>2022-02-23T10:08:43Z</time>
      </trkpt>
      <trkpt lat="47.7112" lon="3.68069">
        <ele>285.1</ele>
        <time>2022-02-23T10:08:44Z</time>
      </trkpt>
      <trkpt lat="47.71121" lon="3.6807">
        <ele>285.2</ele>
        <time>2022-02-23T10:08:45Z</time>
      </trkpt>
      <trkpt lat="47.71123" lon="3.6807">
        <ele>285.4</ele>
        <time>2022-02-23T10:08:47Z</time>
      </trkpt>
      <trkpt lat="47.71124" lon="3.6807">
        <ele>285.6</ele>
        <time>2022-02-23T10:08:48Z</time>
      </trkpt>
      <trkpt lat="47.71126" lon="3.68071">
        <ele>285.8</ele>
        <time>2022-02-23T10:08:49Z</time>
      </trkpt>
      <trkpt lat="47.71127" lon="3.68072">
        <ele>285.9</ele>
        <time>2022-02-23T10:08:50Z</time>
      </trkpt>
      <trkpt lat="47.71128" lon="3.68072">
        <ele>286</ele>
        <time>2022-02-23T10:08:52Z</time>
      </trkpt>
      <trkpt lat="47.71129" lon="3.68073">
        <ele>286.1</ele>
        <time>2022-02-23T10:08:53Z</time>
      </trkpt>
      <trkpt lat="47.7113" lon="3.68073">
        <ele>286.2</ele>
        <time>2022-02-23T10:08:54Z</time>
      </trkpt>
      <trkpt lat="47.71131" lon="3.68074">
        <ele>286.3</ele>
        <time>2022-02-23T10:08:55Z</time>
      </trkpt>
      <trkpt lat="47.71132" lon="3.68074">
        <ele>286.4</ele>
        <time>2022-02-23T10:08:56Z</time>
      </trkpt>
      <trkpt lat="47.71133" lon="3.68075">
        <ele>286.5</ele>
        <time>2022-02-23T10:08:57Z</time>
      </trkpt>
      <trkpt lat="47.71135" lon="3.68076">
        <ele>286.6</ele>
        <time>2022-02-23T10:08:59Z</time>
      </trkpt>
      <trkpt lat="47.71135" lon="3.68077">
        <ele>286.7</ele>
        <time>2022-02-23T10:09:00Z</time>
      </trkpt>
      <trkpt lat="47.71137" lon="3.68078">
        <ele>286.8</ele>
        <time>2022-02-23T10:09:01Z</time>
      </trkpt>
      <trkpt lat="47.71138" lon="3.68078">
        <ele>286.8</ele>
        <time>2022-02-23T10:09:02Z</time>
      </trkpt>
      <trkpt lat="47.71139" lon="3.6808">
        <ele>286.9</ele>
        <time>2022-02-23T10:09:03Z</time>
      </trkpt>
      <trkpt lat="47.7114" lon="3.6808">
        <ele>287</ele>
        <time>2022-02-23T10:09:05Z</time>
      </trkpt>
      <trkpt lat="47.71141" lon="3.68081">
        <ele>287</ele>
        <time>2022-02-23T10:09:06Z</time>
      </trkpt>
      <trkpt lat="47.71142" lon="3.68082">
        <ele>287</ele>
        <time>2022-02-23T10:09:07Z</time>
      </trkpt>
      <trkpt lat="47.71143" lon="3.68082">
        <ele>287</ele>
        <time>2022-02-23T10:09:08Z</time>
      </trkpt>
      <trkpt lat="47.71144" lon="3.68082">
        <ele>287.1</ele>
        <time>2022-02-23T10:09:09Z</time>
      </trkpt>
      <trkpt lat="47.71145" lon="3.68082">
        <ele>287.1</ele>
        <time>2022-02-23T10:09:10Z</time>
      </trkpt>
      <trkpt lat="47.71146" lon="3.68082">
        <ele>287.1</ele>
        <time>2022-02-23T10:09:11Z</time>
      </trkpt>
      <trkpt lat="47.71147" lon="3.68083">
        <ele>287.1</ele>
        <time>2022-02-23T10:09:12Z</time>
      </trkpt>
      <trkpt lat="47.71147" lon="3.68084">
        <ele>287.1</ele>
        <time>2022-02-23T10:09:13Z</time>
      </trkpt>
      <trkpt lat="47.71149" lon="3.68084">
        <ele>287.1</ele>
        <time>2022-02-23T10:09:14Z</time>
      </trkpt>
      <trkpt lat="47.7115" lon="3.68085">
        <ele>287.1</ele>
        <time>2022-02-23T10:09:16Z</time>
      </trkpt>
      <trkpt lat="47.71151" lon="3.68085">
        <ele>287.1</ele>
        <time>2022-02-23T10:09:17Z</time>
      </trkpt>
      <trkpt lat="47.71151" lon="3.68085">
        <ele>287.1</ele>
        <time>2022-02-23T10:09:18Z</time>
      </trkpt>
      <trkpt lat="47.71152" lon="3.68086">
        <ele>287.1</ele>
        <time>2022-02-23T10:09:19Z</time>
      </trkpt>
      <trkpt lat="47.71153" lon="3.68086">
        <ele>287.1</ele>
        <time>2022-02-23T10:09:20Z</time>
      </trkpt>
      <trkpt lat="47.71154" lon="3.68087">
        <ele>287</ele>
        <time>2022-02-23T10:09:21Z</time>
      </trkpt>
      <trkpt lat="47.71155" lon="3.68087">
        <ele>287</ele>
        <time>2022-02-23T10:09:22Z</time>
      </trkpt>
      <trkpt lat="47.71157" lon="3.68088">
        <ele>287</ele>
        <time>2022-02-23T10:09:23Z</time>
      </trkpt>
      <trkpt lat="47.71158" lon="3.68089">
        <ele>286.9</ele>
        <time>2022-02-23T10:09:25Z</time>
      </trkpt>
      <trkpt lat="47.7116" lon="3.68089">
        <ele>286.9</ele>
        <time>2022-02-23T10:09:26Z</time>
      </trkpt>
      <trkpt lat="47.71161" lon="3.6809">
        <ele>286.9</ele>
        <time>2022-02-23T10:09:27Z</time>
      </trkpt>
      <trkpt lat="47.71162" lon="3.6809">
        <ele>286.9</ele>
        <time>2022-02-23T10:09:28Z</time>
      </trkpt>
      <trkpt lat="47.71164" lon="3.68091">
        <ele>286.9</ele>
        <time>2022-02-23T10:09:29Z</time>
      </trkpt>
      <trkpt lat="47.71166" lon="3.68091">
        <ele>286.9</ele>
        <time>2022-02-23T10:09:31Z</time>
      </trkpt>
      <trkpt lat="47.71167" lon="3.68091">
        <ele>286.8</ele>
        <time>2022-02-23T10:09:32Z</time>
      </trkpt>
      <trkpt lat="47.71168" lon="3.68091">
        <ele>286.8</ele>
        <time>2022-02-23T10:09:33Z</time>
      </trkpt>
      <trkpt lat="47.71169" lon="3.68091">
        <ele>286.8</ele>
        <time>2022-02-23T10:09:34Z</time>
      </trkpt>
      <trkpt lat="47.7117" lon="3.68091">
        <ele>286.8</ele>
        <time>2022-02-23T10:09:35Z</time>
      </trkpt>
      <trkpt lat="47.71171" lon="3.68092">
        <ele>286.8</ele>
        <time>2022-02-23T10:09:36Z</time>
      </trkpt>
      <trkpt lat="47.71173" lon="3.68092">
        <ele>286.8</ele>
        <time>2022-02-23T10:09:38Z</time>
      </trkpt>
      <trkpt lat="47.71175" lon="3.68093">
        <ele>286.7</ele>
        <time>2022-02-23T10:09:39Z</time>
      </trkpt>
      <trkpt lat="47.71176" lon="3.68093">
        <ele>286.7</ele>
        <time>2022-02-23T10:09:40Z</time>
      </trkpt>
      <trkpt lat="47.71177" lon="3.68093">
        <ele>286.7</ele>
        <time>2022-02-23T10:09:41Z</time>
      </trkpt>
      <trkpt lat="47.71178" lon="3.68094">
        <ele>286.7</ele>
        <time>2022-02-23T10:09:42Z</time>
      </trkpt>
      <trkpt lat="47.71179" lon="3.68094">
        <ele>286.7</ele>
        <time>2022-02-23T10:09:43Z</time>
      </trkpt>
      <trkpt lat="47.71181" lon="3.68095">
        <ele>286.7</ele>
        <time>2022-02-23T10:09:45Z</time>
      </trkpt>
      <trkpt lat="47.71183" lon="3.68095">
        <ele>286.7</ele>
        <time>2022-02-23T10:09:46Z</time>
      </trkpt>
      <trkpt lat="47.71184" lon="3.68095">
        <ele>286.7</ele>
        <time>2022-02-23T10:09:47Z</time>
      </trkpt>
      <trkpt lat="47.71186" lon="3.68096">
        <ele>286.6</ele>
        <time>2022-02-23T10:09:48Z</time>
      </trkpt>
      <trkpt lat="47.71188" lon="3.68097">
        <ele>286.6</ele>
        <time>2022-02-23T10:09:49Z</time>
      </trkpt>
      <trkpt lat="47.71189" lon="3.68097">
        <ele>286.6</ele>
        <time>2022-02-23T10:09:50Z</time>
      </trkpt>
      <trkpt lat="47.7119" lon="3.68098">
        <ele>286.6</ele>
        <time>2022-02-23T10:09:51Z</time>
      </trkpt>
      <trkpt lat="47.71191" lon="3.68098">
        <ele>286.6</ele>
        <time>2022-02-23T10:09:52Z</time>
      </trkpt>
      <trkpt lat="47.71192" lon="3.68098">
        <ele>286.6</ele>
        <time>2022-02-23T10:09:54Z</time>
      </trkpt>
      <trkpt lat="47.71194" lon="3.68099">
        <ele>286.6</ele>
        <time>2022-02-23T10:09:55Z</time>
      </trkpt>
      <trkpt lat="47.71195" lon="3.68099">
        <ele>286.6</ele>
        <time>2022-02-23T10:09:56Z</time>
      </trkpt>
      <trkpt lat="47.71196" lon="3.681">
        <ele>286.5</ele>
        <time>2022-02-23T10:09:57Z</time>
      </trkpt>
      <trkpt lat="47.71198" lon="3.681">
        <ele>286.5</ele>
        <time>2022-02-23T10:09:58Z</time>
      </trkpt>
      <trkpt lat="47.71199" lon="3.68101">
        <ele>286.5</ele>
        <time>2022-02-23T10:10:00Z</time>
      </trkpt>
      <trkpt lat="47.71201" lon="3.68102">
        <ele>286.5</ele>
        <time>2022-02-23T10:10:01Z</time>
      </trkpt>
      <trkpt lat="47.71202" lon="3.68102">
        <ele>286.5</ele>
        <time>2022-02-23T10:10:02Z</time>
      </trkpt>
      <trkpt lat="47.71203" lon="3.68102">
        <ele>286.5</ele>
        <time>2022-02-23T10:10:03Z</time>
      </trkpt>
      <trkpt lat="47.71204" lon="3.68103">
        <ele>286.5</ele>
        <time>2022-02-23T10:10:04Z</time>
      </trkpt>
      <trkpt lat="47.71206" lon="3.68103">
        <ele>286.5</ele>
        <time>2022-02-23T10:10:05Z</time>
      </trkpt>
      <trkpt lat="47.71208" lon="3.68104">
        <ele>286.5</ele>
        <time>2022-02-23T10:10:07Z</time>
      </trkpt>
      <trkpt lat="47.71209" lon="3.68104">
        <ele>286.5</ele>
        <time>2022-02-23T10:10:08Z</time>
      </trkpt>
      <trkpt lat="47.71209" lon="3.68104">
        <ele>286.4</ele>
        <time>2022-02-23T10:10:09Z</time>
      </trkpt>
      <trkpt lat="47.71211" lon="3.68105">
        <ele>286.4</ele>
        <time>2022-02-23T10:10:10Z</time>
      </trkpt>
      <trkpt lat="47.71211" lon="3.68105">
        <ele>286.4</ele>
        <time>2022-02-23T10:10:11Z</time>
      </trkpt>
      <trkpt lat="47.71213" lon="3.68106">
        <ele>286.4</ele>
        <time>2022-02-23T10:10:12Z</time>
      </trkpt>
      <trkpt lat="47.71215" lon="3.68107">
        <ele>286.4</ele>
        <time>2022-02-23T10:10:13Z</time>
      </trkpt>
      <trkpt lat="47.71215" lon="3.68107">
        <ele>286.4</ele>
        <time>2022-02-23T10:10:15Z</time>
      </trkpt>
      <trkpt lat="47.71216" lon="3.68108">
        <ele>286.4</ele>
        <time>2022-02-23T10:10:16Z</time>
      </trkpt>
      <trkpt lat="47.71218" lon="3.68108">
        <ele>286.3</ele>
        <time>2022-02-23T10:10:17Z</time>
      </trkpt>
      <trkpt lat="47.71219" lon="3.68109">
        <ele>286.3</ele>
        <time>2022-02-23T10:10:18Z</time>
      </trkpt>
      <trkpt lat="47.71221" lon="3.6811">
        <ele>286.3</ele>
        <time>2022-02-23T10:10:20Z</time>
      </trkpt>
      <trkpt lat="47.71222" lon="3.6811">
        <ele>286.3</ele>
        <time>2022-02-23T10:10:21Z</time>
      </trkpt>
      <trkpt lat="47.71224" lon="3.68111">
        <ele>286.3</ele>
        <time>2022-02-23T10:10:22Z</time>
      </trkpt>
      <trkpt lat="47.71225" lon="3.68111">
        <ele>286.2</ele>
        <time>2022-02-23T10:10:23Z</time>
      </trkpt>
      <trkpt lat="47.71226" lon="3.68111">
        <ele>286.2</ele>
        <time>2022-02-23T10:10:24Z</time>
      </trkpt>
      <trkpt lat="47.71227" lon="3.68112">
        <ele>286.2</ele>
        <time>2022-02-23T10:10:25Z</time>
      </trkpt>
      <trkpt lat="47.71228" lon="3.68112">
        <ele>286.2</ele>
        <time>2022-02-23T10:10:26Z</time>
      </trkpt>
      <trkpt lat="47.71229" lon="3.68113">
        <ele>286.2</ele>
        <time>2022-02-23T10:10:28Z</time>
      </trkpt>
      <trkpt lat="47.7123" lon="3.68113">
        <ele>286.2</ele>
        <time>2022-02-23T10:10:29Z</time>
      </trkpt>
      <trkpt lat="47.71231" lon="3.68114">
        <ele>286.2</ele>
        <time>2022-02-23T10:10:30Z</time>
      </trkpt>
      <trkpt lat="47.71232" lon="3.68114">
        <ele>286.1</ele>
        <time>2022-02-23T10:10:31Z</time>
      </trkpt>
      <trkpt lat="47.71233" lon="3.68114">
        <ele>286.1</ele>
        <time>2022-02-23T10:10:32Z</time>
      </trkpt>
      <trkpt lat="47.71235" lon="3.68114">
        <ele>286.1</ele>
        <time>2022-02-23T10:10:33Z</time>
      </trkpt>
      <trkpt lat="47.71236" lon="3.68115">
        <ele>286.1</ele>
        <time>2022-02-23T10:10:35Z</time>
      </trkpt>
      <trkpt lat="47.71237" lon="3.68115">
        <ele>286.1</ele>
        <time>2022-02-23T10:10:36Z</time>
      </trkpt>
      <trkpt lat="47.71238" lon="3.68115">
        <ele>286.1</ele>
        <time>2022-02-23T10:10:37Z</time>
      </trkpt>
      <trkpt lat="47.71239" lon="3.68116">
        <ele>286.1</ele>
        <time>2022-02-23T10:10:38Z</time>
      </trkpt>
      <trkpt lat="47.7124" lon="3.68116">
        <ele>286.1</ele>
        <time>2022-02-23T10:10:39Z</time>
      </trkpt>
      <trkpt lat="47.71241" lon="3.68116">
        <ele>286</ele>
        <time>2022-02-23T10:10:40Z</time>
      </trkpt>
      <trkpt lat="47.71242" lon="3.68116">
        <ele>286</ele>
        <time>2022-02-23T10:10:41Z</time>
      </trkpt>
      <trkpt lat="47.71244" lon="3.68117">
        <ele>286</ele>
        <time>2022-02-23T10:10:42Z</time>
      </trkpt>
      <trkpt lat="47.71245" lon="3.68117">
        <ele>286</ele>
        <time>2022-02-23T10:10:44Z</time>
      </trkpt>
      <trkpt lat="47.71246" lon="3.68118">
        <ele>286</ele>
        <time>2022-02-23T10:10:45Z</time>
      </trkpt>
      <trkpt lat="47.71247" lon="3.68118">
        <ele>286</ele>
        <time>2022-02-23T10:10:46Z</time>
      </trkpt>
      <trkpt lat="47.71248" lon="3.68119">
        <ele>286</ele>
        <time>2022-02-23T10:10:47Z</time>
      </trkpt>
      <trkpt lat="47.71249" lon="3.68119">
        <ele>285.9</ele>
        <time>2022-02-23T10:10:48Z</time>
      </trkpt>
      <trkpt lat="47.7125" lon="3.6812">
        <ele>285.9</ele>
        <time>2022-02-23T10:10:49Z</time>
      </trkpt>
      <trkpt lat="47.71251" lon="3.6812">
        <ele>285.9</ele>
        <time>2022-02-23T10:10:50Z</time>
      </trkpt>
      <trkpt lat="47.71252" lon="3.68121">
        <ele>285.9</ele>
        <time>2022-02-23T10:10:52Z</time>
      </trkpt>
      <trkpt lat="47.71253" lon="3.68121">
        <ele>285.9</ele>
        <time>2022-02-23T10:10:53Z</time>
      </trkpt>
      <trkpt lat="47.71254" lon="3.68122">
        <ele>285.9</ele>
        <time>2022-02-23T10:10:54Z</time>
      </trkpt>
      <trkpt lat="47.71255" lon="3.68122">
        <ele>285.9</ele>
        <time>2022-02-23T10:10:55Z</time>
      </trkpt>
      <trkpt lat="47.71256" lon="3.68123">
        <ele>285.8</ele>
        <time>2022-02-23T10:10:56Z</time>
      </trkpt>
      <trkpt lat="47.71257" lon="3.68123">
        <ele>285.8</ele>
        <time>2022-02-23T10:10:57Z</time>
      </trkpt>
      <trkpt lat="47.71259" lon="3.68123">
        <ele>285.8</ele>
        <time>2022-02-23T10:10:59Z</time>
      </trkpt>
      <trkpt lat="47.71261" lon="3.68124">
        <ele>285.8</ele>
        <time>2022-02-23T10:11:00Z</time>
      </trkpt>
      <trkpt lat="47.71261" lon="3.68125">
        <ele>285.8</ele>
        <time>2022-02-23T10:11:01Z</time>
      </trkpt>
      <trkpt lat="47.71262" lon="3.68125">
        <ele>285.8</ele>
        <time>2022-02-23T10:11:02Z</time>
      </trkpt>
      <trkpt lat="47.71263" lon="3.68126">
        <ele>285.7</ele>
        <time>2022-02-23T10:11:03Z</time>
      </trkpt>
      <trkpt lat="47.71264" lon="3.68126">
        <ele>285.7</ele>
        <time>2022-02-23T10:11:04Z</time>
      </trkpt>
      <trkpt lat="47.71265" lon="3.68126">
        <ele>285.7</ele>
        <time>2022-02-23T10:11:05Z</time>
      </trkpt>
      <trkpt lat="47.71266" lon="3.68127">
        <ele>285.7</ele>
        <time>2022-02-23T10:11:06Z</time>
      </trkpt>
      <trkpt lat="47.71267" lon="3.68127">
        <ele>285.7</ele>
        <time>2022-02-23T10:11:07Z</time>
      </trkpt>
      <trkpt lat="47.71268" lon="3.68127">
        <ele>285.7</ele>
        <time>2022-02-23T10:11:08Z</time>
      </trkpt>
      <trkpt lat="47.7127" lon="3.68128">
        <ele>285.6</ele>
        <time>2022-02-23T10:11:09Z</time>
      </trkpt>
      <trkpt lat="47.71271" lon="3.68128">
        <ele>285.6</ele>
        <time>2022-02-23T10:11:10Z</time>
      </trkpt>
      <trkpt lat="47.71272" lon="3.68128">
        <ele>285.6</ele>
        <time>2022-02-23T10:11:11Z</time>
      </trkpt>
      <trkpt lat="47.71274" lon="3.68129">
        <ele>285.6</ele>
        <time>2022-02-23T10:11:13Z</time>
      </trkpt>
      <trkpt lat="47.71275" lon="3.68129">
        <ele>285.6</ele>
        <time>2022-02-23T10:11:14Z</time>
      </trkpt>
      <trkpt lat="47.71276" lon="3.68129">
        <ele>285.6</ele>
        <time>2022-02-23T10:11:15Z</time>
      </trkpt>
      <trkpt lat="47.71278" lon="3.6813">
        <ele>285.5</ele>
        <time>2022-02-23T10:11:16Z</time>
      </trkpt>
      <trkpt lat="47.71279" lon="3.6813">
        <ele>285.5</ele>
        <time>2022-02-23T10:11:17Z</time>
      </trkpt>
      <trkpt lat="47.71279" lon="3.6813">
        <ele>285.5</ele>
        <time>2022-02-23T10:11:18Z</time>
      </trkpt>
      <trkpt lat="47.71282" lon="3.68131">
        <ele>285.5</ele>
        <time>2022-02-23T10:11:20Z</time>
      </trkpt>
      <trkpt lat="47.71282" lon="3.68131">
        <ele>285.5</ele>
        <time>2022-02-23T10:11:21Z</time>
      </trkpt>
      <trkpt lat="47.71283" lon="3.68131">
        <ele>285.5</ele>
        <time>2022-02-23T10:11:22Z</time>
      </trkpt>
      <trkpt lat="47.71284" lon="3.68131">
        <ele>285.4</ele>
        <time>2022-02-23T10:11:23Z</time>
      </trkpt>
      <trkpt lat="47.71286" lon="3.68131">
        <ele>285.4</ele>
        <time>2022-02-23T10:11:25Z</time>
      </trkpt>
      <trkpt lat="47.71287" lon="3.68131">
        <ele>285.4</ele>
        <time>2022-02-23T10:11:26Z</time>
      </trkpt>
      <trkpt lat="47.71288" lon="3.68132">
        <ele>285.3</ele>
        <time>2022-02-23T10:11:27Z</time>
      </trkpt>
      <trkpt lat="47.71289" lon="3.68132">
        <ele>285.3</ele>
        <time>2022-02-23T10:11:28Z</time>
      </trkpt>
      <trkpt lat="47.7129" lon="3.68132">
        <ele>285.3</ele>
        <time>2022-02-23T10:11:29Z</time>
      </trkpt>
      <trkpt lat="47.71292" lon="3.68132">
        <ele>285.2</ele>
        <time>2022-02-23T10:11:30Z</time>
      </trkpt>
      <trkpt lat="47.71293" lon="3.68132">
        <ele>285.2</ele>
        <time>2022-02-23T10:11:32Z</time>
      </trkpt>
      <trkpt lat="47.71294" lon="3.68132">
        <ele>285.2</ele>
        <time>2022-02-23T10:11:33Z</time>
      </trkpt>
      <trkpt lat="47.71295" lon="3.68133">
        <ele>285.2</ele>
        <time>2022-02-23T10:11:34Z</time>
      </trkpt>
      <trkpt lat="47.71296" lon="3.68133">
        <ele>285.1</ele>
        <time>2022-02-23T10:11:35Z</time>
      </trkpt>
      <trkpt lat="47.71296" lon="3.68133">
        <ele>285.1</ele>
        <time>2022-02-23T10:11:36Z</time>
      </trkpt>
      <trkpt lat="47.71298" lon="3.68134">
        <ele>285.1</ele>
        <time>2022-02-23T10:11:37Z</time>
      </trkpt>
      <trkpt lat="47.71299" lon="3.68134">
        <ele>285</ele>
        <time>2022-02-23T10:11:38Z</time>
      </trkpt>
      <trkpt lat="47.713" lon="3.68135">
        <ele>285</ele>
        <time>2022-02-23T10:11:40Z</time>
      </trkpt>
      <trkpt lat="47.71301" lon="3.68135">
        <ele>285</ele>
        <time>2022-02-23T10:11:41Z</time>
      </trkpt>
      <trkpt lat="47.71302" lon="3.68135">
        <ele>284.9</ele>
        <time>2022-02-23T10:11:42Z</time>
      </trkpt>
      <trkpt lat="47.71303" lon="3.68135">
        <ele>284.9</ele>
        <time>2022-02-23T10:11:43Z</time>
      </trkpt>
      <trkpt lat="47.71304" lon="3.68135">
        <ele>284.9</ele>
        <time>2022-02-23T10:11:44Z</time>
      </trkpt>
      <trkpt lat="47.71305" lon="3.68135">
        <ele>284.9</ele>
        <time>2022-02-23T10:11:45Z</time>
      </trkpt>
      <trkpt lat="47.71306" lon="3.68135">
        <ele>284.8</ele>
        <time>2022-02-23T10:11:47Z</time>
      </trkpt>
      <trkpt lat="47.71307" lon="3.68135">
        <ele>284.8</ele>
        <time>2022-02-23T10:11:48Z</time>
      </trkpt>
      <trkpt lat="47.71308" lon="3.68135">
        <ele>284.8</ele>
        <time>2022-02-23T10:11:49Z</time>
      </trkpt>
      <trkpt lat="47.71309" lon="3.68135">
        <ele>284.8</ele>
        <time>2022-02-23T10:11:50Z</time>
      </trkpt>
      <trkpt lat="47.7131" lon="3.68135">
        <ele>284.8</ele>
        <time>2022-02-23T10:11:52Z</time>
      </trkpt>
      <trkpt lat="47.71311" lon="3.68136">
        <ele>284.8</ele>
        <time>2022-02-23T10:11:53Z</time>
      </trkpt>
      <trkpt lat="47.71311" lon="3.68136">
        <ele>284.8</ele>
        <time>2022-02-23T10:11:54Z</time>
      </trkpt>
      <trkpt lat="47.71312" lon="3.68136">
        <ele>284.8</ele>
        <time>2022-02-23T10:11:55Z</time>
      </trkpt>
      <trkpt lat="47.71314" lon="3.68136">
        <ele>284.7</ele>
        <time>2022-02-23T10:11:56Z</time>
      </trkpt>
      <trkpt lat="47.71315" lon="3.68136">
        <ele>284.7</ele>
        <time>2022-02-23T10:11:57Z</time>
      </trkpt>
      <trkpt lat="47.71315" lon="3.68136">
        <ele>284.7</ele>
        <time>2022-02-23T10:11:58Z</time>
      </trkpt>
      <trkpt lat="47.71316" lon="3.68136">
        <ele>284.7</ele>
        <time>2022-02-23T10:11:59Z</time>
      </trkpt>
      <trkpt lat="47.71317" lon="3.68137">
        <ele>284.7</ele>
        <time>2022-02-23T10:12:01Z</time>
      </trkpt>
      <trkpt lat="47.71318" lon="3.68137">
        <ele>284.7</ele>
        <time>2022-02-23T10:12:02Z</time>
      </trkpt>
      <trkpt lat="47.71319" lon="3.68137">
        <ele>284.7</ele>
        <time>2022-02-23T10:12:03Z</time>
      </trkpt>
      <trkpt lat="47.7132" lon="3.68137">
        <ele>284.7</ele>
        <time>2022-02-23T10:12:04Z</time>
      </trkpt>
      <trkpt lat="47.71321" lon="3.68137">
        <ele>284.7</ele>
        <time>2022-02-23T10:12:05Z</time>
      </trkpt>
      <trkpt lat="47.71322" lon="3.68137">
        <ele>284.7</ele>
        <time>2022-02-23T10:12:07Z</time>
      </trkpt>
      <trkpt lat="47.71323" lon="3.68137">
        <ele>284.7</ele>
        <time>2022-02-23T10:12:08Z</time>
      </trkpt>
      <trkpt lat="47.71324" lon="3.68137">
        <ele>284.6</ele>
        <time>2022-02-23T10:12:09Z</time>
      </trkpt>
      <trkpt lat="47.71325" lon="3.68137">
        <ele>284.6</ele>
        <time>2022-02-23T10:12:10Z</time>
      </trkpt>
      <trkpt lat="47.71326" lon="3.68137">
        <ele>284.6</ele>
        <time>2022-02-23T10:12:11Z</time>
      </trkpt>
      <trkpt lat="47.71327" lon="3.68137">
        <ele>284.6</ele>
        <time>2022-02-23T10:12:13Z</time>
      </trkpt>
      <trkpt lat="47.71328" lon="3.68137">
        <ele>284.6</ele>
        <time>2022-02-23T10:12:14Z</time>
      </trkpt>
      <trkpt lat="47.71331" lon="3.68138">
        <ele>284.6</ele>
        <time>2022-02-23T10:12:15Z</time>
      </trkpt>
      <trkpt lat="47.71332" lon="3.68138">
        <ele>284.6</ele>
        <time>2022-02-23T10:12:16Z</time>
      </trkpt>
      <trkpt lat="47.71332" lon="3.68139">
        <ele>284.5</ele>
        <time>2022-02-23T10:12:17Z</time>
      </trkpt>
      <trkpt lat="47.71335" lon="3.68139">
        <ele>284.5</ele>
        <time>2022-02-23T10:12:19Z</time>
      </trkpt>
      <trkpt lat="47.71335" lon="3.68139">
        <ele>284.4</ele>
        <time>2022-02-23T10:12:20Z</time>
      </trkpt>
      <trkpt lat="47.71336" lon="3.6814">
        <ele>284.4</ele>
        <time>2022-02-23T10:12:21Z</time>
      </trkpt>
      <trkpt lat="47.71338" lon="3.6814">
        <ele>284.4</ele>
        <time>2022-02-23T10:12:22Z</time>
      </trkpt>
      <trkpt lat="47.71339" lon="3.6814">
        <ele>284.3</ele>
        <time>2022-02-23T10:12:23Z</time>
      </trkpt>
      <trkpt lat="47.7134" lon="3.6814">
        <ele>284.3</ele>
        <time>2022-02-23T10:12:25Z</time>
      </trkpt>
      <trkpt lat="47.71342" lon="3.6814">
        <ele>284.2</ele>
        <time>2022-02-23T10:12:26Z</time>
      </trkpt>
      <trkpt lat="47.71345" lon="3.68139">
        <ele>284.1</ele>
        <time>2022-02-23T10:12:27Z</time>
      </trkpt>
      <trkpt lat="47.71346" lon="3.68139">
        <ele>284.1</ele>
        <time>2022-02-23T10:12:29Z</time>
      </trkpt>
      <trkpt lat="47.71347" lon="3.68138">
        <ele>284.1</ele>
        <time>2022-02-23T10:12:30Z</time>
      </trkpt>
      <trkpt lat="47.71348" lon="3.68138">
        <ele>284</ele>
        <time>2022-02-23T10:12:31Z</time>
      </trkpt>
      <trkpt lat="47.71349" lon="3.68138">
        <ele>284</ele>
        <time>2022-02-23T10:12:32Z</time>
      </trkpt>
      <trkpt lat="47.7135" lon="3.68137">
        <ele>283.9</ele>
        <time>2022-02-23T10:12:33Z</time>
      </trkpt>
      <trkpt lat="47.71351" lon="3.68137">
        <ele>283.9</ele>
        <time>2022-02-23T10:12:34Z</time>
      </trkpt>
      <trkpt lat="47.71352" lon="3.68136">
        <ele>283.9</ele>
        <time>2022-02-23T10:12:35Z</time>
      </trkpt>
      <trkpt lat="47.71353" lon="3.68135">
        <ele>283.8</ele>
        <time>2022-02-23T10:12:37Z</time>
      </trkpt>
      <trkpt lat="47.71354" lon="3.68135">
        <ele>283.8</ele>
        <time>2022-02-23T10:12:38Z</time>
      </trkpt>
      <trkpt lat="47.71355" lon="3.68134">
        <ele>283.7</ele>
        <time>2022-02-23T10:12:39Z</time>
      </trkpt>
      <trkpt lat="47.71356" lon="3.68133">
        <ele>283.7</ele>
        <time>2022-02-23T10:12:40Z</time>
      </trkpt>
      <trkpt lat="47.71357" lon="3.68133">
        <ele>283.6</ele>
        <time>2022-02-23T10:12:41Z</time>
      </trkpt>
      <trkpt lat="47.71358" lon="3.68132">
        <ele>283.6</ele>
        <time>2022-02-23T10:12:42Z</time>
      </trkpt>
      <trkpt lat="47.71359" lon="3.68132">
        <ele>283.6</ele>
        <time>2022-02-23T10:12:43Z</time>
      </trkpt>
      <trkpt lat="47.7136" lon="3.68131">
        <ele>283.5</ele>
        <time>2022-02-23T10:12:44Z</time>
      </trkpt>
      <trkpt lat="47.7136" lon="3.6813">
        <ele>283.5</ele>
        <time>2022-02-23T10:12:45Z</time>
      </trkpt>
      <trkpt lat="47.71361" lon="3.6813">
        <ele>283.4</ele>
        <time>2022-02-23T10:12:46Z</time>
      </trkpt>
      <trkpt lat="47.71362" lon="3.68129">
        <ele>283.4</ele>
        <time>2022-02-23T10:12:47Z</time>
      </trkpt>
      <trkpt lat="47.71363" lon="3.68129">
        <ele>283.4</ele>
        <time>2022-02-23T10:12:49Z</time>
      </trkpt>
      <trkpt lat="47.71364" lon="3.68128">
        <ele>283.3</ele>
        <time>2022-02-23T10:12:50Z</time>
      </trkpt>
      <trkpt lat="47.71365" lon="3.68128">
        <ele>283.3</ele>
        <time>2022-02-23T10:12:51Z</time>
      </trkpt>
      <trkpt lat="47.71366" lon="3.68127">
        <ele>283.2</ele>
        <time>2022-02-23T10:12:52Z</time>
      </trkpt>
      <trkpt lat="47.71367" lon="3.68127">
        <ele>283.2</ele>
        <time>2022-02-23T10:12:53Z</time>
      </trkpt>
      <trkpt lat="47.71369" lon="3.68127">
        <ele>283.1</ele>
        <time>2022-02-23T10:12:54Z</time>
      </trkpt>
      <trkpt lat="47.7137" lon="3.68127">
        <ele>283.1</ele>
        <time>2022-02-23T10:12:55Z</time>
      </trkpt>
      <trkpt lat="47.71371" lon="3.68127">
        <ele>283</ele>
        <time>2022-02-23T10:12:57Z</time>
      </trkpt>
      <trkpt lat="47.71372" lon="3.68127">
        <ele>283</ele>
        <time>2022-02-23T10:12:58Z</time>
      </trkpt>
      <trkpt lat="47.71373" lon="3.68127">
        <ele>282.9</ele>
        <time>2022-02-23T10:12:59Z</time>
      </trkpt>
      <trkpt lat="47.71374" lon="3.68127">
        <ele>282.9</ele>
        <time>2022-02-23T10:13:00Z</time>
      </trkpt>
      <trkpt lat="47.71377" lon="3.68128">
        <ele>282.8</ele>
        <time>2022-02-23T10:13:01Z</time>
      </trkpt>
      <trkpt lat="47.71377" lon="3.68128">
        <ele>282.8</ele>
        <time>2022-02-23T10:13:02Z</time>
      </trkpt>
      <trkpt lat="47.71378" lon="3.68128">
        <ele>282.7</ele>
        <time>2022-02-23T10:13:03Z</time>
      </trkpt>
      <trkpt lat="47.71379" lon="3.68128">
        <ele>282.7</ele>
        <time>2022-02-23T10:13:04Z</time>
      </trkpt>
      <trkpt lat="47.71381" lon="3.68129">
        <ele>282.6</ele>
        <time>2022-02-23T10:13:06Z</time>
      </trkpt>
      <trkpt lat="47.71382" lon="3.68129">
        <ele>282.6</ele>
        <time>2022-02-23T10:13:07Z</time>
      </trkpt>
      <trkpt lat="47.71384" lon="3.68128">
        <ele>282.5</ele>
        <time>2022-02-23T10:13:08Z</time>
      </trkpt>
      <trkpt lat="47.71386" lon="3.68128">
        <ele>282.4</ele>
        <time>2022-02-23T10:13:09Z</time>
      </trkpt>
      <trkpt lat="47.71387" lon="3.68128">
        <ele>282.4</ele>
        <time>2022-02-23T10:13:10Z</time>
      </trkpt>
      <trkpt lat="47.71387" lon="3.68127">
        <ele>282.4</ele>
        <time>2022-02-23T10:13:11Z</time>
      </trkpt>
      <trkpt lat="47.71389" lon="3.68127">
        <ele>282.3</ele>
        <time>2022-02-23T10:13:12Z</time>
      </trkpt>
      <trkpt lat="47.7139" lon="3.68127">
        <ele>282.3</ele>
        <time>2022-02-23T10:13:13Z</time>
      </trkpt>
      <trkpt lat="47.71391" lon="3.68127">
        <ele>282.2</ele>
        <time>2022-02-23T10:13:14Z</time>
      </trkpt>
      <trkpt lat="47.71392" lon="3.68126">
        <ele>282.2</ele>
        <time>2022-02-23T10:13:16Z</time>
      </trkpt>
      <trkpt lat="47.71394" lon="3.68126">
        <ele>282.1</ele>
        <time>2022-02-23T10:13:17Z</time>
      </trkpt>
      <trkpt lat="47.71395" lon="3.68125">
        <ele>282.1</ele>
        <time>2022-02-23T10:13:18Z</time>
      </trkpt>
      <trkpt lat="47.71397" lon="3.68125">
        <ele>282.1</ele>
        <time>2022-02-23T10:13:19Z</time>
      </trkpt>
      <trkpt lat="47.71399" lon="3.68124">
        <ele>282</ele>
        <time>2022-02-23T10:13:20Z</time>
      </trkpt>
      <trkpt lat="47.714" lon="3.68124">
        <ele>282</ele>
        <time>2022-02-23T10:13:21Z</time>
      </trkpt>
      <trkpt lat="47.71401" lon="3.68123">
        <ele>281.9</ele>
        <time>2022-02-23T10:13:22Z</time>
      </trkpt>
      <trkpt lat="47.71402" lon="3.68123">
        <ele>281.9</ele>
        <time>2022-02-23T10:13:24Z</time>
      </trkpt>
      <trkpt lat="47.71403" lon="3.68122">
        <ele>281.9</ele>
        <time>2022-02-23T10:13:25Z</time>
      </trkpt>
      <trkpt lat="47.71406" lon="3.68121">
        <ele>281.8</ele>
        <time>2022-02-23T10:13:26Z</time>
      </trkpt>
      <trkpt lat="47.71406" lon="3.6812">
        <ele>281.8</ele>
        <time>2022-02-23T10:13:27Z</time>
      </trkpt>
      <trkpt lat="47.71407" lon="3.6812">
        <ele>281.8</ele>
        <time>2022-02-23T10:13:28Z</time>
      </trkpt>
      <trkpt lat="47.71408" lon="3.68119">
        <ele>281.7</ele>
        <time>2022-02-23T10:13:29Z</time>
      </trkpt>
      <trkpt lat="47.71409" lon="3.68118">
        <ele>281.7</ele>
        <time>2022-02-23T10:13:30Z</time>
      </trkpt>
      <trkpt lat="47.7141" lon="3.68118">
        <ele>281.7</ele>
        <time>2022-02-23T10:13:31Z</time>
      </trkpt>
      <trkpt lat="47.71412" lon="3.68117">
        <ele>281.7</ele>
        <time>2022-02-23T10:13:32Z</time>
      </trkpt>
      <trkpt lat="47.71413" lon="3.68116">
        <ele>281.6</ele>
        <time>2022-02-23T10:13:34Z</time>
      </trkpt>
      <trkpt lat="47.71414" lon="3.68115">
        <ele>281.6</ele>
        <time>2022-02-23T10:13:35Z</time>
      </trkpt>
      <trkpt lat="47.71415" lon="3.68115">
        <ele>281.6</ele>
        <time>2022-02-23T10:13:36Z</time>
      </trkpt>
      <trkpt lat="47.71416" lon="3.68114">
        <ele>281.6</ele>
        <time>2022-02-23T10:13:37Z</time>
      </trkpt>
      <trkpt lat="47.71417" lon="3.68114">
        <ele>281.5</ele>
        <time>2022-02-23T10:13:38Z</time>
      </trkpt>
      <trkpt lat="47.71419" lon="3.68114">
        <ele>281.5</ele>
        <time>2022-02-23T10:13:39Z</time>
      </trkpt>
      <trkpt lat="47.7142" lon="3.68113">
        <ele>281.5</ele>
        <time>2022-02-23T10:13:41Z</time>
      </trkpt>
      <trkpt lat="47.71421" lon="3.68113">
        <ele>281.5</ele>
        <time>2022-02-23T10:13:42Z</time>
      </trkpt>
      <trkpt lat="47.71422" lon="3.68113">
        <ele>281.4</ele>
        <time>2022-02-23T10:13:43Z</time>
      </trkpt>
      <trkpt lat="47.71423" lon="3.68113">
        <ele>281.4</ele>
        <time>2022-02-23T10:13:44Z</time>
      </trkpt>
      <trkpt lat="47.71424" lon="3.68113">
        <ele>281.4</ele>
        <time>2022-02-23T10:13:45Z</time>
      </trkpt>
      <trkpt lat="47.71425" lon="3.68113">
        <ele>281.4</ele>
        <time>2022-02-23T10:13:46Z</time>
      </trkpt>
      <trkpt lat="47.71426" lon="3.68113">
        <ele>281.3</ele>
        <time>2022-02-23T10:13:47Z</time>
      </trkpt>
      <trkpt lat="47.71427" lon="3.68113">
        <ele>281.3</ele>
        <time>2022-02-23T10:13:49Z</time>
      </trkpt>
      <trkpt lat="47.71428" lon="3.68113">
        <ele>281.3</ele>
        <time>2022-02-23T10:13:50Z</time>
      </trkpt>
      <trkpt lat="47.71429" lon="3.68113">
        <ele>281.3</ele>
        <time>2022-02-23T10:13:51Z</time>
      </trkpt>
      <trkpt lat="47.7143" lon="3.68113">
        <ele>281.2</ele>
        <time>2022-02-23T10:13:52Z</time>
      </trkpt>
      <trkpt lat="47.71431" lon="3.68113">
        <ele>281.2</ele>
        <time>2022-02-23T10:13:53Z</time>
      </trkpt>
      <trkpt lat="47.71431" lon="3.68113">
        <ele>281.2</ele>
        <time>2022-02-23T10:13:54Z</time>
      </trkpt>
      <trkpt lat="47.71432" lon="3.68113">
        <ele>281.2</ele>
        <time>2022-02-23T10:13:55Z</time>
      </trkpt>
      <trkpt lat="47.71433" lon="3.68113">
        <ele>281.2</ele>
        <time>2022-02-23T10:13:57Z</time>
      </trkpt>
      <trkpt lat="47.71434" lon="3.68114">
        <ele>281.1</ele>
        <time>2022-02-23T10:13:58Z</time>
      </trkpt>
      <trkpt lat="47.71435" lon="3.68114">
        <ele>281.1</ele>
        <time>2022-02-23T10:13:59Z</time>
      </trkpt>
      <trkpt lat="47.71436" lon="3.68114">
        <ele>281.1</ele>
        <time>2022-02-23T10:14:00Z</time>
      </trkpt>
      <trkpt lat="47.71437" lon="3.68114">
        <ele>281.1</ele>
        <time>2022-02-23T10:14:01Z</time>
      </trkpt>
      <trkpt lat="47.71438" lon="3.68114">
        <ele>281.1</ele>
        <time>2022-02-23T10:14:02Z</time>
      </trkpt>
      <trkpt lat="47.7144" lon="3.68114">
        <ele>281</ele>
        <time>2022-02-23T10:14:03Z</time>
      </trkpt>
      <trkpt lat="47.71441" lon="3.68114">
        <ele>281</ele>
        <time>2022-02-23T10:14:04Z</time>
      </trkpt>
      <trkpt lat="47.71443" lon="3.68114">
        <ele>281</ele>
        <time>2022-02-23T10:14:06Z</time>
      </trkpt>
      <trkpt lat="47.71444" lon="3.68114">
        <ele>280.9</ele>
        <time>2022-02-23T10:14:07Z</time>
      </trkpt>
      <trkpt lat="47.71445" lon="3.68114">
        <ele>280.9</ele>
        <time>2022-02-23T10:14:08Z</time>
      </trkpt>
      <trkpt lat="47.71446" lon="3.68114">
        <ele>280.9</ele>
        <time>2022-02-23T10:14:09Z</time>
      </trkpt>
      <trkpt lat="47.71448" lon="3.68114">
        <ele>280.8</ele>
        <time>2022-02-23T10:14:10Z</time>
      </trkpt>
      <trkpt lat="47.71449" lon="3.68114">
        <ele>280.8</ele>
        <time>2022-02-23T10:14:11Z</time>
      </trkpt>
      <trkpt lat="47.7145" lon="3.68113">
        <ele>280.8</ele>
        <time>2022-02-23T10:14:12Z</time>
      </trkpt>
      <trkpt lat="47.71452" lon="3.68113">
        <ele>280.8</ele>
        <time>2022-02-23T10:14:14Z</time>
      </trkpt>
      <trkpt lat="47.71453" lon="3.68113">
        <ele>280.8</ele>
        <time>2022-02-23T10:14:15Z</time>
      </trkpt>
      <trkpt lat="47.71454" lon="3.68112">
        <ele>280.7</ele>
        <time>2022-02-23T10:14:16Z</time>
      </trkpt>
      <trkpt lat="47.71455" lon="3.68112">
        <ele>280.7</ele>
        <time>2022-02-23T10:14:17Z</time>
      </trkpt>
      <trkpt lat="47.71456" lon="3.68112">
        <ele>280.7</ele>
        <time>2022-02-23T10:14:18Z</time>
      </trkpt>
      <trkpt lat="47.71458" lon="3.68112">
        <ele>280.7</ele>
        <time>2022-02-23T10:14:20Z</time>
      </trkpt>
      <trkpt lat="47.71459" lon="3.68112">
        <ele>280.7</ele>
        <time>2022-02-23T10:14:21Z</time>
      </trkpt>
      <trkpt lat="47.7146" lon="3.68112">
        <ele>280.6</ele>
        <time>2022-02-23T10:14:22Z</time>
      </trkpt>
      <trkpt lat="47.71461" lon="3.68112">
        <ele>280.6</ele>
        <time>2022-02-23T10:14:23Z</time>
      </trkpt>
      <trkpt lat="47.71463" lon="3.68112">
        <ele>280.5</ele>
        <time>2022-02-23T10:14:24Z</time>
      </trkpt>
      <trkpt lat="47.71464" lon="3.68112">
        <ele>280.5</ele>
        <time>2022-02-23T10:14:26Z</time>
      </trkpt>
      <trkpt lat="47.71466" lon="3.68111">
        <ele>280.4</ele>
        <time>2022-02-23T10:14:27Z</time>
      </trkpt>
      <trkpt lat="47.71467" lon="3.68111">
        <ele>280.4</ele>
        <time>2022-02-23T10:14:28Z</time>
      </trkpt>
      <trkpt lat="47.71468" lon="3.68111">
        <ele>280.4</ele>
        <time>2022-02-23T10:14:29Z</time>
      </trkpt>
      <trkpt lat="47.7147" lon="3.6811">
        <ele>280.3</ele>
        <time>2022-02-23T10:14:30Z</time>
      </trkpt>
      <trkpt lat="47.71471" lon="3.6811">
        <ele>280.3</ele>
        <time>2022-02-23T10:14:31Z</time>
      </trkpt>
      <trkpt lat="47.71472" lon="3.6811">
        <ele>280.3</ele>
        <time>2022-02-23T10:14:32Z</time>
      </trkpt>
      <trkpt lat="47.71473" lon="3.6811">
        <ele>280.2</ele>
        <time>2022-02-23T10:14:33Z</time>
      </trkpt>
      <trkpt lat="47.71475" lon="3.6811">
        <ele>280.2</ele>
        <time>2022-02-23T10:14:34Z</time>
      </trkpt>
      <trkpt lat="47.71476" lon="3.6811">
        <ele>280.1</ele>
        <time>2022-02-23T10:14:36Z</time>
      </trkpt>
      <trkpt lat="47.71477" lon="3.68109">
        <ele>280.1</ele>
        <time>2022-02-23T10:14:37Z</time>
      </trkpt>
      <trkpt lat="47.71478" lon="3.68109">
        <ele>280.1</ele>
        <time>2022-02-23T10:14:38Z</time>
      </trkpt>
      <trkpt lat="47.71479" lon="3.68109">
        <ele>280</ele>
        <time>2022-02-23T10:14:39Z</time>
      </trkpt>
      <trkpt lat="47.7148" lon="3.68109">
        <ele>280</ele>
        <time>2022-02-23T10:14:40Z</time>
      </trkpt>
      <trkpt lat="47.71481" lon="3.68108">
        <ele>280</ele>
        <time>2022-02-23T10:14:41Z</time>
      </trkpt>
      <trkpt lat="47.71482" lon="3.68108">
        <ele>279.9</ele>
        <time>2022-02-23T10:14:42Z</time>
      </trkpt>
      <trkpt lat="47.71483" lon="3.68107">
        <ele>279.9</ele>
        <time>2022-02-23T10:14:43Z</time>
      </trkpt>
      <trkpt lat="47.71484" lon="3.68107">
        <ele>279.9</ele>
        <time>2022-02-23T10:14:45Z</time>
      </trkpt>
      <trkpt lat="47.71485" lon="3.68107">
        <ele>279.8</ele>
        <time>2022-02-23T10:14:46Z</time>
      </trkpt>
      <trkpt lat="47.71487" lon="3.68107">
        <ele>279.8</ele>
        <time>2022-02-23T10:14:47Z</time>
      </trkpt>
      <trkpt lat="47.71488" lon="3.68107">
        <ele>279.7</ele>
        <time>2022-02-23T10:14:48Z</time>
      </trkpt>
      <trkpt lat="47.71489" lon="3.68106">
        <ele>279.7</ele>
        <time>2022-02-23T10:14:49Z</time>
      </trkpt>
      <trkpt lat="47.7149" lon="3.68106">
        <ele>279.7</ele>
        <time>2022-02-23T10:14:50Z</time>
      </trkpt>
      <trkpt lat="47.71491" lon="3.68106">
        <ele>279.6</ele>
        <time>2022-02-23T10:14:51Z</time>
      </trkpt>
      <trkpt lat="47.71492" lon="3.68106">
        <ele>279.6</ele>
        <time>2022-02-23T10:14:52Z</time>
      </trkpt>
      <trkpt lat="47.71493" lon="3.68106">
        <ele>279.6</ele>
        <time>2022-02-23T10:14:53Z</time>
      </trkpt>
      <trkpt lat="47.71493" lon="3.68106">
        <ele>279.6</ele>
        <time>2022-02-23T10:14:54Z</time>
      </trkpt>
      <trkpt lat="47.71494" lon="3.68106">
        <ele>279.5</ele>
        <time>2022-02-23T10:14:55Z</time>
      </trkpt>
      <trkpt lat="47.71495" lon="3.68107">
        <ele>279.5</ele>
        <time>2022-02-23T10:14:56Z</time>
      </trkpt>
      <trkpt lat="47.71496" lon="3.68107">
        <ele>279.5</ele>
        <time>2022-02-23T10:14:57Z</time>
      </trkpt>
      <trkpt lat="47.71497" lon="3.68107">
        <ele>279.4</ele>
        <time>2022-02-23T10:14:58Z</time>
      </trkpt>
      <trkpt lat="47.71498" lon="3.68106">
        <ele>279.4</ele>
        <time>2022-02-23T10:14:59Z</time>
      </trkpt>
      <trkpt lat="47.71499" lon="3.68107">
        <ele>279.4</ele>
        <time>2022-02-23T10:15:01Z</time>
      </trkpt>
      <trkpt lat="47.715" lon="3.68107">
        <ele>279.3</ele>
        <time>2022-02-23T10:15:02Z</time>
      </trkpt>
      <trkpt lat="47.71501" lon="3.68107">
        <ele>279.3</ele>
        <time>2022-02-23T10:15:03Z</time>
      </trkpt>
      <trkpt lat="47.71503" lon="3.68107">
        <ele>279.3</ele>
        <time>2022-02-23T10:15:04Z</time>
      </trkpt>
      <trkpt lat="47.71504" lon="3.68107">
        <ele>279.2</ele>
        <time>2022-02-23T10:15:05Z</time>
      </trkpt>
      <trkpt lat="47.71505" lon="3.68107">
        <ele>279.2</ele>
        <time>2022-02-23T10:15:06Z</time>
      </trkpt>
      <trkpt lat="47.71506" lon="3.68107">
        <ele>279.1</ele>
        <time>2022-02-23T10:15:07Z</time>
      </trkpt>
      <trkpt lat="47.71507" lon="3.68107">
        <ele>279.1</ele>
        <time>2022-02-23T10:15:09Z</time>
      </trkpt>
      <trkpt lat="47.71509" lon="3.68107">
        <ele>279.1</ele>
        <time>2022-02-23T10:15:10Z</time>
      </trkpt>
      <trkpt lat="47.7151" lon="3.68107">
        <ele>279</ele>
        <time>2022-02-23T10:15:11Z</time>
      </trkpt>
      <trkpt lat="47.71512" lon="3.68107">
        <ele>279</ele>
        <time>2022-02-23T10:15:12Z</time>
      </trkpt>
      <trkpt lat="47.71513" lon="3.68107">
        <ele>278.9</ele>
        <time>2022-02-23T10:15:13Z</time>
      </trkpt>
      <trkpt lat="47.71513" lon="3.68107">
        <ele>278.9</ele>
        <time>2022-02-23T10:15:14Z</time>
      </trkpt>
      <trkpt lat="47.71514" lon="3.68106">
        <ele>278.9</ele>
        <time>2022-02-23T10:15:15Z</time>
      </trkpt>
      <trkpt lat="47.71515" lon="3.68106">
        <ele>278.9</ele>
        <time>2022-02-23T10:15:16Z</time>
      </trkpt>
      <trkpt lat="47.71517" lon="3.68106">
        <ele>278.8</ele>
        <time>2022-02-23T10:15:17Z</time>
      </trkpt>
      <trkpt lat="47.71519" lon="3.68106">
        <ele>278.8</ele>
        <time>2022-02-23T10:15:18Z</time>
      </trkpt>
      <trkpt lat="47.71519" lon="3.68106">
        <ele>278.7</ele>
        <time>2022-02-23T10:15:19Z</time>
      </trkpt>
      <trkpt lat="47.7152" lon="3.68106">
        <ele>278.7</ele>
        <time>2022-02-23T10:15:20Z</time>
      </trkpt>
      <trkpt lat="47.71522" lon="3.68106">
        <ele>278.7</ele>
        <time>2022-02-23T10:15:21Z</time>
      </trkpt>
      <trkpt lat="47.71523" lon="3.68106">
        <ele>278.6</ele>
        <time>2022-02-23T10:15:22Z</time>
      </trkpt>
      <trkpt lat="47.71525" lon="3.68105">
        <ele>278.6</ele>
        <time>2022-02-23T10:15:24Z</time>
      </trkpt>
      <trkpt lat="47.71526" lon="3.68105">
        <ele>278.6</ele>
        <time>2022-02-23T10:15:25Z</time>
      </trkpt>
      <trkpt lat="47.71527" lon="3.68105">
        <ele>278.5</ele>
        <time>2022-02-23T10:15:26Z</time>
      </trkpt>
      <trkpt lat="47.71529" lon="3.68105">
        <ele>278.5</ele>
        <time>2022-02-23T10:15:27Z</time>
      </trkpt>
      <trkpt lat="47.7153" lon="3.68105">
        <ele>278.4</ele>
        <time>2022-02-23T10:15:28Z</time>
      </trkpt>
      <trkpt lat="47.71531" lon="3.68105">
        <ele>278.4</ele>
        <time>2022-02-23T10:15:29Z</time>
      </trkpt>
      <trkpt lat="47.71532" lon="3.68104">
        <ele>278.4</ele>
        <time>2022-02-23T10:15:31Z</time>
      </trkpt>
      <trkpt lat="47.71533" lon="3.68103">
        <ele>278.4</ele>
        <time>2022-02-23T10:15:32Z</time>
      </trkpt>
      <trkpt lat="47.71534" lon="3.68103">
        <ele>278.3</ele>
        <time>2022-02-23T10:15:33Z</time>
      </trkpt>
      <trkpt lat="47.71535" lon="3.68103">
        <ele>278.3</ele>
        <time>2022-02-23T10:15:34Z</time>
      </trkpt>
      <trkpt lat="47.71536" lon="3.68102">
        <ele>278.3</ele>
        <time>2022-02-23T10:15:35Z</time>
      </trkpt>
      <trkpt lat="47.71537" lon="3.68102">
        <ele>278.2</ele>
        <time>2022-02-23T10:15:36Z</time>
      </trkpt>
      <trkpt lat="47.7154" lon="3.68102">
        <ele>278.2</ele>
        <time>2022-02-23T10:15:37Z</time>
      </trkpt>
      <trkpt lat="47.7154" lon="3.68102">
        <ele>278.1</ele>
        <time>2022-02-23T10:15:39Z</time>
      </trkpt>
      <trkpt lat="47.71541" lon="3.68102">
        <ele>278.1</ele>
        <time>2022-02-23T10:15:40Z</time>
      </trkpt>
      <trkpt lat="47.71542" lon="3.68102">
        <ele>278.1</ele>
        <time>2022-02-23T10:15:41Z</time>
      </trkpt>
      <trkpt lat="47.71543" lon="3.68102">
        <ele>278</ele>
        <time>2022-02-23T10:15:42Z</time>
      </trkpt>
      <trkpt lat="47.71544" lon="3.68102">
        <ele>278</ele>
        <time>2022-02-23T10:15:43Z</time>
      </trkpt>
      <trkpt lat="47.71545" lon="3.68102">
        <ele>278</ele>
        <time>2022-02-23T10:15:44Z</time>
      </trkpt>
      <trkpt lat="47.71546" lon="3.68102">
        <ele>277.9</ele>
        <time>2022-02-23T10:15:45Z</time>
      </trkpt>
      <trkpt lat="47.71547" lon="3.68102">
        <ele>277.9</ele>
        <time>2022-02-23T10:15:46Z</time>
      </trkpt>
      <trkpt lat="47.71548" lon="3.68102">
        <ele>277.9</ele>
        <time>2022-02-23T10:15:47Z</time>
      </trkpt>
      <trkpt lat="47.71549" lon="3.68102">
        <ele>277.8</ele>
        <time>2022-02-23T10:15:48Z</time>
      </trkpt>
      <trkpt lat="47.7155" lon="3.68102">
        <ele>277.8</ele>
        <time>2022-02-23T10:15:49Z</time>
      </trkpt>
      <trkpt lat="47.71551" lon="3.68102">
        <ele>277.8</ele>
        <time>2022-02-23T10:15:50Z</time>
      </trkpt>
      <trkpt lat="47.71552" lon="3.68102">
        <ele>277.7</ele>
        <time>2022-02-23T10:15:51Z</time>
      </trkpt>
      <trkpt lat="47.71553" lon="3.68102">
        <ele>277.7</ele>
        <time>2022-02-23T10:15:52Z</time>
      </trkpt>
      <trkpt lat="47.71554" lon="3.68102">
        <ele>277.7</ele>
        <time>2022-02-23T10:15:53Z</time>
      </trkpt>
      <trkpt lat="47.71555" lon="3.68102">
        <ele>277.6</ele>
        <time>2022-02-23T10:15:54Z</time>
      </trkpt>
      <trkpt lat="47.71556" lon="3.68101">
        <ele>277.6</ele>
        <time>2022-02-23T10:15:55Z</time>
      </trkpt>
      <trkpt lat="47.71557" lon="3.68101">
        <ele>277.5</ele>
        <time>2022-02-23T10:15:56Z</time>
      </trkpt>
      <trkpt lat="47.71558" lon="3.681">
        <ele>277.5</ele>
        <time>2022-02-23T10:15:57Z</time>
      </trkpt>
      <trkpt lat="47.71559" lon="3.681">
        <ele>277.5</ele>
        <time>2022-02-23T10:15:58Z</time>
      </trkpt>
      <trkpt lat="47.71561" lon="3.681">
        <ele>277.4</ele>
        <time>2022-02-23T10:16:00Z</time>
      </trkpt>
      <trkpt lat="47.71562" lon="3.68099">
        <ele>277.4</ele>
        <time>2022-02-23T10:16:01Z</time>
      </trkpt>
      <trkpt lat="47.71563" lon="3.68099">
        <ele>277.3</ele>
        <time>2022-02-23T10:16:02Z</time>
      </trkpt>
      <trkpt lat="47.71564" lon="3.68099">
        <ele>277.3</ele>
        <time>2022-02-23T10:16:03Z</time>
      </trkpt>
      <trkpt lat="47.71565" lon="3.68099">
        <ele>277.2</ele>
        <time>2022-02-23T10:16:04Z</time>
      </trkpt>
      <trkpt lat="47.71566" lon="3.68099">
        <ele>277.2</ele>
        <time>2022-02-23T10:16:05Z</time>
      </trkpt>
      <trkpt lat="47.71568" lon="3.68099">
        <ele>277.1</ele>
        <time>2022-02-23T10:16:07Z</time>
      </trkpt>
      <trkpt lat="47.71569" lon="3.68099">
        <ele>277.1</ele>
        <time>2022-02-23T10:16:08Z</time>
      </trkpt>
      <trkpt lat="47.7157" lon="3.68098">
        <ele>277</ele>
        <time>2022-02-23T10:16:09Z</time>
      </trkpt>
      <trkpt lat="47.71571" lon="3.68098">
        <ele>277</ele>
        <time>2022-02-23T10:16:10Z</time>
      </trkpt>
      <trkpt lat="47.71572" lon="3.68097">
        <ele>276.9</ele>
        <time>2022-02-23T10:16:11Z</time>
      </trkpt>
      <trkpt lat="47.71573" lon="3.68097">
        <ele>276.9</ele>
        <time>2022-02-23T10:16:13Z</time>
      </trkpt>
      <trkpt lat="47.71575" lon="3.68096">
        <ele>276.8</ele>
        <time>2022-02-23T10:16:14Z</time>
      </trkpt>
      <trkpt lat="47.71575" lon="3.68096">
        <ele>276.8</ele>
        <time>2022-02-23T10:16:15Z</time>
      </trkpt>
      <trkpt lat="47.71577" lon="3.68095">
        <ele>276.7</ele>
        <time>2022-02-23T10:16:16Z</time>
      </trkpt>
      <trkpt lat="47.71578" lon="3.68095">
        <ele>276.7</ele>
        <time>2022-02-23T10:16:17Z</time>
      </trkpt>
      <trkpt lat="47.71579" lon="3.68094">
        <ele>276.6</ele>
        <time>2022-02-23T10:16:19Z</time>
      </trkpt>
      <trkpt lat="47.7158" lon="3.68094">
        <ele>276.6</ele>
        <time>2022-02-23T10:16:20Z</time>
      </trkpt>
      <trkpt lat="47.71581" lon="3.68092">
        <ele>276.5</ele>
        <time>2022-02-23T10:16:21Z</time>
      </trkpt>
      <trkpt lat="47.71582" lon="3.68092">
        <ele>276.5</ele>
        <time>2022-02-23T10:16:22Z</time>
      </trkpt>
      <trkpt lat="47.71582" lon="3.68091">
        <ele>276.4</ele>
        <time>2022-02-23T10:16:23Z</time>
      </trkpt>
      <trkpt lat="47.71583" lon="3.68091">
        <ele>276.4</ele>
        <time>2022-02-23T10:16:24Z</time>
      </trkpt>
      <trkpt lat="47.71584" lon="3.6809">
        <ele>276.4</ele>
        <time>2022-02-23T10:16:25Z</time>
      </trkpt>
      <trkpt lat="47.71585" lon="3.68089">
        <ele>276.3</ele>
        <time>2022-02-23T10:16:26Z</time>
      </trkpt>
      <trkpt lat="47.71586" lon="3.68088">
        <ele>276.3</ele>
        <time>2022-02-23T10:16:27Z</time>
      </trkpt>
      <trkpt lat="47.71588" lon="3.68087">
        <ele>276.2</ele>
        <time>2022-02-23T10:16:29Z</time>
      </trkpt>
      <trkpt lat="47.71588" lon="3.68086">
        <ele>276.1</ele>
        <time>2022-02-23T10:16:30Z</time>
      </trkpt>
      <trkpt lat="47.71589" lon="3.68086">
        <ele>276.1</ele>
        <time>2022-02-23T10:16:31Z</time>
      </trkpt>
      <trkpt lat="47.7159" lon="3.68085">
        <ele>276</ele>
        <time>2022-02-23T10:16:32Z</time>
      </trkpt>
      <trkpt lat="47.71591" lon="3.68084">
        <ele>276</ele>
        <time>2022-02-23T10:16:33Z</time>
      </trkpt>
      <trkpt lat="47.71591" lon="3.68083">
        <ele>275.9</ele>
        <time>2022-02-23T10:16:34Z</time>
      </trkpt>
      <trkpt lat="47.71592" lon="3.68082">
        <ele>275.9</ele>
        <time>2022-02-23T10:16:35Z</time>
      </trkpt>
      <trkpt lat="47.71593" lon="3.68081">
        <ele>275.8</ele>
        <time>2022-02-23T10:16:36Z</time>
      </trkpt>
      <trkpt lat="47.71594" lon="3.6808">
        <ele>275.8</ele>
        <time>2022-02-23T10:16:37Z</time>
      </trkpt>
      <trkpt lat="47.71595" lon="3.68078">
        <ele>275.7</ele>
        <time>2022-02-23T10:16:39Z</time>
      </trkpt>
      <trkpt lat="47.71596" lon="3.68077">
        <ele>275.7</ele>
        <time>2022-02-23T10:16:40Z</time>
      </trkpt>
      <trkpt lat="47.71596" lon="3.68076">
        <ele>275.6</ele>
        <time>2022-02-23T10:16:41Z</time>
      </trkpt>
      <trkpt lat="47.71598" lon="3.68075">
        <ele>275.5</ele>
        <time>2022-02-23T10:16:42Z</time>
      </trkpt>
      <trkpt lat="47.71598" lon="3.68075">
        <ele>275.5</ele>
        <time>2022-02-23T10:16:43Z</time>
      </trkpt>
      <trkpt lat="47.71599" lon="3.68074">
        <ele>275.5</ele>
        <time>2022-02-23T10:16:44Z</time>
      </trkpt>
      <trkpt lat="47.716" lon="3.68074">
        <ele>275.5</ele>
        <time>2022-02-23T10:16:45Z</time>
      </trkpt>
      <trkpt lat="47.71601" lon="3.68073">
        <ele>275.4</ele>
        <time>2022-02-23T10:16:46Z</time>
      </trkpt>
      <trkpt lat="47.71602" lon="3.68072">
        <ele>275.4</ele>
        <time>2022-02-23T10:16:47Z</time>
      </trkpt>
      <trkpt lat="47.71603" lon="3.68072">
        <ele>275.3</ele>
        <time>2022-02-23T10:16:48Z</time>
      </trkpt>
      <trkpt lat="47.71604" lon="3.68072">
        <ele>275.3</ele>
        <time>2022-02-23T10:16:49Z</time>
      </trkpt>
      <trkpt lat="47.71605" lon="3.68071">
        <ele>275.3</ele>
        <time>2022-02-23T10:16:50Z</time>
      </trkpt>
      <trkpt lat="47.71606" lon="3.68071">
        <ele>275.2</ele>
        <time>2022-02-23T10:16:52Z</time>
      </trkpt>
      <trkpt lat="47.71608" lon="3.6807">
        <ele>275.2</ele>
        <time>2022-02-23T10:16:53Z</time>
      </trkpt>
      <trkpt lat="47.71609" lon="3.6807">
        <ele>275.1</ele>
        <time>2022-02-23T10:16:54Z</time>
      </trkpt>
      <trkpt lat="47.7161" lon="3.6807">
        <ele>275.1</ele>
        <time>2022-02-23T10:16:55Z</time>
      </trkpt>
      <trkpt lat="47.71611" lon="3.6807">
        <ele>275.1</ele>
        <time>2022-02-23T10:16:56Z</time>
      </trkpt>
      <trkpt lat="47.71612" lon="3.68069">
        <ele>275</ele>
        <time>2022-02-23T10:16:57Z</time>
      </trkpt>
      <trkpt lat="47.71613" lon="3.68069">
        <ele>275</ele>
        <time>2022-02-23T10:16:58Z</time>
      </trkpt>
      <trkpt lat="47.71614" lon="3.68069">
        <ele>275</ele>
        <time>2022-02-23T10:16:59Z</time>
      </trkpt>
      <trkpt lat="47.71615" lon="3.68068">
        <ele>275</ele>
        <time>2022-02-23T10:17:00Z</time>
      </trkpt>
      <trkpt lat="47.71616" lon="3.68068">
        <ele>274.9</ele>
        <time>2022-02-23T10:17:01Z</time>
      </trkpt>
      <trkpt lat="47.71617" lon="3.68067">
        <ele>274.9</ele>
        <time>2022-02-23T10:17:02Z</time>
      </trkpt>
      <trkpt lat="47.71618" lon="3.68066">
        <ele>274.8</ele>
        <time>2022-02-23T10:17:04Z</time>
      </trkpt>
      <trkpt lat="47.71619" lon="3.68065">
        <ele>274.8</ele>
        <time>2022-02-23T10:17:05Z</time>
      </trkpt>
      <trkpt lat="47.7162" lon="3.68064">
        <ele>274.8</ele>
        <time>2022-02-23T10:17:06Z</time>
      </trkpt>
      <trkpt lat="47.7162" lon="3.68063">
        <ele>274.7</ele>
        <time>2022-02-23T10:17:07Z</time>
      </trkpt>
      <trkpt lat="47.71621" lon="3.68062">
        <ele>274.7</ele>
        <time>2022-02-23T10:17:09Z</time>
      </trkpt>
      <trkpt lat="47.71622" lon="3.6806">
        <ele>274.6</ele>
        <time>2022-02-23T10:17:10Z</time>
      </trkpt>
      <trkpt lat="47.71623" lon="3.68059">
        <ele>274.6</ele>
        <time>2022-02-23T10:17:11Z</time>
      </trkpt>
      <trkpt lat="47.71623" lon="3.68058">
        <ele>274.5</ele>
        <time>2022-02-23T10:17:13Z</time>
      </trkpt>
      <trkpt lat="47.71624" lon="3.68057">
        <ele>274.5</ele>
        <time>2022-02-23T10:17:14Z</time>
      </trkpt>
      <trkpt lat="47.71625" lon="3.68056">
        <ele>274.4</ele>
        <time>2022-02-23T10:17:15Z</time>
      </trkpt>
      <trkpt lat="47.71626" lon="3.68055">
        <ele>274.4</ele>
        <time>2022-02-23T10:17:17Z</time>
      </trkpt>
      <trkpt lat="47.71627" lon="3.68054">
        <ele>274.3</ele>
        <time>2022-02-23T10:17:18Z</time>
      </trkpt>
      <trkpt lat="47.71628" lon="3.68054">
        <ele>274.3</ele>
        <time>2022-02-23T10:17:19Z</time>
      </trkpt>
      <trkpt lat="47.71628" lon="3.68052">
        <ele>274.2</ele>
        <time>2022-02-23T10:17:20Z</time>
      </trkpt>
      <trkpt lat="47.71629" lon="3.68051">
        <ele>274.2</ele>
        <time>2022-02-23T10:17:22Z</time>
      </trkpt>
      <trkpt lat="47.7163" lon="3.6805">
        <ele>274.1</ele>
        <time>2022-02-23T10:17:23Z</time>
      </trkpt>
      <trkpt lat="47.71631" lon="3.68049">
        <ele>274.1</ele>
        <time>2022-02-23T10:17:24Z</time>
      </trkpt>
      <trkpt lat="47.71631" lon="3.68049">
        <ele>274.1</ele>
        <time>2022-02-23T10:17:25Z</time>
      </trkpt>
      <trkpt lat="47.71632" lon="3.68048">
        <ele>274</ele>
        <time>2022-02-23T10:17:27Z</time>
      </trkpt>
      <trkpt lat="47.71633" lon="3.68047">
        <ele>274</ele>
        <time>2022-02-23T10:17:28Z</time>
      </trkpt>
      <trkpt lat="47.71634" lon="3.68046">
        <ele>274</ele>
        <time>2022-02-23T10:17:29Z</time>
      </trkpt>
      <trkpt lat="47.71634" lon="3.68045">
        <ele>273.9</ele>
        <time>2022-02-23T10:17:30Z</time>
      </trkpt>
      <trkpt lat="47.71635" lon="3.68044">
        <ele>273.9</ele>
        <time>2022-02-23T10:17:31Z</time>
      </trkpt>
      <trkpt lat="47.71635" lon="3.68043">
        <ele>273.9</ele>
        <time>2022-02-23T10:17:32Z</time>
      </trkpt>
      <trkpt lat="47.71636" lon="3.68043">
        <ele>273.8</ele>
        <time>2022-02-23T10:17:33Z</time>
      </trkpt>
      <trkpt lat="47.71637" lon="3.68042">
        <ele>273.8</ele>
        <time>2022-02-23T10:17:34Z</time>
      </trkpt>
      <trkpt lat="47.71637" lon="3.6804">
        <ele>273.8</ele>
        <time>2022-02-23T10:17:35Z</time>
      </trkpt>
      <trkpt lat="47.71637" lon="3.68039">
        <ele>273.7</ele>
        <time>2022-02-23T10:17:37Z</time>
      </trkpt>
      <trkpt lat="47.71638" lon="3.68038">
        <ele>273.7</ele>
        <time>2022-02-23T10:17:39Z</time>
      </trkpt>
      <trkpt lat="47.7164" lon="3.68036">
        <ele>273.6</ele>
        <time>2022-02-23T10:17:40Z</time>
      </trkpt>
      <trkpt lat="47.71642" lon="3.68035">
        <ele>273.5</ele>
        <time>2022-02-23T10:17:41Z</time>
      </trkpt>
      <trkpt lat="47.71643" lon="3.68035">
        <ele>273.5</ele>
        <time>2022-02-23T10:17:42Z</time>
      </trkpt>
      <trkpt lat="47.71644" lon="3.68035">
        <ele>273.5</ele>
        <time>2022-02-23T10:17:43Z</time>
      </trkpt>
      <trkpt lat="47.71645" lon="3.68034">
        <ele>273.4</ele>
        <time>2022-02-23T10:17:45Z</time>
      </trkpt>
      <trkpt lat="47.71645" lon="3.68033">
        <ele>273.4</ele>
        <time>2022-02-23T10:17:46Z</time>
      </trkpt>
      <trkpt lat="47.71646" lon="3.68033">
        <ele>273.4</ele>
        <time>2022-02-23T10:17:47Z</time>
      </trkpt>
      <trkpt lat="47.71648" lon="3.68032">
        <ele>273.3</ele>
        <time>2022-02-23T10:17:48Z</time>
      </trkpt>
      <trkpt lat="47.71649" lon="3.68032">
        <ele>273.2</ele>
        <time>2022-02-23T10:17:49Z</time>
      </trkpt>
      <trkpt lat="47.7165" lon="3.68031">
        <ele>273.2</ele>
        <time>2022-02-23T10:17:50Z</time>
      </trkpt>
      <trkpt lat="47.71653" lon="3.68031">
        <ele>273.1</ele>
        <time>2022-02-23T10:17:51Z</time>
      </trkpt>
      <trkpt lat="47.71654" lon="3.68032">
        <ele>273.1</ele>
        <time>2022-02-23T10:17:53Z</time>
      </trkpt>
      <trkpt lat="47.71655" lon="3.68032">
        <ele>273</ele>
        <time>2022-02-23T10:17:54Z</time>
      </trkpt>
      <trkpt lat="47.71656" lon="3.68032">
        <ele>273</ele>
        <time>2022-02-23T10:17:55Z</time>
      </trkpt>
      <trkpt lat="47.71657" lon="3.68032">
        <ele>273</ele>
        <time>2022-02-23T10:17:56Z</time>
      </trkpt>
      <trkpt lat="47.71658" lon="3.68031">
        <ele>272.9</ele>
        <time>2022-02-23T10:17:57Z</time>
      </trkpt>
      <trkpt lat="47.71659" lon="3.68031">
        <ele>272.9</ele>
        <time>2022-02-23T10:17:59Z</time>
      </trkpt>
      <trkpt lat="47.7166" lon="3.68031">
        <ele>272.8</ele>
        <time>2022-02-23T10:18:00Z</time>
      </trkpt>
      <trkpt lat="47.71661" lon="3.68031">
        <ele>272.8</ele>
        <time>2022-02-23T10:18:01Z</time>
      </trkpt>
      <trkpt lat="47.71662" lon="3.68031">
        <ele>272.8</ele>
        <time>2022-02-23T10:18:02Z</time>
      </trkpt>
      <trkpt lat="47.71663" lon="3.68032">
        <ele>272.8</ele>
        <time>2022-02-23T10:18:03Z</time>
      </trkpt>
      <trkpt lat="47.71664" lon="3.68032">
        <ele>272.7</ele>
        <time>2022-02-23T10:18:04Z</time>
      </trkpt>
      <trkpt lat="47.71665" lon="3.68032">
        <ele>272.7</ele>
        <time>2022-02-23T10:18:05Z</time>
      </trkpt>
      <trkpt lat="47.71665" lon="3.68032">
        <ele>272.7</ele>
        <time>2022-02-23T10:18:06Z</time>
      </trkpt>
      <trkpt lat="47.71666" lon="3.68032">
        <ele>272.6</ele>
        <time>2022-02-23T10:18:07Z</time>
      </trkpt>
      <trkpt lat="47.71667" lon="3.68031">
        <ele>272.6</ele>
        <time>2022-02-23T10:18:08Z</time>
      </trkpt>
      <trkpt lat="47.71669" lon="3.68031">
        <ele>272.5</ele>
        <time>2022-02-23T10:18:10Z</time>
      </trkpt>
      <trkpt lat="47.7167" lon="3.6803">
        <ele>272.5</ele>
        <time>2022-02-23T10:18:11Z</time>
      </trkpt>
      <trkpt lat="47.71671" lon="3.6803">
        <ele>272.5</ele>
        <time>2022-02-23T10:18:12Z</time>
      </trkpt>
      <trkpt lat="47.71672" lon="3.6803">
        <ele>272.4</ele>
        <time>2022-02-23T10:18:13Z</time>
      </trkpt>
      <trkpt lat="47.71673" lon="3.68029">
        <ele>272.4</ele>
        <time>2022-02-23T10:18:14Z</time>
      </trkpt>
      <trkpt lat="47.71674" lon="3.68028">
        <ele>272.3</ele>
        <time>2022-02-23T10:18:15Z</time>
      </trkpt>
      <trkpt lat="47.71676" lon="3.68027">
        <ele>272.3</ele>
        <time>2022-02-23T10:18:17Z</time>
      </trkpt>
      <trkpt lat="47.71677" lon="3.68026">
        <ele>272.2</ele>
        <time>2022-02-23T10:18:18Z</time>
      </trkpt>
      <trkpt lat="47.7168" lon="3.68025">
        <ele>272.1</ele>
        <time>2022-02-23T10:18:19Z</time>
      </trkpt>
      <trkpt lat="47.71681" lon="3.68024">
        <ele>272.1</ele>
        <time>2022-02-23T10:18:21Z</time>
      </trkpt>
      <trkpt lat="47.71682" lon="3.68024">
        <ele>272</ele>
        <time>2022-02-23T10:18:22Z</time>
      </trkpt>
      <trkpt lat="47.71683" lon="3.68023">
        <ele>272</ele>
        <time>2022-02-23T10:18:23Z</time>
      </trkpt>
      <trkpt lat="47.71684" lon="3.68023">
        <ele>271.9</ele>
        <time>2022-02-23T10:18:24Z</time>
      </trkpt>
      <trkpt lat="47.71686" lon="3.68022">
        <ele>271.9</ele>
        <time>2022-02-23T10:18:25Z</time>
      </trkpt>
      <trkpt lat="47.71687" lon="3.68021">
        <ele>271.8</ele>
        <time>2022-02-23T10:18:27Z</time>
      </trkpt>
      <trkpt lat="47.71688" lon="3.6802">
        <ele>271.8</ele>
        <time>2022-02-23T10:18:28Z</time>
      </trkpt>
      <trkpt lat="47.71689" lon="3.68019">
        <ele>271.7</ele>
        <time>2022-02-23T10:18:29Z</time>
      </trkpt>
      <trkpt lat="47.71692" lon="3.68019">
        <ele>271.6</ele>
        <time>2022-02-23T10:18:31Z</time>
      </trkpt>
      <trkpt lat="47.71693" lon="3.68019">
        <ele>271.6</ele>
        <time>2022-02-23T10:18:32Z</time>
      </trkpt>
      <trkpt lat="47.71694" lon="3.68018">
        <ele>271.6</ele>
        <time>2022-02-23T10:18:33Z</time>
      </trkpt>
      <trkpt lat="47.71695" lon="3.68018">
        <ele>271.5</ele>
        <time>2022-02-23T10:18:35Z</time>
      </trkpt>
      <trkpt lat="47.71697" lon="3.68018">
        <ele>271.5</ele>
        <time>2022-02-23T10:18:36Z</time>
      </trkpt>
      <trkpt lat="47.71698" lon="3.68018">
        <ele>271.4</ele>
        <time>2022-02-23T10:18:38Z</time>
      </trkpt>
      <trkpt lat="47.71699" lon="3.68017">
        <ele>271.4</ele>
        <time>2022-02-23T10:18:39Z</time>
      </trkpt>
      <trkpt lat="47.71699" lon="3.68017">
        <ele>271.4</ele>
        <time>2022-02-23T10:18:40Z</time>
      </trkpt>
      <trkpt lat="47.71701" lon="3.68017">
        <ele>271.3</ele>
        <time>2022-02-23T10:18:41Z</time>
      </trkpt>
      <trkpt lat="47.71702" lon="3.68017">
        <ele>271.3</ele>
        <time>2022-02-23T10:18:43Z</time>
      </trkpt>
      <trkpt lat="47.71703" lon="3.68016">
        <ele>271.2</ele>
        <time>2022-02-23T10:18:44Z</time>
      </trkpt>
      <trkpt lat="47.71704" lon="3.68016">
        <ele>271.2</ele>
        <time>2022-02-23T10:18:45Z</time>
      </trkpt>
      <trkpt lat="47.71705" lon="3.68015">
        <ele>271.2</ele>
        <time>2022-02-23T10:18:46Z</time>
      </trkpt>
      <trkpt lat="47.71706" lon="3.68015">
        <ele>271.1</ele>
        <time>2022-02-23T10:18:47Z</time>
      </trkpt>
      <trkpt lat="47.71708" lon="3.68014">
        <ele>271.1</ele>
        <time>2022-02-23T10:18:48Z</time>
      </trkpt>
      <trkpt lat="47.71709" lon="3.68013">
        <ele>271</ele>
        <time>2022-02-23T10:18:50Z</time>
      </trkpt>
      <trkpt lat="47.71711" lon="3.68012">
        <ele>271</ele>
        <time>2022-02-23T10:18:51Z</time>
      </trkpt>
      <trkpt lat="47.71712" lon="3.68013">
        <ele>270.9</ele>
        <time>2022-02-23T10:18:52Z</time>
      </trkpt>
      <trkpt lat="47.71713" lon="3.68013">
        <ele>270.9</ele>
        <time>2022-02-23T10:18:53Z</time>
      </trkpt>
      <trkpt lat="47.71714" lon="3.68013">
        <ele>270.9</ele>
        <time>2022-02-23T10:18:55Z</time>
      </trkpt>
      <trkpt lat="47.71715" lon="3.68013">
        <ele>270.8</ele>
        <time>2022-02-23T10:18:56Z</time>
      </trkpt>
      <trkpt lat="47.71716" lon="3.68013">
        <ele>270.8</ele>
        <time>2022-02-23T10:18:57Z</time>
      </trkpt>
      <trkpt lat="47.71717" lon="3.68013">
        <ele>270.8</ele>
        <time>2022-02-23T10:18:58Z</time>
      </trkpt>
      <trkpt lat="47.71718" lon="3.68013">
        <ele>270.7</ele>
        <time>2022-02-23T10:18:59Z</time>
      </trkpt>
      <trkpt lat="47.71719" lon="3.68013">
        <ele>270.7</ele>
        <time>2022-02-23T10:19:00Z</time>
      </trkpt>
      <trkpt lat="47.7172" lon="3.68014">
        <ele>270.7</ele>
        <time>2022-02-23T10:19:02Z</time>
      </trkpt>
      <trkpt lat="47.71721" lon="3.68014">
        <ele>270.6</ele>
        <time>2022-02-23T10:19:03Z</time>
      </trkpt>
      <trkpt lat="47.71722" lon="3.68014">
        <ele>270.6</ele>
        <time>2022-02-23T10:19:04Z</time>
      </trkpt>
      <trkpt lat="47.71723" lon="3.68014">
        <ele>270.6</ele>
        <time>2022-02-23T10:19:05Z</time>
      </trkpt>
      <trkpt lat="47.71724" lon="3.68015">
        <ele>270.6</ele>
        <time>2022-02-23T10:19:06Z</time>
      </trkpt>
      <trkpt lat="47.71725" lon="3.68015">
        <ele>270.5</ele>
        <time>2022-02-23T10:19:07Z</time>
      </trkpt>
      <trkpt lat="47.71726" lon="3.68015">
        <ele>270.5</ele>
        <time>2022-02-23T10:19:08Z</time>
      </trkpt>
      <trkpt lat="47.71727" lon="3.68015">
        <ele>270.5</ele>
        <time>2022-02-23T10:19:09Z</time>
      </trkpt>
      <trkpt lat="47.71728" lon="3.68015">
        <ele>270.4</ele>
        <time>2022-02-23T10:19:10Z</time>
      </trkpt>
      <trkpt lat="47.71729" lon="3.68015">
        <ele>270.4</ele>
        <time>2022-02-23T10:19:11Z</time>
      </trkpt>
      <trkpt lat="47.7173" lon="3.68016">
        <ele>270.4</ele>
        <time>2022-02-23T10:19:12Z</time>
      </trkpt>
      <trkpt lat="47.71732" lon="3.68016">
        <ele>270.3</ele>
        <time>2022-02-23T10:19:13Z</time>
      </trkpt>
      <trkpt lat="47.71733" lon="3.68017">
        <ele>270.3</ele>
        <time>2022-02-23T10:19:15Z</time>
      </trkpt>
      <trkpt lat="47.71735" lon="3.68018">
        <ele>270.3</ele>
        <time>2022-02-23T10:19:16Z</time>
      </trkpt>
      <trkpt lat="47.71736" lon="3.68019">
        <ele>270.2</ele>
        <time>2022-02-23T10:19:18Z</time>
      </trkpt>
      <trkpt lat="47.71737" lon="3.68019">
        <ele>270.2</ele>
        <time>2022-02-23T10:19:19Z</time>
      </trkpt>
      <trkpt lat="47.71738" lon="3.68019">
        <ele>270.2</ele>
        <time>2022-02-23T10:19:20Z</time>
      </trkpt>
      <trkpt lat="47.71739" lon="3.6802">
        <ele>270.2</ele>
        <time>2022-02-23T10:19:21Z</time>
      </trkpt>
      <trkpt lat="47.71741" lon="3.68021">
        <ele>270.1</ele>
        <time>2022-02-23T10:19:22Z</time>
      </trkpt>
      <trkpt lat="47.71742" lon="3.68022">
        <ele>270.1</ele>
        <time>2022-02-23T10:19:23Z</time>
      </trkpt>
      <trkpt lat="47.71742" lon="3.68022">
        <ele>270.1</ele>
        <time>2022-02-23T10:19:24Z</time>
      </trkpt>
      <trkpt lat="47.71743" lon="3.68022">
        <ele>270.1</ele>
        <time>2022-02-23T10:19:25Z</time>
      </trkpt>
      <trkpt lat="47.71745" lon="3.68022">
        <ele>270</ele>
        <time>2022-02-23T10:19:26Z</time>
      </trkpt>
      <trkpt lat="47.71746" lon="3.68022">
        <ele>270</ele>
        <time>2022-02-23T10:19:27Z</time>
      </trkpt>
      <trkpt lat="47.71747" lon="3.68021">
        <ele>270</ele>
        <time>2022-02-23T10:19:28Z</time>
      </trkpt>
      <trkpt lat="47.71749" lon="3.6802">
        <ele>269.9</ele>
        <time>2022-02-23T10:19:29Z</time>
      </trkpt>
      <trkpt lat="47.7175" lon="3.68019">
        <ele>269.9</ele>
        <time>2022-02-23T10:19:31Z</time>
      </trkpt>
      <trkpt lat="47.71752" lon="3.68019">
        <ele>269.8</ele>
        <time>2022-02-23T10:19:32Z</time>
      </trkpt>
      <trkpt lat="47.71754" lon="3.68019">
        <ele>269.8</ele>
        <time>2022-02-23T10:19:33Z</time>
      </trkpt>
      <trkpt lat="47.71754" lon="3.6802">
        <ele>269.8</ele>
        <time>2022-02-23T10:19:34Z</time>
      </trkpt>
      <trkpt lat="47.71755" lon="3.6802">
        <ele>269.8</ele>
        <time>2022-02-23T10:19:35Z</time>
      </trkpt>
      <trkpt lat="47.71757" lon="3.68021">
        <ele>269.7</ele>
        <time>2022-02-23T10:19:36Z</time>
      </trkpt>
      <trkpt lat="47.71758" lon="3.68021">
        <ele>269.7</ele>
        <time>2022-02-23T10:19:37Z</time>
      </trkpt>
      <trkpt lat="47.71759" lon="3.68022">
        <ele>269.7</ele>
        <time>2022-02-23T10:19:39Z</time>
      </trkpt>
      <trkpt lat="47.71761" lon="3.68023">
        <ele>269.7</ele>
        <time>2022-02-23T10:19:40Z</time>
      </trkpt>
      <trkpt lat="47.71763" lon="3.68023">
        <ele>269.6</ele>
        <time>2022-02-23T10:19:41Z</time>
      </trkpt>
      <trkpt lat="47.71765" lon="3.68023">
        <ele>269.6</ele>
        <time>2022-02-23T10:19:43Z</time>
      </trkpt>
      <trkpt lat="47.71765" lon="3.68024">
        <ele>269.6</ele>
        <time>2022-02-23T10:19:44Z</time>
      </trkpt>
      <trkpt lat="47.71766" lon="3.68024">
        <ele>269.6</ele>
        <time>2022-02-23T10:19:45Z</time>
      </trkpt>
      <trkpt lat="47.71768" lon="3.68024">
        <ele>269.6</ele>
        <time>2022-02-23T10:19:46Z</time>
      </trkpt>
      <trkpt lat="47.71769" lon="3.68024">
        <ele>269.5</ele>
        <time>2022-02-23T10:19:47Z</time>
      </trkpt>
      <trkpt lat="47.71769" lon="3.68024">
        <ele>269.5</ele>
        <time>2022-02-23T10:19:49Z</time>
      </trkpt>
      <trkpt lat="47.71771" lon="3.68025">
        <ele>269.5</ele>
        <time>2022-02-23T10:19:50Z</time>
      </trkpt>
      <trkpt lat="47.71772" lon="3.68025">
        <ele>269.5</ele>
        <time>2022-02-23T10:19:51Z</time>
      </trkpt>
      <trkpt lat="47.71773" lon="3.68025">
        <ele>269.5</ele>
        <time>2022-02-23T10:19:52Z</time>
      </trkpt>
      <trkpt lat="47.71775" lon="3.68026">
        <ele>269.5</ele>
        <time>2022-02-23T10:19:53Z</time>
      </trkpt>
      <trkpt lat="47.71775" lon="3.68026">
        <ele>269.4</ele>
        <time>2022-02-23T10:19:54Z</time>
      </trkpt>
      <trkpt lat="47.71776" lon="3.68026">
        <ele>269.4</ele>
        <time>2022-02-23T10:19:55Z</time>
      </trkpt>
      <trkpt lat="47.71777" lon="3.68027">
        <ele>269.4</ele>
        <time>2022-02-23T10:19:56Z</time>
      </trkpt>
      <trkpt lat="47.71778" lon="3.68027">
        <ele>269.4</ele>
        <time>2022-02-23T10:19:57Z</time>
      </trkpt>
      <trkpt lat="47.71778" lon="3.68028">
        <ele>269.4</ele>
        <time>2022-02-23T10:19:59Z</time>
      </trkpt>
      <trkpt lat="47.71778" lon="3.68029">
        <ele>269.4</ele>
        <time>2022-02-23T10:20:00Z</time>
      </trkpt>
      <trkpt lat="47.71779" lon="3.6803">
        <ele>269.4</ele>
        <time>2022-02-23T10:20:01Z</time>
      </trkpt>
      <trkpt lat="47.71779" lon="3.6803">
        <ele>269.4</ele>
        <time>2022-02-23T10:20:02Z</time>
      </trkpt>
      <trkpt lat="47.7178" lon="3.68032">
        <ele>269.4</ele>
        <time>2022-02-23T10:20:03Z</time>
      </trkpt>
      <trkpt lat="47.7178" lon="3.68033">
        <ele>269.4</ele>
        <time>2022-02-23T10:20:04Z</time>
      </trkpt>
      <trkpt lat="47.71781" lon="3.68035">
        <ele>269.4</ele>
        <time>2022-02-23T10:20:05Z</time>
      </trkpt>
      <trkpt lat="47.71781" lon="3.68036">
        <ele>269.4</ele>
        <time>2022-02-23T10:20:06Z</time>
      </trkpt>
      <trkpt lat="47.71782" lon="3.68038">
        <ele>269.4</ele>
        <time>2022-02-23T10:20:08Z</time>
      </trkpt>
      <trkpt lat="47.71782" lon="3.68039">
        <ele>269.4</ele>
        <time>2022-02-23T10:20:09Z</time>
      </trkpt>
      <trkpt lat="47.71782" lon="3.68041">
        <ele>269.4</ele>
        <time>2022-02-23T10:20:10Z</time>
      </trkpt>
      <trkpt lat="47.71783" lon="3.68044">
        <ele>269.3</ele>
        <time>2022-02-23T10:20:11Z</time>
      </trkpt>
      <trkpt lat="47.71783" lon="3.68046">
        <ele>269.3</ele>
        <time>2022-02-23T10:20:13Z</time>
      </trkpt>
      <trkpt lat="47.71783" lon="3.68047">
        <ele>269.3</ele>
        <time>2022-02-23T10:20:14Z</time>
      </trkpt>
      <trkpt lat="47.71783" lon="3.68049">
        <ele>269.3</ele>
        <time>2022-02-23T10:20:15Z</time>
      </trkpt>
      <trkpt lat="47.71783" lon="3.6805">
        <ele>269.3</ele>
        <time>2022-02-23T10:20:16Z</time>
      </trkpt>
      <trkpt lat="47.71783" lon="3.68053">
        <ele>269.3</ele>
        <time>2022-02-23T10:20:17Z</time>
      </trkpt>
      <trkpt lat="47.71784" lon="3.68055">
        <ele>269.3</ele>
        <time>2022-02-23T10:20:19Z</time>
      </trkpt>
      <trkpt lat="47.71784" lon="3.68056">
        <ele>269.3</ele>
        <time>2022-02-23T10:20:20Z</time>
      </trkpt>
      <trkpt lat="47.71785" lon="3.68058">
        <ele>269.3</ele>
        <time>2022-02-23T10:20:21Z</time>
      </trkpt>
      <trkpt lat="47.71785" lon="3.68059">
        <ele>269.2</ele>
        <time>2022-02-23T10:20:22Z</time>
      </trkpt>
      <trkpt lat="47.71787" lon="3.68059">
        <ele>269.2</ele>
        <time>2022-02-23T10:20:23Z</time>
      </trkpt>
      <trkpt lat="47.71788" lon="3.6806">
        <ele>269.2</ele>
        <time>2022-02-23T10:20:24Z</time>
      </trkpt>
      <trkpt lat="47.7179" lon="3.6806">
        <ele>269.2</ele>
        <time>2022-02-23T10:20:26Z</time>
      </trkpt>
      <trkpt lat="47.7179" lon="3.68061">
        <ele>269.2</ele>
        <time>2022-02-23T10:20:27Z</time>
      </trkpt>
      <trkpt lat="47.71791" lon="3.68061">
        <ele>269.2</ele>
        <time>2022-02-23T10:20:28Z</time>
      </trkpt>
      <trkpt lat="47.71792" lon="3.68061">
        <ele>269.1</ele>
        <time>2022-02-23T10:20:29Z</time>
      </trkpt>
      <trkpt lat="47.71794" lon="3.68061">
        <ele>269.1</ele>
        <time>2022-02-23T10:20:30Z</time>
      </trkpt>
      <trkpt lat="47.71795" lon="3.68062">
        <ele>269.1</ele>
        <time>2022-02-23T10:20:31Z</time>
      </trkpt>
      <trkpt lat="47.71796" lon="3.68062">
        <ele>269</ele>
        <time>2022-02-23T10:20:32Z</time>
      </trkpt>
      <trkpt lat="47.71797" lon="3.68063">
        <ele>269</ele>
        <time>2022-02-23T10:20:33Z</time>
      </trkpt>
      <trkpt lat="47.71798" lon="3.68064">
        <ele>269</ele>
        <time>2022-02-23T10:20:35Z</time>
      </trkpt>
      <trkpt lat="47.71799" lon="3.68065">
        <ele>269</ele>
        <time>2022-02-23T10:20:36Z</time>
      </trkpt>
      <trkpt lat="47.718" lon="3.68066">
        <ele>268.9</ele>
        <time>2022-02-23T10:20:37Z</time>
      </trkpt>
      <trkpt lat="47.718" lon="3.68067">
        <ele>268.9</ele>
        <time>2022-02-23T10:20:38Z</time>
      </trkpt>
      <trkpt lat="47.71801" lon="3.68068">
        <ele>268.9</ele>
        <time>2022-02-23T10:20:39Z</time>
      </trkpt>
      <trkpt lat="47.71803" lon="3.68068">
        <ele>268.8</ele>
        <time>2022-02-23T10:20:41Z</time>
      </trkpt>
      <trkpt lat="47.71804" lon="3.68068">
        <ele>268.8</ele>
        <time>2022-02-23T10:20:42Z</time>
      </trkpt>
      <trkpt lat="47.71805" lon="3.68068">
        <ele>268.8</ele>
        <time>2022-02-23T10:20:43Z</time>
      </trkpt>
      <trkpt lat="47.71806" lon="3.68068">
        <ele>268.8</ele>
        <time>2022-02-23T10:20:44Z</time>
      </trkpt>
      <trkpt lat="47.71807" lon="3.68069">
        <ele>268.7</ele>
        <time>2022-02-23T10:20:45Z</time>
      </trkpt>
      <trkpt lat="47.71808" lon="3.68069">
        <ele>268.7</ele>
        <time>2022-02-23T10:20:46Z</time>
      </trkpt>
      <trkpt lat="47.71809" lon="3.6807">
        <ele>268.6</ele>
        <time>2022-02-23T10:20:47Z</time>
      </trkpt>
      <trkpt lat="47.7181" lon="3.6807">
        <ele>268.6</ele>
        <time>2022-02-23T10:20:48Z</time>
      </trkpt>
      <trkpt lat="47.71812" lon="3.68071">
        <ele>268.5</ele>
        <time>2022-02-23T10:20:49Z</time>
      </trkpt>
      <trkpt lat="47.71813" lon="3.68071">
        <ele>268.5</ele>
        <time>2022-02-23T10:20:50Z</time>
      </trkpt>
      <trkpt lat="47.71814" lon="3.68071">
        <ele>268.5</ele>
        <time>2022-02-23T10:20:51Z</time>
      </trkpt>
      <trkpt lat="47.71815" lon="3.68072">
        <ele>268.5</ele>
        <time>2022-02-23T10:20:53Z</time>
      </trkpt>
      <trkpt lat="47.71816" lon="3.68072">
        <ele>268.4</ele>
        <time>2022-02-23T10:20:54Z</time>
      </trkpt>
      <trkpt lat="47.71817" lon="3.68073">
        <ele>268.4</ele>
        <time>2022-02-23T10:20:55Z</time>
      </trkpt>
      <trkpt lat="47.71819" lon="3.68074">
        <ele>268.3</ele>
        <time>2022-02-23T10:20:56Z</time>
      </trkpt>
      <trkpt lat="47.7182" lon="3.68074">
        <ele>268.3</ele>
        <time>2022-02-23T10:20:57Z</time>
      </trkpt>
      <trkpt lat="47.7182" lon="3.68074">
        <ele>268.3</ele>
        <time>2022-02-23T10:20:58Z</time>
      </trkpt>
      <trkpt lat="47.71822" lon="3.68075">
        <ele>268.2</ele>
        <time>2022-02-23T10:20:59Z</time>
      </trkpt>
      <trkpt lat="47.71823" lon="3.68075">
        <ele>268.2</ele>
        <time>2022-02-23T10:21:00Z</time>
      </trkpt>
      <trkpt lat="47.71824" lon="3.68075">
        <ele>268.1</ele>
        <time>2022-02-23T10:21:01Z</time>
      </trkpt>
      <trkpt lat="47.71825" lon="3.68076">
        <ele>268.1</ele>
        <time>2022-02-23T10:21:03Z</time>
      </trkpt>
      <trkpt lat="47.71826" lon="3.68077">
        <ele>268.1</ele>
        <time>2022-02-23T10:21:04Z</time>
      </trkpt>
      <trkpt lat="47.71826" lon="3.68077">
        <ele>268.1</ele>
        <time>2022-02-23T10:21:05Z</time>
      </trkpt>
      <trkpt lat="47.71827" lon="3.68078">
        <ele>268</ele>
        <time>2022-02-23T10:21:06Z</time>
      </trkpt>
      <trkpt lat="47.71828" lon="3.68078">
        <ele>268</ele>
        <time>2022-02-23T10:21:07Z</time>
      </trkpt>
      <trkpt lat="47.71829" lon="3.68079">
        <ele>268</ele>
        <time>2022-02-23T10:21:08Z</time>
      </trkpt>
      <trkpt lat="47.7183" lon="3.68079">
        <ele>267.9</ele>
        <time>2022-02-23T10:21:09Z</time>
      </trkpt>
      <trkpt lat="47.71831" lon="3.6808">
        <ele>267.9</ele>
        <time>2022-02-23T10:21:10Z</time>
      </trkpt>
      <trkpt lat="47.71833" lon="3.6808">
        <ele>267.8</ele>
        <time>2022-02-23T10:21:11Z</time>
      </trkpt>
      <trkpt lat="47.71834" lon="3.68081">
        <ele>267.8</ele>
        <time>2022-02-23T10:21:12Z</time>
      </trkpt>
      <trkpt lat="47.71835" lon="3.68081">
        <ele>267.7</ele>
        <time>2022-02-23T10:21:13Z</time>
      </trkpt>
      <trkpt lat="47.71837" lon="3.68082">
        <ele>267.6</ele>
        <time>2022-02-23T10:21:15Z</time>
      </trkpt>
      <trkpt lat="47.71839" lon="3.68083">
        <ele>267.6</ele>
        <time>2022-02-23T10:21:16Z</time>
      </trkpt>
      <trkpt lat="47.71839" lon="3.68082">
        <ele>267.5</ele>
        <time>2022-02-23T10:21:17Z</time>
      </trkpt>
      <trkpt lat="47.71841" lon="3.68082">
        <ele>267.5</ele>
        <time>2022-02-23T10:21:19Z</time>
      </trkpt>
      <trkpt lat="47.71843" lon="3.68082">
        <ele>267.4</ele>
        <time>2022-02-23T10:21:20Z</time>
      </trkpt>
      <trkpt lat="47.71844" lon="3.68081">
        <ele>267.3</ele>
        <time>2022-02-23T10:21:21Z</time>
      </trkpt>
      <trkpt lat="47.71844" lon="3.68081">
        <ele>267.3</ele>
        <time>2022-02-23T10:21:22Z</time>
      </trkpt>
      <trkpt lat="47.71846" lon="3.68079">
        <ele>267.2</ele>
        <time>2022-02-23T10:21:24Z</time>
      </trkpt>
      <trkpt lat="47.71847" lon="3.68078">
        <ele>267.2</ele>
        <time>2022-02-23T10:21:25Z</time>
      </trkpt>
      <trkpt lat="47.71848" lon="3.68077">
        <ele>267.1</ele>
        <time>2022-02-23T10:21:26Z</time>
      </trkpt>
      <trkpt lat="47.71849" lon="3.68076">
        <ele>267.1</ele>
        <time>2022-02-23T10:21:28Z</time>
      </trkpt>
      <trkpt lat="47.71849" lon="3.68075">
        <ele>267</ele>
        <time>2022-02-23T10:21:29Z</time>
      </trkpt>
      <trkpt lat="47.7185" lon="3.68074">
        <ele>267</ele>
        <time>2022-02-23T10:21:30Z</time>
      </trkpt>
      <trkpt lat="47.71851" lon="3.68071">
        <ele>266.9</ele>
        <time>2022-02-23T10:21:32Z</time>
      </trkpt>
      <trkpt lat="47.71852" lon="3.6807">
        <ele>266.9</ele>
        <time>2022-02-23T10:21:33Z</time>
      </trkpt>
      <trkpt lat="47.71852" lon="3.68069">
        <ele>266.8</ele>
        <time>2022-02-23T10:21:34Z</time>
      </trkpt>
      <trkpt lat="47.71853" lon="3.68068">
        <ele>266.8</ele>
        <time>2022-02-23T10:21:35Z</time>
      </trkpt>
      <trkpt lat="47.71854" lon="3.68065">
        <ele>266.7</ele>
        <time>2022-02-23T10:21:36Z</time>
      </trkpt>
      <trkpt lat="47.71855" lon="3.68064">
        <ele>266.7</ele>
        <time>2022-02-23T10:21:38Z</time>
      </trkpt>
      <trkpt lat="47.71855" lon="3.68063">
        <ele>266.6</ele>
        <time>2022-02-23T10:21:39Z</time>
      </trkpt>
      <trkpt lat="47.71856" lon="3.68062">
        <ele>266.6</ele>
        <time>2022-02-23T10:21:40Z</time>
      </trkpt>
      <trkpt lat="47.71858" lon="3.6806">
        <ele>266.5</ele>
        <time>2022-02-23T10:21:42Z</time>
      </trkpt>
      <trkpt lat="47.71858" lon="3.68059">
        <ele>266.5</ele>
        <time>2022-02-23T10:21:43Z</time>
      </trkpt>
      <trkpt lat="47.71859" lon="3.68059">
        <ele>266.4</ele>
        <time>2022-02-23T10:21:44Z</time>
      </trkpt>
      <trkpt lat="47.7186" lon="3.68058">
        <ele>266.4</ele>
        <time>2022-02-23T10:21:45Z</time>
      </trkpt>
      <trkpt lat="47.71861" lon="3.68057">
        <ele>266.3</ele>
        <time>2022-02-23T10:21:46Z</time>
      </trkpt>
      <trkpt lat="47.71862" lon="3.68056">
        <ele>266.3</ele>
        <time>2022-02-23T10:21:48Z</time>
      </trkpt>
      <trkpt lat="47.71863" lon="3.68054">
        <ele>266.2</ele>
        <time>2022-02-23T10:21:49Z</time>
      </trkpt>
      <trkpt lat="47.71864" lon="3.68053">
        <ele>266.2</ele>
        <time>2022-02-23T10:21:50Z</time>
      </trkpt>
      <trkpt lat="47.71865" lon="3.68051">
        <ele>266.1</ele>
        <time>2022-02-23T10:21:52Z</time>
      </trkpt>
      <trkpt lat="47.71866" lon="3.68051">
        <ele>266.1</ele>
        <time>2022-02-23T10:21:53Z</time>
      </trkpt>
      <trkpt lat="47.71867" lon="3.6805">
        <ele>266</ele>
        <time>2022-02-23T10:21:54Z</time>
      </trkpt>
      <trkpt lat="47.71868" lon="3.6805">
        <ele>265.9</ele>
        <time>2022-02-23T10:21:55Z</time>
      </trkpt>
      <trkpt lat="47.7187" lon="3.68048">
        <ele>265.8</ele>
        <time>2022-02-23T10:21:57Z</time>
      </trkpt>
      <trkpt lat="47.7187" lon="3.68047">
        <ele>265.8</ele>
        <time>2022-02-23T10:21:58Z</time>
      </trkpt>
      <trkpt lat="47.71871" lon="3.68046">
        <ele>265.7</ele>
        <time>2022-02-23T10:21:59Z</time>
      </trkpt>
      <trkpt lat="47.71872" lon="3.68045">
        <ele>265.7</ele>
        <time>2022-02-23T10:22:00Z</time>
      </trkpt>
      <trkpt lat="47.71873" lon="3.68045">
        <ele>265.6</ele>
        <time>2022-02-23T10:22:01Z</time>
      </trkpt>
      <trkpt lat="47.71874" lon="3.68044">
        <ele>265.5</ele>
        <time>2022-02-23T10:22:02Z</time>
      </trkpt>
      <trkpt lat="47.71874" lon="3.68043">
        <ele>265.5</ele>
        <time>2022-02-23T10:22:03Z</time>
      </trkpt>
      <trkpt lat="47.71875" lon="3.68043">
        <ele>265.4</ele>
        <time>2022-02-23T10:22:04Z</time>
      </trkpt>
      <trkpt lat="47.71876" lon="3.68042">
        <ele>265.3</ele>
        <time>2022-02-23T10:22:05Z</time>
      </trkpt>
      <trkpt lat="47.71877" lon="3.68041">
        <ele>265.3</ele>
        <time>2022-02-23T10:22:06Z</time>
      </trkpt>
      <trkpt lat="47.71878" lon="3.6804">
        <ele>265.1</ele>
        <time>2022-02-23T10:22:08Z</time>
      </trkpt>
      <trkpt lat="47.71879" lon="3.68038">
        <ele>265</ele>
        <time>2022-02-23T10:22:09Z</time>
      </trkpt>
      <trkpt lat="47.7188" lon="3.68037">
        <ele>265</ele>
        <time>2022-02-23T10:22:10Z</time>
      </trkpt>
      <trkpt lat="47.7188" lon="3.68036">
        <ele>264.9</ele>
        <time>2022-02-23T10:22:11Z</time>
      </trkpt>
      <trkpt lat="47.71881" lon="3.68036">
        <ele>264.9</ele>
        <time>2022-02-23T10:22:12Z</time>
      </trkpt>
      <trkpt lat="47.71882" lon="3.68033">
        <ele>264.8</ele>
        <time>2022-02-23T10:22:13Z</time>
      </trkpt>
      <trkpt lat="47.71882" lon="3.68032">
        <ele>264.7</ele>
        <time>2022-02-23T10:22:14Z</time>
      </trkpt>
      <trkpt lat="47.71883" lon="3.68031">
        <ele>264.6</ele>
        <time>2022-02-23T10:22:15Z</time>
      </trkpt>
      <trkpt lat="47.71883" lon="3.6803">
        <ele>264.6</ele>
        <time>2022-02-23T10:22:16Z</time>
      </trkpt>
      <trkpt lat="47.71884" lon="3.68029">
        <ele>264.5</ele>
        <time>2022-02-23T10:22:17Z</time>
      </trkpt>
      <trkpt lat="47.71884" lon="3.68028">
        <ele>264.4</ele>
        <time>2022-02-23T10:22:19Z</time>
      </trkpt>
      <trkpt lat="47.71885" lon="3.68027">
        <ele>264.4</ele>
        <time>2022-02-23T10:22:20Z</time>
      </trkpt>
      <trkpt lat="47.71886" lon="3.68025">
        <ele>264.3</ele>
        <time>2022-02-23T10:22:21Z</time>
      </trkpt>
      <trkpt lat="47.71886" lon="3.68024">
        <ele>264.2</ele>
        <time>2022-02-23T10:22:22Z</time>
      </trkpt>
      <trkpt lat="47.71888" lon="3.68022">
        <ele>264.1</ele>
        <time>2022-02-23T10:22:24Z</time>
      </trkpt>
      <trkpt lat="47.71889" lon="3.68021">
        <ele>264</ele>
        <time>2022-02-23T10:22:25Z</time>
      </trkpt>
      <trkpt lat="47.7189" lon="3.68021">
        <ele>264</ele>
        <time>2022-02-23T10:22:26Z</time>
      </trkpt>
      <trkpt lat="47.71891" lon="3.68021">
        <ele>263.9</ele>
        <time>2022-02-23T10:22:27Z</time>
      </trkpt>
      <trkpt lat="47.71892" lon="3.68021">
        <ele>263.9</ele>
        <time>2022-02-23T10:22:28Z</time>
      </trkpt>
      <trkpt lat="47.71893" lon="3.68021">
        <ele>263.8</ele>
        <time>2022-02-23T10:22:30Z</time>
      </trkpt>
      <trkpt lat="47.71895" lon="3.68021">
        <ele>263.7</ele>
        <time>2022-02-23T10:22:31Z</time>
      </trkpt>
      <trkpt lat="47.71896" lon="3.68022">
        <ele>263.6</ele>
        <time>2022-02-23T10:22:32Z</time>
      </trkpt>
      <trkpt lat="47.71896" lon="3.68022">
        <ele>263.6</ele>
        <time>2022-02-23T10:22:33Z</time>
      </trkpt>
      <trkpt lat="47.71897" lon="3.68023">
        <ele>263.5</ele>
        <time>2022-02-23T10:22:34Z</time>
      </trkpt>
      <trkpt lat="47.71898" lon="3.68023">
        <ele>263.6</ele>
        <time>2022-02-23T10:22:35Z</time>
      </trkpt>
      <trkpt lat="47.71899" lon="3.68024">
        <ele>263.6</ele>
        <time>2022-02-23T10:22:36Z</time>
      </trkpt>
      <trkpt lat="47.719" lon="3.68025">
        <ele>263.6</ele>
        <time>2022-02-23T10:22:37Z</time>
      </trkpt>
      <trkpt lat="47.71901" lon="3.68025">
        <ele>263.8</ele>
        <time>2022-02-23T10:22:38Z</time>
      </trkpt>
      <trkpt lat="47.71902" lon="3.68026">
        <ele>264.1</ele>
        <time>2022-02-23T10:22:40Z</time>
      </trkpt>
      <trkpt lat="47.71903" lon="3.68026">
        <ele>264.2</ele>
        <time>2022-02-23T10:22:41Z</time>
      </trkpt>
      <trkpt lat="47.71905" lon="3.68027">
        <ele>264.2</ele>
        <time>2022-02-23T10:22:42Z</time>
      </trkpt>
      <trkpt lat="47.71905" lon="3.68028">
        <ele>264.3</ele>
        <time>2022-02-23T10:22:43Z</time>
      </trkpt>
      <trkpt lat="47.71906" lon="3.68029">
        <ele>264.4</ele>
        <time>2022-02-23T10:22:44Z</time>
      </trkpt>
      <trkpt lat="47.71907" lon="3.68029">
        <ele>264.6</ele>
        <time>2022-02-23T10:22:46Z</time>
      </trkpt>
      <trkpt lat="47.71908" lon="3.6803">
        <ele>264.7</ele>
        <time>2022-02-23T10:22:47Z</time>
      </trkpt>
      <trkpt lat="47.71909" lon="3.6803">
        <ele>264.7</ele>
        <time>2022-02-23T10:22:48Z</time>
      </trkpt>
      <trkpt lat="47.71909" lon="3.6803">
        <ele>264.8</ele>
        <time>2022-02-23T10:22:49Z</time>
      </trkpt>
      <trkpt lat="47.71909" lon="3.6803">
        <ele>264.9</ele>
        <time>2022-02-23T10:22:50Z</time>
      </trkpt>
      <trkpt lat="47.7191" lon="3.68028">
        <ele>264.7</ele>
        <time>2022-02-23T10:22:51Z</time>
      </trkpt>
      <trkpt lat="47.7191" lon="3.68027">
        <ele>264.7</ele>
        <time>2022-02-23T10:22:52Z</time>
      </trkpt>
      <trkpt lat="47.7191" lon="3.68026">
        <ele>264.8</ele>
        <time>2022-02-23T10:22:54Z</time>
      </trkpt>
      <trkpt lat="47.7191" lon="3.68025">
        <ele>264.8</ele>
        <time>2022-02-23T10:22:55Z</time>
      </trkpt>
      <trkpt lat="47.7191" lon="3.68023">
        <ele>264.6</ele>
        <time>2022-02-23T10:22:56Z</time>
      </trkpt>
      <trkpt lat="47.7191" lon="3.68022">
        <ele>264.7</ele>
        <time>2022-02-23T10:22:57Z</time>
      </trkpt>
      <trkpt lat="47.71911" lon="3.68021">
        <ele>264.7</ele>
        <time>2022-02-23T10:22:59Z</time>
      </trkpt>
      <trkpt lat="47.71912" lon="3.68019">
        <ele>264.6</ele>
        <time>2022-02-23T10:23:00Z</time>
      </trkpt>
      <trkpt lat="47.71912" lon="3.68018">
        <ele>264.6</ele>
        <time>2022-02-23T10:23:01Z</time>
      </trkpt>
      <trkpt lat="47.71913" lon="3.68017">
        <ele>264.5</ele>
        <time>2022-02-23T10:23:02Z</time>
      </trkpt>
      <trkpt lat="47.71914" lon="3.68016">
        <ele>264.4</ele>
        <time>2022-02-23T10:23:04Z</time>
      </trkpt>
      <trkpt lat="47.71915" lon="3.68014">
        <ele>264.3</ele>
        <time>2022-02-23T10:23:05Z</time>
      </trkpt>
      <trkpt lat="47.71917" lon="3.68011">
        <ele>264.1</ele>
        <time>2022-02-23T10:23:07Z</time>
      </trkpt>
      <trkpt lat="47.71917" lon="3.6801">
        <ele>264.1</ele>
        <time>2022-02-23T10:23:08Z</time>
      </trkpt>
      <trkpt lat="47.71917" lon="3.68009">
        <ele>264.1</ele>
        <time>2022-02-23T10:23:09Z</time>
      </trkpt>
      <trkpt lat="47.71917" lon="3.68007">
        <ele>264</ele>
        <time>2022-02-23T10:23:11Z</time>
      </trkpt>
      <trkpt lat="47.71918" lon="3.68004">
        <ele>263.9</ele>
        <time>2022-02-23T10:23:12Z</time>
      </trkpt>
      <trkpt lat="47.71918" lon="3.68004">
        <ele>263.9</ele>
        <time>2022-02-23T10:23:13Z</time>
      </trkpt>
      <trkpt lat="47.71919" lon="3.68001">
        <ele>263.8</ele>
        <time>2022-02-23T10:23:15Z</time>
      </trkpt>
      <trkpt lat="47.7192" lon="3.68">
        <ele>263.7</ele>
        <time>2022-02-23T10:23:16Z</time>
      </trkpt>
      <trkpt lat="47.71921" lon="3.67999">
        <ele>263.7</ele>
        <time>2022-02-23T10:23:17Z</time>
      </trkpt>
      <trkpt lat="47.71922" lon="3.67998">
        <ele>263.7</ele>
        <time>2022-02-23T10:23:18Z</time>
      </trkpt>
      <trkpt lat="47.71922" lon="3.67997">
        <ele>263.6</ele>
        <time>2022-02-23T10:23:20Z</time>
      </trkpt>
      <trkpt lat="47.71923" lon="3.67996">
        <ele>263.6</ele>
        <time>2022-02-23T10:23:21Z</time>
      </trkpt>
      <trkpt lat="47.71924" lon="3.67995">
        <ele>263.5</ele>
        <time>2022-02-23T10:23:22Z</time>
      </trkpt>
      <trkpt lat="47.71924" lon="3.67993">
        <ele>263.5</ele>
        <time>2022-02-23T10:23:23Z</time>
      </trkpt>
      <trkpt lat="47.71925" lon="3.67992">
        <ele>263.5</ele>
        <time>2022-02-23T10:23:24Z</time>
      </trkpt>
      <trkpt lat="47.71925" lon="3.67992">
        <ele>263.4</ele>
        <time>2022-02-23T10:23:25Z</time>
      </trkpt>
      <trkpt lat="47.71925" lon="3.67991">
        <ele>263.4</ele>
        <time>2022-02-23T10:23:27Z</time>
      </trkpt>
      <trkpt lat="47.71926" lon="3.6799">
        <ele>263.4</ele>
        <time>2022-02-23T10:23:28Z</time>
      </trkpt>
      <trkpt lat="47.71926" lon="3.67989">
        <ele>263.4</ele>
        <time>2022-02-23T10:23:29Z</time>
      </trkpt>
      <trkpt lat="47.71927" lon="3.67987">
        <ele>263.3</ele>
        <time>2022-02-23T10:23:30Z</time>
      </trkpt>
      <trkpt lat="47.71928" lon="3.67983">
        <ele>263.2</ele>
        <time>2022-02-23T10:23:32Z</time>
      </trkpt>
      <trkpt lat="47.71928" lon="3.67983">
        <ele>263.2</ele>
        <time>2022-02-23T10:23:33Z</time>
      </trkpt>
      <trkpt lat="47.71929" lon="3.67981">
        <ele>263.2</ele>
        <time>2022-02-23T10:23:35Z</time>
      </trkpt>
      <trkpt lat="47.71929" lon="3.67979">
        <ele>263.1</ele>
        <time>2022-02-23T10:23:36Z</time>
      </trkpt>
      <trkpt lat="47.7193" lon="3.67978">
        <ele>263.1</ele>
        <time>2022-02-23T10:23:37Z</time>
      </trkpt>
      <trkpt lat="47.71931" lon="3.67976">
        <ele>263.1</ele>
        <time>2022-02-23T10:23:38Z</time>
      </trkpt>
      <trkpt lat="47.71931" lon="3.67975">
        <ele>263</ele>
        <time>2022-02-23T10:23:39Z</time>
      </trkpt>
      <trkpt lat="47.71931" lon="3.67974">
        <ele>263</ele>
        <time>2022-02-23T10:23:40Z</time>
      </trkpt>
      <trkpt lat="47.71933" lon="3.67971">
        <ele>262.9</ele>
        <time>2022-02-23T10:23:42Z</time>
      </trkpt>
      <trkpt lat="47.71933" lon="3.67971">
        <ele>262.9</ele>
        <time>2022-02-23T10:23:43Z</time>
      </trkpt>
      <trkpt lat="47.71934" lon="3.67969">
        <ele>262.9</ele>
        <time>2022-02-23T10:23:44Z</time>
      </trkpt>
      <trkpt lat="47.71934" lon="3.67968">
        <ele>262.9</ele>
        <time>2022-02-23T10:23:45Z</time>
      </trkpt>
      <trkpt lat="47.71935" lon="3.67966">
        <ele>262.8</ele>
        <time>2022-02-23T10:23:46Z</time>
      </trkpt>
      <trkpt lat="47.71936" lon="3.67964">
        <ele>262.8</ele>
        <time>2022-02-23T10:23:47Z</time>
      </trkpt>
      <trkpt lat="47.71936" lon="3.67963">
        <ele>262.8</ele>
        <time>2022-02-23T10:23:48Z</time>
      </trkpt>
      <trkpt lat="47.71937" lon="3.6796">
        <ele>262.7</ele>
        <time>2022-02-23T10:23:50Z</time>
      </trkpt>
      <trkpt lat="47.71938" lon="3.67958">
        <ele>262.7</ele>
        <time>2022-02-23T10:23:51Z</time>
      </trkpt>
      <trkpt lat="47.71939" lon="3.67955">
        <ele>262.6</ele>
        <time>2022-02-23T10:23:52Z</time>
      </trkpt>
      <trkpt lat="47.71939" lon="3.67954">
        <ele>262.6</ele>
        <time>2022-02-23T10:23:53Z</time>
      </trkpt>
      <trkpt lat="47.7194" lon="3.67953">
        <ele>262.6</ele>
        <time>2022-02-23T10:23:54Z</time>
      </trkpt>
      <trkpt lat="47.71941" lon="3.67951">
        <ele>262.6</ele>
        <time>2022-02-23T10:23:55Z</time>
      </trkpt>
      <trkpt lat="47.71942" lon="3.67947">
        <ele>262.5</ele>
        <time>2022-02-23T10:23:57Z</time>
      </trkpt>
      <trkpt lat="47.71941" lon="3.67947">
        <ele>262.5</ele>
        <time>2022-02-23T10:23:58Z</time>
      </trkpt>
      <trkpt lat="47.71941" lon="3.67946">
        <ele>262.5</ele>
        <time>2022-02-23T10:24:00Z</time>
      </trkpt>
      <trkpt lat="47.71942" lon="3.67945">
        <ele>262.5</ele>
        <time>2022-02-23T10:24:01Z</time>
      </trkpt>
      <trkpt lat="47.71943" lon="3.67942">
        <ele>262.4</ele>
        <time>2022-02-23T10:24:02Z</time>
      </trkpt>
      <trkpt lat="47.71944" lon="3.6794">
        <ele>262.4</ele>
        <time>2022-02-23T10:24:03Z</time>
      </trkpt>
      <trkpt lat="47.71944" lon="3.67939">
        <ele>262.4</ele>
        <time>2022-02-23T10:24:04Z</time>
      </trkpt>
      <trkpt lat="47.71945" lon="3.67937">
        <ele>262.3</ele>
        <time>2022-02-23T10:24:05Z</time>
      </trkpt>
      <trkpt lat="47.71946" lon="3.67935">
        <ele>262.3</ele>
        <time>2022-02-23T10:24:06Z</time>
      </trkpt>
      <trkpt lat="47.71947" lon="3.67933">
        <ele>262.3</ele>
        <time>2022-02-23T10:24:08Z</time>
      </trkpt>
      <trkpt lat="47.71947" lon="3.67932">
        <ele>262.2</ele>
        <time>2022-02-23T10:24:09Z</time>
      </trkpt>
      <trkpt lat="47.71948" lon="3.6793">
        <ele>262.2</ele>
        <time>2022-02-23T10:24:10Z</time>
      </trkpt>
      <trkpt lat="47.71949" lon="3.67929">
        <ele>262.2</ele>
        <time>2022-02-23T10:24:11Z</time>
      </trkpt>
      <trkpt lat="47.7195" lon="3.67927">
        <ele>262.1</ele>
        <time>2022-02-23T10:24:12Z</time>
      </trkpt>
      <trkpt lat="47.7195" lon="3.67926">
        <ele>262.1</ele>
        <time>2022-02-23T10:24:13Z</time>
      </trkpt>
      <trkpt lat="47.71952" lon="3.67922">
        <ele>262</ele>
        <time>2022-02-23T10:24:15Z</time>
      </trkpt>
      <trkpt lat="47.71952" lon="3.67921">
        <ele>262</ele>
        <time>2022-02-23T10:24:16Z</time>
      </trkpt>
      <trkpt lat="47.71954" lon="3.67918">
        <ele>262</ele>
        <time>2022-02-23T10:24:17Z</time>
      </trkpt>
      <trkpt lat="47.71954" lon="3.67917">
        <ele>262</ele>
        <time>2022-02-23T10:24:18Z</time>
      </trkpt>
      <trkpt lat="47.71955" lon="3.67914">
        <ele>261.9</ele>
        <time>2022-02-23T10:24:19Z</time>
      </trkpt>
      <trkpt lat="47.71955" lon="3.67913">
        <ele>261.9</ele>
        <time>2022-02-23T10:24:20Z</time>
      </trkpt>
      <trkpt lat="47.71955" lon="3.67912">
        <ele>261.9</ele>
        <time>2022-02-23T10:24:21Z</time>
      </trkpt>
      <trkpt lat="47.71957" lon="3.67908">
        <ele>261.9</ele>
        <time>2022-02-23T10:24:23Z</time>
      </trkpt>
      <trkpt lat="47.71957" lon="3.67906">
        <ele>261.9</ele>
        <time>2022-02-23T10:24:24Z</time>
      </trkpt>
      <trkpt lat="47.71958" lon="3.67905">
        <ele>261.8</ele>
        <time>2022-02-23T10:24:25Z</time>
      </trkpt>
      <trkpt lat="47.71959" lon="3.67904">
        <ele>261.8</ele>
        <time>2022-02-23T10:24:26Z</time>
      </trkpt>
      <trkpt lat="47.71959" lon="3.67902">
        <ele>261.8</ele>
        <time>2022-02-23T10:24:27Z</time>
      </trkpt>
      <trkpt lat="47.7196" lon="3.679">
        <ele>261.8</ele>
        <time>2022-02-23T10:24:28Z</time>
      </trkpt>
      <trkpt lat="47.71961" lon="3.67898">
        <ele>261.8</ele>
        <time>2022-02-23T10:24:30Z</time>
      </trkpt>
      <trkpt lat="47.71962" lon="3.67896">
        <ele>261.7</ele>
        <time>2022-02-23T10:24:31Z</time>
      </trkpt>
      <trkpt lat="47.71963" lon="3.67894">
        <ele>261.7</ele>
        <time>2022-02-23T10:24:32Z</time>
      </trkpt>
      <trkpt lat="47.71963" lon="3.67893">
        <ele>261.7</ele>
        <time>2022-02-23T10:24:33Z</time>
      </trkpt>
      <trkpt lat="47.71964" lon="3.67891">
        <ele>261.7</ele>
        <time>2022-02-23T10:24:34Z</time>
      </trkpt>
      <trkpt lat="47.71965" lon="3.6789">
        <ele>261.7</ele>
        <time>2022-02-23T10:24:35Z</time>
      </trkpt>
      <trkpt lat="47.71965" lon="3.67888">
        <ele>261.7</ele>
        <time>2022-02-23T10:24:36Z</time>
      </trkpt>
      <trkpt lat="47.71966" lon="3.67886">
        <ele>261.6</ele>
        <time>2022-02-23T10:24:37Z</time>
      </trkpt>
      <trkpt lat="47.71968" lon="3.67884">
        <ele>261.6</ele>
        <time>2022-02-23T10:24:39Z</time>
      </trkpt>
      <trkpt lat="47.71968" lon="3.67883">
        <ele>261.6</ele>
        <time>2022-02-23T10:24:40Z</time>
      </trkpt>
      <trkpt lat="47.71969" lon="3.67882">
        <ele>261.6</ele>
        <time>2022-02-23T10:24:41Z</time>
      </trkpt>
      <trkpt lat="47.7197" lon="3.6788">
        <ele>261.6</ele>
        <time>2022-02-23T10:24:42Z</time>
      </trkpt>
      <trkpt lat="47.7197" lon="3.67879">
        <ele>261.5</ele>
        <time>2022-02-23T10:24:43Z</time>
      </trkpt>
      <trkpt lat="47.7197" lon="3.67877">
        <ele>261.5</ele>
        <time>2022-02-23T10:24:44Z</time>
      </trkpt>
      <trkpt lat="47.71972" lon="3.67874">
        <ele>261.5</ele>
        <time>2022-02-23T10:24:46Z</time>
      </trkpt>
      <trkpt lat="47.71973" lon="3.67873">
        <ele>261.5</ele>
        <time>2022-02-23T10:24:47Z</time>
      </trkpt>
      <trkpt lat="47.71973" lon="3.67872">
        <ele>261.5</ele>
        <time>2022-02-23T10:24:48Z</time>
      </trkpt>
      <trkpt lat="47.71973" lon="3.6787">
        <ele>261.4</ele>
        <time>2022-02-23T10:24:49Z</time>
      </trkpt>
      <trkpt lat="47.71974" lon="3.67869">
        <ele>261.4</ele>
        <time>2022-02-23T10:24:50Z</time>
      </trkpt>
      <trkpt lat="47.71975" lon="3.67866">
        <ele>261.4</ele>
        <time>2022-02-23T10:24:52Z</time>
      </trkpt>
      <trkpt lat="47.71976" lon="3.67865">
        <ele>261.4</ele>
        <time>2022-02-23T10:24:53Z</time>
      </trkpt>
      <trkpt lat="47.71976" lon="3.67862">
        <ele>261.4</ele>
        <time>2022-02-23T10:24:54Z</time>
      </trkpt>
      <trkpt lat="47.71977" lon="3.67861">
        <ele>261.3</ele>
        <time>2022-02-23T10:24:55Z</time>
      </trkpt>
      <trkpt lat="47.71977" lon="3.6786">
        <ele>261.3</ele>
        <time>2022-02-23T10:24:56Z</time>
      </trkpt>
      <trkpt lat="47.71978" lon="3.67857">
        <ele>261.3</ele>
        <time>2022-02-23T10:24:58Z</time>
      </trkpt>
      <trkpt lat="47.71978" lon="3.67856">
        <ele>261.3</ele>
        <time>2022-02-23T10:24:59Z</time>
      </trkpt>
      <trkpt lat="47.7198" lon="3.67853">
        <ele>261.3</ele>
        <time>2022-02-23T10:25:00Z</time>
      </trkpt>
      <trkpt lat="47.71981" lon="3.67852">
        <ele>261.2</ele>
        <time>2022-02-23T10:25:01Z</time>
      </trkpt>
      <trkpt lat="47.71981" lon="3.6785">
        <ele>261.2</ele>
        <time>2022-02-23T10:25:02Z</time>
      </trkpt>
      <trkpt lat="47.71982" lon="3.67849">
        <ele>261.2</ele>
        <time>2022-02-23T10:25:03Z</time>
      </trkpt>
      <trkpt lat="47.71982" lon="3.67848">
        <ele>261.2</ele>
        <time>2022-02-23T10:25:04Z</time>
      </trkpt>
      <trkpt lat="47.71983" lon="3.67847">
        <ele>261.2</ele>
        <time>2022-02-23T10:25:05Z</time>
      </trkpt>
      <trkpt lat="47.71983" lon="3.67845">
        <ele>261.2</ele>
        <time>2022-02-23T10:25:06Z</time>
      </trkpt>
      <trkpt lat="47.71984" lon="3.67843">
        <ele>261.2</ele>
        <time>2022-02-23T10:25:07Z</time>
      </trkpt>
      <trkpt lat="47.71984" lon="3.67841">
        <ele>261.2</ele>
        <time>2022-02-23T10:25:09Z</time>
      </trkpt>
      <trkpt lat="47.71985" lon="3.67838">
        <ele>261.1</ele>
        <time>2022-02-23T10:25:10Z</time>
      </trkpt>
      <trkpt lat="47.71985" lon="3.67837">
        <ele>261.1</ele>
        <time>2022-02-23T10:25:11Z</time>
      </trkpt>
      <trkpt lat="47.71985" lon="3.67835">
        <ele>261.1</ele>
        <time>2022-02-23T10:25:12Z</time>
      </trkpt>
      <trkpt lat="47.71986" lon="3.67834">
        <ele>261.1</ele>
        <time>2022-02-23T10:25:13Z</time>
      </trkpt>
      <trkpt lat="47.71987" lon="3.67831">
        <ele>261.1</ele>
        <time>2022-02-23T10:25:14Z</time>
      </trkpt>
      <trkpt lat="47.71987" lon="3.6783">
        <ele>261.1</ele>
        <time>2022-02-23T10:25:15Z</time>
      </trkpt>
      <trkpt lat="47.71987" lon="3.67828">
        <ele>261.1</ele>
        <time>2022-02-23T10:25:16Z</time>
      </trkpt>
      <trkpt lat="47.71988" lon="3.67826">
        <ele>261.1</ele>
        <time>2022-02-23T10:25:18Z</time>
      </trkpt>
      <trkpt lat="47.71989" lon="3.67823">
        <ele>261.1</ele>
        <time>2022-02-23T10:25:19Z</time>
      </trkpt>
      <trkpt lat="47.71989" lon="3.67823">
        <ele>261.1</ele>
        <time>2022-02-23T10:25:20Z</time>
      </trkpt>
      <trkpt lat="47.7199" lon="3.67821">
        <ele>261.1</ele>
        <time>2022-02-23T10:25:21Z</time>
      </trkpt>
      <trkpt lat="47.71991" lon="3.6782">
        <ele>261</ele>
        <time>2022-02-23T10:25:22Z</time>
      </trkpt>
      <trkpt lat="47.71991" lon="3.67818">
        <ele>261</ele>
        <time>2022-02-23T10:25:23Z</time>
      </trkpt>
      <trkpt lat="47.71992" lon="3.67817">
        <ele>261</ele>
        <time>2022-02-23T10:25:24Z</time>
      </trkpt>
      <trkpt lat="47.71992" lon="3.67816">
        <ele>261</ele>
        <time>2022-02-23T10:25:25Z</time>
      </trkpt>
      <trkpt lat="47.71993" lon="3.67814">
        <ele>261</ele>
        <time>2022-02-23T10:25:26Z</time>
      </trkpt>
      <trkpt lat="47.71994" lon="3.67813">
        <ele>261</ele>
        <time>2022-02-23T10:25:27Z</time>
      </trkpt>
      <trkpt lat="47.71994" lon="3.67812">
        <ele>261</ele>
        <time>2022-02-23T10:25:28Z</time>
      </trkpt>
      <trkpt lat="47.71995" lon="3.6781">
        <ele>261</ele>
        <time>2022-02-23T10:25:29Z</time>
      </trkpt>
      <trkpt lat="47.71996" lon="3.67807">
        <ele>261</ele>
        <time>2022-02-23T10:25:30Z</time>
      </trkpt>
      <trkpt lat="47.71996" lon="3.67806">
        <ele>261</ele>
        <time>2022-02-23T10:25:32Z</time>
      </trkpt>
      <trkpt lat="47.71996" lon="3.67804">
        <ele>261</ele>
        <time>2022-02-23T10:25:33Z</time>
      </trkpt>
      <trkpt lat="47.71997" lon="3.67802">
        <ele>260.9</ele>
        <time>2022-02-23T10:25:34Z</time>
      </trkpt>
      <trkpt lat="47.71998" lon="3.678">
        <ele>260.9</ele>
        <time>2022-02-23T10:25:35Z</time>
      </trkpt>
      <trkpt lat="47.71999" lon="3.67797">
        <ele>260.8</ele>
        <time>2022-02-23T10:25:37Z</time>
      </trkpt>
      <trkpt lat="47.71999" lon="3.67796">
        <ele>260.7</ele>
        <time>2022-02-23T10:25:38Z</time>
      </trkpt>
      <trkpt lat="47.71999" lon="3.67795">
        <ele>260.7</ele>
        <time>2022-02-23T10:25:39Z</time>
      </trkpt>
      <trkpt lat="47.72" lon="3.67792">
        <ele>260.6</ele>
        <time>2022-02-23T10:25:41Z</time>
      </trkpt>
      <trkpt lat="47.72" lon="3.6779">
        <ele>260.6</ele>
        <time>2022-02-23T10:25:42Z</time>
      </trkpt>
      <trkpt lat="47.72" lon="3.67788">
        <ele>260.5</ele>
        <time>2022-02-23T10:25:43Z</time>
      </trkpt>
      <trkpt lat="47.72001" lon="3.67785">
        <ele>260.5</ele>
        <time>2022-02-23T10:25:44Z</time>
      </trkpt>
      <trkpt lat="47.72001" lon="3.67784">
        <ele>260.4</ele>
        <time>2022-02-23T10:25:45Z</time>
      </trkpt>
      <trkpt lat="47.72002" lon="3.67783">
        <ele>260.4</ele>
        <time>2022-02-23T10:25:47Z</time>
      </trkpt>
      <trkpt lat="47.72002" lon="3.67781">
        <ele>260.3</ele>
        <time>2022-02-23T10:25:48Z</time>
      </trkpt>
      <trkpt lat="47.72003" lon="3.6778">
        <ele>260.3</ele>
        <time>2022-02-23T10:25:49Z</time>
      </trkpt>
      <trkpt lat="47.72003" lon="3.67777">
        <ele>260.2</ele>
        <time>2022-02-23T10:25:50Z</time>
      </trkpt>
      <trkpt lat="47.72003" lon="3.67776">
        <ele>260.2</ele>
        <time>2022-02-23T10:25:51Z</time>
      </trkpt>
      <trkpt lat="47.72003" lon="3.67774">
        <ele>260.2</ele>
        <time>2022-02-23T10:25:52Z</time>
      </trkpt>
      <trkpt lat="47.72004" lon="3.67773">
        <ele>260.1</ele>
        <time>2022-02-23T10:25:53Z</time>
      </trkpt>
      <trkpt lat="47.72004" lon="3.67771">
        <ele>260.1</ele>
        <time>2022-02-23T10:25:54Z</time>
      </trkpt>
      <trkpt lat="47.72004" lon="3.67769">
        <ele>260</ele>
        <time>2022-02-23T10:25:55Z</time>
      </trkpt>
      <trkpt lat="47.72004" lon="3.67768">
        <ele>260</ele>
        <time>2022-02-23T10:25:56Z</time>
      </trkpt>
      <trkpt lat="47.72004" lon="3.67767">
        <ele>260</ele>
        <time>2022-02-23T10:25:58Z</time>
      </trkpt>
      <trkpt lat="47.72004" lon="3.67767">
        <ele>259.9</ele>
        <time>2022-02-23T10:25:59Z</time>
      </trkpt>
      <trkpt lat="47.72004" lon="3.67764">
        <ele>259.9</ele>
        <time>2022-02-23T10:26:00Z</time>
      </trkpt>
      <trkpt lat="47.72004" lon="3.67762">
        <ele>259.8</ele>
        <time>2022-02-23T10:26:01Z</time>
      </trkpt>
      <trkpt lat="47.72004" lon="3.67761">
        <ele>259.8</ele>
        <time>2022-02-23T10:26:02Z</time>
      </trkpt>
      <trkpt lat="47.72004" lon="3.67759">
        <ele>259.7</ele>
        <time>2022-02-23T10:26:03Z</time>
      </trkpt>
      <trkpt lat="47.72004" lon="3.67756">
        <ele>259.7</ele>
        <time>2022-02-23T10:26:04Z</time>
      </trkpt>
      <trkpt lat="47.72004" lon="3.67754">
        <ele>259.6</ele>
        <time>2022-02-23T10:26:05Z</time>
      </trkpt>
      <trkpt lat="47.72005" lon="3.67751">
        <ele>259.5</ele>
        <time>2022-02-23T10:26:06Z</time>
      </trkpt>
      <trkpt lat="47.72005" lon="3.67749">
        <ele>259.5</ele>
        <time>2022-02-23T10:26:07Z</time>
      </trkpt>
      <trkpt lat="47.72005" lon="3.67748">
        <ele>259.4</ele>
        <time>2022-02-23T10:26:08Z</time>
      </trkpt>
      <trkpt lat="47.72005" lon="3.67746">
        <ele>259.4</ele>
        <time>2022-02-23T10:26:09Z</time>
      </trkpt>
      <trkpt lat="47.72005" lon="3.67743">
        <ele>259.3</ele>
        <time>2022-02-23T10:26:10Z</time>
      </trkpt>
      <trkpt lat="47.72005" lon="3.67743">
        <ele>259.3</ele>
        <time>2022-02-23T10:26:11Z</time>
      </trkpt>
      <trkpt lat="47.72006" lon="3.67741">
        <ele>259.3</ele>
        <time>2022-02-23T10:26:12Z</time>
      </trkpt>
      <trkpt lat="47.72006" lon="3.67739">
        <ele>259.2</ele>
        <time>2022-02-23T10:26:13Z</time>
      </trkpt>
      <trkpt lat="47.72006" lon="3.67738">
        <ele>259.2</ele>
        <time>2022-02-23T10:26:14Z</time>
      </trkpt>
      <trkpt lat="47.72007" lon="3.67736">
        <ele>259.1</ele>
        <time>2022-02-23T10:26:15Z</time>
      </trkpt>
      <trkpt lat="47.72008" lon="3.67735">
        <ele>259.1</ele>
        <time>2022-02-23T10:26:17Z</time>
      </trkpt>
      <trkpt lat="47.72009" lon="3.67733">
        <ele>259</ele>
        <time>2022-02-23T10:26:18Z</time>
      </trkpt>
      <trkpt lat="47.7201" lon="3.67732">
        <ele>258.9</ele>
        <time>2022-02-23T10:26:19Z</time>
      </trkpt>
      <trkpt lat="47.72011" lon="3.6773">
        <ele>258.9</ele>
        <time>2022-02-23T10:26:20Z</time>
      </trkpt>
      <trkpt lat="47.72012" lon="3.67729">
        <ele>258.8</ele>
        <time>2022-02-23T10:26:21Z</time>
      </trkpt>
      <trkpt lat="47.72013" lon="3.67727">
        <ele>258.8</ele>
        <time>2022-02-23T10:26:22Z</time>
      </trkpt>
      <trkpt lat="47.72014" lon="3.67725">
        <ele>258.7</ele>
        <time>2022-02-23T10:26:23Z</time>
      </trkpt>
      <trkpt lat="47.72014" lon="3.67723">
        <ele>258.6</ele>
        <time>2022-02-23T10:26:25Z</time>
      </trkpt>
      <trkpt lat="47.72015" lon="3.67722">
        <ele>258.6</ele>
        <time>2022-02-23T10:26:26Z</time>
      </trkpt>
      <trkpt lat="47.72015" lon="3.67719">
        <ele>258.5</ele>
        <time>2022-02-23T10:26:27Z</time>
      </trkpt>
      <trkpt lat="47.72015" lon="3.67717">
        <ele>258.5</ele>
        <time>2022-02-23T10:26:28Z</time>
      </trkpt>
      <trkpt lat="47.72015" lon="3.67716">
        <ele>258.4</ele>
        <time>2022-02-23T10:26:29Z</time>
      </trkpt>
      <trkpt lat="47.72014" lon="3.67713">
        <ele>258.3</ele>
        <time>2022-02-23T10:26:30Z</time>
      </trkpt>
      <trkpt lat="47.72013" lon="3.67711">
        <ele>258.2</ele>
        <time>2022-02-23T10:26:32Z</time>
      </trkpt>
      <trkpt lat="47.72013" lon="3.67709">
        <ele>258.2</ele>
        <time>2022-02-23T10:26:33Z</time>
      </trkpt>
      <trkpt lat="47.72012" lon="3.67708">
        <ele>258.1</ele>
        <time>2022-02-23T10:26:34Z</time>
      </trkpt>
      <trkpt lat="47.72012" lon="3.67706">
        <ele>258.1</ele>
        <time>2022-02-23T10:26:35Z</time>
      </trkpt>
      <trkpt lat="47.72011" lon="3.67705">
        <ele>258</ele>
        <time>2022-02-23T10:26:36Z</time>
      </trkpt>
      <trkpt lat="47.72011" lon="3.67704">
        <ele>258</ele>
        <time>2022-02-23T10:26:37Z</time>
      </trkpt>
      <trkpt lat="47.72011" lon="3.67703">
        <ele>258</ele>
        <time>2022-02-23T10:26:38Z</time>
      </trkpt>
      <trkpt lat="47.7201" lon="3.67702">
        <ele>257.9</ele>
        <time>2022-02-23T10:26:39Z</time>
      </trkpt>
      <trkpt lat="47.7201" lon="3.67701">
        <ele>257.9</ele>
        <time>2022-02-23T10:26:40Z</time>
      </trkpt>
      <trkpt lat="47.72011" lon="3.67699">
        <ele>257.8</ele>
        <time>2022-02-23T10:26:42Z</time>
      </trkpt>
      <trkpt lat="47.72011" lon="3.67699">
        <ele>257.8</ele>
        <time>2022-02-23T10:26:43Z</time>
      </trkpt>
      <trkpt lat="47.72011" lon="3.67699">
        <ele>257.8</ele>
        <time>2022-02-23T10:26:44Z</time>
      </trkpt>
      <trkpt lat="47.72011" lon="3.67698">
        <ele>257.8</ele>
        <time>2022-02-23T10:26:45Z</time>
      </trkpt>
      <trkpt lat="47.72011" lon="3.67698">
        <ele>257.8</ele>
        <time>2022-02-23T10:26:47Z</time>
      </trkpt>
      <trkpt lat="47.72011" lon="3.67699">
        <ele>257.8</ele>
        <time>2022-02-23T10:26:48Z</time>
      </trkpt>
      <trkpt lat="47.72011" lon="3.67698">
        <ele>257.7</ele>
        <time>2022-02-23T10:26:49Z</time>
      </trkpt>
      <trkpt lat="47.7201" lon="3.67697">
        <ele>257.7</ele>
        <time>2022-02-23T10:26:50Z</time>
      </trkpt>
      <trkpt lat="47.72011" lon="3.67697">
        <ele>257.7</ele>
        <time>2022-02-23T10:26:51Z</time>
      </trkpt>
      <trkpt lat="47.72011" lon="3.67696">
        <ele>257.6</ele>
        <time>2022-02-23T10:26:52Z</time>
      </trkpt>
      <trkpt lat="47.72011" lon="3.67695">
        <ele>257.6</ele>
        <time>2022-02-23T10:26:54Z</time>
      </trkpt>
      <trkpt lat="47.72012" lon="3.67693">
        <ele>257.5</ele>
        <time>2022-02-23T10:26:55Z</time>
      </trkpt>
      <trkpt lat="47.72012" lon="3.67691">
        <ele>257.5</ele>
        <time>2022-02-23T10:26:56Z</time>
      </trkpt>
      <trkpt lat="47.72011" lon="3.6769">
        <ele>257.4</ele>
        <time>2022-02-23T10:26:57Z</time>
      </trkpt>
      <trkpt lat="47.72011" lon="3.67689">
        <ele>257.4</ele>
        <time>2022-02-23T10:26:58Z</time>
      </trkpt>
      <trkpt lat="47.72011" lon="3.67687">
        <ele>257.3</ele>
        <time>2022-02-23T10:26:59Z</time>
      </trkpt>
      <trkpt lat="47.7201" lon="3.67685">
        <ele>257.3</ele>
        <time>2022-02-23T10:27:00Z</time>
      </trkpt>
      <trkpt lat="47.7201" lon="3.67683">
        <ele>257.2</ele>
        <time>2022-02-23T10:27:02Z</time>
      </trkpt>
      <trkpt lat="47.72009" lon="3.67681">
        <ele>257.1</ele>
        <time>2022-02-23T10:27:03Z</time>
      </trkpt>
      <trkpt lat="47.72009" lon="3.67679">
        <ele>257</ele>
        <time>2022-02-23T10:27:04Z</time>
      </trkpt>
      <trkpt lat="47.72008" lon="3.67676">
        <ele>256.9</ele>
        <time>2022-02-23T10:27:05Z</time>
      </trkpt>
      <trkpt lat="47.72008" lon="3.67675">
        <ele>256.9</ele>
        <time>2022-02-23T10:27:06Z</time>
      </trkpt>
      <trkpt lat="47.72009" lon="3.67673">
        <ele>256.8</ele>
        <time>2022-02-23T10:27:07Z</time>
      </trkpt>
      <trkpt lat="47.72009" lon="3.67672">
        <ele>256.8</ele>
        <time>2022-02-23T10:27:08Z</time>
      </trkpt>
      <trkpt lat="47.7201" lon="3.6767">
        <ele>256.7</ele>
        <time>2022-02-23T10:27:09Z</time>
      </trkpt>
      <trkpt lat="47.7201" lon="3.67668">
        <ele>256.6</ele>
        <time>2022-02-23T10:27:11Z</time>
      </trkpt>
      <trkpt lat="47.72011" lon="3.67666">
        <ele>256.6</ele>
        <time>2022-02-23T10:27:12Z</time>
      </trkpt>
      <trkpt lat="47.72011" lon="3.67665">
        <ele>256.5</ele>
        <time>2022-02-23T10:27:13Z</time>
      </trkpt>
      <trkpt lat="47.72011" lon="3.67663">
        <ele>256.4</ele>
        <time>2022-02-23T10:27:14Z</time>
      </trkpt>
      <trkpt lat="47.72011" lon="3.6766">
        <ele>256.4</ele>
        <time>2022-02-23T10:27:15Z</time>
      </trkpt>
      <trkpt lat="47.72011" lon="3.67659">
        <ele>256.3</ele>
        <time>2022-02-23T10:27:16Z</time>
      </trkpt>
      <trkpt lat="47.72011" lon="3.67657">
        <ele>256.3</ele>
        <time>2022-02-23T10:27:17Z</time>
      </trkpt>
      <trkpt lat="47.72012" lon="3.67656">
        <ele>256.2</ele>
        <time>2022-02-23T10:27:18Z</time>
      </trkpt>
      <trkpt lat="47.72012" lon="3.67652">
        <ele>256.1</ele>
        <time>2022-02-23T10:27:20Z</time>
      </trkpt>
      <trkpt lat="47.72012" lon="3.67649">
        <ele>256</ele>
        <time>2022-02-23T10:27:21Z</time>
      </trkpt>
      <trkpt lat="47.72012" lon="3.67648">
        <ele>255.9</ele>
        <time>2022-02-23T10:27:22Z</time>
      </trkpt>
      <trkpt lat="47.72012" lon="3.67646">
        <ele>255.9</ele>
        <time>2022-02-23T10:27:23Z</time>
      </trkpt>
      <trkpt lat="47.72012" lon="3.67644">
        <ele>255.8</ele>
        <time>2022-02-23T10:27:24Z</time>
      </trkpt>
      <trkpt lat="47.72012" lon="3.67642">
        <ele>255.7</ele>
        <time>2022-02-23T10:27:26Z</time>
      </trkpt>
      <trkpt lat="47.72011" lon="3.6764">
        <ele>255.7</ele>
        <time>2022-02-23T10:27:27Z</time>
      </trkpt>
      <trkpt lat="47.72011" lon="3.67638">
        <ele>255.6</ele>
        <time>2022-02-23T10:27:28Z</time>
      </trkpt>
      <trkpt lat="47.72011" lon="3.67637">
        <ele>255.5</ele>
        <time>2022-02-23T10:27:29Z</time>
      </trkpt>
      <trkpt lat="47.7201" lon="3.67634">
        <ele>255.4</ele>
        <time>2022-02-23T10:27:30Z</time>
      </trkpt>
      <trkpt lat="47.72009" lon="3.67631">
        <ele>255.3</ele>
        <time>2022-02-23T10:27:31Z</time>
      </trkpt>
      <trkpt lat="47.72008" lon="3.6763">
        <ele>255.3</ele>
        <time>2022-02-23T10:27:32Z</time>
      </trkpt>
      <trkpt lat="47.72008" lon="3.67628">
        <ele>255.2</ele>
        <time>2022-02-23T10:27:33Z</time>
      </trkpt>
      <trkpt lat="47.72007" lon="3.67626">
        <ele>255.2</ele>
        <time>2022-02-23T10:27:35Z</time>
      </trkpt>
      <trkpt lat="47.72006" lon="3.67624">
        <ele>255.1</ele>
        <time>2022-02-23T10:27:36Z</time>
      </trkpt>
      <trkpt lat="47.72006" lon="3.67621">
        <ele>255</ele>
        <time>2022-02-23T10:27:37Z</time>
      </trkpt>
      <trkpt lat="47.72005" lon="3.6762">
        <ele>254.9</ele>
        <time>2022-02-23T10:27:38Z</time>
      </trkpt>
      <trkpt lat="47.72005" lon="3.67619">
        <ele>254.9</ele>
        <time>2022-02-23T10:27:39Z</time>
      </trkpt>
      <trkpt lat="47.72005" lon="3.67616">
        <ele>254.8</ele>
        <time>2022-02-23T10:27:40Z</time>
      </trkpt>
      <trkpt lat="47.72005" lon="3.67614">
        <ele>254.8</ele>
        <time>2022-02-23T10:27:41Z</time>
      </trkpt>
      <trkpt lat="47.72005" lon="3.67612">
        <ele>254.7</ele>
        <time>2022-02-23T10:27:42Z</time>
      </trkpt>
      <trkpt lat="47.72005" lon="3.6761">
        <ele>254.6</ele>
        <time>2022-02-23T10:27:44Z</time>
      </trkpt>
      <trkpt lat="47.72004" lon="3.67608">
        <ele>254.6</ele>
        <time>2022-02-23T10:27:45Z</time>
      </trkpt>
      <trkpt lat="47.72004" lon="3.67605">
        <ele>254.5</ele>
        <time>2022-02-23T10:27:46Z</time>
      </trkpt>
      <trkpt lat="47.72004" lon="3.67604">
        <ele>254.5</ele>
        <time>2022-02-23T10:27:47Z</time>
      </trkpt>
      <trkpt lat="47.72004" lon="3.67603">
        <ele>254.4</ele>
        <time>2022-02-23T10:27:48Z</time>
      </trkpt>
      <trkpt lat="47.72003" lon="3.67601">
        <ele>254.4</ele>
        <time>2022-02-23T10:27:49Z</time>
      </trkpt>
      <trkpt lat="47.72003" lon="3.67598">
        <ele>254.3</ele>
        <time>2022-02-23T10:27:50Z</time>
      </trkpt>
      <trkpt lat="47.72002" lon="3.67596">
        <ele>254.2</ele>
        <time>2022-02-23T10:27:52Z</time>
      </trkpt>
      <trkpt lat="47.72002" lon="3.67595">
        <ele>254.2</ele>
        <time>2022-02-23T10:27:53Z</time>
      </trkpt>
      <trkpt lat="47.72001" lon="3.67594">
        <ele>254.1</ele>
        <time>2022-02-23T10:27:54Z</time>
      </trkpt>
      <trkpt lat="47.72001" lon="3.67593">
        <ele>254.1</ele>
        <time>2022-02-23T10:27:55Z</time>
      </trkpt>
      <trkpt lat="47.72001" lon="3.67591">
        <ele>254</ele>
        <time>2022-02-23T10:27:57Z</time>
      </trkpt>
      <trkpt lat="47.72001" lon="3.67589">
        <ele>254</ele>
        <time>2022-02-23T10:27:58Z</time>
      </trkpt>
      <trkpt lat="47.72001" lon="3.67588">
        <ele>254</ele>
        <time>2022-02-23T10:27:59Z</time>
      </trkpt>
      <trkpt lat="47.72001" lon="3.67586">
        <ele>253.9</ele>
        <time>2022-02-23T10:28:00Z</time>
      </trkpt>
      <trkpt lat="47.72001" lon="3.67583">
        <ele>253.8</ele>
        <time>2022-02-23T10:28:01Z</time>
      </trkpt>
      <trkpt lat="47.72001" lon="3.67581">
        <ele>253.8</ele>
        <time>2022-02-23T10:28:03Z</time>
      </trkpt>
      <trkpt lat="47.72001" lon="3.67579">
        <ele>253.7</ele>
        <time>2022-02-23T10:28:04Z</time>
      </trkpt>
      <trkpt lat="47.72001" lon="3.67578">
        <ele>253.7</ele>
        <time>2022-02-23T10:28:05Z</time>
      </trkpt>
      <trkpt lat="47.72002" lon="3.67576">
        <ele>253.6</ele>
        <time>2022-02-23T10:28:06Z</time>
      </trkpt>
      <trkpt lat="47.72002" lon="3.67574">
        <ele>253.6</ele>
        <time>2022-02-23T10:28:08Z</time>
      </trkpt>
      <trkpt lat="47.72003" lon="3.67572">
        <ele>253.5</ele>
        <time>2022-02-23T10:28:09Z</time>
      </trkpt>
      <trkpt lat="47.72003" lon="3.6757">
        <ele>253.4</ele>
        <time>2022-02-23T10:28:10Z</time>
      </trkpt>
      <trkpt lat="47.72003" lon="3.67567">
        <ele>253.3</ele>
        <time>2022-02-23T10:28:11Z</time>
      </trkpt>
      <trkpt lat="47.72002" lon="3.67565">
        <ele>253.3</ele>
        <time>2022-02-23T10:28:12Z</time>
      </trkpt>
      <trkpt lat="47.72002" lon="3.67563">
        <ele>253.2</ele>
        <time>2022-02-23T10:28:14Z</time>
      </trkpt>
      <trkpt lat="47.72002" lon="3.67562">
        <ele>253.2</ele>
        <time>2022-02-23T10:28:15Z</time>
      </trkpt>
      <trkpt lat="47.72002" lon="3.67558">
        <ele>253.1</ele>
        <time>2022-02-23T10:28:16Z</time>
      </trkpt>
      <trkpt lat="47.72002" lon="3.67557">
        <ele>253.1</ele>
        <time>2022-02-23T10:28:17Z</time>
      </trkpt>
      <trkpt lat="47.72002" lon="3.67556">
        <ele>253</ele>
        <time>2022-02-23T10:28:18Z</time>
      </trkpt>
      <trkpt lat="47.72002" lon="3.67554">
        <ele>253</ele>
        <time>2022-02-23T10:28:19Z</time>
      </trkpt>
      <trkpt lat="47.72001" lon="3.67551">
        <ele>252.9</ele>
        <time>2022-02-23T10:28:20Z</time>
      </trkpt>
      <trkpt lat="47.72001" lon="3.6755">
        <ele>252.8</ele>
        <time>2022-02-23T10:28:22Z</time>
      </trkpt>
      <trkpt lat="47.72001" lon="3.67548">
        <ele>252.8</ele>
        <time>2022-02-23T10:28:23Z</time>
      </trkpt>
      <trkpt lat="47.72001" lon="3.67546">
        <ele>252.7</ele>
        <time>2022-02-23T10:28:24Z</time>
      </trkpt>
      <trkpt lat="47.72001" lon="3.67543">
        <ele>252.6</ele>
        <time>2022-02-23T10:28:25Z</time>
      </trkpt>
      <trkpt lat="47.72001" lon="3.67542">
        <ele>252.6</ele>
        <time>2022-02-23T10:28:26Z</time>
      </trkpt>
      <trkpt lat="47.72001" lon="3.6754">
        <ele>252.6</ele>
        <time>2022-02-23T10:28:27Z</time>
      </trkpt>
      <trkpt lat="47.72001" lon="3.67538">
        <ele>252.5</ele>
        <time>2022-02-23T10:28:28Z</time>
      </trkpt>
      <trkpt lat="47.72" lon="3.67536">
        <ele>252.4</ele>
        <time>2022-02-23T10:28:29Z</time>
      </trkpt>
      <trkpt lat="47.71999" lon="3.67533">
        <ele>252.3</ele>
        <time>2022-02-23T10:28:31Z</time>
      </trkpt>
      <trkpt lat="47.71999" lon="3.67533">
        <ele>252.3</ele>
        <time>2022-02-23T10:28:32Z</time>
      </trkpt>
      <trkpt lat="47.71998" lon="3.67532">
        <ele>252.2</ele>
        <time>2022-02-23T10:28:33Z</time>
      </trkpt>
      <trkpt lat="47.71997" lon="3.6753">
        <ele>252.2</ele>
        <time>2022-02-23T10:28:34Z</time>
      </trkpt>
      <trkpt lat="47.71997" lon="3.67528">
        <ele>252.1</ele>
        <time>2022-02-23T10:28:35Z</time>
      </trkpt>
      <trkpt lat="47.71996" lon="3.67526">
        <ele>252</ele>
        <time>2022-02-23T10:28:36Z</time>
      </trkpt>
      <trkpt lat="47.71995" lon="3.67523">
        <ele>252</ele>
        <time>2022-02-23T10:28:38Z</time>
      </trkpt>
      <trkpt lat="47.71995" lon="3.67521">
        <ele>251.9</ele>
        <time>2022-02-23T10:28:39Z</time>
      </trkpt>
      <trkpt lat="47.71994" lon="3.67519">
        <ele>251.8</ele>
        <time>2022-02-23T10:28:40Z</time>
      </trkpt>
      <trkpt lat="47.71994" lon="3.67516">
        <ele>251.7</ele>
        <time>2022-02-23T10:28:41Z</time>
      </trkpt>
      <trkpt lat="47.71995" lon="3.67515">
        <ele>251.7</ele>
        <time>2022-02-23T10:28:42Z</time>
      </trkpt>
      <trkpt lat="47.71995" lon="3.67514">
        <ele>251.6</ele>
        <time>2022-02-23T10:28:43Z</time>
      </trkpt>
      <trkpt lat="47.71995" lon="3.67512">
        <ele>251.6</ele>
        <time>2022-02-23T10:28:45Z</time>
      </trkpt>
      <trkpt lat="47.71995" lon="3.67509">
        <ele>251.5</ele>
        <time>2022-02-23T10:28:46Z</time>
      </trkpt>
      <trkpt lat="47.71994" lon="3.67508">
        <ele>251.5</ele>
        <time>2022-02-23T10:28:47Z</time>
      </trkpt>
      <trkpt lat="47.71994" lon="3.67507">
        <ele>251.4</ele>
        <time>2022-02-23T10:28:48Z</time>
      </trkpt>
      <trkpt lat="47.71993" lon="3.67505">
        <ele>251.4</ele>
        <time>2022-02-23T10:28:49Z</time>
      </trkpt>
      <trkpt lat="47.71992" lon="3.67503">
        <ele>251.3</ele>
        <time>2022-02-23T10:28:50Z</time>
      </trkpt>
      <trkpt lat="47.71992" lon="3.67501">
        <ele>251.2</ele>
        <time>2022-02-23T10:28:51Z</time>
      </trkpt>
      <trkpt lat="47.71991" lon="3.675">
        <ele>251.2</ele>
        <time>2022-02-23T10:28:52Z</time>
      </trkpt>
      <trkpt lat="47.71991" lon="3.67499">
        <ele>251.1</ele>
        <time>2022-02-23T10:28:53Z</time>
      </trkpt>
      <trkpt lat="47.71991" lon="3.67497">
        <ele>251.1</ele>
        <time>2022-02-23T10:28:54Z</time>
      </trkpt>
      <trkpt lat="47.7199" lon="3.67496">
        <ele>251</ele>
        <time>2022-02-23T10:28:55Z</time>
      </trkpt>
      <trkpt lat="47.7199" lon="3.67493">
        <ele>250.9</ele>
        <time>2022-02-23T10:28:56Z</time>
      </trkpt>
      <trkpt lat="47.7199" lon="3.67492">
        <ele>250.9</ele>
        <time>2022-02-23T10:28:57Z</time>
      </trkpt>
      <trkpt lat="47.71989" lon="3.67491">
        <ele>250.9</ele>
        <time>2022-02-23T10:28:58Z</time>
      </trkpt>
      <trkpt lat="47.71988" lon="3.67488">
        <ele>250.8</ele>
        <time>2022-02-23T10:28:59Z</time>
      </trkpt>
      <trkpt lat="47.71988" lon="3.67487">
        <ele>250.7</ele>
        <time>2022-02-23T10:29:00Z</time>
      </trkpt>
      <trkpt lat="47.71988" lon="3.67486">
        <ele>250.7</ele>
        <time>2022-02-23T10:29:01Z</time>
      </trkpt>
      <trkpt lat="47.71987" lon="3.67484">
        <ele>250.6</ele>
        <time>2022-02-23T10:29:02Z</time>
      </trkpt>
      <trkpt lat="47.71987" lon="3.67482">
        <ele>250.5</ele>
        <time>2022-02-23T10:29:04Z</time>
      </trkpt>
      <trkpt lat="47.71987" lon="3.67481">
        <ele>250.5</ele>
        <time>2022-02-23T10:29:05Z</time>
      </trkpt>
      <trkpt lat="47.71986" lon="3.67477">
        <ele>250.4</ele>
        <time>2022-02-23T10:29:06Z</time>
      </trkpt>
      <trkpt lat="47.71986" lon="3.67477">
        <ele>250.3</ele>
        <time>2022-02-23T10:29:07Z</time>
      </trkpt>
      <trkpt lat="47.71986" lon="3.67476">
        <ele>250.3</ele>
        <time>2022-02-23T10:29:08Z</time>
      </trkpt>
      <trkpt lat="47.71985" lon="3.67473">
        <ele>250.2</ele>
        <time>2022-02-23T10:29:09Z</time>
      </trkpt>
      <trkpt lat="47.71984" lon="3.67472">
        <ele>250.1</ele>
        <time>2022-02-23T10:29:10Z</time>
      </trkpt>
      <trkpt lat="47.71983" lon="3.67472">
        <ele>250.1</ele>
        <time>2022-02-23T10:29:11Z</time>
      </trkpt>
      <trkpt lat="47.71983" lon="3.6747">
        <ele>250</ele>
        <time>2022-02-23T10:29:12Z</time>
      </trkpt>
      <trkpt lat="47.71983" lon="3.67469">
        <ele>250</ele>
        <time>2022-02-23T10:29:13Z</time>
      </trkpt>
      <trkpt lat="47.71982" lon="3.67467">
        <ele>249.9</ele>
        <time>2022-02-23T10:29:14Z</time>
      </trkpt>
      <trkpt lat="47.71982" lon="3.67465">
        <ele>249.8</ele>
        <time>2022-02-23T10:29:15Z</time>
      </trkpt>
      <trkpt lat="47.71981" lon="3.67462">
        <ele>249.7</ele>
        <time>2022-02-23T10:29:16Z</time>
      </trkpt>
      <trkpt lat="47.71981" lon="3.6746">
        <ele>249.7</ele>
        <time>2022-02-23T10:29:17Z</time>
      </trkpt>
      <trkpt lat="47.71981" lon="3.67459">
        <ele>249.6</ele>
        <time>2022-02-23T10:29:18Z</time>
      </trkpt>
      <trkpt lat="47.71981" lon="3.67458">
        <ele>249.6</ele>
        <time>2022-02-23T10:29:19Z</time>
      </trkpt>
      <trkpt lat="47.7198" lon="3.67456">
        <ele>249.5</ele>
        <time>2022-02-23T10:29:21Z</time>
      </trkpt>
      <trkpt lat="47.71979" lon="3.67453">
        <ele>249.4</ele>
        <time>2022-02-23T10:29:22Z</time>
      </trkpt>
      <trkpt lat="47.71979" lon="3.67452">
        <ele>249.3</ele>
        <time>2022-02-23T10:29:23Z</time>
      </trkpt>
      <trkpt lat="47.71978" lon="3.67451">
        <ele>249.3</ele>
        <time>2022-02-23T10:29:24Z</time>
      </trkpt>
      <trkpt lat="47.71978" lon="3.67449">
        <ele>249.2</ele>
        <time>2022-02-23T10:29:25Z</time>
      </trkpt>
      <trkpt lat="47.71977" lon="3.67447">
        <ele>249.1</ele>
        <time>2022-02-23T10:29:27Z</time>
      </trkpt>
      <trkpt lat="47.71977" lon="3.67445">
        <ele>249</ele>
        <time>2022-02-23T10:29:28Z</time>
      </trkpt>
      <trkpt lat="47.71977" lon="3.67443">
        <ele>249</ele>
        <time>2022-02-23T10:29:29Z</time>
      </trkpt>
      <trkpt lat="47.71977" lon="3.67441">
        <ele>248.9</ele>
        <time>2022-02-23T10:29:30Z</time>
      </trkpt>
      <trkpt lat="47.71977" lon="3.67438">
        <ele>248.7</ele>
        <time>2022-02-23T10:29:32Z</time>
      </trkpt>
      <trkpt lat="47.71976" lon="3.67436">
        <ele>248.7</ele>
        <time>2022-02-23T10:29:33Z</time>
      </trkpt>
      <trkpt lat="47.71975" lon="3.67434">
        <ele>248.6</ele>
        <time>2022-02-23T10:29:34Z</time>
      </trkpt>
      <trkpt lat="47.71975" lon="3.67433">
        <ele>248.5</ele>
        <time>2022-02-23T10:29:35Z</time>
      </trkpt>
      <trkpt lat="47.71974" lon="3.67429">
        <ele>248.3</ele>
        <time>2022-02-23T10:29:37Z</time>
      </trkpt>
      <trkpt lat="47.71974" lon="3.67428">
        <ele>248.3</ele>
        <time>2022-02-23T10:29:38Z</time>
      </trkpt>
      <trkpt lat="47.71973" lon="3.67427">
        <ele>248.3</ele>
        <time>2022-02-23T10:29:39Z</time>
      </trkpt>
      <trkpt lat="47.71973" lon="3.67426">
        <ele>248.2</ele>
        <time>2022-02-23T10:29:40Z</time>
      </trkpt>
      <trkpt lat="47.71972" lon="3.67423">
        <ele>248</ele>
        <time>2022-02-23T10:29:41Z</time>
      </trkpt>
      <trkpt lat="47.71972" lon="3.67421">
        <ele>248</ele>
        <time>2022-02-23T10:29:42Z</time>
      </trkpt>
      <trkpt lat="47.71971" lon="3.6742">
        <ele>247.9</ele>
        <time>2022-02-23T10:29:43Z</time>
      </trkpt>
      <trkpt lat="47.7197" lon="3.67418">
        <ele>247.8</ele>
        <time>2022-02-23T10:29:45Z</time>
      </trkpt>
      <trkpt lat="47.7197" lon="3.67416">
        <ele>247.7</ele>
        <time>2022-02-23T10:29:46Z</time>
      </trkpt>
      <trkpt lat="47.71969" lon="3.67414">
        <ele>247.6</ele>
        <time>2022-02-23T10:29:47Z</time>
      </trkpt>
      <trkpt lat="47.71968" lon="3.67413">
        <ele>247.5</ele>
        <time>2022-02-23T10:29:48Z</time>
      </trkpt>
      <trkpt lat="47.71967" lon="3.67412">
        <ele>247.5</ele>
        <time>2022-02-23T10:29:49Z</time>
      </trkpt>
      <trkpt lat="47.71967" lon="3.67411">
        <ele>247.4</ele>
        <time>2022-02-23T10:29:50Z</time>
      </trkpt>
      <trkpt lat="47.71966" lon="3.67411">
        <ele>247.4</ele>
        <time>2022-02-23T10:29:51Z</time>
      </trkpt>
      <trkpt lat="47.71966" lon="3.6741">
        <ele>247.4</ele>
        <time>2022-02-23T10:29:52Z</time>
      </trkpt>
      <trkpt lat="47.71966" lon="3.67408">
        <ele>247.3</ele>
        <time>2022-02-23T10:29:53Z</time>
      </trkpt>
      <trkpt lat="47.71965" lon="3.67407">
        <ele>247.2</ele>
        <time>2022-02-23T10:29:54Z</time>
      </trkpt>
      <trkpt lat="47.71965" lon="3.67405">
        <ele>247.1</ele>
        <time>2022-02-23T10:29:55Z</time>
      </trkpt>
      <trkpt lat="47.71964" lon="3.67403">
        <ele>247</ele>
        <time>2022-02-23T10:29:57Z</time>
      </trkpt>
      <trkpt lat="47.71963" lon="3.67402">
        <ele>247</ele>
        <time>2022-02-23T10:29:58Z</time>
      </trkpt>
      <trkpt lat="47.71963" lon="3.67401">
        <ele>246.9</ele>
        <time>2022-02-23T10:29:59Z</time>
      </trkpt>
      <trkpt lat="47.71963" lon="3.674">
        <ele>246.8</ele>
        <time>2022-02-23T10:30:00Z</time>
      </trkpt>
      <trkpt lat="47.71962" lon="3.67398">
        <ele>246.8</ele>
        <time>2022-02-23T10:30:01Z</time>
      </trkpt>
      <trkpt lat="47.71961" lon="3.67396">
        <ele>246.6</ele>
        <time>2022-02-23T10:30:02Z</time>
      </trkpt>
      <trkpt lat="47.71961" lon="3.67394">
        <ele>246.6</ele>
        <time>2022-02-23T10:30:03Z</time>
      </trkpt>
      <trkpt lat="47.71961" lon="3.67392">
        <ele>246.5</ele>
        <time>2022-02-23T10:30:05Z</time>
      </trkpt>
      <trkpt lat="47.7196" lon="3.6739">
        <ele>246.4</ele>
        <time>2022-02-23T10:30:06Z</time>
      </trkpt>
      <trkpt lat="47.7196" lon="3.67387">
        <ele>246.2</ele>
        <time>2022-02-23T10:30:07Z</time>
      </trkpt>
      <trkpt lat="47.7196" lon="3.67386">
        <ele>246.2</ele>
        <time>2022-02-23T10:30:08Z</time>
      </trkpt>
      <trkpt lat="47.71959" lon="3.67383">
        <ele>246</ele>
        <time>2022-02-23T10:30:09Z</time>
      </trkpt>
      <trkpt lat="47.71958" lon="3.67382">
        <ele>245.9</ele>
        <time>2022-02-23T10:30:10Z</time>
      </trkpt>
      <trkpt lat="47.71958" lon="3.6738">
        <ele>245.8</ele>
        <time>2022-02-23T10:30:11Z</time>
      </trkpt>
      <trkpt lat="47.71957" lon="3.67379">
        <ele>245.8</ele>
        <time>2022-02-23T10:30:13Z</time>
      </trkpt>
      <trkpt lat="47.71956" lon="3.67378">
        <ele>245.7</ele>
        <time>2022-02-23T10:30:14Z</time>
      </trkpt>
      <trkpt lat="47.71955" lon="3.67377">
        <ele>245.6</ele>
        <time>2022-02-23T10:30:15Z</time>
      </trkpt>
      <trkpt lat="47.71955" lon="3.67376">
        <ele>245.5</ele>
        <time>2022-02-23T10:30:16Z</time>
      </trkpt>
      <trkpt lat="47.71954" lon="3.67374">
        <ele>245.4</ele>
        <time>2022-02-23T10:30:17Z</time>
      </trkpt>
      <trkpt lat="47.71953" lon="3.67372">
        <ele>245.3</ele>
        <time>2022-02-23T10:30:19Z</time>
      </trkpt>
      <trkpt lat="47.71952" lon="3.6737">
        <ele>245.2</ele>
        <time>2022-02-23T10:30:20Z</time>
      </trkpt>
      <trkpt lat="47.71951" lon="3.67368">
        <ele>245.1</ele>
        <time>2022-02-23T10:30:21Z</time>
      </trkpt>
      <trkpt lat="47.7195" lon="3.67367">
        <ele>245</ele>
        <time>2022-02-23T10:30:22Z</time>
      </trkpt>
      <trkpt lat="47.71949" lon="3.67366">
        <ele>244.9</ele>
        <time>2022-02-23T10:30:23Z</time>
      </trkpt>
      <trkpt lat="47.71948" lon="3.67364">
        <ele>244.7</ele>
        <time>2022-02-23T10:30:24Z</time>
      </trkpt>
      <trkpt lat="47.71947" lon="3.67363">
        <ele>244.7</ele>
        <time>2022-02-23T10:30:26Z</time>
      </trkpt>
      <trkpt lat="47.71946" lon="3.67362">
        <ele>244.6</ele>
        <time>2022-02-23T10:30:27Z</time>
      </trkpt>
      <trkpt lat="47.71945" lon="3.6736">
        <ele>244.5</ele>
        <time>2022-02-23T10:30:28Z</time>
      </trkpt>
      <trkpt lat="47.71944" lon="3.67358">
        <ele>244.4</ele>
        <time>2022-02-23T10:30:29Z</time>
      </trkpt>
      <trkpt lat="47.71944" lon="3.67357">
        <ele>244.3</ele>
        <time>2022-02-23T10:30:30Z</time>
      </trkpt>
      <trkpt lat="47.71943" lon="3.67354">
        <ele>244.2</ele>
        <time>2022-02-23T10:30:32Z</time>
      </trkpt>
      <trkpt lat="47.71942" lon="3.67353">
        <ele>244.1</ele>
        <time>2022-02-23T10:30:33Z</time>
      </trkpt>
      <trkpt lat="47.71941" lon="3.67352">
        <ele>244</ele>
        <time>2022-02-23T10:30:34Z</time>
      </trkpt>
      <trkpt lat="47.71941" lon="3.67351">
        <ele>243.9</ele>
        <time>2022-02-23T10:30:35Z</time>
      </trkpt>
      <trkpt lat="47.7194" lon="3.6735">
        <ele>243.8</ele>
        <time>2022-02-23T10:30:36Z</time>
      </trkpt>
      <trkpt lat="47.71938" lon="3.67348">
        <ele>243.7</ele>
        <time>2022-02-23T10:30:37Z</time>
      </trkpt>
      <trkpt lat="47.71938" lon="3.67347">
        <ele>243.6</ele>
        <time>2022-02-23T10:30:39Z</time>
      </trkpt>
      <trkpt lat="47.71937" lon="3.67346">
        <ele>243.5</ele>
        <time>2022-02-23T10:30:40Z</time>
      </trkpt>
      <trkpt lat="47.71936" lon="3.67345">
        <ele>243.5</ele>
        <time>2022-02-23T10:30:41Z</time>
      </trkpt>
      <trkpt lat="47.71935" lon="3.67342">
        <ele>243.3</ele>
        <time>2022-02-23T10:30:42Z</time>
      </trkpt>
      <trkpt lat="47.71934" lon="3.67341">
        <ele>243.2</ele>
        <time>2022-02-23T10:30:43Z</time>
      </trkpt>
      <trkpt lat="47.71934" lon="3.6734">
        <ele>243.2</ele>
        <time>2022-02-23T10:30:44Z</time>
      </trkpt>
      <trkpt lat="47.71933" lon="3.67339">
        <ele>243.1</ele>
        <time>2022-02-23T10:30:46Z</time>
      </trkpt>
      <trkpt lat="47.71932" lon="3.67337">
        <ele>242.9</ele>
        <time>2022-02-23T10:30:47Z</time>
      </trkpt>
      <trkpt lat="47.71931" lon="3.67336">
        <ele>242.8</ele>
        <time>2022-02-23T10:30:48Z</time>
      </trkpt>
      <trkpt lat="47.7193" lon="3.67335">
        <ele>242.7</ele>
        <time>2022-02-23T10:30:49Z</time>
      </trkpt>
      <trkpt lat="47.71929" lon="3.67335">
        <ele>242.7</ele>
        <time>2022-02-23T10:30:50Z</time>
      </trkpt>
      <trkpt lat="47.71929" lon="3.67334">
        <ele>242.7</ele>
        <time>2022-02-23T10:30:51Z</time>
      </trkpt>
      <trkpt lat="47.71927" lon="3.67332">
        <ele>242.5</ele>
        <time>2022-02-23T10:30:52Z</time>
      </trkpt>
      <trkpt lat="47.71926" lon="3.67331">
        <ele>242.4</ele>
        <time>2022-02-23T10:30:53Z</time>
      </trkpt>
      <trkpt lat="47.71925" lon="3.6733">
        <ele>242.4</ele>
        <time>2022-02-23T10:30:54Z</time>
      </trkpt>
      <trkpt lat="47.71925" lon="3.6733">
        <ele>242.3</ele>
        <time>2022-02-23T10:30:55Z</time>
      </trkpt>
      <trkpt lat="47.71924" lon="3.67329">
        <ele>242.2</ele>
        <time>2022-02-23T10:30:56Z</time>
      </trkpt>
      <trkpt lat="47.71922" lon="3.67327">
        <ele>242</ele>
        <time>2022-02-23T10:30:58Z</time>
      </trkpt>
      <trkpt lat="47.71922" lon="3.67325">
        <ele>241.9</ele>
        <time>2022-02-23T10:30:59Z</time>
      </trkpt>
      <trkpt lat="47.71921" lon="3.67324">
        <ele>241.8</ele>
        <time>2022-02-23T10:31:00Z</time>
      </trkpt>
      <trkpt lat="47.71919" lon="3.67324">
        <ele>241.7</ele>
        <time>2022-02-23T10:31:01Z</time>
      </trkpt>
      <trkpt lat="47.71917" lon="3.67322">
        <ele>241.5</ele>
        <time>2022-02-23T10:31:03Z</time>
      </trkpt>
      <trkpt lat="47.71917" lon="3.67321">
        <ele>241.4</ele>
        <time>2022-02-23T10:31:04Z</time>
      </trkpt>
      <trkpt lat="47.71916" lon="3.6732">
        <ele>241.3</ele>
        <time>2022-02-23T10:31:05Z</time>
      </trkpt>
      <trkpt lat="47.71914" lon="3.67319">
        <ele>241.1</ele>
        <time>2022-02-23T10:31:07Z</time>
      </trkpt>
      <trkpt lat="47.71913" lon="3.67317">
        <ele>240.9</ele>
        <time>2022-02-23T10:31:08Z</time>
      </trkpt>
      <trkpt lat="47.71912" lon="3.67315">
        <ele>240.8</ele>
        <time>2022-02-23T10:31:09Z</time>
      </trkpt>
      <trkpt lat="47.71912" lon="3.67312">
        <ele>240.6</ele>
        <time>2022-02-23T10:31:10Z</time>
      </trkpt>
      <trkpt lat="47.71911" lon="3.67311">
        <ele>240.6</ele>
        <time>2022-02-23T10:31:11Z</time>
      </trkpt>
      <trkpt lat="47.71911" lon="3.6731">
        <ele>240.5</ele>
        <time>2022-02-23T10:31:12Z</time>
      </trkpt>
      <trkpt lat="47.71911" lon="3.67308">
        <ele>240.4</ele>
        <time>2022-02-23T10:31:14Z</time>
      </trkpt>
      <trkpt lat="47.71911" lon="3.67305">
        <ele>240.2</ele>
        <time>2022-02-23T10:31:15Z</time>
      </trkpt>
      <trkpt lat="47.71911" lon="3.67303">
        <ele>240.1</ele>
        <time>2022-02-23T10:31:17Z</time>
      </trkpt>
      <trkpt lat="47.71911" lon="3.67302">
        <ele>240</ele>
        <time>2022-02-23T10:31:18Z</time>
      </trkpt>
      <trkpt lat="47.7191" lon="3.673">
        <ele>239.9</ele>
        <time>2022-02-23T10:31:19Z</time>
      </trkpt>
      <trkpt lat="47.71909" lon="3.67299">
        <ele>239.8</ele>
        <time>2022-02-23T10:31:20Z</time>
      </trkpt>
      <trkpt lat="47.71908" lon="3.67298">
        <ele>239.6</ele>
        <time>2022-02-23T10:31:21Z</time>
      </trkpt>
      <trkpt lat="47.71906" lon="3.67297">
        <ele>239.4</ele>
        <time>2022-02-23T10:31:22Z</time>
      </trkpt>
      <trkpt lat="47.71904" lon="3.67297">
        <ele>239.3</ele>
        <time>2022-02-23T10:31:23Z</time>
      </trkpt>
      <trkpt lat="47.71903" lon="3.67297">
        <ele>239.2</ele>
        <time>2022-02-23T10:31:25Z</time>
      </trkpt>
      <trkpt lat="47.71902" lon="3.67296">
        <ele>239.1</ele>
        <time>2022-02-23T10:31:26Z</time>
      </trkpt>
      <trkpt lat="47.719" lon="3.67296">
        <ele>238.9</ele>
        <time>2022-02-23T10:31:27Z</time>
      </trkpt>
      <trkpt lat="47.71899" lon="3.67296">
        <ele>238.8</ele>
        <time>2022-02-23T10:31:28Z</time>
      </trkpt>
      <trkpt lat="47.71896" lon="3.67295">
        <ele>238.6</ele>
        <time>2022-02-23T10:31:29Z</time>
      </trkpt>
      <trkpt lat="47.71896" lon="3.67294">
        <ele>238.5</ele>
        <time>2022-02-23T10:31:30Z</time>
      </trkpt>
      <trkpt lat="47.71894" lon="3.67294">
        <ele>238.4</ele>
        <time>2022-02-23T10:31:31Z</time>
      </trkpt>
      <trkpt lat="47.71893" lon="3.67293">
        <ele>238.3</ele>
        <time>2022-02-23T10:31:33Z</time>
      </trkpt>
      <trkpt lat="47.71892" lon="3.67292">
        <ele>238.2</ele>
        <time>2022-02-23T10:31:34Z</time>
      </trkpt>
      <trkpt lat="47.71891" lon="3.67291">
        <ele>238.1</ele>
        <time>2022-02-23T10:31:35Z</time>
      </trkpt>
      <trkpt lat="47.7189" lon="3.6729">
        <ele>238.1</ele>
        <time>2022-02-23T10:31:36Z</time>
      </trkpt>
      <trkpt lat="47.71889" lon="3.67289">
        <ele>238</ele>
        <time>2022-02-23T10:31:37Z</time>
      </trkpt>
      <trkpt lat="47.71889" lon="3.67288">
        <ele>237.9</ele>
        <time>2022-02-23T10:31:38Z</time>
      </trkpt>
      <trkpt lat="47.71888" lon="3.67286">
        <ele>237.8</ele>
        <time>2022-02-23T10:31:39Z</time>
      </trkpt>
      <trkpt lat="47.71886" lon="3.67285">
        <ele>237.7</ele>
        <time>2022-02-23T10:31:41Z</time>
      </trkpt>
      <trkpt lat="47.71885" lon="3.67284">
        <ele>237.6</ele>
        <time>2022-02-23T10:31:42Z</time>
      </trkpt>
      <trkpt lat="47.71885" lon="3.67282">
        <ele>237.5</ele>
        <time>2022-02-23T10:31:43Z</time>
      </trkpt>
      <trkpt lat="47.71884" lon="3.67282">
        <ele>237.4</ele>
        <time>2022-02-23T10:31:44Z</time>
      </trkpt>
      <trkpt lat="47.71884" lon="3.67281">
        <ele>237.4</ele>
        <time>2022-02-23T10:31:45Z</time>
      </trkpt>
      <trkpt lat="47.71883" lon="3.6728">
        <ele>237.3</ele>
        <time>2022-02-23T10:31:47Z</time>
      </trkpt>
      <trkpt lat="47.71882" lon="3.67279">
        <ele>237.2</ele>
        <time>2022-02-23T10:31:48Z</time>
      </trkpt>
      <trkpt lat="47.71882" lon="3.67278">
        <ele>237.2</ele>
        <time>2022-02-23T10:31:49Z</time>
      </trkpt>
      <trkpt lat="47.71881" lon="3.67277">
        <ele>237.1</ele>
        <time>2022-02-23T10:31:50Z</time>
      </trkpt>
      <trkpt lat="47.7188" lon="3.67275">
        <ele>237</ele>
        <time>2022-02-23T10:31:51Z</time>
      </trkpt>
      <trkpt lat="47.71879" lon="3.67273">
        <ele>236.9</ele>
        <time>2022-02-23T10:31:52Z</time>
      </trkpt>
      <trkpt lat="47.71879" lon="3.67272">
        <ele>236.8</ele>
        <time>2022-02-23T10:31:53Z</time>
      </trkpt>
      <trkpt lat="47.71878" lon="3.6727">
        <ele>236.7</ele>
        <time>2022-02-23T10:31:55Z</time>
      </trkpt>
      <trkpt lat="47.71877" lon="3.67269">
        <ele>236.6</ele>
        <time>2022-02-23T10:31:56Z</time>
      </trkpt>
      <trkpt lat="47.71876" lon="3.67268">
        <ele>236.5</ele>
        <time>2022-02-23T10:31:57Z</time>
      </trkpt>
      <trkpt lat="47.71874" lon="3.67267">
        <ele>236.4</ele>
        <time>2022-02-23T10:31:58Z</time>
      </trkpt>
      <trkpt lat="47.71873" lon="3.67267">
        <ele>236.4</ele>
        <time>2022-02-23T10:31:59Z</time>
      </trkpt>
      <trkpt lat="47.71873" lon="3.67266">
        <ele>236.3</ele>
        <time>2022-02-23T10:32:00Z</time>
      </trkpt>
      <trkpt lat="47.71871" lon="3.67266">
        <ele>236.2</ele>
        <time>2022-02-23T10:32:01Z</time>
      </trkpt>
      <trkpt lat="47.7187" lon="3.67265">
        <ele>236.1</ele>
        <time>2022-02-23T10:32:03Z</time>
      </trkpt>
      <trkpt lat="47.71869" lon="3.67264">
        <ele>236.1</ele>
        <time>2022-02-23T10:32:04Z</time>
      </trkpt>
      <trkpt lat="47.71869" lon="3.67264">
        <ele>236</ele>
        <time>2022-02-23T10:32:05Z</time>
      </trkpt>
      <trkpt lat="47.71867" lon="3.67263">
        <ele>235.9</ele>
        <time>2022-02-23T10:32:06Z</time>
      </trkpt>
      <trkpt lat="47.71866" lon="3.67261">
        <ele>235.8</ele>
        <time>2022-02-23T10:32:08Z</time>
      </trkpt>
      <trkpt lat="47.71865" lon="3.67261">
        <ele>235.7</ele>
        <time>2022-02-23T10:32:09Z</time>
      </trkpt>
      <trkpt lat="47.71863" lon="3.67259">
        <ele>235.6</ele>
        <time>2022-02-23T10:32:10Z</time>
      </trkpt>
      <trkpt lat="47.71862" lon="3.67259">
        <ele>235.5</ele>
        <time>2022-02-23T10:32:11Z</time>
      </trkpt>
      <trkpt lat="47.71861" lon="3.67258">
        <ele>235.5</ele>
        <time>2022-02-23T10:32:12Z</time>
      </trkpt>
      <trkpt lat="47.7186" lon="3.67257">
        <ele>235.4</ele>
        <time>2022-02-23T10:32:13Z</time>
      </trkpt>
      <trkpt lat="47.71859" lon="3.67256">
        <ele>235.3</ele>
        <time>2022-02-23T10:32:14Z</time>
      </trkpt>
      <trkpt lat="47.71858" lon="3.67255">
        <ele>235.2</ele>
        <time>2022-02-23T10:32:16Z</time>
      </trkpt>
      <trkpt lat="47.71858" lon="3.67254">
        <ele>235.1</ele>
        <time>2022-02-23T10:32:17Z</time>
      </trkpt>
      <trkpt lat="47.71857" lon="3.67253">
        <ele>235.1</ele>
        <time>2022-02-23T10:32:18Z</time>
      </trkpt>
      <trkpt lat="47.71856" lon="3.67252">
        <ele>235</ele>
        <time>2022-02-23T10:32:19Z</time>
      </trkpt>
      <trkpt lat="47.71854" lon="3.6725">
        <ele>234.9</ele>
        <time>2022-02-23T10:32:20Z</time>
      </trkpt>
      <trkpt lat="47.71853" lon="3.67249">
        <ele>234.8</ele>
        <time>2022-02-23T10:32:21Z</time>
      </trkpt>
      <trkpt lat="47.71853" lon="3.67248">
        <ele>234.8</ele>
        <time>2022-02-23T10:32:22Z</time>
      </trkpt>
      <trkpt lat="47.71852" lon="3.67248">
        <ele>234.8</ele>
        <time>2022-02-23T10:32:23Z</time>
      </trkpt>
      <trkpt lat="47.71851" lon="3.67246">
        <ele>234.7</ele>
        <time>2022-02-23T10:32:24Z</time>
      </trkpt>
      <trkpt lat="47.7185" lon="3.67245">
        <ele>234.6</ele>
        <time>2022-02-23T10:32:25Z</time>
      </trkpt>
      <trkpt lat="47.71849" lon="3.67243">
        <ele>234.5</ele>
        <time>2022-02-23T10:32:26Z</time>
      </trkpt>
      <trkpt lat="47.71848" lon="3.67242">
        <ele>234.4</ele>
        <time>2022-02-23T10:32:28Z</time>
      </trkpt>
      <trkpt lat="47.71847" lon="3.67242">
        <ele>234.4</ele>
        <time>2022-02-23T10:32:29Z</time>
      </trkpt>
      <trkpt lat="47.71845" lon="3.67239">
        <ele>234.2</ele>
        <time>2022-02-23T10:32:30Z</time>
      </trkpt>
      <trkpt lat="47.71845" lon="3.67238">
        <ele>234.1</ele>
        <time>2022-02-23T10:32:31Z</time>
      </trkpt>
      <trkpt lat="47.71845" lon="3.67237">
        <ele>234.1</ele>
        <time>2022-02-23T10:32:32Z</time>
      </trkpt>
      <trkpt lat="47.71844" lon="3.67236">
        <ele>234</ele>
        <time>2022-02-23T10:32:33Z</time>
      </trkpt>
      <trkpt lat="47.71843" lon="3.67234">
        <ele>233.9</ele>
        <time>2022-02-23T10:32:34Z</time>
      </trkpt>
      <trkpt lat="47.71842" lon="3.67231">
        <ele>233.8</ele>
        <time>2022-02-23T10:32:35Z</time>
      </trkpt>
      <trkpt lat="47.71841" lon="3.6723">
        <ele>233.7</ele>
        <time>2022-02-23T10:32:36Z</time>
      </trkpt>
      <trkpt lat="47.71841" lon="3.67229">
        <ele>233.6</ele>
        <time>2022-02-23T10:32:37Z</time>
      </trkpt>
      <trkpt lat="47.7184" lon="3.67227">
        <ele>233.5</ele>
        <time>2022-02-23T10:32:38Z</time>
      </trkpt>
      <trkpt lat="47.71839" lon="3.67226">
        <ele>233.4</ele>
        <time>2022-02-23T10:32:39Z</time>
      </trkpt>
      <trkpt lat="47.71838" lon="3.67224">
        <ele>233.3</ele>
        <time>2022-02-23T10:32:41Z</time>
      </trkpt>
      <trkpt lat="47.71837" lon="3.67223">
        <ele>233.2</ele>
        <time>2022-02-23T10:32:42Z</time>
      </trkpt>
      <trkpt lat="47.71835" lon="3.67221">
        <ele>233.1</ele>
        <time>2022-02-23T10:32:43Z</time>
      </trkpt>
      <trkpt lat="47.71835" lon="3.6722">
        <ele>233</ele>
        <time>2022-02-23T10:32:44Z</time>
      </trkpt>
      <trkpt lat="47.71834" lon="3.67219">
        <ele>232.9</ele>
        <time>2022-02-23T10:32:45Z</time>
      </trkpt>
      <trkpt lat="47.71833" lon="3.67218">
        <ele>232.9</ele>
        <time>2022-02-23T10:32:46Z</time>
      </trkpt>
      <trkpt lat="47.71832" lon="3.67216">
        <ele>232.8</ele>
        <time>2022-02-23T10:32:48Z</time>
      </trkpt>
      <trkpt lat="47.71831" lon="3.67215">
        <ele>232.7</ele>
        <time>2022-02-23T10:32:49Z</time>
      </trkpt>
      <trkpt lat="47.7183" lon="3.67215">
        <ele>232.6</ele>
        <time>2022-02-23T10:32:50Z</time>
      </trkpt>
      <trkpt lat="47.71829" lon="3.67214">
        <ele>232.5</ele>
        <time>2022-02-23T10:32:51Z</time>
      </trkpt>
      <trkpt lat="47.71827" lon="3.67212">
        <ele>232.4</ele>
        <time>2022-02-23T10:32:53Z</time>
      </trkpt>
      <trkpt lat="47.71827" lon="3.67212">
        <ele>232.4</ele>
        <time>2022-02-23T10:32:54Z</time>
      </trkpt>
      <trkpt lat="47.71826" lon="3.6721">
        <ele>232.3</ele>
        <time>2022-02-23T10:32:55Z</time>
      </trkpt>
      <trkpt lat="47.71826" lon="3.67209">
        <ele>232.3</ele>
        <time>2022-02-23T10:32:56Z</time>
      </trkpt>
      <trkpt lat="47.71826" lon="3.67208">
        <ele>232.2</ele>
        <time>2022-02-23T10:32:57Z</time>
      </trkpt>
      <trkpt lat="47.71825" lon="3.67207">
        <ele>232.1</ele>
        <time>2022-02-23T10:32:58Z</time>
      </trkpt>
      <trkpt lat="47.71824" lon="3.67206">
        <ele>232.1</ele>
        <time>2022-02-23T10:32:59Z</time>
      </trkpt>
      <trkpt lat="47.71824" lon="3.67206">
        <ele>232</ele>
        <time>2022-02-23T10:33:00Z</time>
      </trkpt>
      <trkpt lat="47.71823" lon="3.67205">
        <ele>232</ele>
        <time>2022-02-23T10:33:01Z</time>
      </trkpt>
      <trkpt lat="47.71822" lon="3.67205">
        <ele>231.9</ele>
        <time>2022-02-23T10:33:02Z</time>
      </trkpt>
      <trkpt lat="47.71821" lon="3.67204">
        <ele>231.9</ele>
        <time>2022-02-23T10:33:04Z</time>
      </trkpt>
      <trkpt lat="47.7182" lon="3.67203">
        <ele>231.8</ele>
        <time>2022-02-23T10:33:05Z</time>
      </trkpt>
      <trkpt lat="47.71819" lon="3.67202">
        <ele>231.7</ele>
        <time>2022-02-23T10:33:06Z</time>
      </trkpt>
      <trkpt lat="47.71818" lon="3.67202">
        <ele>231.6</ele>
        <time>2022-02-23T10:33:07Z</time>
      </trkpt>
      <trkpt lat="47.71816" lon="3.67201">
        <ele>231.5</ele>
        <time>2022-02-23T10:33:08Z</time>
      </trkpt>
      <trkpt lat="47.71815" lon="3.672">
        <ele>231.4</ele>
        <time>2022-02-23T10:33:10Z</time>
      </trkpt>
      <trkpt lat="47.71813" lon="3.672">
        <ele>231.3</ele>
        <time>2022-02-23T10:33:11Z</time>
      </trkpt>
      <trkpt lat="47.71812" lon="3.67199">
        <ele>231.3</ele>
        <time>2022-02-23T10:33:12Z</time>
      </trkpt>
      <trkpt lat="47.71811" lon="3.67197">
        <ele>231.1</ele>
        <time>2022-02-23T10:33:13Z</time>
      </trkpt>
      <trkpt lat="47.7181" lon="3.67196">
        <ele>231.1</ele>
        <time>2022-02-23T10:33:14Z</time>
      </trkpt>
      <trkpt lat="47.71809" lon="3.67194">
        <ele>231</ele>
        <time>2022-02-23T10:33:15Z</time>
      </trkpt>
      <trkpt lat="47.71809" lon="3.67192">
        <ele>230.9</ele>
        <time>2022-02-23T10:33:16Z</time>
      </trkpt>
      <trkpt lat="47.71807" lon="3.67189">
        <ele>230.8</ele>
        <time>2022-02-23T10:33:18Z</time>
      </trkpt>
      <trkpt lat="47.71807" lon="3.67189">
        <ele>230.7</ele>
        <time>2022-02-23T10:33:19Z</time>
      </trkpt>
      <trkpt lat="47.71807" lon="3.67189">
        <ele>230.7</ele>
        <time>2022-02-23T10:33:20Z</time>
      </trkpt>
      <trkpt lat="47.71806" lon="3.67188">
        <ele>230.7</ele>
        <time>2022-02-23T10:33:21Z</time>
      </trkpt>
      <trkpt lat="47.71805" lon="3.67187">
        <ele>230.6</ele>
        <time>2022-02-23T10:33:23Z</time>
      </trkpt>
      <trkpt lat="47.71804" lon="3.67186">
        <ele>230.6</ele>
        <time>2022-02-23T10:33:24Z</time>
      </trkpt>
      <trkpt lat="47.71804" lon="3.67185">
        <ele>230.5</ele>
        <time>2022-02-23T10:33:25Z</time>
      </trkpt>
      <trkpt lat="47.71803" lon="3.67184">
        <ele>230.4</ele>
        <time>2022-02-23T10:33:26Z</time>
      </trkpt>
      <trkpt lat="47.71802" lon="3.67182">
        <ele>230.3</ele>
        <time>2022-02-23T10:33:27Z</time>
      </trkpt>
      <trkpt lat="47.71801" lon="3.67181">
        <ele>230.3</ele>
        <time>2022-02-23T10:33:28Z</time>
      </trkpt>
      <trkpt lat="47.718" lon="3.6718">
        <ele>230.2</ele>
        <time>2022-02-23T10:33:29Z</time>
      </trkpt>
      <trkpt lat="47.71798" lon="3.67178">
        <ele>230.1</ele>
        <time>2022-02-23T10:33:30Z</time>
      </trkpt>
      <trkpt lat="47.71797" lon="3.67176">
        <ele>230</ele>
        <time>2022-02-23T10:33:31Z</time>
      </trkpt>
      <trkpt lat="47.71796" lon="3.67174">
        <ele>229.9</ele>
        <time>2022-02-23T10:33:32Z</time>
      </trkpt>
      <trkpt lat="47.71795" lon="3.67173">
        <ele>229.9</ele>
        <time>2022-02-23T10:33:33Z</time>
      </trkpt>
      <trkpt lat="47.71794" lon="3.67172">
        <ele>229.8</ele>
        <time>2022-02-23T10:33:34Z</time>
      </trkpt>
      <trkpt lat="47.71794" lon="3.67171">
        <ele>229.8</ele>
        <time>2022-02-23T10:33:36Z</time>
      </trkpt>
      <trkpt lat="47.71793" lon="3.67169">
        <ele>229.7</ele>
        <time>2022-02-23T10:33:37Z</time>
      </trkpt>
      <trkpt lat="47.71791" lon="3.67167">
        <ele>229.6</ele>
        <time>2022-02-23T10:33:38Z</time>
      </trkpt>
      <trkpt lat="47.71791" lon="3.67166">
        <ele>229.6</ele>
        <time>2022-02-23T10:33:39Z</time>
      </trkpt>
      <trkpt lat="47.7179" lon="3.67165">
        <ele>229.5</ele>
        <time>2022-02-23T10:33:40Z</time>
      </trkpt>
      <trkpt lat="47.71789" lon="3.67164">
        <ele>229.4</ele>
        <time>2022-02-23T10:33:41Z</time>
      </trkpt>
      <trkpt lat="47.71788" lon="3.67163">
        <ele>229.4</ele>
        <time>2022-02-23T10:33:42Z</time>
      </trkpt>
      <trkpt lat="47.71787" lon="3.67161">
        <ele>229.3</ele>
        <time>2022-02-23T10:33:43Z</time>
      </trkpt>
      <trkpt lat="47.71786" lon="3.6716">
        <ele>229.2</ele>
        <time>2022-02-23T10:33:44Z</time>
      </trkpt>
      <trkpt lat="47.71786" lon="3.67158">
        <ele>229.2</ele>
        <time>2022-02-23T10:33:45Z</time>
      </trkpt>
      <trkpt lat="47.71784" lon="3.67156">
        <ele>229.1</ele>
        <time>2022-02-23T10:33:47Z</time>
      </trkpt>
      <trkpt lat="47.71783" lon="3.67154">
        <ele>229</ele>
        <time>2022-02-23T10:33:48Z</time>
      </trkpt>
      <trkpt lat="47.71782" lon="3.67153">
        <ele>228.9</ele>
        <time>2022-02-23T10:33:49Z</time>
      </trkpt>
      <trkpt lat="47.71781" lon="3.6715">
        <ele>228.8</ele>
        <time>2022-02-23T10:33:50Z</time>
      </trkpt>
      <trkpt lat="47.71781" lon="3.67149">
        <ele>228.8</ele>
        <time>2022-02-23T10:33:51Z</time>
      </trkpt>
      <trkpt lat="47.7178" lon="3.67148">
        <ele>228.7</ele>
        <time>2022-02-23T10:33:52Z</time>
      </trkpt>
      <trkpt lat="47.71779" lon="3.67145">
        <ele>228.6</ele>
        <time>2022-02-23T10:33:53Z</time>
      </trkpt>
      <trkpt lat="47.71778" lon="3.67145">
        <ele>228.6</ele>
        <time>2022-02-23T10:33:54Z</time>
      </trkpt>
      <trkpt lat="47.71778" lon="3.67144">
        <ele>228.5</ele>
        <time>2022-02-23T10:33:55Z</time>
      </trkpt>
      <trkpt lat="47.71776" lon="3.67142">
        <ele>228.4</ele>
        <time>2022-02-23T10:33:56Z</time>
      </trkpt>
      <trkpt lat="47.71775" lon="3.67141">
        <ele>228.4</ele>
        <time>2022-02-23T10:33:57Z</time>
      </trkpt>
      <trkpt lat="47.71774" lon="3.67139">
        <ele>228.3</ele>
        <time>2022-02-23T10:33:58Z</time>
      </trkpt>
      <trkpt lat="47.71773" lon="3.67137">
        <ele>228.2</ele>
        <time>2022-02-23T10:34:00Z</time>
      </trkpt>
      <trkpt lat="47.71772" lon="3.67136">
        <ele>228.1</ele>
        <time>2022-02-23T10:34:01Z</time>
      </trkpt>
      <trkpt lat="47.71771" lon="3.67135">
        <ele>228</ele>
        <time>2022-02-23T10:34:02Z</time>
      </trkpt>
      <trkpt lat="47.71769" lon="3.67133">
        <ele>228</ele>
        <time>2022-02-23T10:34:03Z</time>
      </trkpt>
      <trkpt lat="47.71769" lon="3.67132">
        <ele>227.9</ele>
        <time>2022-02-23T10:34:04Z</time>
      </trkpt>
      <trkpt lat="47.71768" lon="3.67131">
        <ele>227.8</ele>
        <time>2022-02-23T10:34:05Z</time>
      </trkpt>
      <trkpt lat="47.71767" lon="3.6713">
        <ele>227.8</ele>
        <time>2022-02-23T10:34:06Z</time>
      </trkpt>
      <trkpt lat="47.71765" lon="3.67128">
        <ele>227.6</ele>
        <time>2022-02-23T10:34:08Z</time>
      </trkpt>
      <trkpt lat="47.71764" lon="3.67127">
        <ele>227.6</ele>
        <time>2022-02-23T10:34:09Z</time>
      </trkpt>
      <trkpt lat="47.71763" lon="3.67126">
        <ele>227.5</ele>
        <time>2022-02-23T10:34:10Z</time>
      </trkpt>
      <trkpt lat="47.71762" lon="3.67125">
        <ele>227.5</ele>
        <time>2022-02-23T10:34:11Z</time>
      </trkpt>
      <trkpt lat="47.71762" lon="3.67123">
        <ele>227.4</ele>
        <time>2022-02-23T10:34:12Z</time>
      </trkpt>
      <trkpt lat="47.7176" lon="3.67122">
        <ele>227.3</ele>
        <time>2022-02-23T10:34:13Z</time>
      </trkpt>
      <trkpt lat="47.7176" lon="3.67121">
        <ele>227.3</ele>
        <time>2022-02-23T10:34:14Z</time>
      </trkpt>
      <trkpt lat="47.71759" lon="3.6712">
        <ele>227.2</ele>
        <time>2022-02-23T10:34:15Z</time>
      </trkpt>
      <trkpt lat="47.71758" lon="3.67119">
        <ele>227.2</ele>
        <time>2022-02-23T10:34:16Z</time>
      </trkpt>
      <trkpt lat="47.71757" lon="3.67118">
        <ele>227.1</ele>
        <time>2022-02-23T10:34:17Z</time>
      </trkpt>
      <trkpt lat="47.71756" lon="3.67117">
        <ele>227</ele>
        <time>2022-02-23T10:34:18Z</time>
      </trkpt>
      <trkpt lat="47.71754" lon="3.67115">
        <ele>226.9</ele>
        <time>2022-02-23T10:34:20Z</time>
      </trkpt>
      <trkpt lat="47.71754" lon="3.67114">
        <ele>226.9</ele>
        <time>2022-02-23T10:34:21Z</time>
      </trkpt>
      <trkpt lat="47.71753" lon="3.67113">
        <ele>226.8</ele>
        <time>2022-02-23T10:34:22Z</time>
      </trkpt>
      <trkpt lat="47.71752" lon="3.6711">
        <ele>226.7</ele>
        <time>2022-02-23T10:34:23Z</time>
      </trkpt>
      <trkpt lat="47.71751" lon="3.6711">
        <ele>226.7</ele>
        <time>2022-02-23T10:34:24Z</time>
      </trkpt>
      <trkpt lat="47.7175" lon="3.67108">
        <ele>226.6</ele>
        <time>2022-02-23T10:34:25Z</time>
      </trkpt>
      <trkpt lat="47.7175" lon="3.67107">
        <ele>226.6</ele>
        <time>2022-02-23T10:34:26Z</time>
      </trkpt>
      <trkpt lat="47.71749" lon="3.67106">
        <ele>226.5</ele>
        <time>2022-02-23T10:34:27Z</time>
      </trkpt>
      <trkpt lat="47.71748" lon="3.67105">
        <ele>226.5</ele>
        <time>2022-02-23T10:34:28Z</time>
      </trkpt>
      <trkpt lat="47.71747" lon="3.67104">
        <ele>226.4</ele>
        <time>2022-02-23T10:34:29Z</time>
      </trkpt>
      <trkpt lat="47.71747" lon="3.67103">
        <ele>226.4</ele>
        <time>2022-02-23T10:34:31Z</time>
      </trkpt>
      <trkpt lat="47.71746" lon="3.67102">
        <ele>226.3</ele>
        <time>2022-02-23T10:34:32Z</time>
      </trkpt>
      <trkpt lat="47.71745" lon="3.67101">
        <ele>226.3</ele>
        <time>2022-02-23T10:34:33Z</time>
      </trkpt>
      <trkpt lat="47.71744" lon="3.671">
        <ele>226.2</ele>
        <time>2022-02-23T10:34:34Z</time>
      </trkpt>
      <trkpt lat="47.71743" lon="3.67099">
        <ele>226.2</ele>
        <time>2022-02-23T10:34:35Z</time>
      </trkpt>
      <trkpt lat="47.71742" lon="3.67098">
        <ele>226.1</ele>
        <time>2022-02-23T10:34:36Z</time>
      </trkpt>
      <trkpt lat="47.71741" lon="3.67096">
        <ele>226.1</ele>
        <time>2022-02-23T10:34:37Z</time>
      </trkpt>
      <trkpt lat="47.7174" lon="3.67095">
        <ele>226</ele>
        <time>2022-02-23T10:34:39Z</time>
      </trkpt>
      <trkpt lat="47.71739" lon="3.67093">
        <ele>225.9</ele>
        <time>2022-02-23T10:34:40Z</time>
      </trkpt>
      <trkpt lat="47.71738" lon="3.67091">
        <ele>225.8</ele>
        <time>2022-02-23T10:34:41Z</time>
      </trkpt>
      <trkpt lat="47.71737" lon="3.6709">
        <ele>225.7</ele>
        <time>2022-02-23T10:34:42Z</time>
      </trkpt>
      <trkpt lat="47.71737" lon="3.67089">
        <ele>225.7</ele>
        <time>2022-02-23T10:34:43Z</time>
      </trkpt>
      <trkpt lat="47.71736" lon="3.67088">
        <ele>225.6</ele>
        <time>2022-02-23T10:34:44Z</time>
      </trkpt>
      <trkpt lat="47.71735" lon="3.67087">
        <ele>225.6</ele>
        <time>2022-02-23T10:34:45Z</time>
      </trkpt>
      <trkpt lat="47.71734" lon="3.67085">
        <ele>225.5</ele>
        <time>2022-02-23T10:34:47Z</time>
      </trkpt>
      <trkpt lat="47.71732" lon="3.67083">
        <ele>225.4</ele>
        <time>2022-02-23T10:34:48Z</time>
      </trkpt>
      <trkpt lat="47.71732" lon="3.67082">
        <ele>225.3</ele>
        <time>2022-02-23T10:34:49Z</time>
      </trkpt>
      <trkpt lat="47.71731" lon="3.67081">
        <ele>225.3</ele>
        <time>2022-02-23T10:34:50Z</time>
      </trkpt>
      <trkpt lat="47.71729" lon="3.67079">
        <ele>225.2</ele>
        <time>2022-02-23T10:34:51Z</time>
      </trkpt>
      <trkpt lat="47.71729" lon="3.67078">
        <ele>225.1</ele>
        <time>2022-02-23T10:34:52Z</time>
      </trkpt>
      <trkpt lat="47.71728" lon="3.67077">
        <ele>225.1</ele>
        <time>2022-02-23T10:34:53Z</time>
      </trkpt>
      <trkpt lat="47.71727" lon="3.67076">
        <ele>225</ele>
        <time>2022-02-23T10:34:54Z</time>
      </trkpt>
      <trkpt lat="47.71726" lon="3.67075">
        <ele>225</ele>
        <time>2022-02-23T10:34:55Z</time>
      </trkpt>
      <trkpt lat="47.71725" lon="3.67074">
        <ele>224.9</ele>
        <time>2022-02-23T10:34:57Z</time>
      </trkpt>
      <trkpt lat="47.71723" lon="3.67072">
        <ele>224.8</ele>
        <time>2022-02-23T10:34:58Z</time>
      </trkpt>
      <trkpt lat="47.71723" lon="3.6707">
        <ele>224.8</ele>
        <time>2022-02-23T10:34:59Z</time>
      </trkpt>
      <trkpt lat="47.71721" lon="3.6707">
        <ele>224.7</ele>
        <time>2022-02-23T10:35:01Z</time>
      </trkpt>
      <trkpt lat="47.71722" lon="3.6707">
        <ele>224.7</ele>
        <time>2022-02-23T10:35:02Z</time>
      </trkpt>
      <trkpt lat="47.71722" lon="3.67071">
        <ele>224.6</ele>
        <time>2022-02-23T10:35:03Z</time>
      </trkpt>
      <trkpt lat="47.71723" lon="3.67072">
        <ele>224.6</ele>
        <time>2022-02-23T10:35:05Z</time>
      </trkpt>
      <trkpt lat="47.71723" lon="3.67072">
        <ele>224.6</ele>
        <time>2022-02-23T10:35:06Z</time>
      </trkpt>
      <trkpt lat="47.71724" lon="3.67071">
        <ele>224.5</ele>
        <time>2022-02-23T10:35:07Z</time>
      </trkpt>
      <trkpt lat="47.71724" lon="3.6707">
        <ele>224.5</ele>
        <time>2022-02-23T10:35:08Z</time>
      </trkpt>
      <trkpt lat="47.71724" lon="3.67069">
        <ele>224.5</ele>
        <time>2022-02-23T10:35:09Z</time>
      </trkpt>
      <trkpt lat="47.71723" lon="3.67067">
        <ele>224.4</ele>
        <time>2022-02-23T10:35:10Z</time>
      </trkpt>
      <trkpt lat="47.71722" lon="3.67067">
        <ele>224.3</ele>
        <time>2022-02-23T10:35:11Z</time>
      </trkpt>
      <trkpt lat="47.71718" lon="3.67065">
        <ele>224.1</ele>
        <time>2022-02-23T10:35:13Z</time>
      </trkpt>
      <trkpt lat="47.71716" lon="3.67065">
        <ele>224</ele>
        <time>2022-02-23T10:35:14Z</time>
      </trkpt>
      <trkpt lat="47.71715" lon="3.67065">
        <ele>224</ele>
        <time>2022-02-23T10:35:15Z</time>
      </trkpt>
      <trkpt lat="47.71715" lon="3.67065">
        <ele>224</ele>
        <time>2022-02-23T10:35:16Z</time>
      </trkpt>
      <trkpt lat="47.71715" lon="3.67064">
        <ele>223.9</ele>
        <time>2022-02-23T10:35:17Z</time>
      </trkpt>
      <trkpt lat="47.71715" lon="3.67063">
        <ele>223.9</ele>
        <time>2022-02-23T10:35:19Z</time>
      </trkpt>
      <trkpt lat="47.71715" lon="3.67063">
        <ele>223.9</ele>
        <time>2022-02-23T10:35:21Z</time>
      </trkpt>
      <trkpt lat="47.71715" lon="3.67063">
        <ele>223.9</ele>
        <time>2022-02-23T10:35:22Z</time>
      </trkpt>
      <trkpt lat="47.71714" lon="3.67063">
        <ele>223.8</ele>
        <time>2022-02-23T10:35:23Z</time>
      </trkpt>
      <trkpt lat="47.71714" lon="3.67063">
        <ele>223.8</ele>
        <time>2022-02-23T10:35:25Z</time>
      </trkpt>
      <trkpt lat="47.71714" lon="3.67063">
        <ele>223.8</ele>
        <time>2022-02-23T10:35:26Z</time>
      </trkpt>
      <trkpt lat="47.71714" lon="3.67063">
        <ele>223.8</ele>
        <time>2022-02-23T10:35:27Z</time>
      </trkpt>
      <trkpt lat="47.71714" lon="3.67063">
        <ele>223.8</ele>
        <time>2022-02-23T10:35:28Z</time>
      </trkpt>
      <trkpt lat="47.71713" lon="3.67063">
        <ele>223.8</ele>
        <time>2022-02-23T10:35:29Z</time>
      </trkpt>
      <trkpt lat="47.71713" lon="3.67063">
        <ele>223.8</ele>
        <time>2022-02-23T10:35:30Z</time>
      </trkpt>
      <trkpt lat="47.71713" lon="3.67062">
        <ele>223.8</ele>
        <time>2022-02-23T10:35:31Z</time>
      </trkpt>
      <trkpt lat="47.71714" lon="3.67062">
        <ele>223.8</ele>
        <time>2022-02-23T10:35:33Z</time>
      </trkpt>
      <trkpt lat="47.71714" lon="3.67062">
        <ele>223.8</ele>
        <time>2022-02-23T10:35:34Z</time>
      </trkpt>
      <trkpt lat="47.71714" lon="3.67062">
        <ele>223.7</ele>
        <time>2022-02-23T10:35:35Z</time>
      </trkpt>
      <trkpt lat="47.71714" lon="3.67062">
        <ele>223.7</ele>
        <time>2022-02-23T10:35:36Z</time>
      </trkpt>
      <trkpt lat="47.71714" lon="3.67062">
        <ele>223.7</ele>
        <time>2022-02-23T10:35:37Z</time>
      </trkpt>
      <trkpt lat="47.71714" lon="3.67062">
        <ele>223.7</ele>
        <time>2022-02-23T10:35:38Z</time>
      </trkpt>
      <trkpt lat="47.71714" lon="3.67062">
        <ele>223.7</ele>
        <time>2022-02-23T10:35:39Z</time>
      </trkpt>
      <trkpt lat="47.71714" lon="3.67062">
        <ele>223.7</ele>
        <time>2022-02-23T10:35:40Z</time>
      </trkpt>
      <trkpt lat="47.71714" lon="3.67062">
        <ele>223.7</ele>
        <time>2022-02-23T10:35:42Z</time>
      </trkpt>
      <trkpt lat="47.71714" lon="3.67061">
        <ele>223.7</ele>
        <time>2022-02-23T10:35:43Z</time>
      </trkpt>
      <trkpt lat="47.71714" lon="3.67061">
        <ele>223.6</ele>
        <time>2022-02-23T10:35:45Z</time>
      </trkpt>
      <trkpt lat="47.71714" lon="3.6706">
        <ele>223.6</ele>
        <time>2022-02-23T10:35:46Z</time>
      </trkpt>
      <trkpt lat="47.71714" lon="3.6706">
        <ele>223.6</ele>
        <time>2022-02-23T10:35:47Z</time>
      </trkpt>
      <trkpt lat="47.71714" lon="3.67059">
        <ele>223.6</ele>
        <time>2022-02-23T10:35:48Z</time>
      </trkpt>
      <trkpt lat="47.71714" lon="3.67059">
        <ele>223.5</ele>
        <time>2022-02-23T10:35:50Z</time>
      </trkpt>
      <trkpt lat="47.71713" lon="3.67059">
        <ele>223.5</ele>
        <time>2022-02-23T10:35:51Z</time>
      </trkpt>
      <trkpt lat="47.71713" lon="3.67059">
        <ele>223.5</ele>
        <time>2022-02-23T10:35:52Z</time>
      </trkpt>
      <trkpt lat="47.71713" lon="3.67059">
        <ele>223.5</ele>
        <time>2022-02-23T10:35:53Z</time>
      </trkpt>
      <trkpt lat="47.71713" lon="3.67059">
        <ele>223.5</ele>
        <time>2022-02-23T10:35:54Z</time>
      </trkpt>
      <trkpt lat="47.71712" lon="3.67058">
        <ele>223.4</ele>
        <time>2022-02-23T10:35:57Z</time>
      </trkpt>
      <trkpt lat="47.71711" lon="3.67058">
        <ele>223.4</ele>
        <time>2022-02-23T10:35:58Z</time>
      </trkpt>
      <trkpt lat="47.71711" lon="3.67057">
        <ele>223.4</ele>
        <time>2022-02-23T10:35:59Z</time>
      </trkpt>
      <trkpt lat="47.7171" lon="3.67057">
        <ele>223.3</ele>
        <time>2022-02-23T10:36:00Z</time>
      </trkpt>
      <trkpt lat="47.7171" lon="3.67057">
        <ele>223.3</ele>
        <time>2022-02-23T10:36:01Z</time>
      </trkpt>
      <trkpt lat="47.7171" lon="3.67057">
        <ele>223.3</ele>
        <time>2022-02-23T10:36:02Z</time>
      </trkpt>
      <trkpt lat="47.7171" lon="3.67057">
        <ele>223.3</ele>
        <time>2022-02-23T10:36:03Z</time>
      </trkpt>
      <trkpt lat="47.7171" lon="3.67057">
        <ele>223.3</ele>
        <time>2022-02-23T10:36:04Z</time>
      </trkpt>
      <trkpt lat="47.7171" lon="3.67057">
        <ele>223.3</ele>
        <time>2022-02-23T10:36:05Z</time>
      </trkpt>
      <trkpt lat="47.71711" lon="3.67057">
        <ele>223.3</ele>
        <time>2022-02-23T10:36:06Z</time>
      </trkpt>
      <trkpt lat="47.71711" lon="3.67057">
        <ele>223.2</ele>
        <time>2022-02-23T10:36:07Z</time>
      </trkpt>
      <trkpt lat="47.71711" lon="3.67057">
        <ele>223.2</ele>
        <time>2022-02-23T10:36:08Z</time>
      </trkpt>
      <trkpt lat="47.71711" lon="3.67057">
        <ele>223.2</ele>
        <time>2022-02-23T10:36:09Z</time>
      </trkpt>
      <trkpt lat="47.71711" lon="3.67057">
        <ele>223.2</ele>
        <time>2022-02-23T10:36:10Z</time>
      </trkpt>
      <trkpt lat="47.71711" lon="3.67057">
        <ele>223.2</ele>
        <time>2022-02-23T10:36:11Z</time>
      </trkpt>
      <trkpt lat="47.71711" lon="3.67057">
        <ele>223.2</ele>
        <time>2022-02-23T10:36:12Z</time>
      </trkpt>
      <trkpt lat="47.71712" lon="3.67057">
        <ele>223.2</ele>
        <time>2022-02-23T10:36:13Z</time>
      </trkpt>
      <trkpt lat="47.71712" lon="3.67057">
        <ele>223.2</ele>
        <time>2022-02-23T10:36:14Z</time>
      </trkpt>
      <trkpt lat="47.71712" lon="3.67057">
        <ele>223.2</ele>
        <time>2022-02-23T10:36:15Z</time>
      </trkpt>
      <trkpt lat="47.71712" lon="3.67057">
        <ele>223.2</ele>
        <time>2022-02-23T10:36:16Z</time>
      </trkpt>
      <trkpt lat="47.71712" lon="3.67057">
        <ele>223.2</ele>
        <time>2022-02-23T10:36:17Z</time>
      </trkpt>
      <trkpt lat="47.71713" lon="3.67057">
        <ele>223.1</ele>
        <time>2022-02-23T10:36:19Z</time>
      </trkpt>
      <trkpt lat="47.71713" lon="3.67057">
        <ele>223.1</ele>
        <time>2022-02-23T10:36:20Z</time>
      </trkpt>
      <trkpt lat="47.71713" lon="3.67058">
        <ele>223.1</ele>
        <time>2022-02-23T10:36:21Z</time>
      </trkpt>
      <trkpt lat="47.71713" lon="3.67058">
        <ele>223.1</ele>
        <time>2022-02-23T10:36:22Z</time>
      </trkpt>
      <trkpt lat="47.71713" lon="3.67058">
        <ele>223.1</ele>
        <time>2022-02-23T10:36:23Z</time>
      </trkpt>
      <trkpt lat="47.71712" lon="3.67058">
        <ele>223.1</ele>
        <time>2022-02-23T10:36:24Z</time>
      </trkpt>
      <trkpt lat="47.71712" lon="3.67058">
        <ele>223.1</ele>
        <time>2022-02-23T10:36:25Z</time>
      </trkpt>
      <trkpt lat="47.71712" lon="3.67058">
        <ele>223.1</ele>
        <time>2022-02-23T10:36:26Z</time>
      </trkpt>
      <trkpt lat="47.71712" lon="3.67057">
        <ele>223</ele>
        <time>2022-02-23T10:36:28Z</time>
      </trkpt>
      <trkpt lat="47.71711" lon="3.67056">
        <ele>222.9</ele>
        <time>2022-02-23T10:36:29Z</time>
      </trkpt>
      <trkpt lat="47.7171" lon="3.67055">
        <ele>222.9</ele>
        <time>2022-02-23T10:36:30Z</time>
      </trkpt>
      <trkpt lat="47.71709" lon="3.67054">
        <ele>222.8</ele>
        <time>2022-02-23T10:36:31Z</time>
      </trkpt>
      <trkpt lat="47.71709" lon="3.67054">
        <ele>222.8</ele>
        <time>2022-02-23T10:36:32Z</time>
      </trkpt>
      <trkpt lat="47.71708" lon="3.67053">
        <ele>222.7</ele>
        <time>2022-02-23T10:36:33Z</time>
      </trkpt>
      <trkpt lat="47.71707" lon="3.67051">
        <ele>222.6</ele>
        <time>2022-02-23T10:36:34Z</time>
      </trkpt>
      <trkpt lat="47.71706" lon="3.67049">
        <ele>222.5</ele>
        <time>2022-02-23T10:36:36Z</time>
      </trkpt>
      <trkpt lat="47.71705" lon="3.67049">
        <ele>222.5</ele>
        <time>2022-02-23T10:36:37Z</time>
      </trkpt>
      <trkpt lat="47.71705" lon="3.67048">
        <ele>222.4</ele>
        <time>2022-02-23T10:36:38Z</time>
      </trkpt>
      <trkpt lat="47.71704" lon="3.67047">
        <ele>222.4</ele>
        <time>2022-02-23T10:36:40Z</time>
      </trkpt>
      <trkpt lat="47.71704" lon="3.67047">
        <ele>222.3</ele>
        <time>2022-02-23T10:36:41Z</time>
      </trkpt>
      <trkpt lat="47.71703" lon="3.67046">
        <ele>222.3</ele>
        <time>2022-02-23T10:36:42Z</time>
      </trkpt>
      <trkpt lat="47.71703" lon="3.67045">
        <ele>222.2</ele>
        <time>2022-02-23T10:36:43Z</time>
      </trkpt>
      <trkpt lat="47.71702" lon="3.67043">
        <ele>222.2</ele>
        <time>2022-02-23T10:36:45Z</time>
      </trkpt>
      <trkpt lat="47.71701" lon="3.67042">
        <ele>222.1</ele>
        <time>2022-02-23T10:36:46Z</time>
      </trkpt>
      <trkpt lat="47.717" lon="3.67041">
        <ele>222</ele>
        <time>2022-02-23T10:36:47Z</time>
      </trkpt>
      <trkpt lat="47.717" lon="3.67039">
        <ele>222</ele>
        <time>2022-02-23T10:36:48Z</time>
      </trkpt>
      <trkpt lat="47.71699" lon="3.67037">
        <ele>221.8</ele>
        <time>2022-02-23T10:36:49Z</time>
      </trkpt>
      <trkpt lat="47.71698" lon="3.67036">
        <ele>221.8</ele>
        <time>2022-02-23T10:36:51Z</time>
      </trkpt>
      <trkpt lat="47.71698" lon="3.67035">
        <ele>221.7</ele>
        <time>2022-02-23T10:36:52Z</time>
      </trkpt>
      <trkpt lat="47.71697" lon="3.67033">
        <ele>221.6</ele>
        <time>2022-02-23T10:36:53Z</time>
      </trkpt>
      <trkpt lat="47.71696" lon="3.67031">
        <ele>221.5</ele>
        <time>2022-02-23T10:36:54Z</time>
      </trkpt>
      <trkpt lat="47.71695" lon="3.6703">
        <ele>221.5</ele>
        <time>2022-02-23T10:36:55Z</time>
      </trkpt>
      <trkpt lat="47.71695" lon="3.67029">
        <ele>221.4</ele>
        <time>2022-02-23T10:36:56Z</time>
      </trkpt>
      <trkpt lat="47.71694" lon="3.67029">
        <ele>221.4</ele>
        <time>2022-02-23T10:36:57Z</time>
      </trkpt>
      <trkpt lat="47.71694" lon="3.67029">
        <ele>221.4</ele>
        <time>2022-02-23T10:36:58Z</time>
      </trkpt>
      <trkpt lat="47.71693" lon="3.67026">
        <ele>221.2</ele>
        <time>2022-02-23T10:37:00Z</time>
      </trkpt>
      <trkpt lat="47.71692" lon="3.67023">
        <ele>221.1</ele>
        <time>2022-02-23T10:37:01Z</time>
      </trkpt>
      <trkpt lat="47.71692" lon="3.67022">
        <ele>221.1</ele>
        <time>2022-02-23T10:37:02Z</time>
      </trkpt>
      <trkpt lat="47.71691" lon="3.67021">
        <ele>221</ele>
        <time>2022-02-23T10:37:03Z</time>
      </trkpt>
      <trkpt lat="47.7169" lon="3.67019">
        <ele>220.9</ele>
        <time>2022-02-23T10:37:05Z</time>
      </trkpt>
      <trkpt lat="47.7169" lon="3.67019">
        <ele>220.9</ele>
        <time>2022-02-23T10:37:06Z</time>
      </trkpt>
      <trkpt lat="47.71689" lon="3.67018">
        <ele>220.9</ele>
        <time>2022-02-23T10:37:07Z</time>
      </trkpt>
      <trkpt lat="47.71689" lon="3.67017">
        <ele>220.8</ele>
        <time>2022-02-23T10:37:08Z</time>
      </trkpt>
      <trkpt lat="47.71688" lon="3.67014">
        <ele>220.7</ele>
        <time>2022-02-23T10:37:09Z</time>
      </trkpt>
      <trkpt lat="47.71687" lon="3.67013">
        <ele>220.6</ele>
        <time>2022-02-23T10:37:10Z</time>
      </trkpt>
      <trkpt lat="47.71686" lon="3.67012">
        <ele>220.6</ele>
        <time>2022-02-23T10:37:11Z</time>
      </trkpt>
      <trkpt lat="47.71686" lon="3.67011">
        <ele>220.5</ele>
        <time>2022-02-23T10:37:12Z</time>
      </trkpt>
      <trkpt lat="47.71684" lon="3.67009">
        <ele>220.4</ele>
        <time>2022-02-23T10:37:13Z</time>
      </trkpt>
      <trkpt lat="47.71682" lon="3.67005">
        <ele>220.2</ele>
        <time>2022-02-23T10:37:15Z</time>
      </trkpt>
      <trkpt lat="47.71681" lon="3.67004">
        <ele>220.1</ele>
        <time>2022-02-23T10:37:16Z</time>
      </trkpt>
      <trkpt lat="47.7168" lon="3.67003">
        <ele>220.1</ele>
        <time>2022-02-23T10:37:17Z</time>
      </trkpt>
      <trkpt lat="47.7168" lon="3.67002">
        <ele>220</ele>
        <time>2022-02-23T10:37:18Z</time>
      </trkpt>
      <trkpt lat="47.71679" lon="3.67001">
        <ele>219.9</ele>
        <time>2022-02-23T10:37:19Z</time>
      </trkpt>
      <trkpt lat="47.71678" lon="3.66999">
        <ele>219.9</ele>
        <time>2022-02-23T10:37:20Z</time>
      </trkpt>
      <trkpt lat="47.71675" lon="3.66997">
        <ele>219.7</ele>
        <time>2022-02-23T10:37:21Z</time>
      </trkpt>
      <trkpt lat="47.71675" lon="3.66995">
        <ele>219.6</ele>
        <time>2022-02-23T10:37:22Z</time>
      </trkpt>
      <trkpt lat="47.71673" lon="3.66994">
        <ele>219.5</ele>
        <time>2022-02-23T10:37:24Z</time>
      </trkpt>
      <trkpt lat="47.71673" lon="3.66994">
        <ele>219.5</ele>
        <time>2022-02-23T10:37:26Z</time>
      </trkpt>
      <trkpt lat="47.71673" lon="3.66994">
        <ele>219.5</ele>
        <time>2022-02-23T10:37:27Z</time>
      </trkpt>
      <trkpt lat="47.71671" lon="3.66994">
        <ele>219.4</ele>
        <time>2022-02-23T10:37:28Z</time>
      </trkpt>
      <trkpt lat="47.71671" lon="3.66994">
        <ele>219.4</ele>
        <time>2022-02-23T10:37:29Z</time>
      </trkpt>
      <trkpt lat="47.71669" lon="3.66991">
        <ele>219.2</ele>
        <time>2022-02-23T10:37:31Z</time>
      </trkpt>
      <trkpt lat="47.71668" lon="3.66991">
        <ele>219.2</ele>
        <time>2022-02-23T10:37:32Z</time>
      </trkpt>
      <trkpt lat="47.71668" lon="3.6699">
        <ele>219.1</ele>
        <time>2022-02-23T10:37:33Z</time>
      </trkpt>
      <trkpt lat="47.71666" lon="3.66988">
        <ele>219</ele>
        <time>2022-02-23T10:37:35Z</time>
      </trkpt>
      <trkpt lat="47.71666" lon="3.66986">
        <ele>219</ele>
        <time>2022-02-23T10:37:36Z</time>
      </trkpt>
      <trkpt lat="47.71665" lon="3.66984">
        <ele>218.9</ele>
        <time>2022-02-23T10:37:37Z</time>
      </trkpt>
      <trkpt lat="47.71665" lon="3.66982">
        <ele>218.8</ele>
        <time>2022-02-23T10:37:38Z</time>
      </trkpt>
      <trkpt lat="47.71664" lon="3.66981">
        <ele>218.8</ele>
        <time>2022-02-23T10:37:39Z</time>
      </trkpt>
      <trkpt lat="47.71663" lon="3.66977">
        <ele>218.6</ele>
        <time>2022-02-23T10:37:40Z</time>
      </trkpt>
      <trkpt lat="47.71663" lon="3.66976">
        <ele>218.6</ele>
        <time>2022-02-23T10:37:41Z</time>
      </trkpt>
      <trkpt lat="47.71663" lon="3.66971">
        <ele>218.4</ele>
        <time>2022-02-23T10:37:43Z</time>
      </trkpt>
      <trkpt lat="47.71663" lon="3.66969">
        <ele>218.3</ele>
        <time>2022-02-23T10:37:44Z</time>
      </trkpt>
      <trkpt lat="47.71663" lon="3.66968">
        <ele>218.3</ele>
        <time>2022-02-23T10:37:45Z</time>
      </trkpt>
      <trkpt lat="47.71663" lon="3.66966">
        <ele>218.2</ele>
        <time>2022-02-23T10:37:46Z</time>
      </trkpt>
      <trkpt lat="47.71663" lon="3.66965">
        <ele>218.2</ele>
        <time>2022-02-23T10:37:48Z</time>
      </trkpt>
      <trkpt lat="47.71662" lon="3.66963">
        <ele>218.1</ele>
        <time>2022-02-23T10:37:49Z</time>
      </trkpt>
      <trkpt lat="47.71661" lon="3.6696">
        <ele>218</ele>
        <time>2022-02-23T10:37:50Z</time>
      </trkpt>
      <trkpt lat="47.71661" lon="3.66959">
        <ele>217.9</ele>
        <time>2022-02-23T10:37:51Z</time>
      </trkpt>
      <trkpt lat="47.7166" lon="3.66957">
        <ele>217.8</ele>
        <time>2022-02-23T10:37:52Z</time>
      </trkpt>
      <trkpt lat="47.71659" lon="3.66954">
        <ele>217.7</ele>
        <time>2022-02-23T10:37:53Z</time>
      </trkpt>
      <trkpt lat="47.71658" lon="3.66953">
        <ele>217.7</ele>
        <time>2022-02-23T10:37:55Z</time>
      </trkpt>
      <trkpt lat="47.71658" lon="3.66951">
        <ele>217.6</ele>
        <time>2022-02-23T10:37:56Z</time>
      </trkpt>
      <trkpt lat="47.71657" lon="3.6695">
        <ele>217.5</ele>
        <time>2022-02-23T10:37:57Z</time>
      </trkpt>
      <trkpt lat="47.71656" lon="3.66948">
        <ele>217.5</ele>
        <time>2022-02-23T10:37:58Z</time>
      </trkpt>
      <trkpt lat="47.71655" lon="3.66945">
        <ele>217.4</ele>
        <time>2022-02-23T10:38:00Z</time>
      </trkpt>
      <trkpt lat="47.71655" lon="3.66944">
        <ele>217.3</ele>
        <time>2022-02-23T10:38:01Z</time>
      </trkpt>
      <trkpt lat="47.71654" lon="3.66941">
        <ele>217.2</ele>
        <time>2022-02-23T10:38:02Z</time>
      </trkpt>
      <trkpt lat="47.71654" lon="3.6694">
        <ele>217.2</ele>
        <time>2022-02-23T10:38:03Z</time>
      </trkpt>
      <trkpt lat="47.71654" lon="3.66938">
        <ele>217.1</ele>
        <time>2022-02-23T10:38:04Z</time>
      </trkpt>
      <trkpt lat="47.71654" lon="3.66936">
        <ele>217.1</ele>
        <time>2022-02-23T10:38:05Z</time>
      </trkpt>
      <trkpt lat="47.71654" lon="3.66934">
        <ele>217</ele>
        <time>2022-02-23T10:38:06Z</time>
      </trkpt>
      <trkpt lat="47.71654" lon="3.66933">
        <ele>217</ele>
        <time>2022-02-23T10:38:07Z</time>
      </trkpt>
      <trkpt lat="47.71653" lon="3.6693">
        <ele>216.9</ele>
        <time>2022-02-23T10:38:09Z</time>
      </trkpt>
      <trkpt lat="47.71653" lon="3.66929">
        <ele>216.9</ele>
        <time>2022-02-23T10:38:10Z</time>
      </trkpt>
      <trkpt lat="47.71653" lon="3.66929">
        <ele>216.8</ele>
        <time>2022-02-23T10:38:11Z</time>
      </trkpt>
      <trkpt lat="47.71653" lon="3.66928">
        <ele>216.8</ele>
        <time>2022-02-23T10:38:12Z</time>
      </trkpt>
      <trkpt lat="47.71652" lon="3.66927">
        <ele>216.8</ele>
        <time>2022-02-23T10:38:13Z</time>
      </trkpt>
      <trkpt lat="47.71652" lon="3.66925">
        <ele>216.7</ele>
        <time>2022-02-23T10:38:14Z</time>
      </trkpt>
      <trkpt lat="47.71651" lon="3.66923">
        <ele>216.6</ele>
        <time>2022-02-23T10:38:15Z</time>
      </trkpt>
      <trkpt lat="47.71649" lon="3.66921">
        <ele>216.5</ele>
        <time>2022-02-23T10:38:16Z</time>
      </trkpt>
      <trkpt lat="47.71649" lon="3.6692">
        <ele>216.5</ele>
        <time>2022-02-23T10:38:17Z</time>
      </trkpt>
      <trkpt lat="47.71649" lon="3.66919">
        <ele>216.5</ele>
        <time>2022-02-23T10:38:18Z</time>
      </trkpt>
      <trkpt lat="47.71648" lon="3.66914">
        <ele>216.4</ele>
        <time>2022-02-23T10:38:20Z</time>
      </trkpt>
      <trkpt lat="47.71648" lon="3.66913">
        <ele>216.3</ele>
        <time>2022-02-23T10:38:21Z</time>
      </trkpt>
      <trkpt lat="47.71647" lon="3.66911">
        <ele>216.3</ele>
        <time>2022-02-23T10:38:22Z</time>
      </trkpt>
      <trkpt lat="47.71646" lon="3.66909">
        <ele>216.2</ele>
        <time>2022-02-23T10:38:23Z</time>
      </trkpt>
      <trkpt lat="47.71646" lon="3.66907">
        <ele>216.1</ele>
        <time>2022-02-23T10:38:24Z</time>
      </trkpt>
      <trkpt lat="47.71645" lon="3.66906">
        <ele>216.1</ele>
        <time>2022-02-23T10:38:25Z</time>
      </trkpt>
      <trkpt lat="47.71644" lon="3.66904">
        <ele>216</ele>
        <time>2022-02-23T10:38:26Z</time>
      </trkpt>
      <trkpt lat="47.71643" lon="3.66902">
        <ele>215.9</ele>
        <time>2022-02-23T10:38:27Z</time>
      </trkpt>
      <trkpt lat="47.71642" lon="3.669">
        <ele>215.9</ele>
        <time>2022-02-23T10:38:28Z</time>
      </trkpt>
      <trkpt lat="47.71641" lon="3.66898">
        <ele>215.8</ele>
        <time>2022-02-23T10:38:30Z</time>
      </trkpt>
      <trkpt lat="47.71641" lon="3.66897">
        <ele>215.8</ele>
        <time>2022-02-23T10:38:31Z</time>
      </trkpt>
      <trkpt lat="47.7164" lon="3.66895">
        <ele>215.7</ele>
        <time>2022-02-23T10:38:32Z</time>
      </trkpt>
      <trkpt lat="47.71639" lon="3.66894">
        <ele>215.7</ele>
        <time>2022-02-23T10:38:33Z</time>
      </trkpt>
      <trkpt lat="47.71638" lon="3.6689">
        <ele>215.6</ele>
        <time>2022-02-23T10:38:35Z</time>
      </trkpt>
      <trkpt lat="47.71637" lon="3.66889">
        <ele>215.6</ele>
        <time>2022-02-23T10:38:36Z</time>
      </trkpt>
      <trkpt lat="47.71637" lon="3.66888">
        <ele>215.5</ele>
        <time>2022-02-23T10:38:37Z</time>
      </trkpt>
      <trkpt lat="47.71637" lon="3.66886">
        <ele>215.5</ele>
        <time>2022-02-23T10:38:38Z</time>
      </trkpt>
      <trkpt lat="47.71636" lon="3.66883">
        <ele>215.4</ele>
        <time>2022-02-23T10:38:39Z</time>
      </trkpt>
      <trkpt lat="47.71636" lon="3.66882">
        <ele>215.4</ele>
        <time>2022-02-23T10:38:40Z</time>
      </trkpt>
      <trkpt lat="47.71636" lon="3.66881">
        <ele>215.4</ele>
        <time>2022-02-23T10:38:41Z</time>
      </trkpt>
      <trkpt lat="47.71636" lon="3.66879">
        <ele>215.3</ele>
        <time>2022-02-23T10:38:42Z</time>
      </trkpt>
      <trkpt lat="47.71636" lon="3.66877">
        <ele>215.3</ele>
        <time>2022-02-23T10:38:43Z</time>
      </trkpt>
      <trkpt lat="47.71635" lon="3.66874">
        <ele>215.2</ele>
        <time>2022-02-23T10:38:44Z</time>
      </trkpt>
      <trkpt lat="47.71636" lon="3.66872">
        <ele>215.2</ele>
        <time>2022-02-23T10:38:45Z</time>
      </trkpt>
      <trkpt lat="47.71636" lon="3.6687">
        <ele>215.1</ele>
        <time>2022-02-23T10:38:47Z</time>
      </trkpt>
      <trkpt lat="47.71635" lon="3.66868">
        <ele>215.1</ele>
        <time>2022-02-23T10:38:48Z</time>
      </trkpt>
      <trkpt lat="47.71635" lon="3.66866">
        <ele>215.1</ele>
        <time>2022-02-23T10:38:49Z</time>
      </trkpt>
      <trkpt lat="47.71635" lon="3.66864">
        <ele>215</ele>
        <time>2022-02-23T10:38:51Z</time>
      </trkpt>
      <trkpt lat="47.71635" lon="3.66861">
        <ele>215</ele>
        <time>2022-02-23T10:38:52Z</time>
      </trkpt>
      <trkpt lat="47.71635" lon="3.66859">
        <ele>214.9</ele>
        <time>2022-02-23T10:38:53Z</time>
      </trkpt>
      <trkpt lat="47.71636" lon="3.66857">
        <ele>214.9</ele>
        <time>2022-02-23T10:38:55Z</time>
      </trkpt>
      <trkpt lat="47.71636" lon="3.66855">
        <ele>214.9</ele>
        <time>2022-02-23T10:38:56Z</time>
      </trkpt>
      <trkpt lat="47.71635" lon="3.66852">
        <ele>214.8</ele>
        <time>2022-02-23T10:38:57Z</time>
      </trkpt>
      <trkpt lat="47.71635" lon="3.66851">
        <ele>214.8</ele>
        <time>2022-02-23T10:38:58Z</time>
      </trkpt>
      <trkpt lat="47.71635" lon="3.66848">
        <ele>214.8</ele>
        <time>2022-02-23T10:38:59Z</time>
      </trkpt>
      <trkpt lat="47.71635" lon="3.66846">
        <ele>214.7</ele>
        <time>2022-02-23T10:39:00Z</time>
      </trkpt>
      <trkpt lat="47.71635" lon="3.66844">
        <ele>214.7</ele>
        <time>2022-02-23T10:39:01Z</time>
      </trkpt>
      <trkpt lat="47.71635" lon="3.66842">
        <ele>214.7</ele>
        <time>2022-02-23T10:39:02Z</time>
      </trkpt>
      <trkpt lat="47.71635" lon="3.66839">
        <ele>214.6</ele>
        <time>2022-02-23T10:39:03Z</time>
      </trkpt>
      <trkpt lat="47.71635" lon="3.66838">
        <ele>214.6</ele>
        <time>2022-02-23T10:39:04Z</time>
      </trkpt>
      <trkpt lat="47.71635" lon="3.66836">
        <ele>214.6</ele>
        <time>2022-02-23T10:39:05Z</time>
      </trkpt>
      <trkpt lat="47.71635" lon="3.66834">
        <ele>214.6</ele>
        <time>2022-02-23T10:39:06Z</time>
      </trkpt>
      <trkpt lat="47.71635" lon="3.66833">
        <ele>214.6</ele>
        <time>2022-02-23T10:39:07Z</time>
      </trkpt>
      <trkpt lat="47.71636" lon="3.66832">
        <ele>214.6</ele>
        <time>2022-02-23T10:39:09Z</time>
      </trkpt>
      <trkpt lat="47.71636" lon="3.6683">
        <ele>214.5</ele>
        <time>2022-02-23T10:39:10Z</time>
      </trkpt>
      <trkpt lat="47.71637" lon="3.66827">
        <ele>214.5</ele>
        <time>2022-02-23T10:39:12Z</time>
      </trkpt>
      <trkpt lat="47.71638" lon="3.66825">
        <ele>214.5</ele>
        <time>2022-02-23T10:39:13Z</time>
      </trkpt>
      <trkpt lat="47.71638" lon="3.66822">
        <ele>214.5</ele>
        <time>2022-02-23T10:39:14Z</time>
      </trkpt>
      <trkpt lat="47.71638" lon="3.66818">
        <ele>214.4</ele>
        <time>2022-02-23T10:39:16Z</time>
      </trkpt>
      <trkpt lat="47.71638" lon="3.66817">
        <ele>214.4</ele>
        <time>2022-02-23T10:39:17Z</time>
      </trkpt>
      <trkpt lat="47.71638" lon="3.66815">
        <ele>214.4</ele>
        <time>2022-02-23T10:39:18Z</time>
      </trkpt>
      <trkpt lat="47.71639" lon="3.66812">
        <ele>214.4</ele>
        <time>2022-02-23T10:39:20Z</time>
      </trkpt>
      <trkpt lat="47.71639" lon="3.6681">
        <ele>214.4</ele>
        <time>2022-02-23T10:39:21Z</time>
      </trkpt>
      <trkpt lat="47.7164" lon="3.66808">
        <ele>214.4</ele>
        <time>2022-02-23T10:39:22Z</time>
      </trkpt>
      <trkpt lat="47.71639" lon="3.66808">
        <ele>214.3</ele>
        <time>2022-02-23T10:39:23Z</time>
      </trkpt>
      <trkpt lat="47.71638" lon="3.66807">
        <ele>214.3</ele>
        <time>2022-02-23T10:39:24Z</time>
      </trkpt>
      <trkpt lat="47.71638" lon="3.66806">
        <ele>214.3</ele>
        <time>2022-02-23T10:39:25Z</time>
      </trkpt>
      <trkpt lat="47.71638" lon="3.66804">
        <ele>214.3</ele>
        <time>2022-02-23T10:39:26Z</time>
      </trkpt>
      <trkpt lat="47.71639" lon="3.66802">
        <ele>214.3</ele>
        <time>2022-02-23T10:39:27Z</time>
      </trkpt>
      <trkpt lat="47.71639" lon="3.668">
        <ele>214.3</ele>
        <time>2022-02-23T10:39:28Z</time>
      </trkpt>
      <trkpt lat="47.71639" lon="3.66799">
        <ele>214.3</ele>
        <time>2022-02-23T10:39:29Z</time>
      </trkpt>
      <trkpt lat="47.71639" lon="3.66797">
        <ele>214.3</ele>
        <time>2022-02-23T10:39:30Z</time>
      </trkpt>
      <trkpt lat="47.71639" lon="3.66795">
        <ele>214.3</ele>
        <time>2022-02-23T10:39:31Z</time>
      </trkpt>
      <trkpt lat="47.71639" lon="3.66793">
        <ele>214.3</ele>
        <time>2022-02-23T10:39:33Z</time>
      </trkpt>
      <trkpt lat="47.71639" lon="3.66791">
        <ele>214.3</ele>
        <time>2022-02-23T10:39:34Z</time>
      </trkpt>
      <trkpt lat="47.71639" lon="3.6679">
        <ele>214.3</ele>
        <time>2022-02-23T10:39:35Z</time>
      </trkpt>
      <trkpt lat="47.71639" lon="3.66788">
        <ele>214.2</ele>
        <time>2022-02-23T10:39:36Z</time>
      </trkpt>
      <trkpt lat="47.71639" lon="3.66786">
        <ele>214.2</ele>
        <time>2022-02-23T10:39:37Z</time>
      </trkpt>
      <trkpt lat="47.71638" lon="3.66785">
        <ele>214.2</ele>
        <time>2022-02-23T10:39:38Z</time>
      </trkpt>
      <trkpt lat="47.71638" lon="3.66784">
        <ele>214.2</ele>
        <time>2022-02-23T10:39:39Z</time>
      </trkpt>
      <trkpt lat="47.71639" lon="3.66781">
        <ele>214.2</ele>
        <time>2022-02-23T10:39:41Z</time>
      </trkpt>
      <trkpt lat="47.71639" lon="3.66779">
        <ele>214.2</ele>
        <time>2022-02-23T10:39:42Z</time>
      </trkpt>
      <trkpt lat="47.71639" lon="3.66778">
        <ele>214.2</ele>
        <time>2022-02-23T10:39:43Z</time>
      </trkpt>
      <trkpt lat="47.71639" lon="3.66776">
        <ele>214.2</ele>
        <time>2022-02-23T10:39:44Z</time>
      </trkpt>
      <trkpt lat="47.7164" lon="3.66773">
        <ele>214.3</ele>
        <time>2022-02-23T10:39:46Z</time>
      </trkpt>
      <trkpt lat="47.71641" lon="3.66772">
        <ele>214.3</ele>
        <time>2022-02-23T10:39:47Z</time>
      </trkpt>
      <trkpt lat="47.71641" lon="3.66771">
        <ele>214.3</ele>
        <time>2022-02-23T10:39:48Z</time>
      </trkpt>
      <trkpt lat="47.71641" lon="3.66769">
        <ele>214.3</ele>
        <time>2022-02-23T10:39:49Z</time>
      </trkpt>
      <trkpt lat="47.71642" lon="3.66766">
        <ele>214.3</ele>
        <time>2022-02-23T10:39:50Z</time>
      </trkpt>
      <trkpt lat="47.71643" lon="3.66765">
        <ele>214.3</ele>
        <time>2022-02-23T10:39:52Z</time>
      </trkpt>
      <trkpt lat="47.71644" lon="3.66763">
        <ele>214.3</ele>
        <time>2022-02-23T10:39:53Z</time>
      </trkpt>
      <trkpt lat="47.71644" lon="3.66762">
        <ele>214.3</ele>
        <time>2022-02-23T10:39:54Z</time>
      </trkpt>
      <trkpt lat="47.71645" lon="3.66761">
        <ele>214.3</ele>
        <time>2022-02-23T10:39:55Z</time>
      </trkpt>
      <trkpt lat="47.71646" lon="3.66758">
        <ele>214.3</ele>
        <time>2022-02-23T10:39:57Z</time>
      </trkpt>
      <trkpt lat="47.71646" lon="3.66756">
        <ele>214.4</ele>
        <time>2022-02-23T10:39:58Z</time>
      </trkpt>
      <trkpt lat="47.71646" lon="3.66754">
        <ele>214.4</ele>
        <time>2022-02-23T10:39:59Z</time>
      </trkpt>
      <trkpt lat="47.71645" lon="3.66752">
        <ele>214.4</ele>
        <time>2022-02-23T10:40:00Z</time>
      </trkpt>
      <trkpt lat="47.71646" lon="3.66749">
        <ele>214.4</ele>
        <time>2022-02-23T10:40:02Z</time>
      </trkpt>
      <trkpt lat="47.71646" lon="3.66748">
        <ele>214.4</ele>
        <time>2022-02-23T10:40:03Z</time>
      </trkpt>
      <trkpt lat="47.71647" lon="3.66747">
        <ele>214.4</ele>
        <time>2022-02-23T10:40:04Z</time>
      </trkpt>
      <trkpt lat="47.71647" lon="3.66745">
        <ele>214.5</ele>
        <time>2022-02-23T10:40:05Z</time>
      </trkpt>
      <trkpt lat="47.71647" lon="3.66744">
        <ele>214.5</ele>
        <time>2022-02-23T10:40:06Z</time>
      </trkpt>
      <trkpt lat="47.71648" lon="3.66742">
        <ele>214.5</ele>
        <time>2022-02-23T10:40:07Z</time>
      </trkpt>
      <trkpt lat="47.71648" lon="3.6674">
        <ele>214.5</ele>
        <time>2022-02-23T10:40:09Z</time>
      </trkpt>
      <trkpt lat="47.71648" lon="3.66739">
        <ele>214.5</ele>
        <time>2022-02-23T10:40:10Z</time>
      </trkpt>
      <trkpt lat="47.71649" lon="3.66738">
        <ele>214.5</ele>
        <time>2022-02-23T10:40:11Z</time>
      </trkpt>
      <trkpt lat="47.71649" lon="3.66736">
        <ele>214.6</ele>
        <time>2022-02-23T10:40:12Z</time>
      </trkpt>
      <trkpt lat="47.7165" lon="3.66735">
        <ele>214.6</ele>
        <time>2022-02-23T10:40:13Z</time>
      </trkpt>
      <trkpt lat="47.7165" lon="3.66733">
        <ele>214.6</ele>
        <time>2022-02-23T10:40:14Z</time>
      </trkpt>
      <trkpt lat="47.71651" lon="3.66732">
        <ele>214.6</ele>
        <time>2022-02-23T10:40:15Z</time>
      </trkpt>
      <trkpt lat="47.71651" lon="3.66731">
        <ele>214.6</ele>
        <time>2022-02-23T10:40:16Z</time>
      </trkpt>
      <trkpt lat="47.71652" lon="3.66729">
        <ele>214.6</ele>
        <time>2022-02-23T10:40:17Z</time>
      </trkpt>
      <trkpt lat="47.71653" lon="3.66728">
        <ele>214.7</ele>
        <time>2022-02-23T10:40:18Z</time>
      </trkpt>
      <trkpt lat="47.71654" lon="3.66726">
        <ele>214.7</ele>
        <time>2022-02-23T10:40:19Z</time>
      </trkpt>
      <trkpt lat="47.71655" lon="3.66724">
        <ele>214.7</ele>
        <time>2022-02-23T10:40:21Z</time>
      </trkpt>
      <trkpt lat="47.71655" lon="3.66723">
        <ele>214.7</ele>
        <time>2022-02-23T10:40:22Z</time>
      </trkpt>
      <trkpt lat="47.71656" lon="3.66721">
        <ele>214.8</ele>
        <time>2022-02-23T10:40:23Z</time>
      </trkpt>
      <trkpt lat="47.71657" lon="3.6672">
        <ele>214.8</ele>
        <time>2022-02-23T10:40:24Z</time>
      </trkpt>
      <trkpt lat="47.71658" lon="3.66719">
        <ele>214.8</ele>
        <time>2022-02-23T10:40:25Z</time>
      </trkpt>
      <trkpt lat="47.71658" lon="3.66717">
        <ele>214.8</ele>
        <time>2022-02-23T10:40:26Z</time>
      </trkpt>
      <trkpt lat="47.71658" lon="3.66714">
        <ele>214.8</ele>
        <time>2022-02-23T10:40:28Z</time>
      </trkpt>
      <trkpt lat="47.71659" lon="3.66713">
        <ele>214.9</ele>
        <time>2022-02-23T10:40:29Z</time>
      </trkpt>
      <trkpt lat="47.71659" lon="3.66711">
        <ele>214.9</ele>
        <time>2022-02-23T10:40:30Z</time>
      </trkpt>
      <trkpt lat="47.7166" lon="3.6671">
        <ele>214.9</ele>
        <time>2022-02-23T10:40:31Z</time>
      </trkpt>
      <trkpt lat="47.7166" lon="3.66708">
        <ele>214.9</ele>
        <time>2022-02-23T10:40:32Z</time>
      </trkpt>
      <trkpt lat="47.71661" lon="3.66707">
        <ele>214.9</ele>
        <time>2022-02-23T10:40:33Z</time>
      </trkpt>
      <trkpt lat="47.71661" lon="3.66705">
        <ele>215</ele>
        <time>2022-02-23T10:40:34Z</time>
      </trkpt>
      <trkpt lat="47.71662" lon="3.66702">
        <ele>215</ele>
        <time>2022-02-23T10:40:35Z</time>
      </trkpt>
      <trkpt lat="47.71662" lon="3.667">
        <ele>215</ele>
        <time>2022-02-23T10:40:37Z</time>
      </trkpt>
      <trkpt lat="47.71663" lon="3.66699">
        <ele>215</ele>
        <time>2022-02-23T10:40:38Z</time>
      </trkpt>
      <trkpt lat="47.71663" lon="3.66697">
        <ele>215.1</ele>
        <time>2022-02-23T10:40:39Z</time>
      </trkpt>
      <trkpt lat="47.71664" lon="3.66695">
        <ele>215.1</ele>
        <time>2022-02-23T10:40:40Z</time>
      </trkpt>
      <trkpt lat="47.71664" lon="3.66694">
        <ele>215.1</ele>
        <time>2022-02-23T10:40:41Z</time>
      </trkpt>
      <trkpt lat="47.71664" lon="3.66692">
        <ele>215.1</ele>
        <time>2022-02-23T10:40:42Z</time>
      </trkpt>
      <trkpt lat="47.71664" lon="3.66691">
        <ele>215.1</ele>
        <time>2022-02-23T10:40:43Z</time>
      </trkpt>
      <trkpt lat="47.71665" lon="3.66688">
        <ele>215.2</ele>
        <time>2022-02-23T10:40:45Z</time>
      </trkpt>
      <trkpt lat="47.71665" lon="3.66687">
        <ele>215.2</ele>
        <time>2022-02-23T10:40:46Z</time>
      </trkpt>
      <trkpt lat="47.71666" lon="3.66685">
        <ele>215.2</ele>
        <time>2022-02-23T10:40:47Z</time>
      </trkpt>
      <trkpt lat="47.71666" lon="3.66683">
        <ele>215.2</ele>
        <time>2022-02-23T10:40:48Z</time>
      </trkpt>
      <trkpt lat="47.71667" lon="3.66682">
        <ele>215.2</ele>
        <time>2022-02-23T10:40:50Z</time>
      </trkpt>
      <trkpt lat="47.71667" lon="3.66681">
        <ele>215.2</ele>
        <time>2022-02-23T10:40:51Z</time>
      </trkpt>
      <trkpt lat="47.71668" lon="3.66679">
        <ele>215.3</ele>
        <time>2022-02-23T10:40:52Z</time>
      </trkpt>
      <trkpt lat="47.71669" lon="3.66678">
        <ele>215.3</ele>
        <time>2022-02-23T10:40:53Z</time>
      </trkpt>
      <trkpt lat="47.7167" lon="3.66677">
        <ele>215.3</ele>
        <time>2022-02-23T10:40:54Z</time>
      </trkpt>
      <trkpt lat="47.7167" lon="3.66675">
        <ele>215.3</ele>
        <time>2022-02-23T10:40:55Z</time>
      </trkpt>
      <trkpt lat="47.71671" lon="3.66673">
        <ele>215.4</ele>
        <time>2022-02-23T10:40:56Z</time>
      </trkpt>
      <trkpt lat="47.71671" lon="3.66672">
        <ele>215.4</ele>
        <time>2022-02-23T10:40:57Z</time>
      </trkpt>
      <trkpt lat="47.71672" lon="3.66669">
        <ele>215.4</ele>
        <time>2022-02-23T10:40:58Z</time>
      </trkpt>
      <trkpt lat="47.71673" lon="3.66668">
        <ele>215.4</ele>
        <time>2022-02-23T10:41:00Z</time>
      </trkpt>
      <trkpt lat="47.71674" lon="3.66667">
        <ele>215.4</ele>
        <time>2022-02-23T10:41:01Z</time>
      </trkpt>
      <trkpt lat="47.71675" lon="3.66666">
        <ele>215.5</ele>
        <time>2022-02-23T10:41:02Z</time>
      </trkpt>
      <trkpt lat="47.71675" lon="3.66665">
        <ele>215.5</ele>
        <time>2022-02-23T10:41:03Z</time>
      </trkpt>
      <trkpt lat="47.71677" lon="3.66664">
        <ele>215.5</ele>
        <time>2022-02-23T10:41:04Z</time>
      </trkpt>
      <trkpt lat="47.71678" lon="3.66662">
        <ele>215.5</ele>
        <time>2022-02-23T10:41:05Z</time>
      </trkpt>
      <trkpt lat="47.71679" lon="3.66661">
        <ele>215.6</ele>
        <time>2022-02-23T10:41:06Z</time>
      </trkpt>
      <trkpt lat="47.7168" lon="3.66659">
        <ele>215.6</ele>
        <time>2022-02-23T10:41:07Z</time>
      </trkpt>
      <trkpt lat="47.7168" lon="3.66658">
        <ele>215.6</ele>
        <time>2022-02-23T10:41:09Z</time>
      </trkpt>
      <trkpt lat="47.71681" lon="3.66657">
        <ele>215.6</ele>
        <time>2022-02-23T10:41:10Z</time>
      </trkpt>
      <trkpt lat="47.71681" lon="3.66655">
        <ele>215.6</ele>
        <time>2022-02-23T10:41:11Z</time>
      </trkpt>
      <trkpt lat="47.71682" lon="3.66653">
        <ele>215.6</ele>
        <time>2022-02-23T10:41:12Z</time>
      </trkpt>
      <trkpt lat="47.71683" lon="3.66651">
        <ele>215.7</ele>
        <time>2022-02-23T10:41:13Z</time>
      </trkpt>
      <trkpt lat="47.71683" lon="3.6665">
        <ele>215.7</ele>
        <time>2022-02-23T10:41:14Z</time>
      </trkpt>
      <trkpt lat="47.71684" lon="3.66649">
        <ele>215.7</ele>
        <time>2022-02-23T10:41:15Z</time>
      </trkpt>
      <trkpt lat="47.71685" lon="3.66646">
        <ele>215.7</ele>
        <time>2022-02-23T10:41:16Z</time>
      </trkpt>
      <trkpt lat="47.71686" lon="3.66645">
        <ele>215.7</ele>
        <time>2022-02-23T10:41:18Z</time>
      </trkpt>
      <trkpt lat="47.71686" lon="3.66644">
        <ele>215.7</ele>
        <time>2022-02-23T10:41:19Z</time>
      </trkpt>
      <trkpt lat="47.71686" lon="3.66643">
        <ele>215.8</ele>
        <time>2022-02-23T10:41:20Z</time>
      </trkpt>
      <trkpt lat="47.71687" lon="3.6664">
        <ele>215.8</ele>
        <time>2022-02-23T10:41:21Z</time>
      </trkpt>
      <trkpt lat="47.71688" lon="3.66639">
        <ele>215.8</ele>
        <time>2022-02-23T10:41:22Z</time>
      </trkpt>
      <trkpt lat="47.71689" lon="3.66636">
        <ele>215.8</ele>
        <time>2022-02-23T10:41:23Z</time>
      </trkpt>
      <trkpt lat="47.71689" lon="3.66635">
        <ele>215.8</ele>
        <time>2022-02-23T10:41:24Z</time>
      </trkpt>
      <trkpt lat="47.7169" lon="3.66634">
        <ele>215.8</ele>
        <time>2022-02-23T10:41:25Z</time>
      </trkpt>
      <trkpt lat="47.71692" lon="3.66631">
        <ele>215.9</ele>
        <time>2022-02-23T10:41:26Z</time>
      </trkpt>
      <trkpt lat="47.71693" lon="3.6663">
        <ele>215.9</ele>
        <time>2022-02-23T10:41:28Z</time>
      </trkpt>
      <trkpt lat="47.71694" lon="3.66629">
        <ele>215.9</ele>
        <time>2022-02-23T10:41:29Z</time>
      </trkpt>
      <trkpt lat="47.71694" lon="3.66628">
        <ele>215.9</ele>
        <time>2022-02-23T10:41:30Z</time>
      </trkpt>
      <trkpt lat="47.71695" lon="3.66627">
        <ele>215.9</ele>
        <time>2022-02-23T10:41:31Z</time>
      </trkpt>
      <trkpt lat="47.71696" lon="3.66624">
        <ele>215.9</ele>
        <time>2022-02-23T10:41:32Z</time>
      </trkpt>
      <trkpt lat="47.71697" lon="3.66623">
        <ele>215.9</ele>
        <time>2022-02-23T10:41:33Z</time>
      </trkpt>
      <trkpt lat="47.71698" lon="3.66622">
        <ele>215.9</ele>
        <time>2022-02-23T10:41:34Z</time>
      </trkpt>
      <trkpt lat="47.71698" lon="3.66621">
        <ele>215.9</ele>
        <time>2022-02-23T10:41:36Z</time>
      </trkpt>
      <trkpt lat="47.71699" lon="3.66619">
        <ele>215.9</ele>
        <time>2022-02-23T10:41:37Z</time>
      </trkpt>
      <trkpt lat="47.717" lon="3.66618">
        <ele>215.9</ele>
        <time>2022-02-23T10:41:38Z</time>
      </trkpt>
      <trkpt lat="47.71701" lon="3.66616">
        <ele>215.9</ele>
        <time>2022-02-23T10:41:39Z</time>
      </trkpt>
      <trkpt lat="47.71702" lon="3.66615">
        <ele>215.9</ele>
        <time>2022-02-23T10:41:40Z</time>
      </trkpt>
      <trkpt lat="47.71702" lon="3.66614">
        <ele>215.9</ele>
        <time>2022-02-23T10:41:41Z</time>
      </trkpt>
      <trkpt lat="47.71704" lon="3.66611">
        <ele>215.9</ele>
        <time>2022-02-23T10:41:42Z</time>
      </trkpt>
      <trkpt lat="47.71705" lon="3.6661">
        <ele>215.9</ele>
        <time>2022-02-23T10:41:44Z</time>
      </trkpt>
      <trkpt lat="47.71705" lon="3.66609">
        <ele>215.9</ele>
        <time>2022-02-23T10:41:45Z</time>
      </trkpt>
      <trkpt lat="47.71706" lon="3.66607">
        <ele>215.9</ele>
        <time>2022-02-23T10:41:46Z</time>
      </trkpt>
      <trkpt lat="47.71706" lon="3.66606">
        <ele>215.9</ele>
        <time>2022-02-23T10:41:47Z</time>
      </trkpt>
      <trkpt lat="47.71707" lon="3.66605">
        <ele>215.9</ele>
        <time>2022-02-23T10:41:48Z</time>
      </trkpt>
      <trkpt lat="47.71708" lon="3.66602">
        <ele>215.9</ele>
        <time>2022-02-23T10:41:49Z</time>
      </trkpt>
      <trkpt lat="47.71708" lon="3.66602">
        <ele>215.9</ele>
        <time>2022-02-23T10:41:50Z</time>
      </trkpt>
      <trkpt lat="47.71709" lon="3.66601">
        <ele>215.9</ele>
        <time>2022-02-23T10:41:51Z</time>
      </trkpt>
      <trkpt lat="47.7171" lon="3.666">
        <ele>215.9</ele>
        <time>2022-02-23T10:41:52Z</time>
      </trkpt>
      <trkpt lat="47.71711" lon="3.666">
        <ele>215.9</ele>
        <time>2022-02-23T10:41:53Z</time>
      </trkpt>
      <trkpt lat="47.71711" lon="3.66598">
        <ele>215.9</ele>
        <time>2022-02-23T10:41:54Z</time>
      </trkpt>
      <trkpt lat="47.71712" lon="3.66597">
        <ele>215.9</ele>
        <time>2022-02-23T10:41:56Z</time>
      </trkpt>
      <trkpt lat="47.71714" lon="3.66596">
        <ele>215.9</ele>
        <time>2022-02-23T10:41:57Z</time>
      </trkpt>
      <trkpt lat="47.71714" lon="3.66595">
        <ele>215.9</ele>
        <time>2022-02-23T10:41:58Z</time>
      </trkpt>
      <trkpt lat="47.71716" lon="3.66593">
        <ele>215.9</ele>
        <time>2022-02-23T10:42:00Z</time>
      </trkpt>
      <trkpt lat="47.71717" lon="3.66591">
        <ele>215.9</ele>
        <time>2022-02-23T10:42:01Z</time>
      </trkpt>
      <trkpt lat="47.71718" lon="3.6659">
        <ele>215.9</ele>
        <time>2022-02-23T10:42:02Z</time>
      </trkpt>
      <trkpt lat="47.71719" lon="3.66589">
        <ele>215.9</ele>
        <time>2022-02-23T10:42:04Z</time>
      </trkpt>
      <trkpt lat="47.7172" lon="3.66588">
        <ele>215.9</ele>
        <time>2022-02-23T10:42:05Z</time>
      </trkpt>
      <trkpt lat="47.71721" lon="3.66588">
        <ele>215.9</ele>
        <time>2022-02-23T10:42:06Z</time>
      </trkpt>
      <trkpt lat="47.71722" lon="3.66586">
        <ele>215.9</ele>
        <time>2022-02-23T10:42:07Z</time>
      </trkpt>
      <trkpt lat="47.71723" lon="3.66586">
        <ele>215.9</ele>
        <time>2022-02-23T10:42:08Z</time>
      </trkpt>
      <trkpt lat="47.71724" lon="3.66585">
        <ele>215.9</ele>
        <time>2022-02-23T10:42:09Z</time>
      </trkpt>
      <trkpt lat="47.71725" lon="3.66584">
        <ele>215.9</ele>
        <time>2022-02-23T10:42:10Z</time>
      </trkpt>
      <trkpt lat="47.71727" lon="3.66582">
        <ele>215.8</ele>
        <time>2022-02-23T10:42:12Z</time>
      </trkpt>
      <trkpt lat="47.71728" lon="3.66582">
        <ele>215.8</ele>
        <time>2022-02-23T10:42:13Z</time>
      </trkpt>
      <trkpt lat="47.71729" lon="3.66581">
        <ele>215.8</ele>
        <time>2022-02-23T10:42:14Z</time>
      </trkpt>
      <trkpt lat="47.7173" lon="3.6658">
        <ele>215.8</ele>
        <time>2022-02-23T10:42:16Z</time>
      </trkpt>
      <trkpt lat="47.71732" lon="3.66578">
        <ele>215.8</ele>
        <time>2022-02-23T10:42:17Z</time>
      </trkpt>
      <trkpt lat="47.71732" lon="3.66578">
        <ele>215.8</ele>
        <time>2022-02-23T10:42:18Z</time>
      </trkpt>
      <trkpt lat="47.71733" lon="3.66577">
        <ele>215.7</ele>
        <time>2022-02-23T10:42:19Z</time>
      </trkpt>
      <trkpt lat="47.71735" lon="3.66575">
        <ele>215.7</ele>
        <time>2022-02-23T10:42:20Z</time>
      </trkpt>
      <trkpt lat="47.71736" lon="3.66575">
        <ele>215.7</ele>
        <time>2022-02-23T10:42:22Z</time>
      </trkpt>
      <trkpt lat="47.71737" lon="3.66574">
        <ele>215.7</ele>
        <time>2022-02-23T10:42:23Z</time>
      </trkpt>
      <trkpt lat="47.71738" lon="3.66573">
        <ele>215.7</ele>
        <time>2022-02-23T10:42:24Z</time>
      </trkpt>
      <trkpt lat="47.71739" lon="3.66572">
        <ele>215.6</ele>
        <time>2022-02-23T10:42:25Z</time>
      </trkpt>
      <trkpt lat="47.71739" lon="3.66571">
        <ele>215.6</ele>
        <time>2022-02-23T10:42:26Z</time>
      </trkpt>
      <trkpt lat="47.71741" lon="3.66569">
        <ele>215.6</ele>
        <time>2022-02-23T10:42:27Z</time>
      </trkpt>
      <trkpt lat="47.71741" lon="3.66569">
        <ele>215.6</ele>
        <time>2022-02-23T10:42:28Z</time>
      </trkpt>
      <trkpt lat="47.71742" lon="3.66568">
        <ele>215.5</ele>
        <time>2022-02-23T10:42:29Z</time>
      </trkpt>
      <trkpt lat="47.71744" lon="3.66567">
        <ele>215.5</ele>
        <time>2022-02-23T10:42:30Z</time>
      </trkpt>
      <trkpt lat="47.71745" lon="3.66567">
        <ele>215.5</ele>
        <time>2022-02-23T10:42:32Z</time>
      </trkpt>
      <trkpt lat="47.71746" lon="3.66566">
        <ele>215.4</ele>
        <time>2022-02-23T10:42:33Z</time>
      </trkpt>
      <trkpt lat="47.71748" lon="3.66565">
        <ele>215.4</ele>
        <time>2022-02-23T10:42:34Z</time>
      </trkpt>
      <trkpt lat="47.7175" lon="3.66564">
        <ele>215.3</ele>
        <time>2022-02-23T10:42:35Z</time>
      </trkpt>
      <trkpt lat="47.71751" lon="3.66564">
        <ele>215.3</ele>
        <time>2022-02-23T10:42:37Z</time>
      </trkpt>
      <trkpt lat="47.71751" lon="3.66563">
        <ele>215.3</ele>
        <time>2022-02-23T10:42:38Z</time>
      </trkpt>
      <trkpt lat="47.71752" lon="3.66563">
        <ele>215.3</ele>
        <time>2022-02-23T10:42:39Z</time>
      </trkpt>
      <trkpt lat="47.71753" lon="3.66562">
        <ele>215.3</ele>
        <time>2022-02-23T10:42:40Z</time>
      </trkpt>
      <trkpt lat="47.71754" lon="3.66561">
        <ele>215.2</ele>
        <time>2022-02-23T10:42:41Z</time>
      </trkpt>
      <trkpt lat="47.71756" lon="3.66559">
        <ele>215.2</ele>
        <time>2022-02-23T10:42:43Z</time>
      </trkpt>
      <trkpt lat="47.71757" lon="3.66559">
        <ele>215.1</ele>
        <time>2022-02-23T10:42:44Z</time>
      </trkpt>
      <trkpt lat="47.71758" lon="3.66558">
        <ele>215.1</ele>
        <time>2022-02-23T10:42:45Z</time>
      </trkpt>
      <trkpt lat="47.71759" lon="3.66558">
        <ele>215</ele>
        <time>2022-02-23T10:42:46Z</time>
      </trkpt>
      <trkpt lat="47.71762" lon="3.66557">
        <ele>215</ele>
        <time>2022-02-23T10:42:48Z</time>
      </trkpt>
      <trkpt lat="47.71763" lon="3.66556">
        <ele>214.9</ele>
        <time>2022-02-23T10:42:49Z</time>
      </trkpt>
      <trkpt lat="47.71764" lon="3.66556">
        <ele>214.9</ele>
        <time>2022-02-23T10:42:50Z</time>
      </trkpt>
      <trkpt lat="47.71764" lon="3.66555">
        <ele>214.9</ele>
        <time>2022-02-23T10:42:51Z</time>
      </trkpt>
      <trkpt lat="47.71765" lon="3.66555">
        <ele>214.8</ele>
        <time>2022-02-23T10:42:52Z</time>
      </trkpt>
      <trkpt lat="47.71766" lon="3.66554">
        <ele>214.8</ele>
        <time>2022-02-23T10:42:53Z</time>
      </trkpt>
      <trkpt lat="47.71767" lon="3.66554">
        <ele>214.8</ele>
        <time>2022-02-23T10:42:55Z</time>
      </trkpt>
      <trkpt lat="47.71769" lon="3.66554">
        <ele>214.7</ele>
        <time>2022-02-23T10:42:56Z</time>
      </trkpt>
      <trkpt lat="47.7177" lon="3.66554">
        <ele>214.7</ele>
        <time>2022-02-23T10:42:57Z</time>
      </trkpt>
      <trkpt lat="47.71772" lon="3.66553">
        <ele>214.6</ele>
        <time>2022-02-23T10:42:58Z</time>
      </trkpt>
      <trkpt lat="47.71773" lon="3.66552">
        <ele>214.6</ele>
        <time>2022-02-23T10:42:59Z</time>
      </trkpt>
      <trkpt lat="47.71774" lon="3.66552">
        <ele>214.5</ele>
        <time>2022-02-23T10:43:00Z</time>
      </trkpt>
      <trkpt lat="47.71774" lon="3.66551">
        <ele>214.5</ele>
        <time>2022-02-23T10:43:01Z</time>
      </trkpt>
      <trkpt lat="47.71776" lon="3.66549">
        <ele>214.4</ele>
        <time>2022-02-23T10:43:03Z</time>
      </trkpt>
      <trkpt lat="47.71775" lon="3.66547">
        <ele>214.4</ele>
        <time>2022-02-23T10:43:04Z</time>
      </trkpt>
      <trkpt lat="47.71775" lon="3.66546">
        <ele>214.4</ele>
        <time>2022-02-23T10:43:05Z</time>
      </trkpt>
      <trkpt lat="47.71773" lon="3.66544">
        <ele>214.3</ele>
        <time>2022-02-23T10:43:07Z</time>
      </trkpt>
      <trkpt lat="47.71772" lon="3.66542">
        <ele>214.3</ele>
        <time>2022-02-23T10:43:08Z</time>
      </trkpt>
      <trkpt lat="47.71771" lon="3.66541">
        <ele>214.2</ele>
        <time>2022-02-23T10:43:09Z</time>
      </trkpt>
      <trkpt lat="47.7177" lon="3.6654">
        <ele>214.2</ele>
        <time>2022-02-23T10:43:10Z</time>
      </trkpt>
      <trkpt lat="47.7177" lon="3.66539">
        <ele>214.2</ele>
        <time>2022-02-23T10:43:11Z</time>
      </trkpt>
      <trkpt lat="47.7177" lon="3.66539">
        <ele>214.1</ele>
        <time>2022-02-23T10:43:12Z</time>
      </trkpt>
      <trkpt lat="47.71769" lon="3.66538">
        <ele>214.1</ele>
        <time>2022-02-23T10:43:13Z</time>
      </trkpt>
      <trkpt lat="47.71769" lon="3.66538">
        <ele>214.1</ele>
        <time>2022-02-23T10:43:14Z</time>
      </trkpt>
      <trkpt lat="47.71769" lon="3.66537">
        <ele>214.1</ele>
        <time>2022-02-23T10:43:15Z</time>
      </trkpt>
      <trkpt lat="47.71769" lon="3.66537">
        <ele>214.1</ele>
        <time>2022-02-23T10:43:16Z</time>
      </trkpt>
      <trkpt lat="47.71769" lon="3.66538">
        <ele>214.1</ele>
        <time>2022-02-23T10:43:18Z</time>
      </trkpt>
      <trkpt lat="47.71768" lon="3.66538">
        <ele>214.1</ele>
        <time>2022-02-23T10:43:19Z</time>
      </trkpt>
      <trkpt lat="47.71768" lon="3.66539">
        <ele>214</ele>
        <time>2022-02-23T10:43:20Z</time>
      </trkpt>
      <trkpt lat="47.71767" lon="3.66539">
        <ele>214</ele>
        <time>2022-02-23T10:43:21Z</time>
      </trkpt>
      <trkpt lat="47.71767" lon="3.66539">
        <ele>214</ele>
        <time>2022-02-23T10:43:23Z</time>
      </trkpt>
      <trkpt lat="47.71767" lon="3.66539">
        <ele>214</ele>
        <time>2022-02-23T10:43:24Z</time>
      </trkpt>
      <trkpt lat="47.71766" lon="3.66539">
        <ele>214</ele>
        <time>2022-02-23T10:43:26Z</time>
      </trkpt>
      <trkpt lat="47.71766" lon="3.66539">
        <ele>214</ele>
        <time>2022-02-23T10:43:27Z</time>
      </trkpt>
      <trkpt lat="47.71766" lon="3.66539">
        <ele>214</ele>
        <time>2022-02-23T10:43:28Z</time>
      </trkpt>
      <trkpt lat="47.71766" lon="3.66539">
        <ele>214</ele>
        <time>2022-02-23T10:43:29Z</time>
      </trkpt>
      <trkpt lat="47.71766" lon="3.66539">
        <ele>214</ele>
        <time>2022-02-23T10:43:31Z</time>
      </trkpt>
      <trkpt lat="47.71766" lon="3.6654">
        <ele>214</ele>
        <time>2022-02-23T10:43:32Z</time>
      </trkpt>
      <trkpt lat="47.71766" lon="3.6654">
        <ele>213.9</ele>
        <time>2022-02-23T10:43:33Z</time>
      </trkpt>
      <trkpt lat="47.71767" lon="3.66541">
        <ele>213.9</ele>
        <time>2022-02-23T10:43:35Z</time>
      </trkpt>
      <trkpt lat="47.71767" lon="3.66541">
        <ele>213.9</ele>
        <time>2022-02-23T10:43:36Z</time>
      </trkpt>
      <trkpt lat="47.71767" lon="3.66542">
        <ele>213.9</ele>
        <time>2022-02-23T10:43:37Z</time>
      </trkpt>
      <trkpt lat="47.71767" lon="3.66542">
        <ele>213.9</ele>
        <time>2022-02-23T10:43:39Z</time>
      </trkpt>
      <trkpt lat="47.71767" lon="3.66542">
        <ele>213.9</ele>
        <time>2022-02-23T10:43:40Z</time>
      </trkpt>
      <trkpt lat="47.71767" lon="3.66542">
        <ele>213.9</ele>
        <time>2022-02-23T10:43:41Z</time>
      </trkpt>
      <trkpt lat="47.71767" lon="3.66542">
        <ele>213.9</ele>
        <time>2022-02-23T10:43:42Z</time>
      </trkpt>
      <trkpt lat="47.71767" lon="3.66541">
        <ele>213.9</ele>
        <time>2022-02-23T10:43:43Z</time>
      </trkpt>
      <trkpt lat="47.71768" lon="3.66541">
        <ele>213.9</ele>
        <time>2022-02-23T10:43:44Z</time>
      </trkpt>
      <trkpt lat="47.71768" lon="3.66541">
        <ele>213.9</ele>
        <time>2022-02-23T10:43:45Z</time>
      </trkpt>
      <trkpt lat="47.71768" lon="3.66541">
        <ele>213.9</ele>
        <time>2022-02-23T10:43:46Z</time>
      </trkpt>
      <trkpt lat="47.71768" lon="3.66541">
        <ele>213.9</ele>
        <time>2022-02-23T10:43:47Z</time>
      </trkpt>
      <trkpt lat="47.71768" lon="3.66541">
        <ele>213.8</ele>
        <time>2022-02-23T10:43:49Z</time>
      </trkpt>
      <trkpt lat="47.71768" lon="3.66541">
        <ele>213.8</ele>
        <time>2022-02-23T10:43:50Z</time>
      </trkpt>
      <trkpt lat="47.71768" lon="3.66541">
        <ele>213.8</ele>
        <time>2022-02-23T10:43:51Z</time>
      </trkpt>
      <trkpt lat="47.71769" lon="3.66541">
        <ele>213.8</ele>
        <time>2022-02-23T10:43:52Z</time>
      </trkpt>
      <trkpt lat="47.71769" lon="3.66541">
        <ele>213.8</ele>
        <time>2022-02-23T10:43:53Z</time>
      </trkpt>
      <trkpt lat="47.71769" lon="3.66542">
        <ele>213.8</ele>
        <time>2022-02-23T10:43:55Z</time>
      </trkpt>
      <trkpt lat="47.71769" lon="3.66543">
        <ele>213.8</ele>
        <time>2022-02-23T10:43:56Z</time>
      </trkpt>
      <trkpt lat="47.71769" lon="3.66544">
        <ele>213.7</ele>
        <time>2022-02-23T10:43:57Z</time>
      </trkpt>
      <trkpt lat="47.71769" lon="3.66545">
        <ele>213.7</ele>
        <time>2022-02-23T10:43:58Z</time>
      </trkpt>
      <trkpt lat="47.71769" lon="3.66547">
        <ele>213.7</ele>
        <time>2022-02-23T10:43:59Z</time>
      </trkpt>
      <trkpt lat="47.7177" lon="3.66551">
        <ele>213.6</ele>
        <time>2022-02-23T10:44:01Z</time>
      </trkpt>
      <trkpt lat="47.71771" lon="3.66552">
        <ele>213.5</ele>
        <time>2022-02-23T10:44:02Z</time>
      </trkpt>
      <trkpt lat="47.71774" lon="3.66555">
        <ele>213.4</ele>
        <time>2022-02-23T10:44:03Z</time>
      </trkpt>
      <trkpt lat="47.71775" lon="3.66555">
        <ele>213.4</ele>
        <time>2022-02-23T10:44:04Z</time>
      </trkpt>
      <trkpt lat="47.71778" lon="3.66554">
        <ele>213.3</ele>
        <time>2022-02-23T10:44:05Z</time>
      </trkpt>
      <trkpt lat="47.71779" lon="3.66554">
        <ele>213.2</ele>
        <time>2022-02-23T10:44:06Z</time>
      </trkpt>
      <trkpt lat="47.71781" lon="3.66551">
        <ele>213.1</ele>
        <time>2022-02-23T10:44:07Z</time>
      </trkpt>
      <trkpt lat="47.71781" lon="3.6655">
        <ele>213.1</ele>
        <time>2022-02-23T10:44:08Z</time>
      </trkpt>
      <trkpt lat="47.71781" lon="3.66544">
        <ele>213</ele>
        <time>2022-02-23T10:44:09Z</time>
      </trkpt>
      <trkpt lat="47.71781" lon="3.66543">
        <ele>212.3</ele>
        <time>2022-02-23T10:44:10Z</time>
      </trkpt>
      <trkpt lat="47.7178" lon="3.66538">
        <ele>211.9</ele>
        <time>2022-02-23T10:44:11Z</time>
      </trkpt>
      <trkpt lat="47.71779" lon="3.66537">
        <ele>211.8</ele>
        <time>2022-02-23T10:44:12Z</time>
      </trkpt>
      <trkpt lat="47.71777" lon="3.66533">
        <ele>211.5</ele>
        <time>2022-02-23T10:44:13Z</time>
      </trkpt>
      <trkpt lat="47.71776" lon="3.66532">
        <ele>211.4</ele>
        <time>2022-02-23T10:44:14Z</time>
      </trkpt>
      <trkpt lat="47.71775" lon="3.66529">
        <ele>211.2</ele>
        <time>2022-02-23T10:44:16Z</time>
      </trkpt>
      <trkpt lat="47.71774" lon="3.66528">
        <ele>211.1</ele>
        <time>2022-02-23T10:44:17Z</time>
      </trkpt>
      <trkpt lat="47.71772" lon="3.66526">
        <ele>210.8</ele>
        <time>2022-02-23T10:44:18Z</time>
      </trkpt>
      <trkpt lat="47.71771" lon="3.66525">
        <ele>210.7</ele>
        <time>2022-02-23T10:44:19Z</time>
      </trkpt>
      <trkpt lat="47.71769" lon="3.66522">
        <ele>210.4</ele>
        <time>2022-02-23T10:44:20Z</time>
      </trkpt>
      <trkpt lat="47.71768" lon="3.66521">
        <ele>210.3</ele>
        <time>2022-02-23T10:44:21Z</time>
      </trkpt>
      <trkpt lat="47.71767" lon="3.66519">
        <ele>210.2</ele>
        <time>2022-02-23T10:44:22Z</time>
      </trkpt>
      <trkpt lat="47.71765" lon="3.66517">
        <ele>210</ele>
        <time>2022-02-23T10:44:24Z</time>
      </trkpt>
      <trkpt lat="47.71764" lon="3.66516">
        <ele>209.8</ele>
        <time>2022-02-23T10:44:25Z</time>
      </trkpt>
      <trkpt lat="47.71763" lon="3.66514">
        <ele>209.7</ele>
        <time>2022-02-23T10:44:26Z</time>
      </trkpt>
      <trkpt lat="47.71763" lon="3.66512">
        <ele>209.5</ele>
        <time>2022-02-23T10:44:27Z</time>
      </trkpt>
      <trkpt lat="47.71762" lon="3.6651">
        <ele>209.4</ele>
        <time>2022-02-23T10:44:28Z</time>
      </trkpt>
      <trkpt lat="47.7176" lon="3.66508">
        <ele>209.2</ele>
        <time>2022-02-23T10:44:29Z</time>
      </trkpt>
      <trkpt lat="47.7176" lon="3.66506">
        <ele>209.1</ele>
        <time>2022-02-23T10:44:30Z</time>
      </trkpt>
      <trkpt lat="47.71759" lon="3.66505">
        <ele>208.9</ele>
        <time>2022-02-23T10:44:31Z</time>
      </trkpt>
      <trkpt lat="47.71758" lon="3.66504">
        <ele>208.8</ele>
        <time>2022-02-23T10:44:32Z</time>
      </trkpt>
      <trkpt lat="47.71757" lon="3.66503">
        <ele>208.7</ele>
        <time>2022-02-23T10:44:33Z</time>
      </trkpt>
      <trkpt lat="47.71756" lon="3.66501">
        <ele>208.5</ele>
        <time>2022-02-23T10:44:34Z</time>
      </trkpt>
      <trkpt lat="47.71754" lon="3.665">
        <ele>208.4</ele>
        <time>2022-02-23T10:44:35Z</time>
      </trkpt>
      <trkpt lat="47.71753" lon="3.66497">
        <ele>208.2</ele>
        <time>2022-02-23T10:44:36Z</time>
      </trkpt>
      <trkpt lat="47.71752" lon="3.66496">
        <ele>208</ele>
        <time>2022-02-23T10:44:38Z</time>
      </trkpt>
      <trkpt lat="47.71751" lon="3.66495">
        <ele>207.9</ele>
        <time>2022-02-23T10:44:39Z</time>
      </trkpt>
      <trkpt lat="47.7175" lon="3.66493">
        <ele>207.8</ele>
        <time>2022-02-23T10:44:40Z</time>
      </trkpt>
      <trkpt lat="47.7175" lon="3.66492">
        <ele>207.7</ele>
        <time>2022-02-23T10:44:41Z</time>
      </trkpt>
      <trkpt lat="47.71749" lon="3.66491">
        <ele>207.6</ele>
        <time>2022-02-23T10:44:42Z</time>
      </trkpt>
      <trkpt lat="47.71747" lon="3.6649">
        <ele>207.4</ele>
        <time>2022-02-23T10:44:43Z</time>
      </trkpt>
      <trkpt lat="47.71745" lon="3.66488">
        <ele>207.2</ele>
        <time>2022-02-23T10:44:44Z</time>
      </trkpt>
      <trkpt lat="47.71744" lon="3.66487">
        <ele>207.1</ele>
        <time>2022-02-23T10:44:45Z</time>
      </trkpt>
      <trkpt lat="47.71744" lon="3.66486">
        <ele>207</ele>
        <time>2022-02-23T10:44:46Z</time>
      </trkpt>
      <trkpt lat="47.71743" lon="3.66484">
        <ele>206.8</ele>
        <time>2022-02-23T10:44:47Z</time>
      </trkpt>
      <trkpt lat="47.71741" lon="3.66482">
        <ele>206.6</ele>
        <time>2022-02-23T10:44:49Z</time>
      </trkpt>
      <trkpt lat="47.7174" lon="3.66481">
        <ele>206.5</ele>
        <time>2022-02-23T10:44:50Z</time>
      </trkpt>
      <trkpt lat="47.7174" lon="3.66479">
        <ele>206.3</ele>
        <time>2022-02-23T10:44:51Z</time>
      </trkpt>
      <trkpt lat="47.71739" lon="3.66477">
        <ele>206.2</ele>
        <time>2022-02-23T10:44:52Z</time>
      </trkpt>
      <trkpt lat="47.71738" lon="3.66476">
        <ele>206.1</ele>
        <time>2022-02-23T10:44:53Z</time>
      </trkpt>
      <trkpt lat="47.71736" lon="3.66475">
        <ele>205.8</ele>
        <time>2022-02-23T10:44:55Z</time>
      </trkpt>
      <trkpt lat="47.71735" lon="3.66472">
        <ele>205.6</ele>
        <time>2022-02-23T10:44:56Z</time>
      </trkpt>
      <trkpt lat="47.71734" lon="3.66471">
        <ele>205.5</ele>
        <time>2022-02-23T10:44:57Z</time>
      </trkpt>
      <trkpt lat="47.71733" lon="3.6647">
        <ele>205.4</ele>
        <time>2022-02-23T10:44:58Z</time>
      </trkpt>
      <trkpt lat="47.71732" lon="3.66468">
        <ele>205.1</ele>
        <time>2022-02-23T10:44:59Z</time>
      </trkpt>
      <trkpt lat="47.71731" lon="3.66467">
        <ele>205</ele>
        <time>2022-02-23T10:45:00Z</time>
      </trkpt>
      <trkpt lat="47.7173" lon="3.66466">
        <ele>205</ele>
        <time>2022-02-23T10:45:01Z</time>
      </trkpt>
      <trkpt lat="47.71729" lon="3.66465">
        <ele>204.8</ele>
        <time>2022-02-23T10:45:02Z</time>
      </trkpt>
      <trkpt lat="47.71728" lon="3.66463">
        <ele>204.6</ele>
        <time>2022-02-23T10:45:03Z</time>
      </trkpt>
      <trkpt lat="47.71727" lon="3.6646">
        <ele>204.4</ele>
        <time>2022-02-23T10:45:04Z</time>
      </trkpt>
      <trkpt lat="47.71727" lon="3.66459">
        <ele>204.3</ele>
        <time>2022-02-23T10:45:05Z</time>
      </trkpt>
      <trkpt lat="47.71726" lon="3.66456">
        <ele>204.1</ele>
        <time>2022-02-23T10:45:06Z</time>
      </trkpt>
      <trkpt lat="47.71726" lon="3.66455">
        <ele>204</ele>
        <time>2022-02-23T10:45:07Z</time>
      </trkpt>
      <trkpt lat="47.71725" lon="3.66454">
        <ele>203.9</ele>
        <time>2022-02-23T10:45:08Z</time>
      </trkpt>
      <trkpt lat="47.71725" lon="3.66451">
        <ele>203.7</ele>
        <time>2022-02-23T10:45:09Z</time>
      </trkpt>
      <trkpt lat="47.71724" lon="3.6645">
        <ele>203.5</ele>
        <time>2022-02-23T10:45:10Z</time>
      </trkpt>
      <trkpt lat="47.71724" lon="3.66448">
        <ele>203.4</ele>
        <time>2022-02-23T10:45:11Z</time>
      </trkpt>
      <trkpt lat="47.71723" lon="3.66446">
        <ele>203.2</ele>
        <time>2022-02-23T10:45:12Z</time>
      </trkpt>
      <trkpt lat="47.71721" lon="3.66443">
        <ele>202.9</ele>
        <time>2022-02-23T10:45:13Z</time>
      </trkpt>
      <trkpt lat="47.7172" lon="3.66442">
        <ele>202.8</ele>
        <time>2022-02-23T10:45:15Z</time>
      </trkpt>
      <trkpt lat="47.71719" lon="3.66441">
        <ele>202.7</ele>
        <time>2022-02-23T10:45:16Z</time>
      </trkpt>
      <trkpt lat="47.71719" lon="3.6644">
        <ele>202.5</ele>
        <time>2022-02-23T10:45:17Z</time>
      </trkpt>
      <trkpt lat="47.71718" lon="3.66439">
        <ele>202.4</ele>
        <time>2022-02-23T10:45:18Z</time>
      </trkpt>
      <trkpt lat="47.71717" lon="3.66438">
        <ele>202.3</ele>
        <time>2022-02-23T10:45:19Z</time>
      </trkpt>
      <trkpt lat="47.71716" lon="3.66437">
        <ele>202.2</ele>
        <time>2022-02-23T10:45:20Z</time>
      </trkpt>
      <trkpt lat="47.71715" lon="3.66436">
        <ele>202</ele>
        <time>2022-02-23T10:45:21Z</time>
      </trkpt>
      <trkpt lat="47.71714" lon="3.66434">
        <ele>201.8</ele>
        <time>2022-02-23T10:45:22Z</time>
      </trkpt>
      <trkpt lat="47.71713" lon="3.66433">
        <ele>201.7</ele>
        <time>2022-02-23T10:45:24Z</time>
      </trkpt>
      <trkpt lat="47.71712" lon="3.66432">
        <ele>201.6</ele>
        <time>2022-02-23T10:45:25Z</time>
      </trkpt>
      <trkpt lat="47.71712" lon="3.66431">
        <ele>201.5</ele>
        <time>2022-02-23T10:45:26Z</time>
      </trkpt>
      <trkpt lat="47.71711" lon="3.6643">
        <ele>201.4</ele>
        <time>2022-02-23T10:45:27Z</time>
      </trkpt>
      <trkpt lat="47.71711" lon="3.66429">
        <ele>201.3</ele>
        <time>2022-02-23T10:45:28Z</time>
      </trkpt>
      <trkpt lat="47.7171" lon="3.66426">
        <ele>201</ele>
        <time>2022-02-23T10:45:29Z</time>
      </trkpt>
      <trkpt lat="47.71709" lon="3.66425">
        <ele>201</ele>
        <time>2022-02-23T10:45:30Z</time>
      </trkpt>
      <trkpt lat="47.71709" lon="3.66424">
        <ele>200.9</ele>
        <time>2022-02-23T10:45:31Z</time>
      </trkpt>
      <trkpt lat="47.71709" lon="3.66424">
        <ele>200.8</ele>
        <time>2022-02-23T10:45:32Z</time>
      </trkpt>
      <trkpt lat="47.71709" lon="3.66422">
        <ele>200.7</ele>
        <time>2022-02-23T10:45:33Z</time>
      </trkpt>
      <trkpt lat="47.71708" lon="3.66421">
        <ele>200.6</ele>
        <time>2022-02-23T10:45:34Z</time>
      </trkpt>
      <trkpt lat="47.71708" lon="3.6642">
        <ele>200.5</ele>
        <time>2022-02-23T10:45:35Z</time>
      </trkpt>
      <trkpt lat="47.71706" lon="3.66417">
        <ele>200.2</ele>
        <time>2022-02-23T10:45:36Z</time>
      </trkpt>
      <trkpt lat="47.71706" lon="3.66415">
        <ele>200.1</ele>
        <time>2022-02-23T10:45:38Z</time>
      </trkpt>
      <trkpt lat="47.71705" lon="3.66414">
        <ele>200</ele>
        <time>2022-02-23T10:45:39Z</time>
      </trkpt>
      <trkpt lat="47.71704" lon="3.66413">
        <ele>199.8</ele>
        <time>2022-02-23T10:45:40Z</time>
      </trkpt>
      <trkpt lat="47.71704" lon="3.66412">
        <ele>199.7</ele>
        <time>2022-02-23T10:45:41Z</time>
      </trkpt>
      <trkpt lat="47.71703" lon="3.66411">
        <ele>199.6</ele>
        <time>2022-02-23T10:45:42Z</time>
      </trkpt>
      <trkpt lat="47.71701" lon="3.66408">
        <ele>199.3</ele>
        <time>2022-02-23T10:45:44Z</time>
      </trkpt>
      <trkpt lat="47.717" lon="3.66407">
        <ele>199.2</ele>
        <time>2022-02-23T10:45:45Z</time>
      </trkpt>
      <trkpt lat="47.71699" lon="3.66406">
        <ele>199</ele>
        <time>2022-02-23T10:45:46Z</time>
      </trkpt>
      <trkpt lat="47.71698" lon="3.66405">
        <ele>198.9</ele>
        <time>2022-02-23T10:45:47Z</time>
      </trkpt>
      <trkpt lat="47.71697" lon="3.66401">
        <ele>198.5</ele>
        <time>2022-02-23T10:45:49Z</time>
      </trkpt>
      <trkpt lat="47.71696" lon="3.664">
        <ele>198.4</ele>
        <time>2022-02-23T10:45:50Z</time>
      </trkpt>
      <trkpt lat="47.71695" lon="3.66398">
        <ele>198.2</ele>
        <time>2022-02-23T10:45:51Z</time>
      </trkpt>
      <trkpt lat="47.71695" lon="3.66397">
        <ele>198</ele>
        <time>2022-02-23T10:45:52Z</time>
      </trkpt>
      <trkpt lat="47.71694" lon="3.66395">
        <ele>197.8</ele>
        <time>2022-02-23T10:45:53Z</time>
      </trkpt>
      <trkpt lat="47.71693" lon="3.66393">
        <ele>197.6</ele>
        <time>2022-02-23T10:45:54Z</time>
      </trkpt>
      <trkpt lat="47.71692" lon="3.66392">
        <ele>197.4</ele>
        <time>2022-02-23T10:45:55Z</time>
      </trkpt>
      <trkpt lat="47.7169" lon="3.66391">
        <ele>197.2</ele>
        <time>2022-02-23T10:45:56Z</time>
      </trkpt>
      <trkpt lat="47.71688" lon="3.66389">
        <ele>196.9</ele>
        <time>2022-02-23T10:45:58Z</time>
      </trkpt>
      <trkpt lat="47.71686" lon="3.66388">
        <ele>196.5</ele>
        <time>2022-02-23T10:45:59Z</time>
      </trkpt>
      <trkpt lat="47.71685" lon="3.66387">
        <ele>196.4</ele>
        <time>2022-02-23T10:46:00Z</time>
      </trkpt>
      <trkpt lat="47.71684" lon="3.66386">
        <ele>196.2</ele>
        <time>2022-02-23T10:46:01Z</time>
      </trkpt>
      <trkpt lat="47.71684" lon="3.66385">
        <ele>196.1</ele>
        <time>2022-02-23T10:46:03Z</time>
      </trkpt>
      <trkpt lat="47.71683" lon="3.66384">
        <ele>196</ele>
        <time>2022-02-23T10:46:04Z</time>
      </trkpt>
      <trkpt lat="47.71683" lon="3.66384">
        <ele>195.9</ele>
        <time>2022-02-23T10:46:05Z</time>
      </trkpt>
      <trkpt lat="47.71682" lon="3.66384">
        <ele>195.8</ele>
        <time>2022-02-23T10:46:06Z</time>
      </trkpt>
      <trkpt lat="47.71681" lon="3.66382">
        <ele>195.6</ele>
        <time>2022-02-23T10:46:07Z</time>
      </trkpt>
      <trkpt lat="47.7168" lon="3.66381">
        <ele>195.4</ele>
        <time>2022-02-23T10:46:08Z</time>
      </trkpt>
      <trkpt lat="47.71678" lon="3.66379">
        <ele>195.1</ele>
        <time>2022-02-23T10:46:09Z</time>
      </trkpt>
      <trkpt lat="47.71677" lon="3.66377">
        <ele>194.8</ele>
        <time>2022-02-23T10:46:10Z</time>
      </trkpt>
      <trkpt lat="47.71677" lon="3.66375">
        <ele>194.7</ele>
        <time>2022-02-23T10:46:12Z</time>
      </trkpt>
      <trkpt lat="47.71676" lon="3.66374">
        <ele>194.5</ele>
        <time>2022-02-23T10:46:13Z</time>
      </trkpt>
      <trkpt lat="47.71675" lon="3.66372">
        <ele>194.2</ele>
        <time>2022-02-23T10:46:14Z</time>
      </trkpt>
      <trkpt lat="47.71674" lon="3.66371">
        <ele>194.1</ele>
        <time>2022-02-23T10:46:15Z</time>
      </trkpt>
      <trkpt lat="47.71673" lon="3.6637">
        <ele>193.9</ele>
        <time>2022-02-23T10:46:16Z</time>
      </trkpt>
      <trkpt lat="47.71672" lon="3.66368">
        <ele>193.7</ele>
        <time>2022-02-23T10:46:17Z</time>
      </trkpt>
      <trkpt lat="47.71671" lon="3.66367">
        <ele>193.4</ele>
        <time>2022-02-23T10:46:18Z</time>
      </trkpt>
      <trkpt lat="47.7167" lon="3.66365">
        <ele>193.2</ele>
        <time>2022-02-23T10:46:19Z</time>
      </trkpt>
      <trkpt lat="47.71669" lon="3.66364">
        <ele>193</ele>
        <time>2022-02-23T10:46:20Z</time>
      </trkpt>
      <trkpt lat="47.71668" lon="3.66364">
        <ele>192.9</ele>
        <time>2022-02-23T10:46:21Z</time>
      </trkpt>
      <trkpt lat="47.71667" lon="3.66364">
        <ele>192.8</ele>
        <time>2022-02-23T10:46:22Z</time>
      </trkpt>
      <trkpt lat="47.71667" lon="3.66364">
        <ele>192.7</ele>
        <time>2022-02-23T10:46:23Z</time>
      </trkpt>
      <trkpt lat="47.71666" lon="3.66363">
        <ele>192.5</ele>
        <time>2022-02-23T10:46:24Z</time>
      </trkpt>
      <trkpt lat="47.71665" lon="3.66362">
        <ele>192.4</ele>
        <time>2022-02-23T10:46:25Z</time>
      </trkpt>
      <trkpt lat="47.71662" lon="3.66361">
        <ele>191.9</ele>
        <time>2022-02-23T10:46:26Z</time>
      </trkpt>
      <trkpt lat="47.71661" lon="3.6636">
        <ele>191.7</ele>
        <time>2022-02-23T10:46:28Z</time>
      </trkpt>
      <trkpt lat="47.71659" lon="3.6636">
        <ele>191.4</ele>
        <time>2022-02-23T10:46:29Z</time>
      </trkpt>
      <trkpt lat="47.71658" lon="3.66359">
        <ele>191.2</ele>
        <time>2022-02-23T10:46:30Z</time>
      </trkpt>
      <trkpt lat="47.71655" lon="3.66359">
        <ele>190.7</ele>
        <time>2022-02-23T10:46:31Z</time>
      </trkpt>
      <trkpt lat="47.71654" lon="3.66359">
        <ele>190.4</ele>
        <time>2022-02-23T10:46:33Z</time>
      </trkpt>
      <trkpt lat="47.71652" lon="3.66359">
        <ele>190.2</ele>
        <time>2022-02-23T10:46:34Z</time>
      </trkpt>
      <trkpt lat="47.71651" lon="3.66359">
        <ele>190</ele>
        <time>2022-02-23T10:46:35Z</time>
      </trkpt>
      <trkpt lat="47.71648" lon="3.66359">
        <ele>189.5</ele>
        <time>2022-02-23T10:46:36Z</time>
      </trkpt>
      <trkpt lat="47.71647" lon="3.6636">
        <ele>189.3</ele>
        <time>2022-02-23T10:46:37Z</time>
      </trkpt>
      <trkpt lat="47.71645" lon="3.6636">
        <ele>189.1</ele>
        <time>2022-02-23T10:46:38Z</time>
      </trkpt>
      <trkpt lat="47.71644" lon="3.6636">
        <ele>188.9</ele>
        <time>2022-02-23T10:46:39Z</time>
      </trkpt>
      <trkpt lat="47.71642" lon="3.6636">
        <ele>188.7</ele>
        <time>2022-02-23T10:46:40Z</time>
      </trkpt>
      <trkpt lat="47.71641" lon="3.6636">
        <ele>188.4</ele>
        <time>2022-02-23T10:46:41Z</time>
      </trkpt>
      <trkpt lat="47.71639" lon="3.6636">
        <ele>188.2</ele>
        <time>2022-02-23T10:46:42Z</time>
      </trkpt>
      <trkpt lat="47.71638" lon="3.6636">
        <ele>188</ele>
        <time>2022-02-23T10:46:43Z</time>
      </trkpt>
      <trkpt lat="47.71636" lon="3.66361">
        <ele>187.7</ele>
        <time>2022-02-23T10:46:45Z</time>
      </trkpt>
      <trkpt lat="47.71635" lon="3.66361">
        <ele>187.5</ele>
        <time>2022-02-23T10:46:46Z</time>
      </trkpt>
      <trkpt lat="47.71634" lon="3.66361">
        <ele>187.4</ele>
        <time>2022-02-23T10:46:47Z</time>
      </trkpt>
      <trkpt lat="47.71633" lon="3.66361">
        <ele>187.2</ele>
        <time>2022-02-23T10:46:48Z</time>
      </trkpt>
      <trkpt lat="47.71631" lon="3.66361">
        <ele>187</ele>
        <time>2022-02-23T10:46:49Z</time>
      </trkpt>
      <trkpt lat="47.7163" lon="3.6636">
        <ele>186.8</ele>
        <time>2022-02-23T10:46:50Z</time>
      </trkpt>
      <trkpt lat="47.71629" lon="3.66359">
        <ele>186.6</ele>
        <time>2022-02-23T10:46:51Z</time>
      </trkpt>
      <trkpt lat="47.71626" lon="3.66359">
        <ele>186.3</ele>
        <time>2022-02-23T10:46:52Z</time>
      </trkpt>
      <trkpt lat="47.71626" lon="3.66359">
        <ele>186.2</ele>
        <time>2022-02-23T10:46:53Z</time>
      </trkpt>
      <trkpt lat="47.71625" lon="3.66359">
        <ele>186</ele>
        <time>2022-02-23T10:46:54Z</time>
      </trkpt>
      <trkpt lat="47.71623" lon="3.66359">
        <ele>185.7</ele>
        <time>2022-02-23T10:46:55Z</time>
      </trkpt>
      <trkpt lat="47.71622" lon="3.66358">
        <ele>185.6</ele>
        <time>2022-02-23T10:46:56Z</time>
      </trkpt>
      <trkpt lat="47.71621" lon="3.66358">
        <ele>185.5</ele>
        <time>2022-02-23T10:46:57Z</time>
      </trkpt>
      <trkpt lat="47.7162" lon="3.66358">
        <ele>185.3</ele>
        <time>2022-02-23T10:46:59Z</time>
      </trkpt>
      <trkpt lat="47.71619" lon="3.66358">
        <ele>185.1</ele>
        <time>2022-02-23T10:47:00Z</time>
      </trkpt>
      <trkpt lat="47.71618" lon="3.66358">
        <ele>185</ele>
        <time>2022-02-23T10:47:01Z</time>
      </trkpt>
      <trkpt lat="47.71615" lon="3.66358">
        <ele>184.6</ele>
        <time>2022-02-23T10:47:02Z</time>
      </trkpt>
      <trkpt lat="47.71615" lon="3.66358">
        <ele>184.5</ele>
        <time>2022-02-23T10:47:03Z</time>
      </trkpt>
      <trkpt lat="47.71614" lon="3.66358">
        <ele>184.4</ele>
        <time>2022-02-23T10:47:04Z</time>
      </trkpt>
      <trkpt lat="47.71613" lon="3.66358">
        <ele>184.2</ele>
        <time>2022-02-23T10:47:05Z</time>
      </trkpt>
      <trkpt lat="47.71612" lon="3.66359">
        <ele>184</ele>
        <time>2022-02-23T10:47:06Z</time>
      </trkpt>
      <trkpt lat="47.71611" lon="3.66358">
        <ele>183.9</ele>
        <time>2022-02-23T10:47:08Z</time>
      </trkpt>
      <trkpt lat="47.7161" lon="3.66358">
        <ele>183.7</ele>
        <time>2022-02-23T10:47:09Z</time>
      </trkpt>
      <trkpt lat="47.71609" lon="3.66358">
        <ele>183.6</ele>
        <time>2022-02-23T10:47:10Z</time>
      </trkpt>
      <trkpt lat="47.71609" lon="3.66359">
        <ele>183.5</ele>
        <time>2022-02-23T10:47:11Z</time>
      </trkpt>
      <trkpt lat="47.71608" lon="3.66361">
        <ele>183.3</ele>
        <time>2022-02-23T10:47:12Z</time>
      </trkpt>
      <trkpt lat="47.71607" lon="3.66361">
        <ele>183.2</ele>
        <time>2022-02-23T10:47:13Z</time>
      </trkpt>
      <trkpt lat="47.71606" lon="3.66362">
        <ele>183</ele>
        <time>2022-02-23T10:47:15Z</time>
      </trkpt>
      <trkpt lat="47.71605" lon="3.66363">
        <ele>182.8</ele>
        <time>2022-02-23T10:47:16Z</time>
      </trkpt>
      <trkpt lat="47.71603" lon="3.66365">
        <ele>182.4</ele>
        <time>2022-02-23T10:47:17Z</time>
      </trkpt>
      <trkpt lat="47.71603" lon="3.66366">
        <ele>182.3</ele>
        <time>2022-02-23T10:47:18Z</time>
      </trkpt>
      <trkpt lat="47.71602" lon="3.66367">
        <ele>182.2</ele>
        <time>2022-02-23T10:47:19Z</time>
      </trkpt>
      <trkpt lat="47.71601" lon="3.66368">
        <ele>182</ele>
        <time>2022-02-23T10:47:20Z</time>
      </trkpt>
      <trkpt lat="47.716" lon="3.66369">
        <ele>181.8</ele>
        <time>2022-02-23T10:47:22Z</time>
      </trkpt>
      <trkpt lat="47.716" lon="3.6637">
        <ele>181.7</ele>
        <time>2022-02-23T10:47:23Z</time>
      </trkpt>
      <trkpt lat="47.71599" lon="3.6637">
        <ele>181.7</ele>
        <time>2022-02-23T10:47:24Z</time>
      </trkpt>
      <trkpt lat="47.71599" lon="3.6637">
        <ele>181.6</ele>
        <time>2022-02-23T10:47:25Z</time>
      </trkpt>
      <trkpt lat="47.71599" lon="3.66371">
        <ele>181.5</ele>
        <time>2022-02-23T10:47:26Z</time>
      </trkpt>
      <trkpt lat="47.71598" lon="3.66371">
        <ele>181.4</ele>
        <time>2022-02-23T10:47:27Z</time>
      </trkpt>
      <trkpt lat="47.71597" lon="3.66372">
        <ele>181.2</ele>
        <time>2022-02-23T10:47:28Z</time>
      </trkpt>
      <trkpt lat="47.71595" lon="3.66374">
        <ele>180.9</ele>
        <time>2022-02-23T10:47:29Z</time>
      </trkpt>
      <trkpt lat="47.71594" lon="3.66375">
        <ele>180.7</ele>
        <time>2022-02-23T10:47:30Z</time>
      </trkpt>
      <trkpt lat="47.71594" lon="3.66375">
        <ele>180.6</ele>
        <time>2022-02-23T10:47:31Z</time>
      </trkpt>
      <trkpt lat="47.71592" lon="3.66376">
        <ele>180.4</ele>
        <time>2022-02-23T10:47:32Z</time>
      </trkpt>
      <trkpt lat="47.71591" lon="3.66377">
        <ele>180.2</ele>
        <time>2022-02-23T10:47:33Z</time>
      </trkpt>
      <trkpt lat="47.71588" lon="3.66379">
        <ele>179.7</ele>
        <time>2022-02-23T10:47:35Z</time>
      </trkpt>
      <trkpt lat="47.71587" lon="3.6638">
        <ele>179.6</ele>
        <time>2022-02-23T10:47:36Z</time>
      </trkpt>
      <trkpt lat="47.71587" lon="3.66381">
        <ele>179.5</ele>
        <time>2022-02-23T10:47:37Z</time>
      </trkpt>
      <trkpt lat="47.71586" lon="3.66381">
        <ele>179.4</ele>
        <time>2022-02-23T10:47:38Z</time>
      </trkpt>
      <trkpt lat="47.71585" lon="3.66382">
        <ele>179.2</ele>
        <time>2022-02-23T10:47:39Z</time>
      </trkpt>
      <trkpt lat="47.71583" lon="3.66384">
        <ele>178.9</ele>
        <time>2022-02-23T10:47:40Z</time>
      </trkpt>
      <trkpt lat="47.71582" lon="3.66384">
        <ele>178.8</ele>
        <time>2022-02-23T10:47:41Z</time>
      </trkpt>
      <trkpt lat="47.71582" lon="3.66384">
        <ele>178.6</ele>
        <time>2022-02-23T10:47:42Z</time>
      </trkpt>
      <trkpt lat="47.7158" lon="3.66385">
        <ele>178.4</ele>
        <time>2022-02-23T10:47:44Z</time>
      </trkpt>
      <trkpt lat="47.71579" lon="3.66387">
        <ele>178.2</ele>
        <time>2022-02-23T10:47:45Z</time>
      </trkpt>
      <trkpt lat="47.71579" lon="3.66388">
        <ele>178.1</ele>
        <time>2022-02-23T10:47:46Z</time>
      </trkpt>
      <trkpt lat="47.71579" lon="3.66388">
        <ele>178</ele>
        <time>2022-02-23T10:47:47Z</time>
      </trkpt>
      <trkpt lat="47.71579" lon="3.66389">
        <ele>178</ele>
        <time>2022-02-23T10:47:48Z</time>
      </trkpt>
      <trkpt lat="47.7158" lon="3.66389">
        <ele>177.9</ele>
        <time>2022-02-23T10:47:49Z</time>
      </trkpt>
      <trkpt lat="47.7158" lon="3.6639">
        <ele>177.9</ele>
        <time>2022-02-23T10:47:51Z</time>
      </trkpt>
      <trkpt lat="47.7158" lon="3.6639">
        <ele>177.8</ele>
        <time>2022-02-23T10:47:52Z</time>
      </trkpt>
      <trkpt lat="47.7158" lon="3.6639">
        <ele>177.8</ele>
        <time>2022-02-23T10:47:53Z</time>
      </trkpt>
      <trkpt lat="47.7158" lon="3.66391">
        <ele>177.8</ele>
        <time>2022-02-23T10:47:54Z</time>
      </trkpt>
      <trkpt lat="47.71581" lon="3.66391">
        <ele>177.7</ele>
        <time>2022-02-23T10:47:55Z</time>
      </trkpt>
      <trkpt lat="47.71581" lon="3.66391">
        <ele>177.7</ele>
        <time>2022-02-23T10:47:56Z</time>
      </trkpt>
      <trkpt lat="47.71581" lon="3.66393">
        <ele>177.5</ele>
        <time>2022-02-23T10:47:57Z</time>
      </trkpt>
      <trkpt lat="47.71581" lon="3.66395">
        <ele>177.3</ele>
        <time>2022-02-23T10:47:58Z</time>
      </trkpt>
      <trkpt lat="47.7158" lon="3.66397">
        <ele>177.1</ele>
        <time>2022-02-23T10:48:00Z</time>
      </trkpt>
      <trkpt lat="47.71579" lon="3.66401">
        <ele>176.7</ele>
        <time>2022-02-23T10:48:01Z</time>
      </trkpt>
      <trkpt lat="47.71578" lon="3.66402">
        <ele>176.6</ele>
        <time>2022-02-23T10:48:02Z</time>
      </trkpt>
      <trkpt lat="47.71577" lon="3.66404">
        <ele>176.4</ele>
        <time>2022-02-23T10:48:04Z</time>
      </trkpt>
      <trkpt lat="47.71576" lon="3.66405">
        <ele>176.2</ele>
        <time>2022-02-23T10:48:05Z</time>
      </trkpt>
      <trkpt lat="47.71574" lon="3.66407">
        <ele>175.9</ele>
        <time>2022-02-23T10:48:07Z</time>
      </trkpt>
      <trkpt lat="47.71574" lon="3.66408">
        <ele>175.8</ele>
        <time>2022-02-23T10:48:08Z</time>
      </trkpt>
      <trkpt lat="47.71573" lon="3.66409">
        <ele>175.7</ele>
        <time>2022-02-23T10:48:09Z</time>
      </trkpt>
      <trkpt lat="47.71572" lon="3.6641">
        <ele>175.5</ele>
        <time>2022-02-23T10:48:10Z</time>
      </trkpt>
      <trkpt lat="47.71572" lon="3.66412">
        <ele>175.3</ele>
        <time>2022-02-23T10:48:11Z</time>
      </trkpt>
      <trkpt lat="47.71572" lon="3.66413">
        <ele>175.3</ele>
        <time>2022-02-23T10:48:12Z</time>
      </trkpt>
      <trkpt lat="47.71572" lon="3.66414">
        <ele>175.2</ele>
        <time>2022-02-23T10:48:13Z</time>
      </trkpt>
      <trkpt lat="47.71571" lon="3.66415">
        <ele>175.1</ele>
        <time>2022-02-23T10:48:14Z</time>
      </trkpt>
      <trkpt lat="47.71571" lon="3.66416">
        <ele>175</ele>
        <time>2022-02-23T10:48:15Z</time>
      </trkpt>
      <trkpt lat="47.71571" lon="3.66418">
        <ele>174.8</ele>
        <time>2022-02-23T10:48:17Z</time>
      </trkpt>
      <trkpt lat="47.7157" lon="3.6642">
        <ele>174.6</ele>
        <time>2022-02-23T10:48:18Z</time>
      </trkpt>
      <trkpt lat="47.7157" lon="3.66422">
        <ele>174.4</ele>
        <time>2022-02-23T10:48:19Z</time>
      </trkpt>
      <trkpt lat="47.71569" lon="3.66425">
        <ele>174.2</ele>
        <time>2022-02-23T10:48:20Z</time>
      </trkpt>
      <trkpt lat="47.71569" lon="3.66428">
        <ele>173.9</ele>
        <time>2022-02-23T10:48:21Z</time>
      </trkpt>
      <trkpt lat="47.71569" lon="3.66429">
        <ele>173.8</ele>
        <time>2022-02-23T10:48:22Z</time>
      </trkpt>
      <trkpt lat="47.71568" lon="3.66432">
        <ele>173.6</ele>
        <time>2022-02-23T10:48:24Z</time>
      </trkpt>
      <trkpt lat="47.71568" lon="3.66433">
        <ele>173.5</ele>
        <time>2022-02-23T10:48:25Z</time>
      </trkpt>
      <trkpt lat="47.71568" lon="3.66434">
        <ele>173.3</ele>
        <time>2022-02-23T10:48:26Z</time>
      </trkpt>
      <trkpt lat="47.71567" lon="3.66435">
        <ele>173.2</ele>
        <time>2022-02-23T10:48:27Z</time>
      </trkpt>
      <trkpt lat="47.71566" lon="3.66436">
        <ele>173.1</ele>
        <time>2022-02-23T10:48:28Z</time>
      </trkpt>
      <trkpt lat="47.71565" lon="3.66437">
        <ele>172.9</ele>
        <time>2022-02-23T10:48:29Z</time>
      </trkpt>
      <trkpt lat="47.71565" lon="3.66438">
        <ele>172.8</ele>
        <time>2022-02-23T10:48:31Z</time>
      </trkpt>
      <trkpt lat="47.71564" lon="3.66439">
        <ele>172.7</ele>
        <time>2022-02-23T10:48:32Z</time>
      </trkpt>
      <trkpt lat="47.71563" lon="3.6644">
        <ele>172.6</ele>
        <time>2022-02-23T10:48:33Z</time>
      </trkpt>
      <trkpt lat="47.71562" lon="3.66441">
        <ele>172.4</ele>
        <time>2022-02-23T10:48:34Z</time>
      </trkpt>
      <trkpt lat="47.71561" lon="3.66443">
        <ele>172.2</ele>
        <time>2022-02-23T10:48:35Z</time>
      </trkpt>
      <trkpt lat="47.71561" lon="3.66445">
        <ele>172.1</ele>
        <time>2022-02-23T10:48:36Z</time>
      </trkpt>
      <trkpt lat="47.7156" lon="3.66447">
        <ele>171.9</ele>
        <time>2022-02-23T10:48:37Z</time>
      </trkpt>
      <trkpt lat="47.71559" lon="3.6645">
        <ele>171.6</ele>
        <time>2022-02-23T10:48:39Z</time>
      </trkpt>
      <trkpt lat="47.71559" lon="3.66452">
        <ele>171.5</ele>
        <time>2022-02-23T10:48:40Z</time>
      </trkpt>
      <trkpt lat="47.71558" lon="3.66453">
        <ele>171.3</ele>
        <time>2022-02-23T10:48:41Z</time>
      </trkpt>
      <trkpt lat="47.71558" lon="3.66455">
        <ele>171.2</ele>
        <time>2022-02-23T10:48:42Z</time>
      </trkpt>
      <trkpt lat="47.71558" lon="3.66458">
        <ele>170.9</ele>
        <time>2022-02-23T10:48:43Z</time>
      </trkpt>
      <trkpt lat="47.71557" lon="3.66459">
        <ele>170.8</ele>
        <time>2022-02-23T10:48:44Z</time>
      </trkpt>
      <trkpt lat="47.71557" lon="3.66461">
        <ele>170.8</ele>
        <time>2022-02-23T10:48:45Z</time>
      </trkpt>
      <trkpt lat="47.71556" lon="3.66463">
        <ele>170.5</ele>
        <time>2022-02-23T10:48:46Z</time>
      </trkpt>
      <trkpt lat="47.71556" lon="3.66464">
        <ele>170.4</ele>
        <time>2022-02-23T10:48:47Z</time>
      </trkpt>
      <trkpt lat="47.71555" lon="3.66465">
        <ele>170.3</ele>
        <time>2022-02-23T10:48:49Z</time>
      </trkpt>
      <trkpt lat="47.71555" lon="3.66466">
        <ele>170.2</ele>
        <time>2022-02-23T10:48:50Z</time>
      </trkpt>
      <trkpt lat="47.71554" lon="3.66467">
        <ele>170.2</ele>
        <time>2022-02-23T10:48:51Z</time>
      </trkpt>
      <trkpt lat="47.71554" lon="3.66468">
        <ele>170.1</ele>
        <time>2022-02-23T10:48:52Z</time>
      </trkpt>
      <trkpt lat="47.71553" lon="3.66469">
        <ele>170</ele>
        <time>2022-02-23T10:48:53Z</time>
      </trkpt>
      <trkpt lat="47.71552" lon="3.6647">
        <ele>169.9</ele>
        <time>2022-02-23T10:48:54Z</time>
      </trkpt>
      <trkpt lat="47.71552" lon="3.66472">
        <ele>169.7</ele>
        <time>2022-02-23T10:48:55Z</time>
      </trkpt>
      <trkpt lat="47.71551" lon="3.66473">
        <ele>169.6</ele>
        <time>2022-02-23T10:48:56Z</time>
      </trkpt>
      <trkpt lat="47.7155" lon="3.66475">
        <ele>169.4</ele>
        <time>2022-02-23T10:48:57Z</time>
      </trkpt>
      <trkpt lat="47.71549" lon="3.66476">
        <ele>169.3</ele>
        <time>2022-02-23T10:48:58Z</time>
      </trkpt>
      <trkpt lat="47.71548" lon="3.66478">
        <ele>169.1</ele>
        <time>2022-02-23T10:48:59Z</time>
      </trkpt>
      <trkpt lat="47.71548" lon="3.66479">
        <ele>169</ele>
        <time>2022-02-23T10:49:00Z</time>
      </trkpt>
      <trkpt lat="47.71547" lon="3.6648">
        <ele>168.9</ele>
        <time>2022-02-23T10:49:02Z</time>
      </trkpt>
      <trkpt lat="47.71547" lon="3.66482">
        <ele>168.8</ele>
        <time>2022-02-23T10:49:03Z</time>
      </trkpt>
      <trkpt lat="47.71546" lon="3.66483">
        <ele>168.7</ele>
        <time>2022-02-23T10:49:04Z</time>
      </trkpt>
      <trkpt lat="47.71545" lon="3.66485">
        <ele>168.6</ele>
        <time>2022-02-23T10:49:05Z</time>
      </trkpt>
      <trkpt lat="47.71544" lon="3.66487">
        <ele>168.3</ele>
        <time>2022-02-23T10:49:06Z</time>
      </trkpt>
      <trkpt lat="47.71544" lon="3.66488">
        <ele>168.2</ele>
        <time>2022-02-23T10:49:07Z</time>
      </trkpt>
      <trkpt lat="47.71543" lon="3.66489">
        <ele>168.1</ele>
        <time>2022-02-23T10:49:08Z</time>
      </trkpt>
      <trkpt lat="47.71542" lon="3.66491">
        <ele>168</ele>
        <time>2022-02-23T10:49:09Z</time>
      </trkpt>
      <trkpt lat="47.71541" lon="3.66492">
        <ele>167.8</ele>
        <time>2022-02-23T10:49:10Z</time>
      </trkpt>
      <trkpt lat="47.7154" lon="3.66494">
        <ele>167.6</ele>
        <time>2022-02-23T10:49:11Z</time>
      </trkpt>
      <trkpt lat="47.71538" lon="3.66495">
        <ele>167.4</ele>
        <time>2022-02-23T10:49:12Z</time>
      </trkpt>
      <trkpt lat="47.71537" lon="3.66497">
        <ele>167.3</ele>
        <time>2022-02-23T10:49:14Z</time>
      </trkpt>
      <trkpt lat="47.71536" lon="3.66498">
        <ele>167.1</ele>
        <time>2022-02-23T10:49:15Z</time>
      </trkpt>
      <trkpt lat="47.71534" lon="3.66499">
        <ele>167</ele>
        <time>2022-02-23T10:49:16Z</time>
      </trkpt>
      <trkpt lat="47.71533" lon="3.665">
        <ele>166.8</ele>
        <time>2022-02-23T10:49:17Z</time>
      </trkpt>
      <trkpt lat="47.71532" lon="3.66501">
        <ele>166.7</ele>
        <time>2022-02-23T10:49:18Z</time>
      </trkpt>
      <trkpt lat="47.71531" lon="3.66502">
        <ele>166.5</ele>
        <time>2022-02-23T10:49:19Z</time>
      </trkpt>
      <trkpt lat="47.71529" lon="3.66503">
        <ele>166.4</ele>
        <time>2022-02-23T10:49:21Z</time>
      </trkpt>
      <trkpt lat="47.71528" lon="3.66504">
        <ele>166.2</ele>
        <time>2022-02-23T10:49:22Z</time>
      </trkpt>
      <trkpt lat="47.71527" lon="3.66505">
        <ele>166.1</ele>
        <time>2022-02-23T10:49:23Z</time>
      </trkpt>
      <trkpt lat="47.71526" lon="3.66507">
        <ele>166</ele>
        <time>2022-02-23T10:49:24Z</time>
      </trkpt>
      <trkpt lat="47.71525" lon="3.66508">
        <ele>165.9</ele>
        <time>2022-02-23T10:49:25Z</time>
      </trkpt>
      <trkpt lat="47.71524" lon="3.66509">
        <ele>165.7</ele>
        <time>2022-02-23T10:49:26Z</time>
      </trkpt>
      <trkpt lat="47.71522" lon="3.6651">
        <ele>165.6</ele>
        <time>2022-02-23T10:49:27Z</time>
      </trkpt>
      <trkpt lat="47.71521" lon="3.66511">
        <ele>165.5</ele>
        <time>2022-02-23T10:49:28Z</time>
      </trkpt>
      <trkpt lat="47.7152" lon="3.66512">
        <ele>165.4</ele>
        <time>2022-02-23T10:49:30Z</time>
      </trkpt>
      <trkpt lat="47.71519" lon="3.66513">
        <ele>165.3</ele>
        <time>2022-02-23T10:49:31Z</time>
      </trkpt>
      <trkpt lat="47.71518" lon="3.66513">
        <ele>165.3</ele>
        <time>2022-02-23T10:49:32Z</time>
      </trkpt>
      <trkpt lat="47.71517" lon="3.66514">
        <ele>165.1</ele>
        <time>2022-02-23T10:49:33Z</time>
      </trkpt>
      <trkpt lat="47.71515" lon="3.66515">
        <ele>165</ele>
        <time>2022-02-23T10:49:34Z</time>
      </trkpt>
      <trkpt lat="47.71514" lon="3.66515">
        <ele>164.9</ele>
        <time>2022-02-23T10:49:35Z</time>
      </trkpt>
      <trkpt lat="47.71513" lon="3.66515">
        <ele>164.8</ele>
        <time>2022-02-23T10:49:36Z</time>
      </trkpt>
      <trkpt lat="47.71511" lon="3.66515">
        <ele>164.7</ele>
        <time>2022-02-23T10:49:37Z</time>
      </trkpt>
      <trkpt lat="47.7151" lon="3.66515">
        <ele>164.6</ele>
        <time>2022-02-23T10:49:38Z</time>
      </trkpt>
      <trkpt lat="47.7151" lon="3.66515">
        <ele>164.6</ele>
        <time>2022-02-23T10:49:39Z</time>
      </trkpt>
      <trkpt lat="47.71507" lon="3.66516">
        <ele>164.4</ele>
        <time>2022-02-23T10:49:41Z</time>
      </trkpt>
      <trkpt lat="47.71507" lon="3.66516">
        <ele>164.3</ele>
        <time>2022-02-23T10:49:42Z</time>
      </trkpt>
      <trkpt lat="47.71506" lon="3.66516">
        <ele>164.3</ele>
        <time>2022-02-23T10:49:43Z</time>
      </trkpt>
      <trkpt lat="47.71504" lon="3.66516">
        <ele>164.2</ele>
        <time>2022-02-23T10:49:44Z</time>
      </trkpt>
      <trkpt lat="47.71503" lon="3.66516">
        <ele>164.2</ele>
        <time>2022-02-23T10:49:45Z</time>
      </trkpt>
      <trkpt lat="47.71502" lon="3.66516">
        <ele>164.2</ele>
        <time>2022-02-23T10:49:46Z</time>
      </trkpt>
      <trkpt lat="47.71501" lon="3.66515">
        <ele>164.2</ele>
        <time>2022-02-23T10:49:47Z</time>
      </trkpt>
      <trkpt lat="47.71499" lon="3.66515">
        <ele>164.1</ele>
        <time>2022-02-23T10:49:49Z</time>
      </trkpt>
      <trkpt lat="47.71498" lon="3.66515">
        <ele>164.1</ele>
        <time>2022-02-23T10:49:50Z</time>
      </trkpt>
      <trkpt lat="47.71497" lon="3.66514">
        <ele>164.1</ele>
        <time>2022-02-23T10:49:51Z</time>
      </trkpt>
      <trkpt lat="47.71496" lon="3.66514">
        <ele>164.1</ele>
        <time>2022-02-23T10:49:52Z</time>
      </trkpt>
      <trkpt lat="47.71495" lon="3.66514">
        <ele>164</ele>
        <time>2022-02-23T10:49:53Z</time>
      </trkpt>
      <trkpt lat="47.71494" lon="3.66514">
        <ele>164</ele>
        <time>2022-02-23T10:49:54Z</time>
      </trkpt>
      <trkpt lat="47.71493" lon="3.66513">
        <ele>164</ele>
        <time>2022-02-23T10:49:55Z</time>
      </trkpt>
      <trkpt lat="47.71493" lon="3.66514">
        <ele>164</ele>
        <time>2022-02-23T10:49:56Z</time>
      </trkpt>
      <trkpt lat="47.71492" lon="3.66516">
        <ele>163.9</ele>
        <time>2022-02-23T10:49:58Z</time>
      </trkpt>
      <trkpt lat="47.71493" lon="3.66518">
        <ele>163.9</ele>
        <time>2022-02-23T10:49:59Z</time>
      </trkpt>
      <trkpt lat="47.71493" lon="3.66519">
        <ele>163.9</ele>
        <time>2022-02-23T10:50:01Z</time>
      </trkpt>
      <trkpt lat="47.71493" lon="3.66518">
        <ele>163.9</ele>
        <time>2022-02-23T10:50:02Z</time>
      </trkpt>
      <trkpt lat="47.71493" lon="3.66517">
        <ele>163.9</ele>
        <time>2022-02-23T10:50:03Z</time>
      </trkpt>
      <trkpt lat="47.71493" lon="3.66516">
        <ele>163.9</ele>
        <time>2022-02-23T10:50:04Z</time>
      </trkpt>
      <trkpt lat="47.71493" lon="3.66514">
        <ele>163.8</ele>
        <time>2022-02-23T10:50:05Z</time>
      </trkpt>
      <trkpt lat="47.71493" lon="3.66513">
        <ele>163.8</ele>
        <time>2022-02-23T10:50:06Z</time>
      </trkpt>
      <trkpt lat="47.71493" lon="3.66511">
        <ele>163.8</ele>
        <time>2022-02-23T10:50:07Z</time>
      </trkpt>
      <trkpt lat="47.71494" lon="3.66508">
        <ele>163.8</ele>
        <time>2022-02-23T10:50:09Z</time>
      </trkpt>
      <trkpt lat="47.71494" lon="3.66507">
        <ele>163.7</ele>
        <time>2022-02-23T10:50:10Z</time>
      </trkpt>
      <trkpt lat="47.71495" lon="3.66506">
        <ele>163.7</ele>
        <time>2022-02-23T10:50:11Z</time>
      </trkpt>
      <trkpt lat="47.71495" lon="3.66505">
        <ele>163.7</ele>
        <time>2022-02-23T10:50:12Z</time>
      </trkpt>
      <trkpt lat="47.71495" lon="3.66505">
        <ele>163.7</ele>
        <time>2022-02-23T10:50:13Z</time>
      </trkpt>
      <trkpt lat="47.71495" lon="3.66505">
        <ele>163.7</ele>
        <time>2022-02-23T10:50:14Z</time>
      </trkpt>
      <trkpt lat="47.71495" lon="3.66506">
        <ele>163.7</ele>
        <time>2022-02-23T10:50:15Z</time>
      </trkpt>
      <trkpt lat="47.71494" lon="3.66506">
        <ele>163.7</ele>
        <time>2022-02-23T10:50:16Z</time>
      </trkpt>
      <trkpt lat="47.71494" lon="3.66506">
        <ele>163.7</ele>
        <time>2022-02-23T10:50:17Z</time>
      </trkpt>
      <trkpt lat="47.71494" lon="3.66506">
        <ele>163.7</ele>
        <time>2022-02-23T10:50:18Z</time>
      </trkpt>
      <trkpt lat="47.71495" lon="3.66506">
        <ele>163.7</ele>
        <time>2022-02-23T10:50:19Z</time>
      </trkpt>
      <trkpt lat="47.71495" lon="3.66506">
        <ele>163.7</ele>
        <time>2022-02-23T10:50:20Z</time>
      </trkpt>
      <trkpt lat="47.71495" lon="3.66506">
        <ele>163.7</ele>
        <time>2022-02-23T10:50:21Z</time>
      </trkpt>
      <trkpt lat="47.71496" lon="3.66505">
        <ele>163.7</ele>
        <time>2022-02-23T10:50:23Z</time>
      </trkpt>
      <trkpt lat="47.71496" lon="3.66505">
        <ele>163.6</ele>
        <time>2022-02-23T10:50:24Z</time>
      </trkpt>
      <trkpt lat="47.71496" lon="3.66503">
        <ele>163.4</ele>
        <time>2022-02-23T10:50:25Z</time>
      </trkpt>
      <trkpt lat="47.71495" lon="3.66501">
        <ele>163.3</ele>
        <time>2022-02-23T10:50:26Z</time>
      </trkpt>
      <trkpt lat="47.71495" lon="3.665">
        <ele>163.2</ele>
        <time>2022-02-23T10:50:27Z</time>
      </trkpt>
      <trkpt lat="47.71494" lon="3.66498">
        <ele>163.2</ele>
        <time>2022-02-23T10:50:28Z</time>
      </trkpt>
      <trkpt lat="47.71494" lon="3.66497">
        <ele>163.2</ele>
        <time>2022-02-23T10:50:29Z</time>
      </trkpt>
      <trkpt lat="47.71494" lon="3.66496">
        <ele>163.1</ele>
        <time>2022-02-23T10:50:30Z</time>
      </trkpt>
      <trkpt lat="47.71495" lon="3.66494">
        <ele>163</ele>
        <time>2022-02-23T10:50:31Z</time>
      </trkpt>
      <trkpt lat="47.71495" lon="3.66491">
        <ele>162.9</ele>
        <time>2022-02-23T10:50:32Z</time>
      </trkpt>
      <trkpt lat="47.71495" lon="3.66489">
        <ele>162.9</ele>
        <time>2022-02-23T10:50:33Z</time>
      </trkpt>
      <trkpt lat="47.71496" lon="3.66486">
        <ele>162.8</ele>
        <time>2022-02-23T10:50:35Z</time>
      </trkpt>
      <trkpt lat="47.71496" lon="3.66484">
        <ele>162.7</ele>
        <time>2022-02-23T10:50:36Z</time>
      </trkpt>
      <trkpt lat="47.71496" lon="3.66481">
        <ele>162.6</ele>
        <time>2022-02-23T10:50:37Z</time>
      </trkpt>
      <trkpt lat="47.71497" lon="3.66479">
        <ele>162.6</ele>
        <time>2022-02-23T10:50:38Z</time>
      </trkpt>
      <trkpt lat="47.71497" lon="3.66476">
        <ele>162.5</ele>
        <time>2022-02-23T10:50:39Z</time>
      </trkpt>
      <trkpt lat="47.71498" lon="3.66474">
        <ele>162.4</ele>
        <time>2022-02-23T10:50:40Z</time>
      </trkpt>
      <trkpt lat="47.71498" lon="3.66472">
        <ele>162.4</ele>
        <time>2022-02-23T10:50:41Z</time>
      </trkpt>
      <trkpt lat="47.71499" lon="3.6647">
        <ele>162.3</ele>
        <time>2022-02-23T10:50:43Z</time>
      </trkpt>
      <trkpt lat="47.71499" lon="3.66468">
        <ele>162.3</ele>
        <time>2022-02-23T10:50:44Z</time>
      </trkpt>
      <trkpt lat="47.715" lon="3.66467">
        <ele>162.2</ele>
        <time>2022-02-23T10:50:46Z</time>
      </trkpt>
      <trkpt lat="47.715" lon="3.66466">
        <ele>162.2</ele>
        <time>2022-02-23T10:50:47Z</time>
      </trkpt>
      <trkpt lat="47.715" lon="3.66465">
        <ele>162.2</ele>
        <time>2022-02-23T10:50:49Z</time>
      </trkpt>
      <trkpt lat="47.715" lon="3.66464">
        <ele>162.2</ele>
        <time>2022-02-23T10:50:50Z</time>
      </trkpt>
      <trkpt lat="47.715" lon="3.66464">
        <ele>162.2</ele>
        <time>2022-02-23T10:50:51Z</time>
      </trkpt>
      <trkpt lat="47.71499" lon="3.66463">
        <ele>162.1</ele>
        <time>2022-02-23T10:50:52Z</time>
      </trkpt>
      <trkpt lat="47.71499" lon="3.66461">
        <ele>162.1</ele>
        <time>2022-02-23T10:50:53Z</time>
      </trkpt>
      <trkpt lat="47.71499" lon="3.66459">
        <ele>162.1</ele>
        <time>2022-02-23T10:50:55Z</time>
      </trkpt>
      <trkpt lat="47.71499" lon="3.66456">
        <ele>162</ele>
        <time>2022-02-23T10:50:56Z</time>
      </trkpt>
      <trkpt lat="47.71499" lon="3.66454">
        <ele>162</ele>
        <time>2022-02-23T10:50:57Z</time>
      </trkpt>
      <trkpt lat="47.71498" lon="3.66451">
        <ele>161.9</ele>
        <time>2022-02-23T10:50:58Z</time>
      </trkpt>
      <trkpt lat="47.71498" lon="3.66449">
        <ele>161.9</ele>
        <time>2022-02-23T10:50:59Z</time>
      </trkpt>
      <trkpt lat="47.71498" lon="3.66448">
        <ele>161.9</ele>
        <time>2022-02-23T10:51:00Z</time>
      </trkpt>
      <trkpt lat="47.71499" lon="3.66445">
        <ele>161.8</ele>
        <time>2022-02-23T10:51:01Z</time>
      </trkpt>
      <trkpt lat="47.71499" lon="3.66444">
        <ele>161.8</ele>
        <time>2022-02-23T10:51:02Z</time>
      </trkpt>
      <trkpt lat="47.715" lon="3.66443">
        <ele>161.8</ele>
        <time>2022-02-23T10:51:03Z</time>
      </trkpt>
      <trkpt lat="47.71501" lon="3.6644">
        <ele>161.7</ele>
        <time>2022-02-23T10:51:04Z</time>
      </trkpt>
      <trkpt lat="47.715" lon="3.66439">
        <ele>161.7</ele>
        <time>2022-02-23T10:51:06Z</time>
      </trkpt>
      <trkpt lat="47.715" lon="3.66437">
        <ele>161.7</ele>
        <time>2022-02-23T10:51:07Z</time>
      </trkpt>
      <trkpt lat="47.715" lon="3.66436">
        <ele>161.7</ele>
        <time>2022-02-23T10:51:08Z</time>
      </trkpt>
      <trkpt lat="47.715" lon="3.66434">
        <ele>161.6</ele>
        <time>2022-02-23T10:51:09Z</time>
      </trkpt>
      <trkpt lat="47.715" lon="3.66433">
        <ele>161.6</ele>
        <time>2022-02-23T10:51:10Z</time>
      </trkpt>
      <trkpt lat="47.71499" lon="3.66432">
        <ele>161.6</ele>
        <time>2022-02-23T10:51:11Z</time>
      </trkpt>
      <trkpt lat="47.71498" lon="3.66431">
        <ele>161.6</ele>
        <time>2022-02-23T10:51:12Z</time>
      </trkpt>
      <trkpt lat="47.71497" lon="3.66428">
        <ele>161.5</ele>
        <time>2022-02-23T10:51:13Z</time>
      </trkpt>
      <trkpt lat="47.71497" lon="3.66427">
        <ele>161.5</ele>
        <time>2022-02-23T10:51:15Z</time>
      </trkpt>
      <trkpt lat="47.71496" lon="3.66426">
        <ele>161.5</ele>
        <time>2022-02-23T10:51:16Z</time>
      </trkpt>
      <trkpt lat="47.71496" lon="3.66424">
        <ele>161.5</ele>
        <time>2022-02-23T10:51:17Z</time>
      </trkpt>
      <trkpt lat="47.71495" lon="3.66423">
        <ele>161.5</ele>
        <time>2022-02-23T10:51:18Z</time>
      </trkpt>
      <trkpt lat="47.71495" lon="3.66422">
        <ele>161.5</ele>
        <time>2022-02-23T10:51:19Z</time>
      </trkpt>
      <trkpt lat="47.71495" lon="3.6642">
        <ele>161.4</ele>
        <time>2022-02-23T10:51:20Z</time>
      </trkpt>
      <trkpt lat="47.71495" lon="3.66419">
        <ele>161.4</ele>
        <time>2022-02-23T10:51:21Z</time>
      </trkpt>
      <trkpt lat="47.71494" lon="3.66415">
        <ele>161.4</ele>
        <time>2022-02-23T10:51:23Z</time>
      </trkpt>
      <trkpt lat="47.71494" lon="3.66412">
        <ele>161.4</ele>
        <time>2022-02-23T10:51:24Z</time>
      </trkpt>
      <trkpt lat="47.71494" lon="3.66411">
        <ele>161.3</ele>
        <time>2022-02-23T10:51:25Z</time>
      </trkpt>
      <trkpt lat="47.71494" lon="3.6641">
        <ele>161.3</ele>
        <time>2022-02-23T10:51:26Z</time>
      </trkpt>
      <trkpt lat="47.71493" lon="3.66407">
        <ele>161.3</ele>
        <time>2022-02-23T10:51:28Z</time>
      </trkpt>
      <trkpt lat="47.71492" lon="3.66406">
        <ele>161.3</ele>
        <time>2022-02-23T10:51:29Z</time>
      </trkpt>
      <trkpt lat="47.71492" lon="3.66405">
        <ele>161.3</ele>
        <time>2022-02-23T10:51:30Z</time>
      </trkpt>
      <trkpt lat="47.71491" lon="3.66404">
        <ele>161.3</ele>
        <time>2022-02-23T10:51:31Z</time>
      </trkpt>
      <trkpt lat="47.71491" lon="3.66402">
        <ele>161.3</ele>
        <time>2022-02-23T10:51:32Z</time>
      </trkpt>
      <trkpt lat="47.7149" lon="3.66401">
        <ele>161.2</ele>
        <time>2022-02-23T10:51:33Z</time>
      </trkpt>
      <trkpt lat="47.71489" lon="3.66399">
        <ele>161.2</ele>
        <time>2022-02-23T10:51:35Z</time>
      </trkpt>
      <trkpt lat="47.71489" lon="3.66397">
        <ele>161.2</ele>
        <time>2022-02-23T10:51:36Z</time>
      </trkpt>
      <trkpt lat="47.71488" lon="3.66395">
        <ele>161.2</ele>
        <time>2022-02-23T10:51:37Z</time>
      </trkpt>
      <trkpt lat="47.71488" lon="3.66393">
        <ele>161.2</ele>
        <time>2022-02-23T10:51:38Z</time>
      </trkpt>
      <trkpt lat="47.71487" lon="3.66391">
        <ele>161.1</ele>
        <time>2022-02-23T10:51:39Z</time>
      </trkpt>
      <trkpt lat="47.71487" lon="3.66389">
        <ele>161.1</ele>
        <time>2022-02-23T10:51:40Z</time>
      </trkpt>
      <trkpt lat="47.71486" lon="3.66388">
        <ele>161.1</ele>
        <time>2022-02-23T10:51:41Z</time>
      </trkpt>
      <trkpt lat="47.71485" lon="3.66385">
        <ele>161.1</ele>
        <time>2022-02-23T10:51:43Z</time>
      </trkpt>
      <trkpt lat="47.71485" lon="3.66384">
        <ele>161.1</ele>
        <time>2022-02-23T10:51:44Z</time>
      </trkpt>
      <trkpt lat="47.71485" lon="3.66383">
        <ele>161.1</ele>
        <time>2022-02-23T10:51:45Z</time>
      </trkpt>
      <trkpt lat="47.71483" lon="3.6638">
        <ele>161.1</ele>
        <time>2022-02-23T10:51:46Z</time>
      </trkpt>
      <trkpt lat="47.71483" lon="3.66379">
        <ele>161.1</ele>
        <time>2022-02-23T10:51:47Z</time>
      </trkpt>
      <trkpt lat="47.71482" lon="3.66378">
        <ele>161.1</ele>
        <time>2022-02-23T10:51:48Z</time>
      </trkpt>
      <trkpt lat="47.71482" lon="3.66377">
        <ele>161</ele>
        <time>2022-02-23T10:51:49Z</time>
      </trkpt>
      <trkpt lat="47.71481" lon="3.66374">
        <ele>161</ele>
        <time>2022-02-23T10:51:51Z</time>
      </trkpt>
      <trkpt lat="47.7148" lon="3.66373">
        <ele>161</ele>
        <time>2022-02-23T10:51:52Z</time>
      </trkpt>
      <trkpt lat="47.7148" lon="3.66371">
        <ele>161</ele>
        <time>2022-02-23T10:51:53Z</time>
      </trkpt>
      <trkpt lat="47.71479" lon="3.6637">
        <ele>161</ele>
        <time>2022-02-23T10:51:54Z</time>
      </trkpt>
      <trkpt lat="47.71479" lon="3.66368">
        <ele>161</ele>
        <time>2022-02-23T10:51:55Z</time>
      </trkpt>
      <trkpt lat="47.71479" lon="3.66367">
        <ele>161</ele>
        <time>2022-02-23T10:51:56Z</time>
      </trkpt>
      <trkpt lat="47.71479" lon="3.66364">
        <ele>161</ele>
        <time>2022-02-23T10:51:58Z</time>
      </trkpt>
      <trkpt lat="47.71479" lon="3.66362">
        <ele>161</ele>
        <time>2022-02-23T10:51:59Z</time>
      </trkpt>
      <trkpt lat="47.71479" lon="3.66361">
        <ele>161</ele>
        <time>2022-02-23T10:52:00Z</time>
      </trkpt>
      <trkpt lat="47.7148" lon="3.66358">
        <ele>161</ele>
        <time>2022-02-23T10:52:02Z</time>
      </trkpt>
      <trkpt lat="47.7148" lon="3.66356">
        <ele>161</ele>
        <time>2022-02-23T10:52:03Z</time>
      </trkpt>
      <trkpt lat="47.7148" lon="3.66356">
        <ele>161</ele>
        <time>2022-02-23T10:52:04Z</time>
      </trkpt>
      <trkpt lat="47.71481" lon="3.66355">
        <ele>161</ele>
        <time>2022-02-23T10:52:05Z</time>
      </trkpt>
      <trkpt lat="47.71481" lon="3.66355">
        <ele>161</ele>
        <time>2022-02-23T10:52:06Z</time>
      </trkpt>
      <trkpt lat="47.71481" lon="3.66356">
        <ele>161</ele>
        <time>2022-02-23T10:52:07Z</time>
      </trkpt>
      <trkpt lat="47.71481" lon="3.66356">
        <ele>161</ele>
        <time>2022-02-23T10:52:09Z</time>
      </trkpt>
      <trkpt lat="47.71481" lon="3.66357">
        <ele>161</ele>
        <time>2022-02-23T10:52:10Z</time>
      </trkpt>
      <trkpt lat="47.71482" lon="3.66357">
        <ele>161</ele>
        <time>2022-02-23T10:52:11Z</time>
      </trkpt>
      <trkpt lat="47.71482" lon="3.66357">
        <ele>161</ele>
        <time>2022-02-23T10:52:12Z</time>
      </trkpt>
      <trkpt lat="47.71482" lon="3.66357">
        <ele>161</ele>
        <time>2022-02-23T10:52:13Z</time>
      </trkpt>
      <trkpt lat="47.71482" lon="3.66357">
        <ele>161</ele>
        <time>2022-02-23T10:52:14Z</time>
      </trkpt>
      <trkpt lat="47.71482" lon="3.66357">
        <ele>161</ele>
        <time>2022-02-23T10:52:16Z</time>
      </trkpt>
      <trkpt lat="47.71483" lon="3.66358">
        <ele>160.9</ele>
        <time>2022-02-23T10:52:17Z</time>
      </trkpt>
      <trkpt lat="47.71483" lon="3.66358">
        <ele>160.9</ele>
        <time>2022-02-23T10:52:18Z</time>
      </trkpt>
      <trkpt lat="47.71483" lon="3.66358">
        <ele>160.9</ele>
        <time>2022-02-23T10:52:19Z</time>
      </trkpt>
      <trkpt lat="47.71483" lon="3.66358">
        <ele>160.9</ele>
        <time>2022-02-23T10:52:20Z</time>
      </trkpt>
      <trkpt lat="47.71483" lon="3.66358">
        <ele>160.9</ele>
        <time>2022-02-23T10:52:21Z</time>
      </trkpt>
      <trkpt lat="47.71483" lon="3.66358">
        <ele>160.9</ele>
        <time>2022-02-23T10:52:22Z</time>
      </trkpt>
      <trkpt lat="47.71483" lon="3.66358">
        <ele>160.9</ele>
        <time>2022-02-23T10:52:23Z</time>
      </trkpt>
      <trkpt lat="47.71483" lon="3.66358">
        <ele>160.9</ele>
        <time>2022-02-23T10:52:24Z</time>
      </trkpt>
      <trkpt lat="47.71483" lon="3.66358">
        <ele>160.9</ele>
        <time>2022-02-23T10:52:25Z</time>
      </trkpt>
    </trkseg>
  </trk>
</gpx>